<?xml version="1.0" encoding="UTF-8" standalone="no" ?>
<gpx xmlns="http://www.topografix.com/GPX/1/1" xmlns:xsi="http://www.w3.org/2001/XMLSchema-instance" xsi:schemaLocation="http://www.topografix.com/GPX/1/1 http://www.topografix.com/GPX/1/1/gpx.xsd" version="1.1" creator="VisuGPX - https://www.visugpx.com">
  <metadata>
    <name>Rossberg via Bitsch </name>
    <desc><![CDATA[Belle rando avec sentiers]]></desc>
  </metadata>
  <trk>
    <name><![CDATA[Rossberg via Bitsch avec TB]]></name>
    <trkseg>
      <trkpt lat="47.81104" lon="7.10486">
        <ele>338.39999389648</ele>
        <time>2021-05-30T06:02:17.000Z</time>
      </trkpt>
      <trkpt lat="47.81108" lon="7.10482">
        <ele>338.39999389648</ele>
        <time>2021-05-30T06:02:20.000Z</time>
      </trkpt>
      <trkpt lat="47.81109" lon="7.10481">
        <ele>338.60000610352</ele>
        <time>2021-05-30T06:02:21.000Z</time>
      </trkpt>
      <trkpt lat="47.81111" lon="7.10479">
        <ele>338.60000610352</ele>
        <time>2021-05-30T06:02:23.000Z</time>
      </trkpt>
      <trkpt lat="47.81113" lon="7.10477">
        <ele>338.60000610352</ele>
        <time>2021-05-30T06:02:24.000Z</time>
      </trkpt>
      <trkpt lat="47.81121" lon="7.10469">
        <ele>338.60000610352</ele>
        <time>2021-05-30T06:02:29.000Z</time>
      </trkpt>
      <trkpt lat="47.81123" lon="7.10469">
        <ele>338.60000610352</ele>
        <time>2021-05-30T06:02:30.000Z</time>
      </trkpt>
      <trkpt lat="47.81129" lon="7.10465">
        <ele>338.60000610352</ele>
        <time>2021-05-30T06:02:33.000Z</time>
      </trkpt>
      <trkpt lat="47.81138" lon="7.10461">
        <ele>338.60000610352</ele>
        <time>2021-05-30T06:02:37.000Z</time>
      </trkpt>
      <trkpt lat="47.8114" lon="7.1046">
        <ele>338.60000610352</ele>
        <time>2021-05-30T06:02:39.000Z</time>
      </trkpt>
      <trkpt lat="47.81142" lon="7.1046">
        <ele>338.60000610352</ele>
        <time>2021-05-30T06:02:41.000Z</time>
      </trkpt>
      <trkpt lat="47.81145" lon="7.10462">
        <ele>338.60000610352</ele>
        <time>2021-05-30T06:02:43.000Z</time>
      </trkpt>
      <trkpt lat="47.81149" lon="7.10465">
        <ele>338.60000610352</ele>
        <time>2021-05-30T06:02:45.000Z</time>
      </trkpt>
      <trkpt lat="47.81157" lon="7.10469">
        <ele>338.60000610352</ele>
        <time>2021-05-30T06:02:49.000Z</time>
      </trkpt>
      <trkpt lat="47.81165" lon="7.10466">
        <ele>338.60000610352</ele>
        <time>2021-05-30T06:02:54.000Z</time>
      </trkpt>
      <trkpt lat="47.81171" lon="7.10463">
        <ele>339</ele>
        <time>2021-05-30T06:02:59.000Z</time>
      </trkpt>
      <trkpt lat="47.81172" lon="7.10463">
        <ele>339.39999389648</ele>
        <time>2021-05-30T06:03:00.000Z</time>
      </trkpt>
      <trkpt lat="47.81174" lon="7.10463">
        <ele>339.79998779297</ele>
        <time>2021-05-30T06:03:01.000Z</time>
      </trkpt>
      <trkpt lat="47.81176" lon="7.10463">
        <ele>340.20001220703</ele>
        <time>2021-05-30T06:03:02.000Z</time>
      </trkpt>
      <trkpt lat="47.81178" lon="7.10464">
        <ele>340.60000610352</ele>
        <time>2021-05-30T06:03:03.000Z</time>
      </trkpt>
      <trkpt lat="47.81185" lon="7.10465">
        <ele>340.60000610352</ele>
        <time>2021-05-30T06:03:06.000Z</time>
      </trkpt>
      <trkpt lat="47.81201" lon="7.10467">
        <ele>340.60000610352</ele>
        <time>2021-05-30T06:03:13.000Z</time>
      </trkpt>
      <trkpt lat="47.81216" lon="7.10472">
        <ele>340.60000610352</ele>
        <time>2021-05-30T06:03:19.000Z</time>
      </trkpt>
      <trkpt lat="47.81219" lon="7.10471">
        <ele>340.60000610352</ele>
        <time>2021-05-30T06:03:20.000Z</time>
      </trkpt>
      <trkpt lat="47.81223" lon="7.10465">
        <ele>340.60000610352</ele>
        <time>2021-05-30T06:03:22.000Z</time>
      </trkpt>
      <trkpt lat="47.81234" lon="7.10452">
        <ele>340.60000610352</ele>
        <time>2021-05-30T06:03:26.000Z</time>
      </trkpt>
      <trkpt lat="47.81236" lon="7.10447">
        <ele>340.60000610352</ele>
        <time>2021-05-30T06:03:27.000Z</time>
      </trkpt>
      <trkpt lat="47.81241" lon="7.10428">
        <ele>340.60000610352</ele>
        <time>2021-05-30T06:03:31.000Z</time>
      </trkpt>
      <trkpt lat="47.81242" lon="7.10396">
        <ele>340.60000610352</ele>
        <time>2021-05-30T06:03:37.000Z</time>
      </trkpt>
      <trkpt lat="47.81247" lon="7.10353">
        <ele>340.60000610352</ele>
        <time>2021-05-30T06:03:44.000Z</time>
      </trkpt>
      <trkpt lat="47.8125" lon="7.1034">
        <ele>340.60000610352</ele>
        <time>2021-05-30T06:03:46.000Z</time>
      </trkpt>
      <trkpt lat="47.81253" lon="7.10335">
        <ele>340.20001220703</ele>
        <time>2021-05-30T06:03:47.000Z</time>
      </trkpt>
      <trkpt lat="47.81254" lon="7.1033">
        <ele>339.79998779297</ele>
        <time>2021-05-30T06:03:48.000Z</time>
      </trkpt>
      <trkpt lat="47.81258" lon="7.1033">
        <ele>339.39999389648</ele>
        <time>2021-05-30T06:03:49.000Z</time>
      </trkpt>
      <trkpt lat="47.81261" lon="7.10331">
        <ele>339</ele>
        <time>2021-05-30T06:03:50.000Z</time>
      </trkpt>
      <trkpt lat="47.81264" lon="7.10332">
        <ele>338.60000610352</ele>
        <time>2021-05-30T06:03:51.000Z</time>
      </trkpt>
      <trkpt lat="47.8127" lon="7.10334">
        <ele>338.60000610352</ele>
        <time>2021-05-30T06:03:53.000Z</time>
      </trkpt>
      <trkpt lat="47.8128" lon="7.10335">
        <ele>339</ele>
        <time>2021-05-30T06:03:57.000Z</time>
      </trkpt>
      <trkpt lat="47.81282" lon="7.10333">
        <ele>339.79998779297</ele>
        <time>2021-05-30T06:03:58.000Z</time>
      </trkpt>
      <trkpt lat="47.81283" lon="7.10331">
        <ele>340.20001220703</ele>
        <time>2021-05-30T06:03:59.000Z</time>
      </trkpt>
      <trkpt lat="47.81285" lon="7.10328">
        <ele>340.60000610352</ele>
        <time>2021-05-30T06:04:00.000Z</time>
      </trkpt>
      <trkpt lat="47.81291" lon="7.10319">
        <ele>340.60000610352</ele>
        <time>2021-05-30T06:04:04.000Z</time>
      </trkpt>
      <trkpt lat="47.81295" lon="7.10312">
        <ele>341.20001220703</ele>
        <time>2021-05-30T06:04:07.000Z</time>
      </trkpt>
      <trkpt lat="47.81296" lon="7.1031">
        <ele>341.60000610352</ele>
        <time>2021-05-30T06:04:08.000Z</time>
      </trkpt>
      <trkpt lat="47.81296" lon="7.10309">
        <ele>342</ele>
        <time>2021-05-30T06:04:09.000Z</time>
      </trkpt>
      <trkpt lat="47.81295" lon="7.10306">
        <ele>342.39999389648</ele>
        <time>2021-05-30T06:04:10.000Z</time>
      </trkpt>
      <trkpt lat="47.81294" lon="7.10302">
        <ele>342.79998779297</ele>
        <time>2021-05-30T06:04:11.000Z</time>
      </trkpt>
      <trkpt lat="47.81289" lon="7.10291">
        <ele>342.79998779297</ele>
        <time>2021-05-30T06:04:14.000Z</time>
      </trkpt>
      <trkpt lat="47.81278" lon="7.10259">
        <ele>342.79998779297</ele>
        <time>2021-05-30T06:04:21.000Z</time>
      </trkpt>
      <trkpt lat="47.8127" lon="7.10223">
        <ele>342.79998779297</ele>
        <time>2021-05-30T06:04:27.000Z</time>
      </trkpt>
      <trkpt lat="47.81269" lon="7.10202">
        <ele>342.79998779297</ele>
        <time>2021-05-30T06:04:30.000Z</time>
      </trkpt>
      <trkpt lat="47.8127" lon="7.10181">
        <ele>342.79998779297</ele>
        <time>2021-05-30T06:04:33.000Z</time>
      </trkpt>
      <trkpt lat="47.81273" lon="7.10158">
        <ele>342.39999389648</ele>
        <time>2021-05-30T06:04:37.000Z</time>
      </trkpt>
      <trkpt lat="47.81275" lon="7.10152">
        <ele>342</ele>
        <time>2021-05-30T06:04:38.000Z</time>
      </trkpt>
      <trkpt lat="47.81277" lon="7.10147">
        <ele>341.60000610352</ele>
        <time>2021-05-30T06:04:39.000Z</time>
      </trkpt>
      <trkpt lat="47.8128" lon="7.10141">
        <ele>341.20001220703</ele>
        <time>2021-05-30T06:04:40.000Z</time>
      </trkpt>
      <trkpt lat="47.81282" lon="7.10136">
        <ele>340.79998779297</ele>
        <time>2021-05-30T06:04:41.000Z</time>
      </trkpt>
      <trkpt lat="47.81294" lon="7.10114">
        <ele>340.79998779297</ele>
        <time>2021-05-30T06:04:45.000Z</time>
      </trkpt>
      <trkpt lat="47.81313" lon="7.10091">
        <ele>340.79998779297</ele>
        <time>2021-05-30T06:04:51.000Z</time>
      </trkpt>
      <trkpt lat="47.81328" lon="7.10068">
        <ele>340.79998779297</ele>
        <time>2021-05-30T06:04:57.000Z</time>
      </trkpt>
      <trkpt lat="47.81343" lon="7.10025">
        <ele>340.79998779297</ele>
        <time>2021-05-30T06:05:06.000Z</time>
      </trkpt>
      <trkpt lat="47.81345" lon="7.10021">
        <ele>340.79998779297</ele>
        <time>2021-05-30T06:05:07.000Z</time>
      </trkpt>
      <trkpt lat="47.81353" lon="7.10001">
        <ele>340.79998779297</ele>
        <time>2021-05-30T06:05:11.000Z</time>
      </trkpt>
      <trkpt lat="47.81365" lon="7.09977">
        <ele>340.79998779297</ele>
        <time>2021-05-30T06:05:16.000Z</time>
      </trkpt>
      <trkpt lat="47.81377" lon="7.09937">
        <ele>340.79998779297</ele>
        <time>2021-05-30T06:05:24.000Z</time>
      </trkpt>
      <trkpt lat="47.81389" lon="7.0991">
        <ele>340.79998779297</ele>
        <time>2021-05-30T06:05:30.000Z</time>
      </trkpt>
      <trkpt lat="47.81401" lon="7.09888">
        <ele>340.79998779297</ele>
        <time>2021-05-30T06:05:35.000Z</time>
      </trkpt>
      <trkpt lat="47.81408" lon="7.09882">
        <ele>340.79998779297</ele>
        <time>2021-05-30T06:05:37.000Z</time>
      </trkpt>
      <trkpt lat="47.81425" lon="7.09872">
        <ele>340.79998779297</ele>
        <time>2021-05-30T06:05:42.000Z</time>
      </trkpt>
      <trkpt lat="47.8144" lon="7.09863">
        <ele>341.20001220703</ele>
        <time>2021-05-30T06:05:47.000Z</time>
      </trkpt>
      <trkpt lat="47.81443" lon="7.09861">
        <ele>341.60000610352</ele>
        <time>2021-05-30T06:05:48.000Z</time>
      </trkpt>
      <trkpt lat="47.81446" lon="7.0986">
        <ele>342</ele>
        <time>2021-05-30T06:05:49.000Z</time>
      </trkpt>
      <trkpt lat="47.8145" lon="7.09858">
        <ele>342.39999389648</ele>
        <time>2021-05-30T06:05:50.000Z</time>
      </trkpt>
      <trkpt lat="47.81453" lon="7.09856">
        <ele>342.79998779297</ele>
        <time>2021-05-30T06:05:51.000Z</time>
      </trkpt>
      <trkpt lat="47.81467" lon="7.09842">
        <ele>342.79998779297</ele>
        <time>2021-05-30T06:05:56.000Z</time>
      </trkpt>
      <trkpt lat="47.81486" lon="7.09823">
        <ele>342.79998779297</ele>
        <time>2021-05-30T06:06:03.000Z</time>
      </trkpt>
      <trkpt lat="47.81496" lon="7.09812">
        <ele>342.79998779297</ele>
        <time>2021-05-30T06:06:07.000Z</time>
      </trkpt>
      <trkpt lat="47.81506" lon="7.09798">
        <ele>342.79998779297</ele>
        <time>2021-05-30T06:06:11.000Z</time>
      </trkpt>
      <trkpt lat="47.81516" lon="7.09766">
        <ele>342.79998779297</ele>
        <time>2021-05-30T06:06:17.000Z</time>
      </trkpt>
      <trkpt lat="47.8152" lon="7.09748">
        <ele>342.79998779297</ele>
        <time>2021-05-30T06:06:20.000Z</time>
      </trkpt>
      <trkpt lat="47.81524" lon="7.09731">
        <ele>342.79998779297</ele>
        <time>2021-05-30T06:06:23.000Z</time>
      </trkpt>
      <trkpt lat="47.81532" lon="7.09684">
        <ele>342.79998779297</ele>
        <time>2021-05-30T06:06:31.000Z</time>
      </trkpt>
      <trkpt lat="47.81537" lon="7.09639">
        <ele>342.79998779297</ele>
        <time>2021-05-30T06:06:38.000Z</time>
      </trkpt>
      <trkpt lat="47.81537" lon="7.09632">
        <ele>342.79998779297</ele>
        <time>2021-05-30T06:06:39.000Z</time>
      </trkpt>
      <trkpt lat="47.8154" lon="7.09583">
        <ele>342.79998779297</ele>
        <time>2021-05-30T06:06:47.000Z</time>
      </trkpt>
      <trkpt lat="47.81548" lon="7.09544">
        <ele>342.79998779297</ele>
        <time>2021-05-30T06:06:54.000Z</time>
      </trkpt>
      <trkpt lat="47.81555" lon="7.09512">
        <ele>342.79998779297</ele>
        <time>2021-05-30T06:07:00.000Z</time>
      </trkpt>
      <trkpt lat="47.81563" lon="7.09473">
        <ele>342.79998779297</ele>
        <time>2021-05-30T06:07:07.000Z</time>
      </trkpt>
      <trkpt lat="47.81566" lon="7.09454">
        <ele>343.20001220703</ele>
        <time>2021-05-30T06:07:11.000Z</time>
      </trkpt>
      <trkpt lat="47.81567" lon="7.09449">
        <ele>343.60000610352</ele>
        <time>2021-05-30T06:07:12.000Z</time>
      </trkpt>
      <trkpt lat="47.81568" lon="7.09444">
        <ele>344</ele>
        <time>2021-05-30T06:07:13.000Z</time>
      </trkpt>
      <trkpt lat="47.81568" lon="7.09439">
        <ele>344.39999389648</ele>
        <time>2021-05-30T06:07:14.000Z</time>
      </trkpt>
      <trkpt lat="47.81568" lon="7.09434">
        <ele>344.79998779297</ele>
        <time>2021-05-30T06:07:15.000Z</time>
      </trkpt>
      <trkpt lat="47.81568" lon="7.09399">
        <ele>344.79998779297</ele>
        <time>2021-05-30T06:07:21.000Z</time>
      </trkpt>
      <trkpt lat="47.81571" lon="7.09365">
        <ele>344.79998779297</ele>
        <time>2021-05-30T06:07:27.000Z</time>
      </trkpt>
      <trkpt lat="47.81577" lon="7.09326">
        <ele>344.79998779297</ele>
        <time>2021-05-30T06:07:34.000Z</time>
      </trkpt>
      <trkpt lat="47.8159" lon="7.09292">
        <ele>344.79998779297</ele>
        <time>2021-05-30T06:07:40.000Z</time>
      </trkpt>
      <trkpt lat="47.81598" lon="7.09267">
        <ele>344.79998779297</ele>
        <time>2021-05-30T06:07:44.000Z</time>
      </trkpt>
      <trkpt lat="47.81601" lon="7.09256">
        <ele>344.79998779297</ele>
        <time>2021-05-30T06:07:46.000Z</time>
      </trkpt>
      <trkpt lat="47.81604" lon="7.09244">
        <ele>344.79998779297</ele>
        <time>2021-05-30T06:07:48.000Z</time>
      </trkpt>
      <trkpt lat="47.8161" lon="7.09213">
        <ele>344.79998779297</ele>
        <time>2021-05-30T06:07:53.000Z</time>
      </trkpt>
      <trkpt lat="47.81619" lon="7.09169">
        <ele>344.79998779297</ele>
        <time>2021-05-30T06:08:01.000Z</time>
      </trkpt>
      <trkpt lat="47.8163" lon="7.09134">
        <ele>344.79998779297</ele>
        <time>2021-05-30T06:08:08.000Z</time>
      </trkpt>
      <trkpt lat="47.81637" lon="7.09112">
        <ele>345.20001220703</ele>
        <time>2021-05-30T06:08:13.000Z</time>
      </trkpt>
      <trkpt lat="47.81639" lon="7.09108">
        <ele>345.60000610352</ele>
        <time>2021-05-30T06:08:14.000Z</time>
      </trkpt>
      <trkpt lat="47.81641" lon="7.09103">
        <ele>346</ele>
        <time>2021-05-30T06:08:15.000Z</time>
      </trkpt>
      <trkpt lat="47.81642" lon="7.09099">
        <ele>346.39999389648</ele>
        <time>2021-05-30T06:08:16.000Z</time>
      </trkpt>
      <trkpt lat="47.81644" lon="7.09094">
        <ele>346.79998779297</ele>
        <time>2021-05-30T06:08:17.000Z</time>
      </trkpt>
      <trkpt lat="47.8165" lon="7.09082">
        <ele>346.79998779297</ele>
        <time>2021-05-30T06:08:20.000Z</time>
      </trkpt>
      <trkpt lat="47.81661" lon="7.09058">
        <ele>346.79998779297</ele>
        <time>2021-05-30T06:08:26.000Z</time>
      </trkpt>
      <trkpt lat="47.81666" lon="7.09046">
        <ele>347.20001220703</ele>
        <time>2021-05-30T06:08:29.000Z</time>
      </trkpt>
      <trkpt lat="47.81668" lon="7.09042">
        <ele>347.60000610352</ele>
        <time>2021-05-30T06:08:30.000Z</time>
      </trkpt>
      <trkpt lat="47.8167" lon="7.09039">
        <ele>348</ele>
        <time>2021-05-30T06:08:31.000Z</time>
      </trkpt>
      <trkpt lat="47.81672" lon="7.09036">
        <ele>348.39999389648</ele>
        <time>2021-05-30T06:08:32.000Z</time>
      </trkpt>
      <trkpt lat="47.81674" lon="7.09033">
        <ele>348.79998779297</ele>
        <time>2021-05-30T06:08:33.000Z</time>
      </trkpt>
      <trkpt lat="47.81676" lon="7.0903">
        <ele>348.79998779297</ele>
        <time>2021-05-30T06:08:34.000Z</time>
      </trkpt>
      <trkpt lat="47.81691" lon="7.09013">
        <ele>348.79998779297</ele>
        <time>2021-05-30T06:08:40.000Z</time>
      </trkpt>
      <trkpt lat="47.81695" lon="7.09009">
        <ele>349.20001220703</ele>
        <time>2021-05-30T06:08:42.000Z</time>
      </trkpt>
      <trkpt lat="47.81697" lon="7.09005">
        <ele>349.60000610352</ele>
        <time>2021-05-30T06:08:43.000Z</time>
      </trkpt>
      <trkpt lat="47.81699" lon="7.09002">
        <ele>350</ele>
        <time>2021-05-30T06:08:44.000Z</time>
      </trkpt>
      <trkpt lat="47.81701" lon="7.09">
        <ele>350.39999389648</ele>
        <time>2021-05-30T06:08:45.000Z</time>
      </trkpt>
      <trkpt lat="47.81702" lon="7.08997">
        <ele>351</ele>
        <time>2021-05-30T06:08:46.000Z</time>
      </trkpt>
      <trkpt lat="47.81712" lon="7.08977">
        <ele>351.39999389648</ele>
        <time>2021-05-30T06:08:52.000Z</time>
      </trkpt>
      <trkpt lat="47.81714" lon="7.08975">
        <ele>351.79998779297</ele>
        <time>2021-05-30T06:08:53.000Z</time>
      </trkpt>
      <trkpt lat="47.81717" lon="7.08974">
        <ele>352.60000610352</ele>
        <time>2021-05-30T06:08:54.000Z</time>
      </trkpt>
      <trkpt lat="47.81719" lon="7.08973">
        <ele>353</ele>
        <time>2021-05-30T06:08:55.000Z</time>
      </trkpt>
      <trkpt lat="47.81724" lon="7.08969">
        <ele>353</ele>
        <time>2021-05-30T06:08:57.000Z</time>
      </trkpt>
      <trkpt lat="47.81742" lon="7.08958">
        <ele>353</ele>
        <time>2021-05-30T06:09:02.000Z</time>
      </trkpt>
      <trkpt lat="47.8175" lon="7.08953">
        <ele>353</ele>
        <time>2021-05-30T06:09:04.000Z</time>
      </trkpt>
      <trkpt lat="47.81768" lon="7.08945">
        <ele>352.60000610352</ele>
        <time>2021-05-30T06:09:08.000Z</time>
      </trkpt>
      <trkpt lat="47.81773" lon="7.08943">
        <ele>352.20001220703</ele>
        <time>2021-05-30T06:09:09.000Z</time>
      </trkpt>
      <trkpt lat="47.81778" lon="7.08941">
        <ele>351.79998779297</ele>
        <time>2021-05-30T06:09:10.000Z</time>
      </trkpt>
      <trkpt lat="47.81784" lon="7.08937">
        <ele>351.39999389648</ele>
        <time>2021-05-30T06:09:11.000Z</time>
      </trkpt>
      <trkpt lat="47.81789" lon="7.08935">
        <ele>351</ele>
        <time>2021-05-30T06:09:12.000Z</time>
      </trkpt>
      <trkpt lat="47.81799" lon="7.0893">
        <ele>351</ele>
        <time>2021-05-30T06:09:14.000Z</time>
      </trkpt>
      <trkpt lat="47.81814" lon="7.08921">
        <ele>350.60000610352</ele>
        <time>2021-05-30T06:09:17.000Z</time>
      </trkpt>
      <trkpt lat="47.8182" lon="7.08917">
        <ele>350.20001220703</ele>
        <time>2021-05-30T06:09:18.000Z</time>
      </trkpt>
      <trkpt lat="47.81825" lon="7.08914">
        <ele>349.20001220703</ele>
        <time>2021-05-30T06:09:19.000Z</time>
      </trkpt>
      <trkpt lat="47.8183" lon="7.08909">
        <ele>348.79998779297</ele>
        <time>2021-05-30T06:09:20.000Z</time>
      </trkpt>
      <trkpt lat="47.81842" lon="7.08895">
        <ele>348.79998779297</ele>
        <time>2021-05-30T06:09:23.000Z</time>
      </trkpt>
      <trkpt lat="47.81848" lon="7.08885">
        <ele>348.79998779297</ele>
        <time>2021-05-30T06:09:25.000Z</time>
      </trkpt>
      <trkpt lat="47.81857" lon="7.08866">
        <ele>348.79998779297</ele>
        <time>2021-05-30T06:09:28.000Z</time>
      </trkpt>
      <trkpt lat="47.8186" lon="7.0885">
        <ele>348.79998779297</ele>
        <time>2021-05-30T06:09:30.000Z</time>
      </trkpt>
      <trkpt lat="47.81872" lon="7.08802">
        <ele>348.79998779297</ele>
        <time>2021-05-30T06:09:37.000Z</time>
      </trkpt>
      <trkpt lat="47.81883" lon="7.0877">
        <ele>348.79998779297</ele>
        <time>2021-05-30T06:09:43.000Z</time>
      </trkpt>
      <trkpt lat="47.8189" lon="7.08754">
        <ele>348.79998779297</ele>
        <time>2021-05-30T06:09:47.000Z</time>
      </trkpt>
      <trkpt lat="47.81909" lon="7.08727">
        <ele>348.79998779297</ele>
        <time>2021-05-30T06:09:53.000Z</time>
      </trkpt>
      <trkpt lat="47.81923" lon="7.08695">
        <ele>348.79998779297</ele>
        <time>2021-05-30T06:09:59.000Z</time>
      </trkpt>
      <trkpt lat="47.81931" lon="7.08679">
        <ele>348.79998779297</ele>
        <time>2021-05-30T06:10:02.000Z</time>
      </trkpt>
      <trkpt lat="47.8194" lon="7.08666">
        <ele>348.79998779297</ele>
        <time>2021-05-30T06:10:05.000Z</time>
      </trkpt>
      <trkpt lat="47.81955" lon="7.08633">
        <ele>348.79998779297</ele>
        <time>2021-05-30T06:10:11.000Z</time>
      </trkpt>
      <trkpt lat="47.81975" lon="7.08589">
        <ele>348.79998779297</ele>
        <time>2021-05-30T06:10:19.000Z</time>
      </trkpt>
      <trkpt lat="47.81983" lon="7.08573">
        <ele>348.79998779297</ele>
        <time>2021-05-30T06:10:22.000Z</time>
      </trkpt>
      <trkpt lat="47.81994" lon="7.08546">
        <ele>348.79998779297</ele>
        <time>2021-05-30T06:10:27.000Z</time>
      </trkpt>
      <trkpt lat="47.82015" lon="7.08498">
        <ele>348.79998779297</ele>
        <time>2021-05-30T06:10:36.000Z</time>
      </trkpt>
      <trkpt lat="47.82035" lon="7.08476">
        <ele>348.79998779297</ele>
        <time>2021-05-30T06:10:42.000Z</time>
      </trkpt>
      <trkpt lat="47.82057" lon="7.08467">
        <ele>348.79998779297</ele>
        <time>2021-05-30T06:10:48.000Z</time>
      </trkpt>
      <trkpt lat="47.82082" lon="7.08469">
        <ele>348.79998779297</ele>
        <time>2021-05-30T06:10:56.000Z</time>
      </trkpt>
      <trkpt lat="47.82107" lon="7.0847">
        <ele>348.79998779297</ele>
        <time>2021-05-30T06:11:03.000Z</time>
      </trkpt>
      <trkpt lat="47.82133" lon="7.08479">
        <ele>348.79998779297</ele>
        <time>2021-05-30T06:11:09.000Z</time>
      </trkpt>
      <trkpt lat="47.82137" lon="7.08481">
        <ele>348.79998779297</ele>
        <time>2021-05-30T06:11:10.000Z</time>
      </trkpt>
      <trkpt lat="47.82153" lon="7.08487">
        <ele>348.79998779297</ele>
        <time>2021-05-30T06:11:14.000Z</time>
      </trkpt>
      <trkpt lat="47.82184" lon="7.08492">
        <ele>348.79998779297</ele>
        <time>2021-05-30T06:11:21.000Z</time>
      </trkpt>
      <trkpt lat="47.82212" lon="7.08493">
        <ele>348.79998779297</ele>
        <time>2021-05-30T06:11:27.000Z</time>
      </trkpt>
      <trkpt lat="47.82216" lon="7.08493">
        <ele>348.79998779297</ele>
        <time>2021-05-30T06:11:28.000Z</time>
      </trkpt>
      <trkpt lat="47.82241" lon="7.08491">
        <ele>348.79998779297</ele>
        <time>2021-05-30T06:11:34.000Z</time>
      </trkpt>
      <trkpt lat="47.82267" lon="7.0849">
        <ele>348.79998779297</ele>
        <time>2021-05-30T06:11:41.000Z</time>
      </trkpt>
      <trkpt lat="47.82277" lon="7.08493">
        <ele>348.79998779297</ele>
        <time>2021-05-30T06:11:44.000Z</time>
      </trkpt>
      <trkpt lat="47.82283" lon="7.08498">
        <ele>348.79998779297</ele>
        <time>2021-05-30T06:11:46.000Z</time>
      </trkpt>
      <trkpt lat="47.82303" lon="7.08514">
        <ele>348.79998779297</ele>
        <time>2021-05-30T06:11:52.000Z</time>
      </trkpt>
      <trkpt lat="47.8232" lon="7.08527">
        <ele>349.20001220703</ele>
        <time>2021-05-30T06:11:57.000Z</time>
      </trkpt>
      <trkpt lat="47.82322" lon="7.0853">
        <ele>349.79998779297</ele>
        <time>2021-05-30T06:11:58.000Z</time>
      </trkpt>
      <trkpt lat="47.82325" lon="7.08533">
        <ele>350.20001220703</ele>
        <time>2021-05-30T06:11:59.000Z</time>
      </trkpt>
      <trkpt lat="47.82328" lon="7.08536">
        <ele>350.60000610352</ele>
        <time>2021-05-30T06:12:00.000Z</time>
      </trkpt>
      <trkpt lat="47.8233" lon="7.08538">
        <ele>351</ele>
        <time>2021-05-30T06:12:01.000Z</time>
      </trkpt>
      <trkpt lat="47.82336" lon="7.08544">
        <ele>351</ele>
        <time>2021-05-30T06:12:03.000Z</time>
      </trkpt>
      <trkpt lat="47.82358" lon="7.08555">
        <ele>351</ele>
        <time>2021-05-30T06:12:09.000Z</time>
      </trkpt>
      <trkpt lat="47.82367" lon="7.08559">
        <ele>351</ele>
        <time>2021-05-30T06:12:12.000Z</time>
      </trkpt>
      <trkpt lat="47.82397" lon="7.08568">
        <ele>351</ele>
        <time>2021-05-30T06:12:20.000Z</time>
      </trkpt>
      <trkpt lat="47.82406" lon="7.08568">
        <ele>351.39999389648</ele>
        <time>2021-05-30T06:12:22.000Z</time>
      </trkpt>
      <trkpt lat="47.8241" lon="7.08569">
        <ele>351.79998779297</ele>
        <time>2021-05-30T06:12:23.000Z</time>
      </trkpt>
      <trkpt lat="47.82414" lon="7.08569">
        <ele>352.20001220703</ele>
        <time>2021-05-30T06:12:24.000Z</time>
      </trkpt>
      <trkpt lat="47.82418" lon="7.08568">
        <ele>352.60000610352</ele>
        <time>2021-05-30T06:12:25.000Z</time>
      </trkpt>
      <trkpt lat="47.82422" lon="7.08569">
        <ele>353</ele>
        <time>2021-05-30T06:12:26.000Z</time>
      </trkpt>
      <trkpt lat="47.82445" lon="7.08568">
        <ele>353</ele>
        <time>2021-05-30T06:12:32.000Z</time>
      </trkpt>
      <trkpt lat="47.82467" lon="7.08562">
        <ele>353</ele>
        <time>2021-05-30T06:12:38.000Z</time>
      </trkpt>
      <trkpt lat="47.82495" lon="7.08548">
        <ele>353</ele>
        <time>2021-05-30T06:12:46.000Z</time>
      </trkpt>
      <trkpt lat="47.82518" lon="7.08534">
        <ele>353</ele>
        <time>2021-05-30T06:12:53.000Z</time>
      </trkpt>
      <trkpt lat="47.82536" lon="7.08526">
        <ele>353.39999389648</ele>
        <time>2021-05-30T06:12:58.000Z</time>
      </trkpt>
      <trkpt lat="47.82539" lon="7.08525">
        <ele>353.79998779297</ele>
        <time>2021-05-30T06:12:59.000Z</time>
      </trkpt>
      <trkpt lat="47.82542" lon="7.08524">
        <ele>354.20001220703</ele>
        <time>2021-05-30T06:13:00.000Z</time>
      </trkpt>
      <trkpt lat="47.82546" lon="7.08522">
        <ele>355.20001220703</ele>
        <time>2021-05-30T06:13:01.000Z</time>
      </trkpt>
      <trkpt lat="47.82554" lon="7.08519">
        <ele>355.20001220703</ele>
        <time>2021-05-30T06:13:03.000Z</time>
      </trkpt>
      <trkpt lat="47.82577" lon="7.08515">
        <ele>355.20001220703</ele>
        <time>2021-05-30T06:13:10.000Z</time>
      </trkpt>
      <trkpt lat="47.82598" lon="7.08514">
        <ele>355.20001220703</ele>
        <time>2021-05-30T06:13:16.000Z</time>
      </trkpt>
      <trkpt lat="47.82616" lon="7.08511">
        <ele>355.20001220703</ele>
        <time>2021-05-30T06:13:21.000Z</time>
      </trkpt>
      <trkpt lat="47.82625" lon="7.08509">
        <ele>355.60000610352</ele>
        <time>2021-05-30T06:13:24.000Z</time>
      </trkpt>
      <trkpt lat="47.82628" lon="7.08509">
        <ele>356.39999389648</ele>
        <time>2021-05-30T06:13:25.000Z</time>
      </trkpt>
      <trkpt lat="47.82632" lon="7.08508">
        <ele>356.79998779297</ele>
        <time>2021-05-30T06:13:26.000Z</time>
      </trkpt>
      <trkpt lat="47.82635" lon="7.08508">
        <ele>357.20001220703</ele>
        <time>2021-05-30T06:13:27.000Z</time>
      </trkpt>
      <trkpt lat="47.82639" lon="7.08507">
        <ele>357.20001220703</ele>
        <time>2021-05-30T06:13:28.000Z</time>
      </trkpt>
      <trkpt lat="47.82665" lon="7.08504">
        <ele>357.20001220703</ele>
        <time>2021-05-30T06:13:34.000Z</time>
      </trkpt>
      <trkpt lat="47.82682" lon="7.08501">
        <ele>357.20001220703</ele>
        <time>2021-05-30T06:13:38.000Z</time>
      </trkpt>
      <trkpt lat="47.82695" lon="7.08498">
        <ele>357.20001220703</ele>
        <time>2021-05-30T06:13:41.000Z</time>
      </trkpt>
      <trkpt lat="47.82716" lon="7.08491">
        <ele>357.20001220703</ele>
        <time>2021-05-30T06:13:47.000Z</time>
      </trkpt>
      <trkpt lat="47.82732" lon="7.08486">
        <ele>357.60000610352</ele>
        <time>2021-05-30T06:13:51.000Z</time>
      </trkpt>
      <trkpt lat="47.82735" lon="7.08485">
        <ele>358</ele>
        <time>2021-05-30T06:13:52.000Z</time>
      </trkpt>
      <trkpt lat="47.8274" lon="7.08484">
        <ele>358.39999389648</ele>
        <time>2021-05-30T06:13:53.000Z</time>
      </trkpt>
      <trkpt lat="47.82743" lon="7.08483">
        <ele>358.79998779297</ele>
        <time>2021-05-30T06:13:54.000Z</time>
      </trkpt>
      <trkpt lat="47.82747" lon="7.08482">
        <ele>359.20001220703</ele>
        <time>2021-05-30T06:13:55.000Z</time>
      </trkpt>
      <trkpt lat="47.8277" lon="7.08479">
        <ele>359.20001220703</ele>
        <time>2021-05-30T06:14:01.000Z</time>
      </trkpt>
      <trkpt lat="47.82777" lon="7.08482">
        <ele>359.60000610352</ele>
        <time>2021-05-30T06:14:03.000Z</time>
      </trkpt>
      <trkpt lat="47.8278" lon="7.08483">
        <ele>360</ele>
        <time>2021-05-30T06:14:04.000Z</time>
      </trkpt>
      <trkpt lat="47.82784" lon="7.08485">
        <ele>360.39999389648</ele>
        <time>2021-05-30T06:14:05.000Z</time>
      </trkpt>
      <trkpt lat="47.82787" lon="7.08486">
        <ele>360.79998779297</ele>
        <time>2021-05-30T06:14:06.000Z</time>
      </trkpt>
      <trkpt lat="47.8279" lon="7.08487">
        <ele>361.20001220703</ele>
        <time>2021-05-30T06:14:07.000Z</time>
      </trkpt>
      <trkpt lat="47.82803" lon="7.08489">
        <ele>361.60000610352</ele>
        <time>2021-05-30T06:14:11.000Z</time>
      </trkpt>
      <trkpt lat="47.82807" lon="7.08489">
        <ele>362</ele>
        <time>2021-05-30T06:14:12.000Z</time>
      </trkpt>
      <trkpt lat="47.8281" lon="7.08489">
        <ele>362.39999389648</ele>
        <time>2021-05-30T06:14:13.000Z</time>
      </trkpt>
      <trkpt lat="47.82814" lon="7.08488">
        <ele>363.20001220703</ele>
        <time>2021-05-30T06:14:14.000Z</time>
      </trkpt>
      <trkpt lat="47.8283" lon="7.08471">
        <ele>363.20001220703</ele>
        <time>2021-05-30T06:14:20.000Z</time>
      </trkpt>
      <trkpt lat="47.82832" lon="7.08467">
        <ele>363.60000610352</ele>
        <time>2021-05-30T06:14:21.000Z</time>
      </trkpt>
      <trkpt lat="47.82835" lon="7.08463">
        <ele>364</ele>
        <time>2021-05-30T06:14:22.000Z</time>
      </trkpt>
      <trkpt lat="47.82838" lon="7.08459">
        <ele>364.39999389648</ele>
        <time>2021-05-30T06:14:23.000Z</time>
      </trkpt>
      <trkpt lat="47.82841" lon="7.08455">
        <ele>364.79998779297</ele>
        <time>2021-05-30T06:14:24.000Z</time>
      </trkpt>
      <trkpt lat="47.82844" lon="7.08452">
        <ele>365.39999389648</ele>
        <time>2021-05-30T06:14:25.000Z</time>
      </trkpt>
      <trkpt lat="47.82848" lon="7.08448">
        <ele>365.39999389648</ele>
        <time>2021-05-30T06:14:26.000Z</time>
      </trkpt>
      <trkpt lat="47.82872" lon="7.08424">
        <ele>365.39999389648</ele>
        <time>2021-05-30T06:14:32.000Z</time>
      </trkpt>
      <trkpt lat="47.82889" lon="7.08412">
        <ele>364.79998779297</ele>
        <time>2021-05-30T06:14:35.000Z</time>
      </trkpt>
      <trkpt lat="47.82895" lon="7.08407">
        <ele>364.39999389648</ele>
        <time>2021-05-30T06:14:36.000Z</time>
      </trkpt>
      <trkpt lat="47.82901" lon="7.08403">
        <ele>364</ele>
        <time>2021-05-30T06:14:37.000Z</time>
      </trkpt>
      <trkpt lat="47.82907" lon="7.08399">
        <ele>363.60000610352</ele>
        <time>2021-05-30T06:14:38.000Z</time>
      </trkpt>
      <trkpt lat="47.82914" lon="7.08395">
        <ele>363.20001220703</ele>
        <time>2021-05-30T06:14:39.000Z</time>
      </trkpt>
      <trkpt lat="47.8292" lon="7.08391">
        <ele>362.60000610352</ele>
        <time>2021-05-30T06:14:40.000Z</time>
      </trkpt>
      <trkpt lat="47.82927" lon="7.08387">
        <ele>362.20001220703</ele>
        <time>2021-05-30T06:14:41.000Z</time>
      </trkpt>
      <trkpt lat="47.82933" lon="7.08382">
        <ele>361.79998779297</ele>
        <time>2021-05-30T06:14:42.000Z</time>
      </trkpt>
      <trkpt lat="47.8294" lon="7.08378">
        <ele>361.20001220703</ele>
        <time>2021-05-30T06:14:43.000Z</time>
      </trkpt>
      <trkpt lat="47.82946" lon="7.08374">
        <ele>360.79998779297</ele>
        <time>2021-05-30T06:14:44.000Z</time>
      </trkpt>
      <trkpt lat="47.82963" lon="7.08363">
        <ele>360.79998779297</ele>
        <time>2021-05-30T06:14:47.000Z</time>
      </trkpt>
      <trkpt lat="47.82967" lon="7.08359">
        <ele>360.79998779297</ele>
        <time>2021-05-30T06:14:48.000Z</time>
      </trkpt>
      <trkpt lat="47.82977" lon="7.08342">
        <ele>360.79998779297</ele>
        <time>2021-05-30T06:14:51.000Z</time>
      </trkpt>
      <trkpt lat="47.82987" lon="7.08323">
        <ele>360.79998779297</ele>
        <time>2021-05-30T06:14:54.000Z</time>
      </trkpt>
      <trkpt lat="47.82999" lon="7.08303">
        <ele>360.79998779297</ele>
        <time>2021-05-30T06:14:57.000Z</time>
      </trkpt>
      <trkpt lat="47.83011" lon="7.08287">
        <ele>360.79998779297</ele>
        <time>2021-05-30T06:15:00.000Z</time>
      </trkpt>
      <trkpt lat="47.8302" lon="7.0828">
        <ele>360.79998779297</ele>
        <time>2021-05-30T06:15:02.000Z</time>
      </trkpt>
      <trkpt lat="47.83036" lon="7.08269">
        <ele>360.79998779297</ele>
        <time>2021-05-30T06:15:06.000Z</time>
      </trkpt>
      <trkpt lat="47.8304" lon="7.08248">
        <ele>360.79998779297</ele>
        <time>2021-05-30T06:15:10.000Z</time>
      </trkpt>
      <trkpt lat="47.83038" lon="7.08221">
        <ele>360.79998779297</ele>
        <time>2021-05-30T06:15:15.000Z</time>
      </trkpt>
      <trkpt lat="47.83035" lon="7.08197">
        <ele>360.79998779297</ele>
        <time>2021-05-30T06:15:19.000Z</time>
      </trkpt>
      <trkpt lat="47.83031" lon="7.08184">
        <ele>360.79998779297</ele>
        <time>2021-05-30T06:15:21.000Z</time>
      </trkpt>
      <trkpt lat="47.83022" lon="7.08138">
        <ele>360.39999389648</ele>
        <time>2021-05-30T06:15:28.000Z</time>
      </trkpt>
      <trkpt lat="47.83022" lon="7.08133">
        <ele>360</ele>
        <time>2021-05-30T06:15:29.000Z</time>
      </trkpt>
      <trkpt lat="47.83021" lon="7.08126">
        <ele>359.60000610352</ele>
        <time>2021-05-30T06:15:30.000Z</time>
      </trkpt>
      <trkpt lat="47.83021" lon="7.0812">
        <ele>359.20001220703</ele>
        <time>2021-05-30T06:15:31.000Z</time>
      </trkpt>
      <trkpt lat="47.83021" lon="7.08114">
        <ele>358.79998779297</ele>
        <time>2021-05-30T06:15:32.000Z</time>
      </trkpt>
      <trkpt lat="47.83021" lon="7.08108">
        <ele>358.79998779297</ele>
        <time>2021-05-30T06:15:33.000Z</time>
      </trkpt>
      <trkpt lat="47.83014" lon="7.08083">
        <ele>358.79998779297</ele>
        <time>2021-05-30T06:15:38.000Z</time>
      </trkpt>
      <trkpt lat="47.83001" lon="7.08048">
        <ele>358.79998779297</ele>
        <time>2021-05-30T06:15:45.000Z</time>
      </trkpt>
      <trkpt lat="47.82989" lon="7.08013">
        <ele>358.79998779297</ele>
        <time>2021-05-30T06:15:52.000Z</time>
      </trkpt>
      <trkpt lat="47.82976" lon="7.07979">
        <ele>358.79998779297</ele>
        <time>2021-05-30T06:15:59.000Z</time>
      </trkpt>
      <trkpt lat="47.82974" lon="7.07975">
        <ele>359.20001220703</ele>
        <time>2021-05-30T06:16:00.000Z</time>
      </trkpt>
      <trkpt lat="47.82973" lon="7.0797">
        <ele>359.60000610352</ele>
        <time>2021-05-30T06:16:01.000Z</time>
      </trkpt>
      <trkpt lat="47.82971" lon="7.07965">
        <ele>360</ele>
        <time>2021-05-30T06:16:02.000Z</time>
      </trkpt>
      <trkpt lat="47.82969" lon="7.07961">
        <ele>360.39999389648</ele>
        <time>2021-05-30T06:16:03.000Z</time>
      </trkpt>
      <trkpt lat="47.82968" lon="7.07956">
        <ele>360.79998779297</ele>
        <time>2021-05-30T06:16:04.000Z</time>
      </trkpt>
      <trkpt lat="47.82965" lon="7.07949">
        <ele>360.79998779297</ele>
        <time>2021-05-30T06:16:06.000Z</time>
      </trkpt>
      <trkpt lat="47.82962" lon="7.07937">
        <ele>360.79998779297</ele>
        <time>2021-05-30T06:16:09.000Z</time>
      </trkpt>
      <trkpt lat="47.82962" lon="7.07932">
        <ele>360.79998779297</ele>
        <time>2021-05-30T06:16:10.000Z</time>
      </trkpt>
      <trkpt lat="47.82967" lon="7.07916">
        <ele>360.79998779297</ele>
        <time>2021-05-30T06:16:14.000Z</time>
      </trkpt>
      <trkpt lat="47.82974" lon="7.079">
        <ele>360.79998779297</ele>
        <time>2021-05-30T06:16:18.000Z</time>
      </trkpt>
      <trkpt lat="47.82977" lon="7.07896">
        <ele>360.79998779297</ele>
        <time>2021-05-30T06:16:19.000Z</time>
      </trkpt>
      <trkpt lat="47.82993" lon="7.07873">
        <ele>360.79998779297</ele>
        <time>2021-05-30T06:16:25.000Z</time>
      </trkpt>
      <trkpt lat="47.83018" lon="7.07846">
        <ele>360.79998779297</ele>
        <time>2021-05-30T06:16:33.000Z</time>
      </trkpt>
      <trkpt lat="47.83037" lon="7.07829">
        <ele>360.79998779297</ele>
        <time>2021-05-30T06:16:39.000Z</time>
      </trkpt>
      <trkpt lat="47.83059" lon="7.07814">
        <ele>360.79998779297</ele>
        <time>2021-05-30T06:16:45.000Z</time>
      </trkpt>
      <trkpt lat="47.83082" lon="7.07805">
        <ele>360.79998779297</ele>
        <time>2021-05-30T06:16:51.000Z</time>
      </trkpt>
      <trkpt lat="47.83102" lon="7.07798">
        <ele>360.79998779297</ele>
        <time>2021-05-30T06:16:57.000Z</time>
      </trkpt>
      <trkpt lat="47.83117" lon="7.07793">
        <ele>360.79998779297</ele>
        <time>2021-05-30T06:17:04.000Z</time>
      </trkpt>
      <trkpt lat="47.83118" lon="7.0779">
        <ele>360.79998779297</ele>
        <time>2021-05-30T06:17:05.000Z</time>
      </trkpt>
      <trkpt lat="47.83116" lon="7.07786">
        <ele>360.79998779297</ele>
        <time>2021-05-30T06:17:07.000Z</time>
      </trkpt>
      <trkpt lat="47.83107" lon="7.07791">
        <ele>360.79998779297</ele>
        <time>2021-05-30T06:17:11.000Z</time>
      </trkpt>
      <trkpt lat="47.83104" lon="7.07793">
        <ele>360.79998779297</ele>
        <time>2021-05-30T06:17:12.000Z</time>
      </trkpt>
      <trkpt lat="47.83086" lon="7.078">
        <ele>360.79998779297</ele>
        <time>2021-05-30T06:17:17.000Z</time>
      </trkpt>
      <trkpt lat="47.83067" lon="7.07809">
        <ele>360.79998779297</ele>
        <time>2021-05-30T06:17:22.000Z</time>
      </trkpt>
      <trkpt lat="47.83039" lon="7.07826">
        <ele>360.79998779297</ele>
        <time>2021-05-30T06:17:30.000Z</time>
      </trkpt>
      <trkpt lat="47.83021" lon="7.07841">
        <ele>360.79998779297</ele>
        <time>2021-05-30T06:17:35.000Z</time>
      </trkpt>
      <trkpt lat="47.83017" lon="7.07843">
        <ele>360.79998779297</ele>
        <time>2021-05-30T06:17:36.000Z</time>
      </trkpt>
      <trkpt lat="47.83003" lon="7.07855">
        <ele>360.79998779297</ele>
        <time>2021-05-30T06:17:40.000Z</time>
      </trkpt>
      <trkpt lat="47.82995" lon="7.0786">
        <ele>360.79998779297</ele>
        <time>2021-05-30T06:17:42.000Z</time>
      </trkpt>
      <trkpt lat="47.82984" lon="7.07871">
        <ele>360.79998779297</ele>
        <time>2021-05-30T06:17:45.000Z</time>
      </trkpt>
      <trkpt lat="47.82975" lon="7.07882">
        <ele>360.79998779297</ele>
        <time>2021-05-30T06:17:48.000Z</time>
      </trkpt>
      <trkpt lat="47.82963" lon="7.07899">
        <ele>360.79998779297</ele>
        <time>2021-05-30T06:17:52.000Z</time>
      </trkpt>
      <trkpt lat="47.82948" lon="7.07917">
        <ele>360.79998779297</ele>
        <time>2021-05-30T06:17:57.000Z</time>
      </trkpt>
      <trkpt lat="47.82934" lon="7.07934">
        <ele>360.79998779297</ele>
        <time>2021-05-30T06:18:02.000Z</time>
      </trkpt>
      <trkpt lat="47.82918" lon="7.07951">
        <ele>360.79998779297</ele>
        <time>2021-05-30T06:18:09.000Z</time>
      </trkpt>
      <trkpt lat="47.82907" lon="7.07962">
        <ele>360.79998779297</ele>
        <time>2021-05-30T06:18:15.000Z</time>
      </trkpt>
      <trkpt lat="47.82905" lon="7.07962">
        <ele>360.79998779297</ele>
        <time>2021-05-30T06:18:16.000Z</time>
      </trkpt>
      <trkpt lat="47.82902" lon="7.07955">
        <ele>360.79998779297</ele>
        <time>2021-05-30T06:18:18.000Z</time>
      </trkpt>
      <trkpt lat="47.82892" lon="7.07924">
        <ele>360.79998779297</ele>
        <time>2021-05-30T06:18:24.000Z</time>
      </trkpt>
      <trkpt lat="47.82878" lon="7.07884">
        <ele>360.79998779297</ele>
        <time>2021-05-30T06:18:31.000Z</time>
      </trkpt>
      <trkpt lat="47.82869" lon="7.0786">
        <ele>360.79998779297</ele>
        <time>2021-05-30T06:18:35.000Z</time>
      </trkpt>
      <trkpt lat="47.82862" lon="7.07841">
        <ele>360.79998779297</ele>
        <time>2021-05-30T06:18:38.000Z</time>
      </trkpt>
      <trkpt lat="47.82859" lon="7.07829">
        <ele>360.79998779297</ele>
        <time>2021-05-30T06:18:40.000Z</time>
      </trkpt>
      <trkpt lat="47.82856" lon="7.07817">
        <ele>360.79998779297</ele>
        <time>2021-05-30T06:18:42.000Z</time>
      </trkpt>
      <trkpt lat="47.82853" lon="7.07807">
        <ele>360.79998779297</ele>
        <time>2021-05-30T06:18:44.000Z</time>
      </trkpt>
      <trkpt lat="47.82843" lon="7.07768">
        <ele>360.79998779297</ele>
        <time>2021-05-30T06:18:51.000Z</time>
      </trkpt>
      <trkpt lat="47.82832" lon="7.07725">
        <ele>360.79998779297</ele>
        <time>2021-05-30T06:18:59.000Z</time>
      </trkpt>
      <trkpt lat="47.82831" lon="7.07708">
        <ele>360.79998779297</ele>
        <time>2021-05-30T06:19:02.000Z</time>
      </trkpt>
      <trkpt lat="47.82831" lon="7.07701">
        <ele>360.79998779297</ele>
        <time>2021-05-30T06:19:03.000Z</time>
      </trkpt>
      <trkpt lat="47.8284" lon="7.07677">
        <ele>360.79998779297</ele>
        <time>2021-05-30T06:19:08.000Z</time>
      </trkpt>
      <trkpt lat="47.82845" lon="7.07669">
        <ele>361.60000610352</ele>
        <time>2021-05-30T06:19:10.000Z</time>
      </trkpt>
      <trkpt lat="47.82847" lon="7.07665">
        <ele>362</ele>
        <time>2021-05-30T06:19:11.000Z</time>
      </trkpt>
      <trkpt lat="47.82849" lon="7.07661">
        <ele>362.39999389648</ele>
        <time>2021-05-30T06:19:12.000Z</time>
      </trkpt>
      <trkpt lat="47.8285" lon="7.07658">
        <ele>362.79998779297</ele>
        <time>2021-05-30T06:19:13.000Z</time>
      </trkpt>
      <trkpt lat="47.82855" lon="7.07652">
        <ele>363.39999389648</ele>
        <time>2021-05-30T06:19:15.000Z</time>
      </trkpt>
      <trkpt lat="47.82858" lon="7.07649">
        <ele>363.79998779297</ele>
        <time>2021-05-30T06:19:16.000Z</time>
      </trkpt>
      <trkpt lat="47.82861" lon="7.07648">
        <ele>364.20001220703</ele>
        <time>2021-05-30T06:19:17.000Z</time>
      </trkpt>
      <trkpt lat="47.82864" lon="7.07647">
        <ele>364.60000610352</ele>
        <time>2021-05-30T06:19:18.000Z</time>
      </trkpt>
      <trkpt lat="47.82867" lon="7.07647">
        <ele>365</ele>
        <time>2021-05-30T06:19:19.000Z</time>
      </trkpt>
      <trkpt lat="47.82884" lon="7.0765">
        <ele>365</ele>
        <time>2021-05-30T06:19:24.000Z</time>
      </trkpt>
      <trkpt lat="47.82906" lon="7.07649">
        <ele>365</ele>
        <time>2021-05-30T06:19:30.000Z</time>
      </trkpt>
      <trkpt lat="47.8291" lon="7.07647">
        <ele>365.39999389648</ele>
        <time>2021-05-30T06:19:31.000Z</time>
      </trkpt>
      <trkpt lat="47.82914" lon="7.07644">
        <ele>365.79998779297</ele>
        <time>2021-05-30T06:19:32.000Z</time>
      </trkpt>
      <trkpt lat="47.82917" lon="7.0764">
        <ele>366.20001220703</ele>
        <time>2021-05-30T06:19:33.000Z</time>
      </trkpt>
      <trkpt lat="47.8292" lon="7.07637">
        <ele>367</ele>
        <time>2021-05-30T06:19:34.000Z</time>
      </trkpt>
      <trkpt lat="47.82922" lon="7.07632">
        <ele>367</ele>
        <time>2021-05-30T06:19:35.000Z</time>
      </trkpt>
      <trkpt lat="47.82924" lon="7.07629">
        <ele>367</ele>
        <time>2021-05-30T06:19:36.000Z</time>
      </trkpt>
      <trkpt lat="47.82924" lon="7.07614">
        <ele>367</ele>
        <time>2021-05-30T06:19:39.000Z</time>
      </trkpt>
      <trkpt lat="47.82909" lon="7.07598">
        <ele>367</ele>
        <time>2021-05-30T06:19:43.000Z</time>
      </trkpt>
      <trkpt lat="47.82891" lon="7.07595">
        <ele>367</ele>
        <time>2021-05-30T06:19:47.000Z</time>
      </trkpt>
      <trkpt lat="47.82886" lon="7.07594">
        <ele>367</ele>
        <time>2021-05-30T06:19:48.000Z</time>
      </trkpt>
      <trkpt lat="47.82882" lon="7.07593">
        <ele>367</ele>
        <time>2021-05-30T06:19:49.000Z</time>
      </trkpt>
      <trkpt lat="47.82873" lon="7.07588">
        <ele>367</ele>
        <time>2021-05-30T06:19:51.000Z</time>
      </trkpt>
      <trkpt lat="47.82858" lon="7.07576">
        <ele>367</ele>
        <time>2021-05-30T06:19:55.000Z</time>
      </trkpt>
      <trkpt lat="47.82851" lon="7.0757">
        <ele>367</ele>
        <time>2021-05-30T06:19:57.000Z</time>
      </trkpt>
      <trkpt lat="47.82847" lon="7.07568">
        <ele>367.39999389648</ele>
        <time>2021-05-30T06:19:58.000Z</time>
      </trkpt>
      <trkpt lat="47.82843" lon="7.07565">
        <ele>368.20001220703</ele>
        <time>2021-05-30T06:19:59.000Z</time>
      </trkpt>
      <trkpt lat="47.8284" lon="7.07563">
        <ele>368.60000610352</ele>
        <time>2021-05-30T06:20:00.000Z</time>
      </trkpt>
      <trkpt lat="47.82836" lon="7.0756">
        <ele>369</ele>
        <time>2021-05-30T06:20:01.000Z</time>
      </trkpt>
      <trkpt lat="47.82827" lon="7.07553">
        <ele>369</ele>
        <time>2021-05-30T06:20:04.000Z</time>
      </trkpt>
      <trkpt lat="47.82824" lon="7.07551">
        <ele>369.39999389648</ele>
        <time>2021-05-30T06:20:05.000Z</time>
      </trkpt>
      <trkpt lat="47.8282" lon="7.07549">
        <ele>369.79998779297</ele>
        <time>2021-05-30T06:20:06.000Z</time>
      </trkpt>
      <trkpt lat="47.82817" lon="7.07547">
        <ele>370.20001220703</ele>
        <time>2021-05-30T06:20:07.000Z</time>
      </trkpt>
      <trkpt lat="47.82813" lon="7.07546">
        <ele>370.60000610352</ele>
        <time>2021-05-30T06:20:08.000Z</time>
      </trkpt>
      <trkpt lat="47.8281" lon="7.07544">
        <ele>371</ele>
        <time>2021-05-30T06:20:09.000Z</time>
      </trkpt>
      <trkpt lat="47.82803" lon="7.07541">
        <ele>371</ele>
        <time>2021-05-30T06:20:11.000Z</time>
      </trkpt>
      <trkpt lat="47.82784" lon="7.07529">
        <ele>371.60000610352</ele>
        <time>2021-05-30T06:20:17.000Z</time>
      </trkpt>
      <trkpt lat="47.82781" lon="7.07527">
        <ele>372</ele>
        <time>2021-05-30T06:20:18.000Z</time>
      </trkpt>
      <trkpt lat="47.82778" lon="7.07525">
        <ele>372.39999389648</ele>
        <time>2021-05-30T06:20:19.000Z</time>
      </trkpt>
      <trkpt lat="47.82775" lon="7.07523">
        <ele>372.79998779297</ele>
        <time>2021-05-30T06:20:20.000Z</time>
      </trkpt>
      <trkpt lat="47.82772" lon="7.07521">
        <ele>373.39999389648</ele>
        <time>2021-05-30T06:20:21.000Z</time>
      </trkpt>
      <trkpt lat="47.82759" lon="7.07513">
        <ele>373.39999389648</ele>
        <time>2021-05-30T06:20:25.000Z</time>
      </trkpt>
      <trkpt lat="47.8275" lon="7.07511">
        <ele>373.79998779297</ele>
        <time>2021-05-30T06:20:28.000Z</time>
      </trkpt>
      <trkpt lat="47.82747" lon="7.0751">
        <ele>374.20001220703</ele>
        <time>2021-05-30T06:20:29.000Z</time>
      </trkpt>
      <trkpt lat="47.82745" lon="7.07509">
        <ele>374.60000610352</ele>
        <time>2021-05-30T06:20:30.000Z</time>
      </trkpt>
      <trkpt lat="47.82742" lon="7.07508">
        <ele>375</ele>
        <time>2021-05-30T06:20:31.000Z</time>
      </trkpt>
      <trkpt lat="47.82739" lon="7.07507">
        <ele>375.39999389648</ele>
        <time>2021-05-30T06:20:32.000Z</time>
      </trkpt>
      <trkpt lat="47.82732" lon="7.07506">
        <ele>375.79998779297</ele>
        <time>2021-05-30T06:20:35.000Z</time>
      </trkpt>
      <trkpt lat="47.82729" lon="7.07506">
        <ele>376.39999389648</ele>
        <time>2021-05-30T06:20:36.000Z</time>
      </trkpt>
      <trkpt lat="47.82727" lon="7.07507">
        <ele>376.79998779297</ele>
        <time>2021-05-30T06:20:37.000Z</time>
      </trkpt>
      <trkpt lat="47.82725" lon="7.07506">
        <ele>377.20001220703</ele>
        <time>2021-05-30T06:20:38.000Z</time>
      </trkpt>
      <trkpt lat="47.82722" lon="7.07506">
        <ele>377.60000610352</ele>
        <time>2021-05-30T06:20:39.000Z</time>
      </trkpt>
      <trkpt lat="47.82712" lon="7.07503">
        <ele>378</ele>
        <time>2021-05-30T06:20:43.000Z</time>
      </trkpt>
      <trkpt lat="47.8271" lon="7.07501">
        <ele>378.39999389648</ele>
        <time>2021-05-30T06:20:44.000Z</time>
      </trkpt>
      <trkpt lat="47.82708" lon="7.075">
        <ele>378.79998779297</ele>
        <time>2021-05-30T06:20:45.000Z</time>
      </trkpt>
      <trkpt lat="47.82706" lon="7.075">
        <ele>379.39999389648</ele>
        <time>2021-05-30T06:20:46.000Z</time>
      </trkpt>
      <trkpt lat="47.82704" lon="7.07499">
        <ele>379.79998779297</ele>
        <time>2021-05-30T06:20:47.000Z</time>
      </trkpt>
      <trkpt lat="47.82702" lon="7.07499">
        <ele>380.20001220703</ele>
        <time>2021-05-30T06:20:48.000Z</time>
      </trkpt>
      <trkpt lat="47.827" lon="7.07499">
        <ele>381</ele>
        <time>2021-05-30T06:20:49.000Z</time>
      </trkpt>
      <trkpt lat="47.82699" lon="7.07498">
        <ele>381.39999389648</ele>
        <time>2021-05-30T06:20:50.000Z</time>
      </trkpt>
      <trkpt lat="47.82697" lon="7.07497">
        <ele>381.79998779297</ele>
        <time>2021-05-30T06:20:51.000Z</time>
      </trkpt>
      <trkpt lat="47.82696" lon="7.07494">
        <ele>381.79998779297</ele>
        <time>2021-05-30T06:20:54.000Z</time>
      </trkpt>
      <trkpt lat="47.82696" lon="7.07494">
        <ele>381.79998779297</ele>
        <time>2021-05-30T06:20:55.000Z</time>
      </trkpt>
      <trkpt lat="47.82699" lon="7.07486">
        <ele>381.79998779297</ele>
        <time>2021-05-30T06:24:48.000Z</time>
      </trkpt>
      <trkpt lat="47.82703" lon="7.07484">
        <ele>381.79998779297</ele>
        <time>2021-05-30T06:24:50.000Z</time>
      </trkpt>
      <trkpt lat="47.82706" lon="7.07482">
        <ele>381.79998779297</ele>
        <time>2021-05-30T06:24:52.000Z</time>
      </trkpt>
      <trkpt lat="47.82706" lon="7.07481">
        <ele>382.20001220703</ele>
        <time>2021-05-30T06:24:53.000Z</time>
      </trkpt>
      <trkpt lat="47.82707" lon="7.07479">
        <ele>382.60000610352</ele>
        <time>2021-05-30T06:24:54.000Z</time>
      </trkpt>
      <trkpt lat="47.82708" lon="7.07477">
        <ele>383</ele>
        <time>2021-05-30T06:24:55.000Z</time>
      </trkpt>
      <trkpt lat="47.82709" lon="7.07476">
        <ele>383.79998779297</ele>
        <time>2021-05-30T06:24:56.000Z</time>
      </trkpt>
      <trkpt lat="47.82715" lon="7.07463">
        <ele>384.20001220703</ele>
        <time>2021-05-30T06:25:01.000Z</time>
      </trkpt>
      <trkpt lat="47.82716" lon="7.0746">
        <ele>384.79998779297</ele>
        <time>2021-05-30T06:25:02.000Z</time>
      </trkpt>
      <trkpt lat="47.82717" lon="7.07457">
        <ele>385.20001220703</ele>
        <time>2021-05-30T06:25:03.000Z</time>
      </trkpt>
      <trkpt lat="47.82718" lon="7.07454">
        <ele>385.60000610352</ele>
        <time>2021-05-30T06:25:04.000Z</time>
      </trkpt>
      <trkpt lat="47.82718" lon="7.07453">
        <ele>386</ele>
        <time>2021-05-30T06:25:05.000Z</time>
      </trkpt>
      <trkpt lat="47.82719" lon="7.07449">
        <ele>386</ele>
        <time>2021-05-30T06:25:07.000Z</time>
      </trkpt>
      <trkpt lat="47.82719" lon="7.07447">
        <ele>386.39999389648</ele>
        <time>2021-05-30T06:25:08.000Z</time>
      </trkpt>
      <trkpt lat="47.82719" lon="7.07445">
        <ele>387</ele>
        <time>2021-05-30T06:25:09.000Z</time>
      </trkpt>
      <trkpt lat="47.82719" lon="7.07443">
        <ele>387.39999389648</ele>
        <time>2021-05-30T06:25:10.000Z</time>
      </trkpt>
      <trkpt lat="47.8272" lon="7.07441">
        <ele>387.79998779297</ele>
        <time>2021-05-30T06:25:11.000Z</time>
      </trkpt>
      <trkpt lat="47.8272" lon="7.07439">
        <ele>388.20001220703</ele>
        <time>2021-05-30T06:25:12.000Z</time>
      </trkpt>
      <trkpt lat="47.82722" lon="7.07436">
        <ele>388.20001220703</ele>
        <time>2021-05-30T06:25:14.000Z</time>
      </trkpt>
      <trkpt lat="47.82723" lon="7.07434">
        <ele>388.60000610352</ele>
        <time>2021-05-30T06:25:15.000Z</time>
      </trkpt>
      <trkpt lat="47.82724" lon="7.07432">
        <ele>389.20001220703</ele>
        <time>2021-05-30T06:25:16.000Z</time>
      </trkpt>
      <trkpt lat="47.82725" lon="7.0743">
        <ele>389.60000610352</ele>
        <time>2021-05-30T06:25:17.000Z</time>
      </trkpt>
      <trkpt lat="47.82727" lon="7.07427">
        <ele>390</ele>
        <time>2021-05-30T06:25:18.000Z</time>
      </trkpt>
      <trkpt lat="47.82729" lon="7.07425">
        <ele>390.39999389648</ele>
        <time>2021-05-30T06:25:19.000Z</time>
      </trkpt>
      <trkpt lat="47.82733" lon="7.07417">
        <ele>390.79998779297</ele>
        <time>2021-05-30T06:25:22.000Z</time>
      </trkpt>
      <trkpt lat="47.82734" lon="7.07415">
        <ele>391.39999389648</ele>
        <time>2021-05-30T06:25:23.000Z</time>
      </trkpt>
      <trkpt lat="47.82736" lon="7.07413">
        <ele>391.79998779297</ele>
        <time>2021-05-30T06:25:24.000Z</time>
      </trkpt>
      <trkpt lat="47.82737" lon="7.07411">
        <ele>392.20001220703</ele>
        <time>2021-05-30T06:25:25.000Z</time>
      </trkpt>
      <trkpt lat="47.82737" lon="7.0741">
        <ele>392.79998779297</ele>
        <time>2021-05-30T06:25:26.000Z</time>
      </trkpt>
      <trkpt lat="47.8274" lon="7.07407">
        <ele>393.20001220703</ele>
        <time>2021-05-30T06:25:28.000Z</time>
      </trkpt>
      <trkpt lat="47.8274" lon="7.07406">
        <ele>393.60000610352</ele>
        <time>2021-05-30T06:25:29.000Z</time>
      </trkpt>
      <trkpt lat="47.82742" lon="7.07404">
        <ele>394</ele>
        <time>2021-05-30T06:25:30.000Z</time>
      </trkpt>
      <trkpt lat="47.82743" lon="7.07403">
        <ele>394.39999389648</ele>
        <time>2021-05-30T06:25:31.000Z</time>
      </trkpt>
      <trkpt lat="47.82743" lon="7.07401">
        <ele>394.79998779297</ele>
        <time>2021-05-30T06:25:32.000Z</time>
      </trkpt>
      <trkpt lat="47.82746" lon="7.07397">
        <ele>395.20001220703</ele>
        <time>2021-05-30T06:25:34.000Z</time>
      </trkpt>
      <trkpt lat="47.82748" lon="7.07396">
        <ele>395.60000610352</ele>
        <time>2021-05-30T06:25:35.000Z</time>
      </trkpt>
      <trkpt lat="47.82749" lon="7.07395">
        <ele>396</ele>
        <time>2021-05-30T06:25:36.000Z</time>
      </trkpt>
      <trkpt lat="47.82751" lon="7.07394">
        <ele>396.39999389648</ele>
        <time>2021-05-30T06:25:37.000Z</time>
      </trkpt>
      <trkpt lat="47.82752" lon="7.07392">
        <ele>396.79998779297</ele>
        <time>2021-05-30T06:25:38.000Z</time>
      </trkpt>
      <trkpt lat="47.82754" lon="7.0739">
        <ele>397.20001220703</ele>
        <time>2021-05-30T06:25:40.000Z</time>
      </trkpt>
      <trkpt lat="47.82755" lon="7.07387">
        <ele>397.60000610352</ele>
        <time>2021-05-30T06:25:41.000Z</time>
      </trkpt>
      <trkpt lat="47.82757" lon="7.07384">
        <ele>398</ele>
        <time>2021-05-30T06:25:42.000Z</time>
      </trkpt>
      <trkpt lat="47.82757" lon="7.07381">
        <ele>398.60000610352</ele>
        <time>2021-05-30T06:25:43.000Z</time>
      </trkpt>
      <trkpt lat="47.82758" lon="7.07378">
        <ele>399</ele>
        <time>2021-05-30T06:25:44.000Z</time>
      </trkpt>
      <trkpt lat="47.8276" lon="7.07375">
        <ele>399.39999389648</ele>
        <time>2021-05-30T06:25:45.000Z</time>
      </trkpt>
      <trkpt lat="47.82761" lon="7.07373">
        <ele>399.79998779297</ele>
        <time>2021-05-30T06:25:46.000Z</time>
      </trkpt>
      <trkpt lat="47.82762" lon="7.07371">
        <ele>400.20001220703</ele>
        <time>2021-05-30T06:25:47.000Z</time>
      </trkpt>
      <trkpt lat="47.82764" lon="7.07369">
        <ele>400.60000610352</ele>
        <time>2021-05-30T06:25:48.000Z</time>
      </trkpt>
      <trkpt lat="47.82765" lon="7.07366">
        <ele>401</ele>
        <time>2021-05-30T06:25:49.000Z</time>
      </trkpt>
      <trkpt lat="47.82769" lon="7.07359">
        <ele>401.39999389648</ele>
        <time>2021-05-30T06:25:52.000Z</time>
      </trkpt>
      <trkpt lat="47.8277" lon="7.07357">
        <ele>401.79998779297</ele>
        <time>2021-05-30T06:25:53.000Z</time>
      </trkpt>
      <trkpt lat="47.82772" lon="7.07355">
        <ele>402.20001220703</ele>
        <time>2021-05-30T06:25:54.000Z</time>
      </trkpt>
      <trkpt lat="47.82773" lon="7.07354">
        <ele>402.60000610352</ele>
        <time>2021-05-30T06:25:55.000Z</time>
      </trkpt>
      <trkpt lat="47.82774" lon="7.07353">
        <ele>403</ele>
        <time>2021-05-30T06:25:56.000Z</time>
      </trkpt>
      <trkpt lat="47.82778" lon="7.07348">
        <ele>403.60000610352</ele>
        <time>2021-05-30T06:25:59.000Z</time>
      </trkpt>
      <trkpt lat="47.82779" lon="7.07346">
        <ele>404</ele>
        <time>2021-05-30T06:26:00.000Z</time>
      </trkpt>
      <trkpt lat="47.8278" lon="7.07344">
        <ele>404.39999389648</ele>
        <time>2021-05-30T06:26:01.000Z</time>
      </trkpt>
      <trkpt lat="47.82781" lon="7.07341">
        <ele>405</ele>
        <time>2021-05-30T06:26:02.000Z</time>
      </trkpt>
      <trkpt lat="47.82782" lon="7.07339">
        <ele>405.39999389648</ele>
        <time>2021-05-30T06:26:03.000Z</time>
      </trkpt>
      <trkpt lat="47.82787" lon="7.07334">
        <ele>405.79998779297</ele>
        <time>2021-05-30T06:26:06.000Z</time>
      </trkpt>
      <trkpt lat="47.82787" lon="7.07332">
        <ele>406.39999389648</ele>
        <time>2021-05-30T06:26:07.000Z</time>
      </trkpt>
      <trkpt lat="47.82789" lon="7.0733">
        <ele>406.79998779297</ele>
        <time>2021-05-30T06:26:08.000Z</time>
      </trkpt>
      <trkpt lat="47.8279" lon="7.07327">
        <ele>407.20001220703</ele>
        <time>2021-05-30T06:26:09.000Z</time>
      </trkpt>
      <trkpt lat="47.82791" lon="7.07325">
        <ele>407.79998779297</ele>
        <time>2021-05-30T06:26:10.000Z</time>
      </trkpt>
      <trkpt lat="47.82794" lon="7.07322">
        <ele>408.20001220703</ele>
        <time>2021-05-30T06:26:12.000Z</time>
      </trkpt>
      <trkpt lat="47.82795" lon="7.0732">
        <ele>408.60000610352</ele>
        <time>2021-05-30T06:26:13.000Z</time>
      </trkpt>
      <trkpt lat="47.82796" lon="7.07318">
        <ele>409</ele>
        <time>2021-05-30T06:26:14.000Z</time>
      </trkpt>
      <trkpt lat="47.82797" lon="7.07317">
        <ele>409.39999389648</ele>
        <time>2021-05-30T06:26:15.000Z</time>
      </trkpt>
      <trkpt lat="47.82798" lon="7.07316">
        <ele>409.79998779297</ele>
        <time>2021-05-30T06:26:16.000Z</time>
      </trkpt>
      <trkpt lat="47.82801" lon="7.07312">
        <ele>410.39999389648</ele>
        <time>2021-05-30T06:26:18.000Z</time>
      </trkpt>
      <trkpt lat="47.82802" lon="7.0731">
        <ele>410.79998779297</ele>
        <time>2021-05-30T06:26:19.000Z</time>
      </trkpt>
      <trkpt lat="47.82803" lon="7.07308">
        <ele>411.20001220703</ele>
        <time>2021-05-30T06:26:20.000Z</time>
      </trkpt>
      <trkpt lat="47.82805" lon="7.07306">
        <ele>411.79998779297</ele>
        <time>2021-05-30T06:26:21.000Z</time>
      </trkpt>
      <trkpt lat="47.82805" lon="7.07304">
        <ele>412.20001220703</ele>
        <time>2021-05-30T06:26:22.000Z</time>
      </trkpt>
      <trkpt lat="47.82807" lon="7.07296">
        <ele>412.60000610352</ele>
        <time>2021-05-30T06:26:25.000Z</time>
      </trkpt>
      <trkpt lat="47.82808" lon="7.07294">
        <ele>413</ele>
        <time>2021-05-30T06:26:26.000Z</time>
      </trkpt>
      <trkpt lat="47.82808" lon="7.07292">
        <ele>413.60000610352</ele>
        <time>2021-05-30T06:26:27.000Z</time>
      </trkpt>
      <trkpt lat="47.82809" lon="7.0729">
        <ele>414</ele>
        <time>2021-05-30T06:26:28.000Z</time>
      </trkpt>
      <trkpt lat="47.8281" lon="7.07288">
        <ele>414.39999389648</ele>
        <time>2021-05-30T06:26:29.000Z</time>
      </trkpt>
      <trkpt lat="47.82813" lon="7.07281">
        <ele>414.79998779297</ele>
        <time>2021-05-30T06:26:32.000Z</time>
      </trkpt>
      <trkpt lat="47.82813" lon="7.07278">
        <ele>415.39999389648</ele>
        <time>2021-05-30T06:26:33.000Z</time>
      </trkpt>
      <trkpt lat="47.82814" lon="7.07277">
        <ele>415.79998779297</ele>
        <time>2021-05-30T06:26:34.000Z</time>
      </trkpt>
      <trkpt lat="47.82815" lon="7.07275">
        <ele>416.60000610352</ele>
        <time>2021-05-30T06:26:35.000Z</time>
      </trkpt>
      <trkpt lat="47.82816" lon="7.07273">
        <ele>416.60000610352</ele>
        <time>2021-05-30T06:26:36.000Z</time>
      </trkpt>
      <trkpt lat="47.82823" lon="7.07264">
        <ele>417</ele>
        <time>2021-05-30T06:26:41.000Z</time>
      </trkpt>
      <trkpt lat="47.82825" lon="7.07261">
        <ele>417.39999389648</ele>
        <time>2021-05-30T06:26:42.000Z</time>
      </trkpt>
      <trkpt lat="47.82826" lon="7.0726">
        <ele>417.79998779297</ele>
        <time>2021-05-30T06:26:43.000Z</time>
      </trkpt>
      <trkpt lat="47.82827" lon="7.07257">
        <ele>418.20001220703</ele>
        <time>2021-05-30T06:26:44.000Z</time>
      </trkpt>
      <trkpt lat="47.82828" lon="7.07256">
        <ele>418.60000610352</ele>
        <time>2021-05-30T06:26:45.000Z</time>
      </trkpt>
      <trkpt lat="47.82835" lon="7.07248">
        <ele>419.20001220703</ele>
        <time>2021-05-30T06:26:50.000Z</time>
      </trkpt>
      <trkpt lat="47.82836" lon="7.07245">
        <ele>419.60000610352</ele>
        <time>2021-05-30T06:26:51.000Z</time>
      </trkpt>
      <trkpt lat="47.82837" lon="7.07242">
        <ele>420</ele>
        <time>2021-05-30T06:26:52.000Z</time>
      </trkpt>
      <trkpt lat="47.82838" lon="7.0724">
        <ele>420.39999389648</ele>
        <time>2021-05-30T06:26:53.000Z</time>
      </trkpt>
      <trkpt lat="47.82839" lon="7.07238">
        <ele>420.79998779297</ele>
        <time>2021-05-30T06:26:54.000Z</time>
      </trkpt>
      <trkpt lat="47.82841" lon="7.07236">
        <ele>420.79998779297</ele>
        <time>2021-05-30T06:26:55.000Z</time>
      </trkpt>
      <trkpt lat="47.82842" lon="7.07234">
        <ele>420.79998779297</ele>
        <time>2021-05-30T06:26:56.000Z</time>
      </trkpt>
      <trkpt lat="47.82844" lon="7.07233">
        <ele>421.20001220703</ele>
        <time>2021-05-30T06:26:57.000Z</time>
      </trkpt>
      <trkpt lat="47.82845" lon="7.07231">
        <ele>421.79998779297</ele>
        <time>2021-05-30T06:26:58.000Z</time>
      </trkpt>
      <trkpt lat="47.82847" lon="7.0723">
        <ele>422.60000610352</ele>
        <time>2021-05-30T06:26:59.000Z</time>
      </trkpt>
      <trkpt lat="47.82849" lon="7.07229">
        <ele>423</ele>
        <time>2021-05-30T06:27:00.000Z</time>
      </trkpt>
      <trkpt lat="47.82854" lon="7.07225">
        <ele>423.60000610352</ele>
        <time>2021-05-30T06:27:03.000Z</time>
      </trkpt>
      <trkpt lat="47.82856" lon="7.07224">
        <ele>424</ele>
        <time>2021-05-30T06:27:04.000Z</time>
      </trkpt>
      <trkpt lat="47.82858" lon="7.07223">
        <ele>424.39999389648</ele>
        <time>2021-05-30T06:27:05.000Z</time>
      </trkpt>
      <trkpt lat="47.82859" lon="7.07222">
        <ele>424.79998779297</ele>
        <time>2021-05-30T06:27:06.000Z</time>
      </trkpt>
      <trkpt lat="47.82861" lon="7.0722">
        <ele>425.39999389648</ele>
        <time>2021-05-30T06:27:07.000Z</time>
      </trkpt>
      <trkpt lat="47.82863" lon="7.07217">
        <ele>425.79998779297</ele>
        <time>2021-05-30T06:27:09.000Z</time>
      </trkpt>
      <trkpt lat="47.82864" lon="7.07216">
        <ele>426.20001220703</ele>
        <time>2021-05-30T06:27:10.000Z</time>
      </trkpt>
      <trkpt lat="47.82866" lon="7.07215">
        <ele>426.60000610352</ele>
        <time>2021-05-30T06:27:11.000Z</time>
      </trkpt>
      <trkpt lat="47.82868" lon="7.07214">
        <ele>427</ele>
        <time>2021-05-30T06:27:12.000Z</time>
      </trkpt>
      <trkpt lat="47.82869" lon="7.07213">
        <ele>427.60000610352</ele>
        <time>2021-05-30T06:27:13.000Z</time>
      </trkpt>
      <trkpt lat="47.82873" lon="7.07212">
        <ele>428</ele>
        <time>2021-05-30T06:27:15.000Z</time>
      </trkpt>
      <trkpt lat="47.82875" lon="7.07211">
        <ele>428.39999389648</ele>
        <time>2021-05-30T06:27:16.000Z</time>
      </trkpt>
      <trkpt lat="47.82876" lon="7.0721">
        <ele>428.79998779297</ele>
        <time>2021-05-30T06:27:17.000Z</time>
      </trkpt>
      <trkpt lat="47.82878" lon="7.07209">
        <ele>429.20001220703</ele>
        <time>2021-05-30T06:27:18.000Z</time>
      </trkpt>
      <trkpt lat="47.82879" lon="7.07209">
        <ele>429.60000610352</ele>
        <time>2021-05-30T06:27:19.000Z</time>
      </trkpt>
      <trkpt lat="47.82882" lon="7.07207">
        <ele>430</ele>
        <time>2021-05-30T06:27:21.000Z</time>
      </trkpt>
      <trkpt lat="47.82884" lon="7.07206">
        <ele>430.60000610352</ele>
        <time>2021-05-30T06:27:22.000Z</time>
      </trkpt>
      <trkpt lat="47.82885" lon="7.07205">
        <ele>431</ele>
        <time>2021-05-30T06:27:23.000Z</time>
      </trkpt>
      <trkpt lat="47.82886" lon="7.07204">
        <ele>432</ele>
        <time>2021-05-30T06:27:24.000Z</time>
      </trkpt>
      <trkpt lat="47.82887" lon="7.07202">
        <ele>432.39999389648</ele>
        <time>2021-05-30T06:27:25.000Z</time>
      </trkpt>
      <trkpt lat="47.82889" lon="7.07201">
        <ele>432.79998779297</ele>
        <time>2021-05-30T06:27:26.000Z</time>
      </trkpt>
      <trkpt lat="47.8289" lon="7.07199">
        <ele>433.20001220703</ele>
        <time>2021-05-30T06:27:27.000Z</time>
      </trkpt>
      <trkpt lat="47.82891" lon="7.07197">
        <ele>433.60000610352</ele>
        <time>2021-05-30T06:27:28.000Z</time>
      </trkpt>
      <trkpt lat="47.82891" lon="7.07195">
        <ele>434</ele>
        <time>2021-05-30T06:27:29.000Z</time>
      </trkpt>
      <trkpt lat="47.82891" lon="7.07194">
        <ele>434.39999389648</ele>
        <time>2021-05-30T06:27:30.000Z</time>
      </trkpt>
      <trkpt lat="47.82892" lon="7.07192">
        <ele>434.79998779297</ele>
        <time>2021-05-30T06:27:31.000Z</time>
      </trkpt>
      <trkpt lat="47.82893" lon="7.0719">
        <ele>435.20001220703</ele>
        <time>2021-05-30T06:27:32.000Z</time>
      </trkpt>
      <trkpt lat="47.82894" lon="7.07188">
        <ele>435.60000610352</ele>
        <time>2021-05-30T06:27:33.000Z</time>
      </trkpt>
      <trkpt lat="47.82894" lon="7.07187">
        <ele>436</ele>
        <time>2021-05-30T06:27:34.000Z</time>
      </trkpt>
      <trkpt lat="47.82895" lon="7.07186">
        <ele>436.39999389648</ele>
        <time>2021-05-30T06:27:35.000Z</time>
      </trkpt>
      <trkpt lat="47.82896" lon="7.07184">
        <ele>436.79998779297</ele>
        <time>2021-05-30T06:27:36.000Z</time>
      </trkpt>
      <trkpt lat="47.82896" lon="7.07182">
        <ele>437.39999389648</ele>
        <time>2021-05-30T06:27:37.000Z</time>
      </trkpt>
      <trkpt lat="47.82897" lon="7.07179">
        <ele>437.79998779297</ele>
        <time>2021-05-30T06:27:38.000Z</time>
      </trkpt>
      <trkpt lat="47.82897" lon="7.07177">
        <ele>438.20001220703</ele>
        <time>2021-05-30T06:27:39.000Z</time>
      </trkpt>
      <trkpt lat="47.82899" lon="7.07172">
        <ele>438.20001220703</ele>
        <time>2021-05-30T06:27:41.000Z</time>
      </trkpt>
      <trkpt lat="47.829" lon="7.0717">
        <ele>438.60000610352</ele>
        <time>2021-05-30T06:27:42.000Z</time>
      </trkpt>
      <trkpt lat="47.82901" lon="7.07168">
        <ele>439</ele>
        <time>2021-05-30T06:27:43.000Z</time>
      </trkpt>
      <trkpt lat="47.82902" lon="7.07165">
        <ele>439.39999389648</ele>
        <time>2021-05-30T06:27:44.000Z</time>
      </trkpt>
      <trkpt lat="47.82902" lon="7.07163">
        <ele>439.79998779297</ele>
        <time>2021-05-30T06:27:45.000Z</time>
      </trkpt>
      <trkpt lat="47.82903" lon="7.07161">
        <ele>440.20001220703</ele>
        <time>2021-05-30T06:27:46.000Z</time>
      </trkpt>
      <trkpt lat="47.82904" lon="7.07158">
        <ele>440.20001220703</ele>
        <time>2021-05-30T06:27:47.000Z</time>
      </trkpt>
      <trkpt lat="47.82905" lon="7.07156">
        <ele>440.60000610352</ele>
        <time>2021-05-30T06:27:48.000Z</time>
      </trkpt>
      <trkpt lat="47.82906" lon="7.07154">
        <ele>441</ele>
        <time>2021-05-30T06:27:49.000Z</time>
      </trkpt>
      <trkpt lat="47.82906" lon="7.07152">
        <ele>441.39999389648</ele>
        <time>2021-05-30T06:27:50.000Z</time>
      </trkpt>
      <trkpt lat="47.82906" lon="7.07149">
        <ele>441.79998779297</ele>
        <time>2021-05-30T06:27:51.000Z</time>
      </trkpt>
      <trkpt lat="47.82907" lon="7.07145">
        <ele>442.20001220703</ele>
        <time>2021-05-30T06:27:52.000Z</time>
      </trkpt>
      <trkpt lat="47.82909" lon="7.0714">
        <ele>442.20001220703</ele>
        <time>2021-05-30T06:27:54.000Z</time>
      </trkpt>
      <trkpt lat="47.82911" lon="7.07136">
        <ele>442.79998779297</ele>
        <time>2021-05-30T06:27:56.000Z</time>
      </trkpt>
      <trkpt lat="47.82911" lon="7.07133">
        <ele>443.20001220703</ele>
        <time>2021-05-30T06:27:57.000Z</time>
      </trkpt>
      <trkpt lat="47.82913" lon="7.0713">
        <ele>443.60000610352</ele>
        <time>2021-05-30T06:27:58.000Z</time>
      </trkpt>
      <trkpt lat="47.82915" lon="7.07128">
        <ele>444</ele>
        <time>2021-05-30T06:27:59.000Z</time>
      </trkpt>
      <trkpt lat="47.82916" lon="7.07126">
        <ele>444.60000610352</ele>
        <time>2021-05-30T06:28:00.000Z</time>
      </trkpt>
      <trkpt lat="47.82917" lon="7.07124">
        <ele>444.60000610352</ele>
        <time>2021-05-30T06:28:01.000Z</time>
      </trkpt>
      <trkpt lat="47.82919" lon="7.07117">
        <ele>445</ele>
        <time>2021-05-30T06:28:04.000Z</time>
      </trkpt>
      <trkpt lat="47.8292" lon="7.07115">
        <ele>445.39999389648</ele>
        <time>2021-05-30T06:28:05.000Z</time>
      </trkpt>
      <trkpt lat="47.8292" lon="7.07112">
        <ele>445.79998779297</ele>
        <time>2021-05-30T06:28:06.000Z</time>
      </trkpt>
      <trkpt lat="47.82921" lon="7.0711">
        <ele>446.20001220703</ele>
        <time>2021-05-30T06:28:07.000Z</time>
      </trkpt>
      <trkpt lat="47.82921" lon="7.07108">
        <ele>446.60000610352</ele>
        <time>2021-05-30T06:28:08.000Z</time>
      </trkpt>
      <trkpt lat="47.82923" lon="7.07103">
        <ele>447.20001220703</ele>
        <time>2021-05-30T06:28:10.000Z</time>
      </trkpt>
      <trkpt lat="47.82924" lon="7.071">
        <ele>447.60000610352</ele>
        <time>2021-05-30T06:28:11.000Z</time>
      </trkpt>
      <trkpt lat="47.82925" lon="7.07097">
        <ele>448.39999389648</ele>
        <time>2021-05-30T06:28:12.000Z</time>
      </trkpt>
      <trkpt lat="47.82926" lon="7.07096">
        <ele>448.79998779297</ele>
        <time>2021-05-30T06:28:13.000Z</time>
      </trkpt>
      <trkpt lat="47.82928" lon="7.07093">
        <ele>448.79998779297</ele>
        <time>2021-05-30T06:28:14.000Z</time>
      </trkpt>
      <trkpt lat="47.82931" lon="7.07088">
        <ele>449.20001220703</ele>
        <time>2021-05-30T06:28:16.000Z</time>
      </trkpt>
      <trkpt lat="47.82933" lon="7.07085">
        <ele>449.60000610352</ele>
        <time>2021-05-30T06:28:17.000Z</time>
      </trkpt>
      <trkpt lat="47.82934" lon="7.07083">
        <ele>450</ele>
        <time>2021-05-30T06:28:18.000Z</time>
      </trkpt>
      <trkpt lat="47.82936" lon="7.0708">
        <ele>450.39999389648</ele>
        <time>2021-05-30T06:28:19.000Z</time>
      </trkpt>
      <trkpt lat="47.82937" lon="7.07078">
        <ele>450.79998779297</ele>
        <time>2021-05-30T06:28:20.000Z</time>
      </trkpt>
      <trkpt lat="47.82942" lon="7.07062">
        <ele>450.79998779297</ele>
        <time>2021-05-30T06:28:26.000Z</time>
      </trkpt>
      <trkpt lat="47.82943" lon="7.07057">
        <ele>451.20001220703</ele>
        <time>2021-05-30T06:28:28.000Z</time>
      </trkpt>
      <trkpt lat="47.82943" lon="7.07054">
        <ele>451.60000610352</ele>
        <time>2021-05-30T06:28:29.000Z</time>
      </trkpt>
      <trkpt lat="47.82944" lon="7.07051">
        <ele>452</ele>
        <time>2021-05-30T06:28:30.000Z</time>
      </trkpt>
      <trkpt lat="47.82944" lon="7.07048">
        <ele>452.39999389648</ele>
        <time>2021-05-30T06:28:31.000Z</time>
      </trkpt>
      <trkpt lat="47.82945" lon="7.07046">
        <ele>452.79998779297</ele>
        <time>2021-05-30T06:28:32.000Z</time>
      </trkpt>
      <trkpt lat="47.82955" lon="7.07023">
        <ele>452.79998779297</ele>
        <time>2021-05-30T06:28:40.000Z</time>
      </trkpt>
      <trkpt lat="47.82959" lon="7.07015">
        <ele>453.39999389648</ele>
        <time>2021-05-30T06:28:43.000Z</time>
      </trkpt>
      <trkpt lat="47.8296" lon="7.07013">
        <ele>453.79998779297</ele>
        <time>2021-05-30T06:28:44.000Z</time>
      </trkpt>
      <trkpt lat="47.82961" lon="7.0701">
        <ele>454.20001220703</ele>
        <time>2021-05-30T06:28:45.000Z</time>
      </trkpt>
      <trkpt lat="47.82962" lon="7.07007">
        <ele>454.60000610352</ele>
        <time>2021-05-30T06:28:46.000Z</time>
      </trkpt>
      <trkpt lat="47.82962" lon="7.07004">
        <ele>455.20001220703</ele>
        <time>2021-05-30T06:28:47.000Z</time>
      </trkpt>
      <trkpt lat="47.82965" lon="7.06995">
        <ele>455.60000610352</ele>
        <time>2021-05-30T06:28:50.000Z</time>
      </trkpt>
      <trkpt lat="47.82966" lon="7.06993">
        <ele>456</ele>
        <time>2021-05-30T06:28:51.000Z</time>
      </trkpt>
      <trkpt lat="47.82968" lon="7.06991">
        <ele>456.39999389648</ele>
        <time>2021-05-30T06:28:52.000Z</time>
      </trkpt>
      <trkpt lat="47.82969" lon="7.06989">
        <ele>456.79998779297</ele>
        <time>2021-05-30T06:28:53.000Z</time>
      </trkpt>
      <trkpt lat="47.82971" lon="7.06987">
        <ele>457.20001220703</ele>
        <time>2021-05-30T06:28:54.000Z</time>
      </trkpt>
      <trkpt lat="47.82985" lon="7.06973">
        <ele>457.20001220703</ele>
        <time>2021-05-30T06:29:01.000Z</time>
      </trkpt>
      <trkpt lat="47.82987" lon="7.06969">
        <ele>457.79998779297</ele>
        <time>2021-05-30T06:29:04.000Z</time>
      </trkpt>
      <trkpt lat="47.82987" lon="7.06965">
        <ele>458.20001220703</ele>
        <time>2021-05-30T06:29:05.000Z</time>
      </trkpt>
      <trkpt lat="47.82988" lon="7.06963">
        <ele>458.60000610352</ele>
        <time>2021-05-30T06:29:06.000Z</time>
      </trkpt>
      <trkpt lat="47.82989" lon="7.06961">
        <ele>459</ele>
        <time>2021-05-30T06:29:07.000Z</time>
      </trkpt>
      <trkpt lat="47.82991" lon="7.06958">
        <ele>459.39999389648</ele>
        <time>2021-05-30T06:29:08.000Z</time>
      </trkpt>
      <trkpt lat="47.82996" lon="7.06948">
        <ele>459.39999389648</ele>
        <time>2021-05-30T06:29:11.000Z</time>
      </trkpt>
      <trkpt lat="47.83005" lon="7.06932">
        <ele>459.39999389648</ele>
        <time>2021-05-30T06:29:16.000Z</time>
      </trkpt>
      <trkpt lat="47.83012" lon="7.06906">
        <ele>459.39999389648</ele>
        <time>2021-05-30T06:29:22.000Z</time>
      </trkpt>
      <trkpt lat="47.83023" lon="7.06883">
        <ele>459.39999389648</ele>
        <time>2021-05-30T06:29:27.000Z</time>
      </trkpt>
      <trkpt lat="47.83032" lon="7.06854">
        <ele>459.39999389648</ele>
        <time>2021-05-30T06:29:33.000Z</time>
      </trkpt>
      <trkpt lat="47.8304" lon="7.06829">
        <ele>459.39999389648</ele>
        <time>2021-05-30T06:29:39.000Z</time>
      </trkpt>
      <trkpt lat="47.83043" lon="7.06803">
        <ele>459.79998779297</ele>
        <time>2021-05-30T06:29:45.000Z</time>
      </trkpt>
      <trkpt lat="47.83043" lon="7.068">
        <ele>460.39999389648</ele>
        <time>2021-05-30T06:29:46.000Z</time>
      </trkpt>
      <trkpt lat="47.83043" lon="7.06796">
        <ele>460.79998779297</ele>
        <time>2021-05-30T06:29:47.000Z</time>
      </trkpt>
      <trkpt lat="47.83042" lon="7.06791">
        <ele>461.20001220703</ele>
        <time>2021-05-30T06:29:48.000Z</time>
      </trkpt>
      <trkpt lat="47.83042" lon="7.06787">
        <ele>461.60000610352</ele>
        <time>2021-05-30T06:29:49.000Z</time>
      </trkpt>
      <trkpt lat="47.83044" lon="7.06779">
        <ele>462</ele>
        <time>2021-05-30T06:29:51.000Z</time>
      </trkpt>
      <trkpt lat="47.83045" lon="7.06776">
        <ele>462.39999389648</ele>
        <time>2021-05-30T06:29:52.000Z</time>
      </trkpt>
      <trkpt lat="47.83046" lon="7.06773">
        <ele>462.79998779297</ele>
        <time>2021-05-30T06:29:53.000Z</time>
      </trkpt>
      <trkpt lat="47.83047" lon="7.06771">
        <ele>463.39999389648</ele>
        <time>2021-05-30T06:29:54.000Z</time>
      </trkpt>
      <trkpt lat="47.83048" lon="7.06768">
        <ele>463.79998779297</ele>
        <time>2021-05-30T06:29:55.000Z</time>
      </trkpt>
      <trkpt lat="47.83051" lon="7.06762">
        <ele>464.20001220703</ele>
        <time>2021-05-30T06:29:57.000Z</time>
      </trkpt>
      <trkpt lat="47.83053" lon="7.0676">
        <ele>464.60000610352</ele>
        <time>2021-05-30T06:29:58.000Z</time>
      </trkpt>
      <trkpt lat="47.83054" lon="7.06758">
        <ele>465</ele>
        <time>2021-05-30T06:29:59.000Z</time>
      </trkpt>
      <trkpt lat="47.83056" lon="7.06757">
        <ele>465.39999389648</ele>
        <time>2021-05-30T06:30:00.000Z</time>
      </trkpt>
      <trkpt lat="47.83057" lon="7.06755">
        <ele>465.79998779297</ele>
        <time>2021-05-30T06:30:01.000Z</time>
      </trkpt>
      <trkpt lat="47.83061" lon="7.06752">
        <ele>466.20001220703</ele>
        <time>2021-05-30T06:30:03.000Z</time>
      </trkpt>
      <trkpt lat="47.83063" lon="7.06751">
        <ele>466.79998779297</ele>
        <time>2021-05-30T06:30:04.000Z</time>
      </trkpt>
      <trkpt lat="47.83065" lon="7.06751">
        <ele>467.20001220703</ele>
        <time>2021-05-30T06:30:05.000Z</time>
      </trkpt>
      <trkpt lat="47.83066" lon="7.0675">
        <ele>467.79998779297</ele>
        <time>2021-05-30T06:30:06.000Z</time>
      </trkpt>
      <trkpt lat="47.83067" lon="7.06749">
        <ele>468.20001220703</ele>
        <time>2021-05-30T06:30:07.000Z</time>
      </trkpt>
      <trkpt lat="47.83069" lon="7.06748">
        <ele>468.60000610352</ele>
        <time>2021-05-30T06:30:08.000Z</time>
      </trkpt>
      <trkpt lat="47.83071" lon="7.06747">
        <ele>469</ele>
        <time>2021-05-30T06:30:09.000Z</time>
      </trkpt>
      <trkpt lat="47.83073" lon="7.06745">
        <ele>469.39999389648</ele>
        <time>2021-05-30T06:30:10.000Z</time>
      </trkpt>
      <trkpt lat="47.83075" lon="7.06744">
        <ele>469.79998779297</ele>
        <time>2021-05-30T06:30:11.000Z</time>
      </trkpt>
      <trkpt lat="47.83078" lon="7.06744">
        <ele>470.20001220703</ele>
        <time>2021-05-30T06:30:12.000Z</time>
      </trkpt>
      <trkpt lat="47.8308" lon="7.06743">
        <ele>470.20001220703</ele>
        <time>2021-05-30T06:30:13.000Z</time>
      </trkpt>
      <trkpt lat="47.83085" lon="7.0674">
        <ele>470.60000610352</ele>
        <time>2021-05-30T06:30:16.000Z</time>
      </trkpt>
      <trkpt lat="47.83087" lon="7.06739">
        <ele>471.20001220703</ele>
        <time>2021-05-30T06:30:17.000Z</time>
      </trkpt>
      <trkpt lat="47.83088" lon="7.06738">
        <ele>471.60000610352</ele>
        <time>2021-05-30T06:30:18.000Z</time>
      </trkpt>
      <trkpt lat="47.8309" lon="7.06736">
        <ele>472</ele>
        <time>2021-05-30T06:30:19.000Z</time>
      </trkpt>
      <trkpt lat="47.83092" lon="7.06736">
        <ele>472.39999389648</ele>
        <time>2021-05-30T06:30:20.000Z</time>
      </trkpt>
      <trkpt lat="47.83104" lon="7.06735">
        <ele>472.39999389648</ele>
        <time>2021-05-30T06:30:26.000Z</time>
      </trkpt>
      <trkpt lat="47.83122" lon="7.06733">
        <ele>472.39999389648</ele>
        <time>2021-05-30T06:30:33.000Z</time>
      </trkpt>
      <trkpt lat="47.83126" lon="7.06732">
        <ele>472.39999389648</ele>
        <time>2021-05-30T06:30:35.000Z</time>
      </trkpt>
      <trkpt lat="47.8313" lon="7.06735">
        <ele>472.39999389648</ele>
        <time>2021-05-30T06:30:38.000Z</time>
      </trkpt>
      <trkpt lat="47.83134" lon="7.06742">
        <ele>472.39999389648</ele>
        <time>2021-05-30T06:30:43.000Z</time>
      </trkpt>
      <trkpt lat="47.83134" lon="7.0674">
        <ele>472.39999389648</ele>
        <time>2021-05-30T06:30:44.000Z</time>
      </trkpt>
      <trkpt lat="47.83134" lon="7.06738">
        <ele>472.39999389648</ele>
        <time>2021-05-30T06:30:47.000Z</time>
      </trkpt>
      <trkpt lat="47.83131" lon="7.0674">
        <ele>472.39999389648</ele>
        <time>2021-05-30T06:30:55.000Z</time>
      </trkpt>
      <trkpt lat="47.83131" lon="7.0674">
        <ele>472.39999389648</ele>
        <time>2021-05-30T06:30:56.000Z</time>
      </trkpt>
      <trkpt lat="47.83131" lon="7.06735">
        <ele>472.39999389648</ele>
        <time>2021-05-30T06:31:00.000Z</time>
      </trkpt>
      <trkpt lat="47.8313" lon="7.06733">
        <ele>472.39999389648</ele>
        <time>2021-05-30T06:31:01.000Z</time>
      </trkpt>
      <trkpt lat="47.83127" lon="7.06725">
        <ele>472.39999389648</ele>
        <time>2021-05-30T06:31:04.000Z</time>
      </trkpt>
      <trkpt lat="47.83127" lon="7.06721">
        <ele>473.20001220703</ele>
        <time>2021-05-30T06:31:05.000Z</time>
      </trkpt>
      <trkpt lat="47.83128" lon="7.06717">
        <ele>473.60000610352</ele>
        <time>2021-05-30T06:31:06.000Z</time>
      </trkpt>
      <trkpt lat="47.83129" lon="7.06714">
        <ele>474</ele>
        <time>2021-05-30T06:31:07.000Z</time>
      </trkpt>
      <trkpt lat="47.83129" lon="7.06712">
        <ele>474.39999389648</ele>
        <time>2021-05-30T06:31:08.000Z</time>
      </trkpt>
      <trkpt lat="47.83129" lon="7.06712">
        <ele>474.39999389648</ele>
        <time>2021-05-30T06:31:09.000Z</time>
      </trkpt>
      <trkpt lat="47.83129" lon="7.06711">
        <ele>474.79998779297</ele>
        <time>2021-05-30T06:31:10.000Z</time>
      </trkpt>
      <trkpt lat="47.83129" lon="7.0671">
        <ele>475.39999389648</ele>
        <time>2021-05-30T06:31:11.000Z</time>
      </trkpt>
      <trkpt lat="47.8313" lon="7.06708">
        <ele>475.79998779297</ele>
        <time>2021-05-30T06:31:12.000Z</time>
      </trkpt>
      <trkpt lat="47.8313" lon="7.06705">
        <ele>476.39999389648</ele>
        <time>2021-05-30T06:31:13.000Z</time>
      </trkpt>
      <trkpt lat="47.8313" lon="7.06702">
        <ele>476.79998779297</ele>
        <time>2021-05-30T06:31:14.000Z</time>
      </trkpt>
      <trkpt lat="47.83129" lon="7.06697">
        <ele>476.79998779297</ele>
        <time>2021-05-30T06:31:16.000Z</time>
      </trkpt>
      <trkpt lat="47.83127" lon="7.0669">
        <ele>477.20001220703</ele>
        <time>2021-05-30T06:31:18.000Z</time>
      </trkpt>
      <trkpt lat="47.83126" lon="7.06687">
        <ele>477.79998779297</ele>
        <time>2021-05-30T06:31:19.000Z</time>
      </trkpt>
      <trkpt lat="47.83126" lon="7.06683">
        <ele>478.20001220703</ele>
        <time>2021-05-30T06:31:20.000Z</time>
      </trkpt>
      <trkpt lat="47.83126" lon="7.0668">
        <ele>478.60000610352</ele>
        <time>2021-05-30T06:31:21.000Z</time>
      </trkpt>
      <trkpt lat="47.83126" lon="7.06678">
        <ele>479.20001220703</ele>
        <time>2021-05-30T06:31:22.000Z</time>
      </trkpt>
      <trkpt lat="47.83124" lon="7.06673">
        <ele>479.20001220703</ele>
        <time>2021-05-30T06:31:24.000Z</time>
      </trkpt>
      <trkpt lat="47.83124" lon="7.0667">
        <ele>479.60000610352</ele>
        <time>2021-05-30T06:31:25.000Z</time>
      </trkpt>
      <trkpt lat="47.83124" lon="7.06668">
        <ele>480</ele>
        <time>2021-05-30T06:31:26.000Z</time>
      </trkpt>
      <trkpt lat="47.83123" lon="7.06666">
        <ele>480.39999389648</ele>
        <time>2021-05-30T06:31:27.000Z</time>
      </trkpt>
      <trkpt lat="47.83123" lon="7.06663">
        <ele>480.79998779297</ele>
        <time>2021-05-30T06:31:28.000Z</time>
      </trkpt>
      <trkpt lat="47.83123" lon="7.06661">
        <ele>481.20001220703</ele>
        <time>2021-05-30T06:31:29.000Z</time>
      </trkpt>
      <trkpt lat="47.83122" lon="7.06658">
        <ele>481.20001220703</ele>
        <time>2021-05-30T06:31:31.000Z</time>
      </trkpt>
      <trkpt lat="47.83122" lon="7.06655">
        <ele>481.60000610352</ele>
        <time>2021-05-30T06:31:32.000Z</time>
      </trkpt>
      <trkpt lat="47.83121" lon="7.06652">
        <ele>482.20001220703</ele>
        <time>2021-05-30T06:31:33.000Z</time>
      </trkpt>
      <trkpt lat="47.83121" lon="7.06649">
        <ele>482.60000610352</ele>
        <time>2021-05-30T06:31:34.000Z</time>
      </trkpt>
      <trkpt lat="47.83121" lon="7.06646">
        <ele>483</ele>
        <time>2021-05-30T06:31:35.000Z</time>
      </trkpt>
      <trkpt lat="47.83121" lon="7.06642">
        <ele>483.39999389648</ele>
        <time>2021-05-30T06:31:36.000Z</time>
      </trkpt>
      <trkpt lat="47.83121" lon="7.06637">
        <ele>483.39999389648</ele>
        <time>2021-05-30T06:31:38.000Z</time>
      </trkpt>
      <trkpt lat="47.83121" lon="7.06633">
        <ele>483.79998779297</ele>
        <time>2021-05-30T06:31:39.000Z</time>
      </trkpt>
      <trkpt lat="47.8312" lon="7.0663">
        <ele>484.20001220703</ele>
        <time>2021-05-30T06:31:40.000Z</time>
      </trkpt>
      <trkpt lat="47.8312" lon="7.06627">
        <ele>484.60000610352</ele>
        <time>2021-05-30T06:31:41.000Z</time>
      </trkpt>
      <trkpt lat="47.8312" lon="7.06623">
        <ele>485.20001220703</ele>
        <time>2021-05-30T06:31:42.000Z</time>
      </trkpt>
      <trkpt lat="47.83121" lon="7.0662">
        <ele>485.60000610352</ele>
        <time>2021-05-30T06:31:43.000Z</time>
      </trkpt>
      <trkpt lat="47.83121" lon="7.06612">
        <ele>485.60000610352</ele>
        <time>2021-05-30T06:31:46.000Z</time>
      </trkpt>
      <trkpt lat="47.83121" lon="7.06606">
        <ele>486</ele>
        <time>2021-05-30T06:31:48.000Z</time>
      </trkpt>
      <trkpt lat="47.8312" lon="7.06603">
        <ele>486.39999389648</ele>
        <time>2021-05-30T06:31:49.000Z</time>
      </trkpt>
      <trkpt lat="47.83121" lon="7.066">
        <ele>486.79998779297</ele>
        <time>2021-05-30T06:31:50.000Z</time>
      </trkpt>
      <trkpt lat="47.83122" lon="7.06598">
        <ele>487.20001220703</ele>
        <time>2021-05-30T06:31:51.000Z</time>
      </trkpt>
      <trkpt lat="47.83122" lon="7.06596">
        <ele>487.60000610352</ele>
        <time>2021-05-30T06:31:52.000Z</time>
      </trkpt>
      <trkpt lat="47.83122" lon="7.06592">
        <ele>487.60000610352</ele>
        <time>2021-05-30T06:31:53.000Z</time>
      </trkpt>
      <trkpt lat="47.83126" lon="7.06583">
        <ele>487.60000610352</ele>
        <time>2021-05-30T06:31:56.000Z</time>
      </trkpt>
      <trkpt lat="47.83127" lon="7.0658">
        <ele>487.60000610352</ele>
        <time>2021-05-30T06:31:57.000Z</time>
      </trkpt>
      <trkpt lat="47.83128" lon="7.06569">
        <ele>488</ele>
        <time>2021-05-30T06:32:02.000Z</time>
      </trkpt>
      <trkpt lat="47.83127" lon="7.06565">
        <ele>488.39999389648</ele>
        <time>2021-05-30T06:32:03.000Z</time>
      </trkpt>
      <trkpt lat="47.83126" lon="7.06561">
        <ele>489</ele>
        <time>2021-05-30T06:32:04.000Z</time>
      </trkpt>
      <trkpt lat="47.83126" lon="7.06557">
        <ele>489.39999389648</ele>
        <time>2021-05-30T06:32:05.000Z</time>
      </trkpt>
      <trkpt lat="47.83125" lon="7.06555">
        <ele>489.79998779297</ele>
        <time>2021-05-30T06:32:06.000Z</time>
      </trkpt>
      <trkpt lat="47.83124" lon="7.06552">
        <ele>490.20001220703</ele>
        <time>2021-05-30T06:32:07.000Z</time>
      </trkpt>
      <trkpt lat="47.83123" lon="7.0655">
        <ele>490.79998779297</ele>
        <time>2021-05-30T06:32:08.000Z</time>
      </trkpt>
      <trkpt lat="47.83122" lon="7.06547">
        <ele>491.20001220703</ele>
        <time>2021-05-30T06:32:09.000Z</time>
      </trkpt>
      <trkpt lat="47.8312" lon="7.06544">
        <ele>491.60000610352</ele>
        <time>2021-05-30T06:32:10.000Z</time>
      </trkpt>
      <trkpt lat="47.83119" lon="7.06542">
        <ele>492.20001220703</ele>
        <time>2021-05-30T06:32:11.000Z</time>
      </trkpt>
      <trkpt lat="47.83117" lon="7.06537">
        <ele>492.20001220703</ele>
        <time>2021-05-30T06:32:13.000Z</time>
      </trkpt>
      <trkpt lat="47.83116" lon="7.06535">
        <ele>492.20001220703</ele>
        <time>2021-05-30T06:32:14.000Z</time>
      </trkpt>
      <trkpt lat="47.83115" lon="7.06533">
        <ele>492.60000610352</ele>
        <time>2021-05-30T06:32:15.000Z</time>
      </trkpt>
      <trkpt lat="47.83114" lon="7.06531">
        <ele>493</ele>
        <time>2021-05-30T06:32:16.000Z</time>
      </trkpt>
      <trkpt lat="47.83112" lon="7.0653">
        <ele>493.60000610352</ele>
        <time>2021-05-30T06:32:17.000Z</time>
      </trkpt>
      <trkpt lat="47.83111" lon="7.06528">
        <ele>494</ele>
        <time>2021-05-30T06:32:18.000Z</time>
      </trkpt>
      <trkpt lat="47.83109" lon="7.06527">
        <ele>494.39999389648</ele>
        <time>2021-05-30T06:32:19.000Z</time>
      </trkpt>
      <trkpt lat="47.83107" lon="7.06526">
        <ele>494.79998779297</ele>
        <time>2021-05-30T06:32:20.000Z</time>
      </trkpt>
      <trkpt lat="47.83105" lon="7.06523">
        <ele>495.20001220703</ele>
        <time>2021-05-30T06:32:21.000Z</time>
      </trkpt>
      <trkpt lat="47.83104" lon="7.06522">
        <ele>495.60000610352</ele>
        <time>2021-05-30T06:32:22.000Z</time>
      </trkpt>
      <trkpt lat="47.83102" lon="7.0652">
        <ele>496</ele>
        <time>2021-05-30T06:32:23.000Z</time>
      </trkpt>
      <trkpt lat="47.83101" lon="7.06519">
        <ele>496.39999389648</ele>
        <time>2021-05-30T06:32:24.000Z</time>
      </trkpt>
      <trkpt lat="47.83099" lon="7.06516">
        <ele>497</ele>
        <time>2021-05-30T06:32:26.000Z</time>
      </trkpt>
      <trkpt lat="47.83097" lon="7.06514">
        <ele>497.39999389648</ele>
        <time>2021-05-30T06:32:27.000Z</time>
      </trkpt>
      <trkpt lat="47.83095" lon="7.0651">
        <ele>497.79998779297</ele>
        <time>2021-05-30T06:32:28.000Z</time>
      </trkpt>
      <trkpt lat="47.83093" lon="7.06507">
        <ele>498.39999389648</ele>
        <time>2021-05-30T06:32:29.000Z</time>
      </trkpt>
      <trkpt lat="47.8309" lon="7.06503">
        <ele>498.79998779297</ele>
        <time>2021-05-30T06:32:30.000Z</time>
      </trkpt>
      <trkpt lat="47.83088" lon="7.06494">
        <ele>499.20001220703</ele>
        <time>2021-05-30T06:32:33.000Z</time>
      </trkpt>
      <trkpt lat="47.83088" lon="7.06492">
        <ele>499.60000610352</ele>
        <time>2021-05-30T06:32:34.000Z</time>
      </trkpt>
      <trkpt lat="47.83088" lon="7.06489">
        <ele>500.20001220703</ele>
        <time>2021-05-30T06:32:35.000Z</time>
      </trkpt>
      <trkpt lat="47.83087" lon="7.06487">
        <ele>500.60000610352</ele>
        <time>2021-05-30T06:32:36.000Z</time>
      </trkpt>
      <trkpt lat="47.83087" lon="7.06483">
        <ele>501</ele>
        <time>2021-05-30T06:32:37.000Z</time>
      </trkpt>
      <trkpt lat="47.83087" lon="7.06481">
        <ele>501.39999389648</ele>
        <time>2021-05-30T06:32:38.000Z</time>
      </trkpt>
      <trkpt lat="47.83087" lon="7.06478">
        <ele>502</ele>
        <time>2021-05-30T06:32:39.000Z</time>
      </trkpt>
      <trkpt lat="47.83086" lon="7.06476">
        <ele>502.39999389648</ele>
        <time>2021-05-30T06:32:40.000Z</time>
      </trkpt>
      <trkpt lat="47.83086" lon="7.06474">
        <ele>502.79998779297</ele>
        <time>2021-05-30T06:32:41.000Z</time>
      </trkpt>
      <trkpt lat="47.83085" lon="7.06471">
        <ele>503.20001220703</ele>
        <time>2021-05-30T06:32:42.000Z</time>
      </trkpt>
      <trkpt lat="47.83083" lon="7.06466">
        <ele>504</ele>
        <time>2021-05-30T06:32:44.000Z</time>
      </trkpt>
      <trkpt lat="47.83083" lon="7.06463">
        <ele>504.39999389648</ele>
        <time>2021-05-30T06:32:45.000Z</time>
      </trkpt>
      <trkpt lat="47.83083" lon="7.06459">
        <ele>504.79998779297</ele>
        <time>2021-05-30T06:32:46.000Z</time>
      </trkpt>
      <trkpt lat="47.83083" lon="7.06456">
        <ele>505.39999389648</ele>
        <time>2021-05-30T06:32:47.000Z</time>
      </trkpt>
      <trkpt lat="47.83082" lon="7.06446">
        <ele>505.39999389648</ele>
        <time>2021-05-30T06:32:50.000Z</time>
      </trkpt>
      <trkpt lat="47.83082" lon="7.06443">
        <ele>505.79998779297</ele>
        <time>2021-05-30T06:32:51.000Z</time>
      </trkpt>
      <trkpt lat="47.83082" lon="7.0644">
        <ele>506.20001220703</ele>
        <time>2021-05-30T06:32:52.000Z</time>
      </trkpt>
      <trkpt lat="47.83083" lon="7.06438">
        <ele>506.60000610352</ele>
        <time>2021-05-30T06:32:53.000Z</time>
      </trkpt>
      <trkpt lat="47.83084" lon="7.06437">
        <ele>507</ele>
        <time>2021-05-30T06:32:54.000Z</time>
      </trkpt>
      <trkpt lat="47.83084" lon="7.06434">
        <ele>507.39999389648</ele>
        <time>2021-05-30T06:32:55.000Z</time>
      </trkpt>
      <trkpt lat="47.83085" lon="7.06426">
        <ele>507.79998779297</ele>
        <time>2021-05-30T06:32:58.000Z</time>
      </trkpt>
      <trkpt lat="47.83085" lon="7.06423">
        <ele>508.39999389648</ele>
        <time>2021-05-30T06:32:59.000Z</time>
      </trkpt>
      <trkpt lat="47.83084" lon="7.06421">
        <ele>508.79998779297</ele>
        <time>2021-05-30T06:33:00.000Z</time>
      </trkpt>
      <trkpt lat="47.83083" lon="7.06419">
        <ele>509.20001220703</ele>
        <time>2021-05-30T06:33:01.000Z</time>
      </trkpt>
      <trkpt lat="47.83083" lon="7.06418">
        <ele>509.60000610352</ele>
        <time>2021-05-30T06:33:02.000Z</time>
      </trkpt>
      <trkpt lat="47.83082" lon="7.06415">
        <ele>509.60000610352</ele>
        <time>2021-05-30T06:33:04.000Z</time>
      </trkpt>
      <trkpt lat="47.8308" lon="7.06414">
        <ele>510</ele>
        <time>2021-05-30T06:33:05.000Z</time>
      </trkpt>
      <trkpt lat="47.83083" lon="7.0642">
        <ele>511.79998779297</ele>
        <time>2021-05-30T06:33:29.000Z</time>
      </trkpt>
      <trkpt lat="47.83086" lon="7.06423">
        <ele>512.20001220703</ele>
        <time>2021-05-30T06:33:31.000Z</time>
      </trkpt>
      <trkpt lat="47.83088" lon="7.06425">
        <ele>512.59997558594</ele>
        <time>2021-05-30T06:33:32.000Z</time>
      </trkpt>
      <trkpt lat="47.8309" lon="7.06426">
        <ele>513.40002441406</ele>
        <time>2021-05-30T06:33:33.000Z</time>
      </trkpt>
      <trkpt lat="47.83092" lon="7.06428">
        <ele>513.79998779297</ele>
        <time>2021-05-30T06:33:34.000Z</time>
      </trkpt>
      <trkpt lat="47.83101" lon="7.06436">
        <ele>514.20001220703</ele>
        <time>2021-05-30T06:33:39.000Z</time>
      </trkpt>
      <trkpt lat="47.83103" lon="7.06437">
        <ele>514.59997558594</ele>
        <time>2021-05-30T06:33:40.000Z</time>
      </trkpt>
      <trkpt lat="47.83105" lon="7.06438">
        <ele>515</ele>
        <time>2021-05-30T06:33:41.000Z</time>
      </trkpt>
      <trkpt lat="47.83107" lon="7.06438">
        <ele>515.59997558594</ele>
        <time>2021-05-30T06:33:42.000Z</time>
      </trkpt>
      <trkpt lat="47.83108" lon="7.0644">
        <ele>516</ele>
        <time>2021-05-30T06:33:43.000Z</time>
      </trkpt>
      <trkpt lat="47.83112" lon="7.06443">
        <ele>516.40002441406</ele>
        <time>2021-05-30T06:33:46.000Z</time>
      </trkpt>
      <trkpt lat="47.83114" lon="7.06444">
        <ele>516.79998779297</ele>
        <time>2021-05-30T06:33:47.000Z</time>
      </trkpt>
      <trkpt lat="47.83116" lon="7.06446">
        <ele>517.20001220703</ele>
        <time>2021-05-30T06:33:48.000Z</time>
      </trkpt>
      <trkpt lat="47.83118" lon="7.06448">
        <ele>517.79998779297</ele>
        <time>2021-05-30T06:33:49.000Z</time>
      </trkpt>
      <trkpt lat="47.8312" lon="7.0645">
        <ele>518.20001220703</ele>
        <time>2021-05-30T06:33:50.000Z</time>
      </trkpt>
      <trkpt lat="47.83124" lon="7.06453">
        <ele>518.59997558594</ele>
        <time>2021-05-30T06:33:52.000Z</time>
      </trkpt>
      <trkpt lat="47.83125" lon="7.06455">
        <ele>519</ele>
        <time>2021-05-30T06:33:53.000Z</time>
      </trkpt>
      <trkpt lat="47.83126" lon="7.06456">
        <ele>519.40002441406</ele>
        <time>2021-05-30T06:33:54.000Z</time>
      </trkpt>
      <trkpt lat="47.83126" lon="7.06456">
        <ele>519.79998779297</ele>
        <time>2021-05-30T06:33:55.000Z</time>
      </trkpt>
      <trkpt lat="47.83127" lon="7.06457">
        <ele>520.20001220703</ele>
        <time>2021-05-30T06:33:56.000Z</time>
      </trkpt>
      <trkpt lat="47.83132" lon="7.0646">
        <ele>520.79998779297</ele>
        <time>2021-05-30T06:33:59.000Z</time>
      </trkpt>
      <trkpt lat="47.83133" lon="7.06461">
        <ele>521.20001220703</ele>
        <time>2021-05-30T06:34:00.000Z</time>
      </trkpt>
      <trkpt lat="47.83134" lon="7.06461">
        <ele>521.59997558594</ele>
        <time>2021-05-30T06:34:01.000Z</time>
      </trkpt>
      <trkpt lat="47.83136" lon="7.06462">
        <ele>522</ele>
        <time>2021-05-30T06:34:02.000Z</time>
      </trkpt>
      <trkpt lat="47.83138" lon="7.06463">
        <ele>522.40002441406</ele>
        <time>2021-05-30T06:34:03.000Z</time>
      </trkpt>
      <trkpt lat="47.83146" lon="7.06469">
        <ele>522.79998779297</ele>
        <time>2021-05-30T06:34:07.000Z</time>
      </trkpt>
      <trkpt lat="47.83149" lon="7.06471">
        <ele>523.20001220703</ele>
        <time>2021-05-30T06:34:08.000Z</time>
      </trkpt>
      <trkpt lat="47.83152" lon="7.06472">
        <ele>523.59997558594</ele>
        <time>2021-05-30T06:34:09.000Z</time>
      </trkpt>
      <trkpt lat="47.83154" lon="7.06472">
        <ele>524</ele>
        <time>2021-05-30T06:34:10.000Z</time>
      </trkpt>
      <trkpt lat="47.83156" lon="7.06472">
        <ele>524.40002441406</ele>
        <time>2021-05-30T06:34:11.000Z</time>
      </trkpt>
      <trkpt lat="47.83157" lon="7.0647">
        <ele>524.79998779297</ele>
        <time>2021-05-30T06:34:13.000Z</time>
      </trkpt>
      <trkpt lat="47.83157" lon="7.06469">
        <ele>525.20001220703</ele>
        <time>2021-05-30T06:34:14.000Z</time>
      </trkpt>
      <trkpt lat="47.83157" lon="7.06468">
        <ele>525.59997558594</ele>
        <time>2021-05-30T06:34:15.000Z</time>
      </trkpt>
      <trkpt lat="47.83157" lon="7.06468">
        <ele>526</ele>
        <time>2021-05-30T06:34:16.000Z</time>
      </trkpt>
      <trkpt lat="47.83146" lon="7.0644">
        <ele>530.40002441406</ele>
        <time>2021-05-30T06:34:42.000Z</time>
      </trkpt>
      <trkpt lat="47.83148" lon="7.06441">
        <ele>530.79998779297</ele>
        <time>2021-05-30T06:34:43.000Z</time>
      </trkpt>
      <trkpt lat="47.83153" lon="7.06443">
        <ele>530.79998779297</ele>
        <time>2021-05-30T06:34:47.000Z</time>
      </trkpt>
      <trkpt lat="47.83153" lon="7.06443">
        <ele>530.79998779297</ele>
        <time>2021-05-30T06:34:49.000Z</time>
      </trkpt>
      <trkpt lat="47.83156" lon="7.06445">
        <ele>530.79998779297</ele>
        <time>2021-05-30T06:34:53.000Z</time>
      </trkpt>
      <trkpt lat="47.83154" lon="7.06439">
        <ele>532.40002441406</ele>
        <time>2021-05-30T06:35:15.000Z</time>
      </trkpt>
      <trkpt lat="47.83153" lon="7.06436">
        <ele>532.79998779297</ele>
        <time>2021-05-30T06:35:16.000Z</time>
      </trkpt>
      <trkpt lat="47.83153" lon="7.06433">
        <ele>533.20001220703</ele>
        <time>2021-05-30T06:35:17.000Z</time>
      </trkpt>
      <trkpt lat="47.83152" lon="7.0643">
        <ele>533.59997558594</ele>
        <time>2021-05-30T06:35:18.000Z</time>
      </trkpt>
      <trkpt lat="47.83152" lon="7.06428">
        <ele>534</ele>
        <time>2021-05-30T06:35:19.000Z</time>
      </trkpt>
      <trkpt lat="47.83152" lon="7.06425">
        <ele>534.59997558594</ele>
        <time>2021-05-30T06:35:20.000Z</time>
      </trkpt>
      <trkpt lat="47.83151" lon="7.06422">
        <ele>535</ele>
        <time>2021-05-30T06:35:21.000Z</time>
      </trkpt>
      <trkpt lat="47.83152" lon="7.06414">
        <ele>535.40002441406</ele>
        <time>2021-05-30T06:35:23.000Z</time>
      </trkpt>
      <trkpt lat="47.8315" lon="7.0641">
        <ele>535.79998779297</ele>
        <time>2021-05-30T06:35:24.000Z</time>
      </trkpt>
      <trkpt lat="47.83149" lon="7.06406">
        <ele>536.20001220703</ele>
        <time>2021-05-30T06:35:25.000Z</time>
      </trkpt>
      <trkpt lat="47.83148" lon="7.06403">
        <ele>536.79998779297</ele>
        <time>2021-05-30T06:35:26.000Z</time>
      </trkpt>
      <trkpt lat="47.83148" lon="7.064">
        <ele>537.20001220703</ele>
        <time>2021-05-30T06:35:27.000Z</time>
      </trkpt>
      <trkpt lat="47.83148" lon="7.06398">
        <ele>537.79998779297</ele>
        <time>2021-05-30T06:35:28.000Z</time>
      </trkpt>
      <trkpt lat="47.83149" lon="7.06396">
        <ele>538.20001220703</ele>
        <time>2021-05-30T06:35:29.000Z</time>
      </trkpt>
      <trkpt lat="47.8315" lon="7.06395">
        <ele>538.79998779297</ele>
        <time>2021-05-30T06:35:30.000Z</time>
      </trkpt>
      <trkpt lat="47.83151" lon="7.06393">
        <ele>539.20001220703</ele>
        <time>2021-05-30T06:35:31.000Z</time>
      </trkpt>
      <trkpt lat="47.83153" lon="7.0639">
        <ele>539.79998779297</ele>
        <time>2021-05-30T06:35:32.000Z</time>
      </trkpt>
      <trkpt lat="47.83154" lon="7.06387">
        <ele>540.40002441406</ele>
        <time>2021-05-30T06:35:33.000Z</time>
      </trkpt>
      <trkpt lat="47.83156" lon="7.06384">
        <ele>541</ele>
        <time>2021-05-30T06:35:34.000Z</time>
      </trkpt>
      <trkpt lat="47.83156" lon="7.06381">
        <ele>541.59997558594</ele>
        <time>2021-05-30T06:35:35.000Z</time>
      </trkpt>
      <trkpt lat="47.83157" lon="7.06378">
        <ele>542.40002441406</ele>
        <time>2021-05-30T06:35:36.000Z</time>
      </trkpt>
      <trkpt lat="47.83158" lon="7.06375">
        <ele>543.59997558594</ele>
        <time>2021-05-30T06:35:37.000Z</time>
      </trkpt>
      <trkpt lat="47.83158" lon="7.06373">
        <ele>544.20001220703</ele>
        <time>2021-05-30T06:35:38.000Z</time>
      </trkpt>
      <trkpt lat="47.83158" lon="7.06372">
        <ele>544.79998779297</ele>
        <time>2021-05-30T06:35:39.000Z</time>
      </trkpt>
      <trkpt lat="47.83159" lon="7.0637">
        <ele>545.59997558594</ele>
        <time>2021-05-30T06:35:40.000Z</time>
      </trkpt>
      <trkpt lat="47.8316" lon="7.06368">
        <ele>546.20001220703</ele>
        <time>2021-05-30T06:35:41.000Z</time>
      </trkpt>
      <trkpt lat="47.83161" lon="7.06364">
        <ele>546.79998779297</ele>
        <time>2021-05-30T06:35:42.000Z</time>
      </trkpt>
      <trkpt lat="47.83161" lon="7.06363">
        <ele>547.40002441406</ele>
        <time>2021-05-30T06:35:43.000Z</time>
      </trkpt>
      <trkpt lat="47.83161" lon="7.06347">
        <ele>550.59997558594</ele>
        <time>2021-05-30T06:36:17.000Z</time>
      </trkpt>
      <trkpt lat="47.83161" lon="7.06345">
        <ele>550.59997558594</ele>
        <time>2021-05-30T06:36:18.000Z</time>
      </trkpt>
      <trkpt lat="47.83161" lon="7.06332">
        <ele>550.59997558594</ele>
        <time>2021-05-30T06:36:23.000Z</time>
      </trkpt>
      <trkpt lat="47.83163" lon="7.06326">
        <ele>550.59997558594</ele>
        <time>2021-05-30T06:36:25.000Z</time>
      </trkpt>
      <trkpt lat="47.83164" lon="7.06321">
        <ele>551.59997558594</ele>
        <time>2021-05-30T06:36:27.000Z</time>
      </trkpt>
      <trkpt lat="47.83164" lon="7.06317">
        <ele>552</ele>
        <time>2021-05-30T06:36:28.000Z</time>
      </trkpt>
      <trkpt lat="47.83164" lon="7.06314">
        <ele>552.40002441406</ele>
        <time>2021-05-30T06:36:29.000Z</time>
      </trkpt>
      <trkpt lat="47.83163" lon="7.06311">
        <ele>552.79998779297</ele>
        <time>2021-05-30T06:36:30.000Z</time>
      </trkpt>
      <trkpt lat="47.83164" lon="7.06307">
        <ele>552.79998779297</ele>
        <time>2021-05-30T06:36:31.000Z</time>
      </trkpt>
      <trkpt lat="47.83162" lon="7.06304">
        <ele>552.79998779297</ele>
        <time>2021-05-30T06:36:32.000Z</time>
      </trkpt>
      <trkpt lat="47.83161" lon="7.06301">
        <ele>553.20001220703</ele>
        <time>2021-05-30T06:36:33.000Z</time>
      </trkpt>
      <trkpt lat="47.83159" lon="7.06298">
        <ele>553.59997558594</ele>
        <time>2021-05-30T06:36:34.000Z</time>
      </trkpt>
      <trkpt lat="47.83158" lon="7.06296">
        <ele>554.20001220703</ele>
        <time>2021-05-30T06:36:35.000Z</time>
      </trkpt>
      <trkpt lat="47.83157" lon="7.06293">
        <ele>554.59997558594</ele>
        <time>2021-05-30T06:36:36.000Z</time>
      </trkpt>
      <trkpt lat="47.83157" lon="7.06289">
        <ele>555</ele>
        <time>2021-05-30T06:36:37.000Z</time>
      </trkpt>
      <trkpt lat="47.83156" lon="7.06279">
        <ele>555</ele>
        <time>2021-05-30T06:36:40.000Z</time>
      </trkpt>
      <trkpt lat="47.83156" lon="7.06274">
        <ele>555.40002441406</ele>
        <time>2021-05-30T06:36:42.000Z</time>
      </trkpt>
      <trkpt lat="47.83157" lon="7.06271">
        <ele>555.79998779297</ele>
        <time>2021-05-30T06:36:43.000Z</time>
      </trkpt>
      <trkpt lat="47.83157" lon="7.06268">
        <ele>556.20001220703</ele>
        <time>2021-05-30T06:36:44.000Z</time>
      </trkpt>
      <trkpt lat="47.83158" lon="7.06266">
        <ele>556.59997558594</ele>
        <time>2021-05-30T06:36:45.000Z</time>
      </trkpt>
      <trkpt lat="47.83158" lon="7.06263">
        <ele>557.20001220703</ele>
        <time>2021-05-30T06:36:46.000Z</time>
      </trkpt>
      <trkpt lat="47.83158" lon="7.06252">
        <ele>557.59997558594</ele>
        <time>2021-05-30T06:36:49.000Z</time>
      </trkpt>
      <trkpt lat="47.83158" lon="7.06249">
        <ele>558</ele>
        <time>2021-05-30T06:36:50.000Z</time>
      </trkpt>
      <trkpt lat="47.83158" lon="7.06246">
        <ele>558.79998779297</ele>
        <time>2021-05-30T06:36:51.000Z</time>
      </trkpt>
      <trkpt lat="47.83158" lon="7.06244">
        <ele>559.20001220703</ele>
        <time>2021-05-30T06:36:52.000Z</time>
      </trkpt>
      <trkpt lat="47.83158" lon="7.06243">
        <ele>559.20001220703</ele>
        <time>2021-05-30T06:36:53.000Z</time>
      </trkpt>
      <trkpt lat="47.8316" lon="7.06237">
        <ele>559.20001220703</ele>
        <time>2021-05-30T06:36:56.000Z</time>
      </trkpt>
      <trkpt lat="47.83161" lon="7.06232">
        <ele>559.20001220703</ele>
        <time>2021-05-30T06:36:58.000Z</time>
      </trkpt>
      <trkpt lat="47.83161" lon="7.06225">
        <ele>559.59997558594</ele>
        <time>2021-05-30T06:37:01.000Z</time>
      </trkpt>
      <trkpt lat="47.83161" lon="7.06223">
        <ele>560</ele>
        <time>2021-05-30T06:37:02.000Z</time>
      </trkpt>
      <trkpt lat="47.8316" lon="7.0622">
        <ele>560.40002441406</ele>
        <time>2021-05-30T06:37:03.000Z</time>
      </trkpt>
      <trkpt lat="47.83161" lon="7.06218">
        <ele>561</ele>
        <time>2021-05-30T06:37:04.000Z</time>
      </trkpt>
      <trkpt lat="47.83161" lon="7.06218">
        <ele>561.40002441406</ele>
        <time>2021-05-30T06:37:05.000Z</time>
      </trkpt>
      <trkpt lat="47.83161" lon="7.06214">
        <ele>561.40002441406</ele>
        <time>2021-05-30T06:37:07.000Z</time>
      </trkpt>
      <trkpt lat="47.83159" lon="7.06208">
        <ele>561.79998779297</ele>
        <time>2021-05-30T06:37:09.000Z</time>
      </trkpt>
      <trkpt lat="47.83158" lon="7.06204">
        <ele>562.20001220703</ele>
        <time>2021-05-30T06:37:10.000Z</time>
      </trkpt>
      <trkpt lat="47.83158" lon="7.06201">
        <ele>562.59997558594</ele>
        <time>2021-05-30T06:37:11.000Z</time>
      </trkpt>
      <trkpt lat="47.83158" lon="7.06198">
        <ele>563</ele>
        <time>2021-05-30T06:37:12.000Z</time>
      </trkpt>
      <trkpt lat="47.83158" lon="7.06194">
        <ele>563.40002441406</ele>
        <time>2021-05-30T06:37:13.000Z</time>
      </trkpt>
      <trkpt lat="47.83156" lon="7.0619">
        <ele>563.40002441406</ele>
        <time>2021-05-30T06:37:14.000Z</time>
      </trkpt>
      <trkpt lat="47.83153" lon="7.06181">
        <ele>564.20001220703</ele>
        <time>2021-05-30T06:37:16.000Z</time>
      </trkpt>
      <trkpt lat="47.83152" lon="7.06176">
        <ele>564.79998779297</ele>
        <time>2021-05-30T06:37:17.000Z</time>
      </trkpt>
      <trkpt lat="47.8315" lon="7.06172">
        <ele>565.20001220703</ele>
        <time>2021-05-30T06:37:18.000Z</time>
      </trkpt>
      <trkpt lat="47.83149" lon="7.06168">
        <ele>565.59997558594</ele>
        <time>2021-05-30T06:37:19.000Z</time>
      </trkpt>
      <trkpt lat="47.83144" lon="7.06153">
        <ele>565.59997558594</ele>
        <time>2021-05-30T06:37:24.000Z</time>
      </trkpt>
      <trkpt lat="47.83143" lon="7.0615">
        <ele>566</ele>
        <time>2021-05-30T06:37:25.000Z</time>
      </trkpt>
      <trkpt lat="47.83143" lon="7.06148">
        <ele>566.40002441406</ele>
        <time>2021-05-30T06:37:26.000Z</time>
      </trkpt>
      <trkpt lat="47.83142" lon="7.06145">
        <ele>566.79998779297</ele>
        <time>2021-05-30T06:37:27.000Z</time>
      </trkpt>
      <trkpt lat="47.83142" lon="7.06142">
        <ele>567.20001220703</ele>
        <time>2021-05-30T06:37:28.000Z</time>
      </trkpt>
      <trkpt lat="47.83142" lon="7.0614">
        <ele>567.59997558594</ele>
        <time>2021-05-30T06:37:29.000Z</time>
      </trkpt>
      <trkpt lat="47.83143" lon="7.06138">
        <ele>567.59997558594</ele>
        <time>2021-05-30T06:37:30.000Z</time>
      </trkpt>
      <trkpt lat="47.83142" lon="7.06131">
        <ele>568</ele>
        <time>2021-05-30T06:37:33.000Z</time>
      </trkpt>
      <trkpt lat="47.83142" lon="7.06128">
        <ele>568.40002441406</ele>
        <time>2021-05-30T06:37:34.000Z</time>
      </trkpt>
      <trkpt lat="47.83142" lon="7.06126">
        <ele>568.79998779297</ele>
        <time>2021-05-30T06:37:35.000Z</time>
      </trkpt>
      <trkpt lat="47.83142" lon="7.06125">
        <ele>569.20001220703</ele>
        <time>2021-05-30T06:37:36.000Z</time>
      </trkpt>
      <trkpt lat="47.83141" lon="7.06123">
        <ele>569.59997558594</ele>
        <time>2021-05-30T06:37:37.000Z</time>
      </trkpt>
      <trkpt lat="47.83138" lon="7.06111">
        <ele>570.59997558594</ele>
        <time>2021-05-30T06:37:41.000Z</time>
      </trkpt>
      <trkpt lat="47.83137" lon="7.06109">
        <ele>571</ele>
        <time>2021-05-30T06:37:42.000Z</time>
      </trkpt>
      <trkpt lat="47.83137" lon="7.06105">
        <ele>571.40002441406</ele>
        <time>2021-05-30T06:37:43.000Z</time>
      </trkpt>
      <trkpt lat="47.83136" lon="7.06102">
        <ele>571.79998779297</ele>
        <time>2021-05-30T06:37:44.000Z</time>
      </trkpt>
      <trkpt lat="47.83135" lon="7.061">
        <ele>571.79998779297</ele>
        <time>2021-05-30T06:37:45.000Z</time>
      </trkpt>
      <trkpt lat="47.83128" lon="7.06087">
        <ele>572.20001220703</ele>
        <time>2021-05-30T06:37:49.000Z</time>
      </trkpt>
      <trkpt lat="47.83127" lon="7.06084">
        <ele>572.79998779297</ele>
        <time>2021-05-30T06:37:50.000Z</time>
      </trkpt>
      <trkpt lat="47.83126" lon="7.06081">
        <ele>573.20001220703</ele>
        <time>2021-05-30T06:37:51.000Z</time>
      </trkpt>
      <trkpt lat="47.83125" lon="7.06078">
        <ele>573.59997558594</ele>
        <time>2021-05-30T06:37:52.000Z</time>
      </trkpt>
      <trkpt lat="47.83125" lon="7.06075">
        <ele>574</ele>
        <time>2021-05-30T06:37:53.000Z</time>
      </trkpt>
      <trkpt lat="47.83123" lon="7.06069">
        <ele>574</ele>
        <time>2021-05-30T06:37:55.000Z</time>
      </trkpt>
      <trkpt lat="47.83123" lon="7.06062">
        <ele>574</ele>
        <time>2021-05-30T06:37:58.000Z</time>
      </trkpt>
      <trkpt lat="47.83123" lon="7.0606">
        <ele>574.40002441406</ele>
        <time>2021-05-30T06:37:59.000Z</time>
      </trkpt>
      <trkpt lat="47.83123" lon="7.06057">
        <ele>574.79998779297</ele>
        <time>2021-05-30T06:38:00.000Z</time>
      </trkpt>
      <trkpt lat="47.83122" lon="7.06055">
        <ele>575.20001220703</ele>
        <time>2021-05-30T06:38:01.000Z</time>
      </trkpt>
      <trkpt lat="47.83122" lon="7.06053">
        <ele>575.59997558594</ele>
        <time>2021-05-30T06:38:02.000Z</time>
      </trkpt>
      <trkpt lat="47.83122" lon="7.0605">
        <ele>576.20001220703</ele>
        <time>2021-05-30T06:38:03.000Z</time>
      </trkpt>
      <trkpt lat="47.83122" lon="7.06047">
        <ele>576.20001220703</ele>
        <time>2021-05-30T06:38:04.000Z</time>
      </trkpt>
      <trkpt lat="47.83121" lon="7.06043">
        <ele>576.20001220703</ele>
        <time>2021-05-30T06:38:05.000Z</time>
      </trkpt>
      <trkpt lat="47.83118" lon="7.06038">
        <ele>576.59997558594</ele>
        <time>2021-05-30T06:38:07.000Z</time>
      </trkpt>
      <trkpt lat="47.83117" lon="7.06034">
        <ele>577</ele>
        <time>2021-05-30T06:38:08.000Z</time>
      </trkpt>
      <trkpt lat="47.83117" lon="7.06032">
        <ele>577.40002441406</ele>
        <time>2021-05-30T06:38:09.000Z</time>
      </trkpt>
      <trkpt lat="47.83116" lon="7.06029">
        <ele>577.79998779297</ele>
        <time>2021-05-30T06:38:10.000Z</time>
      </trkpt>
      <trkpt lat="47.83116" lon="7.06027">
        <ele>578.20001220703</ele>
        <time>2021-05-30T06:38:11.000Z</time>
      </trkpt>
      <trkpt lat="47.83116" lon="7.06022">
        <ele>578.20001220703</ele>
        <time>2021-05-30T06:38:13.000Z</time>
      </trkpt>
      <trkpt lat="47.83115" lon="7.06014">
        <ele>578.20001220703</ele>
        <time>2021-05-30T06:38:16.000Z</time>
      </trkpt>
      <trkpt lat="47.83118" lon="7.06009">
        <ele>578.20001220703</ele>
        <time>2021-05-30T06:38:18.000Z</time>
      </trkpt>
      <trkpt lat="47.8312" lon="7.06007">
        <ele>578.59997558594</ele>
        <time>2021-05-30T06:38:19.000Z</time>
      </trkpt>
      <trkpt lat="47.83122" lon="7.06005">
        <ele>579</ele>
        <time>2021-05-30T06:38:20.000Z</time>
      </trkpt>
      <trkpt lat="47.83124" lon="7.06003">
        <ele>579.40002441406</ele>
        <time>2021-05-30T06:38:21.000Z</time>
      </trkpt>
      <trkpt lat="47.83125" lon="7.06002">
        <ele>580</ele>
        <time>2021-05-30T06:38:22.000Z</time>
      </trkpt>
      <trkpt lat="47.83127" lon="7.06">
        <ele>580.40002441406</ele>
        <time>2021-05-30T06:38:23.000Z</time>
      </trkpt>
      <trkpt lat="47.83129" lon="7.05998">
        <ele>580.40002441406</ele>
        <time>2021-05-30T06:38:24.000Z</time>
      </trkpt>
      <trkpt lat="47.83138" lon="7.05992">
        <ele>581.20001220703</ele>
        <time>2021-05-30T06:38:30.000Z</time>
      </trkpt>
      <trkpt lat="47.83139" lon="7.05991">
        <ele>581.59997558594</ele>
        <time>2021-05-30T06:38:31.000Z</time>
      </trkpt>
      <trkpt lat="47.8314" lon="7.05991">
        <ele>582</ele>
        <time>2021-05-30T06:38:32.000Z</time>
      </trkpt>
      <trkpt lat="47.83141" lon="7.05991">
        <ele>582.40002441406</ele>
        <time>2021-05-30T06:38:33.000Z</time>
      </trkpt>
      <trkpt lat="47.83149" lon="7.05989">
        <ele>582.40002441406</ele>
        <time>2021-05-30T06:38:37.000Z</time>
      </trkpt>
      <trkpt lat="47.83151" lon="7.05989">
        <ele>582.79998779297</ele>
        <time>2021-05-30T06:38:38.000Z</time>
      </trkpt>
      <trkpt lat="47.83153" lon="7.0599">
        <ele>583.20001220703</ele>
        <time>2021-05-30T06:38:39.000Z</time>
      </trkpt>
      <trkpt lat="47.83153" lon="7.05989">
        <ele>583.59997558594</ele>
        <time>2021-05-30T06:38:40.000Z</time>
      </trkpt>
      <trkpt lat="47.83154" lon="7.05989">
        <ele>584</ele>
        <time>2021-05-30T06:38:41.000Z</time>
      </trkpt>
      <trkpt lat="47.83156" lon="7.05989">
        <ele>584.40002441406</ele>
        <time>2021-05-30T06:38:42.000Z</time>
      </trkpt>
      <trkpt lat="47.83163" lon="7.05987">
        <ele>585</ele>
        <time>2021-05-30T06:38:47.000Z</time>
      </trkpt>
      <trkpt lat="47.83164" lon="7.05988">
        <ele>585.40002441406</ele>
        <time>2021-05-30T06:38:48.000Z</time>
      </trkpt>
      <trkpt lat="47.83166" lon="7.05987">
        <ele>585.79998779297</ele>
        <time>2021-05-30T06:38:49.000Z</time>
      </trkpt>
      <trkpt lat="47.83166" lon="7.05987">
        <ele>586.20001220703</ele>
        <time>2021-05-30T06:38:50.000Z</time>
      </trkpt>
      <trkpt lat="47.83205" lon="7.05948">
        <ele>594</ele>
        <time>2021-05-30T06:39:30.000Z</time>
      </trkpt>
      <trkpt lat="47.83206" lon="7.05945">
        <ele>594.40002441406</ele>
        <time>2021-05-30T06:39:31.000Z</time>
      </trkpt>
      <trkpt lat="47.83207" lon="7.05942">
        <ele>595</ele>
        <time>2021-05-30T06:39:32.000Z</time>
      </trkpt>
      <trkpt lat="47.83208" lon="7.05938">
        <ele>595.40002441406</ele>
        <time>2021-05-30T06:39:33.000Z</time>
      </trkpt>
      <trkpt lat="47.83213" lon="7.05923">
        <ele>595.40002441406</ele>
        <time>2021-05-30T06:39:38.000Z</time>
      </trkpt>
      <trkpt lat="47.83216" lon="7.05911">
        <ele>595.79998779297</ele>
        <time>2021-05-30T06:39:41.000Z</time>
      </trkpt>
      <trkpt lat="47.83217" lon="7.05909">
        <ele>596.20001220703</ele>
        <time>2021-05-30T06:39:42.000Z</time>
      </trkpt>
      <trkpt lat="47.83217" lon="7.05906">
        <ele>596.79998779297</ele>
        <time>2021-05-30T06:39:43.000Z</time>
      </trkpt>
      <trkpt lat="47.83218" lon="7.05903">
        <ele>597.59997558594</ele>
        <time>2021-05-30T06:39:44.000Z</time>
      </trkpt>
      <trkpt lat="47.83223" lon="7.05898">
        <ele>598</ele>
        <time>2021-05-30T06:39:46.000Z</time>
      </trkpt>
      <trkpt lat="47.83226" lon="7.05897">
        <ele>598.40002441406</ele>
        <time>2021-05-30T06:39:47.000Z</time>
      </trkpt>
      <trkpt lat="47.83228" lon="7.05896">
        <ele>598.79998779297</ele>
        <time>2021-05-30T06:39:48.000Z</time>
      </trkpt>
      <trkpt lat="47.8323" lon="7.05893">
        <ele>599.20001220703</ele>
        <time>2021-05-30T06:39:49.000Z</time>
      </trkpt>
      <trkpt lat="47.8323" lon="7.05889">
        <ele>599.79998779297</ele>
        <time>2021-05-30T06:39:50.000Z</time>
      </trkpt>
      <trkpt lat="47.83235" lon="7.0588">
        <ele>599.79998779297</ele>
        <time>2021-05-30T06:39:54.000Z</time>
      </trkpt>
      <trkpt lat="47.83238" lon="7.05875">
        <ele>600.20001220703</ele>
        <time>2021-05-30T06:39:56.000Z</time>
      </trkpt>
      <trkpt lat="47.83239" lon="7.05872">
        <ele>600.59997558594</ele>
        <time>2021-05-30T06:39:57.000Z</time>
      </trkpt>
      <trkpt lat="47.8324" lon="7.0587">
        <ele>601</ele>
        <time>2021-05-30T06:39:58.000Z</time>
      </trkpt>
      <trkpt lat="47.8324" lon="7.05866">
        <ele>601.40002441406</ele>
        <time>2021-05-30T06:39:59.000Z</time>
      </trkpt>
      <trkpt lat="47.8324" lon="7.05864">
        <ele>601.79998779297</ele>
        <time>2021-05-30T06:40:00.000Z</time>
      </trkpt>
      <trkpt lat="47.83242" lon="7.05851">
        <ele>602.20001220703</ele>
        <time>2021-05-30T06:40:05.000Z</time>
      </trkpt>
      <trkpt lat="47.83242" lon="7.05848">
        <ele>602.79998779297</ele>
        <time>2021-05-30T06:40:06.000Z</time>
      </trkpt>
      <trkpt lat="47.83243" lon="7.05847">
        <ele>603.20001220703</ele>
        <time>2021-05-30T06:40:07.000Z</time>
      </trkpt>
      <trkpt lat="47.83243" lon="7.05844">
        <ele>603.59997558594</ele>
        <time>2021-05-30T06:40:08.000Z</time>
      </trkpt>
      <trkpt lat="47.83243" lon="7.05841">
        <ele>604</ele>
        <time>2021-05-30T06:40:09.000Z</time>
      </trkpt>
      <trkpt lat="47.83244" lon="7.05838">
        <ele>604</ele>
        <time>2021-05-30T06:40:11.000Z</time>
      </trkpt>
      <trkpt lat="47.83245" lon="7.05836">
        <ele>604.59997558594</ele>
        <time>2021-05-30T06:40:12.000Z</time>
      </trkpt>
      <trkpt lat="47.83245" lon="7.05835">
        <ele>605</ele>
        <time>2021-05-30T06:40:13.000Z</time>
      </trkpt>
      <trkpt lat="47.83247" lon="7.05832">
        <ele>605.59997558594</ele>
        <time>2021-05-30T06:40:14.000Z</time>
      </trkpt>
      <trkpt lat="47.83249" lon="7.0583">
        <ele>606</ele>
        <time>2021-05-30T06:40:15.000Z</time>
      </trkpt>
      <trkpt lat="47.83251" lon="7.05828">
        <ele>606.59997558594</ele>
        <time>2021-05-30T06:40:16.000Z</time>
      </trkpt>
      <trkpt lat="47.83259" lon="7.05813">
        <ele>607</ele>
        <time>2021-05-30T06:40:23.000Z</time>
      </trkpt>
      <trkpt lat="47.83259" lon="7.05808">
        <ele>607.40002441406</ele>
        <time>2021-05-30T06:40:24.000Z</time>
      </trkpt>
      <trkpt lat="47.83259" lon="7.05805">
        <ele>607.79998779297</ele>
        <time>2021-05-30T06:40:25.000Z</time>
      </trkpt>
      <trkpt lat="47.8326" lon="7.05801">
        <ele>608.20001220703</ele>
        <time>2021-05-30T06:40:26.000Z</time>
      </trkpt>
      <trkpt lat="47.8326" lon="7.05797">
        <ele>608.59997558594</ele>
        <time>2021-05-30T06:40:27.000Z</time>
      </trkpt>
      <trkpt lat="47.8326" lon="7.05786">
        <ele>609</ele>
        <time>2021-05-30T06:40:31.000Z</time>
      </trkpt>
      <trkpt lat="47.83261" lon="7.05784">
        <ele>609.40002441406</ele>
        <time>2021-05-30T06:40:32.000Z</time>
      </trkpt>
      <trkpt lat="47.83261" lon="7.0578">
        <ele>609.79998779297</ele>
        <time>2021-05-30T06:40:33.000Z</time>
      </trkpt>
      <trkpt lat="47.83261" lon="7.05777">
        <ele>610.79998779297</ele>
        <time>2021-05-30T06:40:34.000Z</time>
      </trkpt>
      <trkpt lat="47.83263" lon="7.05767">
        <ele>611.20001220703</ele>
        <time>2021-05-30T06:40:38.000Z</time>
      </trkpt>
      <trkpt lat="47.83264" lon="7.05763">
        <ele>611.59997558594</ele>
        <time>2021-05-30T06:40:39.000Z</time>
      </trkpt>
      <trkpt lat="47.83264" lon="7.05759">
        <ele>612</ele>
        <time>2021-05-30T06:40:40.000Z</time>
      </trkpt>
      <trkpt lat="47.83264" lon="7.05757">
        <ele>612.40002441406</ele>
        <time>2021-05-30T06:40:41.000Z</time>
      </trkpt>
      <trkpt lat="47.83265" lon="7.05754">
        <ele>612.79998779297</ele>
        <time>2021-05-30T06:40:42.000Z</time>
      </trkpt>
      <trkpt lat="47.83267" lon="7.05747">
        <ele>612.79998779297</ele>
        <time>2021-05-30T06:40:44.000Z</time>
      </trkpt>
      <trkpt lat="47.83268" lon="7.05743">
        <ele>613.20001220703</ele>
        <time>2021-05-30T06:40:45.000Z</time>
      </trkpt>
      <trkpt lat="47.83269" lon="7.05739">
        <ele>613.59997558594</ele>
        <time>2021-05-30T06:40:46.000Z</time>
      </trkpt>
      <trkpt lat="47.8327" lon="7.05736">
        <ele>614.20001220703</ele>
        <time>2021-05-30T06:40:47.000Z</time>
      </trkpt>
      <trkpt lat="47.83271" lon="7.05733">
        <ele>614.59997558594</ele>
        <time>2021-05-30T06:40:48.000Z</time>
      </trkpt>
      <trkpt lat="47.83274" lon="7.05732">
        <ele>615</ele>
        <time>2021-05-30T06:40:49.000Z</time>
      </trkpt>
      <trkpt lat="47.83277" lon="7.05729">
        <ele>615</ele>
        <time>2021-05-30T06:40:51.000Z</time>
      </trkpt>
      <trkpt lat="47.83284" lon="7.05718">
        <ele>615.40002441406</ele>
        <time>2021-05-30T06:40:56.000Z</time>
      </trkpt>
      <trkpt lat="47.83285" lon="7.05715">
        <ele>615.79998779297</ele>
        <time>2021-05-30T06:40:57.000Z</time>
      </trkpt>
      <trkpt lat="47.83285" lon="7.05713">
        <ele>616.79998779297</ele>
        <time>2021-05-30T06:40:58.000Z</time>
      </trkpt>
      <trkpt lat="47.83286" lon="7.0571">
        <ele>617.20001220703</ele>
        <time>2021-05-30T06:40:59.000Z</time>
      </trkpt>
      <trkpt lat="47.83286" lon="7.05701">
        <ele>617.59997558594</ele>
        <time>2021-05-30T06:41:03.000Z</time>
      </trkpt>
      <trkpt lat="47.83287" lon="7.05698">
        <ele>618</ele>
        <time>2021-05-30T06:41:04.000Z</time>
      </trkpt>
      <trkpt lat="47.83287" lon="7.05696">
        <ele>618.40002441406</ele>
        <time>2021-05-30T06:41:05.000Z</time>
      </trkpt>
      <trkpt lat="47.83287" lon="7.05693">
        <ele>618.79998779297</ele>
        <time>2021-05-30T06:41:06.000Z</time>
      </trkpt>
      <trkpt lat="47.83287" lon="7.0569">
        <ele>619.20001220703</ele>
        <time>2021-05-30T06:41:07.000Z</time>
      </trkpt>
      <trkpt lat="47.83287" lon="7.05681">
        <ele>619.59997558594</ele>
        <time>2021-05-30T06:41:10.000Z</time>
      </trkpt>
      <trkpt lat="47.83287" lon="7.0568">
        <ele>620.20001220703</ele>
        <time>2021-05-30T06:41:11.000Z</time>
      </trkpt>
      <trkpt lat="47.83286" lon="7.05675">
        <ele>620.59997558594</ele>
        <time>2021-05-30T06:41:12.000Z</time>
      </trkpt>
      <trkpt lat="47.83287" lon="7.05672">
        <ele>621</ele>
        <time>2021-05-30T06:41:13.000Z</time>
      </trkpt>
      <trkpt lat="47.83287" lon="7.05669">
        <ele>621.59997558594</ele>
        <time>2021-05-30T06:41:14.000Z</time>
      </trkpt>
      <trkpt lat="47.83287" lon="7.05661">
        <ele>621.59997558594</ele>
        <time>2021-05-30T06:41:16.000Z</time>
      </trkpt>
      <trkpt lat="47.83289" lon="7.05655">
        <ele>622</ele>
        <time>2021-05-30T06:41:18.000Z</time>
      </trkpt>
      <trkpt lat="47.83289" lon="7.05652">
        <ele>622.40002441406</ele>
        <time>2021-05-30T06:41:19.000Z</time>
      </trkpt>
      <trkpt lat="47.83289" lon="7.05648">
        <ele>622.79998779297</ele>
        <time>2021-05-30T06:41:20.000Z</time>
      </trkpt>
      <trkpt lat="47.83289" lon="7.05645">
        <ele>623.20001220703</ele>
        <time>2021-05-30T06:41:21.000Z</time>
      </trkpt>
      <trkpt lat="47.83289" lon="7.05641">
        <ele>623.59997558594</ele>
        <time>2021-05-30T06:41:22.000Z</time>
      </trkpt>
      <trkpt lat="47.83289" lon="7.05638">
        <ele>623.59997558594</ele>
        <time>2021-05-30T06:41:23.000Z</time>
      </trkpt>
      <trkpt lat="47.8329" lon="7.0563">
        <ele>624</ele>
        <time>2021-05-30T06:41:26.000Z</time>
      </trkpt>
      <trkpt lat="47.83291" lon="7.05628">
        <ele>624.40002441406</ele>
        <time>2021-05-30T06:41:27.000Z</time>
      </trkpt>
      <trkpt lat="47.83293" lon="7.05625">
        <ele>624.79998779297</ele>
        <time>2021-05-30T06:41:28.000Z</time>
      </trkpt>
      <trkpt lat="47.83293" lon="7.05622">
        <ele>625.20001220703</ele>
        <time>2021-05-30T06:41:29.000Z</time>
      </trkpt>
      <trkpt lat="47.83295" lon="7.0562">
        <ele>625.59997558594</ele>
        <time>2021-05-30T06:41:30.000Z</time>
      </trkpt>
      <trkpt lat="47.83289" lon="7.05601">
        <ele>625.59997558594</ele>
        <time>2021-05-30T06:41:36.000Z</time>
      </trkpt>
      <trkpt lat="47.83287" lon="7.05594">
        <ele>625.59997558594</ele>
        <time>2021-05-30T06:41:38.000Z</time>
      </trkpt>
      <trkpt lat="47.83283" lon="7.05587">
        <ele>625.59997558594</ele>
        <time>2021-05-30T06:41:41.000Z</time>
      </trkpt>
      <trkpt lat="47.83278" lon="7.05576">
        <ele>626</ele>
        <time>2021-05-30T06:41:45.000Z</time>
      </trkpt>
      <trkpt lat="47.83278" lon="7.05574">
        <ele>626.40002441406</ele>
        <time>2021-05-30T06:41:46.000Z</time>
      </trkpt>
      <trkpt lat="47.83276" lon="7.05571">
        <ele>627.40002441406</ele>
        <time>2021-05-30T06:41:47.000Z</time>
      </trkpt>
      <trkpt lat="47.83275" lon="7.0557">
        <ele>628</ele>
        <time>2021-05-30T06:41:48.000Z</time>
      </trkpt>
      <trkpt lat="47.83273" lon="7.05568">
        <ele>628.40002441406</ele>
        <time>2021-05-30T06:41:49.000Z</time>
      </trkpt>
      <trkpt lat="47.83272" lon="7.05566">
        <ele>629</ele>
        <time>2021-05-30T06:41:50.000Z</time>
      </trkpt>
      <trkpt lat="47.83272" lon="7.05566">
        <ele>629.59997558594</ele>
        <time>2021-05-30T06:41:51.000Z</time>
      </trkpt>
      <trkpt lat="47.83269" lon="7.05562">
        <ele>630</ele>
        <time>2021-05-30T06:43:58.000Z</time>
      </trkpt>
      <trkpt lat="47.83265" lon="7.05548">
        <ele>630.59997558594</ele>
        <time>2021-05-30T06:44:03.000Z</time>
      </trkpt>
      <trkpt lat="47.83264" lon="7.05544">
        <ele>631</ele>
        <time>2021-05-30T06:44:04.000Z</time>
      </trkpt>
      <trkpt lat="47.83263" lon="7.05542">
        <ele>631.40002441406</ele>
        <time>2021-05-30T06:44:05.000Z</time>
      </trkpt>
      <trkpt lat="47.83262" lon="7.05539">
        <ele>631.79998779297</ele>
        <time>2021-05-30T06:44:06.000Z</time>
      </trkpt>
      <trkpt lat="47.83261" lon="7.05537">
        <ele>632.40002441406</ele>
        <time>2021-05-30T06:44:07.000Z</time>
      </trkpt>
      <trkpt lat="47.8326" lon="7.05533">
        <ele>632.40002441406</ele>
        <time>2021-05-30T06:44:09.000Z</time>
      </trkpt>
      <trkpt lat="47.83258" lon="7.05527">
        <ele>632.79998779297</ele>
        <time>2021-05-30T06:44:11.000Z</time>
      </trkpt>
      <trkpt lat="47.83257" lon="7.05523">
        <ele>633.20001220703</ele>
        <time>2021-05-30T06:44:12.000Z</time>
      </trkpt>
      <trkpt lat="47.83257" lon="7.0552">
        <ele>633.59997558594</ele>
        <time>2021-05-30T06:44:13.000Z</time>
      </trkpt>
      <trkpt lat="47.83256" lon="7.05516">
        <ele>634.40002441406</ele>
        <time>2021-05-30T06:44:14.000Z</time>
      </trkpt>
      <trkpt lat="47.83255" lon="7.05513">
        <ele>634.40002441406</ele>
        <time>2021-05-30T06:44:15.000Z</time>
      </trkpt>
      <trkpt lat="47.83254" lon="7.05507">
        <ele>634.79998779297</ele>
        <time>2021-05-30T06:44:17.000Z</time>
      </trkpt>
      <trkpt lat="47.83254" lon="7.05504">
        <ele>635.20001220703</ele>
        <time>2021-05-30T06:44:18.000Z</time>
      </trkpt>
      <trkpt lat="47.83254" lon="7.055">
        <ele>635.59997558594</ele>
        <time>2021-05-30T06:44:19.000Z</time>
      </trkpt>
      <trkpt lat="47.83254" lon="7.05498">
        <ele>636</ele>
        <time>2021-05-30T06:44:20.000Z</time>
      </trkpt>
      <trkpt lat="47.83253" lon="7.05495">
        <ele>636.40002441406</ele>
        <time>2021-05-30T06:44:21.000Z</time>
      </trkpt>
      <trkpt lat="47.83253" lon="7.05485">
        <ele>637</ele>
        <time>2021-05-30T06:44:24.000Z</time>
      </trkpt>
      <trkpt lat="47.83253" lon="7.05483">
        <ele>637.40002441406</ele>
        <time>2021-05-30T06:44:25.000Z</time>
      </trkpt>
      <trkpt lat="47.83253" lon="7.0548">
        <ele>637.79998779297</ele>
        <time>2021-05-30T06:44:26.000Z</time>
      </trkpt>
      <trkpt lat="47.83252" lon="7.05475">
        <ele>638.20001220703</ele>
        <time>2021-05-30T06:44:27.000Z</time>
      </trkpt>
      <trkpt lat="47.83251" lon="7.05471">
        <ele>638.59997558594</ele>
        <time>2021-05-30T06:44:28.000Z</time>
      </trkpt>
      <trkpt lat="47.8325" lon="7.05458">
        <ele>638.59997558594</ele>
        <time>2021-05-30T06:44:32.000Z</time>
      </trkpt>
      <trkpt lat="47.8325" lon="7.05451">
        <ele>639</ele>
        <time>2021-05-30T06:44:35.000Z</time>
      </trkpt>
      <trkpt lat="47.8325" lon="7.05449">
        <ele>639.59997558594</ele>
        <time>2021-05-30T06:44:36.000Z</time>
      </trkpt>
      <trkpt lat="47.8325" lon="7.05446">
        <ele>640</ele>
        <time>2021-05-30T06:44:37.000Z</time>
      </trkpt>
      <trkpt lat="47.83251" lon="7.05443">
        <ele>640.40002441406</ele>
        <time>2021-05-30T06:44:38.000Z</time>
      </trkpt>
      <trkpt lat="47.8325" lon="7.0544">
        <ele>641.40002441406</ele>
        <time>2021-05-30T06:44:39.000Z</time>
      </trkpt>
      <trkpt lat="47.8325" lon="7.05438">
        <ele>641.79998779297</ele>
        <time>2021-05-30T06:44:40.000Z</time>
      </trkpt>
      <trkpt lat="47.8325" lon="7.05436">
        <ele>642.20001220703</ele>
        <time>2021-05-30T06:44:41.000Z</time>
      </trkpt>
      <trkpt lat="47.8325" lon="7.05434">
        <ele>642.59997558594</ele>
        <time>2021-05-30T06:44:42.000Z</time>
      </trkpt>
      <trkpt lat="47.8325" lon="7.05432">
        <ele>643</ele>
        <time>2021-05-30T06:44:43.000Z</time>
      </trkpt>
      <trkpt lat="47.8325" lon="7.05431">
        <ele>643</ele>
        <time>2021-05-30T06:44:44.000Z</time>
      </trkpt>
      <trkpt lat="47.83247" lon="7.05423">
        <ele>643</ele>
        <time>2021-05-30T06:44:51.000Z</time>
      </trkpt>
      <trkpt lat="47.83242" lon="7.05417">
        <ele>643.40002441406</ele>
        <time>2021-05-30T06:44:55.000Z</time>
      </trkpt>
      <trkpt lat="47.83241" lon="7.05416">
        <ele>643.79998779297</ele>
        <time>2021-05-30T06:44:56.000Z</time>
      </trkpt>
      <trkpt lat="47.8324" lon="7.05415">
        <ele>644.40002441406</ele>
        <time>2021-05-30T06:44:57.000Z</time>
      </trkpt>
      <trkpt lat="47.83238" lon="7.05413">
        <ele>644.79998779297</ele>
        <time>2021-05-30T06:44:58.000Z</time>
      </trkpt>
      <trkpt lat="47.83236" lon="7.05411">
        <ele>645.20001220703</ele>
        <time>2021-05-30T06:44:59.000Z</time>
      </trkpt>
      <trkpt lat="47.8323" lon="7.05403">
        <ele>645.20001220703</ele>
        <time>2021-05-30T06:45:03.000Z</time>
      </trkpt>
      <trkpt lat="47.83227" lon="7.05398">
        <ele>645.59997558594</ele>
        <time>2021-05-30T06:45:05.000Z</time>
      </trkpt>
      <trkpt lat="47.83226" lon="7.05395">
        <ele>646</ele>
        <time>2021-05-30T06:45:06.000Z</time>
      </trkpt>
      <trkpt lat="47.83225" lon="7.05392">
        <ele>646.40002441406</ele>
        <time>2021-05-30T06:45:07.000Z</time>
      </trkpt>
      <trkpt lat="47.83223" lon="7.05388">
        <ele>647</ele>
        <time>2021-05-30T06:45:08.000Z</time>
      </trkpt>
      <trkpt lat="47.83222" lon="7.05385">
        <ele>647.40002441406</ele>
        <time>2021-05-30T06:45:09.000Z</time>
      </trkpt>
      <trkpt lat="47.8322" lon="7.05382">
        <ele>647.40002441406</ele>
        <time>2021-05-30T06:45:10.000Z</time>
      </trkpt>
      <trkpt lat="47.83218" lon="7.05373">
        <ele>647.79998779297</ele>
        <time>2021-05-30T06:45:13.000Z</time>
      </trkpt>
      <trkpt lat="47.83218" lon="7.0537">
        <ele>648.20001220703</ele>
        <time>2021-05-30T06:45:14.000Z</time>
      </trkpt>
      <trkpt lat="47.83217" lon="7.05367">
        <ele>648.59997558594</ele>
        <time>2021-05-30T06:45:15.000Z</time>
      </trkpt>
      <trkpt lat="47.83216" lon="7.05364">
        <ele>649.20001220703</ele>
        <time>2021-05-30T06:45:16.000Z</time>
      </trkpt>
      <trkpt lat="47.83215" lon="7.05361">
        <ele>649.59997558594</ele>
        <time>2021-05-30T06:45:17.000Z</time>
      </trkpt>
      <trkpt lat="47.83213" lon="7.05355">
        <ele>649.59997558594</ele>
        <time>2021-05-30T06:45:19.000Z</time>
      </trkpt>
      <trkpt lat="47.83213" lon="7.05351">
        <ele>650</ele>
        <time>2021-05-30T06:45:21.000Z</time>
      </trkpt>
      <trkpt lat="47.83212" lon="7.05348">
        <ele>650.40002441406</ele>
        <time>2021-05-30T06:45:22.000Z</time>
      </trkpt>
      <trkpt lat="47.83212" lon="7.05345">
        <ele>650.79998779297</ele>
        <time>2021-05-30T06:45:23.000Z</time>
      </trkpt>
      <trkpt lat="47.83211" lon="7.05343">
        <ele>651.20001220703</ele>
        <time>2021-05-30T06:45:24.000Z</time>
      </trkpt>
      <trkpt lat="47.8321" lon="7.0534">
        <ele>651.59997558594</ele>
        <time>2021-05-30T06:45:25.000Z</time>
      </trkpt>
      <trkpt lat="47.8321" lon="7.05325">
        <ele>652.20001220703</ele>
        <time>2021-05-30T06:45:30.000Z</time>
      </trkpt>
      <trkpt lat="47.83211" lon="7.05322">
        <ele>652.59997558594</ele>
        <time>2021-05-30T06:45:31.000Z</time>
      </trkpt>
      <trkpt lat="47.83211" lon="7.05319">
        <ele>653</ele>
        <time>2021-05-30T06:45:32.000Z</time>
      </trkpt>
      <trkpt lat="47.83211" lon="7.05316">
        <ele>653.40002441406</ele>
        <time>2021-05-30T06:45:33.000Z</time>
      </trkpt>
      <trkpt lat="47.83212" lon="7.05313">
        <ele>653.79998779297</ele>
        <time>2021-05-30T06:45:34.000Z</time>
      </trkpt>
      <trkpt lat="47.83214" lon="7.05306">
        <ele>654.20001220703</ele>
        <time>2021-05-30T06:45:37.000Z</time>
      </trkpt>
      <trkpt lat="47.83215" lon="7.05304">
        <ele>654.79998779297</ele>
        <time>2021-05-30T06:45:38.000Z</time>
      </trkpt>
      <trkpt lat="47.83216" lon="7.05301">
        <ele>655.20001220703</ele>
        <time>2021-05-30T06:45:39.000Z</time>
      </trkpt>
      <trkpt lat="47.83217" lon="7.05299">
        <ele>655.59997558594</ele>
        <time>2021-05-30T06:45:40.000Z</time>
      </trkpt>
      <trkpt lat="47.83218" lon="7.05296">
        <ele>656</ele>
        <time>2021-05-30T06:45:41.000Z</time>
      </trkpt>
      <trkpt lat="47.83222" lon="7.05286">
        <ele>656</ele>
        <time>2021-05-30T06:45:44.000Z</time>
      </trkpt>
      <trkpt lat="47.83226" lon="7.05264">
        <ele>656</ele>
        <time>2021-05-30T06:45:51.000Z</time>
      </trkpt>
      <trkpt lat="47.83227" lon="7.05255">
        <ele>656.40002441406</ele>
        <time>2021-05-30T06:45:54.000Z</time>
      </trkpt>
      <trkpt lat="47.83226" lon="7.05252">
        <ele>656.79998779297</ele>
        <time>2021-05-30T06:45:55.000Z</time>
      </trkpt>
      <trkpt lat="47.83226" lon="7.05248">
        <ele>657.20001220703</ele>
        <time>2021-05-30T06:45:56.000Z</time>
      </trkpt>
      <trkpt lat="47.83225" lon="7.05244">
        <ele>657.59997558594</ele>
        <time>2021-05-30T06:45:57.000Z</time>
      </trkpt>
      <trkpt lat="47.83224" lon="7.0524">
        <ele>658</ele>
        <time>2021-05-30T06:45:58.000Z</time>
      </trkpt>
      <trkpt lat="47.8322" lon="7.05223">
        <ele>658</ele>
        <time>2021-05-30T06:46:03.000Z</time>
      </trkpt>
      <trkpt lat="47.83215" lon="7.0519">
        <ele>658</ele>
        <time>2021-05-30T06:46:12.000Z</time>
      </trkpt>
      <trkpt lat="47.83213" lon="7.05164">
        <ele>658</ele>
        <time>2021-05-30T06:46:19.000Z</time>
      </trkpt>
      <trkpt lat="47.83211" lon="7.05156">
        <ele>658.40002441406</ele>
        <time>2021-05-30T06:46:21.000Z</time>
      </trkpt>
      <trkpt lat="47.83211" lon="7.05153">
        <ele>658.79998779297</ele>
        <time>2021-05-30T06:46:22.000Z</time>
      </trkpt>
      <trkpt lat="47.83211" lon="7.0515">
        <ele>659.40002441406</ele>
        <time>2021-05-30T06:46:23.000Z</time>
      </trkpt>
      <trkpt lat="47.8321" lon="7.05148">
        <ele>659.79998779297</ele>
        <time>2021-05-30T06:46:24.000Z</time>
      </trkpt>
      <trkpt lat="47.8321" lon="7.05145">
        <ele>660.20001220703</ele>
        <time>2021-05-30T06:46:25.000Z</time>
      </trkpt>
      <trkpt lat="47.8321" lon="7.05142">
        <ele>660.20001220703</ele>
        <time>2021-05-30T06:46:26.000Z</time>
      </trkpt>
      <trkpt lat="47.83207" lon="7.05122">
        <ele>660.59997558594</ele>
        <time>2021-05-30T06:46:32.000Z</time>
      </trkpt>
      <trkpt lat="47.83206" lon="7.05118">
        <ele>661</ele>
        <time>2021-05-30T06:46:33.000Z</time>
      </trkpt>
      <trkpt lat="47.83205" lon="7.05115">
        <ele>661.40002441406</ele>
        <time>2021-05-30T06:46:34.000Z</time>
      </trkpt>
      <trkpt lat="47.83204" lon="7.05111">
        <ele>661.79998779297</ele>
        <time>2021-05-30T06:46:35.000Z</time>
      </trkpt>
      <trkpt lat="47.83203" lon="7.05108">
        <ele>662.20001220703</ele>
        <time>2021-05-30T06:46:36.000Z</time>
      </trkpt>
      <trkpt lat="47.83199" lon="7.05101">
        <ele>662.20001220703</ele>
        <time>2021-05-30T06:46:39.000Z</time>
      </trkpt>
      <trkpt lat="47.83198" lon="7.05098">
        <ele>662.79998779297</ele>
        <time>2021-05-30T06:46:40.000Z</time>
      </trkpt>
      <trkpt lat="47.83196" lon="7.05096">
        <ele>663.20001220703</ele>
        <time>2021-05-30T06:46:41.000Z</time>
      </trkpt>
      <trkpt lat="47.83194" lon="7.05094">
        <ele>663.59997558594</ele>
        <time>2021-05-30T06:46:42.000Z</time>
      </trkpt>
      <trkpt lat="47.83193" lon="7.05092">
        <ele>664.59997558594</ele>
        <time>2021-05-30T06:46:43.000Z</time>
      </trkpt>
      <trkpt lat="47.83192" lon="7.05089">
        <ele>664.59997558594</ele>
        <time>2021-05-30T06:46:44.000Z</time>
      </trkpt>
      <trkpt lat="47.83191" lon="7.05087">
        <ele>665</ele>
        <time>2021-05-30T06:46:45.000Z</time>
      </trkpt>
      <trkpt lat="47.8319" lon="7.05085">
        <ele>665.40002441406</ele>
        <time>2021-05-30T06:46:46.000Z</time>
      </trkpt>
      <trkpt lat="47.83189" lon="7.05083">
        <ele>665.79998779297</ele>
        <time>2021-05-30T06:46:47.000Z</time>
      </trkpt>
      <trkpt lat="47.83188" lon="7.05081">
        <ele>666.20001220703</ele>
        <time>2021-05-30T06:46:48.000Z</time>
      </trkpt>
      <trkpt lat="47.83188" lon="7.05078">
        <ele>666.59997558594</ele>
        <time>2021-05-30T06:46:49.000Z</time>
      </trkpt>
      <trkpt lat="47.83187" lon="7.05075">
        <ele>666.59997558594</ele>
        <time>2021-05-30T06:46:50.000Z</time>
      </trkpt>
      <trkpt lat="47.83184" lon="7.05068">
        <ele>667</ele>
        <time>2021-05-30T06:46:53.000Z</time>
      </trkpt>
      <trkpt lat="47.83183" lon="7.05066">
        <ele>667.59997558594</ele>
        <time>2021-05-30T06:46:54.000Z</time>
      </trkpt>
      <trkpt lat="47.83182" lon="7.05064">
        <ele>668</ele>
        <time>2021-05-30T06:46:55.000Z</time>
      </trkpt>
      <trkpt lat="47.83181" lon="7.05063">
        <ele>668.40002441406</ele>
        <time>2021-05-30T06:46:56.000Z</time>
      </trkpt>
      <trkpt lat="47.8318" lon="7.05061">
        <ele>669</ele>
        <time>2021-05-30T06:46:57.000Z</time>
      </trkpt>
      <trkpt lat="47.83177" lon="7.05054">
        <ele>669.40002441406</ele>
        <time>2021-05-30T06:47:00.000Z</time>
      </trkpt>
      <trkpt lat="47.83177" lon="7.05051">
        <ele>669.79998779297</ele>
        <time>2021-05-30T06:47:01.000Z</time>
      </trkpt>
      <trkpt lat="47.83176" lon="7.05048">
        <ele>670.20001220703</ele>
        <time>2021-05-30T06:47:02.000Z</time>
      </trkpt>
      <trkpt lat="47.83176" lon="7.05045">
        <ele>670.59997558594</ele>
        <time>2021-05-30T06:47:03.000Z</time>
      </trkpt>
      <trkpt lat="47.83175" lon="7.05043">
        <ele>671</ele>
        <time>2021-05-30T06:47:04.000Z</time>
      </trkpt>
      <trkpt lat="47.83171" lon="7.05033">
        <ele>671.79998779297</ele>
        <time>2021-05-30T06:47:08.000Z</time>
      </trkpt>
      <trkpt lat="47.8317" lon="7.05031">
        <ele>672.40002441406</ele>
        <time>2021-05-30T06:47:09.000Z</time>
      </trkpt>
      <trkpt lat="47.83168" lon="7.05029">
        <ele>672.79998779297</ele>
        <time>2021-05-30T06:47:10.000Z</time>
      </trkpt>
      <trkpt lat="47.83167" lon="7.05027">
        <ele>673.20001220703</ele>
        <time>2021-05-30T06:47:11.000Z</time>
      </trkpt>
      <trkpt lat="47.83165" lon="7.05022">
        <ele>673.20001220703</ele>
        <time>2021-05-30T06:47:13.000Z</time>
      </trkpt>
      <trkpt lat="47.83162" lon="7.05017">
        <ele>673.59997558594</ele>
        <time>2021-05-30T06:47:15.000Z</time>
      </trkpt>
      <trkpt lat="47.83161" lon="7.05015">
        <ele>674.20001220703</ele>
        <time>2021-05-30T06:47:16.000Z</time>
      </trkpt>
      <trkpt lat="47.83159" lon="7.05012">
        <ele>674.59997558594</ele>
        <time>2021-05-30T06:47:17.000Z</time>
      </trkpt>
      <trkpt lat="47.83157" lon="7.05011">
        <ele>675.20001220703</ele>
        <time>2021-05-30T06:47:18.000Z</time>
      </trkpt>
      <trkpt lat="47.83156" lon="7.05009">
        <ele>675.59997558594</ele>
        <time>2021-05-30T06:47:19.000Z</time>
      </trkpt>
      <trkpt lat="47.83153" lon="7.05006">
        <ele>675.59997558594</ele>
        <time>2021-05-30T06:47:21.000Z</time>
      </trkpt>
      <trkpt lat="47.83148" lon="7.05002">
        <ele>676</ele>
        <time>2021-05-30T06:47:24.000Z</time>
      </trkpt>
      <trkpt lat="47.83146" lon="7.05">
        <ele>676.40002441406</ele>
        <time>2021-05-30T06:47:25.000Z</time>
      </trkpt>
      <trkpt lat="47.83145" lon="7.04999">
        <ele>676.79998779297</ele>
        <time>2021-05-30T06:47:26.000Z</time>
      </trkpt>
      <trkpt lat="47.83144" lon="7.04997">
        <ele>677.40002441406</ele>
        <time>2021-05-30T06:47:27.000Z</time>
      </trkpt>
      <trkpt lat="47.83143" lon="7.04995">
        <ele>677.79998779297</ele>
        <time>2021-05-30T06:47:28.000Z</time>
      </trkpt>
      <trkpt lat="47.83137" lon="7.04989">
        <ele>678.59997558594</ele>
        <time>2021-05-30T06:47:32.000Z</time>
      </trkpt>
      <trkpt lat="47.83135" lon="7.04988">
        <ele>679.20001220703</ele>
        <time>2021-05-30T06:47:33.000Z</time>
      </trkpt>
      <trkpt lat="47.83133" lon="7.04986">
        <ele>679.59997558594</ele>
        <time>2021-05-30T06:47:34.000Z</time>
      </trkpt>
      <trkpt lat="47.83132" lon="7.04984">
        <ele>680</ele>
        <time>2021-05-30T06:47:35.000Z</time>
      </trkpt>
      <trkpt lat="47.8313" lon="7.04982">
        <ele>680.40002441406</ele>
        <time>2021-05-30T06:47:36.000Z</time>
      </trkpt>
      <trkpt lat="47.83129" lon="7.04979">
        <ele>680.79998779297</ele>
        <time>2021-05-30T06:47:37.000Z</time>
      </trkpt>
      <trkpt lat="47.83127" lon="7.04977">
        <ele>681.40002441406</ele>
        <time>2021-05-30T06:47:38.000Z</time>
      </trkpt>
      <trkpt lat="47.83126" lon="7.04975">
        <ele>681.79998779297</ele>
        <time>2021-05-30T06:47:39.000Z</time>
      </trkpt>
      <trkpt lat="47.83125" lon="7.04973">
        <ele>682.20001220703</ele>
        <time>2021-05-30T06:47:40.000Z</time>
      </trkpt>
      <trkpt lat="47.83121" lon="7.04961">
        <ele>682.59997558594</ele>
        <time>2021-05-30T06:47:44.000Z</time>
      </trkpt>
      <trkpt lat="47.8312" lon="7.04958">
        <ele>683</ele>
        <time>2021-05-30T06:47:45.000Z</time>
      </trkpt>
      <trkpt lat="47.83119" lon="7.04956">
        <ele>683.40002441406</ele>
        <time>2021-05-30T06:47:46.000Z</time>
      </trkpt>
      <trkpt lat="47.83118" lon="7.04953">
        <ele>683.79998779297</ele>
        <time>2021-05-30T06:47:47.000Z</time>
      </trkpt>
      <trkpt lat="47.83117" lon="7.0495">
        <ele>684.40002441406</ele>
        <time>2021-05-30T06:47:48.000Z</time>
      </trkpt>
      <trkpt lat="47.83113" lon="7.0494">
        <ele>684.79998779297</ele>
        <time>2021-05-30T06:47:51.000Z</time>
      </trkpt>
      <trkpt lat="47.83112" lon="7.04937">
        <ele>685.20001220703</ele>
        <time>2021-05-30T06:47:52.000Z</time>
      </trkpt>
      <trkpt lat="47.83111" lon="7.04934">
        <ele>685.59997558594</ele>
        <time>2021-05-30T06:47:53.000Z</time>
      </trkpt>
      <trkpt lat="47.8311" lon="7.04932">
        <ele>686.20001220703</ele>
        <time>2021-05-30T06:47:54.000Z</time>
      </trkpt>
      <trkpt lat="47.8311" lon="7.04929">
        <ele>686.59997558594</ele>
        <time>2021-05-30T06:47:55.000Z</time>
      </trkpt>
      <trkpt lat="47.8311" lon="7.04924">
        <ele>687</ele>
        <time>2021-05-30T06:47:57.000Z</time>
      </trkpt>
      <trkpt lat="47.83109" lon="7.04921">
        <ele>687.40002441406</ele>
        <time>2021-05-30T06:47:58.000Z</time>
      </trkpt>
      <trkpt lat="47.83109" lon="7.04919">
        <ele>687.79998779297</ele>
        <time>2021-05-30T06:47:59.000Z</time>
      </trkpt>
      <trkpt lat="47.83108" lon="7.04916">
        <ele>688.20001220703</ele>
        <time>2021-05-30T06:48:00.000Z</time>
      </trkpt>
      <trkpt lat="47.83108" lon="7.04913">
        <ele>688.59997558594</ele>
        <time>2021-05-30T06:48:01.000Z</time>
      </trkpt>
      <trkpt lat="47.83107" lon="7.04905">
        <ele>689.20001220703</ele>
        <time>2021-05-30T06:48:04.000Z</time>
      </trkpt>
      <trkpt lat="47.83107" lon="7.04903">
        <ele>689.59997558594</ele>
        <time>2021-05-30T06:48:05.000Z</time>
      </trkpt>
      <trkpt lat="47.83107" lon="7.049">
        <ele>690</ele>
        <time>2021-05-30T06:48:06.000Z</time>
      </trkpt>
      <trkpt lat="47.83107" lon="7.04898">
        <ele>690.40002441406</ele>
        <time>2021-05-30T06:48:07.000Z</time>
      </trkpt>
      <trkpt lat="47.83106" lon="7.04894">
        <ele>690.79998779297</ele>
        <time>2021-05-30T06:48:08.000Z</time>
      </trkpt>
      <trkpt lat="47.83106" lon="7.04885">
        <ele>691.40002441406</ele>
        <time>2021-05-30T06:48:12.000Z</time>
      </trkpt>
      <trkpt lat="47.83106" lon="7.04882">
        <ele>691.79998779297</ele>
        <time>2021-05-30T06:48:13.000Z</time>
      </trkpt>
      <trkpt lat="47.83107" lon="7.04879">
        <ele>692.20001220703</ele>
        <time>2021-05-30T06:48:14.000Z</time>
      </trkpt>
      <trkpt lat="47.83107" lon="7.04877">
        <ele>692.59997558594</ele>
        <time>2021-05-30T06:48:15.000Z</time>
      </trkpt>
      <trkpt lat="47.83108" lon="7.04874">
        <ele>693</ele>
        <time>2021-05-30T06:48:16.000Z</time>
      </trkpt>
      <trkpt lat="47.83109" lon="7.04872">
        <ele>693</ele>
        <time>2021-05-30T06:48:17.000Z</time>
      </trkpt>
      <trkpt lat="47.8311" lon="7.04866">
        <ele>693.40002441406</ele>
        <time>2021-05-30T06:48:19.000Z</time>
      </trkpt>
      <trkpt lat="47.8311" lon="7.04863">
        <ele>693.79998779297</ele>
        <time>2021-05-30T06:48:20.000Z</time>
      </trkpt>
      <trkpt lat="47.83111" lon="7.04861">
        <ele>694.59997558594</ele>
        <time>2021-05-30T06:48:21.000Z</time>
      </trkpt>
      <trkpt lat="47.83111" lon="7.04859">
        <ele>695.20001220703</ele>
        <time>2021-05-30T06:48:22.000Z</time>
      </trkpt>
      <trkpt lat="47.83111" lon="7.04855">
        <ele>695.20001220703</ele>
        <time>2021-05-30T06:48:23.000Z</time>
      </trkpt>
      <trkpt lat="47.83113" lon="7.04843">
        <ele>695.59997558594</ele>
        <time>2021-05-30T06:48:26.000Z</time>
      </trkpt>
      <trkpt lat="47.83113" lon="7.0484">
        <ele>696</ele>
        <time>2021-05-30T06:48:27.000Z</time>
      </trkpt>
      <trkpt lat="47.83114" lon="7.04837">
        <ele>696.40002441406</ele>
        <time>2021-05-30T06:48:28.000Z</time>
      </trkpt>
      <trkpt lat="47.83114" lon="7.04834">
        <ele>696.79998779297</ele>
        <time>2021-05-30T06:48:29.000Z</time>
      </trkpt>
      <trkpt lat="47.83115" lon="7.04831">
        <ele>697.20001220703</ele>
        <time>2021-05-30T06:48:30.000Z</time>
      </trkpt>
      <trkpt lat="47.83115" lon="7.04823">
        <ele>697.59997558594</ele>
        <time>2021-05-30T06:48:33.000Z</time>
      </trkpt>
      <trkpt lat="47.83114" lon="7.0482">
        <ele>698</ele>
        <time>2021-05-30T06:48:34.000Z</time>
      </trkpt>
      <trkpt lat="47.83114" lon="7.04817">
        <ele>698.40002441406</ele>
        <time>2021-05-30T06:48:35.000Z</time>
      </trkpt>
      <trkpt lat="47.83113" lon="7.04814">
        <ele>699</ele>
        <time>2021-05-30T06:48:36.000Z</time>
      </trkpt>
      <trkpt lat="47.83113" lon="7.04811">
        <ele>699.40002441406</ele>
        <time>2021-05-30T06:48:37.000Z</time>
      </trkpt>
      <trkpt lat="47.83113" lon="7.048">
        <ele>699.40002441406</ele>
        <time>2021-05-30T06:48:41.000Z</time>
      </trkpt>
      <trkpt lat="47.83113" lon="7.04794">
        <ele>699.79998779297</ele>
        <time>2021-05-30T06:48:43.000Z</time>
      </trkpt>
      <trkpt lat="47.83114" lon="7.04791">
        <ele>700.40002441406</ele>
        <time>2021-05-30T06:48:44.000Z</time>
      </trkpt>
      <trkpt lat="47.83114" lon="7.04788">
        <ele>701.20001220703</ele>
        <time>2021-05-30T06:48:45.000Z</time>
      </trkpt>
      <trkpt lat="47.83114" lon="7.04786">
        <ele>701.79998779297</ele>
        <time>2021-05-30T06:48:46.000Z</time>
      </trkpt>
      <trkpt lat="47.83116" lon="7.04778">
        <ele>702.20001220703</ele>
        <time>2021-05-30T06:48:49.000Z</time>
      </trkpt>
      <trkpt lat="47.83117" lon="7.04776">
        <ele>702.59997558594</ele>
        <time>2021-05-30T06:48:50.000Z</time>
      </trkpt>
      <trkpt lat="47.83117" lon="7.04774">
        <ele>703</ele>
        <time>2021-05-30T06:48:51.000Z</time>
      </trkpt>
      <trkpt lat="47.83118" lon="7.04771">
        <ele>703.40002441406</ele>
        <time>2021-05-30T06:48:52.000Z</time>
      </trkpt>
      <trkpt lat="47.83117" lon="7.04769">
        <ele>703.79998779297</ele>
        <time>2021-05-30T06:48:53.000Z</time>
      </trkpt>
      <trkpt lat="47.83117" lon="7.04761">
        <ele>704.20001220703</ele>
        <time>2021-05-30T06:48:56.000Z</time>
      </trkpt>
      <trkpt lat="47.83117" lon="7.04759">
        <ele>704.59997558594</ele>
        <time>2021-05-30T06:48:57.000Z</time>
      </trkpt>
      <trkpt lat="47.83117" lon="7.04756">
        <ele>705</ele>
        <time>2021-05-30T06:48:58.000Z</time>
      </trkpt>
      <trkpt lat="47.83118" lon="7.04754">
        <ele>705.40002441406</ele>
        <time>2021-05-30T06:48:59.000Z</time>
      </trkpt>
      <trkpt lat="47.83118" lon="7.04752">
        <ele>705.79998779297</ele>
        <time>2021-05-30T06:49:00.000Z</time>
      </trkpt>
      <trkpt lat="47.83118" lon="7.0475">
        <ele>705.79998779297</ele>
        <time>2021-05-30T06:49:01.000Z</time>
      </trkpt>
      <trkpt lat="47.83118" lon="7.04744">
        <ele>706.20001220703</ele>
        <time>2021-05-30T06:49:04.000Z</time>
      </trkpt>
      <trkpt lat="47.83119" lon="7.04742">
        <ele>706.79998779297</ele>
        <time>2021-05-30T06:49:05.000Z</time>
      </trkpt>
      <trkpt lat="47.83119" lon="7.0474">
        <ele>707.20001220703</ele>
        <time>2021-05-30T06:49:06.000Z</time>
      </trkpt>
      <trkpt lat="47.83119" lon="7.04739">
        <ele>707.59997558594</ele>
        <time>2021-05-30T06:49:07.000Z</time>
      </trkpt>
      <trkpt lat="47.83119" lon="7.04737">
        <ele>708</ele>
        <time>2021-05-30T06:49:08.000Z</time>
      </trkpt>
      <trkpt lat="47.8312" lon="7.04729">
        <ele>708.40002441406</ele>
        <time>2021-05-30T06:49:12.000Z</time>
      </trkpt>
      <trkpt lat="47.8312" lon="7.04726">
        <ele>708.79998779297</ele>
        <time>2021-05-30T06:49:13.000Z</time>
      </trkpt>
      <trkpt lat="47.83121" lon="7.04723">
        <ele>709.20001220703</ele>
        <time>2021-05-30T06:49:14.000Z</time>
      </trkpt>
      <trkpt lat="47.83121" lon="7.0472">
        <ele>709.59997558594</ele>
        <time>2021-05-30T06:49:15.000Z</time>
      </trkpt>
      <trkpt lat="47.83121" lon="7.04718">
        <ele>710</ele>
        <time>2021-05-30T06:49:16.000Z</time>
      </trkpt>
      <trkpt lat="47.83123" lon="7.0471">
        <ele>710.40002441406</ele>
        <time>2021-05-30T06:49:20.000Z</time>
      </trkpt>
      <trkpt lat="47.83123" lon="7.04709">
        <ele>710.79998779297</ele>
        <time>2021-05-30T06:49:21.000Z</time>
      </trkpt>
      <trkpt lat="47.83124" lon="7.04707">
        <ele>711.20001220703</ele>
        <time>2021-05-30T06:49:22.000Z</time>
      </trkpt>
      <trkpt lat="47.83124" lon="7.04705">
        <ele>711.59997558594</ele>
        <time>2021-05-30T06:49:23.000Z</time>
      </trkpt>
      <trkpt lat="47.83124" lon="7.04703">
        <ele>712</ele>
        <time>2021-05-30T06:49:24.000Z</time>
      </trkpt>
      <trkpt lat="47.83123" lon="7.04689">
        <ele>712</ele>
        <time>2021-05-30T06:49:28.000Z</time>
      </trkpt>
      <trkpt lat="47.83123" lon="7.04687">
        <ele>712.40002441406</ele>
        <time>2021-05-30T06:49:29.000Z</time>
      </trkpt>
      <trkpt lat="47.83123" lon="7.04685">
        <ele>712.79998779297</ele>
        <time>2021-05-30T06:49:30.000Z</time>
      </trkpt>
      <trkpt lat="47.83123" lon="7.04682">
        <ele>713.40002441406</ele>
        <time>2021-05-30T06:49:31.000Z</time>
      </trkpt>
      <trkpt lat="47.83123" lon="7.0468">
        <ele>713.79998779297</ele>
        <time>2021-05-30T06:49:32.000Z</time>
      </trkpt>
      <trkpt lat="47.83123" lon="7.04678">
        <ele>714.20001220703</ele>
        <time>2021-05-30T06:49:33.000Z</time>
      </trkpt>
      <trkpt lat="47.8312" lon="7.04654">
        <ele>714.20001220703</ele>
        <time>2021-05-30T06:49:40.000Z</time>
      </trkpt>
      <trkpt lat="47.83119" lon="7.04626">
        <ele>714.20001220703</ele>
        <time>2021-05-30T06:49:47.000Z</time>
      </trkpt>
      <trkpt lat="47.83118" lon="7.04608">
        <ele>714.20001220703</ele>
        <time>2021-05-30T06:49:52.000Z</time>
      </trkpt>
      <trkpt lat="47.83114" lon="7.04587">
        <ele>714.20001220703</ele>
        <time>2021-05-30T06:49:58.000Z</time>
      </trkpt>
      <trkpt lat="47.83112" lon="7.04574">
        <ele>714.59997558594</ele>
        <time>2021-05-30T06:50:02.000Z</time>
      </trkpt>
      <trkpt lat="47.83112" lon="7.04571">
        <ele>715</ele>
        <time>2021-05-30T06:50:03.000Z</time>
      </trkpt>
      <trkpt lat="47.83111" lon="7.04568">
        <ele>715.40002441406</ele>
        <time>2021-05-30T06:50:04.000Z</time>
      </trkpt>
      <trkpt lat="47.83111" lon="7.04566">
        <ele>715.79998779297</ele>
        <time>2021-05-30T06:50:05.000Z</time>
      </trkpt>
      <trkpt lat="47.83111" lon="7.04561">
        <ele>716.20001220703</ele>
        <time>2021-05-30T06:50:06.000Z</time>
      </trkpt>
      <trkpt lat="47.8311" lon="7.04556">
        <ele>716.20001220703</ele>
        <time>2021-05-30T06:50:07.000Z</time>
      </trkpt>
      <trkpt lat="47.83109" lon="7.04541">
        <ele>716.59997558594</ele>
        <time>2021-05-30T06:50:12.000Z</time>
      </trkpt>
      <trkpt lat="47.83109" lon="7.04538">
        <ele>717.20001220703</ele>
        <time>2021-05-30T06:50:13.000Z</time>
      </trkpt>
      <trkpt lat="47.83108" lon="7.04537">
        <ele>717.59997558594</ele>
        <time>2021-05-30T06:50:14.000Z</time>
      </trkpt>
      <trkpt lat="47.83107" lon="7.04534">
        <ele>718</ele>
        <time>2021-05-30T06:50:15.000Z</time>
      </trkpt>
      <trkpt lat="47.83105" lon="7.04531">
        <ele>718.40002441406</ele>
        <time>2021-05-30T06:50:16.000Z</time>
      </trkpt>
      <trkpt lat="47.83102" lon="7.04523">
        <ele>718.40002441406</ele>
        <time>2021-05-30T06:50:19.000Z</time>
      </trkpt>
      <trkpt lat="47.83095" lon="7.04511">
        <ele>718.40002441406</ele>
        <time>2021-05-30T06:50:24.000Z</time>
      </trkpt>
      <trkpt lat="47.83088" lon="7.04498">
        <ele>718.40002441406</ele>
        <time>2021-05-30T06:50:30.000Z</time>
      </trkpt>
      <trkpt lat="47.8308" lon="7.0448">
        <ele>718.40002441406</ele>
        <time>2021-05-30T06:50:36.000Z</time>
      </trkpt>
      <trkpt lat="47.83076" lon="7.04451">
        <ele>718.40002441406</ele>
        <time>2021-05-30T06:50:42.000Z</time>
      </trkpt>
      <trkpt lat="47.83067" lon="7.04429">
        <ele>718.40002441406</ele>
        <time>2021-05-30T06:50:47.000Z</time>
      </trkpt>
      <trkpt lat="47.83062" lon="7.04417">
        <ele>717.59997558594</ele>
        <time>2021-05-30T06:50:49.000Z</time>
      </trkpt>
      <trkpt lat="47.83059" lon="7.0441">
        <ele>717</ele>
        <time>2021-05-30T06:50:50.000Z</time>
      </trkpt>
      <trkpt lat="47.83057" lon="7.04404">
        <ele>716.59997558594</ele>
        <time>2021-05-30T06:50:51.000Z</time>
      </trkpt>
      <trkpt lat="47.83056" lon="7.04399">
        <ele>716.20001220703</ele>
        <time>2021-05-30T06:50:52.000Z</time>
      </trkpt>
      <trkpt lat="47.8305" lon="7.04381">
        <ele>716.20001220703</ele>
        <time>2021-05-30T06:50:57.000Z</time>
      </trkpt>
      <trkpt lat="47.83048" lon="7.04376">
        <ele>716.20001220703</ele>
        <time>2021-05-30T06:50:59.000Z</time>
      </trkpt>
      <trkpt lat="47.83046" lon="7.04362">
        <ele>716.20001220703</ele>
        <time>2021-05-30T06:51:03.000Z</time>
      </trkpt>
      <trkpt lat="47.83044" lon="7.04344">
        <ele>716.59997558594</ele>
        <time>2021-05-30T06:51:09.000Z</time>
      </trkpt>
      <trkpt lat="47.83043" lon="7.04342">
        <ele>717</ele>
        <time>2021-05-30T06:51:10.000Z</time>
      </trkpt>
      <trkpt lat="47.83043" lon="7.0434">
        <ele>717.40002441406</ele>
        <time>2021-05-30T06:51:11.000Z</time>
      </trkpt>
      <trkpt lat="47.83042" lon="7.04337">
        <ele>717.79998779297</ele>
        <time>2021-05-30T06:51:12.000Z</time>
      </trkpt>
      <trkpt lat="47.83042" lon="7.04335">
        <ele>718.20001220703</ele>
        <time>2021-05-30T06:51:13.000Z</time>
      </trkpt>
      <trkpt lat="47.8304" lon="7.0432">
        <ele>718.20001220703</ele>
        <time>2021-05-30T06:51:19.000Z</time>
      </trkpt>
      <trkpt lat="47.83036" lon="7.04309">
        <ele>718.59997558594</ele>
        <time>2021-05-30T06:51:24.000Z</time>
      </trkpt>
      <trkpt lat="47.83035" lon="7.04307">
        <ele>719</ele>
        <time>2021-05-30T06:51:25.000Z</time>
      </trkpt>
      <trkpt lat="47.83034" lon="7.04304">
        <ele>719.40002441406</ele>
        <time>2021-05-30T06:51:26.000Z</time>
      </trkpt>
      <trkpt lat="47.83034" lon="7.04302">
        <ele>720</ele>
        <time>2021-05-30T06:51:27.000Z</time>
      </trkpt>
      <trkpt lat="47.83033" lon="7.04299">
        <ele>720.40002441406</ele>
        <time>2021-05-30T06:51:28.000Z</time>
      </trkpt>
      <trkpt lat="47.83032" lon="7.04294">
        <ele>720.40002441406</ele>
        <time>2021-05-30T06:51:30.000Z</time>
      </trkpt>
      <trkpt lat="47.83031" lon="7.04292">
        <ele>720.40002441406</ele>
        <time>2021-05-30T06:51:31.000Z</time>
      </trkpt>
      <trkpt lat="47.83029" lon="7.04286">
        <ele>720.40002441406</ele>
        <time>2021-05-30T06:51:35.000Z</time>
      </trkpt>
      <trkpt lat="47.83026" lon="7.04274">
        <ele>720.40002441406</ele>
        <time>2021-05-30T06:51:40.000Z</time>
      </trkpt>
      <trkpt lat="47.83025" lon="7.04273">
        <ele>720.79998779297</ele>
        <time>2021-05-30T06:51:41.000Z</time>
      </trkpt>
      <trkpt lat="47.83024" lon="7.04271">
        <ele>721.20001220703</ele>
        <time>2021-05-30T06:51:42.000Z</time>
      </trkpt>
      <trkpt lat="47.83022" lon="7.0427">
        <ele>721.59997558594</ele>
        <time>2021-05-30T06:51:43.000Z</time>
      </trkpt>
      <trkpt lat="47.83021" lon="7.04269">
        <ele>722</ele>
        <time>2021-05-30T06:51:44.000Z</time>
      </trkpt>
      <trkpt lat="47.83019" lon="7.04267">
        <ele>722.40002441406</ele>
        <time>2021-05-30T06:51:45.000Z</time>
      </trkpt>
      <trkpt lat="47.83018" lon="7.04266">
        <ele>722.40002441406</ele>
        <time>2021-05-30T06:51:46.000Z</time>
      </trkpt>
      <trkpt lat="47.83013" lon="7.04261">
        <ele>723</ele>
        <time>2021-05-30T06:51:49.000Z</time>
      </trkpt>
      <trkpt lat="47.83012" lon="7.04259">
        <ele>723.40002441406</ele>
        <time>2021-05-30T06:51:50.000Z</time>
      </trkpt>
      <trkpt lat="47.8301" lon="7.04257">
        <ele>723.79998779297</ele>
        <time>2021-05-30T06:51:51.000Z</time>
      </trkpt>
      <trkpt lat="47.83009" lon="7.04256">
        <ele>724.40002441406</ele>
        <time>2021-05-30T06:51:52.000Z</time>
      </trkpt>
      <trkpt lat="47.83008" lon="7.04254">
        <ele>724.79998779297</ele>
        <time>2021-05-30T06:51:53.000Z</time>
      </trkpt>
      <trkpt lat="47.83004" lon="7.04248">
        <ele>725.20001220703</ele>
        <time>2021-05-30T06:51:56.000Z</time>
      </trkpt>
      <trkpt lat="47.83003" lon="7.04247">
        <ele>725.59997558594</ele>
        <time>2021-05-30T06:51:57.000Z</time>
      </trkpt>
      <trkpt lat="47.83002" lon="7.04244">
        <ele>726</ele>
        <time>2021-05-30T06:51:58.000Z</time>
      </trkpt>
      <trkpt lat="47.83001" lon="7.04242">
        <ele>726.40002441406</ele>
        <time>2021-05-30T06:51:59.000Z</time>
      </trkpt>
      <trkpt lat="47.83001" lon="7.0424">
        <ele>726.79998779297</ele>
        <time>2021-05-30T06:52:00.000Z</time>
      </trkpt>
      <trkpt lat="47.82998" lon="7.04234">
        <ele>727.20001220703</ele>
        <time>2021-05-30T06:52:03.000Z</time>
      </trkpt>
      <trkpt lat="47.82997" lon="7.04232">
        <ele>727.59997558594</ele>
        <time>2021-05-30T06:52:04.000Z</time>
      </trkpt>
      <trkpt lat="47.82996" lon="7.04229">
        <ele>728.20001220703</ele>
        <time>2021-05-30T06:52:05.000Z</time>
      </trkpt>
      <trkpt lat="47.82996" lon="7.04227">
        <ele>728.59997558594</ele>
        <time>2021-05-30T06:52:06.000Z</time>
      </trkpt>
      <trkpt lat="47.82995" lon="7.04226">
        <ele>729</ele>
        <time>2021-05-30T06:52:07.000Z</time>
      </trkpt>
      <trkpt lat="47.82991" lon="7.04221">
        <ele>729.40002441406</ele>
        <time>2021-05-30T06:52:10.000Z</time>
      </trkpt>
      <trkpt lat="47.8299" lon="7.04219">
        <ele>730</ele>
        <time>2021-05-30T06:52:11.000Z</time>
      </trkpt>
      <trkpt lat="47.82988" lon="7.04217">
        <ele>730.40002441406</ele>
        <time>2021-05-30T06:52:12.000Z</time>
      </trkpt>
      <trkpt lat="47.82987" lon="7.04215">
        <ele>730.79998779297</ele>
        <time>2021-05-30T06:52:13.000Z</time>
      </trkpt>
      <trkpt lat="47.82986" lon="7.04214">
        <ele>731.20001220703</ele>
        <time>2021-05-30T06:52:14.000Z</time>
      </trkpt>
      <trkpt lat="47.82977" lon="7.04203">
        <ele>731.79998779297</ele>
        <time>2021-05-30T06:52:19.000Z</time>
      </trkpt>
      <trkpt lat="47.82976" lon="7.042">
        <ele>732.20001220703</ele>
        <time>2021-05-30T06:52:20.000Z</time>
      </trkpt>
      <trkpt lat="47.82974" lon="7.04198">
        <ele>732.59997558594</ele>
        <time>2021-05-30T06:52:21.000Z</time>
      </trkpt>
      <trkpt lat="47.82972" lon="7.04197">
        <ele>733.20001220703</ele>
        <time>2021-05-30T06:52:22.000Z</time>
      </trkpt>
      <trkpt lat="47.8297" lon="7.04196">
        <ele>733.59997558594</ele>
        <time>2021-05-30T06:52:23.000Z</time>
      </trkpt>
      <trkpt lat="47.82964" lon="7.04191">
        <ele>734</ele>
        <time>2021-05-30T06:52:26.000Z</time>
      </trkpt>
      <trkpt lat="47.82962" lon="7.0419">
        <ele>734.40002441406</ele>
        <time>2021-05-30T06:52:27.000Z</time>
      </trkpt>
      <trkpt lat="47.82961" lon="7.04188">
        <ele>735.20001220703</ele>
        <time>2021-05-30T06:52:28.000Z</time>
      </trkpt>
      <trkpt lat="47.82959" lon="7.04187">
        <ele>735.59997558594</ele>
        <time>2021-05-30T06:52:29.000Z</time>
      </trkpt>
      <trkpt lat="47.82953" lon="7.0418">
        <ele>736</ele>
        <time>2021-05-30T06:52:33.000Z</time>
      </trkpt>
      <trkpt lat="47.82951" lon="7.04178">
        <ele>736.59997558594</ele>
        <time>2021-05-30T06:52:34.000Z</time>
      </trkpt>
      <trkpt lat="47.8295" lon="7.04177">
        <ele>737</ele>
        <time>2021-05-30T06:52:35.000Z</time>
      </trkpt>
      <trkpt lat="47.82948" lon="7.04176">
        <ele>737.40002441406</ele>
        <time>2021-05-30T06:52:36.000Z</time>
      </trkpt>
      <trkpt lat="47.82947" lon="7.04175">
        <ele>737.79998779297</ele>
        <time>2021-05-30T06:52:37.000Z</time>
      </trkpt>
      <trkpt lat="47.82935" lon="7.04173">
        <ele>738.20001220703</ele>
        <time>2021-05-30T06:52:43.000Z</time>
      </trkpt>
      <trkpt lat="47.82933" lon="7.04172">
        <ele>738.59997558594</ele>
        <time>2021-05-30T06:52:44.000Z</time>
      </trkpt>
      <trkpt lat="47.8293" lon="7.04171">
        <ele>739</ele>
        <time>2021-05-30T06:52:45.000Z</time>
      </trkpt>
      <trkpt lat="47.82928" lon="7.04169">
        <ele>739.59997558594</ele>
        <time>2021-05-30T06:52:46.000Z</time>
      </trkpt>
      <trkpt lat="47.82926" lon="7.04168">
        <ele>740</ele>
        <time>2021-05-30T06:52:47.000Z</time>
      </trkpt>
      <trkpt lat="47.82922" lon="7.04164">
        <ele>740.40002441406</ele>
        <time>2021-05-30T06:52:49.000Z</time>
      </trkpt>
      <trkpt lat="47.8292" lon="7.04164">
        <ele>740.79998779297</ele>
        <time>2021-05-30T06:52:50.000Z</time>
      </trkpt>
      <trkpt lat="47.82918" lon="7.04163">
        <ele>741.40002441406</ele>
        <time>2021-05-30T06:52:51.000Z</time>
      </trkpt>
      <trkpt lat="47.82916" lon="7.04163">
        <ele>742.40002441406</ele>
        <time>2021-05-30T06:52:52.000Z</time>
      </trkpt>
      <trkpt lat="47.82914" lon="7.04164">
        <ele>743</ele>
        <time>2021-05-30T06:52:53.000Z</time>
      </trkpt>
      <trkpt lat="47.82912" lon="7.04164">
        <ele>743.59997558594</ele>
        <time>2021-05-30T06:52:54.000Z</time>
      </trkpt>
      <trkpt lat="47.8291" lon="7.04163">
        <ele>744</ele>
        <time>2021-05-30T06:52:55.000Z</time>
      </trkpt>
      <trkpt lat="47.82908" lon="7.04163">
        <ele>744.59997558594</ele>
        <time>2021-05-30T06:52:56.000Z</time>
      </trkpt>
      <trkpt lat="47.82904" lon="7.04162">
        <ele>745</ele>
        <time>2021-05-30T06:52:58.000Z</time>
      </trkpt>
      <trkpt lat="47.82901" lon="7.04162">
        <ele>745.59997558594</ele>
        <time>2021-05-30T06:52:59.000Z</time>
      </trkpt>
      <trkpt lat="47.82899" lon="7.04163">
        <ele>746</ele>
        <time>2021-05-30T06:53:00.000Z</time>
      </trkpt>
      <trkpt lat="47.82898" lon="7.04163">
        <ele>746.40002441406</ele>
        <time>2021-05-30T06:53:01.000Z</time>
      </trkpt>
      <trkpt lat="47.82896" lon="7.04163">
        <ele>746.79998779297</ele>
        <time>2021-05-30T06:53:02.000Z</time>
      </trkpt>
      <trkpt lat="47.82886" lon="7.04161">
        <ele>747.20001220703</ele>
        <time>2021-05-30T06:53:07.000Z</time>
      </trkpt>
      <trkpt lat="47.82884" lon="7.0416">
        <ele>747.59997558594</ele>
        <time>2021-05-30T06:53:08.000Z</time>
      </trkpt>
      <trkpt lat="47.82883" lon="7.0416">
        <ele>748</ele>
        <time>2021-05-30T06:53:09.000Z</time>
      </trkpt>
      <trkpt lat="47.82881" lon="7.0416">
        <ele>748.40002441406</ele>
        <time>2021-05-30T06:53:10.000Z</time>
      </trkpt>
      <trkpt lat="47.82879" lon="7.0416">
        <ele>748.79998779297</ele>
        <time>2021-05-30T06:53:11.000Z</time>
      </trkpt>
      <trkpt lat="47.82876" lon="7.0416">
        <ele>748.79998779297</ele>
        <time>2021-05-30T06:53:13.000Z</time>
      </trkpt>
      <trkpt lat="47.82874" lon="7.04161">
        <ele>749.40002441406</ele>
        <time>2021-05-30T06:53:14.000Z</time>
      </trkpt>
      <trkpt lat="47.82872" lon="7.04161">
        <ele>749.79998779297</ele>
        <time>2021-05-30T06:53:15.000Z</time>
      </trkpt>
      <trkpt lat="47.8287" lon="7.04163">
        <ele>750.20001220703</ele>
        <time>2021-05-30T06:53:16.000Z</time>
      </trkpt>
      <trkpt lat="47.82868" lon="7.04164">
        <ele>751.20001220703</ele>
        <time>2021-05-30T06:53:17.000Z</time>
      </trkpt>
      <trkpt lat="47.82862" lon="7.04166">
        <ele>751.59997558594</ele>
        <time>2021-05-30T06:53:20.000Z</time>
      </trkpt>
      <trkpt lat="47.8286" lon="7.04168">
        <ele>752</ele>
        <time>2021-05-30T06:53:21.000Z</time>
      </trkpt>
      <trkpt lat="47.82858" lon="7.04169">
        <ele>752.40002441406</ele>
        <time>2021-05-30T06:53:22.000Z</time>
      </trkpt>
      <trkpt lat="47.82856" lon="7.0417">
        <ele>752.79998779297</ele>
        <time>2021-05-30T06:53:23.000Z</time>
      </trkpt>
      <trkpt lat="47.82854" lon="7.0417">
        <ele>753.40002441406</ele>
        <time>2021-05-30T06:53:24.000Z</time>
      </trkpt>
      <trkpt lat="47.82851" lon="7.04172">
        <ele>753.79998779297</ele>
        <time>2021-05-30T06:53:26.000Z</time>
      </trkpt>
      <trkpt lat="47.82849" lon="7.04174">
        <ele>754.20001220703</ele>
        <time>2021-05-30T06:53:27.000Z</time>
      </trkpt>
      <trkpt lat="47.82848" lon="7.04175">
        <ele>754.59997558594</ele>
        <time>2021-05-30T06:53:28.000Z</time>
      </trkpt>
      <trkpt lat="47.82847" lon="7.04177">
        <ele>755</ele>
        <time>2021-05-30T06:53:29.000Z</time>
      </trkpt>
      <trkpt lat="47.82845" lon="7.04178">
        <ele>755.59997558594</ele>
        <time>2021-05-30T06:53:30.000Z</time>
      </trkpt>
      <trkpt lat="47.82839" lon="7.04184">
        <ele>756</ele>
        <time>2021-05-30T06:53:33.000Z</time>
      </trkpt>
      <trkpt lat="47.82836" lon="7.04185">
        <ele>756.40002441406</ele>
        <time>2021-05-30T06:53:34.000Z</time>
      </trkpt>
      <trkpt lat="47.82833" lon="7.04187">
        <ele>756.79998779297</ele>
        <time>2021-05-30T06:53:35.000Z</time>
      </trkpt>
      <trkpt lat="47.82831" lon="7.04188">
        <ele>757.20001220703</ele>
        <time>2021-05-30T06:53:36.000Z</time>
      </trkpt>
      <trkpt lat="47.8283" lon="7.04189">
        <ele>757.79998779297</ele>
        <time>2021-05-30T06:53:37.000Z</time>
      </trkpt>
      <trkpt lat="47.82826" lon="7.04191">
        <ele>758.20001220703</ele>
        <time>2021-05-30T06:53:40.000Z</time>
      </trkpt>
      <trkpt lat="47.82824" lon="7.04192">
        <ele>758.59997558594</ele>
        <time>2021-05-30T06:53:41.000Z</time>
      </trkpt>
      <trkpt lat="47.82822" lon="7.04194">
        <ele>759.59997558594</ele>
        <time>2021-05-30T06:53:42.000Z</time>
      </trkpt>
      <trkpt lat="47.82821" lon="7.04195">
        <ele>760</ele>
        <time>2021-05-30T06:53:43.000Z</time>
      </trkpt>
      <trkpt lat="47.82813" lon="7.04195">
        <ele>760</ele>
        <time>2021-05-30T06:53:47.000Z</time>
      </trkpt>
      <trkpt lat="47.82811" lon="7.04194">
        <ele>760.40002441406</ele>
        <time>2021-05-30T06:53:48.000Z</time>
      </trkpt>
      <trkpt lat="47.8281" lon="7.04194">
        <ele>760.79998779297</ele>
        <time>2021-05-30T06:53:49.000Z</time>
      </trkpt>
      <trkpt lat="47.82808" lon="7.04194">
        <ele>761.20001220703</ele>
        <time>2021-05-30T06:53:50.000Z</time>
      </trkpt>
      <trkpt lat="47.82806" lon="7.04193">
        <ele>761.79998779297</ele>
        <time>2021-05-30T06:53:51.000Z</time>
      </trkpt>
      <trkpt lat="47.82805" lon="7.04192">
        <ele>762.20001220703</ele>
        <time>2021-05-30T06:53:52.000Z</time>
      </trkpt>
      <trkpt lat="47.82801" lon="7.04189">
        <ele>762.59997558594</ele>
        <time>2021-05-30T06:53:54.000Z</time>
      </trkpt>
      <trkpt lat="47.82799" lon="7.04187">
        <ele>763</ele>
        <time>2021-05-30T06:53:55.000Z</time>
      </trkpt>
      <trkpt lat="47.82798" lon="7.04187">
        <ele>763.40002441406</ele>
        <time>2021-05-30T06:53:56.000Z</time>
      </trkpt>
      <trkpt lat="47.82796" lon="7.04186">
        <ele>763.79998779297</ele>
        <time>2021-05-30T06:53:57.000Z</time>
      </trkpt>
      <trkpt lat="47.82795" lon="7.04184">
        <ele>764.20001220703</ele>
        <time>2021-05-30T06:53:58.000Z</time>
      </trkpt>
      <trkpt lat="47.82795" lon="7.04184">
        <ele>764.79998779297</ele>
        <time>2021-05-30T06:53:59.000Z</time>
      </trkpt>
      <trkpt lat="47.82795" lon="7.04184">
        <ele>765.20001220703</ele>
        <time>2021-05-30T06:54:00.000Z</time>
      </trkpt>
      <trkpt lat="47.828" lon="7.04183">
        <ele>766.20001220703</ele>
        <time>2021-05-30T06:58:38.000Z</time>
      </trkpt>
      <trkpt lat="47.82805" lon="7.04185">
        <ele>766.20001220703</ele>
        <time>2021-05-30T06:58:41.000Z</time>
      </trkpt>
      <trkpt lat="47.82818" lon="7.04181">
        <ele>766.20001220703</ele>
        <time>2021-05-30T06:58:47.000Z</time>
      </trkpt>
      <trkpt lat="47.82819" lon="7.04179">
        <ele>766.59997558594</ele>
        <time>2021-05-30T06:58:48.000Z</time>
      </trkpt>
      <trkpt lat="47.82821" lon="7.04178">
        <ele>767</ele>
        <time>2021-05-30T06:58:49.000Z</time>
      </trkpt>
      <trkpt lat="47.82822" lon="7.04175">
        <ele>767.40002441406</ele>
        <time>2021-05-30T06:58:50.000Z</time>
      </trkpt>
      <trkpt lat="47.82824" lon="7.04172">
        <ele>767.79998779297</ele>
        <time>2021-05-30T06:58:51.000Z</time>
      </trkpt>
      <trkpt lat="47.82826" lon="7.04169">
        <ele>768.20001220703</ele>
        <time>2021-05-30T06:58:52.000Z</time>
      </trkpt>
      <trkpt lat="47.82838" lon="7.04154">
        <ele>768.20001220703</ele>
        <time>2021-05-30T06:58:58.000Z</time>
      </trkpt>
      <trkpt lat="47.82851" lon="7.04142">
        <ele>768.59997558594</ele>
        <time>2021-05-30T06:59:04.000Z</time>
      </trkpt>
      <trkpt lat="47.82853" lon="7.04141">
        <ele>769</ele>
        <time>2021-05-30T06:59:05.000Z</time>
      </trkpt>
      <trkpt lat="47.82856" lon="7.0414">
        <ele>769.59997558594</ele>
        <time>2021-05-30T06:59:06.000Z</time>
      </trkpt>
      <trkpt lat="47.82858" lon="7.04139">
        <ele>770</ele>
        <time>2021-05-30T06:59:07.000Z</time>
      </trkpt>
      <trkpt lat="47.82859" lon="7.04137">
        <ele>770.40002441406</ele>
        <time>2021-05-30T06:59:08.000Z</time>
      </trkpt>
      <trkpt lat="47.82865" lon="7.04135">
        <ele>770.40002441406</ele>
        <time>2021-05-30T06:59:11.000Z</time>
      </trkpt>
      <trkpt lat="47.82877" lon="7.04127">
        <ele>770.40002441406</ele>
        <time>2021-05-30T06:59:17.000Z</time>
      </trkpt>
      <trkpt lat="47.82892" lon="7.04117">
        <ele>770.40002441406</ele>
        <time>2021-05-30T06:59:22.000Z</time>
      </trkpt>
      <trkpt lat="47.82905" lon="7.04105">
        <ele>770.79998779297</ele>
        <time>2021-05-30T06:59:28.000Z</time>
      </trkpt>
      <trkpt lat="47.82907" lon="7.04102">
        <ele>771.20001220703</ele>
        <time>2021-05-30T06:59:29.000Z</time>
      </trkpt>
      <trkpt lat="47.82909" lon="7.04099">
        <ele>771.59997558594</ele>
        <time>2021-05-30T06:59:30.000Z</time>
      </trkpt>
      <trkpt lat="47.8291" lon="7.04097">
        <ele>772</ele>
        <time>2021-05-30T06:59:31.000Z</time>
      </trkpt>
      <trkpt lat="47.8291" lon="7.04095">
        <ele>772.40002441406</ele>
        <time>2021-05-30T06:59:32.000Z</time>
      </trkpt>
      <trkpt lat="47.8291" lon="7.0409">
        <ele>772.40002441406</ele>
        <time>2021-05-30T06:59:34.000Z</time>
      </trkpt>
      <trkpt lat="47.82908" lon="7.04078">
        <ele>772.40002441406</ele>
        <time>2021-05-30T06:59:41.000Z</time>
      </trkpt>
      <trkpt lat="47.82908" lon="7.04075">
        <ele>772.40002441406</ele>
        <time>2021-05-30T06:59:42.000Z</time>
      </trkpt>
      <trkpt lat="47.82911" lon="7.04067">
        <ele>772.40002441406</ele>
        <time>2021-05-30T06:59:46.000Z</time>
      </trkpt>
      <trkpt lat="47.8291" lon="7.04065">
        <ele>772.79998779297</ele>
        <time>2021-05-30T06:59:47.000Z</time>
      </trkpt>
      <trkpt lat="47.8291" lon="7.04063">
        <ele>773.20001220703</ele>
        <time>2021-05-30T06:59:48.000Z</time>
      </trkpt>
      <trkpt lat="47.82909" lon="7.04061">
        <ele>773.59997558594</ele>
        <time>2021-05-30T06:59:49.000Z</time>
      </trkpt>
      <trkpt lat="47.82908" lon="7.04058">
        <ele>774</ele>
        <time>2021-05-30T06:59:50.000Z</time>
      </trkpt>
      <trkpt lat="47.82908" lon="7.04056">
        <ele>774.40002441406</ele>
        <time>2021-05-30T06:59:51.000Z</time>
      </trkpt>
      <trkpt lat="47.82908" lon="7.04054">
        <ele>774.40002441406</ele>
        <time>2021-05-30T06:59:52.000Z</time>
      </trkpt>
      <trkpt lat="47.82907" lon="7.04046">
        <ele>774.40002441406</ele>
        <time>2021-05-30T06:59:55.000Z</time>
      </trkpt>
      <trkpt lat="47.82907" lon="7.04043">
        <ele>774.79998779297</ele>
        <time>2021-05-30T06:59:56.000Z</time>
      </trkpt>
      <trkpt lat="47.82907" lon="7.04041">
        <ele>775.20001220703</ele>
        <time>2021-05-30T06:59:57.000Z</time>
      </trkpt>
      <trkpt lat="47.82906" lon="7.04038">
        <ele>775.59997558594</ele>
        <time>2021-05-30T06:59:58.000Z</time>
      </trkpt>
      <trkpt lat="47.82907" lon="7.04036">
        <ele>776.59997558594</ele>
        <time>2021-05-30T06:59:59.000Z</time>
      </trkpt>
      <trkpt lat="47.82907" lon="7.04032">
        <ele>776.59997558594</ele>
        <time>2021-05-30T07:00:01.000Z</time>
      </trkpt>
      <trkpt lat="47.82908" lon="7.04023">
        <ele>777</ele>
        <time>2021-05-30T07:00:04.000Z</time>
      </trkpt>
      <trkpt lat="47.82908" lon="7.04021">
        <ele>777.40002441406</ele>
        <time>2021-05-30T07:00:05.000Z</time>
      </trkpt>
      <trkpt lat="47.82908" lon="7.04019">
        <ele>777.79998779297</ele>
        <time>2021-05-30T07:00:06.000Z</time>
      </trkpt>
      <trkpt lat="47.82908" lon="7.04017">
        <ele>778.20001220703</ele>
        <time>2021-05-30T07:00:07.000Z</time>
      </trkpt>
      <trkpt lat="47.82908" lon="7.04015">
        <ele>778.59997558594</ele>
        <time>2021-05-30T07:00:08.000Z</time>
      </trkpt>
      <trkpt lat="47.82909" lon="7.04004">
        <ele>779</ele>
        <time>2021-05-30T07:00:12.000Z</time>
      </trkpt>
      <trkpt lat="47.82909" lon="7.04001">
        <ele>779.40002441406</ele>
        <time>2021-05-30T07:00:13.000Z</time>
      </trkpt>
      <trkpt lat="47.82909" lon="7.03998">
        <ele>779.79998779297</ele>
        <time>2021-05-30T07:00:14.000Z</time>
      </trkpt>
      <trkpt lat="47.82909" lon="7.03995">
        <ele>780.20001220703</ele>
        <time>2021-05-30T07:00:15.000Z</time>
      </trkpt>
      <trkpt lat="47.82908" lon="7.03992">
        <ele>780.59997558594</ele>
        <time>2021-05-30T07:00:16.000Z</time>
      </trkpt>
      <trkpt lat="47.82906" lon="7.03979">
        <ele>781</ele>
        <time>2021-05-30T07:00:21.000Z</time>
      </trkpt>
      <trkpt lat="47.82906" lon="7.03977">
        <ele>781.40002441406</ele>
        <time>2021-05-30T07:00:22.000Z</time>
      </trkpt>
      <trkpt lat="47.82906" lon="7.03974">
        <ele>781.79998779297</ele>
        <time>2021-05-30T07:00:23.000Z</time>
      </trkpt>
      <trkpt lat="47.82907" lon="7.03971">
        <ele>782.79998779297</ele>
        <time>2021-05-30T07:00:24.000Z</time>
      </trkpt>
      <trkpt lat="47.82906" lon="7.03961">
        <ele>782.79998779297</ele>
        <time>2021-05-30T07:00:28.000Z</time>
      </trkpt>
      <trkpt lat="47.82906" lon="7.03958">
        <ele>783.20001220703</ele>
        <time>2021-05-30T07:00:29.000Z</time>
      </trkpt>
      <trkpt lat="47.82905" lon="7.03956">
        <ele>783.59997558594</ele>
        <time>2021-05-30T07:00:30.000Z</time>
      </trkpt>
      <trkpt lat="47.82905" lon="7.03954">
        <ele>784</ele>
        <time>2021-05-30T07:00:31.000Z</time>
      </trkpt>
      <trkpt lat="47.82905" lon="7.03951">
        <ele>784.40002441406</ele>
        <time>2021-05-30T07:00:32.000Z</time>
      </trkpt>
      <trkpt lat="47.82905" lon="7.03948">
        <ele>784.79998779297</ele>
        <time>2021-05-30T07:00:33.000Z</time>
      </trkpt>
      <trkpt lat="47.82904" lon="7.03943">
        <ele>784.79998779297</ele>
        <time>2021-05-30T07:00:35.000Z</time>
      </trkpt>
      <trkpt lat="47.82902" lon="7.03934">
        <ele>785.20001220703</ele>
        <time>2021-05-30T07:00:39.000Z</time>
      </trkpt>
      <trkpt lat="47.82901" lon="7.03932">
        <ele>785.79998779297</ele>
        <time>2021-05-30T07:00:40.000Z</time>
      </trkpt>
      <trkpt lat="47.82901" lon="7.03929">
        <ele>786.20001220703</ele>
        <time>2021-05-30T07:00:41.000Z</time>
      </trkpt>
      <trkpt lat="47.829" lon="7.03927">
        <ele>786.59997558594</ele>
        <time>2021-05-30T07:00:42.000Z</time>
      </trkpt>
      <trkpt lat="47.829" lon="7.03924">
        <ele>787</ele>
        <time>2021-05-30T07:00:43.000Z</time>
      </trkpt>
      <trkpt lat="47.82901" lon="7.03915">
        <ele>787</ele>
        <time>2021-05-30T07:00:46.000Z</time>
      </trkpt>
      <trkpt lat="47.82902" lon="7.03912">
        <ele>787.40002441406</ele>
        <time>2021-05-30T07:00:47.000Z</time>
      </trkpt>
      <trkpt lat="47.82902" lon="7.03909">
        <ele>787.79998779297</ele>
        <time>2021-05-30T07:00:48.000Z</time>
      </trkpt>
      <trkpt lat="47.82902" lon="7.03905">
        <ele>788.59997558594</ele>
        <time>2021-05-30T07:00:49.000Z</time>
      </trkpt>
      <trkpt lat="47.82902" lon="7.03902">
        <ele>789</ele>
        <time>2021-05-30T07:00:50.000Z</time>
      </trkpt>
      <trkpt lat="47.829" lon="7.03894">
        <ele>789</ele>
        <time>2021-05-30T07:00:54.000Z</time>
      </trkpt>
      <trkpt lat="47.82899" lon="7.03889">
        <ele>789.40002441406</ele>
        <time>2021-05-30T07:00:56.000Z</time>
      </trkpt>
      <trkpt lat="47.82899" lon="7.03886">
        <ele>789.79998779297</ele>
        <time>2021-05-30T07:00:57.000Z</time>
      </trkpt>
      <trkpt lat="47.82899" lon="7.03883">
        <ele>790.20001220703</ele>
        <time>2021-05-30T07:00:58.000Z</time>
      </trkpt>
      <trkpt lat="47.82899" lon="7.03881">
        <ele>790.79998779297</ele>
        <time>2021-05-30T07:00:59.000Z</time>
      </trkpt>
      <trkpt lat="47.82899" lon="7.03879">
        <ele>791.20001220703</ele>
        <time>2021-05-30T07:01:00.000Z</time>
      </trkpt>
      <trkpt lat="47.829" lon="7.03876">
        <ele>791.20001220703</ele>
        <time>2021-05-30T07:01:01.000Z</time>
      </trkpt>
      <trkpt lat="47.82901" lon="7.03862">
        <ele>791.59997558594</ele>
        <time>2021-05-30T07:01:07.000Z</time>
      </trkpt>
      <trkpt lat="47.82901" lon="7.03859">
        <ele>792</ele>
        <time>2021-05-30T07:01:08.000Z</time>
      </trkpt>
      <trkpt lat="47.82901" lon="7.03856">
        <ele>792.40002441406</ele>
        <time>2021-05-30T07:01:09.000Z</time>
      </trkpt>
      <trkpt lat="47.82901" lon="7.03853">
        <ele>792.79998779297</ele>
        <time>2021-05-30T07:01:10.000Z</time>
      </trkpt>
      <trkpt lat="47.82901" lon="7.03851">
        <ele>793.40002441406</ele>
        <time>2021-05-30T07:01:11.000Z</time>
      </trkpt>
      <trkpt lat="47.829" lon="7.03845">
        <ele>793.40002441406</ele>
        <time>2021-05-30T07:01:14.000Z</time>
      </trkpt>
      <trkpt lat="47.829" lon="7.03841">
        <ele>793.79998779297</ele>
        <time>2021-05-30T07:01:16.000Z</time>
      </trkpt>
      <trkpt lat="47.829" lon="7.03838">
        <ele>794.20001220703</ele>
        <time>2021-05-30T07:01:17.000Z</time>
      </trkpt>
      <trkpt lat="47.82899" lon="7.03836">
        <ele>794.59997558594</ele>
        <time>2021-05-30T07:01:18.000Z</time>
      </trkpt>
      <trkpt lat="47.82899" lon="7.03833">
        <ele>795.20001220703</ele>
        <time>2021-05-30T07:01:19.000Z</time>
      </trkpt>
      <trkpt lat="47.82899" lon="7.0383">
        <ele>795.59997558594</ele>
        <time>2021-05-30T07:01:20.000Z</time>
      </trkpt>
      <trkpt lat="47.82899" lon="7.03827">
        <ele>795.59997558594</ele>
        <time>2021-05-30T07:01:21.000Z</time>
      </trkpt>
      <trkpt lat="47.82897" lon="7.03813">
        <ele>796</ele>
        <time>2021-05-30T07:01:26.000Z</time>
      </trkpt>
      <trkpt lat="47.82897" lon="7.03811">
        <ele>796.40002441406</ele>
        <time>2021-05-30T07:01:27.000Z</time>
      </trkpt>
      <trkpt lat="47.82897" lon="7.03808">
        <ele>796.79998779297</ele>
        <time>2021-05-30T07:01:28.000Z</time>
      </trkpt>
      <trkpt lat="47.82897" lon="7.03806">
        <ele>797.20001220703</ele>
        <time>2021-05-30T07:01:29.000Z</time>
      </trkpt>
      <trkpt lat="47.82896" lon="7.03803">
        <ele>797.59997558594</ele>
        <time>2021-05-30T07:01:30.000Z</time>
      </trkpt>
      <trkpt lat="47.82892" lon="7.03795">
        <ele>797.59997558594</ele>
        <time>2021-05-30T07:01:34.000Z</time>
      </trkpt>
      <trkpt lat="47.8289" lon="7.03793">
        <ele>798</ele>
        <time>2021-05-30T07:01:35.000Z</time>
      </trkpt>
      <trkpt lat="47.82889" lon="7.03792">
        <ele>798.40002441406</ele>
        <time>2021-05-30T07:01:36.000Z</time>
      </trkpt>
      <trkpt lat="47.82888" lon="7.0379">
        <ele>798.79998779297</ele>
        <time>2021-05-30T07:01:37.000Z</time>
      </trkpt>
      <trkpt lat="47.82887" lon="7.03787">
        <ele>799.59997558594</ele>
        <time>2021-05-30T07:01:38.000Z</time>
      </trkpt>
      <trkpt lat="47.82885" lon="7.03779">
        <ele>799.59997558594</ele>
        <time>2021-05-30T07:01:41.000Z</time>
      </trkpt>
      <trkpt lat="47.82882" lon="7.03772">
        <ele>800.20001220703</ele>
        <time>2021-05-30T07:01:44.000Z</time>
      </trkpt>
      <trkpt lat="47.82881" lon="7.03769">
        <ele>800.59997558594</ele>
        <time>2021-05-30T07:01:45.000Z</time>
      </trkpt>
      <trkpt lat="47.8288" lon="7.03768">
        <ele>801</ele>
        <time>2021-05-30T07:01:46.000Z</time>
      </trkpt>
      <trkpt lat="47.8288" lon="7.03766">
        <ele>801.40002441406</ele>
        <time>2021-05-30T07:01:47.000Z</time>
      </trkpt>
      <trkpt lat="47.82878" lon="7.03764">
        <ele>801.79998779297</ele>
        <time>2021-05-30T07:01:48.000Z</time>
      </trkpt>
      <trkpt lat="47.82877" lon="7.03752">
        <ele>801.79998779297</ele>
        <time>2021-05-30T07:01:53.000Z</time>
      </trkpt>
      <trkpt lat="47.82877" lon="7.03747">
        <ele>802.20001220703</ele>
        <time>2021-05-30T07:01:55.000Z</time>
      </trkpt>
      <trkpt lat="47.82876" lon="7.03745">
        <ele>802.59997558594</ele>
        <time>2021-05-30T07:01:56.000Z</time>
      </trkpt>
      <trkpt lat="47.82876" lon="7.03743">
        <ele>803</ele>
        <time>2021-05-30T07:01:57.000Z</time>
      </trkpt>
      <trkpt lat="47.82876" lon="7.03739">
        <ele>803.40002441406</ele>
        <time>2021-05-30T07:01:58.000Z</time>
      </trkpt>
      <trkpt lat="47.82877" lon="7.03737">
        <ele>804</ele>
        <time>2021-05-30T07:01:59.000Z</time>
      </trkpt>
      <trkpt lat="47.82878" lon="7.03726">
        <ele>804.40002441406</ele>
        <time>2021-05-30T07:02:03.000Z</time>
      </trkpt>
      <trkpt lat="47.82879" lon="7.03723">
        <ele>804.79998779297</ele>
        <time>2021-05-30T07:02:04.000Z</time>
      </trkpt>
      <trkpt lat="47.82879" lon="7.0372">
        <ele>805.20001220703</ele>
        <time>2021-05-30T07:02:05.000Z</time>
      </trkpt>
      <trkpt lat="47.8288" lon="7.03718">
        <ele>805.59997558594</ele>
        <time>2021-05-30T07:02:06.000Z</time>
      </trkpt>
      <trkpt lat="47.82879" lon="7.03714">
        <ele>806</ele>
        <time>2021-05-30T07:02:07.000Z</time>
      </trkpt>
      <trkpt lat="47.82878" lon="7.03701">
        <ele>806</ele>
        <time>2021-05-30T07:02:12.000Z</time>
      </trkpt>
      <trkpt lat="47.82878" lon="7.03696">
        <ele>806.40002441406</ele>
        <time>2021-05-30T07:02:14.000Z</time>
      </trkpt>
      <trkpt lat="47.82878" lon="7.03693">
        <ele>806.79998779297</ele>
        <time>2021-05-30T07:02:15.000Z</time>
      </trkpt>
      <trkpt lat="47.82878" lon="7.0369">
        <ele>807.20001220703</ele>
        <time>2021-05-30T07:02:16.000Z</time>
      </trkpt>
      <trkpt lat="47.82878" lon="7.03687">
        <ele>807.59997558594</ele>
        <time>2021-05-30T07:02:17.000Z</time>
      </trkpt>
      <trkpt lat="47.82878" lon="7.03684">
        <ele>808.20001220703</ele>
        <time>2021-05-30T07:02:18.000Z</time>
      </trkpt>
      <trkpt lat="47.82875" lon="7.03672">
        <ele>808.20001220703</ele>
        <time>2021-05-30T07:02:23.000Z</time>
      </trkpt>
      <trkpt lat="47.82874" lon="7.03667">
        <ele>808.59997558594</ele>
        <time>2021-05-30T07:02:25.000Z</time>
      </trkpt>
      <trkpt lat="47.82874" lon="7.03664">
        <ele>809</ele>
        <time>2021-05-30T07:02:26.000Z</time>
      </trkpt>
      <trkpt lat="47.82874" lon="7.03662">
        <ele>809.79998779297</ele>
        <time>2021-05-30T07:02:27.000Z</time>
      </trkpt>
      <trkpt lat="47.82874" lon="7.03659">
        <ele>810.20001220703</ele>
        <time>2021-05-30T07:02:28.000Z</time>
      </trkpt>
      <trkpt lat="47.82873" lon="7.03654">
        <ele>810.20001220703</ele>
        <time>2021-05-30T07:02:30.000Z</time>
      </trkpt>
      <trkpt lat="47.82872" lon="7.03647">
        <ele>810.79998779297</ele>
        <time>2021-05-30T07:02:34.000Z</time>
      </trkpt>
      <trkpt lat="47.82871" lon="7.03645">
        <ele>811.20001220703</ele>
        <time>2021-05-30T07:02:35.000Z</time>
      </trkpt>
      <trkpt lat="47.8287" lon="7.03643">
        <ele>811.59997558594</ele>
        <time>2021-05-30T07:02:36.000Z</time>
      </trkpt>
      <trkpt lat="47.82869" lon="7.03641">
        <ele>812</ele>
        <time>2021-05-30T07:02:37.000Z</time>
      </trkpt>
      <trkpt lat="47.82867" lon="7.03639">
        <ele>812.40002441406</ele>
        <time>2021-05-30T07:02:38.000Z</time>
      </trkpt>
      <trkpt lat="47.82863" lon="7.03631">
        <ele>812.40002441406</ele>
        <time>2021-05-30T07:02:42.000Z</time>
      </trkpt>
      <trkpt lat="47.8286" lon="7.03628">
        <ele>812.79998779297</ele>
        <time>2021-05-30T07:02:44.000Z</time>
      </trkpt>
      <trkpt lat="47.82859" lon="7.03626">
        <ele>813.40002441406</ele>
        <time>2021-05-30T07:02:45.000Z</time>
      </trkpt>
      <trkpt lat="47.82858" lon="7.03624">
        <ele>813.79998779297</ele>
        <time>2021-05-30T07:02:46.000Z</time>
      </trkpt>
      <trkpt lat="47.82857" lon="7.03622">
        <ele>814.20001220703</ele>
        <time>2021-05-30T07:02:47.000Z</time>
      </trkpt>
      <trkpt lat="47.82856" lon="7.03619">
        <ele>814.59997558594</ele>
        <time>2021-05-30T07:02:48.000Z</time>
      </trkpt>
      <trkpt lat="47.82855" lon="7.03615">
        <ele>814.59997558594</ele>
        <time>2021-05-30T07:02:50.000Z</time>
      </trkpt>
      <trkpt lat="47.82853" lon="7.03611">
        <ele>815</ele>
        <time>2021-05-30T07:02:52.000Z</time>
      </trkpt>
      <trkpt lat="47.82852" lon="7.03609">
        <ele>815.40002441406</ele>
        <time>2021-05-30T07:02:53.000Z</time>
      </trkpt>
      <trkpt lat="47.82852" lon="7.03607">
        <ele>815.79998779297</ele>
        <time>2021-05-30T07:02:54.000Z</time>
      </trkpt>
      <trkpt lat="47.8285" lon="7.03605">
        <ele>816.20001220703</ele>
        <time>2021-05-30T07:02:55.000Z</time>
      </trkpt>
      <trkpt lat="47.82849" lon="7.03602">
        <ele>816.59997558594</ele>
        <time>2021-05-30T07:02:56.000Z</time>
      </trkpt>
      <trkpt lat="47.82846" lon="7.03593">
        <ele>816.59997558594</ele>
        <time>2021-05-30T07:03:00.000Z</time>
      </trkpt>
      <trkpt lat="47.82845" lon="7.03591">
        <ele>817</ele>
        <time>2021-05-30T07:03:01.000Z</time>
      </trkpt>
      <trkpt lat="47.82844" lon="7.03588">
        <ele>817.40002441406</ele>
        <time>2021-05-30T07:03:02.000Z</time>
      </trkpt>
      <trkpt lat="47.82843" lon="7.03586">
        <ele>817.79998779297</ele>
        <time>2021-05-30T07:03:03.000Z</time>
      </trkpt>
      <trkpt lat="47.82842" lon="7.03584">
        <ele>818.40002441406</ele>
        <time>2021-05-30T07:03:04.000Z</time>
      </trkpt>
      <trkpt lat="47.82842" lon="7.03581">
        <ele>818.79998779297</ele>
        <time>2021-05-30T07:03:05.000Z</time>
      </trkpt>
      <trkpt lat="47.82841" lon="7.03576">
        <ele>818.79998779297</ele>
        <time>2021-05-30T07:03:07.000Z</time>
      </trkpt>
      <trkpt lat="47.82838" lon="7.03569">
        <ele>819.20001220703</ele>
        <time>2021-05-30T07:03:10.000Z</time>
      </trkpt>
      <trkpt lat="47.82838" lon="7.03567">
        <ele>819.59997558594</ele>
        <time>2021-05-30T07:03:11.000Z</time>
      </trkpt>
      <trkpt lat="47.82837" lon="7.03565">
        <ele>820</ele>
        <time>2021-05-30T07:03:12.000Z</time>
      </trkpt>
      <trkpt lat="47.82837" lon="7.03563">
        <ele>820.40002441406</ele>
        <time>2021-05-30T07:03:13.000Z</time>
      </trkpt>
      <trkpt lat="47.82837" lon="7.03561">
        <ele>820.79998779297</ele>
        <time>2021-05-30T07:03:14.000Z</time>
      </trkpt>
      <trkpt lat="47.82836" lon="7.03558">
        <ele>820.79998779297</ele>
        <time>2021-05-30T07:03:15.000Z</time>
      </trkpt>
      <trkpt lat="47.82837" lon="7.0355">
        <ele>820.79998779297</ele>
        <time>2021-05-30T07:03:19.000Z</time>
      </trkpt>
      <trkpt lat="47.82837" lon="7.03548">
        <ele>821.20001220703</ele>
        <time>2021-05-30T07:03:20.000Z</time>
      </trkpt>
      <trkpt lat="47.82837" lon="7.03545">
        <ele>821.59997558594</ele>
        <time>2021-05-30T07:03:21.000Z</time>
      </trkpt>
      <trkpt lat="47.82837" lon="7.03544">
        <ele>822.20001220703</ele>
        <time>2021-05-30T07:03:22.000Z</time>
      </trkpt>
      <trkpt lat="47.82837" lon="7.03542">
        <ele>822.59997558594</ele>
        <time>2021-05-30T07:03:23.000Z</time>
      </trkpt>
      <trkpt lat="47.82837" lon="7.0354">
        <ele>823</ele>
        <time>2021-05-30T07:03:24.000Z</time>
      </trkpt>
      <trkpt lat="47.82837" lon="7.03538">
        <ele>823</ele>
        <time>2021-05-30T07:03:25.000Z</time>
      </trkpt>
      <trkpt lat="47.82835" lon="7.03533">
        <ele>823</ele>
        <time>2021-05-30T07:03:27.000Z</time>
      </trkpt>
      <trkpt lat="47.82832" lon="7.03529">
        <ele>823.40002441406</ele>
        <time>2021-05-30T07:03:29.000Z</time>
      </trkpt>
      <trkpt lat="47.82831" lon="7.03527">
        <ele>823.79998779297</ele>
        <time>2021-05-30T07:03:30.000Z</time>
      </trkpt>
      <trkpt lat="47.8283" lon="7.03525">
        <ele>824.20001220703</ele>
        <time>2021-05-30T07:03:31.000Z</time>
      </trkpt>
      <trkpt lat="47.82829" lon="7.03523">
        <ele>824.59997558594</ele>
        <time>2021-05-30T07:03:32.000Z</time>
      </trkpt>
      <trkpt lat="47.82828" lon="7.03521">
        <ele>825</ele>
        <time>2021-05-30T07:03:33.000Z</time>
      </trkpt>
      <trkpt lat="47.82826" lon="7.03518">
        <ele>825</ele>
        <time>2021-05-30T07:03:35.000Z</time>
      </trkpt>
      <trkpt lat="47.82823" lon="7.03514">
        <ele>825</ele>
        <time>2021-05-30T07:03:37.000Z</time>
      </trkpt>
      <trkpt lat="47.82822" lon="7.0351">
        <ele>825.40002441406</ele>
        <time>2021-05-30T07:03:39.000Z</time>
      </trkpt>
      <trkpt lat="47.82821" lon="7.03507">
        <ele>826</ele>
        <time>2021-05-30T07:03:40.000Z</time>
      </trkpt>
      <trkpt lat="47.82821" lon="7.03505">
        <ele>826.79998779297</ele>
        <time>2021-05-30T07:03:41.000Z</time>
      </trkpt>
      <trkpt lat="47.82821" lon="7.03503">
        <ele>827.20001220703</ele>
        <time>2021-05-30T07:03:42.000Z</time>
      </trkpt>
      <trkpt lat="47.82819" lon="7.03501">
        <ele>827.20001220703</ele>
        <time>2021-05-30T07:03:43.000Z</time>
      </trkpt>
      <trkpt lat="47.82815" lon="7.03493">
        <ele>827.59997558594</ele>
        <time>2021-05-30T07:03:47.000Z</time>
      </trkpt>
      <trkpt lat="47.82814" lon="7.03491">
        <ele>828.20001220703</ele>
        <time>2021-05-30T07:03:48.000Z</time>
      </trkpt>
      <trkpt lat="47.82812" lon="7.03489">
        <ele>828.59997558594</ele>
        <time>2021-05-30T07:03:49.000Z</time>
      </trkpt>
      <trkpt lat="47.82811" lon="7.03487">
        <ele>829</ele>
        <time>2021-05-30T07:03:50.000Z</time>
      </trkpt>
      <trkpt lat="47.8281" lon="7.03484">
        <ele>829.40002441406</ele>
        <time>2021-05-30T07:03:51.000Z</time>
      </trkpt>
      <trkpt lat="47.82806" lon="7.03476">
        <ele>829.40002441406</ele>
        <time>2021-05-30T07:03:55.000Z</time>
      </trkpt>
      <trkpt lat="47.82805" lon="7.03472">
        <ele>829.79998779297</ele>
        <time>2021-05-30T07:03:57.000Z</time>
      </trkpt>
      <trkpt lat="47.82805" lon="7.0347">
        <ele>830.20001220703</ele>
        <time>2021-05-30T07:03:58.000Z</time>
      </trkpt>
      <trkpt lat="47.82805" lon="7.03468">
        <ele>830.59997558594</ele>
        <time>2021-05-30T07:03:59.000Z</time>
      </trkpt>
      <trkpt lat="47.82805" lon="7.03466">
        <ele>831</ele>
        <time>2021-05-30T07:04:00.000Z</time>
      </trkpt>
      <trkpt lat="47.82805" lon="7.03464">
        <ele>831.40002441406</ele>
        <time>2021-05-30T07:04:01.000Z</time>
      </trkpt>
      <trkpt lat="47.82804" lon="7.0346">
        <ele>831.40002441406</ele>
        <time>2021-05-30T07:04:03.000Z</time>
      </trkpt>
      <trkpt lat="47.82804" lon="7.03453">
        <ele>831.40002441406</ele>
        <time>2021-05-30T07:04:07.000Z</time>
      </trkpt>
      <trkpt lat="47.82804" lon="7.03451">
        <ele>831.79998779297</ele>
        <time>2021-05-30T07:04:08.000Z</time>
      </trkpt>
      <trkpt lat="47.82804" lon="7.03448">
        <ele>832.20001220703</ele>
        <time>2021-05-30T07:04:09.000Z</time>
      </trkpt>
      <trkpt lat="47.82803" lon="7.03446">
        <ele>832.59997558594</ele>
        <time>2021-05-30T07:04:10.000Z</time>
      </trkpt>
      <trkpt lat="47.82802" lon="7.03444">
        <ele>833</ele>
        <time>2021-05-30T07:04:11.000Z</time>
      </trkpt>
      <trkpt lat="47.82801" lon="7.03442">
        <ele>833.40002441406</ele>
        <time>2021-05-30T07:04:12.000Z</time>
      </trkpt>
      <trkpt lat="47.828" lon="7.03434">
        <ele>833.40002441406</ele>
        <time>2021-05-30T07:04:16.000Z</time>
      </trkpt>
      <trkpt lat="47.828" lon="7.03432">
        <ele>833.40002441406</ele>
        <time>2021-05-30T07:04:17.000Z</time>
      </trkpt>
      <trkpt lat="47.82803" lon="7.03419">
        <ele>833.79998779297</ele>
        <time>2021-05-30T07:04:22.000Z</time>
      </trkpt>
      <trkpt lat="47.82804" lon="7.03416">
        <ele>834.20001220703</ele>
        <time>2021-05-30T07:04:23.000Z</time>
      </trkpt>
      <trkpt lat="47.82806" lon="7.03414">
        <ele>834.79998779297</ele>
        <time>2021-05-30T07:04:24.000Z</time>
      </trkpt>
      <trkpt lat="47.82807" lon="7.03411">
        <ele>835.20001220703</ele>
        <time>2021-05-30T07:04:25.000Z</time>
      </trkpt>
      <trkpt lat="47.82806" lon="7.03408">
        <ele>835.59997558594</ele>
        <time>2021-05-30T07:04:26.000Z</time>
      </trkpt>
      <trkpt lat="47.82811" lon="7.0339">
        <ele>835.59997558594</ele>
        <time>2021-05-30T07:04:34.000Z</time>
      </trkpt>
      <trkpt lat="47.82813" lon="7.03388">
        <ele>836</ele>
        <time>2021-05-30T07:04:35.000Z</time>
      </trkpt>
      <trkpt lat="47.82813" lon="7.03386">
        <ele>836.40002441406</ele>
        <time>2021-05-30T07:04:36.000Z</time>
      </trkpt>
      <trkpt lat="47.82814" lon="7.03383">
        <ele>836.79998779297</ele>
        <time>2021-05-30T07:04:37.000Z</time>
      </trkpt>
      <trkpt lat="47.82813" lon="7.03381">
        <ele>837.20001220703</ele>
        <time>2021-05-30T07:04:38.000Z</time>
      </trkpt>
      <trkpt lat="47.82815" lon="7.03378">
        <ele>837.59997558594</ele>
        <time>2021-05-30T07:04:39.000Z</time>
      </trkpt>
      <trkpt lat="47.82816" lon="7.03376">
        <ele>837.59997558594</ele>
        <time>2021-05-30T07:04:40.000Z</time>
      </trkpt>
      <trkpt lat="47.82817" lon="7.03365">
        <ele>837.59997558594</ele>
        <time>2021-05-30T07:04:45.000Z</time>
      </trkpt>
      <trkpt lat="47.82817" lon="7.0336">
        <ele>837.59997558594</ele>
        <time>2021-05-30T07:04:47.000Z</time>
      </trkpt>
      <trkpt lat="47.82818" lon="7.03357">
        <ele>838</ele>
        <time>2021-05-30T07:04:48.000Z</time>
      </trkpt>
      <trkpt lat="47.82818" lon="7.03354">
        <ele>838.40002441406</ele>
        <time>2021-05-30T07:04:49.000Z</time>
      </trkpt>
      <trkpt lat="47.82819" lon="7.03352">
        <ele>838.79998779297</ele>
        <time>2021-05-30T07:04:50.000Z</time>
      </trkpt>
      <trkpt lat="47.82819" lon="7.03349">
        <ele>839.20001220703</ele>
        <time>2021-05-30T07:04:51.000Z</time>
      </trkpt>
      <trkpt lat="47.82819" lon="7.03347">
        <ele>839.59997558594</ele>
        <time>2021-05-30T07:04:52.000Z</time>
      </trkpt>
      <trkpt lat="47.82818" lon="7.03344">
        <ele>839.59997558594</ele>
        <time>2021-05-30T07:04:53.000Z</time>
      </trkpt>
      <trkpt lat="47.82821" lon="7.03328">
        <ele>839.59997558594</ele>
        <time>2021-05-30T07:05:00.000Z</time>
      </trkpt>
      <trkpt lat="47.82821" lon="7.03326">
        <ele>840</ele>
        <time>2021-05-30T07:05:01.000Z</time>
      </trkpt>
      <trkpt lat="47.82822" lon="7.03324">
        <ele>840.40002441406</ele>
        <time>2021-05-30T07:05:02.000Z</time>
      </trkpt>
      <trkpt lat="47.82822" lon="7.03321">
        <ele>840.79998779297</ele>
        <time>2021-05-30T07:05:03.000Z</time>
      </trkpt>
      <trkpt lat="47.82822" lon="7.03319">
        <ele>841.20001220703</ele>
        <time>2021-05-30T07:05:04.000Z</time>
      </trkpt>
      <trkpt lat="47.82822" lon="7.03318">
        <ele>841.59997558594</ele>
        <time>2021-05-30T07:05:05.000Z</time>
      </trkpt>
      <trkpt lat="47.82823" lon="7.03316">
        <ele>841.59997558594</ele>
        <time>2021-05-30T07:05:06.000Z</time>
      </trkpt>
      <trkpt lat="47.82825" lon="7.03302">
        <ele>841.59997558594</ele>
        <time>2021-05-30T07:05:12.000Z</time>
      </trkpt>
      <trkpt lat="47.82824" lon="7.03299">
        <ele>842</ele>
        <time>2021-05-30T07:05:13.000Z</time>
      </trkpt>
      <trkpt lat="47.82824" lon="7.03298">
        <ele>842.40002441406</ele>
        <time>2021-05-30T07:05:14.000Z</time>
      </trkpt>
      <trkpt lat="47.82824" lon="7.03296">
        <ele>842.79998779297</ele>
        <time>2021-05-30T07:05:15.000Z</time>
      </trkpt>
      <trkpt lat="47.82824" lon="7.03294">
        <ele>843.20001220703</ele>
        <time>2021-05-30T07:05:16.000Z</time>
      </trkpt>
      <trkpt lat="47.82824" lon="7.03292">
        <ele>843.79998779297</ele>
        <time>2021-05-30T07:05:17.000Z</time>
      </trkpt>
      <trkpt lat="47.82824" lon="7.03287">
        <ele>843.79998779297</ele>
        <time>2021-05-30T07:05:19.000Z</time>
      </trkpt>
      <trkpt lat="47.82823" lon="7.03283">
        <ele>844.20001220703</ele>
        <time>2021-05-30T07:05:22.000Z</time>
      </trkpt>
      <trkpt lat="47.82823" lon="7.03281">
        <ele>844.59997558594</ele>
        <time>2021-05-30T07:05:23.000Z</time>
      </trkpt>
      <trkpt lat="47.82823" lon="7.0328">
        <ele>845</ele>
        <time>2021-05-30T07:05:24.000Z</time>
      </trkpt>
      <trkpt lat="47.82823" lon="7.03278">
        <ele>845.40002441406</ele>
        <time>2021-05-30T07:05:25.000Z</time>
      </trkpt>
      <trkpt lat="47.82823" lon="7.03277">
        <ele>845.79998779297</ele>
        <time>2021-05-30T07:05:26.000Z</time>
      </trkpt>
      <trkpt lat="47.82827" lon="7.03268">
        <ele>846.20001220703</ele>
        <time>2021-05-30T07:05:32.000Z</time>
      </trkpt>
      <trkpt lat="47.82827" lon="7.03265">
        <ele>846.79998779297</ele>
        <time>2021-05-30T07:05:33.000Z</time>
      </trkpt>
      <trkpt lat="47.82828" lon="7.03261">
        <ele>847.20001220703</ele>
        <time>2021-05-30T07:05:34.000Z</time>
      </trkpt>
      <trkpt lat="47.82829" lon="7.03258">
        <ele>847.59997558594</ele>
        <time>2021-05-30T07:05:35.000Z</time>
      </trkpt>
      <trkpt lat="47.82829" lon="7.03255">
        <ele>848</ele>
        <time>2021-05-30T07:05:36.000Z</time>
      </trkpt>
      <trkpt lat="47.8283" lon="7.0325">
        <ele>848</ele>
        <time>2021-05-30T07:05:38.000Z</time>
      </trkpt>
      <trkpt lat="47.82831" lon="7.0324">
        <ele>848.40002441406</ele>
        <time>2021-05-30T07:05:44.000Z</time>
      </trkpt>
      <trkpt lat="47.82831" lon="7.03238">
        <ele>848.79998779297</ele>
        <time>2021-05-30T07:05:45.000Z</time>
      </trkpt>
      <trkpt lat="47.8283" lon="7.03237">
        <ele>849.20001220703</ele>
        <time>2021-05-30T07:05:46.000Z</time>
      </trkpt>
      <trkpt lat="47.8283" lon="7.03236">
        <ele>849.79998779297</ele>
        <time>2021-05-30T07:05:47.000Z</time>
      </trkpt>
      <trkpt lat="47.82829" lon="7.03235">
        <ele>850.20001220703</ele>
        <time>2021-05-30T07:05:48.000Z</time>
      </trkpt>
      <trkpt lat="47.82828" lon="7.03233">
        <ele>850.20001220703</ele>
        <time>2021-05-30T07:05:49.000Z</time>
      </trkpt>
      <trkpt lat="47.82824" lon="7.03231">
        <ele>850.59997558594</ele>
        <time>2021-05-30T07:05:52.000Z</time>
      </trkpt>
      <trkpt lat="47.82822" lon="7.03231">
        <ele>851</ele>
        <time>2021-05-30T07:05:53.000Z</time>
      </trkpt>
      <trkpt lat="47.8282" lon="7.0323">
        <ele>851.40002441406</ele>
        <time>2021-05-30T07:05:54.000Z</time>
      </trkpt>
      <trkpt lat="47.82818" lon="7.0323">
        <ele>851.79998779297</ele>
        <time>2021-05-30T07:05:55.000Z</time>
      </trkpt>
      <trkpt lat="47.82816" lon="7.0323">
        <ele>852.20001220703</ele>
        <time>2021-05-30T07:05:56.000Z</time>
      </trkpt>
      <trkpt lat="47.82814" lon="7.0323">
        <ele>852.20001220703</ele>
        <time>2021-05-30T07:05:57.000Z</time>
      </trkpt>
      <trkpt lat="47.82811" lon="7.03229">
        <ele>852.20001220703</ele>
        <time>2021-05-30T07:06:00.000Z</time>
      </trkpt>
      <trkpt lat="47.8281" lon="7.03229">
        <ele>852.59997558594</ele>
        <time>2021-05-30T07:06:01.000Z</time>
      </trkpt>
      <trkpt lat="47.8281" lon="7.03229">
        <ele>853</ele>
        <time>2021-05-30T07:06:02.000Z</time>
      </trkpt>
      <trkpt lat="47.82809" lon="7.03229">
        <ele>853.40002441406</ele>
        <time>2021-05-30T07:06:03.000Z</time>
      </trkpt>
      <trkpt lat="47.82813" lon="7.03227">
        <ele>854</ele>
        <time>2021-05-30T07:06:04.000Z</time>
      </trkpt>
      <trkpt lat="47.82831" lon="7.03222">
        <ele>856.20001220703</ele>
        <time>2021-05-30T07:06:12.000Z</time>
      </trkpt>
      <trkpt lat="47.82833" lon="7.03221">
        <ele>856.59997558594</ele>
        <time>2021-05-30T07:06:13.000Z</time>
      </trkpt>
      <trkpt lat="47.82837" lon="7.0322">
        <ele>856.59997558594</ele>
        <time>2021-05-30T07:06:16.000Z</time>
      </trkpt>
      <trkpt lat="47.82841" lon="7.03221">
        <ele>857</ele>
        <time>2021-05-30T07:06:19.000Z</time>
      </trkpt>
      <trkpt lat="47.82841" lon="7.03221">
        <ele>857.40002441406</ele>
        <time>2021-05-30T07:06:20.000Z</time>
      </trkpt>
      <trkpt lat="47.82843" lon="7.0322">
        <ele>857.79998779297</ele>
        <time>2021-05-30T07:06:21.000Z</time>
      </trkpt>
      <trkpt lat="47.82844" lon="7.0322">
        <ele>858.20001220703</ele>
        <time>2021-05-30T07:06:22.000Z</time>
      </trkpt>
      <trkpt lat="47.8286" lon="7.03213">
        <ele>858.59997558594</ele>
        <time>2021-05-30T07:06:23.000Z</time>
      </trkpt>
      <trkpt lat="47.82875" lon="7.03207">
        <ele>858.59997558594</ele>
        <time>2021-05-30T07:06:27.000Z</time>
      </trkpt>
      <trkpt lat="47.82888" lon="7.03197">
        <ele>859</ele>
        <time>2021-05-30T07:06:31.000Z</time>
      </trkpt>
      <trkpt lat="47.82889" lon="7.03194">
        <ele>859.59997558594</ele>
        <time>2021-05-30T07:06:32.000Z</time>
      </trkpt>
      <trkpt lat="47.8289" lon="7.03192">
        <ele>860</ele>
        <time>2021-05-30T07:06:33.000Z</time>
      </trkpt>
      <trkpt lat="47.8289" lon="7.03189">
        <ele>860.79998779297</ele>
        <time>2021-05-30T07:06:34.000Z</time>
      </trkpt>
      <trkpt lat="47.82891" lon="7.0318">
        <ele>860.79998779297</ele>
        <time>2021-05-30T07:06:38.000Z</time>
      </trkpt>
      <trkpt lat="47.82892" lon="7.03176">
        <ele>860.79998779297</ele>
        <time>2021-05-30T07:06:40.000Z</time>
      </trkpt>
      <trkpt lat="47.82897" lon="7.03165">
        <ele>860.79998779297</ele>
        <time>2021-05-30T07:06:47.000Z</time>
      </trkpt>
      <trkpt lat="47.82897" lon="7.03163">
        <ele>861.20001220703</ele>
        <time>2021-05-30T07:06:48.000Z</time>
      </trkpt>
      <trkpt lat="47.82897" lon="7.03161">
        <ele>861.59997558594</ele>
        <time>2021-05-30T07:06:49.000Z</time>
      </trkpt>
      <trkpt lat="47.82898" lon="7.03159">
        <ele>862</ele>
        <time>2021-05-30T07:06:50.000Z</time>
      </trkpt>
      <trkpt lat="47.82899" lon="7.03158">
        <ele>862.59997558594</ele>
        <time>2021-05-30T07:06:51.000Z</time>
      </trkpt>
      <trkpt lat="47.82901" lon="7.03157">
        <ele>863</ele>
        <time>2021-05-30T07:06:52.000Z</time>
      </trkpt>
      <trkpt lat="47.82904" lon="7.03153">
        <ele>863</ele>
        <time>2021-05-30T07:06:54.000Z</time>
      </trkpt>
      <trkpt lat="47.82906" lon="7.03151">
        <ele>863</ele>
        <time>2021-05-30T07:06:56.000Z</time>
      </trkpt>
      <trkpt lat="47.82912" lon="7.03145">
        <ele>863</ele>
        <time>2021-05-30T07:07:02.000Z</time>
      </trkpt>
      <trkpt lat="47.82922" lon="7.03142">
        <ele>863</ele>
        <time>2021-05-30T07:07:08.000Z</time>
      </trkpt>
      <trkpt lat="47.82924" lon="7.03141">
        <ele>863.40002441406</ele>
        <time>2021-05-30T07:07:10.000Z</time>
      </trkpt>
      <trkpt lat="47.82925" lon="7.0314">
        <ele>863.79998779297</ele>
        <time>2021-05-30T07:07:11.000Z</time>
      </trkpt>
      <trkpt lat="47.82927" lon="7.03141">
        <ele>864.20001220703</ele>
        <time>2021-05-30T07:07:12.000Z</time>
      </trkpt>
      <trkpt lat="47.82929" lon="7.0314">
        <ele>864.59997558594</ele>
        <time>2021-05-30T07:07:13.000Z</time>
      </trkpt>
      <trkpt lat="47.82929" lon="7.03141">
        <ele>865</ele>
        <time>2021-05-30T07:07:14.000Z</time>
      </trkpt>
      <trkpt lat="47.82936" lon="7.03139">
        <ele>865</ele>
        <time>2021-05-30T07:07:19.000Z</time>
      </trkpt>
      <trkpt lat="47.82938" lon="7.0314">
        <ele>865.40002441406</ele>
        <time>2021-05-30T07:07:20.000Z</time>
      </trkpt>
      <trkpt lat="47.82939" lon="7.03141">
        <ele>865.79998779297</ele>
        <time>2021-05-30T07:07:21.000Z</time>
      </trkpt>
      <trkpt lat="47.8294" lon="7.03142">
        <ele>866.20001220703</ele>
        <time>2021-05-30T07:07:22.000Z</time>
      </trkpt>
      <trkpt lat="47.82941" lon="7.03143">
        <ele>867</ele>
        <time>2021-05-30T07:07:23.000Z</time>
      </trkpt>
      <trkpt lat="47.82943" lon="7.03144">
        <ele>867</ele>
        <time>2021-05-30T07:07:24.000Z</time>
      </trkpt>
      <trkpt lat="47.82953" lon="7.03147">
        <ele>867</ele>
        <time>2021-05-30T07:07:29.000Z</time>
      </trkpt>
      <trkpt lat="47.82954" lon="7.03147">
        <ele>867</ele>
        <time>2021-05-30T07:07:30.000Z</time>
      </trkpt>
      <trkpt lat="47.82955" lon="7.03147">
        <ele>867</ele>
        <time>2021-05-30T07:07:31.000Z</time>
      </trkpt>
      <trkpt lat="47.82957" lon="7.03091">
        <ele>886.20001220703</ele>
        <time>2021-05-30T07:10:53.000Z</time>
      </trkpt>
      <trkpt lat="47.82955" lon="7.03088">
        <ele>886.20001220703</ele>
        <time>2021-05-30T07:10:56.000Z</time>
      </trkpt>
      <trkpt lat="47.82954" lon="7.03087">
        <ele>886.59997558594</ele>
        <time>2021-05-30T07:10:57.000Z</time>
      </trkpt>
      <trkpt lat="47.82954" lon="7.03085">
        <ele>887.20001220703</ele>
        <time>2021-05-30T07:10:58.000Z</time>
      </trkpt>
      <trkpt lat="47.82954" lon="7.03084">
        <ele>887.59997558594</ele>
        <time>2021-05-30T07:10:59.000Z</time>
      </trkpt>
      <trkpt lat="47.82951" lon="7.03068">
        <ele>896.79998779297</ele>
        <time>2021-05-30T07:13:08.000Z</time>
      </trkpt>
      <trkpt lat="47.82949" lon="7.03067">
        <ele>896.79998779297</ele>
        <time>2021-05-30T07:13:10.000Z</time>
      </trkpt>
      <trkpt lat="47.82948" lon="7.03066">
        <ele>897.40002441406</ele>
        <time>2021-05-30T07:13:12.000Z</time>
      </trkpt>
      <trkpt lat="47.82947" lon="7.03065">
        <ele>897.79998779297</ele>
        <time>2021-05-30T07:13:13.000Z</time>
      </trkpt>
      <trkpt lat="47.82974" lon="7.03053">
        <ele>913.79998779297</ele>
        <time>2021-05-30T07:16:59.000Z</time>
      </trkpt>
      <trkpt lat="47.82976" lon="7.03053">
        <ele>914.40002441406</ele>
        <time>2021-05-30T07:17:01.000Z</time>
      </trkpt>
      <trkpt lat="47.82977" lon="7.03054">
        <ele>914.79998779297</ele>
        <time>2021-05-30T07:17:02.000Z</time>
      </trkpt>
      <trkpt lat="47.82979" lon="7.03055">
        <ele>915.20001220703</ele>
        <time>2021-05-30T07:17:03.000Z</time>
      </trkpt>
      <trkpt lat="47.82981" lon="7.03057">
        <ele>915.79998779297</ele>
        <time>2021-05-30T07:17:04.000Z</time>
      </trkpt>
      <trkpt lat="47.82983" lon="7.03058">
        <ele>916.20001220703</ele>
        <time>2021-05-30T07:17:05.000Z</time>
      </trkpt>
      <trkpt lat="47.82986" lon="7.03059">
        <ele>916.59997558594</ele>
        <time>2021-05-30T07:17:06.000Z</time>
      </trkpt>
      <trkpt lat="47.82988" lon="7.0306">
        <ele>917</ele>
        <time>2021-05-30T07:17:07.000Z</time>
      </trkpt>
      <trkpt lat="47.8299" lon="7.0306">
        <ele>917.40002441406</ele>
        <time>2021-05-30T07:17:08.000Z</time>
      </trkpt>
      <trkpt lat="47.82991" lon="7.0306">
        <ele>918</ele>
        <time>2021-05-30T07:17:09.000Z</time>
      </trkpt>
      <trkpt lat="47.83017" lon="7.03036">
        <ele>925.59997558594</ele>
        <time>2021-05-30T07:17:36.000Z</time>
      </trkpt>
      <trkpt lat="47.83018" lon="7.03033">
        <ele>926</ele>
        <time>2021-05-30T07:17:37.000Z</time>
      </trkpt>
      <trkpt lat="47.83019" lon="7.03032">
        <ele>926.40002441406</ele>
        <time>2021-05-30T07:17:38.000Z</time>
      </trkpt>
      <trkpt lat="47.8302" lon="7.0303">
        <ele>926.40002441406</ele>
        <time>2021-05-30T07:17:39.000Z</time>
      </trkpt>
      <trkpt lat="47.83021" lon="7.03028">
        <ele>926.79998779297</ele>
        <time>2021-05-30T07:17:40.000Z</time>
      </trkpt>
      <trkpt lat="47.83023" lon="7.03027">
        <ele>927.40002441406</ele>
        <time>2021-05-30T07:17:41.000Z</time>
      </trkpt>
      <trkpt lat="47.83025" lon="7.03026">
        <ele>928.20001220703</ele>
        <time>2021-05-30T07:17:42.000Z</time>
      </trkpt>
      <trkpt lat="47.83027" lon="7.03023">
        <ele>928.59997558594</ele>
        <time>2021-05-30T07:17:44.000Z</time>
      </trkpt>
      <trkpt lat="47.83026" lon="7.03017">
        <ele>929</ele>
        <time>2021-05-30T07:17:49.000Z</time>
      </trkpt>
      <trkpt lat="47.83026" lon="7.03016">
        <ele>929.40002441406</ele>
        <time>2021-05-30T07:17:50.000Z</time>
      </trkpt>
      <trkpt lat="47.83025" lon="7.03014">
        <ele>929.79998779297</ele>
        <time>2021-05-30T07:17:51.000Z</time>
      </trkpt>
      <trkpt lat="47.83026" lon="7.03011">
        <ele>930.20001220703</ele>
        <time>2021-05-30T07:17:52.000Z</time>
      </trkpt>
      <trkpt lat="47.83026" lon="7.03008">
        <ele>930.59997558594</ele>
        <time>2021-05-30T07:17:53.000Z</time>
      </trkpt>
      <trkpt lat="47.83026" lon="7.03004">
        <ele>930.59997558594</ele>
        <time>2021-05-30T07:17:54.000Z</time>
      </trkpt>
      <trkpt lat="47.83026" lon="7.03001">
        <ele>930.59997558594</ele>
        <time>2021-05-30T07:17:55.000Z</time>
      </trkpt>
      <trkpt lat="47.83027" lon="7.02994">
        <ele>931.20001220703</ele>
        <time>2021-05-30T07:17:58.000Z</time>
      </trkpt>
      <trkpt lat="47.83027" lon="7.02992">
        <ele>931.59997558594</ele>
        <time>2021-05-30T07:17:59.000Z</time>
      </trkpt>
      <trkpt lat="47.83027" lon="7.02989">
        <ele>932.59997558594</ele>
        <time>2021-05-30T07:18:00.000Z</time>
      </trkpt>
      <trkpt lat="47.83048" lon="7.02953">
        <ele>939.40002441406</ele>
        <time>2021-05-30T07:21:39.000Z</time>
      </trkpt>
      <trkpt lat="47.83054" lon="7.0295">
        <ele>938.79998779297</ele>
        <time>2021-05-30T07:21:41.000Z</time>
      </trkpt>
      <trkpt lat="47.83056" lon="7.02947">
        <ele>938.20001220703</ele>
        <time>2021-05-30T07:21:42.000Z</time>
      </trkpt>
      <trkpt lat="47.83059" lon="7.02944">
        <ele>937.79998779297</ele>
        <time>2021-05-30T07:21:43.000Z</time>
      </trkpt>
      <trkpt lat="47.83061" lon="7.0294">
        <ele>937</ele>
        <time>2021-05-30T07:21:44.000Z</time>
      </trkpt>
      <trkpt lat="47.83064" lon="7.02935">
        <ele>936</ele>
        <time>2021-05-30T07:21:45.000Z</time>
      </trkpt>
      <trkpt lat="47.83066" lon="7.02933">
        <ele>935.20001220703</ele>
        <time>2021-05-30T07:21:46.000Z</time>
      </trkpt>
      <trkpt lat="47.83067" lon="7.02931">
        <ele>934.40002441406</ele>
        <time>2021-05-30T07:21:47.000Z</time>
      </trkpt>
      <trkpt lat="47.83069" lon="7.02931">
        <ele>933.59997558594</ele>
        <time>2021-05-30T07:21:48.000Z</time>
      </trkpt>
      <trkpt lat="47.83071" lon="7.02932">
        <ele>932.79998779297</ele>
        <time>2021-05-30T07:21:49.000Z</time>
      </trkpt>
      <trkpt lat="47.83074" lon="7.02934">
        <ele>931.79998779297</ele>
        <time>2021-05-30T07:21:50.000Z</time>
      </trkpt>
      <trkpt lat="47.83077" lon="7.02937">
        <ele>931.20001220703</ele>
        <time>2021-05-30T07:21:51.000Z</time>
      </trkpt>
      <trkpt lat="47.8308" lon="7.02941">
        <ele>930.59997558594</ele>
        <time>2021-05-30T07:21:52.000Z</time>
      </trkpt>
      <trkpt lat="47.83081" lon="7.02946">
        <ele>930</ele>
        <time>2021-05-30T07:21:53.000Z</time>
      </trkpt>
      <trkpt lat="47.83082" lon="7.02951">
        <ele>928.79998779297</ele>
        <time>2021-05-30T07:21:54.000Z</time>
      </trkpt>
      <trkpt lat="47.8308" lon="7.02957">
        <ele>928</ele>
        <time>2021-05-30T07:21:55.000Z</time>
      </trkpt>
      <trkpt lat="47.83078" lon="7.02964">
        <ele>927.40002441406</ele>
        <time>2021-05-30T07:21:56.000Z</time>
      </trkpt>
      <trkpt lat="47.83076" lon="7.0297">
        <ele>926.59997558594</ele>
        <time>2021-05-30T07:21:57.000Z</time>
      </trkpt>
      <trkpt lat="47.83075" lon="7.02975">
        <ele>926</ele>
        <time>2021-05-30T07:21:58.000Z</time>
      </trkpt>
      <trkpt lat="47.83073" lon="7.02979">
        <ele>925.20001220703</ele>
        <time>2021-05-30T07:21:59.000Z</time>
      </trkpt>
      <trkpt lat="47.83071" lon="7.02983">
        <ele>924.40002441406</ele>
        <time>2021-05-30T07:22:00.000Z</time>
      </trkpt>
      <trkpt lat="47.83072" lon="7.02986">
        <ele>923.59997558594</ele>
        <time>2021-05-30T07:22:01.000Z</time>
      </trkpt>
      <trkpt lat="47.83071" lon="7.02988">
        <ele>922.79998779297</ele>
        <time>2021-05-30T07:22:03.000Z</time>
      </trkpt>
      <trkpt lat="47.8307" lon="7.02989">
        <ele>922.20001220703</ele>
        <time>2021-05-30T07:22:04.000Z</time>
      </trkpt>
      <trkpt lat="47.8307" lon="7.02989">
        <ele>921.40002441406</ele>
        <time>2021-05-30T07:22:05.000Z</time>
      </trkpt>
      <trkpt lat="47.83072" lon="7.02989">
        <ele>920.79998779297</ele>
        <time>2021-05-30T07:22:06.000Z</time>
      </trkpt>
      <trkpt lat="47.83074" lon="7.02989">
        <ele>919.40002441406</ele>
        <time>2021-05-30T07:22:07.000Z</time>
      </trkpt>
      <trkpt lat="47.83078" lon="7.02989">
        <ele>918.40002441406</ele>
        <time>2021-05-30T07:22:08.000Z</time>
      </trkpt>
      <trkpt lat="47.83082" lon="7.02988">
        <ele>917.59997558594</ele>
        <time>2021-05-30T07:22:09.000Z</time>
      </trkpt>
      <trkpt lat="47.83086" lon="7.02988">
        <ele>916.59997558594</ele>
        <time>2021-05-30T07:22:10.000Z</time>
      </trkpt>
      <trkpt lat="47.83088" lon="7.0299">
        <ele>915.59997558594</ele>
        <time>2021-05-30T07:22:11.000Z</time>
      </trkpt>
      <trkpt lat="47.83092" lon="7.0299">
        <ele>914.40002441406</ele>
        <time>2021-05-30T07:22:12.000Z</time>
      </trkpt>
      <trkpt lat="47.83096" lon="7.02989">
        <ele>913.20001220703</ele>
        <time>2021-05-30T07:22:13.000Z</time>
      </trkpt>
      <trkpt lat="47.831" lon="7.02988">
        <ele>912</ele>
        <time>2021-05-30T07:22:14.000Z</time>
      </trkpt>
      <trkpt lat="47.83103" lon="7.02987">
        <ele>910.79998779297</ele>
        <time>2021-05-30T07:22:15.000Z</time>
      </trkpt>
      <trkpt lat="47.83106" lon="7.02984">
        <ele>909.59997558594</ele>
        <time>2021-05-30T07:22:16.000Z</time>
      </trkpt>
      <trkpt lat="47.83111" lon="7.0298">
        <ele>908.59997558594</ele>
        <time>2021-05-30T07:22:17.000Z</time>
      </trkpt>
      <trkpt lat="47.83114" lon="7.02976">
        <ele>907.59997558594</ele>
        <time>2021-05-30T07:22:18.000Z</time>
      </trkpt>
      <trkpt lat="47.83118" lon="7.02971">
        <ele>906.59997558594</ele>
        <time>2021-05-30T07:22:19.000Z</time>
      </trkpt>
      <trkpt lat="47.8312" lon="7.02967">
        <ele>905.40002441406</ele>
        <time>2021-05-30T07:22:20.000Z</time>
      </trkpt>
      <trkpt lat="47.83122" lon="7.02965">
        <ele>904.40002441406</ele>
        <time>2021-05-30T07:22:21.000Z</time>
      </trkpt>
      <trkpt lat="47.83131" lon="7.02957">
        <ele>904</ele>
        <time>2021-05-30T07:22:22.000Z</time>
      </trkpt>
      <trkpt lat="47.83132" lon="7.02951">
        <ele>903.20001220703</ele>
        <time>2021-05-30T07:22:23.000Z</time>
      </trkpt>
      <trkpt lat="47.83137" lon="7.02943">
        <ele>902.20001220703</ele>
        <time>2021-05-30T07:22:25.000Z</time>
      </trkpt>
      <trkpt lat="47.83146" lon="7.02936">
        <ele>901.79998779297</ele>
        <time>2021-05-30T07:22:26.000Z</time>
      </trkpt>
      <trkpt lat="47.83149" lon="7.02934">
        <ele>901.20001220703</ele>
        <time>2021-05-30T07:22:27.000Z</time>
      </trkpt>
      <trkpt lat="47.8315" lon="7.02937">
        <ele>900.79998779297</ele>
        <time>2021-05-30T07:22:28.000Z</time>
      </trkpt>
      <trkpt lat="47.83156" lon="7.02937">
        <ele>900.20001220703</ele>
        <time>2021-05-30T07:22:29.000Z</time>
      </trkpt>
      <trkpt lat="47.83157" lon="7.0294">
        <ele>899.79998779297</ele>
        <time>2021-05-30T07:22:30.000Z</time>
      </trkpt>
      <trkpt lat="47.83157" lon="7.02943">
        <ele>899.20001220703</ele>
        <time>2021-05-30T07:22:31.000Z</time>
      </trkpt>
      <trkpt lat="47.83157" lon="7.02948">
        <ele>898.79998779297</ele>
        <time>2021-05-30T07:22:32.000Z</time>
      </trkpt>
      <trkpt lat="47.83157" lon="7.02951">
        <ele>898</ele>
        <time>2021-05-30T07:22:33.000Z</time>
      </trkpt>
      <trkpt lat="47.83156" lon="7.02955">
        <ele>897.20001220703</ele>
        <time>2021-05-30T07:22:34.000Z</time>
      </trkpt>
      <trkpt lat="47.83154" lon="7.02959">
        <ele>896.59997558594</ele>
        <time>2021-05-30T07:22:35.000Z</time>
      </trkpt>
      <trkpt lat="47.83151" lon="7.02968">
        <ele>895.59997558594</ele>
        <time>2021-05-30T07:22:36.000Z</time>
      </trkpt>
      <trkpt lat="47.83147" lon="7.02977">
        <ele>894.79998779297</ele>
        <time>2021-05-30T07:22:37.000Z</time>
      </trkpt>
      <trkpt lat="47.83142" lon="7.02987">
        <ele>894</ele>
        <time>2021-05-30T07:22:38.000Z</time>
      </trkpt>
      <trkpt lat="47.83139" lon="7.02994">
        <ele>893</ele>
        <time>2021-05-30T07:22:39.000Z</time>
      </trkpt>
      <trkpt lat="47.83136" lon="7.02998">
        <ele>892</ele>
        <time>2021-05-30T07:22:40.000Z</time>
      </trkpt>
      <trkpt lat="47.83135" lon="7.03001">
        <ele>891.20001220703</ele>
        <time>2021-05-30T07:22:41.000Z</time>
      </trkpt>
      <trkpt lat="47.83134" lon="7.03003">
        <ele>890.40002441406</ele>
        <time>2021-05-30T07:22:42.000Z</time>
      </trkpt>
      <trkpt lat="47.83134" lon="7.03005">
        <ele>888.79998779297</ele>
        <time>2021-05-30T07:22:43.000Z</time>
      </trkpt>
      <trkpt lat="47.83134" lon="7.03006">
        <ele>887.79998779297</ele>
        <time>2021-05-30T07:22:44.000Z</time>
      </trkpt>
      <trkpt lat="47.83134" lon="7.03008">
        <ele>887</ele>
        <time>2021-05-30T07:22:45.000Z</time>
      </trkpt>
      <trkpt lat="47.83134" lon="7.0301">
        <ele>887</ele>
        <time>2021-05-30T07:22:48.000Z</time>
      </trkpt>
      <trkpt lat="47.83135" lon="7.03016">
        <ele>884.79998779297</ele>
        <time>2021-05-30T07:23:04.000Z</time>
      </trkpt>
      <trkpt lat="47.83141" lon="7.0302">
        <ele>884.79998779297</ele>
        <time>2021-05-30T07:23:06.000Z</time>
      </trkpt>
      <trkpt lat="47.83147" lon="7.0302">
        <ele>884.20001220703</ele>
        <time>2021-05-30T07:23:08.000Z</time>
      </trkpt>
      <trkpt lat="47.8315" lon="7.03019">
        <ele>883.79998779297</ele>
        <time>2021-05-30T07:23:09.000Z</time>
      </trkpt>
      <trkpt lat="47.83153" lon="7.03018">
        <ele>883</ele>
        <time>2021-05-30T07:23:10.000Z</time>
      </trkpt>
      <trkpt lat="47.83156" lon="7.03016">
        <ele>882.59997558594</ele>
        <time>2021-05-30T07:23:11.000Z</time>
      </trkpt>
      <trkpt lat="47.83158" lon="7.03014">
        <ele>882.59997558594</ele>
        <time>2021-05-30T07:23:12.000Z</time>
      </trkpt>
      <trkpt lat="47.83171" lon="7.03001">
        <ele>882.59997558594</ele>
        <time>2021-05-30T07:23:17.000Z</time>
      </trkpt>
      <trkpt lat="47.83184" lon="7.02994">
        <ele>882.20001220703</ele>
        <time>2021-05-30T07:23:20.000Z</time>
      </trkpt>
      <trkpt lat="47.83188" lon="7.02992">
        <ele>881.79998779297</ele>
        <time>2021-05-30T07:23:21.000Z</time>
      </trkpt>
      <trkpt lat="47.83193" lon="7.0299">
        <ele>881</ele>
        <time>2021-05-30T07:23:23.000Z</time>
      </trkpt>
      <trkpt lat="47.83197" lon="7.02988">
        <ele>880.20001220703</ele>
        <time>2021-05-30T07:23:24.000Z</time>
      </trkpt>
      <trkpt lat="47.83201" lon="7.02985">
        <ele>879.20001220703</ele>
        <time>2021-05-30T07:23:25.000Z</time>
      </trkpt>
      <trkpt lat="47.83205" lon="7.02982">
        <ele>878.40002441406</ele>
        <time>2021-05-30T07:23:26.000Z</time>
      </trkpt>
      <trkpt lat="47.83209" lon="7.0298">
        <ele>876.40002441406</ele>
        <time>2021-05-30T07:23:27.000Z</time>
      </trkpt>
      <trkpt lat="47.83212" lon="7.02979">
        <ele>875.20001220703</ele>
        <time>2021-05-30T07:23:28.000Z</time>
      </trkpt>
      <trkpt lat="47.83215" lon="7.02976">
        <ele>874</ele>
        <time>2021-05-30T07:23:29.000Z</time>
      </trkpt>
      <trkpt lat="47.83218" lon="7.02974">
        <ele>872.79998779297</ele>
        <time>2021-05-30T07:23:30.000Z</time>
      </trkpt>
      <trkpt lat="47.8322" lon="7.02971">
        <ele>871.59997558594</ele>
        <time>2021-05-30T07:23:31.000Z</time>
      </trkpt>
      <trkpt lat="47.83222" lon="7.02969">
        <ele>870.40002441406</ele>
        <time>2021-05-30T07:23:32.000Z</time>
      </trkpt>
      <trkpt lat="47.83224" lon="7.02966">
        <ele>869.40002441406</ele>
        <time>2021-05-30T07:23:33.000Z</time>
      </trkpt>
      <trkpt lat="47.83225" lon="7.02963">
        <ele>868.20001220703</ele>
        <time>2021-05-30T07:23:34.000Z</time>
      </trkpt>
      <trkpt lat="47.83227" lon="7.02963">
        <ele>868.20001220703</ele>
        <time>2021-05-30T07:23:35.000Z</time>
      </trkpt>
      <trkpt lat="47.8323" lon="7.02967">
        <ele>868.20001220703</ele>
        <time>2021-05-30T07:23:40.000Z</time>
      </trkpt>
      <trkpt lat="47.83229" lon="7.02974">
        <ele>867.79998779297</ele>
        <time>2021-05-30T07:23:41.000Z</time>
      </trkpt>
      <trkpt lat="47.83228" lon="7.02982">
        <ele>867.40002441406</ele>
        <time>2021-05-30T07:23:42.000Z</time>
      </trkpt>
      <trkpt lat="47.83227" lon="7.02988">
        <ele>867</ele>
        <time>2021-05-30T07:23:43.000Z</time>
      </trkpt>
      <trkpt lat="47.83226" lon="7.02996">
        <ele>866.20001220703</ele>
        <time>2021-05-30T07:23:45.000Z</time>
      </trkpt>
      <trkpt lat="47.83225" lon="7.03002">
        <ele>865.59997558594</ele>
        <time>2021-05-30T07:23:46.000Z</time>
      </trkpt>
      <trkpt lat="47.83223" lon="7.03009">
        <ele>864.20001220703</ele>
        <time>2021-05-30T07:23:47.000Z</time>
      </trkpt>
      <trkpt lat="47.83221" lon="7.03013">
        <ele>863.40002441406</ele>
        <time>2021-05-30T07:23:48.000Z</time>
      </trkpt>
      <trkpt lat="47.83219" lon="7.03017">
        <ele>862.59997558594</ele>
        <time>2021-05-30T07:23:49.000Z</time>
      </trkpt>
      <trkpt lat="47.83217" lon="7.03021">
        <ele>861.79998779297</ele>
        <time>2021-05-30T07:23:50.000Z</time>
      </trkpt>
      <trkpt lat="47.83214" lon="7.03025">
        <ele>861.20001220703</ele>
        <time>2021-05-30T07:23:51.000Z</time>
      </trkpt>
      <trkpt lat="47.83211" lon="7.03029">
        <ele>860.59997558594</ele>
        <time>2021-05-30T07:23:52.000Z</time>
      </trkpt>
      <trkpt lat="47.83207" lon="7.03033">
        <ele>860</ele>
        <time>2021-05-30T07:23:53.000Z</time>
      </trkpt>
      <trkpt lat="47.83203" lon="7.0304">
        <ele>859.40002441406</ele>
        <time>2021-05-30T07:23:54.000Z</time>
      </trkpt>
      <trkpt lat="47.83199" lon="7.03044">
        <ele>858.79998779297</ele>
        <time>2021-05-30T07:23:55.000Z</time>
      </trkpt>
      <trkpt lat="47.83195" lon="7.03048">
        <ele>858.20001220703</ele>
        <time>2021-05-30T07:23:56.000Z</time>
      </trkpt>
      <trkpt lat="47.83193" lon="7.03051">
        <ele>857.59997558594</ele>
        <time>2021-05-30T07:23:57.000Z</time>
      </trkpt>
      <trkpt lat="47.83191" lon="7.03054">
        <ele>857</ele>
        <time>2021-05-30T07:23:58.000Z</time>
      </trkpt>
      <trkpt lat="47.8319" lon="7.03057">
        <ele>856.40002441406</ele>
        <time>2021-05-30T07:23:59.000Z</time>
      </trkpt>
      <trkpt lat="47.83189" lon="7.03059">
        <ele>855.79998779297</ele>
        <time>2021-05-30T07:24:00.000Z</time>
      </trkpt>
      <trkpt lat="47.83189" lon="7.0306">
        <ele>855.20001220703</ele>
        <time>2021-05-30T07:24:01.000Z</time>
      </trkpt>
      <trkpt lat="47.83189" lon="7.03061">
        <ele>854.59997558594</ele>
        <time>2021-05-30T07:24:02.000Z</time>
      </trkpt>
      <trkpt lat="47.83192" lon="7.03061">
        <ele>853.79998779297</ele>
        <time>2021-05-30T07:24:03.000Z</time>
      </trkpt>
      <trkpt lat="47.83196" lon="7.0306">
        <ele>852</ele>
        <time>2021-05-30T07:24:04.000Z</time>
      </trkpt>
      <trkpt lat="47.83199" lon="7.0306">
        <ele>851</ele>
        <time>2021-05-30T07:24:05.000Z</time>
      </trkpt>
      <trkpt lat="47.83203" lon="7.0306">
        <ele>850</ele>
        <time>2021-05-30T07:24:06.000Z</time>
      </trkpt>
      <trkpt lat="47.83208" lon="7.0306">
        <ele>849</ele>
        <time>2021-05-30T07:24:07.000Z</time>
      </trkpt>
      <trkpt lat="47.83213" lon="7.0306">
        <ele>847.79998779297</ele>
        <time>2021-05-30T07:24:08.000Z</time>
      </trkpt>
      <trkpt lat="47.83219" lon="7.03059">
        <ele>846.59997558594</ele>
        <time>2021-05-30T07:24:10.000Z</time>
      </trkpt>
      <trkpt lat="47.83226" lon="7.03059">
        <ele>845.59997558594</ele>
        <time>2021-05-30T07:24:11.000Z</time>
      </trkpt>
      <trkpt lat="47.83233" lon="7.03058">
        <ele>844.20001220703</ele>
        <time>2021-05-30T07:24:12.000Z</time>
      </trkpt>
      <trkpt lat="47.83243" lon="7.03058">
        <ele>841.59997558594</ele>
        <time>2021-05-30T07:24:13.000Z</time>
      </trkpt>
      <trkpt lat="47.83251" lon="7.03056">
        <ele>840.20001220703</ele>
        <time>2021-05-30T07:24:14.000Z</time>
      </trkpt>
      <trkpt lat="47.83258" lon="7.03054">
        <ele>839</ele>
        <time>2021-05-30T07:24:15.000Z</time>
      </trkpt>
      <trkpt lat="47.83265" lon="7.03052">
        <ele>837.59997558594</ele>
        <time>2021-05-30T07:24:16.000Z</time>
      </trkpt>
      <trkpt lat="47.83272" lon="7.0305">
        <ele>836.40002441406</ele>
        <time>2021-05-30T07:24:17.000Z</time>
      </trkpt>
      <trkpt lat="47.83278" lon="7.03047">
        <ele>835.20001220703</ele>
        <time>2021-05-30T07:24:18.000Z</time>
      </trkpt>
      <trkpt lat="47.83287" lon="7.03045">
        <ele>834.20001220703</ele>
        <time>2021-05-30T07:24:19.000Z</time>
      </trkpt>
      <trkpt lat="47.83295" lon="7.03042">
        <ele>833.40002441406</ele>
        <time>2021-05-30T07:24:20.000Z</time>
      </trkpt>
      <trkpt lat="47.83305" lon="7.03038">
        <ele>831.79998779297</ele>
        <time>2021-05-30T07:24:22.000Z</time>
      </trkpt>
      <trkpt lat="47.83312" lon="7.03036">
        <ele>830.79998779297</ele>
        <time>2021-05-30T07:24:23.000Z</time>
      </trkpt>
      <trkpt lat="47.8332" lon="7.03031">
        <ele>829.79998779297</ele>
        <time>2021-05-30T07:24:24.000Z</time>
      </trkpt>
      <trkpt lat="47.8333" lon="7.03026">
        <ele>828.59997558594</ele>
        <time>2021-05-30T07:24:25.000Z</time>
      </trkpt>
      <trkpt lat="47.83338" lon="7.03022">
        <ele>827.59997558594</ele>
        <time>2021-05-30T07:24:26.000Z</time>
      </trkpt>
      <trkpt lat="47.83344" lon="7.03019">
        <ele>826.40002441406</ele>
        <time>2021-05-30T07:24:27.000Z</time>
      </trkpt>
      <trkpt lat="47.83352" lon="7.03019">
        <ele>825.40002441406</ele>
        <time>2021-05-30T07:24:28.000Z</time>
      </trkpt>
      <trkpt lat="47.83358" lon="7.03019">
        <ele>823.59997558594</ele>
        <time>2021-05-30T07:24:29.000Z</time>
      </trkpt>
      <trkpt lat="47.83362" lon="7.03019">
        <ele>822.79998779297</ele>
        <time>2021-05-30T07:24:30.000Z</time>
      </trkpt>
      <trkpt lat="47.83367" lon="7.03021">
        <ele>822</ele>
        <time>2021-05-30T07:24:31.000Z</time>
      </trkpt>
      <trkpt lat="47.8337" lon="7.03023">
        <ele>821.20001220703</ele>
        <time>2021-05-30T07:24:32.000Z</time>
      </trkpt>
      <trkpt lat="47.83372" lon="7.03027">
        <ele>821.20001220703</ele>
        <time>2021-05-30T07:24:34.000Z</time>
      </trkpt>
      <trkpt lat="47.83377" lon="7.03034">
        <ele>821.20001220703</ele>
        <time>2021-05-30T07:24:36.000Z</time>
      </trkpt>
      <trkpt lat="47.8338" lon="7.0304">
        <ele>820.59997558594</ele>
        <time>2021-05-30T07:24:37.000Z</time>
      </trkpt>
      <trkpt lat="47.83384" lon="7.03045">
        <ele>820.20001220703</ele>
        <time>2021-05-30T07:24:38.000Z</time>
      </trkpt>
      <trkpt lat="47.83386" lon="7.03047">
        <ele>819.79998779297</ele>
        <time>2021-05-30T07:24:39.000Z</time>
      </trkpt>
      <trkpt lat="47.8339" lon="7.03049">
        <ele>819.40002441406</ele>
        <time>2021-05-30T07:24:40.000Z</time>
      </trkpt>
      <trkpt lat="47.83395" lon="7.03049">
        <ele>819</ele>
        <time>2021-05-30T07:24:41.000Z</time>
      </trkpt>
      <trkpt lat="47.834" lon="7.03049">
        <ele>818.40002441406</ele>
        <time>2021-05-30T07:24:42.000Z</time>
      </trkpt>
      <trkpt lat="47.83408" lon="7.03048">
        <ele>817.79998779297</ele>
        <time>2021-05-30T07:24:43.000Z</time>
      </trkpt>
      <trkpt lat="47.83414" lon="7.03049">
        <ele>817</ele>
        <time>2021-05-30T07:24:44.000Z</time>
      </trkpt>
      <trkpt lat="47.83422" lon="7.03052">
        <ele>815.40002441406</ele>
        <time>2021-05-30T07:24:46.000Z</time>
      </trkpt>
      <trkpt lat="47.83427" lon="7.03053">
        <ele>814.40002441406</ele>
        <time>2021-05-30T07:24:47.000Z</time>
      </trkpt>
      <trkpt lat="47.83431" lon="7.03052">
        <ele>813.59997558594</ele>
        <time>2021-05-30T07:24:48.000Z</time>
      </trkpt>
      <trkpt lat="47.83435" lon="7.03051">
        <ele>813.59997558594</ele>
        <time>2021-05-30T07:24:49.000Z</time>
      </trkpt>
      <trkpt lat="47.8344" lon="7.03044">
        <ele>813.59997558594</ele>
        <time>2021-05-30T07:24:53.000Z</time>
      </trkpt>
      <trkpt lat="47.83441" lon="7.03041">
        <ele>813.59997558594</ele>
        <time>2021-05-30T07:24:54.000Z</time>
      </trkpt>
      <trkpt lat="47.83444" lon="7.03024">
        <ele>813.59997558594</ele>
        <time>2021-05-30T07:25:00.000Z</time>
      </trkpt>
      <trkpt lat="47.83447" lon="7.03001">
        <ele>813.59997558594</ele>
        <time>2021-05-30T07:25:06.000Z</time>
      </trkpt>
      <trkpt lat="47.83452" lon="7.02965">
        <ele>813.59997558594</ele>
        <time>2021-05-30T07:25:16.000Z</time>
      </trkpt>
      <trkpt lat="47.83452" lon="7.02953">
        <ele>814</ele>
        <time>2021-05-30T07:25:19.000Z</time>
      </trkpt>
      <trkpt lat="47.83451" lon="7.02949">
        <ele>814.40002441406</ele>
        <time>2021-05-30T07:25:20.000Z</time>
      </trkpt>
      <trkpt lat="47.8345" lon="7.02945">
        <ele>814.79998779297</ele>
        <time>2021-05-30T07:25:22.000Z</time>
      </trkpt>
      <trkpt lat="47.83449" lon="7.02942">
        <ele>815.20001220703</ele>
        <time>2021-05-30T07:25:23.000Z</time>
      </trkpt>
      <trkpt lat="47.83447" lon="7.02939">
        <ele>815.59997558594</ele>
        <time>2021-05-30T07:25:24.000Z</time>
      </trkpt>
      <trkpt lat="47.83437" lon="7.02931">
        <ele>815.59997558594</ele>
        <time>2021-05-30T07:25:28.000Z</time>
      </trkpt>
      <trkpt lat="47.83425" lon="7.02935">
        <ele>815.59997558594</ele>
        <time>2021-05-30T07:25:34.000Z</time>
      </trkpt>
      <trkpt lat="47.83423" lon="7.02936">
        <ele>816</ele>
        <time>2021-05-30T07:25:35.000Z</time>
      </trkpt>
      <trkpt lat="47.8342" lon="7.02937">
        <ele>816.40002441406</ele>
        <time>2021-05-30T07:25:36.000Z</time>
      </trkpt>
      <trkpt lat="47.83417" lon="7.02939">
        <ele>816.79998779297</ele>
        <time>2021-05-30T07:25:37.000Z</time>
      </trkpt>
      <trkpt lat="47.83414" lon="7.0294">
        <ele>817.20001220703</ele>
        <time>2021-05-30T07:25:38.000Z</time>
      </trkpt>
      <trkpt lat="47.83409" lon="7.0294">
        <ele>817.79998779297</ele>
        <time>2021-05-30T07:25:39.000Z</time>
      </trkpt>
      <trkpt lat="47.83406" lon="7.02941">
        <ele>817.79998779297</ele>
        <time>2021-05-30T07:25:40.000Z</time>
      </trkpt>
      <trkpt lat="47.83393" lon="7.02938">
        <ele>818.20001220703</ele>
        <time>2021-05-30T07:25:46.000Z</time>
      </trkpt>
      <trkpt lat="47.83392" lon="7.02936">
        <ele>818.59997558594</ele>
        <time>2021-05-30T07:25:47.000Z</time>
      </trkpt>
      <trkpt lat="47.83391" lon="7.02934">
        <ele>819</ele>
        <time>2021-05-30T07:25:48.000Z</time>
      </trkpt>
      <trkpt lat="47.83389" lon="7.02931">
        <ele>819.79998779297</ele>
        <time>2021-05-30T07:25:49.000Z</time>
      </trkpt>
      <trkpt lat="47.83383" lon="7.02925">
        <ele>819.79998779297</ele>
        <time>2021-05-30T07:25:52.000Z</time>
      </trkpt>
      <trkpt lat="47.8338" lon="7.02921">
        <ele>820.20001220703</ele>
        <time>2021-05-30T07:25:54.000Z</time>
      </trkpt>
      <trkpt lat="47.83378" lon="7.02919">
        <ele>820.79998779297</ele>
        <time>2021-05-30T07:25:55.000Z</time>
      </trkpt>
      <trkpt lat="47.83377" lon="7.02916">
        <ele>821.20001220703</ele>
        <time>2021-05-30T07:25:56.000Z</time>
      </trkpt>
      <trkpt lat="47.83374" lon="7.02913">
        <ele>822</ele>
        <time>2021-05-30T07:25:58.000Z</time>
      </trkpt>
      <trkpt lat="47.83361" lon="7.02907">
        <ele>822.59997558594</ele>
        <time>2021-05-30T07:26:04.000Z</time>
      </trkpt>
      <trkpt lat="47.83358" lon="7.02906">
        <ele>823</ele>
        <time>2021-05-30T07:26:05.000Z</time>
      </trkpt>
      <trkpt lat="47.83356" lon="7.02906">
        <ele>823.79998779297</ele>
        <time>2021-05-30T07:26:06.000Z</time>
      </trkpt>
      <trkpt lat="47.83354" lon="7.02906">
        <ele>824.20001220703</ele>
        <time>2021-05-30T07:26:07.000Z</time>
      </trkpt>
      <trkpt lat="47.83348" lon="7.02904">
        <ele>824.20001220703</ele>
        <time>2021-05-30T07:26:12.000Z</time>
      </trkpt>
      <trkpt lat="47.83347" lon="7.02903">
        <ele>824.59997558594</ele>
        <time>2021-05-30T07:26:13.000Z</time>
      </trkpt>
      <trkpt lat="47.83346" lon="7.02903">
        <ele>825.20001220703</ele>
        <time>2021-05-30T07:26:14.000Z</time>
      </trkpt>
      <trkpt lat="47.83345" lon="7.02901">
        <ele>826</ele>
        <time>2021-05-30T07:26:15.000Z</time>
      </trkpt>
      <trkpt lat="47.83345" lon="7.029">
        <ele>826.40002441406</ele>
        <time>2021-05-30T07:26:16.000Z</time>
      </trkpt>
      <trkpt lat="47.83345" lon="7.02898">
        <ele>826.40002441406</ele>
        <time>2021-05-30T07:26:18.000Z</time>
      </trkpt>
      <trkpt lat="47.83344" lon="7.02894">
        <ele>826.79998779297</ele>
        <time>2021-05-30T07:26:21.000Z</time>
      </trkpt>
      <trkpt lat="47.83344" lon="7.02893">
        <ele>827.40002441406</ele>
        <time>2021-05-30T07:26:22.000Z</time>
      </trkpt>
      <trkpt lat="47.83345" lon="7.02892">
        <ele>827.79998779297</ele>
        <time>2021-05-30T07:26:23.000Z</time>
      </trkpt>
      <trkpt lat="47.83344" lon="7.0289">
        <ele>828.20001220703</ele>
        <time>2021-05-30T07:26:24.000Z</time>
      </trkpt>
      <trkpt lat="47.83344" lon="7.0289">
        <ele>828.59997558594</ele>
        <time>2021-05-30T07:26:25.000Z</time>
      </trkpt>
      <trkpt lat="47.83344" lon="7.02885">
        <ele>828.59997558594</ele>
        <time>2021-05-30T07:26:28.000Z</time>
      </trkpt>
      <trkpt lat="47.83343" lon="7.02881">
        <ele>829</ele>
        <time>2021-05-30T07:26:30.000Z</time>
      </trkpt>
      <trkpt lat="47.83342" lon="7.0288">
        <ele>829.40002441406</ele>
        <time>2021-05-30T07:26:31.000Z</time>
      </trkpt>
      <trkpt lat="47.83341" lon="7.02878">
        <ele>830.20001220703</ele>
        <time>2021-05-30T07:26:32.000Z</time>
      </trkpt>
      <trkpt lat="47.8334" lon="7.02876">
        <ele>830.59997558594</ele>
        <time>2021-05-30T07:26:33.000Z</time>
      </trkpt>
      <trkpt lat="47.83334" lon="7.02871">
        <ele>830.59997558594</ele>
        <time>2021-05-30T07:26:37.000Z</time>
      </trkpt>
      <trkpt lat="47.83328" lon="7.02863">
        <ele>831</ele>
        <time>2021-05-30T07:26:41.000Z</time>
      </trkpt>
      <trkpt lat="47.83327" lon="7.02861">
        <ele>831.40002441406</ele>
        <time>2021-05-30T07:26:42.000Z</time>
      </trkpt>
      <trkpt lat="47.83324" lon="7.02859">
        <ele>832</ele>
        <time>2021-05-30T07:26:43.000Z</time>
      </trkpt>
      <trkpt lat="47.83319" lon="7.02857">
        <ele>832.40002441406</ele>
        <time>2021-05-30T07:26:45.000Z</time>
      </trkpt>
      <trkpt lat="47.83317" lon="7.02856">
        <ele>832.79998779297</ele>
        <time>2021-05-30T07:26:46.000Z</time>
      </trkpt>
      <trkpt lat="47.83307" lon="7.02843">
        <ele>833.20001220703</ele>
        <time>2021-05-30T07:26:52.000Z</time>
      </trkpt>
      <trkpt lat="47.83306" lon="7.02841">
        <ele>834</ele>
        <time>2021-05-30T07:26:53.000Z</time>
      </trkpt>
      <trkpt lat="47.83304" lon="7.02839">
        <ele>834.59997558594</ele>
        <time>2021-05-30T07:26:55.000Z</time>
      </trkpt>
      <trkpt lat="47.83301" lon="7.02837">
        <ele>835</ele>
        <time>2021-05-30T07:26:56.000Z</time>
      </trkpt>
      <trkpt lat="47.83299" lon="7.02833">
        <ele>835</ele>
        <time>2021-05-30T07:26:58.000Z</time>
      </trkpt>
      <trkpt lat="47.83294" lon="7.02823">
        <ele>835.40002441406</ele>
        <time>2021-05-30T07:27:03.000Z</time>
      </trkpt>
      <trkpt lat="47.83293" lon="7.02821">
        <ele>836.20001220703</ele>
        <time>2021-05-30T07:27:04.000Z</time>
      </trkpt>
      <trkpt lat="47.83292" lon="7.02819">
        <ele>836.59997558594</ele>
        <time>2021-05-30T07:27:05.000Z</time>
      </trkpt>
      <trkpt lat="47.83292" lon="7.02817">
        <ele>837</ele>
        <time>2021-05-30T07:27:06.000Z</time>
      </trkpt>
      <trkpt lat="47.83289" lon="7.02804">
        <ele>837</ele>
        <time>2021-05-30T07:27:11.000Z</time>
      </trkpt>
      <trkpt lat="47.83289" lon="7.028">
        <ele>837.40002441406</ele>
        <time>2021-05-30T07:27:13.000Z</time>
      </trkpt>
      <trkpt lat="47.83288" lon="7.02797">
        <ele>838</ele>
        <time>2021-05-30T07:27:14.000Z</time>
      </trkpt>
      <trkpt lat="47.83288" lon="7.02795">
        <ele>838.40002441406</ele>
        <time>2021-05-30T07:27:15.000Z</time>
      </trkpt>
      <trkpt lat="47.83288" lon="7.02793">
        <ele>839.20001220703</ele>
        <time>2021-05-30T07:27:16.000Z</time>
      </trkpt>
      <trkpt lat="47.83287" lon="7.0279">
        <ele>839.20001220703</ele>
        <time>2021-05-30T07:27:18.000Z</time>
      </trkpt>
      <trkpt lat="47.83286" lon="7.02785">
        <ele>839.59997558594</ele>
        <time>2021-05-30T07:27:20.000Z</time>
      </trkpt>
      <trkpt lat="47.83285" lon="7.02782">
        <ele>840</ele>
        <time>2021-05-30T07:27:21.000Z</time>
      </trkpt>
      <trkpt lat="47.83284" lon="7.0278">
        <ele>840.40002441406</ele>
        <time>2021-05-30T07:27:22.000Z</time>
      </trkpt>
      <trkpt lat="47.83283" lon="7.02779">
        <ele>840.79998779297</ele>
        <time>2021-05-30T07:27:23.000Z</time>
      </trkpt>
      <trkpt lat="47.83281" lon="7.02777">
        <ele>841.20001220703</ele>
        <time>2021-05-30T07:27:24.000Z</time>
      </trkpt>
      <trkpt lat="47.8328" lon="7.02774">
        <ele>841.20001220703</ele>
        <time>2021-05-30T07:27:25.000Z</time>
      </trkpt>
      <trkpt lat="47.83278" lon="7.02771">
        <ele>841.59997558594</ele>
        <time>2021-05-30T07:27:26.000Z</time>
      </trkpt>
      <trkpt lat="47.83277" lon="7.02769">
        <ele>842</ele>
        <time>2021-05-30T07:27:27.000Z</time>
      </trkpt>
      <trkpt lat="47.83276" lon="7.02767">
        <ele>842.40002441406</ele>
        <time>2021-05-30T07:27:28.000Z</time>
      </trkpt>
      <trkpt lat="47.83273" lon="7.02765">
        <ele>842.79998779297</ele>
        <time>2021-05-30T07:27:30.000Z</time>
      </trkpt>
      <trkpt lat="47.83271" lon="7.02764">
        <ele>843.20001220703</ele>
        <time>2021-05-30T07:27:31.000Z</time>
      </trkpt>
      <trkpt lat="47.8327" lon="7.02762">
        <ele>843.20001220703</ele>
        <time>2021-05-30T07:27:32.000Z</time>
      </trkpt>
      <trkpt lat="47.83268" lon="7.0276">
        <ele>843.59997558594</ele>
        <time>2021-05-30T07:27:33.000Z</time>
      </trkpt>
      <trkpt lat="47.83267" lon="7.02758">
        <ele>844.20001220703</ele>
        <time>2021-05-30T07:27:34.000Z</time>
      </trkpt>
      <trkpt lat="47.83266" lon="7.02756">
        <ele>844.59997558594</ele>
        <time>2021-05-30T07:27:35.000Z</time>
      </trkpt>
      <trkpt lat="47.83264" lon="7.02754">
        <ele>845</ele>
        <time>2021-05-30T07:27:36.000Z</time>
      </trkpt>
      <trkpt lat="47.83263" lon="7.02753">
        <ele>845.40002441406</ele>
        <time>2021-05-30T07:27:37.000Z</time>
      </trkpt>
      <trkpt lat="47.83258" lon="7.0275">
        <ele>845.79998779297</ele>
        <time>2021-05-30T07:27:40.000Z</time>
      </trkpt>
      <trkpt lat="47.83256" lon="7.02748">
        <ele>846.59997558594</ele>
        <time>2021-05-30T07:27:42.000Z</time>
      </trkpt>
      <trkpt lat="47.83254" lon="7.02747">
        <ele>847</ele>
        <time>2021-05-30T07:27:43.000Z</time>
      </trkpt>
      <trkpt lat="47.83253" lon="7.02746">
        <ele>847.59997558594</ele>
        <time>2021-05-30T07:27:44.000Z</time>
      </trkpt>
      <trkpt lat="47.83246" lon="7.0274">
        <ele>848.40002441406</ele>
        <time>2021-05-30T07:27:48.000Z</time>
      </trkpt>
      <trkpt lat="47.83245" lon="7.02738">
        <ele>848.79998779297</ele>
        <time>2021-05-30T07:27:49.000Z</time>
      </trkpt>
      <trkpt lat="47.83243" lon="7.02736">
        <ele>849.20001220703</ele>
        <time>2021-05-30T07:27:50.000Z</time>
      </trkpt>
      <trkpt lat="47.83243" lon="7.02733">
        <ele>849.59997558594</ele>
        <time>2021-05-30T07:27:51.000Z</time>
      </trkpt>
      <trkpt lat="47.83238" lon="7.02723">
        <ele>850</ele>
        <time>2021-05-30T07:27:56.000Z</time>
      </trkpt>
      <trkpt lat="47.83237" lon="7.0272">
        <ele>850.79998779297</ele>
        <time>2021-05-30T07:27:57.000Z</time>
      </trkpt>
      <trkpt lat="47.83236" lon="7.02717">
        <ele>851.20001220703</ele>
        <time>2021-05-30T07:27:58.000Z</time>
      </trkpt>
      <trkpt lat="47.83237" lon="7.02714">
        <ele>851.59997558594</ele>
        <time>2021-05-30T07:27:59.000Z</time>
      </trkpt>
      <trkpt lat="47.8324" lon="7.02704">
        <ele>851.59997558594</ele>
        <time>2021-05-30T07:28:02.000Z</time>
      </trkpt>
      <trkpt lat="47.8324" lon="7.02701">
        <ele>852</ele>
        <time>2021-05-30T07:28:03.000Z</time>
      </trkpt>
      <trkpt lat="47.8324" lon="7.02698">
        <ele>852.40002441406</ele>
        <time>2021-05-30T07:28:04.000Z</time>
      </trkpt>
      <trkpt lat="47.83241" lon="7.02695">
        <ele>853.20001220703</ele>
        <time>2021-05-30T07:28:05.000Z</time>
      </trkpt>
      <trkpt lat="47.83241" lon="7.02692">
        <ele>853.59997558594</ele>
        <time>2021-05-30T07:28:06.000Z</time>
      </trkpt>
      <trkpt lat="47.8324" lon="7.02689">
        <ele>853.59997558594</ele>
        <time>2021-05-30T07:28:08.000Z</time>
      </trkpt>
      <trkpt lat="47.83241" lon="7.02677">
        <ele>854.40002441406</ele>
        <time>2021-05-30T07:28:13.000Z</time>
      </trkpt>
      <trkpt lat="47.83242" lon="7.02675">
        <ele>854.79998779297</ele>
        <time>2021-05-30T07:28:14.000Z</time>
      </trkpt>
      <trkpt lat="47.83242" lon="7.02672">
        <ele>855.20001220703</ele>
        <time>2021-05-30T07:28:15.000Z</time>
      </trkpt>
      <trkpt lat="47.83242" lon="7.0267">
        <ele>855.79998779297</ele>
        <time>2021-05-30T07:28:16.000Z</time>
      </trkpt>
      <trkpt lat="47.83243" lon="7.02666">
        <ele>855.79998779297</ele>
        <time>2021-05-30T07:28:19.000Z</time>
      </trkpt>
      <trkpt lat="47.83245" lon="7.02659">
        <ele>856.20001220703</ele>
        <time>2021-05-30T07:28:22.000Z</time>
      </trkpt>
      <trkpt lat="47.83246" lon="7.02658">
        <ele>856.59997558594</ele>
        <time>2021-05-30T07:28:23.000Z</time>
      </trkpt>
      <trkpt lat="47.83247" lon="7.02656">
        <ele>857</ele>
        <time>2021-05-30T07:28:24.000Z</time>
      </trkpt>
      <trkpt lat="47.83248" lon="7.02654">
        <ele>857.40002441406</ele>
        <time>2021-05-30T07:28:25.000Z</time>
      </trkpt>
      <trkpt lat="47.83248" lon="7.02652">
        <ele>858</ele>
        <time>2021-05-30T07:28:26.000Z</time>
      </trkpt>
      <trkpt lat="47.8325" lon="7.02641">
        <ele>858.40002441406</ele>
        <time>2021-05-30T07:28:31.000Z</time>
      </trkpt>
      <trkpt lat="47.83251" lon="7.02639">
        <ele>858.79998779297</ele>
        <time>2021-05-30T07:28:32.000Z</time>
      </trkpt>
      <trkpt lat="47.83252" lon="7.02636">
        <ele>859.20001220703</ele>
        <time>2021-05-30T07:28:33.000Z</time>
      </trkpt>
      <trkpt lat="47.83252" lon="7.02633">
        <ele>859.59997558594</ele>
        <time>2021-05-30T07:28:34.000Z</time>
      </trkpt>
      <trkpt lat="47.83252" lon="7.02629">
        <ele>860</ele>
        <time>2021-05-30T07:28:35.000Z</time>
      </trkpt>
      <trkpt lat="47.83253" lon="7.02612">
        <ele>860</ele>
        <time>2021-05-30T07:28:40.000Z</time>
      </trkpt>
      <trkpt lat="47.83254" lon="7.02609">
        <ele>860.40002441406</ele>
        <time>2021-05-30T07:28:41.000Z</time>
      </trkpt>
      <trkpt lat="47.83255" lon="7.02607">
        <ele>860.79998779297</ele>
        <time>2021-05-30T07:28:42.000Z</time>
      </trkpt>
      <trkpt lat="47.83255" lon="7.02606">
        <ele>861.20001220703</ele>
        <time>2021-05-30T07:28:43.000Z</time>
      </trkpt>
      <trkpt lat="47.83255" lon="7.02604">
        <ele>861.59997558594</ele>
        <time>2021-05-30T07:28:44.000Z</time>
      </trkpt>
      <trkpt lat="47.83255" lon="7.026">
        <ele>862</ele>
        <time>2021-05-30T07:28:45.000Z</time>
      </trkpt>
      <trkpt lat="47.83255" lon="7.02597">
        <ele>862</ele>
        <time>2021-05-30T07:28:46.000Z</time>
      </trkpt>
      <trkpt lat="47.83253" lon="7.02587">
        <ele>862.40002441406</ele>
        <time>2021-05-30T07:28:51.000Z</time>
      </trkpt>
      <trkpt lat="47.8324" lon="7.0256">
        <ele>864.59997558594</ele>
        <time>2021-05-30T07:29:02.000Z</time>
      </trkpt>
      <trkpt lat="47.83239" lon="7.02557">
        <ele>865.40002441406</ele>
        <time>2021-05-30T07:29:03.000Z</time>
      </trkpt>
      <trkpt lat="47.83239" lon="7.02554">
        <ele>865.79998779297</ele>
        <time>2021-05-30T07:29:04.000Z</time>
      </trkpt>
      <trkpt lat="47.83238" lon="7.02553">
        <ele>866.20001220703</ele>
        <time>2021-05-30T07:29:05.000Z</time>
      </trkpt>
      <trkpt lat="47.83237" lon="7.02542">
        <ele>866.59997558594</ele>
        <time>2021-05-30T07:29:09.000Z</time>
      </trkpt>
      <trkpt lat="47.83236" lon="7.02541">
        <ele>867</ele>
        <time>2021-05-30T07:29:10.000Z</time>
      </trkpt>
      <trkpt lat="47.83237" lon="7.02538">
        <ele>867.40002441406</ele>
        <time>2021-05-30T07:29:11.000Z</time>
      </trkpt>
      <trkpt lat="47.83237" lon="7.02535">
        <ele>867.79998779297</ele>
        <time>2021-05-30T07:29:12.000Z</time>
      </trkpt>
      <trkpt lat="47.83238" lon="7.02534">
        <ele>868.20001220703</ele>
        <time>2021-05-30T07:29:13.000Z</time>
      </trkpt>
      <trkpt lat="47.83238" lon="7.02528">
        <ele>868.20001220703</ele>
        <time>2021-05-30T07:29:16.000Z</time>
      </trkpt>
      <trkpt lat="47.83237" lon="7.02524">
        <ele>868.59997558594</ele>
        <time>2021-05-30T07:29:18.000Z</time>
      </trkpt>
      <trkpt lat="47.83238" lon="7.02522">
        <ele>869</ele>
        <time>2021-05-30T07:29:19.000Z</time>
      </trkpt>
      <trkpt lat="47.83238" lon="7.0252">
        <ele>869.40002441406</ele>
        <time>2021-05-30T07:29:20.000Z</time>
      </trkpt>
      <trkpt lat="47.83238" lon="7.02519">
        <ele>869.79998779297</ele>
        <time>2021-05-30T07:29:21.000Z</time>
      </trkpt>
      <trkpt lat="47.83239" lon="7.02516">
        <ele>870.20001220703</ele>
        <time>2021-05-30T07:29:22.000Z</time>
      </trkpt>
      <trkpt lat="47.83239" lon="7.02515">
        <ele>870.20001220703</ele>
        <time>2021-05-30T07:29:23.000Z</time>
      </trkpt>
      <trkpt lat="47.83239" lon="7.02512">
        <ele>870.79998779297</ele>
        <time>2021-05-30T07:29:25.000Z</time>
      </trkpt>
      <trkpt lat="47.83239" lon="7.02511">
        <ele>871.20001220703</ele>
        <time>2021-05-30T07:29:26.000Z</time>
      </trkpt>
      <trkpt lat="47.83239" lon="7.02509">
        <ele>871.59997558594</ele>
        <time>2021-05-30T07:29:28.000Z</time>
      </trkpt>
      <trkpt lat="47.83238" lon="7.02507">
        <ele>872</ele>
        <time>2021-05-30T07:29:29.000Z</time>
      </trkpt>
      <trkpt lat="47.83238" lon="7.02504">
        <ele>872.59997558594</ele>
        <time>2021-05-30T07:29:30.000Z</time>
      </trkpt>
      <trkpt lat="47.83236" lon="7.02496">
        <ele>873</ele>
        <time>2021-05-30T07:29:34.000Z</time>
      </trkpt>
      <trkpt lat="47.83236" lon="7.02495">
        <ele>873.40002441406</ele>
        <time>2021-05-30T07:29:35.000Z</time>
      </trkpt>
      <trkpt lat="47.83236" lon="7.02493">
        <ele>873.79998779297</ele>
        <time>2021-05-30T07:29:36.000Z</time>
      </trkpt>
      <trkpt lat="47.83235" lon="7.0249">
        <ele>874.20001220703</ele>
        <time>2021-05-30T07:29:37.000Z</time>
      </trkpt>
      <trkpt lat="47.83236" lon="7.02489">
        <ele>874.59997558594</ele>
        <time>2021-05-30T07:29:38.000Z</time>
      </trkpt>
      <trkpt lat="47.83234" lon="7.02482">
        <ele>875</ele>
        <time>2021-05-30T07:29:42.000Z</time>
      </trkpt>
      <trkpt lat="47.83233" lon="7.0248">
        <ele>875.40002441406</ele>
        <time>2021-05-30T07:29:43.000Z</time>
      </trkpt>
      <trkpt lat="47.83233" lon="7.0248">
        <ele>876.40002441406</ele>
        <time>2021-05-30T07:29:44.000Z</time>
      </trkpt>
      <trkpt lat="47.83234" lon="7.02474">
        <ele>876.79998779297</ele>
        <time>2021-05-30T07:29:46.000Z</time>
      </trkpt>
      <trkpt lat="47.83239" lon="7.02463">
        <ele>877.20001220703</ele>
        <time>2021-05-30T07:29:49.000Z</time>
      </trkpt>
      <trkpt lat="47.8324" lon="7.02459">
        <ele>877.59997558594</ele>
        <time>2021-05-30T07:29:50.000Z</time>
      </trkpt>
      <trkpt lat="47.8324" lon="7.02457">
        <ele>878.20001220703</ele>
        <time>2021-05-30T07:29:51.000Z</time>
      </trkpt>
      <trkpt lat="47.8324" lon="7.02454">
        <ele>879</ele>
        <time>2021-05-30T07:29:52.000Z</time>
      </trkpt>
      <trkpt lat="47.83241" lon="7.02446">
        <ele>879.40002441406</ele>
        <time>2021-05-30T07:29:56.000Z</time>
      </trkpt>
      <trkpt lat="47.83242" lon="7.02442">
        <ele>879.79998779297</ele>
        <time>2021-05-30T07:29:57.000Z</time>
      </trkpt>
      <trkpt lat="47.83242" lon="7.02439">
        <ele>880.20001220703</ele>
        <time>2021-05-30T07:29:58.000Z</time>
      </trkpt>
      <trkpt lat="47.83243" lon="7.02437">
        <ele>880.59997558594</ele>
        <time>2021-05-30T07:29:59.000Z</time>
      </trkpt>
      <trkpt lat="47.83244" lon="7.02434">
        <ele>881</ele>
        <time>2021-05-30T07:30:01.000Z</time>
      </trkpt>
      <trkpt lat="47.83247" lon="7.02423">
        <ele>881.40002441406</ele>
        <time>2021-05-30T07:30:04.000Z</time>
      </trkpt>
      <trkpt lat="47.83248" lon="7.0242">
        <ele>881.79998779297</ele>
        <time>2021-05-30T07:30:05.000Z</time>
      </trkpt>
      <trkpt lat="47.83249" lon="7.02417">
        <ele>882.20001220703</ele>
        <time>2021-05-30T07:30:06.000Z</time>
      </trkpt>
      <trkpt lat="47.83249" lon="7.02413">
        <ele>882.59997558594</ele>
        <time>2021-05-30T07:30:07.000Z</time>
      </trkpt>
      <trkpt lat="47.83248" lon="7.02409">
        <ele>883</ele>
        <time>2021-05-30T07:30:08.000Z</time>
      </trkpt>
      <trkpt lat="47.83247" lon="7.02407">
        <ele>883</ele>
        <time>2021-05-30T07:30:09.000Z</time>
      </trkpt>
      <trkpt lat="47.83247" lon="7.02399">
        <ele>883.40002441406</ele>
        <time>2021-05-30T07:30:12.000Z</time>
      </trkpt>
      <trkpt lat="47.83247" lon="7.02396">
        <ele>883.79998779297</ele>
        <time>2021-05-30T07:30:13.000Z</time>
      </trkpt>
      <trkpt lat="47.83247" lon="7.02393">
        <ele>884.20001220703</ele>
        <time>2021-05-30T07:30:14.000Z</time>
      </trkpt>
      <trkpt lat="47.83248" lon="7.0239">
        <ele>884.59997558594</ele>
        <time>2021-05-30T07:30:15.000Z</time>
      </trkpt>
      <trkpt lat="47.83248" lon="7.02388">
        <ele>885.20001220703</ele>
        <time>2021-05-30T07:30:16.000Z</time>
      </trkpt>
      <trkpt lat="47.83248" lon="7.02386">
        <ele>885.20001220703</ele>
        <time>2021-05-30T07:30:17.000Z</time>
      </trkpt>
      <trkpt lat="47.83248" lon="7.02375">
        <ele>885.20001220703</ele>
        <time>2021-05-30T07:30:21.000Z</time>
      </trkpt>
      <trkpt lat="47.83247" lon="7.02372">
        <ele>885.59997558594</ele>
        <time>2021-05-30T07:30:22.000Z</time>
      </trkpt>
      <trkpt lat="47.83247" lon="7.0237">
        <ele>886</ele>
        <time>2021-05-30T07:30:23.000Z</time>
      </trkpt>
      <trkpt lat="47.83246" lon="7.02367">
        <ele>886.40002441406</ele>
        <time>2021-05-30T07:30:24.000Z</time>
      </trkpt>
      <trkpt lat="47.83245" lon="7.02365">
        <ele>886.79998779297</ele>
        <time>2021-05-30T07:30:25.000Z</time>
      </trkpt>
      <trkpt lat="47.83245" lon="7.02363">
        <ele>887.40002441406</ele>
        <time>2021-05-30T07:30:26.000Z</time>
      </trkpt>
      <trkpt lat="47.83244" lon="7.02359">
        <ele>887.40002441406</ele>
        <time>2021-05-30T07:30:28.000Z</time>
      </trkpt>
      <trkpt lat="47.83244" lon="7.02351">
        <ele>887.79998779297</ele>
        <time>2021-05-30T07:30:32.000Z</time>
      </trkpt>
      <trkpt lat="47.83244" lon="7.02348">
        <ele>888.20001220703</ele>
        <time>2021-05-30T07:30:33.000Z</time>
      </trkpt>
      <trkpt lat="47.83244" lon="7.02345">
        <ele>889</ele>
        <time>2021-05-30T07:30:34.000Z</time>
      </trkpt>
      <trkpt lat="47.83244" lon="7.02342">
        <ele>889.59997558594</ele>
        <time>2021-05-30T07:30:36.000Z</time>
      </trkpt>
      <trkpt lat="47.83245" lon="7.0233">
        <ele>890</ele>
        <time>2021-05-30T07:30:42.000Z</time>
      </trkpt>
      <trkpt lat="47.83246" lon="7.02328">
        <ele>890.40002441406</ele>
        <time>2021-05-30T07:30:43.000Z</time>
      </trkpt>
      <trkpt lat="47.83247" lon="7.02325">
        <ele>891.20001220703</ele>
        <time>2021-05-30T07:30:44.000Z</time>
      </trkpt>
      <trkpt lat="47.83247" lon="7.02323">
        <ele>891.59997558594</ele>
        <time>2021-05-30T07:30:45.000Z</time>
      </trkpt>
      <trkpt lat="47.83248" lon="7.0232">
        <ele>891.59997558594</ele>
        <time>2021-05-30T07:30:46.000Z</time>
      </trkpt>
      <trkpt lat="47.83247" lon="7.02316">
        <ele>891.59997558594</ele>
        <time>2021-05-30T07:30:48.000Z</time>
      </trkpt>
      <trkpt lat="47.83247" lon="7.02312">
        <ele>892</ele>
        <time>2021-05-30T07:30:50.000Z</time>
      </trkpt>
      <trkpt lat="47.83248" lon="7.0231">
        <ele>892.40002441406</ele>
        <time>2021-05-30T07:30:51.000Z</time>
      </trkpt>
      <trkpt lat="47.83248" lon="7.02308">
        <ele>892.79998779297</ele>
        <time>2021-05-30T07:30:52.000Z</time>
      </trkpt>
      <trkpt lat="47.83249" lon="7.02305">
        <ele>893.20001220703</ele>
        <time>2021-05-30T07:30:53.000Z</time>
      </trkpt>
      <trkpt lat="47.8325" lon="7.02303">
        <ele>893.59997558594</ele>
        <time>2021-05-30T07:30:54.000Z</time>
      </trkpt>
      <trkpt lat="47.8325" lon="7.02301">
        <ele>893.59997558594</ele>
        <time>2021-05-30T07:30:55.000Z</time>
      </trkpt>
      <trkpt lat="47.83251" lon="7.02295">
        <ele>894</ele>
        <time>2021-05-30T07:30:58.000Z</time>
      </trkpt>
      <trkpt lat="47.8325" lon="7.02293">
        <ele>894.59997558594</ele>
        <time>2021-05-30T07:30:59.000Z</time>
      </trkpt>
      <trkpt lat="47.8325" lon="7.02291">
        <ele>895</ele>
        <time>2021-05-30T07:31:00.000Z</time>
      </trkpt>
      <trkpt lat="47.83249" lon="7.02289">
        <ele>895.40002441406</ele>
        <time>2021-05-30T07:31:01.000Z</time>
      </trkpt>
      <trkpt lat="47.83248" lon="7.02287">
        <ele>896</ele>
        <time>2021-05-30T07:31:02.000Z</time>
      </trkpt>
      <trkpt lat="47.83247" lon="7.02279">
        <ele>896.40002441406</ele>
        <time>2021-05-30T07:31:05.000Z</time>
      </trkpt>
      <trkpt lat="47.83248" lon="7.02275">
        <ele>896.79998779297</ele>
        <time>2021-05-30T07:31:06.000Z</time>
      </trkpt>
      <trkpt lat="47.83249" lon="7.02272">
        <ele>897.20001220703</ele>
        <time>2021-05-30T07:31:07.000Z</time>
      </trkpt>
      <trkpt lat="47.83251" lon="7.02268">
        <ele>897.79998779297</ele>
        <time>2021-05-30T07:31:08.000Z</time>
      </trkpt>
      <trkpt lat="47.83251" lon="7.02265">
        <ele>898.20001220703</ele>
        <time>2021-05-30T07:31:09.000Z</time>
      </trkpt>
      <trkpt lat="47.83254" lon="7.0225">
        <ele>898.59997558594</ele>
        <time>2021-05-30T07:31:14.000Z</time>
      </trkpt>
      <trkpt lat="47.83254" lon="7.02247">
        <ele>899</ele>
        <time>2021-05-30T07:31:15.000Z</time>
      </trkpt>
      <trkpt lat="47.83255" lon="7.02246">
        <ele>899.40002441406</ele>
        <time>2021-05-30T07:31:16.000Z</time>
      </trkpt>
      <trkpt lat="47.83254" lon="7.02242">
        <ele>900.20001220703</ele>
        <time>2021-05-30T07:31:18.000Z</time>
      </trkpt>
      <trkpt lat="47.83252" lon="7.02237">
        <ele>900.20001220703</ele>
        <time>2021-05-30T07:31:20.000Z</time>
      </trkpt>
      <trkpt lat="47.83253" lon="7.0223">
        <ele>900.20001220703</ele>
        <time>2021-05-30T07:31:22.000Z</time>
      </trkpt>
      <trkpt lat="47.83253" lon="7.02228">
        <ele>900.59997558594</ele>
        <time>2021-05-30T07:31:23.000Z</time>
      </trkpt>
      <trkpt lat="47.83253" lon="7.02225">
        <ele>901</ele>
        <time>2021-05-30T07:31:24.000Z</time>
      </trkpt>
      <trkpt lat="47.83254" lon="7.02223">
        <ele>901.59997558594</ele>
        <time>2021-05-30T07:31:25.000Z</time>
      </trkpt>
      <trkpt lat="47.83255" lon="7.0222">
        <ele>902</ele>
        <time>2021-05-30T07:31:26.000Z</time>
      </trkpt>
      <trkpt lat="47.83254" lon="7.02217">
        <ele>902.40002441406</ele>
        <time>2021-05-30T07:31:27.000Z</time>
      </trkpt>
      <trkpt lat="47.83254" lon="7.02214">
        <ele>902.40002441406</ele>
        <time>2021-05-30T07:31:28.000Z</time>
      </trkpt>
      <trkpt lat="47.83254" lon="7.02208">
        <ele>902.40002441406</ele>
        <time>2021-05-30T07:31:30.000Z</time>
      </trkpt>
      <trkpt lat="47.83252" lon="7.02197">
        <ele>902.79998779297</ele>
        <time>2021-05-30T07:31:34.000Z</time>
      </trkpt>
      <trkpt lat="47.8325" lon="7.02194">
        <ele>903.20001220703</ele>
        <time>2021-05-30T07:31:35.000Z</time>
      </trkpt>
      <trkpt lat="47.83248" lon="7.02192">
        <ele>904</ele>
        <time>2021-05-30T07:31:36.000Z</time>
      </trkpt>
      <trkpt lat="47.83246" lon="7.02189">
        <ele>904.40002441406</ele>
        <time>2021-05-30T07:31:37.000Z</time>
      </trkpt>
      <trkpt lat="47.83237" lon="7.02174">
        <ele>904.40002441406</ele>
        <time>2021-05-30T07:31:42.000Z</time>
      </trkpt>
      <trkpt lat="47.83224" lon="7.02164">
        <ele>904.40002441406</ele>
        <time>2021-05-30T07:31:47.000Z</time>
      </trkpt>
      <trkpt lat="47.83222" lon="7.02161">
        <ele>905</ele>
        <time>2021-05-30T07:31:48.000Z</time>
      </trkpt>
      <trkpt lat="47.83221" lon="7.02159">
        <ele>905.40002441406</ele>
        <time>2021-05-30T07:31:49.000Z</time>
      </trkpt>
      <trkpt lat="47.83219" lon="7.02156">
        <ele>905.79998779297</ele>
        <time>2021-05-30T07:31:50.000Z</time>
      </trkpt>
      <trkpt lat="47.83202" lon="7.02156">
        <ele>906.20001220703</ele>
        <time>2021-05-30T07:31:51.000Z</time>
      </trkpt>
      <trkpt lat="47.83202" lon="7.02155">
        <ele>906.59997558594</ele>
        <time>2021-05-30T07:31:52.000Z</time>
      </trkpt>
      <trkpt lat="47.832" lon="7.02148">
        <ele>906.59997558594</ele>
        <time>2021-05-30T07:31:55.000Z</time>
      </trkpt>
      <trkpt lat="47.83197" lon="7.02143">
        <ele>906.59997558594</ele>
        <time>2021-05-30T07:31:57.000Z</time>
      </trkpt>
      <trkpt lat="47.83177" lon="7.02134">
        <ele>906.59997558594</ele>
        <time>2021-05-30T07:32:03.000Z</time>
      </trkpt>
      <trkpt lat="47.83161" lon="7.02125">
        <ele>907</ele>
        <time>2021-05-30T07:32:09.000Z</time>
      </trkpt>
      <trkpt lat="47.83157" lon="7.02123">
        <ele>907.40002441406</ele>
        <time>2021-05-30T07:32:10.000Z</time>
      </trkpt>
      <trkpt lat="47.83156" lon="7.02121">
        <ele>907.79998779297</ele>
        <time>2021-05-30T07:32:11.000Z</time>
      </trkpt>
      <trkpt lat="47.83154" lon="7.02119">
        <ele>908.20001220703</ele>
        <time>2021-05-30T07:32:12.000Z</time>
      </trkpt>
      <trkpt lat="47.83151" lon="7.02119">
        <ele>908.59997558594</ele>
        <time>2021-05-30T07:32:13.000Z</time>
      </trkpt>
      <trkpt lat="47.83148" lon="7.02117">
        <ele>908.59997558594</ele>
        <time>2021-05-30T07:32:14.000Z</time>
      </trkpt>
      <trkpt lat="47.83135" lon="7.0211">
        <ele>909</ele>
        <time>2021-05-30T07:32:19.000Z</time>
      </trkpt>
      <trkpt lat="47.83132" lon="7.02109">
        <ele>909.40002441406</ele>
        <time>2021-05-30T07:32:20.000Z</time>
      </trkpt>
      <trkpt lat="47.83131" lon="7.02107">
        <ele>910</ele>
        <time>2021-05-30T07:32:21.000Z</time>
      </trkpt>
      <trkpt lat="47.8313" lon="7.02106">
        <ele>910.40002441406</ele>
        <time>2021-05-30T07:32:22.000Z</time>
      </trkpt>
      <trkpt lat="47.83128" lon="7.02104">
        <ele>910.79998779297</ele>
        <time>2021-05-30T07:32:23.000Z</time>
      </trkpt>
      <trkpt lat="47.83122" lon="7.021">
        <ele>910.79998779297</ele>
        <time>2021-05-30T07:32:26.000Z</time>
      </trkpt>
      <trkpt lat="47.8312" lon="7.02099">
        <ele>911.20001220703</ele>
        <time>2021-05-30T07:32:27.000Z</time>
      </trkpt>
      <trkpt lat="47.83118" lon="7.02098">
        <ele>911.59997558594</ele>
        <time>2021-05-30T07:32:28.000Z</time>
      </trkpt>
      <trkpt lat="47.83117" lon="7.02097">
        <ele>912</ele>
        <time>2021-05-30T07:32:29.000Z</time>
      </trkpt>
      <trkpt lat="47.83115" lon="7.02096">
        <ele>912.40002441406</ele>
        <time>2021-05-30T07:32:30.000Z</time>
      </trkpt>
      <trkpt lat="47.83113" lon="7.02094">
        <ele>912.79998779297</ele>
        <time>2021-05-30T07:32:31.000Z</time>
      </trkpt>
      <trkpt lat="47.83109" lon="7.02092">
        <ele>912.79998779297</ele>
        <time>2021-05-30T07:32:33.000Z</time>
      </trkpt>
      <trkpt lat="47.83105" lon="7.02091">
        <ele>913.20001220703</ele>
        <time>2021-05-30T07:32:35.000Z</time>
      </trkpt>
      <trkpt lat="47.83103" lon="7.02089">
        <ele>913.59997558594</ele>
        <time>2021-05-30T07:32:36.000Z</time>
      </trkpt>
      <trkpt lat="47.83102" lon="7.02088">
        <ele>914</ele>
        <time>2021-05-30T07:32:37.000Z</time>
      </trkpt>
      <trkpt lat="47.831" lon="7.02087">
        <ele>914.40002441406</ele>
        <time>2021-05-30T07:32:38.000Z</time>
      </trkpt>
      <trkpt lat="47.83098" lon="7.02087">
        <ele>914.79998779297</ele>
        <time>2021-05-30T07:32:39.000Z</time>
      </trkpt>
      <trkpt lat="47.83093" lon="7.02084">
        <ele>915.20001220703</ele>
        <time>2021-05-30T07:32:42.000Z</time>
      </trkpt>
      <trkpt lat="47.83091" lon="7.02083">
        <ele>915.59997558594</ele>
        <time>2021-05-30T07:32:43.000Z</time>
      </trkpt>
      <trkpt lat="47.83089" lon="7.02083">
        <ele>916.59997558594</ele>
        <time>2021-05-30T07:32:44.000Z</time>
      </trkpt>
      <trkpt lat="47.83087" lon="7.02083">
        <ele>917</ele>
        <time>2021-05-30T07:32:45.000Z</time>
      </trkpt>
      <trkpt lat="47.8308" lon="7.02082">
        <ele>917.40002441406</ele>
        <time>2021-05-30T07:32:49.000Z</time>
      </trkpt>
      <trkpt lat="47.83078" lon="7.02081">
        <ele>917.79998779297</ele>
        <time>2021-05-30T07:32:50.000Z</time>
      </trkpt>
      <trkpt lat="47.83077" lon="7.0208">
        <ele>918.20001220703</ele>
        <time>2021-05-30T07:32:51.000Z</time>
      </trkpt>
      <trkpt lat="47.83075" lon="7.02079">
        <ele>918.79998779297</ele>
        <time>2021-05-30T07:32:52.000Z</time>
      </trkpt>
      <trkpt lat="47.83074" lon="7.02078">
        <ele>919.20001220703</ele>
        <time>2021-05-30T07:32:53.000Z</time>
      </trkpt>
      <trkpt lat="47.83067" lon="7.02074">
        <ele>919.20001220703</ele>
        <time>2021-05-30T07:32:57.000Z</time>
      </trkpt>
      <trkpt lat="47.83065" lon="7.02074">
        <ele>919.59997558594</ele>
        <time>2021-05-30T07:32:58.000Z</time>
      </trkpt>
      <trkpt lat="47.83063" lon="7.02074">
        <ele>920</ele>
        <time>2021-05-30T07:32:59.000Z</time>
      </trkpt>
      <trkpt lat="47.83062" lon="7.02072">
        <ele>920.40002441406</ele>
        <time>2021-05-30T07:33:00.000Z</time>
      </trkpt>
      <trkpt lat="47.8306" lon="7.02069">
        <ele>920.79998779297</ele>
        <time>2021-05-30T07:33:01.000Z</time>
      </trkpt>
      <trkpt lat="47.83058" lon="7.02068">
        <ele>921.40002441406</ele>
        <time>2021-05-30T07:33:02.000Z</time>
      </trkpt>
      <trkpt lat="47.83047" lon="7.0206">
        <ele>921.79998779297</ele>
        <time>2021-05-30T07:33:07.000Z</time>
      </trkpt>
      <trkpt lat="47.83045" lon="7.02058">
        <ele>922.79998779297</ele>
        <time>2021-05-30T07:33:08.000Z</time>
      </trkpt>
      <trkpt lat="47.83043" lon="7.02057">
        <ele>923.20001220703</ele>
        <time>2021-05-30T07:33:09.000Z</time>
      </trkpt>
      <trkpt lat="47.83042" lon="7.02056">
        <ele>923.59997558594</ele>
        <time>2021-05-30T07:33:10.000Z</time>
      </trkpt>
      <trkpt lat="47.83038" lon="7.02053">
        <ele>923.59997558594</ele>
        <time>2021-05-30T07:33:12.000Z</time>
      </trkpt>
      <trkpt lat="47.83033" lon="7.02051">
        <ele>924</ele>
        <time>2021-05-30T07:33:15.000Z</time>
      </trkpt>
      <trkpt lat="47.83032" lon="7.0205">
        <ele>924.40002441406</ele>
        <time>2021-05-30T07:33:16.000Z</time>
      </trkpt>
      <trkpt lat="47.8303" lon="7.0205">
        <ele>924.79998779297</ele>
        <time>2021-05-30T07:33:17.000Z</time>
      </trkpt>
      <trkpt lat="47.83028" lon="7.0205">
        <ele>925.20001220703</ele>
        <time>2021-05-30T07:33:18.000Z</time>
      </trkpt>
      <trkpt lat="47.83026" lon="7.02049">
        <ele>925.59997558594</ele>
        <time>2021-05-30T07:33:19.000Z</time>
      </trkpt>
      <trkpt lat="47.83018" lon="7.02047">
        <ele>925.59997558594</ele>
        <time>2021-05-30T07:33:23.000Z</time>
      </trkpt>
      <trkpt lat="47.83008" lon="7.02045">
        <ele>926</ele>
        <time>2021-05-30T07:33:28.000Z</time>
      </trkpt>
      <trkpt lat="47.83007" lon="7.02044">
        <ele>926.40002441406</ele>
        <time>2021-05-30T07:33:29.000Z</time>
      </trkpt>
      <trkpt lat="47.83005" lon="7.02044">
        <ele>927</ele>
        <time>2021-05-30T07:33:30.000Z</time>
      </trkpt>
      <trkpt lat="47.83003" lon="7.02043">
        <ele>927.40002441406</ele>
        <time>2021-05-30T07:33:31.000Z</time>
      </trkpt>
      <trkpt lat="47.83001" lon="7.02043">
        <ele>927.79998779297</ele>
        <time>2021-05-30T07:33:32.000Z</time>
      </trkpt>
      <trkpt lat="47.82993" lon="7.02042">
        <ele>927.79998779297</ele>
        <time>2021-05-30T07:33:37.000Z</time>
      </trkpt>
      <trkpt lat="47.82991" lon="7.02042">
        <ele>928.20001220703</ele>
        <time>2021-05-30T07:33:38.000Z</time>
      </trkpt>
      <trkpt lat="47.8299" lon="7.02041">
        <ele>928.59997558594</ele>
        <time>2021-05-30T07:33:39.000Z</time>
      </trkpt>
      <trkpt lat="47.82988" lon="7.02041">
        <ele>929</ele>
        <time>2021-05-30T07:33:40.000Z</time>
      </trkpt>
      <trkpt lat="47.82986" lon="7.02041">
        <ele>929.40002441406</ele>
        <time>2021-05-30T07:33:41.000Z</time>
      </trkpt>
      <trkpt lat="47.82984" lon="7.02041">
        <ele>929.79998779297</ele>
        <time>2021-05-30T07:33:42.000Z</time>
      </trkpt>
      <trkpt lat="47.82981" lon="7.02041">
        <ele>929.79998779297</ele>
        <time>2021-05-30T07:33:44.000Z</time>
      </trkpt>
      <trkpt lat="47.82976" lon="7.02041">
        <ele>930.20001220703</ele>
        <time>2021-05-30T07:33:47.000Z</time>
      </trkpt>
      <trkpt lat="47.82974" lon="7.02042">
        <ele>930.59997558594</ele>
        <time>2021-05-30T07:33:48.000Z</time>
      </trkpt>
      <trkpt lat="47.82973" lon="7.02042">
        <ele>931</ele>
        <time>2021-05-30T07:33:49.000Z</time>
      </trkpt>
      <trkpt lat="47.82971" lon="7.02043">
        <ele>931.40002441406</ele>
        <time>2021-05-30T07:33:50.000Z</time>
      </trkpt>
      <trkpt lat="47.8297" lon="7.02043">
        <ele>931.79998779297</ele>
        <time>2021-05-30T07:33:51.000Z</time>
      </trkpt>
      <trkpt lat="47.82967" lon="7.02041">
        <ele>932.20001220703</ele>
        <time>2021-05-30T07:33:54.000Z</time>
      </trkpt>
      <trkpt lat="47.82965" lon="7.02041">
        <ele>932.79998779297</ele>
        <time>2021-05-30T07:33:56.000Z</time>
      </trkpt>
      <trkpt lat="47.82963" lon="7.02041">
        <ele>933.20001220703</ele>
        <time>2021-05-30T07:33:57.000Z</time>
      </trkpt>
      <trkpt lat="47.82961" lon="7.02042">
        <ele>933.59997558594</ele>
        <time>2021-05-30T07:33:58.000Z</time>
      </trkpt>
      <trkpt lat="47.8296" lon="7.02043">
        <ele>934</ele>
        <time>2021-05-30T07:33:59.000Z</time>
      </trkpt>
      <trkpt lat="47.82955" lon="7.02044">
        <ele>934.40002441406</ele>
        <time>2021-05-30T07:34:02.000Z</time>
      </trkpt>
      <trkpt lat="47.82953" lon="7.02045">
        <ele>934.79998779297</ele>
        <time>2021-05-30T07:34:03.000Z</time>
      </trkpt>
      <trkpt lat="47.82951" lon="7.02045">
        <ele>935.20001220703</ele>
        <time>2021-05-30T07:34:04.000Z</time>
      </trkpt>
      <trkpt lat="47.82949" lon="7.02046">
        <ele>935.59997558594</ele>
        <time>2021-05-30T07:34:05.000Z</time>
      </trkpt>
      <trkpt lat="47.82948" lon="7.02047">
        <ele>936</ele>
        <time>2021-05-30T07:34:06.000Z</time>
      </trkpt>
      <trkpt lat="47.82943" lon="7.02048">
        <ele>936</ele>
        <time>2021-05-30T07:34:09.000Z</time>
      </trkpt>
      <trkpt lat="47.82938" lon="7.02048">
        <ele>936.40002441406</ele>
        <time>2021-05-30T07:34:11.000Z</time>
      </trkpt>
      <trkpt lat="47.82934" lon="7.02048">
        <ele>936.79998779297</ele>
        <time>2021-05-30T07:34:12.000Z</time>
      </trkpt>
      <trkpt lat="47.82932" lon="7.02049">
        <ele>937.20001220703</ele>
        <time>2021-05-30T07:34:13.000Z</time>
      </trkpt>
      <trkpt lat="47.82929" lon="7.02048">
        <ele>937.59997558594</ele>
        <time>2021-05-30T07:34:14.000Z</time>
      </trkpt>
      <trkpt lat="47.82926" lon="7.02047">
        <ele>938</ele>
        <time>2021-05-30T07:34:15.000Z</time>
      </trkpt>
      <trkpt lat="47.82925" lon="7.02045">
        <ele>938</ele>
        <time>2021-05-30T07:34:16.000Z</time>
      </trkpt>
      <trkpt lat="47.8292" lon="7.02037">
        <ele>938</ele>
        <time>2021-05-30T07:34:20.000Z</time>
      </trkpt>
      <trkpt lat="47.82918" lon="7.02031">
        <ele>938</ele>
        <time>2021-05-30T07:34:23.000Z</time>
      </trkpt>
      <trkpt lat="47.82918" lon="7.02028">
        <ele>938</ele>
        <time>2021-05-30T07:34:24.000Z</time>
      </trkpt>
      <trkpt lat="47.82919" lon="7.02011">
        <ele>938</ele>
        <time>2021-05-30T07:34:29.000Z</time>
      </trkpt>
      <trkpt lat="47.8292" lon="7.02007">
        <ele>938.40002441406</ele>
        <time>2021-05-30T07:34:30.000Z</time>
      </trkpt>
      <trkpt lat="47.8292" lon="7.02004">
        <ele>938.79998779297</ele>
        <time>2021-05-30T07:34:31.000Z</time>
      </trkpt>
      <trkpt lat="47.82921" lon="7.02002">
        <ele>939.20001220703</ele>
        <time>2021-05-30T07:34:32.000Z</time>
      </trkpt>
      <trkpt lat="47.82923" lon="7.01998">
        <ele>939.59997558594</ele>
        <time>2021-05-30T07:34:33.000Z</time>
      </trkpt>
      <trkpt lat="47.82924" lon="7.01995">
        <ele>940</ele>
        <time>2021-05-30T07:34:34.000Z</time>
      </trkpt>
      <trkpt lat="47.82925" lon="7.01993">
        <ele>940</ele>
        <time>2021-05-30T07:34:35.000Z</time>
      </trkpt>
      <trkpt lat="47.82928" lon="7.0197">
        <ele>940</ele>
        <time>2021-05-30T07:34:41.000Z</time>
      </trkpt>
      <trkpt lat="47.82928" lon="7.01954">
        <ele>940</ele>
        <time>2021-05-30T07:34:47.000Z</time>
      </trkpt>
      <trkpt lat="47.82928" lon="7.01936">
        <ele>940</ele>
        <time>2021-05-30T07:34:53.000Z</time>
      </trkpt>
      <trkpt lat="47.8293" lon="7.0191">
        <ele>940</ele>
        <time>2021-05-30T07:35:00.000Z</time>
      </trkpt>
      <trkpt lat="47.82938" lon="7.01882">
        <ele>940</ele>
        <time>2021-05-30T07:35:06.000Z</time>
      </trkpt>
      <trkpt lat="47.82945" lon="7.0186">
        <ele>939.59997558594</ele>
        <time>2021-05-30T07:35:10.000Z</time>
      </trkpt>
      <trkpt lat="47.82945" lon="7.01855">
        <ele>939.20001220703</ele>
        <time>2021-05-30T07:35:11.000Z</time>
      </trkpt>
      <trkpt lat="47.82946" lon="7.01852">
        <ele>938.20001220703</ele>
        <time>2021-05-30T07:35:12.000Z</time>
      </trkpt>
      <trkpt lat="47.82948" lon="7.01849">
        <ele>937.59997558594</ele>
        <time>2021-05-30T07:35:13.000Z</time>
      </trkpt>
      <trkpt lat="47.82953" lon="7.01842">
        <ele>937.20001220703</ele>
        <time>2021-05-30T07:35:15.000Z</time>
      </trkpt>
      <trkpt lat="47.82956" lon="7.01838">
        <ele>936.59997558594</ele>
        <time>2021-05-30T07:35:16.000Z</time>
      </trkpt>
      <trkpt lat="47.82959" lon="7.0183">
        <ele>936.20001220703</ele>
        <time>2021-05-30T07:35:17.000Z</time>
      </trkpt>
      <trkpt lat="47.82962" lon="7.01822">
        <ele>935.40002441406</ele>
        <time>2021-05-30T07:35:18.000Z</time>
      </trkpt>
      <trkpt lat="47.82964" lon="7.01814">
        <ele>934.79998779297</ele>
        <time>2021-05-30T07:35:19.000Z</time>
      </trkpt>
      <trkpt lat="47.82964" lon="7.01805">
        <ele>934</ele>
        <time>2021-05-30T07:35:20.000Z</time>
      </trkpt>
      <trkpt lat="47.82964" lon="7.01796">
        <ele>933.40002441406</ele>
        <time>2021-05-30T07:35:21.000Z</time>
      </trkpt>
      <trkpt lat="47.82964" lon="7.01788">
        <ele>932.79998779297</ele>
        <time>2021-05-30T07:35:22.000Z</time>
      </trkpt>
      <trkpt lat="47.82964" lon="7.01771">
        <ele>932.20001220703</ele>
        <time>2021-05-30T07:35:24.000Z</time>
      </trkpt>
      <trkpt lat="47.82965" lon="7.01765">
        <ele>931.79998779297</ele>
        <time>2021-05-30T07:35:25.000Z</time>
      </trkpt>
      <trkpt lat="47.82969" lon="7.01759">
        <ele>931.20001220703</ele>
        <time>2021-05-30T07:35:26.000Z</time>
      </trkpt>
      <trkpt lat="47.82973" lon="7.01754">
        <ele>930.79998779297</ele>
        <time>2021-05-30T07:35:27.000Z</time>
      </trkpt>
      <trkpt lat="47.82977" lon="7.01749">
        <ele>930.40002441406</ele>
        <time>2021-05-30T07:35:28.000Z</time>
      </trkpt>
      <trkpt lat="47.8298" lon="7.01744">
        <ele>929.79998779297</ele>
        <time>2021-05-30T07:35:29.000Z</time>
      </trkpt>
      <trkpt lat="47.82983" lon="7.01739">
        <ele>929.40002441406</ele>
        <time>2021-05-30T07:35:30.000Z</time>
      </trkpt>
      <trkpt lat="47.82984" lon="7.01732">
        <ele>928.79998779297</ele>
        <time>2021-05-30T07:35:31.000Z</time>
      </trkpt>
      <trkpt lat="47.82984" lon="7.01727">
        <ele>928.40002441406</ele>
        <time>2021-05-30T07:35:32.000Z</time>
      </trkpt>
      <trkpt lat="47.82983" lon="7.01712">
        <ele>927.79998779297</ele>
        <time>2021-05-30T07:35:33.000Z</time>
      </trkpt>
      <trkpt lat="47.82981" lon="7.01699">
        <ele>927.20001220703</ele>
        <time>2021-05-30T07:35:34.000Z</time>
      </trkpt>
      <trkpt lat="47.82979" lon="7.01687">
        <ele>926.59997558594</ele>
        <time>2021-05-30T07:35:35.000Z</time>
      </trkpt>
      <trkpt lat="47.82978" lon="7.01674">
        <ele>926</ele>
        <time>2021-05-30T07:35:36.000Z</time>
      </trkpt>
      <trkpt lat="47.82977" lon="7.01664">
        <ele>924.59997558594</ele>
        <time>2021-05-30T07:35:37.000Z</time>
      </trkpt>
      <trkpt lat="47.82976" lon="7.01654">
        <ele>924</ele>
        <time>2021-05-30T07:35:38.000Z</time>
      </trkpt>
      <trkpt lat="47.82976" lon="7.01644">
        <ele>923.40002441406</ele>
        <time>2021-05-30T07:35:39.000Z</time>
      </trkpt>
      <trkpt lat="47.82976" lon="7.01635">
        <ele>922.79998779297</ele>
        <time>2021-05-30T07:35:40.000Z</time>
      </trkpt>
      <trkpt lat="47.82977" lon="7.01626">
        <ele>922.40002441406</ele>
        <time>2021-05-30T07:35:41.000Z</time>
      </trkpt>
      <trkpt lat="47.82979" lon="7.01618">
        <ele>922</ele>
        <time>2021-05-30T07:35:42.000Z</time>
      </trkpt>
      <trkpt lat="47.82981" lon="7.0161">
        <ele>921.40002441406</ele>
        <time>2021-05-30T07:35:43.000Z</time>
      </trkpt>
      <trkpt lat="47.82984" lon="7.01603">
        <ele>921</ele>
        <time>2021-05-30T07:35:44.000Z</time>
      </trkpt>
      <trkpt lat="47.82997" lon="7.01588">
        <ele>921</ele>
        <time>2021-05-30T07:35:47.000Z</time>
      </trkpt>
      <trkpt lat="47.83004" lon="7.01585">
        <ele>920.59997558594</ele>
        <time>2021-05-30T07:35:48.000Z</time>
      </trkpt>
      <trkpt lat="47.83011" lon="7.01583">
        <ele>920.20001220703</ele>
        <time>2021-05-30T07:35:49.000Z</time>
      </trkpt>
      <trkpt lat="47.83017" lon="7.01584">
        <ele>919.59997558594</ele>
        <time>2021-05-30T07:35:50.000Z</time>
      </trkpt>
      <trkpt lat="47.83022" lon="7.01586">
        <ele>919.20001220703</ele>
        <time>2021-05-30T07:35:51.000Z</time>
      </trkpt>
      <trkpt lat="47.83028" lon="7.01588">
        <ele>918.79998779297</ele>
        <time>2021-05-30T07:35:52.000Z</time>
      </trkpt>
      <trkpt lat="47.83034" lon="7.01591">
        <ele>918.79998779297</ele>
        <time>2021-05-30T07:35:53.000Z</time>
      </trkpt>
      <trkpt lat="47.8304" lon="7.01595">
        <ele>918.79998779297</ele>
        <time>2021-05-30T07:35:54.000Z</time>
      </trkpt>
      <trkpt lat="47.83047" lon="7.01601">
        <ele>918.40002441406</ele>
        <time>2021-05-30T07:35:55.000Z</time>
      </trkpt>
      <trkpt lat="47.83054" lon="7.01608">
        <ele>917.79998779297</ele>
        <time>2021-05-30T07:35:56.000Z</time>
      </trkpt>
      <trkpt lat="47.83062" lon="7.01615">
        <ele>917.40002441406</ele>
        <time>2021-05-30T07:35:57.000Z</time>
      </trkpt>
      <trkpt lat="47.83069" lon="7.01623">
        <ele>917</ele>
        <time>2021-05-30T07:35:58.000Z</time>
      </trkpt>
      <trkpt lat="47.83075" lon="7.0163">
        <ele>916.59997558594</ele>
        <time>2021-05-30T07:35:59.000Z</time>
      </trkpt>
      <trkpt lat="47.8308" lon="7.01637">
        <ele>916</ele>
        <time>2021-05-30T07:36:00.000Z</time>
      </trkpt>
      <trkpt lat="47.83086" lon="7.01642">
        <ele>915.59997558594</ele>
        <time>2021-05-30T07:36:01.000Z</time>
      </trkpt>
      <trkpt lat="47.83091" lon="7.01648">
        <ele>914.59997558594</ele>
        <time>2021-05-30T07:36:02.000Z</time>
      </trkpt>
      <trkpt lat="47.83096" lon="7.01654">
        <ele>914.20001220703</ele>
        <time>2021-05-30T07:36:03.000Z</time>
      </trkpt>
      <trkpt lat="47.83101" lon="7.01659">
        <ele>914.20001220703</ele>
        <time>2021-05-30T07:36:04.000Z</time>
      </trkpt>
      <trkpt lat="47.83116" lon="7.01674">
        <ele>913.59997558594</ele>
        <time>2021-05-30T07:36:07.000Z</time>
      </trkpt>
      <trkpt lat="47.83121" lon="7.01679">
        <ele>913.20001220703</ele>
        <time>2021-05-30T07:36:08.000Z</time>
      </trkpt>
      <trkpt lat="47.83127" lon="7.01685">
        <ele>912.79998779297</ele>
        <time>2021-05-30T07:36:09.000Z</time>
      </trkpt>
      <trkpt lat="47.83132" lon="7.01691">
        <ele>912.20001220703</ele>
        <time>2021-05-30T07:36:10.000Z</time>
      </trkpt>
      <trkpt lat="47.83139" lon="7.01696">
        <ele>911.79998779297</ele>
        <time>2021-05-30T07:36:11.000Z</time>
      </trkpt>
      <trkpt lat="47.83145" lon="7.017">
        <ele>911.40002441406</ele>
        <time>2021-05-30T07:36:12.000Z</time>
      </trkpt>
      <trkpt lat="47.83151" lon="7.01704">
        <ele>911</ele>
        <time>2021-05-30T07:36:13.000Z</time>
      </trkpt>
      <trkpt lat="47.83159" lon="7.01709">
        <ele>910.59997558594</ele>
        <time>2021-05-30T07:36:14.000Z</time>
      </trkpt>
      <trkpt lat="47.83165" lon="7.01711">
        <ele>910.20001220703</ele>
        <time>2021-05-30T07:36:15.000Z</time>
      </trkpt>
      <trkpt lat="47.8317" lon="7.01714">
        <ele>909.59997558594</ele>
        <time>2021-05-30T07:36:16.000Z</time>
      </trkpt>
      <trkpt lat="47.83176" lon="7.01717">
        <ele>909.20001220703</ele>
        <time>2021-05-30T07:36:17.000Z</time>
      </trkpt>
      <trkpt lat="47.83182" lon="7.01717">
        <ele>908.59997558594</ele>
        <time>2021-05-30T07:36:18.000Z</time>
      </trkpt>
      <trkpt lat="47.83188" lon="7.01716">
        <ele>908.20001220703</ele>
        <time>2021-05-30T07:36:19.000Z</time>
      </trkpt>
      <trkpt lat="47.83193" lon="7.01715">
        <ele>907.59997558594</ele>
        <time>2021-05-30T07:36:20.000Z</time>
      </trkpt>
      <trkpt lat="47.83199" lon="7.01712">
        <ele>907.20001220703</ele>
        <time>2021-05-30T07:36:21.000Z</time>
      </trkpt>
      <trkpt lat="47.83204" lon="7.01709">
        <ele>906.59997558594</ele>
        <time>2021-05-30T07:36:22.000Z</time>
      </trkpt>
      <trkpt lat="47.83209" lon="7.01706">
        <ele>906.20001220703</ele>
        <time>2021-05-30T07:36:23.000Z</time>
      </trkpt>
      <trkpt lat="47.83215" lon="7.01704">
        <ele>905.79998779297</ele>
        <time>2021-05-30T07:36:24.000Z</time>
      </trkpt>
      <trkpt lat="47.8322" lon="7.01702">
        <ele>904.79998779297</ele>
        <time>2021-05-30T07:36:25.000Z</time>
      </trkpt>
      <trkpt lat="47.83225" lon="7.01699">
        <ele>904.40002441406</ele>
        <time>2021-05-30T07:36:26.000Z</time>
      </trkpt>
      <trkpt lat="47.83231" lon="7.01698">
        <ele>904</ele>
        <time>2021-05-30T07:36:27.000Z</time>
      </trkpt>
      <trkpt lat="47.83237" lon="7.01696">
        <ele>903.59997558594</ele>
        <time>2021-05-30T07:36:28.000Z</time>
      </trkpt>
      <trkpt lat="47.83243" lon="7.01694">
        <ele>903</ele>
        <time>2021-05-30T07:36:29.000Z</time>
      </trkpt>
      <trkpt lat="47.83251" lon="7.01692">
        <ele>902.40002441406</ele>
        <time>2021-05-30T07:36:30.000Z</time>
      </trkpt>
      <trkpt lat="47.8326" lon="7.01689">
        <ele>901.79998779297</ele>
        <time>2021-05-30T07:36:31.000Z</time>
      </trkpt>
      <trkpt lat="47.83269" lon="7.01687">
        <ele>901</ele>
        <time>2021-05-30T07:36:32.000Z</time>
      </trkpt>
      <trkpt lat="47.8328" lon="7.01685">
        <ele>900.40002441406</ele>
        <time>2021-05-30T07:36:33.000Z</time>
      </trkpt>
      <trkpt lat="47.83289" lon="7.01683">
        <ele>899.59997558594</ele>
        <time>2021-05-30T07:36:34.000Z</time>
      </trkpt>
      <trkpt lat="47.83299" lon="7.01682">
        <ele>898.79998779297</ele>
        <time>2021-05-30T07:36:35.000Z</time>
      </trkpt>
      <trkpt lat="47.83309" lon="7.0168">
        <ele>898.20001220703</ele>
        <time>2021-05-30T07:36:36.000Z</time>
      </trkpt>
      <trkpt lat="47.83319" lon="7.01679">
        <ele>897.59997558594</ele>
        <time>2021-05-30T07:36:37.000Z</time>
      </trkpt>
      <trkpt lat="47.83328" lon="7.01678">
        <ele>897.20001220703</ele>
        <time>2021-05-30T07:36:38.000Z</time>
      </trkpt>
      <trkpt lat="47.83337" lon="7.01678">
        <ele>896.79998779297</ele>
        <time>2021-05-30T07:36:39.000Z</time>
      </trkpt>
      <trkpt lat="47.83345" lon="7.01679">
        <ele>896.40002441406</ele>
        <time>2021-05-30T07:36:40.000Z</time>
      </trkpt>
      <trkpt lat="47.83353" lon="7.01681">
        <ele>895.79998779297</ele>
        <time>2021-05-30T07:36:41.000Z</time>
      </trkpt>
      <trkpt lat="47.8336" lon="7.01683">
        <ele>895.79998779297</ele>
        <time>2021-05-30T07:36:42.000Z</time>
      </trkpt>
      <trkpt lat="47.83373" lon="7.01683">
        <ele>895.79998779297</ele>
        <time>2021-05-30T07:36:44.000Z</time>
      </trkpt>
      <trkpt lat="47.83381" lon="7.0168">
        <ele>895.79998779297</ele>
        <time>2021-05-30T07:36:46.000Z</time>
      </trkpt>
      <trkpt lat="47.83383" lon="7.01677">
        <ele>895.79998779297</ele>
        <time>2021-05-30T07:36:49.000Z</time>
      </trkpt>
      <trkpt lat="47.83382" lon="7.01677">
        <ele>895.79998779297</ele>
        <time>2021-05-30T07:36:50.000Z</time>
      </trkpt>
      <trkpt lat="47.83373" lon="7.01672">
        <ele>895.79998779297</ele>
        <time>2021-05-30T07:37:20.000Z</time>
      </trkpt>
      <trkpt lat="47.83371" lon="7.01669">
        <ele>895.79998779297</ele>
        <time>2021-05-30T07:37:22.000Z</time>
      </trkpt>
      <trkpt lat="47.83362" lon="7.01661">
        <ele>895.79998779297</ele>
        <time>2021-05-30T07:37:28.000Z</time>
      </trkpt>
      <trkpt lat="47.83352" lon="7.01656">
        <ele>895.79998779297</ele>
        <time>2021-05-30T07:37:33.000Z</time>
      </trkpt>
      <trkpt lat="47.8335" lon="7.01655">
        <ele>896.20001220703</ele>
        <time>2021-05-30T07:37:34.000Z</time>
      </trkpt>
      <trkpt lat="47.83349" lon="7.01653">
        <ele>896.79998779297</ele>
        <time>2021-05-30T07:37:35.000Z</time>
      </trkpt>
      <trkpt lat="47.83347" lon="7.01651">
        <ele>897.20001220703</ele>
        <time>2021-05-30T07:37:36.000Z</time>
      </trkpt>
      <trkpt lat="47.83346" lon="7.0165">
        <ele>897.59997558594</ele>
        <time>2021-05-30T07:37:37.000Z</time>
      </trkpt>
      <trkpt lat="47.83344" lon="7.01648">
        <ele>898</ele>
        <time>2021-05-30T07:37:38.000Z</time>
      </trkpt>
      <trkpt lat="47.83341" lon="7.01645">
        <ele>898.40002441406</ele>
        <time>2021-05-30T07:37:40.000Z</time>
      </trkpt>
      <trkpt lat="47.83339" lon="7.01643">
        <ele>899</ele>
        <time>2021-05-30T07:37:41.000Z</time>
      </trkpt>
      <trkpt lat="47.83338" lon="7.01641">
        <ele>899.40002441406</ele>
        <time>2021-05-30T07:37:42.000Z</time>
      </trkpt>
      <trkpt lat="47.83336" lon="7.0164">
        <ele>899.79998779297</ele>
        <time>2021-05-30T07:37:43.000Z</time>
      </trkpt>
      <trkpt lat="47.83334" lon="7.01639">
        <ele>900.20001220703</ele>
        <time>2021-05-30T07:37:44.000Z</time>
      </trkpt>
      <trkpt lat="47.83331" lon="7.01636">
        <ele>900.20001220703</ele>
        <time>2021-05-30T07:37:46.000Z</time>
      </trkpt>
      <trkpt lat="47.83328" lon="7.01633">
        <ele>900.59997558594</ele>
        <time>2021-05-30T07:37:48.000Z</time>
      </trkpt>
      <trkpt lat="47.83327" lon="7.01632">
        <ele>901.20001220703</ele>
        <time>2021-05-30T07:37:49.000Z</time>
      </trkpt>
      <trkpt lat="47.83325" lon="7.0163">
        <ele>901.59997558594</ele>
        <time>2021-05-30T07:37:50.000Z</time>
      </trkpt>
      <trkpt lat="47.83324" lon="7.01629">
        <ele>902</ele>
        <time>2021-05-30T07:37:51.000Z</time>
      </trkpt>
      <trkpt lat="47.83323" lon="7.01627">
        <ele>902.40002441406</ele>
        <time>2021-05-30T07:37:52.000Z</time>
      </trkpt>
      <trkpt lat="47.8332" lon="7.01626">
        <ele>902.40002441406</ele>
        <time>2021-05-30T07:37:54.000Z</time>
      </trkpt>
      <trkpt lat="47.83319" lon="7.01626">
        <ele>902.79998779297</ele>
        <time>2021-05-30T07:37:55.000Z</time>
      </trkpt>
      <trkpt lat="47.83318" lon="7.01625">
        <ele>903.40002441406</ele>
        <time>2021-05-30T07:37:56.000Z</time>
      </trkpt>
      <trkpt lat="47.83316" lon="7.01626">
        <ele>903.79998779297</ele>
        <time>2021-05-30T07:37:57.000Z</time>
      </trkpt>
      <trkpt lat="47.83315" lon="7.01626">
        <ele>904.20001220703</ele>
        <time>2021-05-30T07:37:58.000Z</time>
      </trkpt>
      <trkpt lat="47.83313" lon="7.01626">
        <ele>904.59997558594</ele>
        <time>2021-05-30T07:37:59.000Z</time>
      </trkpt>
      <trkpt lat="47.8331" lon="7.01626">
        <ele>904.59997558594</ele>
        <time>2021-05-30T07:38:01.000Z</time>
      </trkpt>
      <trkpt lat="47.83309" lon="7.01626">
        <ele>905</ele>
        <time>2021-05-30T07:38:02.000Z</time>
      </trkpt>
      <trkpt lat="47.83307" lon="7.01626">
        <ele>905.59997558594</ele>
        <time>2021-05-30T07:38:03.000Z</time>
      </trkpt>
      <trkpt lat="47.83306" lon="7.01626">
        <ele>906.40002441406</ele>
        <time>2021-05-30T07:38:04.000Z</time>
      </trkpt>
      <trkpt lat="47.83304" lon="7.01626">
        <ele>906.79998779297</ele>
        <time>2021-05-30T07:38:05.000Z</time>
      </trkpt>
      <trkpt lat="47.83299" lon="7.01625">
        <ele>906.79998779297</ele>
        <time>2021-05-30T07:38:08.000Z</time>
      </trkpt>
      <trkpt lat="47.83297" lon="7.01625">
        <ele>907.20001220703</ele>
        <time>2021-05-30T07:38:09.000Z</time>
      </trkpt>
      <trkpt lat="47.83295" lon="7.01624">
        <ele>907.59997558594</ele>
        <time>2021-05-30T07:38:10.000Z</time>
      </trkpt>
      <trkpt lat="47.83293" lon="7.01624">
        <ele>908</ele>
        <time>2021-05-30T07:38:11.000Z</time>
      </trkpt>
      <trkpt lat="47.83291" lon="7.01624">
        <ele>908.40002441406</ele>
        <time>2021-05-30T07:38:12.000Z</time>
      </trkpt>
      <trkpt lat="47.83289" lon="7.01624">
        <ele>908.79998779297</ele>
        <time>2021-05-30T07:38:13.000Z</time>
      </trkpt>
      <trkpt lat="47.83285" lon="7.01623">
        <ele>908.79998779297</ele>
        <time>2021-05-30T07:38:15.000Z</time>
      </trkpt>
      <trkpt lat="47.83281" lon="7.01622">
        <ele>908.79998779297</ele>
        <time>2021-05-30T07:38:17.000Z</time>
      </trkpt>
      <trkpt lat="47.83278" lon="7.0162">
        <ele>909.20001220703</ele>
        <time>2021-05-30T07:38:19.000Z</time>
      </trkpt>
      <trkpt lat="47.83277" lon="7.0162">
        <ele>909.59997558594</ele>
        <time>2021-05-30T07:38:20.000Z</time>
      </trkpt>
      <trkpt lat="47.83276" lon="7.01619">
        <ele>910</ele>
        <time>2021-05-30T07:38:21.000Z</time>
      </trkpt>
      <trkpt lat="47.83275" lon="7.01619">
        <ele>910.59997558594</ele>
        <time>2021-05-30T07:38:22.000Z</time>
      </trkpt>
      <trkpt lat="47.83273" lon="7.01617">
        <ele>911</ele>
        <time>2021-05-30T07:38:23.000Z</time>
      </trkpt>
      <trkpt lat="47.83272" lon="7.01617">
        <ele>911</ele>
        <time>2021-05-30T07:38:24.000Z</time>
      </trkpt>
      <trkpt lat="47.8327" lon="7.01617">
        <ele>911</ele>
        <time>2021-05-30T07:38:26.000Z</time>
      </trkpt>
      <trkpt lat="47.83269" lon="7.01617">
        <ele>911.79998779297</ele>
        <time>2021-05-30T07:38:28.000Z</time>
      </trkpt>
      <trkpt lat="47.83268" lon="7.01617">
        <ele>912.40002441406</ele>
        <time>2021-05-30T07:38:29.000Z</time>
      </trkpt>
      <trkpt lat="47.83267" lon="7.01617">
        <ele>912.79998779297</ele>
        <time>2021-05-30T07:38:30.000Z</time>
      </trkpt>
      <trkpt lat="47.83262" lon="7.01621">
        <ele>913.20001220703</ele>
        <time>2021-05-30T07:39:46.000Z</time>
      </trkpt>
      <trkpt lat="47.83261" lon="7.01622">
        <ele>913.20001220703</ele>
        <time>2021-05-30T07:39:47.000Z</time>
      </trkpt>
      <trkpt lat="47.83259" lon="7.01625">
        <ele>913.59997558594</ele>
        <time>2021-05-30T07:39:49.000Z</time>
      </trkpt>
      <trkpt lat="47.83258" lon="7.01626">
        <ele>914.20001220703</ele>
        <time>2021-05-30T07:39:50.000Z</time>
      </trkpt>
      <trkpt lat="47.83257" lon="7.01627">
        <ele>914.59997558594</ele>
        <time>2021-05-30T07:39:51.000Z</time>
      </trkpt>
      <trkpt lat="47.83256" lon="7.01627">
        <ele>915</ele>
        <time>2021-05-30T07:39:52.000Z</time>
      </trkpt>
      <trkpt lat="47.83254" lon="7.01629">
        <ele>915.40002441406</ele>
        <time>2021-05-30T07:39:53.000Z</time>
      </trkpt>
      <trkpt lat="47.83249" lon="7.01633">
        <ele>915.79998779297</ele>
        <time>2021-05-30T07:39:57.000Z</time>
      </trkpt>
      <trkpt lat="47.83246" lon="7.01634">
        <ele>916.20001220703</ele>
        <time>2021-05-30T07:39:58.000Z</time>
      </trkpt>
      <trkpt lat="47.83244" lon="7.01635">
        <ele>916.59997558594</ele>
        <time>2021-05-30T07:39:59.000Z</time>
      </trkpt>
      <trkpt lat="47.83242" lon="7.01635">
        <ele>917</ele>
        <time>2021-05-30T07:40:00.000Z</time>
      </trkpt>
      <trkpt lat="47.8324" lon="7.01636">
        <ele>917.59997558594</ele>
        <time>2021-05-30T07:40:01.000Z</time>
      </trkpt>
      <trkpt lat="47.83231" lon="7.0164">
        <ele>918</ele>
        <time>2021-05-30T07:40:05.000Z</time>
      </trkpt>
      <trkpt lat="47.8323" lon="7.01641">
        <ele>918.40002441406</ele>
        <time>2021-05-30T07:40:06.000Z</time>
      </trkpt>
      <trkpt lat="47.83228" lon="7.01641">
        <ele>919.20001220703</ele>
        <time>2021-05-30T07:40:07.000Z</time>
      </trkpt>
      <trkpt lat="47.83226" lon="7.01641">
        <ele>919.59997558594</ele>
        <time>2021-05-30T07:40:08.000Z</time>
      </trkpt>
      <trkpt lat="47.83221" lon="7.01642">
        <ele>920</ele>
        <time>2021-05-30T07:40:11.000Z</time>
      </trkpt>
      <trkpt lat="47.83219" lon="7.01642">
        <ele>920.40002441406</ele>
        <time>2021-05-30T07:40:12.000Z</time>
      </trkpt>
      <trkpt lat="47.83217" lon="7.01643">
        <ele>920.79998779297</ele>
        <time>2021-05-30T07:40:13.000Z</time>
      </trkpt>
      <trkpt lat="47.83215" lon="7.01642">
        <ele>921.40002441406</ele>
        <time>2021-05-30T07:40:14.000Z</time>
      </trkpt>
      <trkpt lat="47.83214" lon="7.01641">
        <ele>921.79998779297</ele>
        <time>2021-05-30T07:40:15.000Z</time>
      </trkpt>
      <trkpt lat="47.83209" lon="7.01638">
        <ele>922.20001220703</ele>
        <time>2021-05-30T07:40:18.000Z</time>
      </trkpt>
      <trkpt lat="47.83207" lon="7.01638">
        <ele>922.59997558594</ele>
        <time>2021-05-30T07:40:19.000Z</time>
      </trkpt>
      <trkpt lat="47.83205" lon="7.01637">
        <ele>923</ele>
        <time>2021-05-30T07:40:20.000Z</time>
      </trkpt>
      <trkpt lat="47.83203" lon="7.01635">
        <ele>923.40002441406</ele>
        <time>2021-05-30T07:40:21.000Z</time>
      </trkpt>
      <trkpt lat="47.83201" lon="7.01634">
        <ele>923.79998779297</ele>
        <time>2021-05-30T07:40:22.000Z</time>
      </trkpt>
      <trkpt lat="47.83198" lon="7.01634">
        <ele>924.20001220703</ele>
        <time>2021-05-30T07:40:24.000Z</time>
      </trkpt>
      <trkpt lat="47.83196" lon="7.01633">
        <ele>924.59997558594</ele>
        <time>2021-05-30T07:40:25.000Z</time>
      </trkpt>
      <trkpt lat="47.83195" lon="7.01631">
        <ele>925</ele>
        <time>2021-05-30T07:40:26.000Z</time>
      </trkpt>
      <trkpt lat="47.83194" lon="7.0163">
        <ele>925.40002441406</ele>
        <time>2021-05-30T07:40:27.000Z</time>
      </trkpt>
      <trkpt lat="47.83192" lon="7.01628">
        <ele>925.79998779297</ele>
        <time>2021-05-30T07:40:28.000Z</time>
      </trkpt>
      <trkpt lat="47.83191" lon="7.01628">
        <ele>926.20001220703</ele>
        <time>2021-05-30T07:40:30.000Z</time>
      </trkpt>
      <trkpt lat="47.83189" lon="7.01626">
        <ele>926.79998779297</ele>
        <time>2021-05-30T07:40:31.000Z</time>
      </trkpt>
      <trkpt lat="47.83188" lon="7.01627">
        <ele>927.59997558594</ele>
        <time>2021-05-30T07:40:32.000Z</time>
      </trkpt>
      <trkpt lat="47.83187" lon="7.01626">
        <ele>928</ele>
        <time>2021-05-30T07:40:33.000Z</time>
      </trkpt>
      <trkpt lat="47.83184" lon="7.01623">
        <ele>928.40002441406</ele>
        <time>2021-05-30T07:40:36.000Z</time>
      </trkpt>
      <trkpt lat="47.83183" lon="7.01621">
        <ele>929</ele>
        <time>2021-05-30T07:40:37.000Z</time>
      </trkpt>
      <trkpt lat="47.83182" lon="7.01619">
        <ele>929.40002441406</ele>
        <time>2021-05-30T07:40:38.000Z</time>
      </trkpt>
      <trkpt lat="47.83181" lon="7.01618">
        <ele>929.79998779297</ele>
        <time>2021-05-30T07:40:39.000Z</time>
      </trkpt>
      <trkpt lat="47.83181" lon="7.01617">
        <ele>930.20001220703</ele>
        <time>2021-05-30T07:40:40.000Z</time>
      </trkpt>
      <trkpt lat="47.83181" lon="7.01615">
        <ele>930.20001220703</ele>
        <time>2021-05-30T07:40:41.000Z</time>
      </trkpt>
      <trkpt lat="47.83176" lon="7.0161">
        <ele>930.59997558594</ele>
        <time>2021-05-30T07:40:45.000Z</time>
      </trkpt>
      <trkpt lat="47.83175" lon="7.01608">
        <ele>931</ele>
        <time>2021-05-30T07:40:46.000Z</time>
      </trkpt>
      <trkpt lat="47.83174" lon="7.01606">
        <ele>931.40002441406</ele>
        <time>2021-05-30T07:40:47.000Z</time>
      </trkpt>
      <trkpt lat="47.83173" lon="7.01604">
        <ele>932</ele>
        <time>2021-05-30T07:40:48.000Z</time>
      </trkpt>
      <trkpt lat="47.83172" lon="7.01603">
        <ele>932.40002441406</ele>
        <time>2021-05-30T07:40:49.000Z</time>
      </trkpt>
      <trkpt lat="47.83167" lon="7.01596">
        <ele>932.40002441406</ele>
        <time>2021-05-30T07:40:53.000Z</time>
      </trkpt>
      <trkpt lat="47.83163" lon="7.01594">
        <ele>932.40002441406</ele>
        <time>2021-05-30T07:40:55.000Z</time>
      </trkpt>
      <trkpt lat="47.83161" lon="7.01592">
        <ele>933.20001220703</ele>
        <time>2021-05-30T07:40:56.000Z</time>
      </trkpt>
      <trkpt lat="47.83159" lon="7.0159">
        <ele>933.59997558594</ele>
        <time>2021-05-30T07:40:57.000Z</time>
      </trkpt>
      <trkpt lat="47.83157" lon="7.01588">
        <ele>934.20001220703</ele>
        <time>2021-05-30T07:40:58.000Z</time>
      </trkpt>
      <trkpt lat="47.83154" lon="7.01586">
        <ele>934.59997558594</ele>
        <time>2021-05-30T07:40:59.000Z</time>
      </trkpt>
      <trkpt lat="47.83149" lon="7.01583">
        <ele>934.59997558594</ele>
        <time>2021-05-30T07:41:01.000Z</time>
      </trkpt>
      <trkpt lat="47.83138" lon="7.01578">
        <ele>935</ele>
        <time>2021-05-30T07:41:06.000Z</time>
      </trkpt>
      <trkpt lat="47.83136" lon="7.01577">
        <ele>935.40002441406</ele>
        <time>2021-05-30T07:41:07.000Z</time>
      </trkpt>
      <trkpt lat="47.83135" lon="7.01574">
        <ele>935.79998779297</ele>
        <time>2021-05-30T07:41:08.000Z</time>
      </trkpt>
      <trkpt lat="47.83134" lon="7.01572">
        <ele>936.20001220703</ele>
        <time>2021-05-30T07:41:09.000Z</time>
      </trkpt>
      <trkpt lat="47.83132" lon="7.01571">
        <ele>936.59997558594</ele>
        <time>2021-05-30T07:41:10.000Z</time>
      </trkpt>
      <trkpt lat="47.83127" lon="7.01564">
        <ele>937</ele>
        <time>2021-05-30T07:41:14.000Z</time>
      </trkpt>
      <trkpt lat="47.83127" lon="7.01563">
        <ele>937.40002441406</ele>
        <time>2021-05-30T07:41:15.000Z</time>
      </trkpt>
      <trkpt lat="47.83125" lon="7.01561">
        <ele>937.79998779297</ele>
        <time>2021-05-30T07:41:16.000Z</time>
      </trkpt>
      <trkpt lat="47.83124" lon="7.01559">
        <ele>938.40002441406</ele>
        <time>2021-05-30T07:41:17.000Z</time>
      </trkpt>
      <trkpt lat="47.83123" lon="7.01558">
        <ele>938.79998779297</ele>
        <time>2021-05-30T07:41:18.000Z</time>
      </trkpt>
      <trkpt lat="47.83118" lon="7.01552">
        <ele>939.20001220703</ele>
        <time>2021-05-30T07:41:21.000Z</time>
      </trkpt>
      <trkpt lat="47.83117" lon="7.0155">
        <ele>939.59997558594</ele>
        <time>2021-05-30T07:41:22.000Z</time>
      </trkpt>
      <trkpt lat="47.83115" lon="7.01549">
        <ele>940</ele>
        <time>2021-05-30T07:41:23.000Z</time>
      </trkpt>
      <trkpt lat="47.83113" lon="7.01548">
        <ele>940.59997558594</ele>
        <time>2021-05-30T07:41:24.000Z</time>
      </trkpt>
      <trkpt lat="47.83111" lon="7.01546">
        <ele>941</ele>
        <time>2021-05-30T07:41:25.000Z</time>
      </trkpt>
      <trkpt lat="47.83105" lon="7.01538">
        <ele>941</ele>
        <time>2021-05-30T07:41:29.000Z</time>
      </trkpt>
      <trkpt lat="47.83095" lon="7.01526">
        <ele>941.40002441406</ele>
        <time>2021-05-30T07:41:35.000Z</time>
      </trkpt>
      <trkpt lat="47.83093" lon="7.01524">
        <ele>941.79998779297</ele>
        <time>2021-05-30T07:41:36.000Z</time>
      </trkpt>
      <trkpt lat="47.83092" lon="7.01522">
        <ele>942.20001220703</ele>
        <time>2021-05-30T07:41:37.000Z</time>
      </trkpt>
      <trkpt lat="47.83091" lon="7.0152">
        <ele>942.59997558594</ele>
        <time>2021-05-30T07:41:38.000Z</time>
      </trkpt>
      <trkpt lat="47.8309" lon="7.01517">
        <ele>943</ele>
        <time>2021-05-30T07:41:39.000Z</time>
      </trkpt>
      <trkpt lat="47.83089" lon="7.01507">
        <ele>943</ele>
        <time>2021-05-30T07:41:42.000Z</time>
      </trkpt>
      <trkpt lat="47.83087" lon="7.01494">
        <ele>943.79998779297</ele>
        <time>2021-05-30T07:41:46.000Z</time>
      </trkpt>
      <trkpt lat="47.83086" lon="7.01491">
        <ele>944.40002441406</ele>
        <time>2021-05-30T07:41:47.000Z</time>
      </trkpt>
      <trkpt lat="47.83085" lon="7.01488">
        <ele>944.79998779297</ele>
        <time>2021-05-30T07:41:48.000Z</time>
      </trkpt>
      <trkpt lat="47.83084" lon="7.01485">
        <ele>945.20001220703</ele>
        <time>2021-05-30T07:41:49.000Z</time>
      </trkpt>
      <trkpt lat="47.83079" lon="7.01473">
        <ele>945.59997558594</ele>
        <time>2021-05-30T07:41:54.000Z</time>
      </trkpt>
      <trkpt lat="47.83078" lon="7.0147">
        <ele>946</ele>
        <time>2021-05-30T07:41:55.000Z</time>
      </trkpt>
      <trkpt lat="47.83078" lon="7.01468">
        <ele>946.59997558594</ele>
        <time>2021-05-30T07:41:56.000Z</time>
      </trkpt>
      <trkpt lat="47.83077" lon="7.01466">
        <ele>947</ele>
        <time>2021-05-30T07:41:57.000Z</time>
      </trkpt>
      <trkpt lat="47.83077" lon="7.01464">
        <ele>947.40002441406</ele>
        <time>2021-05-30T07:41:58.000Z</time>
      </trkpt>
      <trkpt lat="47.83074" lon="7.01456">
        <ele>947.40002441406</ele>
        <time>2021-05-30T07:42:01.000Z</time>
      </trkpt>
      <trkpt lat="47.83071" lon="7.01448">
        <ele>947.79998779297</ele>
        <time>2021-05-30T07:42:04.000Z</time>
      </trkpt>
      <trkpt lat="47.8307" lon="7.01446">
        <ele>948.20001220703</ele>
        <time>2021-05-30T07:42:05.000Z</time>
      </trkpt>
      <trkpt lat="47.83069" lon="7.01445">
        <ele>948.59997558594</ele>
        <time>2021-05-30T07:42:06.000Z</time>
      </trkpt>
      <trkpt lat="47.83067" lon="7.01442">
        <ele>949</ele>
        <time>2021-05-30T07:42:07.000Z</time>
      </trkpt>
      <trkpt lat="47.83065" lon="7.01439">
        <ele>949.59997558594</ele>
        <time>2021-05-30T07:42:08.000Z</time>
      </trkpt>
      <trkpt lat="47.83056" lon="7.01424">
        <ele>950</ele>
        <time>2021-05-30T07:42:13.000Z</time>
      </trkpt>
      <trkpt lat="47.83054" lon="7.01422">
        <ele>950.40002441406</ele>
        <time>2021-05-30T07:42:14.000Z</time>
      </trkpt>
      <trkpt lat="47.83053" lon="7.0142">
        <ele>950.79998779297</ele>
        <time>2021-05-30T07:42:15.000Z</time>
      </trkpt>
      <trkpt lat="47.83051" lon="7.01418">
        <ele>951.20001220703</ele>
        <time>2021-05-30T07:42:16.000Z</time>
      </trkpt>
      <trkpt lat="47.8305" lon="7.01416">
        <ele>951.59997558594</ele>
        <time>2021-05-30T07:42:17.000Z</time>
      </trkpt>
      <trkpt lat="47.83044" lon="7.01409">
        <ele>951.59997558594</ele>
        <time>2021-05-30T07:42:21.000Z</time>
      </trkpt>
      <trkpt lat="47.8304" lon="7.01406">
        <ele>952</ele>
        <time>2021-05-30T07:42:23.000Z</time>
      </trkpt>
      <trkpt lat="47.83038" lon="7.01405">
        <ele>952.40002441406</ele>
        <time>2021-05-30T07:42:24.000Z</time>
      </trkpt>
      <trkpt lat="47.83036" lon="7.01403">
        <ele>952.79998779297</ele>
        <time>2021-05-30T07:42:25.000Z</time>
      </trkpt>
      <trkpt lat="47.83035" lon="7.014">
        <ele>953.40002441406</ele>
        <time>2021-05-30T07:42:26.000Z</time>
      </trkpt>
      <trkpt lat="47.83035" lon="7.01397">
        <ele>953.79998779297</ele>
        <time>2021-05-30T07:42:27.000Z</time>
      </trkpt>
      <trkpt lat="47.83034" lon="7.01394">
        <ele>953.79998779297</ele>
        <time>2021-05-30T07:42:28.000Z</time>
      </trkpt>
      <trkpt lat="47.83029" lon="7.01387">
        <ele>954.20001220703</ele>
        <time>2021-05-30T07:42:31.000Z</time>
      </trkpt>
      <trkpt lat="47.83028" lon="7.01387">
        <ele>954.59997558594</ele>
        <time>2021-05-30T07:42:32.000Z</time>
      </trkpt>
      <trkpt lat="47.83026" lon="7.01385">
        <ele>955</ele>
        <time>2021-05-30T07:42:33.000Z</time>
      </trkpt>
      <trkpt lat="47.83025" lon="7.01382">
        <ele>955.59997558594</ele>
        <time>2021-05-30T07:42:34.000Z</time>
      </trkpt>
      <trkpt lat="47.83023" lon="7.01379">
        <ele>956</ele>
        <time>2021-05-30T07:42:35.000Z</time>
      </trkpt>
      <trkpt lat="47.83019" lon="7.01374">
        <ele>956.40002441406</ele>
        <time>2021-05-30T07:42:38.000Z</time>
      </trkpt>
      <trkpt lat="47.83017" lon="7.01372">
        <ele>956.79998779297</ele>
        <time>2021-05-30T07:42:39.000Z</time>
      </trkpt>
      <trkpt lat="47.83015" lon="7.0137">
        <ele>957.40002441406</ele>
        <time>2021-05-30T07:42:40.000Z</time>
      </trkpt>
      <trkpt lat="47.83014" lon="7.01367">
        <ele>957.79998779297</ele>
        <time>2021-05-30T07:42:41.000Z</time>
      </trkpt>
      <trkpt lat="47.83012" lon="7.01364">
        <ele>958.20001220703</ele>
        <time>2021-05-30T07:42:42.000Z</time>
      </trkpt>
      <trkpt lat="47.83009" lon="7.01351">
        <ele>958.59997558594</ele>
        <time>2021-05-30T07:42:46.000Z</time>
      </trkpt>
      <trkpt lat="47.83009" lon="7.01347">
        <ele>959</ele>
        <time>2021-05-30T07:42:47.000Z</time>
      </trkpt>
      <trkpt lat="47.83008" lon="7.01344">
        <ele>959.59997558594</ele>
        <time>2021-05-30T07:42:48.000Z</time>
      </trkpt>
      <trkpt lat="47.83007" lon="7.01342">
        <ele>960</ele>
        <time>2021-05-30T07:42:49.000Z</time>
      </trkpt>
      <trkpt lat="47.83006" lon="7.0134">
        <ele>960.40002441406</ele>
        <time>2021-05-30T07:42:50.000Z</time>
      </trkpt>
      <trkpt lat="47.83" lon="7.01334">
        <ele>960.40002441406</ele>
        <time>2021-05-30T07:42:53.000Z</time>
      </trkpt>
      <trkpt lat="47.82997" lon="7.01333">
        <ele>960.79998779297</ele>
        <time>2021-05-30T07:42:55.000Z</time>
      </trkpt>
      <trkpt lat="47.82995" lon="7.01333">
        <ele>961.20001220703</ele>
        <time>2021-05-30T07:42:56.000Z</time>
      </trkpt>
      <trkpt lat="47.82992" lon="7.01332">
        <ele>961.59997558594</ele>
        <time>2021-05-30T07:42:57.000Z</time>
      </trkpt>
      <trkpt lat="47.8299" lon="7.01331">
        <ele>962</ele>
        <time>2021-05-30T07:42:58.000Z</time>
      </trkpt>
      <trkpt lat="47.82988" lon="7.0133">
        <ele>962.40002441406</ele>
        <time>2021-05-30T07:42:59.000Z</time>
      </trkpt>
      <trkpt lat="47.82979" lon="7.01329">
        <ele>962.79998779297</ele>
        <time>2021-05-30T07:43:04.000Z</time>
      </trkpt>
      <trkpt lat="47.82979" lon="7.01328">
        <ele>963.20001220703</ele>
        <time>2021-05-30T07:43:05.000Z</time>
      </trkpt>
      <trkpt lat="47.82977" lon="7.01327">
        <ele>963.79998779297</ele>
        <time>2021-05-30T07:43:06.000Z</time>
      </trkpt>
      <trkpt lat="47.82976" lon="7.01325">
        <ele>964.20001220703</ele>
        <time>2021-05-30T07:43:07.000Z</time>
      </trkpt>
      <trkpt lat="47.82975" lon="7.01323">
        <ele>964.59997558594</ele>
        <time>2021-05-30T07:43:08.000Z</time>
      </trkpt>
      <trkpt lat="47.82974" lon="7.01319">
        <ele>964.59997558594</ele>
        <time>2021-05-30T07:43:10.000Z</time>
      </trkpt>
      <trkpt lat="47.82975" lon="7.01316">
        <ele>964.59997558594</ele>
        <time>2021-05-30T07:43:12.000Z</time>
      </trkpt>
      <trkpt lat="47.82976" lon="7.01314">
        <ele>965.20001220703</ele>
        <time>2021-05-30T07:43:13.000Z</time>
      </trkpt>
      <trkpt lat="47.82977" lon="7.01313">
        <ele>965.59997558594</ele>
        <time>2021-05-30T07:43:14.000Z</time>
      </trkpt>
      <trkpt lat="47.82979" lon="7.01313">
        <ele>966</ele>
        <time>2021-05-30T07:43:15.000Z</time>
      </trkpt>
      <trkpt lat="47.82981" lon="7.01311">
        <ele>966.40002441406</ele>
        <time>2021-05-30T07:43:16.000Z</time>
      </trkpt>
      <trkpt lat="47.82983" lon="7.01309">
        <ele>967</ele>
        <time>2021-05-30T07:43:17.000Z</time>
      </trkpt>
      <trkpt lat="47.82984" lon="7.01307">
        <ele>967</ele>
        <time>2021-05-30T07:43:18.000Z</time>
      </trkpt>
      <trkpt lat="47.82989" lon="7.01301">
        <ele>967.40002441406</ele>
        <time>2021-05-30T07:43:22.000Z</time>
      </trkpt>
      <trkpt lat="47.8299" lon="7.013">
        <ele>967.79998779297</ele>
        <time>2021-05-30T07:43:23.000Z</time>
      </trkpt>
      <trkpt lat="47.82992" lon="7.013">
        <ele>968.59997558594</ele>
        <time>2021-05-30T07:43:24.000Z</time>
      </trkpt>
      <trkpt lat="47.82993" lon="7.01299">
        <ele>969</ele>
        <time>2021-05-30T07:43:25.000Z</time>
      </trkpt>
      <trkpt lat="47.83001" lon="7.013">
        <ele>969.40002441406</ele>
        <time>2021-05-30T07:43:29.000Z</time>
      </trkpt>
      <trkpt lat="47.83003" lon="7.01301">
        <ele>969.79998779297</ele>
        <time>2021-05-30T07:43:30.000Z</time>
      </trkpt>
      <trkpt lat="47.83004" lon="7.01302">
        <ele>970.40002441406</ele>
        <time>2021-05-30T07:43:31.000Z</time>
      </trkpt>
      <trkpt lat="47.83006" lon="7.01302">
        <ele>970.79998779297</ele>
        <time>2021-05-30T07:43:32.000Z</time>
      </trkpt>
      <trkpt lat="47.83008" lon="7.01303">
        <ele>971.20001220703</ele>
        <time>2021-05-30T07:43:33.000Z</time>
      </trkpt>
      <trkpt lat="47.83013" lon="7.01308">
        <ele>971.20001220703</ele>
        <time>2021-05-30T07:43:36.000Z</time>
      </trkpt>
      <trkpt lat="47.83015" lon="7.01309">
        <ele>971.59997558594</ele>
        <time>2021-05-30T07:43:37.000Z</time>
      </trkpt>
      <trkpt lat="47.83017" lon="7.0131">
        <ele>972</ele>
        <time>2021-05-30T07:43:38.000Z</time>
      </trkpt>
      <trkpt lat="47.83019" lon="7.01311">
        <ele>972.40002441406</ele>
        <time>2021-05-30T07:43:39.000Z</time>
      </trkpt>
      <trkpt lat="47.83021" lon="7.01312">
        <ele>972.79998779297</ele>
        <time>2021-05-30T07:43:40.000Z</time>
      </trkpt>
      <trkpt lat="47.83023" lon="7.01313">
        <ele>973.20001220703</ele>
        <time>2021-05-30T07:43:41.000Z</time>
      </trkpt>
      <trkpt lat="47.83027" lon="7.01314">
        <ele>973.20001220703</ele>
        <time>2021-05-30T07:43:43.000Z</time>
      </trkpt>
      <trkpt lat="47.83028" lon="7.01314">
        <ele>973.79998779297</ele>
        <time>2021-05-30T07:43:44.000Z</time>
      </trkpt>
      <trkpt lat="47.8303" lon="7.01314">
        <ele>974.20001220703</ele>
        <time>2021-05-30T07:43:45.000Z</time>
      </trkpt>
      <trkpt lat="47.83032" lon="7.01315">
        <ele>974.59997558594</ele>
        <time>2021-05-30T07:43:46.000Z</time>
      </trkpt>
      <trkpt lat="47.83035" lon="7.01316">
        <ele>975</ele>
        <time>2021-05-30T07:43:47.000Z</time>
      </trkpt>
      <trkpt lat="47.83037" lon="7.01316">
        <ele>975.40002441406</ele>
        <time>2021-05-30T07:43:48.000Z</time>
      </trkpt>
      <trkpt lat="47.83044" lon="7.01318">
        <ele>975.40002441406</ele>
        <time>2021-05-30T07:43:51.000Z</time>
      </trkpt>
      <trkpt lat="47.83049" lon="7.01318">
        <ele>975.79998779297</ele>
        <time>2021-05-30T07:43:53.000Z</time>
      </trkpt>
      <trkpt lat="47.83051" lon="7.01318">
        <ele>976.20001220703</ele>
        <time>2021-05-30T07:43:54.000Z</time>
      </trkpt>
      <trkpt lat="47.83052" lon="7.01318">
        <ele>976.59997558594</ele>
        <time>2021-05-30T07:43:55.000Z</time>
      </trkpt>
      <trkpt lat="47.83054" lon="7.01318">
        <ele>977</ele>
        <time>2021-05-30T07:43:56.000Z</time>
      </trkpt>
      <trkpt lat="47.83055" lon="7.01318">
        <ele>977.40002441406</ele>
        <time>2021-05-30T07:43:57.000Z</time>
      </trkpt>
      <trkpt lat="47.83063" lon="7.01312">
        <ele>977.79998779297</ele>
        <time>2021-05-30T07:44:02.000Z</time>
      </trkpt>
      <trkpt lat="47.83065" lon="7.01311">
        <ele>978.40002441406</ele>
        <time>2021-05-30T07:44:03.000Z</time>
      </trkpt>
      <trkpt lat="47.83066" lon="7.0131">
        <ele>978.79998779297</ele>
        <time>2021-05-30T07:44:04.000Z</time>
      </trkpt>
      <trkpt lat="47.83067" lon="7.01308">
        <ele>979.20001220703</ele>
        <time>2021-05-30T07:44:05.000Z</time>
      </trkpt>
      <trkpt lat="47.83069" lon="7.01307">
        <ele>979.59997558594</ele>
        <time>2021-05-30T07:44:06.000Z</time>
      </trkpt>
      <trkpt lat="47.83076" lon="7.01302">
        <ele>980</ele>
        <time>2021-05-30T07:44:10.000Z</time>
      </trkpt>
      <trkpt lat="47.83077" lon="7.01301">
        <ele>980.40002441406</ele>
        <time>2021-05-30T07:44:11.000Z</time>
      </trkpt>
      <trkpt lat="47.83079" lon="7.01301">
        <ele>980.79998779297</ele>
        <time>2021-05-30T07:44:12.000Z</time>
      </trkpt>
      <trkpt lat="47.83081" lon="7.01301">
        <ele>981.40002441406</ele>
        <time>2021-05-30T07:44:13.000Z</time>
      </trkpt>
      <trkpt lat="47.83083" lon="7.01301">
        <ele>981.79998779297</ele>
        <time>2021-05-30T07:44:14.000Z</time>
      </trkpt>
      <trkpt lat="47.83087" lon="7.01301">
        <ele>982.20001220703</ele>
        <time>2021-05-30T07:44:16.000Z</time>
      </trkpt>
      <trkpt lat="47.83089" lon="7.01301">
        <ele>982.59997558594</ele>
        <time>2021-05-30T07:44:17.000Z</time>
      </trkpt>
      <trkpt lat="47.8309" lon="7.01301">
        <ele>983</ele>
        <time>2021-05-30T07:44:18.000Z</time>
      </trkpt>
      <trkpt lat="47.83092" lon="7.01302">
        <ele>983.40002441406</ele>
        <time>2021-05-30T07:44:19.000Z</time>
      </trkpt>
      <trkpt lat="47.83094" lon="7.01302">
        <ele>983.79998779297</ele>
        <time>2021-05-30T07:44:20.000Z</time>
      </trkpt>
      <trkpt lat="47.83098" lon="7.01303">
        <ele>983.79998779297</ele>
        <time>2021-05-30T07:44:22.000Z</time>
      </trkpt>
      <trkpt lat="47.83104" lon="7.01304">
        <ele>984.20001220703</ele>
        <time>2021-05-30T07:44:25.000Z</time>
      </trkpt>
      <trkpt lat="47.83105" lon="7.01304">
        <ele>984.59997558594</ele>
        <time>2021-05-30T07:44:26.000Z</time>
      </trkpt>
      <trkpt lat="47.83107" lon="7.01305">
        <ele>985</ele>
        <time>2021-05-30T07:44:27.000Z</time>
      </trkpt>
      <trkpt lat="47.83108" lon="7.01306">
        <ele>985.59997558594</ele>
        <time>2021-05-30T07:44:28.000Z</time>
      </trkpt>
      <trkpt lat="47.83109" lon="7.01306">
        <ele>986</ele>
        <time>2021-05-30T07:44:29.000Z</time>
      </trkpt>
      <trkpt lat="47.83112" lon="7.01307">
        <ele>986</ele>
        <time>2021-05-30T07:44:31.000Z</time>
      </trkpt>
      <trkpt lat="47.83115" lon="7.01308">
        <ele>986.40002441406</ele>
        <time>2021-05-30T07:44:34.000Z</time>
      </trkpt>
      <trkpt lat="47.83117" lon="7.0131">
        <ele>986.79998779297</ele>
        <time>2021-05-30T07:44:35.000Z</time>
      </trkpt>
      <trkpt lat="47.83119" lon="7.0131">
        <ele>987.20001220703</ele>
        <time>2021-05-30T07:44:36.000Z</time>
      </trkpt>
      <trkpt lat="47.83121" lon="7.0131">
        <ele>987.59997558594</ele>
        <time>2021-05-30T07:44:37.000Z</time>
      </trkpt>
      <trkpt lat="47.83123" lon="7.01311">
        <ele>988</ele>
        <time>2021-05-30T07:44:38.000Z</time>
      </trkpt>
      <trkpt lat="47.83125" lon="7.01312">
        <ele>988.40002441406</ele>
        <time>2021-05-30T07:44:39.000Z</time>
      </trkpt>
      <trkpt lat="47.83127" lon="7.01312">
        <ele>988.79998779297</ele>
        <time>2021-05-30T07:44:40.000Z</time>
      </trkpt>
      <trkpt lat="47.83129" lon="7.01314">
        <ele>989.20001220703</ele>
        <time>2021-05-30T07:44:41.000Z</time>
      </trkpt>
      <trkpt lat="47.83131" lon="7.01315">
        <ele>989.59997558594</ele>
        <time>2021-05-30T07:44:42.000Z</time>
      </trkpt>
      <trkpt lat="47.83133" lon="7.01316">
        <ele>990.20001220703</ele>
        <time>2021-05-30T07:44:43.000Z</time>
      </trkpt>
      <trkpt lat="47.83138" lon="7.01317">
        <ele>990.59997558594</ele>
        <time>2021-05-30T07:44:45.000Z</time>
      </trkpt>
      <trkpt lat="47.8314" lon="7.01318">
        <ele>991</ele>
        <time>2021-05-30T07:44:46.000Z</time>
      </trkpt>
      <trkpt lat="47.83142" lon="7.01319">
        <ele>991.40002441406</ele>
        <time>2021-05-30T07:44:47.000Z</time>
      </trkpt>
      <trkpt lat="47.83144" lon="7.01319">
        <ele>991.79998779297</ele>
        <time>2021-05-30T07:44:48.000Z</time>
      </trkpt>
      <trkpt lat="47.83146" lon="7.01319">
        <ele>992.20001220703</ele>
        <time>2021-05-30T07:44:49.000Z</time>
      </trkpt>
      <trkpt lat="47.83156" lon="7.01322">
        <ele>992.20001220703</ele>
        <time>2021-05-30T07:44:54.000Z</time>
      </trkpt>
      <trkpt lat="47.83169" lon="7.01324">
        <ele>992.59997558594</ele>
        <time>2021-05-30T07:45:01.000Z</time>
      </trkpt>
      <trkpt lat="47.83171" lon="7.01324">
        <ele>993.20001220703</ele>
        <time>2021-05-30T07:45:02.000Z</time>
      </trkpt>
      <trkpt lat="47.83172" lon="7.01323">
        <ele>994</ele>
        <time>2021-05-30T07:45:03.000Z</time>
      </trkpt>
      <trkpt lat="47.83174" lon="7.01323">
        <ele>994.40002441406</ele>
        <time>2021-05-30T07:45:04.000Z</time>
      </trkpt>
      <trkpt lat="47.83178" lon="7.01323">
        <ele>994.79998779297</ele>
        <time>2021-05-30T07:45:06.000Z</time>
      </trkpt>
      <trkpt lat="47.8318" lon="7.01322">
        <ele>995.20001220703</ele>
        <time>2021-05-30T07:45:07.000Z</time>
      </trkpt>
      <trkpt lat="47.83181" lon="7.01322">
        <ele>995.59997558594</ele>
        <time>2021-05-30T07:45:08.000Z</time>
      </trkpt>
      <trkpt lat="47.83183" lon="7.01322">
        <ele>996</ele>
        <time>2021-05-30T07:45:09.000Z</time>
      </trkpt>
      <trkpt lat="47.83185" lon="7.01321">
        <ele>996.59997558594</ele>
        <time>2021-05-30T07:45:10.000Z</time>
      </trkpt>
      <trkpt lat="47.83187" lon="7.0132">
        <ele>997</ele>
        <time>2021-05-30T07:45:11.000Z</time>
      </trkpt>
      <trkpt lat="47.83189" lon="7.01319">
        <ele>997.40002441406</ele>
        <time>2021-05-30T07:45:12.000Z</time>
      </trkpt>
      <trkpt lat="47.83191" lon="7.01319">
        <ele>997.79998779297</ele>
        <time>2021-05-30T07:45:13.000Z</time>
      </trkpt>
      <trkpt lat="47.83192" lon="7.01319">
        <ele>998.20001220703</ele>
        <time>2021-05-30T07:45:14.000Z</time>
      </trkpt>
      <trkpt lat="47.83194" lon="7.01319">
        <ele>998.59997558594</ele>
        <time>2021-05-30T07:45:15.000Z</time>
      </trkpt>
      <trkpt lat="47.83198" lon="7.01317">
        <ele>998.59997558594</ele>
        <time>2021-05-30T07:45:17.000Z</time>
      </trkpt>
      <trkpt lat="47.83207" lon="7.01313">
        <ele>999.20001220703</ele>
        <time>2021-05-30T07:45:22.000Z</time>
      </trkpt>
      <trkpt lat="47.83209" lon="7.01312">
        <ele>999.59997558594</ele>
        <time>2021-05-30T07:45:23.000Z</time>
      </trkpt>
      <trkpt lat="47.83211" lon="7.0131">
        <ele>1000</ele>
        <time>2021-05-30T07:45:24.000Z</time>
      </trkpt>
      <trkpt lat="47.83213" lon="7.01309">
        <ele>1000.4000244141</ele>
        <time>2021-05-30T07:45:25.000Z</time>
      </trkpt>
      <trkpt lat="47.83214" lon="7.01308">
        <ele>1000.799987793</ele>
        <time>2021-05-30T07:45:26.000Z</time>
      </trkpt>
      <trkpt lat="47.83219" lon="7.01305">
        <ele>1001.4000244141</ele>
        <time>2021-05-30T07:45:29.000Z</time>
      </trkpt>
      <trkpt lat="47.83221" lon="7.01304">
        <ele>1001.799987793</ele>
        <time>2021-05-30T07:45:30.000Z</time>
      </trkpt>
      <trkpt lat="47.83223" lon="7.01303">
        <ele>1002.4000244141</ele>
        <time>2021-05-30T07:45:31.000Z</time>
      </trkpt>
      <trkpt lat="47.83225" lon="7.01302">
        <ele>1002.799987793</ele>
        <time>2021-05-30T07:45:32.000Z</time>
      </trkpt>
      <trkpt lat="47.83227" lon="7.01301">
        <ele>1003.200012207</ele>
        <time>2021-05-30T07:45:33.000Z</time>
      </trkpt>
      <trkpt lat="47.83233" lon="7.01298">
        <ele>1003.799987793</ele>
        <time>2021-05-30T07:45:37.000Z</time>
      </trkpt>
      <trkpt lat="47.83235" lon="7.01297">
        <ele>1004.200012207</ele>
        <time>2021-05-30T07:45:38.000Z</time>
      </trkpt>
      <trkpt lat="47.83237" lon="7.01295">
        <ele>1004.5999755859</ele>
        <time>2021-05-30T07:45:39.000Z</time>
      </trkpt>
      <trkpt lat="47.83239" lon="7.01294">
        <ele>1005</ele>
        <time>2021-05-30T07:45:40.000Z</time>
      </trkpt>
      <trkpt lat="47.8324" lon="7.01292">
        <ele>1005.5999755859</ele>
        <time>2021-05-30T07:45:41.000Z</time>
      </trkpt>
      <trkpt lat="47.83242" lon="7.01284">
        <ele>1005.5999755859</ele>
        <time>2021-05-30T07:45:44.000Z</time>
      </trkpt>
      <trkpt lat="47.83242" lon="7.01278">
        <ele>1005.5999755859</ele>
        <time>2021-05-30T07:45:46.000Z</time>
      </trkpt>
      <trkpt lat="47.8324" lon="7.01276">
        <ele>1006</ele>
        <time>2021-05-30T07:45:47.000Z</time>
      </trkpt>
      <trkpt lat="47.83239" lon="7.01274">
        <ele>1006.4000244141</ele>
        <time>2021-05-30T07:45:48.000Z</time>
      </trkpt>
      <trkpt lat="47.83238" lon="7.01272">
        <ele>1007</ele>
        <time>2021-05-30T07:45:49.000Z</time>
      </trkpt>
      <trkpt lat="47.83236" lon="7.0127">
        <ele>1007.4000244141</ele>
        <time>2021-05-30T07:45:50.000Z</time>
      </trkpt>
      <trkpt lat="47.83234" lon="7.01268">
        <ele>1007.799987793</ele>
        <time>2021-05-30T07:45:51.000Z</time>
      </trkpt>
      <trkpt lat="47.83226" lon="7.0126">
        <ele>1008.200012207</ele>
        <time>2021-05-30T07:45:56.000Z</time>
      </trkpt>
      <trkpt lat="47.83224" lon="7.01258">
        <ele>1008.5999755859</ele>
        <time>2021-05-30T07:45:57.000Z</time>
      </trkpt>
      <trkpt lat="47.83223" lon="7.01257">
        <ele>1009</ele>
        <time>2021-05-30T07:45:58.000Z</time>
      </trkpt>
      <trkpt lat="47.83221" lon="7.01255">
        <ele>1009.4000244141</ele>
        <time>2021-05-30T07:45:59.000Z</time>
      </trkpt>
      <trkpt lat="47.8322" lon="7.01253">
        <ele>1009.799987793</ele>
        <time>2021-05-30T07:46:00.000Z</time>
      </trkpt>
      <trkpt lat="47.83217" lon="7.01249">
        <ele>1009.799987793</ele>
        <time>2021-05-30T07:46:02.000Z</time>
      </trkpt>
      <trkpt lat="47.83213" lon="7.01245">
        <ele>1009.799987793</ele>
        <time>2021-05-30T07:46:04.000Z</time>
      </trkpt>
      <trkpt lat="47.83199" lon="7.01227">
        <ele>1009.799987793</ele>
        <time>2021-05-30T07:46:12.000Z</time>
      </trkpt>
      <trkpt lat="47.83196" lon="7.01222">
        <ele>1010.200012207</ele>
        <time>2021-05-30T07:46:14.000Z</time>
      </trkpt>
      <trkpt lat="47.83194" lon="7.0122">
        <ele>1010.5999755859</ele>
        <time>2021-05-30T07:46:15.000Z</time>
      </trkpt>
      <trkpt lat="47.83192" lon="7.01218">
        <ele>1011</ele>
        <time>2021-05-30T07:46:16.000Z</time>
      </trkpt>
      <trkpt lat="47.83191" lon="7.01216">
        <ele>1011.799987793</ele>
        <time>2021-05-30T07:46:17.000Z</time>
      </trkpt>
      <trkpt lat="47.83187" lon="7.01209">
        <ele>1011.799987793</ele>
        <time>2021-05-30T07:46:20.000Z</time>
      </trkpt>
      <trkpt lat="47.83182" lon="7.01203">
        <ele>1012.4000244141</ele>
        <time>2021-05-30T07:46:23.000Z</time>
      </trkpt>
      <trkpt lat="47.83181" lon="7.012">
        <ele>1012.799987793</ele>
        <time>2021-05-30T07:46:24.000Z</time>
      </trkpt>
      <trkpt lat="47.83179" lon="7.01198">
        <ele>1013.200012207</ele>
        <time>2021-05-30T07:46:25.000Z</time>
      </trkpt>
      <trkpt lat="47.83178" lon="7.01196">
        <ele>1013.5999755859</ele>
        <time>2021-05-30T07:46:26.000Z</time>
      </trkpt>
      <trkpt lat="47.83176" lon="7.01194">
        <ele>1014</ele>
        <time>2021-05-30T07:46:27.000Z</time>
      </trkpt>
      <trkpt lat="47.83172" lon="7.01184">
        <ele>1014.4000244141</ele>
        <time>2021-05-30T07:46:31.000Z</time>
      </trkpt>
      <trkpt lat="47.83171" lon="7.01182">
        <ele>1014.799987793</ele>
        <time>2021-05-30T07:46:32.000Z</time>
      </trkpt>
      <trkpt lat="47.8317" lon="7.0118">
        <ele>1015.200012207</ele>
        <time>2021-05-30T07:46:33.000Z</time>
      </trkpt>
      <trkpt lat="47.83168" lon="7.01178">
        <ele>1015.5999755859</ele>
        <time>2021-05-30T07:46:34.000Z</time>
      </trkpt>
      <trkpt lat="47.83167" lon="7.01175">
        <ele>1016</ele>
        <time>2021-05-30T07:46:35.000Z</time>
      </trkpt>
      <trkpt lat="47.83158" lon="7.01163">
        <ele>1016.5999755859</ele>
        <time>2021-05-30T07:46:41.000Z</time>
      </trkpt>
      <trkpt lat="47.83157" lon="7.01161">
        <ele>1017.4000244141</ele>
        <time>2021-05-30T07:46:42.000Z</time>
      </trkpt>
      <trkpt lat="47.83156" lon="7.01159">
        <ele>1017.799987793</ele>
        <time>2021-05-30T07:46:43.000Z</time>
      </trkpt>
      <trkpt lat="47.83154" lon="7.01157">
        <ele>1018.4000244141</ele>
        <time>2021-05-30T07:46:44.000Z</time>
      </trkpt>
      <trkpt lat="47.83148" lon="7.0115">
        <ele>1018.4000244141</ele>
        <time>2021-05-30T07:46:48.000Z</time>
      </trkpt>
      <trkpt lat="47.83142" lon="7.01146">
        <ele>1018.799987793</ele>
        <time>2021-05-30T07:46:51.000Z</time>
      </trkpt>
      <trkpt lat="47.83141" lon="7.01145">
        <ele>1019.200012207</ele>
        <time>2021-05-30T07:46:52.000Z</time>
      </trkpt>
      <trkpt lat="47.83139" lon="7.01143">
        <ele>1019.5999755859</ele>
        <time>2021-05-30T07:46:53.000Z</time>
      </trkpt>
      <trkpt lat="47.83137" lon="7.01143">
        <ele>1020</ele>
        <time>2021-05-30T07:46:54.000Z</time>
      </trkpt>
      <trkpt lat="47.83136" lon="7.01142">
        <ele>1020.4000244141</ele>
        <time>2021-05-30T07:46:55.000Z</time>
      </trkpt>
      <trkpt lat="47.83125" lon="7.01136">
        <ele>1020.799987793</ele>
        <time>2021-05-30T07:47:01.000Z</time>
      </trkpt>
      <trkpt lat="47.83124" lon="7.01135">
        <ele>1021.4000244141</ele>
        <time>2021-05-30T07:47:02.000Z</time>
      </trkpt>
      <trkpt lat="47.83122" lon="7.01134">
        <ele>1021.799987793</ele>
        <time>2021-05-30T07:47:03.000Z</time>
      </trkpt>
      <trkpt lat="47.8312" lon="7.01133">
        <ele>1022.4000244141</ele>
        <time>2021-05-30T07:47:04.000Z</time>
      </trkpt>
      <trkpt lat="47.83119" lon="7.01132">
        <ele>1022.799987793</ele>
        <time>2021-05-30T07:47:05.000Z</time>
      </trkpt>
      <trkpt lat="47.83115" lon="7.01131">
        <ele>1023.200012207</ele>
        <time>2021-05-30T07:47:07.000Z</time>
      </trkpt>
      <trkpt lat="47.83114" lon="7.0113">
        <ele>1023.5999755859</ele>
        <time>2021-05-30T07:47:08.000Z</time>
      </trkpt>
      <trkpt lat="47.83112" lon="7.01129">
        <ele>1024</ele>
        <time>2021-05-30T07:47:09.000Z</time>
      </trkpt>
      <trkpt lat="47.8311" lon="7.01128">
        <ele>1024.4000244141</ele>
        <time>2021-05-30T07:47:10.000Z</time>
      </trkpt>
      <trkpt lat="47.83109" lon="7.01127">
        <ele>1024.8000488281</ele>
        <time>2021-05-30T07:47:11.000Z</time>
      </trkpt>
      <trkpt lat="47.83103" lon="7.01123">
        <ele>1025.4000244141</ele>
        <time>2021-05-30T07:47:15.000Z</time>
      </trkpt>
      <trkpt lat="47.83102" lon="7.01122">
        <ele>1025.8000488281</ele>
        <time>2021-05-30T07:47:16.000Z</time>
      </trkpt>
      <trkpt lat="47.831" lon="7.0112">
        <ele>1026.1999511719</ele>
        <time>2021-05-30T07:47:17.000Z</time>
      </trkpt>
      <trkpt lat="47.83099" lon="7.01119">
        <ele>1026.5999755859</ele>
        <time>2021-05-30T07:47:18.000Z</time>
      </trkpt>
      <trkpt lat="47.83097" lon="7.01118">
        <ele>1027</ele>
        <time>2021-05-30T07:47:19.000Z</time>
      </trkpt>
      <trkpt lat="47.8309" lon="7.01112">
        <ele>1027</ele>
        <time>2021-05-30T07:47:24.000Z</time>
      </trkpt>
      <trkpt lat="47.83087" lon="7.0111">
        <ele>1027.4000244141</ele>
        <time>2021-05-30T07:47:26.000Z</time>
      </trkpt>
      <trkpt lat="47.83086" lon="7.01109">
        <ele>1027.8000488281</ele>
        <time>2021-05-30T07:47:27.000Z</time>
      </trkpt>
      <trkpt lat="47.83084" lon="7.01109">
        <ele>1028.1999511719</ele>
        <time>2021-05-30T07:47:28.000Z</time>
      </trkpt>
      <trkpt lat="47.83083" lon="7.01109">
        <ele>1028.5999755859</ele>
        <time>2021-05-30T07:47:29.000Z</time>
      </trkpt>
      <trkpt lat="47.83081" lon="7.01108">
        <ele>1029</ele>
        <time>2021-05-30T07:47:30.000Z</time>
      </trkpt>
      <trkpt lat="47.8308" lon="7.01107">
        <ele>1029</ele>
        <time>2021-05-30T07:47:31.000Z</time>
      </trkpt>
      <trkpt lat="47.83073" lon="7.01104">
        <ele>1029.4000244141</ele>
        <time>2021-05-30T07:47:35.000Z</time>
      </trkpt>
      <trkpt lat="47.83071" lon="7.01103">
        <ele>1029.8000488281</ele>
        <time>2021-05-30T07:47:36.000Z</time>
      </trkpt>
      <trkpt lat="47.83069" lon="7.01103">
        <ele>1030.1999511719</ele>
        <time>2021-05-30T07:47:37.000Z</time>
      </trkpt>
      <trkpt lat="47.83068" lon="7.01102">
        <ele>1030.5999755859</ele>
        <time>2021-05-30T07:47:38.000Z</time>
      </trkpt>
      <trkpt lat="47.83066" lon="7.01101">
        <ele>1031</ele>
        <time>2021-05-30T07:47:39.000Z</time>
      </trkpt>
      <trkpt lat="47.83058" lon="7.01095">
        <ele>1031</ele>
        <time>2021-05-30T07:47:45.000Z</time>
      </trkpt>
      <trkpt lat="47.83056" lon="7.01095">
        <ele>1031</ele>
        <time>2021-05-30T07:47:46.000Z</time>
      </trkpt>
      <trkpt lat="47.83048" lon="7.01091">
        <ele>1031</ele>
        <time>2021-05-30T07:47:52.000Z</time>
      </trkpt>
      <trkpt lat="47.83035" lon="7.01086">
        <ele>1031</ele>
        <time>2021-05-30T07:47:59.000Z</time>
      </trkpt>
      <trkpt lat="47.83026" lon="7.0108">
        <ele>1031</ele>
        <time>2021-05-30T07:48:05.000Z</time>
      </trkpt>
      <trkpt lat="47.83025" lon="7.01078">
        <ele>1031.4000244141</ele>
        <time>2021-05-30T07:48:06.000Z</time>
      </trkpt>
      <trkpt lat="47.83023" lon="7.01076">
        <ele>1031.8000488281</ele>
        <time>2021-05-30T07:48:07.000Z</time>
      </trkpt>
      <trkpt lat="47.8302" lon="7.01073">
        <ele>1032.4000244141</ele>
        <time>2021-05-30T07:48:08.000Z</time>
      </trkpt>
      <trkpt lat="47.83018" lon="7.01071">
        <ele>1032.8000488281</ele>
        <time>2021-05-30T07:48:09.000Z</time>
      </trkpt>
      <trkpt lat="47.83016" lon="7.01069">
        <ele>1033.1999511719</ele>
        <time>2021-05-30T07:48:10.000Z</time>
      </trkpt>
      <trkpt lat="47.83015" lon="7.01067">
        <ele>1033.1999511719</ele>
        <time>2021-05-30T07:48:11.000Z</time>
      </trkpt>
      <trkpt lat="47.83012" lon="7.01064">
        <ele>1033.1999511719</ele>
        <time>2021-05-30T07:48:13.000Z</time>
      </trkpt>
      <trkpt lat="47.83007" lon="7.01058">
        <ele>1033.1999511719</ele>
        <time>2021-05-30T07:48:16.000Z</time>
      </trkpt>
      <trkpt lat="47.82996" lon="7.01046">
        <ele>1033.1999511719</ele>
        <time>2021-05-30T07:48:22.000Z</time>
      </trkpt>
      <trkpt lat="47.82989" lon="7.01037">
        <ele>1033.8000488281</ele>
        <time>2021-05-30T07:48:27.000Z</time>
      </trkpt>
      <trkpt lat="47.82987" lon="7.01035">
        <ele>1034.1999511719</ele>
        <time>2021-05-30T07:48:28.000Z</time>
      </trkpt>
      <trkpt lat="47.82986" lon="7.01034">
        <ele>1034.5999755859</ele>
        <time>2021-05-30T07:48:29.000Z</time>
      </trkpt>
      <trkpt lat="47.82984" lon="7.01032">
        <ele>1035</ele>
        <time>2021-05-30T07:48:30.000Z</time>
      </trkpt>
      <trkpt lat="47.82983" lon="7.0103">
        <ele>1035.4000244141</ele>
        <time>2021-05-30T07:48:31.000Z</time>
      </trkpt>
      <trkpt lat="47.82976" lon="7.01023">
        <ele>1035.4000244141</ele>
        <time>2021-05-30T07:48:35.000Z</time>
      </trkpt>
      <trkpt lat="47.82966" lon="7.01013">
        <ele>1035.4000244141</ele>
        <time>2021-05-30T07:48:41.000Z</time>
      </trkpt>
      <trkpt lat="47.82956" lon="7.01004">
        <ele>1036.4000244141</ele>
        <time>2021-05-30T07:48:46.000Z</time>
      </trkpt>
      <trkpt lat="47.82954" lon="7.01002">
        <ele>1036.8000488281</ele>
        <time>2021-05-30T07:48:47.000Z</time>
      </trkpt>
      <trkpt lat="47.82953" lon="7.01">
        <ele>1037.1999511719</ele>
        <time>2021-05-30T07:48:48.000Z</time>
      </trkpt>
      <trkpt lat="47.82951" lon="7.00997">
        <ele>1037.5999755859</ele>
        <time>2021-05-30T07:48:49.000Z</time>
      </trkpt>
      <trkpt lat="47.82944" lon="7.00988">
        <ele>1037.5999755859</ele>
        <time>2021-05-30T07:48:53.000Z</time>
      </trkpt>
      <trkpt lat="47.82929" lon="7.00974">
        <ele>1037.5999755859</ele>
        <time>2021-05-30T07:49:00.000Z</time>
      </trkpt>
      <trkpt lat="47.82913" lon="7.00971">
        <ele>1037.5999755859</ele>
        <time>2021-05-30T07:49:06.000Z</time>
      </trkpt>
      <trkpt lat="47.82897" lon="7.00977">
        <ele>1037.5999755859</ele>
        <time>2021-05-30T07:49:12.000Z</time>
      </trkpt>
      <trkpt lat="47.82889" lon="7.00981">
        <ele>1038</ele>
        <time>2021-05-30T07:49:15.000Z</time>
      </trkpt>
      <trkpt lat="47.82886" lon="7.00982">
        <ele>1038.4000244141</ele>
        <time>2021-05-30T07:49:16.000Z</time>
      </trkpt>
      <trkpt lat="47.82883" lon="7.00982">
        <ele>1039</ele>
        <time>2021-05-30T07:49:17.000Z</time>
      </trkpt>
      <trkpt lat="47.8288" lon="7.00983">
        <ele>1039.4000244141</ele>
        <time>2021-05-30T07:49:18.000Z</time>
      </trkpt>
      <trkpt lat="47.82878" lon="7.00983">
        <ele>1039.8000488281</ele>
        <time>2021-05-30T07:49:19.000Z</time>
      </trkpt>
      <trkpt lat="47.82866" lon="7.00981">
        <ele>1039.8000488281</ele>
        <time>2021-05-30T07:49:24.000Z</time>
      </trkpt>
      <trkpt lat="47.8285" lon="7.00973">
        <ele>1039.8000488281</ele>
        <time>2021-05-30T07:49:30.000Z</time>
      </trkpt>
      <trkpt lat="47.82847" lon="7.00973">
        <ele>1039.8000488281</ele>
        <time>2021-05-30T07:49:31.000Z</time>
      </trkpt>
      <trkpt lat="47.82838" lon="7.00976">
        <ele>1039.8000488281</ele>
        <time>2021-05-30T07:49:34.000Z</time>
      </trkpt>
      <trkpt lat="47.82835" lon="7.00982">
        <ele>1039.8000488281</ele>
        <time>2021-05-30T07:49:36.000Z</time>
      </trkpt>
      <trkpt lat="47.82831" lon="7.00988">
        <ele>1039.8000488281</ele>
        <time>2021-05-30T07:49:38.000Z</time>
      </trkpt>
      <trkpt lat="47.82826" lon="7.00998">
        <ele>1039.8000488281</ele>
        <time>2021-05-30T07:49:41.000Z</time>
      </trkpt>
      <trkpt lat="47.82821" lon="7.01009">
        <ele>1039.8000488281</ele>
        <time>2021-05-30T07:49:44.000Z</time>
      </trkpt>
      <trkpt lat="47.82816" lon="7.01023">
        <ele>1039.8000488281</ele>
        <time>2021-05-30T07:49:48.000Z</time>
      </trkpt>
      <trkpt lat="47.82809" lon="7.01032">
        <ele>1040.1999511719</ele>
        <time>2021-05-30T07:49:52.000Z</time>
      </trkpt>
      <trkpt lat="47.82807" lon="7.01035">
        <ele>1040.5999755859</ele>
        <time>2021-05-30T07:49:53.000Z</time>
      </trkpt>
      <trkpt lat="47.82804" lon="7.01038">
        <ele>1041.1999511719</ele>
        <time>2021-05-30T07:49:54.000Z</time>
      </trkpt>
      <trkpt lat="47.82802" lon="7.01042">
        <ele>1041.5999755859</ele>
        <time>2021-05-30T07:49:55.000Z</time>
      </trkpt>
      <trkpt lat="47.828" lon="7.01045">
        <ele>1042</ele>
        <time>2021-05-30T07:49:56.000Z</time>
      </trkpt>
      <trkpt lat="47.82793" lon="7.01058">
        <ele>1042</ele>
        <time>2021-05-30T07:50:00.000Z</time>
      </trkpt>
      <trkpt lat="47.82782" lon="7.01086">
        <ele>1042</ele>
        <time>2021-05-30T07:50:08.000Z</time>
      </trkpt>
      <trkpt lat="47.82779" lon="7.01108">
        <ele>1042</ele>
        <time>2021-05-30T07:50:13.000Z</time>
      </trkpt>
      <trkpt lat="47.82775" lon="7.01132">
        <ele>1042</ele>
        <time>2021-05-30T07:50:18.000Z</time>
      </trkpt>
      <trkpt lat="47.82772" lon="7.01161">
        <ele>1042</ele>
        <time>2021-05-30T07:50:24.000Z</time>
      </trkpt>
      <trkpt lat="47.82767" lon="7.01179">
        <ele>1042</ele>
        <time>2021-05-30T07:50:29.000Z</time>
      </trkpt>
      <trkpt lat="47.82762" lon="7.01204">
        <ele>1042</ele>
        <time>2021-05-30T07:50:35.000Z</time>
      </trkpt>
      <trkpt lat="47.82758" lon="7.01216">
        <ele>1042.4000244141</ele>
        <time>2021-05-30T07:50:38.000Z</time>
      </trkpt>
      <trkpt lat="47.82758" lon="7.0122">
        <ele>1042.8000488281</ele>
        <time>2021-05-30T07:50:39.000Z</time>
      </trkpt>
      <trkpt lat="47.82756" lon="7.01224">
        <ele>1043.1999511719</ele>
        <time>2021-05-30T07:50:40.000Z</time>
      </trkpt>
      <trkpt lat="47.82755" lon="7.01228">
        <ele>1043.5999755859</ele>
        <time>2021-05-30T07:50:41.000Z</time>
      </trkpt>
      <trkpt lat="47.82754" lon="7.01232">
        <ele>1044</ele>
        <time>2021-05-30T07:50:42.000Z</time>
      </trkpt>
      <trkpt lat="47.82744" lon="7.01255">
        <ele>1044</ele>
        <time>2021-05-30T07:50:48.000Z</time>
      </trkpt>
      <trkpt lat="47.82728" lon="7.01277">
        <ele>1044</ele>
        <time>2021-05-30T07:50:55.000Z</time>
      </trkpt>
      <trkpt lat="47.82716" lon="7.01297">
        <ele>1044</ele>
        <time>2021-05-30T07:51:01.000Z</time>
      </trkpt>
      <trkpt lat="47.82701" lon="7.01313">
        <ele>1044</ele>
        <time>2021-05-30T07:51:08.000Z</time>
      </trkpt>
      <trkpt lat="47.82697" lon="7.01316">
        <ele>1044.4000244141</ele>
        <time>2021-05-30T07:51:10.000Z</time>
      </trkpt>
      <trkpt lat="47.82694" lon="7.01318">
        <ele>1044.8000488281</ele>
        <time>2021-05-30T07:51:11.000Z</time>
      </trkpt>
      <trkpt lat="47.82692" lon="7.0132">
        <ele>1045.1999511719</ele>
        <time>2021-05-30T07:51:12.000Z</time>
      </trkpt>
      <trkpt lat="47.8269" lon="7.01322">
        <ele>1045.8000488281</ele>
        <time>2021-05-30T07:51:13.000Z</time>
      </trkpt>
      <trkpt lat="47.82688" lon="7.01323">
        <ele>1046.1999511719</ele>
        <time>2021-05-30T07:51:14.000Z</time>
      </trkpt>
      <trkpt lat="47.82686" lon="7.01324">
        <ele>1046.1999511719</ele>
        <time>2021-05-30T07:51:15.000Z</time>
      </trkpt>
      <trkpt lat="47.82665" lon="7.01324">
        <ele>1046.1999511719</ele>
        <time>2021-05-30T07:51:22.000Z</time>
      </trkpt>
      <trkpt lat="47.82648" lon="7.01324">
        <ele>1046.1999511719</ele>
        <time>2021-05-30T07:51:28.000Z</time>
      </trkpt>
      <trkpt lat="47.82646" lon="7.01322">
        <ele>1046.5999755859</ele>
        <time>2021-05-30T07:51:29.000Z</time>
      </trkpt>
      <trkpt lat="47.82644" lon="7.01321">
        <ele>1047</ele>
        <time>2021-05-30T07:51:30.000Z</time>
      </trkpt>
      <trkpt lat="47.82642" lon="7.0132">
        <ele>1047.4000244141</ele>
        <time>2021-05-30T07:51:31.000Z</time>
      </trkpt>
      <trkpt lat="47.8264" lon="7.0132">
        <ele>1047.8000488281</ele>
        <time>2021-05-30T07:51:32.000Z</time>
      </trkpt>
      <trkpt lat="47.82637" lon="7.0132">
        <ele>1048.1999511719</ele>
        <time>2021-05-30T07:51:33.000Z</time>
      </trkpt>
      <trkpt lat="47.82634" lon="7.0132">
        <ele>1048.1999511719</ele>
        <time>2021-05-30T07:51:34.000Z</time>
      </trkpt>
      <trkpt lat="47.82616" lon="7.01322">
        <ele>1048.1999511719</ele>
        <time>2021-05-30T07:51:40.000Z</time>
      </trkpt>
      <trkpt lat="47.8259" lon="7.01324">
        <ele>1048.1999511719</ele>
        <time>2021-05-30T07:51:48.000Z</time>
      </trkpt>
      <trkpt lat="47.82565" lon="7.01321">
        <ele>1048.5999755859</ele>
        <time>2021-05-30T07:51:56.000Z</time>
      </trkpt>
      <trkpt lat="47.82563" lon="7.01321">
        <ele>1049</ele>
        <time>2021-05-30T07:51:57.000Z</time>
      </trkpt>
      <trkpt lat="47.8256" lon="7.0132">
        <ele>1049.4000244141</ele>
        <time>2021-05-30T07:51:58.000Z</time>
      </trkpt>
      <trkpt lat="47.82556" lon="7.01321">
        <ele>1049.8000488281</ele>
        <time>2021-05-30T07:51:59.000Z</time>
      </trkpt>
      <trkpt lat="47.82553" lon="7.01322">
        <ele>1050.1999511719</ele>
        <time>2021-05-30T07:52:00.000Z</time>
      </trkpt>
      <trkpt lat="47.82543" lon="7.01324">
        <ele>1050.1999511719</ele>
        <time>2021-05-30T07:52:03.000Z</time>
      </trkpt>
      <trkpt lat="47.82526" lon="7.01334">
        <ele>1050.1999511719</ele>
        <time>2021-05-30T07:52:09.000Z</time>
      </trkpt>
      <trkpt lat="47.82519" lon="7.01357">
        <ele>1050.1999511719</ele>
        <time>2021-05-30T07:52:15.000Z</time>
      </trkpt>
      <trkpt lat="47.82514" lon="7.01379">
        <ele>1050.1999511719</ele>
        <time>2021-05-30T07:52:20.000Z</time>
      </trkpt>
      <trkpt lat="47.82503" lon="7.0141">
        <ele>1050.1999511719</ele>
        <time>2021-05-30T07:52:28.000Z</time>
      </trkpt>
      <trkpt lat="47.82501" lon="7.01437">
        <ele>1050.1999511719</ele>
        <time>2021-05-30T07:52:34.000Z</time>
      </trkpt>
      <trkpt lat="47.82499" lon="7.01461">
        <ele>1050.1999511719</ele>
        <time>2021-05-30T07:52:40.000Z</time>
      </trkpt>
      <trkpt lat="47.82498" lon="7.01468">
        <ele>1050.5999755859</ele>
        <time>2021-05-30T07:52:42.000Z</time>
      </trkpt>
      <trkpt lat="47.82497" lon="7.01471">
        <ele>1051</ele>
        <time>2021-05-30T07:52:43.000Z</time>
      </trkpt>
      <trkpt lat="47.82497" lon="7.01474">
        <ele>1051.4000244141</ele>
        <time>2021-05-30T07:52:44.000Z</time>
      </trkpt>
      <trkpt lat="47.82496" lon="7.01478">
        <ele>1051.8000488281</ele>
        <time>2021-05-30T07:52:45.000Z</time>
      </trkpt>
      <trkpt lat="47.82496" lon="7.01481">
        <ele>1052.1999511719</ele>
        <time>2021-05-30T07:52:46.000Z</time>
      </trkpt>
      <trkpt lat="47.82495" lon="7.01484">
        <ele>1052.1999511719</ele>
        <time>2021-05-30T07:52:47.000Z</time>
      </trkpt>
      <trkpt lat="47.82492" lon="7.01507">
        <ele>1053</ele>
        <time>2021-05-30T07:52:54.000Z</time>
      </trkpt>
      <trkpt lat="47.82491" lon="7.0151">
        <ele>1053.4000244141</ele>
        <time>2021-05-30T07:52:55.000Z</time>
      </trkpt>
      <trkpt lat="47.82491" lon="7.01514">
        <ele>1053.8000488281</ele>
        <time>2021-05-30T07:52:56.000Z</time>
      </trkpt>
      <trkpt lat="47.8249" lon="7.01517">
        <ele>1054.4000244141</ele>
        <time>2021-05-30T07:52:57.000Z</time>
      </trkpt>
      <trkpt lat="47.82488" lon="7.0153">
        <ele>1054.4000244141</ele>
        <time>2021-05-30T07:53:01.000Z</time>
      </trkpt>
      <trkpt lat="47.82488" lon="7.01533">
        <ele>1054.8000488281</ele>
        <time>2021-05-30T07:53:02.000Z</time>
      </trkpt>
      <trkpt lat="47.82487" lon="7.01536">
        <ele>1055.1999511719</ele>
        <time>2021-05-30T07:53:03.000Z</time>
      </trkpt>
      <trkpt lat="47.82487" lon="7.01539">
        <ele>1055.5999755859</ele>
        <time>2021-05-30T07:53:04.000Z</time>
      </trkpt>
      <trkpt lat="47.82486" lon="7.01542">
        <ele>1056</ele>
        <time>2021-05-30T07:53:05.000Z</time>
      </trkpt>
      <trkpt lat="47.82485" lon="7.01545">
        <ele>1056.4000244141</ele>
        <time>2021-05-30T07:53:06.000Z</time>
      </trkpt>
      <trkpt lat="47.82484" lon="7.01554">
        <ele>1056.8000488281</ele>
        <time>2021-05-30T07:53:09.000Z</time>
      </trkpt>
      <trkpt lat="47.82484" lon="7.01557">
        <ele>1057.1999511719</ele>
        <time>2021-05-30T07:53:10.000Z</time>
      </trkpt>
      <trkpt lat="47.82483" lon="7.0156">
        <ele>1057.5999755859</ele>
        <time>2021-05-30T07:53:11.000Z</time>
      </trkpt>
      <trkpt lat="47.82483" lon="7.01563">
        <ele>1058</ele>
        <time>2021-05-30T07:53:12.000Z</time>
      </trkpt>
      <trkpt lat="47.82482" lon="7.01567">
        <ele>1058.4000244141</ele>
        <time>2021-05-30T07:53:13.000Z</time>
      </trkpt>
      <trkpt lat="47.82481" lon="7.01573">
        <ele>1058.4000244141</ele>
        <time>2021-05-30T07:53:15.000Z</time>
      </trkpt>
      <trkpt lat="47.82477" lon="7.01589">
        <ele>1058.8000488281</ele>
        <time>2021-05-30T07:53:20.000Z</time>
      </trkpt>
      <trkpt lat="47.82477" lon="7.01592">
        <ele>1059.1999511719</ele>
        <time>2021-05-30T07:53:21.000Z</time>
      </trkpt>
      <trkpt lat="47.82476" lon="7.01595">
        <ele>1059.5999755859</ele>
        <time>2021-05-30T07:53:22.000Z</time>
      </trkpt>
      <trkpt lat="47.82476" lon="7.01598">
        <ele>1060</ele>
        <time>2021-05-30T07:53:23.000Z</time>
      </trkpt>
      <trkpt lat="47.82475" lon="7.01602">
        <ele>1060.4000244141</ele>
        <time>2021-05-30T07:53:24.000Z</time>
      </trkpt>
      <trkpt lat="47.82472" lon="7.01619">
        <ele>1060.4000244141</ele>
        <time>2021-05-30T07:53:29.000Z</time>
      </trkpt>
      <trkpt lat="47.82468" lon="7.01639">
        <ele>1060.8000488281</ele>
        <time>2021-05-30T07:53:35.000Z</time>
      </trkpt>
      <trkpt lat="47.82467" lon="7.01642">
        <ele>1061.4000244141</ele>
        <time>2021-05-30T07:53:36.000Z</time>
      </trkpt>
      <trkpt lat="47.82467" lon="7.01645">
        <ele>1061.8000488281</ele>
        <time>2021-05-30T07:53:37.000Z</time>
      </trkpt>
      <trkpt lat="47.82467" lon="7.01647">
        <ele>1062.1999511719</ele>
        <time>2021-05-30T07:53:38.000Z</time>
      </trkpt>
      <trkpt lat="47.82467" lon="7.01647">
        <ele>1062.5999755859</ele>
        <time>2021-05-30T07:53:39.000Z</time>
      </trkpt>
      <trkpt lat="47.82465" lon="7.01661">
        <ele>1064.5999755859</ele>
        <time>2021-05-30T07:55:19.000Z</time>
      </trkpt>
      <trkpt lat="47.82462" lon="7.01677">
        <ele>1064.5999755859</ele>
        <time>2021-05-30T07:55:26.000Z</time>
      </trkpt>
      <trkpt lat="47.82459" lon="7.01693">
        <ele>1064.5999755859</ele>
        <time>2021-05-30T07:55:32.000Z</time>
      </trkpt>
      <trkpt lat="47.82458" lon="7.01699">
        <ele>1065</ele>
        <time>2021-05-30T07:55:34.000Z</time>
      </trkpt>
      <trkpt lat="47.82457" lon="7.01702">
        <ele>1065.5999755859</ele>
        <time>2021-05-30T07:55:35.000Z</time>
      </trkpt>
      <trkpt lat="47.82457" lon="7.01705">
        <ele>1066</ele>
        <time>2021-05-30T07:55:36.000Z</time>
      </trkpt>
      <trkpt lat="47.82456" lon="7.01708">
        <ele>1066.4000244141</ele>
        <time>2021-05-30T07:55:37.000Z</time>
      </trkpt>
      <trkpt lat="47.82455" lon="7.01711">
        <ele>1067</ele>
        <time>2021-05-30T07:55:38.000Z</time>
      </trkpt>
      <trkpt lat="47.82455" lon="7.01714">
        <ele>1067</ele>
        <time>2021-05-30T07:55:39.000Z</time>
      </trkpt>
      <trkpt lat="47.82452" lon="7.01731">
        <ele>1067.4000244141</ele>
        <time>2021-05-30T07:55:44.000Z</time>
      </trkpt>
      <trkpt lat="47.82452" lon="7.01734">
        <ele>1067.8000488281</ele>
        <time>2021-05-30T07:55:45.000Z</time>
      </trkpt>
      <trkpt lat="47.82451" lon="7.01738">
        <ele>1068.5999755859</ele>
        <time>2021-05-30T07:55:46.000Z</time>
      </trkpt>
      <trkpt lat="47.8245" lon="7.01741">
        <ele>1069</ele>
        <time>2021-05-30T07:55:47.000Z</time>
      </trkpt>
      <trkpt lat="47.8245" lon="7.01744">
        <ele>1069</ele>
        <time>2021-05-30T07:55:48.000Z</time>
      </trkpt>
      <trkpt lat="47.82449" lon="7.01756">
        <ele>1069.4000244141</ele>
        <time>2021-05-30T07:55:52.000Z</time>
      </trkpt>
      <trkpt lat="47.82448" lon="7.01759">
        <ele>1069.8000488281</ele>
        <time>2021-05-30T07:55:53.000Z</time>
      </trkpt>
      <trkpt lat="47.82448" lon="7.01762">
        <ele>1070.4000244141</ele>
        <time>2021-05-30T07:55:54.000Z</time>
      </trkpt>
      <trkpt lat="47.82447" lon="7.01765">
        <ele>1070.8000488281</ele>
        <time>2021-05-30T07:55:55.000Z</time>
      </trkpt>
      <trkpt lat="47.82446" lon="7.01768">
        <ele>1071.1999511719</ele>
        <time>2021-05-30T07:55:56.000Z</time>
      </trkpt>
      <trkpt lat="47.82445" lon="7.01774">
        <ele>1071.5999755859</ele>
        <time>2021-05-30T07:55:58.000Z</time>
      </trkpt>
      <trkpt lat="47.82444" lon="7.01777">
        <ele>1072.1999511719</ele>
        <time>2021-05-30T07:55:59.000Z</time>
      </trkpt>
      <trkpt lat="47.82443" lon="7.0178">
        <ele>1072.5999755859</ele>
        <time>2021-05-30T07:56:00.000Z</time>
      </trkpt>
      <trkpt lat="47.82442" lon="7.01782">
        <ele>1073.1999511719</ele>
        <time>2021-05-30T07:56:01.000Z</time>
      </trkpt>
      <trkpt lat="47.82442" lon="7.01785">
        <ele>1073.5999755859</ele>
        <time>2021-05-30T07:56:02.000Z</time>
      </trkpt>
      <trkpt lat="47.82439" lon="7.01793">
        <ele>1074.1999511719</ele>
        <time>2021-05-30T07:56:05.000Z</time>
      </trkpt>
      <trkpt lat="47.82438" lon="7.01795">
        <ele>1074.5999755859</ele>
        <time>2021-05-30T07:56:06.000Z</time>
      </trkpt>
      <trkpt lat="47.82438" lon="7.01798">
        <ele>1075</ele>
        <time>2021-05-30T07:56:07.000Z</time>
      </trkpt>
      <trkpt lat="47.82437" lon="7.01801">
        <ele>1075.4000244141</ele>
        <time>2021-05-30T07:56:08.000Z</time>
      </trkpt>
      <trkpt lat="47.82436" lon="7.01804">
        <ele>1075.8000488281</ele>
        <time>2021-05-30T07:56:09.000Z</time>
      </trkpt>
      <trkpt lat="47.82431" lon="7.01821">
        <ele>1076.1999511719</ele>
        <time>2021-05-30T07:56:15.000Z</time>
      </trkpt>
      <trkpt lat="47.8243" lon="7.01824">
        <ele>1076.5999755859</ele>
        <time>2021-05-30T07:56:16.000Z</time>
      </trkpt>
      <trkpt lat="47.82428" lon="7.01826">
        <ele>1077.1999511719</ele>
        <time>2021-05-30T07:56:17.000Z</time>
      </trkpt>
      <trkpt lat="47.82427" lon="7.0183">
        <ele>1077.5999755859</ele>
        <time>2021-05-30T07:56:19.000Z</time>
      </trkpt>
      <trkpt lat="47.82426" lon="7.01832">
        <ele>1078</ele>
        <time>2021-05-30T07:56:20.000Z</time>
      </trkpt>
      <trkpt lat="47.82421" lon="7.01846">
        <ele>1078.4000244141</ele>
        <time>2021-05-30T07:56:25.000Z</time>
      </trkpt>
      <trkpt lat="47.8242" lon="7.01849">
        <ele>1079</ele>
        <time>2021-05-30T07:56:26.000Z</time>
      </trkpt>
      <trkpt lat="47.82419" lon="7.01852">
        <ele>1079.4000244141</ele>
        <time>2021-05-30T07:56:27.000Z</time>
      </trkpt>
      <trkpt lat="47.82418" lon="7.01855">
        <ele>1079.8000488281</ele>
        <time>2021-05-30T07:56:28.000Z</time>
      </trkpt>
      <trkpt lat="47.82417" lon="7.01857">
        <ele>1080.4000244141</ele>
        <time>2021-05-30T07:56:29.000Z</time>
      </trkpt>
      <trkpt lat="47.82416" lon="7.01863">
        <ele>1080.8000488281</ele>
        <time>2021-05-30T07:56:31.000Z</time>
      </trkpt>
      <trkpt lat="47.82415" lon="7.01866">
        <ele>1081.1999511719</ele>
        <time>2021-05-30T07:56:32.000Z</time>
      </trkpt>
      <trkpt lat="47.82415" lon="7.01869">
        <ele>1081.5999755859</ele>
        <time>2021-05-30T07:56:33.000Z</time>
      </trkpt>
      <trkpt lat="47.82414" lon="7.01872">
        <ele>1082</ele>
        <time>2021-05-30T07:56:34.000Z</time>
      </trkpt>
      <trkpt lat="47.82413" lon="7.01875">
        <ele>1082.5999755859</ele>
        <time>2021-05-30T07:56:35.000Z</time>
      </trkpt>
      <trkpt lat="47.82413" lon="7.01878">
        <ele>1083</ele>
        <time>2021-05-30T07:56:36.000Z</time>
      </trkpt>
      <trkpt lat="47.82412" lon="7.01881">
        <ele>1083.4000244141</ele>
        <time>2021-05-30T07:56:37.000Z</time>
      </trkpt>
      <trkpt lat="47.82412" lon="7.01883">
        <ele>1083.8000488281</ele>
        <time>2021-05-30T07:56:38.000Z</time>
      </trkpt>
      <trkpt lat="47.82411" lon="7.01886">
        <ele>1084.4000244141</ele>
        <time>2021-05-30T07:56:39.000Z</time>
      </trkpt>
      <trkpt lat="47.8241" lon="7.01888">
        <ele>1084.8000488281</ele>
        <time>2021-05-30T07:56:40.000Z</time>
      </trkpt>
      <trkpt lat="47.82409" lon="7.01891">
        <ele>1085.1999511719</ele>
        <time>2021-05-30T07:56:41.000Z</time>
      </trkpt>
      <trkpt lat="47.82408" lon="7.01894">
        <ele>1085.5999755859</ele>
        <time>2021-05-30T07:56:42.000Z</time>
      </trkpt>
      <trkpt lat="47.82408" lon="7.01897">
        <ele>1086.1999511719</ele>
        <time>2021-05-30T07:56:43.000Z</time>
      </trkpt>
      <trkpt lat="47.82407" lon="7.019">
        <ele>1086.8000488281</ele>
        <time>2021-05-30T07:56:44.000Z</time>
      </trkpt>
      <trkpt lat="47.82406" lon="7.01902">
        <ele>1087.4000244141</ele>
        <time>2021-05-30T07:56:45.000Z</time>
      </trkpt>
      <trkpt lat="47.82406" lon="7.01905">
        <ele>1088</ele>
        <time>2021-05-30T07:56:46.000Z</time>
      </trkpt>
      <trkpt lat="47.82405" lon="7.01908">
        <ele>1088.8000488281</ele>
        <time>2021-05-30T07:56:47.000Z</time>
      </trkpt>
      <trkpt lat="47.82404" lon="7.01911">
        <ele>1089.5999755859</ele>
        <time>2021-05-30T07:56:48.000Z</time>
      </trkpt>
      <trkpt lat="47.82404" lon="7.01913">
        <ele>1090.5999755859</ele>
        <time>2021-05-30T07:56:49.000Z</time>
      </trkpt>
      <trkpt lat="47.82403" lon="7.01916">
        <ele>1091.4000244141</ele>
        <time>2021-05-30T07:56:50.000Z</time>
      </trkpt>
      <trkpt lat="47.82403" lon="7.01918">
        <ele>1092.4000244141</ele>
        <time>2021-05-30T07:56:51.000Z</time>
      </trkpt>
      <trkpt lat="47.82401" lon="7.01926">
        <ele>1092.4000244141</ele>
        <time>2021-05-30T07:56:54.000Z</time>
      </trkpt>
      <trkpt lat="47.82397" lon="7.01941">
        <ele>1092.4000244141</ele>
        <time>2021-05-30T07:57:00.000Z</time>
      </trkpt>
      <trkpt lat="47.8239" lon="7.01958">
        <ele>1092.4000244141</ele>
        <time>2021-05-30T07:57:08.000Z</time>
      </trkpt>
      <trkpt lat="47.82381" lon="7.01968">
        <ele>1092.8000488281</ele>
        <time>2021-05-30T07:57:15.000Z</time>
      </trkpt>
      <trkpt lat="47.82379" lon="7.01969">
        <ele>1093.1999511719</ele>
        <time>2021-05-30T07:57:16.000Z</time>
      </trkpt>
      <trkpt lat="47.82377" lon="7.01969">
        <ele>1093.5999755859</ele>
        <time>2021-05-30T07:57:17.000Z</time>
      </trkpt>
      <trkpt lat="47.82375" lon="7.0197">
        <ele>1094</ele>
        <time>2021-05-30T07:57:18.000Z</time>
      </trkpt>
      <trkpt lat="47.82373" lon="7.01971">
        <ele>1094.4000244141</ele>
        <time>2021-05-30T07:57:19.000Z</time>
      </trkpt>
      <trkpt lat="47.82367" lon="7.01971">
        <ele>1094.4000244141</ele>
        <time>2021-05-30T07:57:22.000Z</time>
      </trkpt>
      <trkpt lat="47.82365" lon="7.01971">
        <ele>1094.8000488281</ele>
        <time>2021-05-30T07:57:23.000Z</time>
      </trkpt>
      <trkpt lat="47.82363" lon="7.01971">
        <ele>1095.1999511719</ele>
        <time>2021-05-30T07:57:24.000Z</time>
      </trkpt>
      <trkpt lat="47.82361" lon="7.01971">
        <ele>1095.8000488281</ele>
        <time>2021-05-30T07:57:25.000Z</time>
      </trkpt>
      <trkpt lat="47.82359" lon="7.01972">
        <ele>1096.1999511719</ele>
        <time>2021-05-30T07:57:26.000Z</time>
      </trkpt>
      <trkpt lat="47.82358" lon="7.01972">
        <ele>1096.5999755859</ele>
        <time>2021-05-30T07:57:27.000Z</time>
      </trkpt>
      <trkpt lat="47.82354" lon="7.01973">
        <ele>1096.5999755859</ele>
        <time>2021-05-30T07:57:29.000Z</time>
      </trkpt>
      <trkpt lat="47.82352" lon="7.01973">
        <ele>1097</ele>
        <time>2021-05-30T07:57:30.000Z</time>
      </trkpt>
      <trkpt lat="47.8235" lon="7.01974">
        <ele>1097.5999755859</ele>
        <time>2021-05-30T07:57:31.000Z</time>
      </trkpt>
      <trkpt lat="47.82347" lon="7.01974">
        <ele>1098</ele>
        <time>2021-05-30T07:57:32.000Z</time>
      </trkpt>
      <trkpt lat="47.82345" lon="7.01974">
        <ele>1098.4000244141</ele>
        <time>2021-05-30T07:57:33.000Z</time>
      </trkpt>
      <trkpt lat="47.82343" lon="7.01974">
        <ele>1099</ele>
        <time>2021-05-30T07:57:34.000Z</time>
      </trkpt>
      <trkpt lat="47.82337" lon="7.01976">
        <ele>1099</ele>
        <time>2021-05-30T07:57:37.000Z</time>
      </trkpt>
      <trkpt lat="47.82322" lon="7.01979">
        <ele>1099</ele>
        <time>2021-05-30T07:57:44.000Z</time>
      </trkpt>
      <trkpt lat="47.82316" lon="7.01979">
        <ele>1099.4000244141</ele>
        <time>2021-05-30T07:57:47.000Z</time>
      </trkpt>
      <trkpt lat="47.82314" lon="7.0198">
        <ele>1099.8000488281</ele>
        <time>2021-05-30T07:57:48.000Z</time>
      </trkpt>
      <trkpt lat="47.82312" lon="7.01981">
        <ele>1100.1999511719</ele>
        <time>2021-05-30T07:57:49.000Z</time>
      </trkpt>
      <trkpt lat="47.8231" lon="7.01981">
        <ele>1100.5999755859</ele>
        <time>2021-05-30T07:57:50.000Z</time>
      </trkpt>
      <trkpt lat="47.82308" lon="7.01981">
        <ele>1101</ele>
        <time>2021-05-30T07:57:51.000Z</time>
      </trkpt>
      <trkpt lat="47.82305" lon="7.01982">
        <ele>1101</ele>
        <time>2021-05-30T07:57:52.000Z</time>
      </trkpt>
      <trkpt lat="47.82293" lon="7.01988">
        <ele>1101.4000244141</ele>
        <time>2021-05-30T07:57:58.000Z</time>
      </trkpt>
      <trkpt lat="47.82291" lon="7.01989">
        <ele>1102</ele>
        <time>2021-05-30T07:57:59.000Z</time>
      </trkpt>
      <trkpt lat="47.8229" lon="7.01991">
        <ele>1102.4000244141</ele>
        <time>2021-05-30T07:58:00.000Z</time>
      </trkpt>
      <trkpt lat="47.82288" lon="7.01992">
        <ele>1102.8000488281</ele>
        <time>2021-05-30T07:58:01.000Z</time>
      </trkpt>
      <trkpt lat="47.82287" lon="7.01993">
        <ele>1103.4000244141</ele>
        <time>2021-05-30T07:58:02.000Z</time>
      </trkpt>
      <trkpt lat="47.82283" lon="7.01996">
        <ele>1103.4000244141</ele>
        <time>2021-05-30T07:58:05.000Z</time>
      </trkpt>
      <trkpt lat="47.82283" lon="7.01997">
        <ele>1103.4000244141</ele>
        <time>2021-05-30T07:58:06.000Z</time>
      </trkpt>
      <trkpt lat="47.82283" lon="7.01997">
        <ele>1103.4000244141</ele>
        <time>2021-05-30T07:58:07.000Z</time>
      </trkpt>
      <trkpt lat="47.82275" lon="7.02001">
        <ele>1103.4000244141</ele>
        <time>2021-05-30T07:58:46.000Z</time>
      </trkpt>
      <trkpt lat="47.82273" lon="7.02003">
        <ele>1103.4000244141</ele>
        <time>2021-05-30T07:58:48.000Z</time>
      </trkpt>
      <trkpt lat="47.82264" lon="7.0201">
        <ele>1103.4000244141</ele>
        <time>2021-05-30T07:58:53.000Z</time>
      </trkpt>
      <trkpt lat="47.82263" lon="7.02012">
        <ele>1103.4000244141</ele>
        <time>2021-05-30T07:58:55.000Z</time>
      </trkpt>
      <trkpt lat="47.82258" lon="7.02016">
        <ele>1103.4000244141</ele>
        <time>2021-05-30T08:04:03.000Z</time>
      </trkpt>
      <trkpt lat="47.8225" lon="7.02023">
        <ele>1102.8000488281</ele>
        <time>2021-05-30T08:04:08.000Z</time>
      </trkpt>
      <trkpt lat="47.82247" lon="7.02023">
        <ele>1102.4000244141</ele>
        <time>2021-05-30T08:04:09.000Z</time>
      </trkpt>
      <trkpt lat="47.82243" lon="7.02025">
        <ele>1102</ele>
        <time>2021-05-30T08:04:10.000Z</time>
      </trkpt>
      <trkpt lat="47.82238" lon="7.02028">
        <ele>1101.5999755859</ele>
        <time>2021-05-30T08:04:11.000Z</time>
      </trkpt>
      <trkpt lat="47.82234" lon="7.02032">
        <ele>1101.1999511719</ele>
        <time>2021-05-30T08:04:12.000Z</time>
      </trkpt>
      <trkpt lat="47.82223" lon="7.02048">
        <ele>1100</ele>
        <time>2021-05-30T08:04:15.000Z</time>
      </trkpt>
      <trkpt lat="47.8222" lon="7.02056">
        <ele>1099.5999755859</ele>
        <time>2021-05-30T08:04:16.000Z</time>
      </trkpt>
      <trkpt lat="47.82217" lon="7.02065">
        <ele>1099</ele>
        <time>2021-05-30T08:04:17.000Z</time>
      </trkpt>
      <trkpt lat="47.82213" lon="7.02074">
        <ele>1098.4000244141</ele>
        <time>2021-05-30T08:04:18.000Z</time>
      </trkpt>
      <trkpt lat="47.82209" lon="7.02083">
        <ele>1098</ele>
        <time>2021-05-30T08:04:19.000Z</time>
      </trkpt>
      <trkpt lat="47.82205" lon="7.02094">
        <ele>1097.4000244141</ele>
        <time>2021-05-30T08:04:20.000Z</time>
      </trkpt>
      <trkpt lat="47.82201" lon="7.02103">
        <ele>1096.8000488281</ele>
        <time>2021-05-30T08:04:21.000Z</time>
      </trkpt>
      <trkpt lat="47.82197" lon="7.02114">
        <ele>1096.1999511719</ele>
        <time>2021-05-30T08:04:22.000Z</time>
      </trkpt>
      <trkpt lat="47.82193" lon="7.02124">
        <ele>1095.4000244141</ele>
        <time>2021-05-30T08:04:23.000Z</time>
      </trkpt>
      <trkpt lat="47.8219" lon="7.02135">
        <ele>1094.5999755859</ele>
        <time>2021-05-30T08:04:24.000Z</time>
      </trkpt>
      <trkpt lat="47.82186" lon="7.02144">
        <ele>1094</ele>
        <time>2021-05-30T08:04:25.000Z</time>
      </trkpt>
      <trkpt lat="47.82182" lon="7.02154">
        <ele>1093.1999511719</ele>
        <time>2021-05-30T08:04:26.000Z</time>
      </trkpt>
      <trkpt lat="47.82178" lon="7.02164">
        <ele>1092.4000244141</ele>
        <time>2021-05-30T08:04:27.000Z</time>
      </trkpt>
      <trkpt lat="47.82174" lon="7.02175">
        <ele>1091.5999755859</ele>
        <time>2021-05-30T08:04:28.000Z</time>
      </trkpt>
      <trkpt lat="47.82169" lon="7.02186">
        <ele>1091</ele>
        <time>2021-05-30T08:04:29.000Z</time>
      </trkpt>
      <trkpt lat="47.82165" lon="7.02197">
        <ele>1090.1999511719</ele>
        <time>2021-05-30T08:04:30.000Z</time>
      </trkpt>
      <trkpt lat="47.82161" lon="7.02209">
        <ele>1089.5999755859</ele>
        <time>2021-05-30T08:04:31.000Z</time>
      </trkpt>
      <trkpt lat="47.82155" lon="7.02222">
        <ele>1089</ele>
        <time>2021-05-30T08:04:32.000Z</time>
      </trkpt>
      <trkpt lat="47.8215" lon="7.02234">
        <ele>1088.4000244141</ele>
        <time>2021-05-30T08:04:33.000Z</time>
      </trkpt>
      <trkpt lat="47.82144" lon="7.02245">
        <ele>1087.5999755859</ele>
        <time>2021-05-30T08:04:34.000Z</time>
      </trkpt>
      <trkpt lat="47.82137" lon="7.02257">
        <ele>1086.8000488281</ele>
        <time>2021-05-30T08:04:35.000Z</time>
      </trkpt>
      <trkpt lat="47.8213" lon="7.02268">
        <ele>1086.1999511719</ele>
        <time>2021-05-30T08:04:36.000Z</time>
      </trkpt>
      <trkpt lat="47.82124" lon="7.02278">
        <ele>1085.4000244141</ele>
        <time>2021-05-30T08:04:37.000Z</time>
      </trkpt>
      <trkpt lat="47.82117" lon="7.02289">
        <ele>1084.8000488281</ele>
        <time>2021-05-30T08:04:38.000Z</time>
      </trkpt>
      <trkpt lat="47.8211" lon="7.023">
        <ele>1083.1999511719</ele>
        <time>2021-05-30T08:04:39.000Z</time>
      </trkpt>
      <trkpt lat="47.82103" lon="7.02311">
        <ele>1082.5999755859</ele>
        <time>2021-05-30T08:04:40.000Z</time>
      </trkpt>
      <trkpt lat="47.82096" lon="7.02322">
        <ele>1081.8000488281</ele>
        <time>2021-05-30T08:04:41.000Z</time>
      </trkpt>
      <trkpt lat="47.82089" lon="7.02332">
        <ele>1081.1999511719</ele>
        <time>2021-05-30T08:04:42.000Z</time>
      </trkpt>
      <trkpt lat="47.82082" lon="7.02342">
        <ele>1080.4000244141</ele>
        <time>2021-05-30T08:04:43.000Z</time>
      </trkpt>
      <trkpt lat="47.82067" lon="7.02362">
        <ele>1080</ele>
        <time>2021-05-30T08:04:45.000Z</time>
      </trkpt>
      <trkpt lat="47.8206" lon="7.02373">
        <ele>1079.5999755859</ele>
        <time>2021-05-30T08:04:46.000Z</time>
      </trkpt>
      <trkpt lat="47.82053" lon="7.02383">
        <ele>1079.1999511719</ele>
        <time>2021-05-30T08:04:47.000Z</time>
      </trkpt>
      <trkpt lat="47.82045" lon="7.02394">
        <ele>1078.5999755859</ele>
        <time>2021-05-30T08:04:48.000Z</time>
      </trkpt>
      <trkpt lat="47.82038" lon="7.02405">
        <ele>1078</ele>
        <time>2021-05-30T08:04:49.000Z</time>
      </trkpt>
      <trkpt lat="47.8203" lon="7.02415">
        <ele>1077.4000244141</ele>
        <time>2021-05-30T08:04:50.000Z</time>
      </trkpt>
      <trkpt lat="47.82022" lon="7.02422">
        <ele>1076.8000488281</ele>
        <time>2021-05-30T08:04:51.000Z</time>
      </trkpt>
      <trkpt lat="47.82013" lon="7.02429">
        <ele>1076.1999511719</ele>
        <time>2021-05-30T08:04:52.000Z</time>
      </trkpt>
      <trkpt lat="47.81986" lon="7.02443">
        <ele>1075.5999755859</ele>
        <time>2021-05-30T08:04:55.000Z</time>
      </trkpt>
      <trkpt lat="47.81979" lon="7.02447">
        <ele>1075.1999511719</ele>
        <time>2021-05-30T08:04:56.000Z</time>
      </trkpt>
      <trkpt lat="47.81971" lon="7.02451">
        <ele>1074.8000488281</ele>
        <time>2021-05-30T08:04:57.000Z</time>
      </trkpt>
      <trkpt lat="47.81963" lon="7.02455">
        <ele>1074.4000244141</ele>
        <time>2021-05-30T08:04:58.000Z</time>
      </trkpt>
      <trkpt lat="47.81956" lon="7.02459">
        <ele>1073.8000488281</ele>
        <time>2021-05-30T08:04:59.000Z</time>
      </trkpt>
      <trkpt lat="47.81949" lon="7.02463">
        <ele>1073.1999511719</ele>
        <time>2021-05-30T08:05:00.000Z</time>
      </trkpt>
      <trkpt lat="47.81941" lon="7.02468">
        <ele>1072.5999755859</ele>
        <time>2021-05-30T08:05:01.000Z</time>
      </trkpt>
      <trkpt lat="47.81933" lon="7.02472">
        <ele>1071.8000488281</ele>
        <time>2021-05-30T08:05:02.000Z</time>
      </trkpt>
      <trkpt lat="47.81926" lon="7.02476">
        <ele>1071</ele>
        <time>2021-05-30T08:05:03.000Z</time>
      </trkpt>
      <trkpt lat="47.8192" lon="7.02478">
        <ele>1069.4000244141</ele>
        <time>2021-05-30T08:05:04.000Z</time>
      </trkpt>
      <trkpt lat="47.81915" lon="7.02479">
        <ele>1068.5999755859</ele>
        <time>2021-05-30T08:05:05.000Z</time>
      </trkpt>
      <trkpt lat="47.8191" lon="7.02479">
        <ele>1067.8000488281</ele>
        <time>2021-05-30T08:05:06.000Z</time>
      </trkpt>
      <trkpt lat="47.81907" lon="7.02479">
        <ele>1067</ele>
        <time>2021-05-30T08:05:07.000Z</time>
      </trkpt>
      <trkpt lat="47.81905" lon="7.02479">
        <ele>1067</ele>
        <time>2021-05-30T08:05:08.000Z</time>
      </trkpt>
      <trkpt lat="47.81902" lon="7.02479">
        <ele>1066.5999755859</ele>
        <time>2021-05-30T08:05:10.000Z</time>
      </trkpt>
      <trkpt lat="47.81901" lon="7.02478">
        <ele>1066.1999511719</ele>
        <time>2021-05-30T08:05:11.000Z</time>
      </trkpt>
      <trkpt lat="47.819" lon="7.02478">
        <ele>1065.8000488281</ele>
        <time>2021-05-30T08:05:12.000Z</time>
      </trkpt>
      <trkpt lat="47.819" lon="7.02479">
        <ele>1065.4000244141</ele>
        <time>2021-05-30T08:05:13.000Z</time>
      </trkpt>
      <trkpt lat="47.81894" lon="7.02479">
        <ele>1065</ele>
        <time>2021-05-30T08:06:17.000Z</time>
      </trkpt>
      <trkpt lat="47.8189" lon="7.02473">
        <ele>1064.5999755859</ele>
        <time>2021-05-30T08:06:19.000Z</time>
      </trkpt>
      <trkpt lat="47.81887" lon="7.02471">
        <ele>1064</ele>
        <time>2021-05-30T08:06:20.000Z</time>
      </trkpt>
      <trkpt lat="47.81883" lon="7.02469">
        <ele>1063.4000244141</ele>
        <time>2021-05-30T08:06:21.000Z</time>
      </trkpt>
      <trkpt lat="47.81877" lon="7.02467">
        <ele>1062.5999755859</ele>
        <time>2021-05-30T08:06:22.000Z</time>
      </trkpt>
      <trkpt lat="47.81872" lon="7.02464">
        <ele>1062</ele>
        <time>2021-05-30T08:06:23.000Z</time>
      </trkpt>
      <trkpt lat="47.81866" lon="7.02463">
        <ele>1061.1999511719</ele>
        <time>2021-05-30T08:06:24.000Z</time>
      </trkpt>
      <trkpt lat="47.81861" lon="7.02462">
        <ele>1060.4000244141</ele>
        <time>2021-05-30T08:06:25.000Z</time>
      </trkpt>
      <trkpt lat="47.81855" lon="7.02461">
        <ele>1059.8000488281</ele>
        <time>2021-05-30T08:06:26.000Z</time>
      </trkpt>
      <trkpt lat="47.81849" lon="7.0246">
        <ele>1059</ele>
        <time>2021-05-30T08:06:27.000Z</time>
      </trkpt>
      <trkpt lat="47.81843" lon="7.02458">
        <ele>1058.1999511719</ele>
        <time>2021-05-30T08:06:28.000Z</time>
      </trkpt>
      <trkpt lat="47.81837" lon="7.02457">
        <ele>1057.4000244141</ele>
        <time>2021-05-30T08:06:29.000Z</time>
      </trkpt>
      <trkpt lat="47.81833" lon="7.02455">
        <ele>1056.4000244141</ele>
        <time>2021-05-30T08:06:30.000Z</time>
      </trkpt>
      <trkpt lat="47.81829" lon="7.02454">
        <ele>1055.5999755859</ele>
        <time>2021-05-30T08:06:31.000Z</time>
      </trkpt>
      <trkpt lat="47.81826" lon="7.02454">
        <ele>1054.5999755859</ele>
        <time>2021-05-30T08:06:32.000Z</time>
      </trkpt>
      <trkpt lat="47.81824" lon="7.02453">
        <ele>1053.8000488281</ele>
        <time>2021-05-30T08:06:33.000Z</time>
      </trkpt>
      <trkpt lat="47.81822" lon="7.02454">
        <ele>1053.1999511719</ele>
        <time>2021-05-30T08:06:34.000Z</time>
      </trkpt>
      <trkpt lat="47.81819" lon="7.02453">
        <ele>1052.5999755859</ele>
        <time>2021-05-30T08:06:35.000Z</time>
      </trkpt>
      <trkpt lat="47.81816" lon="7.02452">
        <ele>1051.8000488281</ele>
        <time>2021-05-30T08:06:36.000Z</time>
      </trkpt>
      <trkpt lat="47.81811" lon="7.0245">
        <ele>1051.1999511719</ele>
        <time>2021-05-30T08:06:37.000Z</time>
      </trkpt>
      <trkpt lat="47.81805" lon="7.02449">
        <ele>1050.5999755859</ele>
        <time>2021-05-30T08:06:38.000Z</time>
      </trkpt>
      <trkpt lat="47.818" lon="7.02448">
        <ele>1050</ele>
        <time>2021-05-30T08:06:39.000Z</time>
      </trkpt>
      <trkpt lat="47.81795" lon="7.02448">
        <ele>1049.5999755859</ele>
        <time>2021-05-30T08:06:40.000Z</time>
      </trkpt>
      <trkpt lat="47.81791" lon="7.02448">
        <ele>1049</ele>
        <time>2021-05-30T08:06:41.000Z</time>
      </trkpt>
      <trkpt lat="47.81789" lon="7.02448">
        <ele>1048.4000244141</ele>
        <time>2021-05-30T08:06:42.000Z</time>
      </trkpt>
      <trkpt lat="47.81788" lon="7.02448">
        <ele>1047</ele>
        <time>2021-05-30T08:06:43.000Z</time>
      </trkpt>
      <trkpt lat="47.81787" lon="7.02448">
        <ele>1046.4000244141</ele>
        <time>2021-05-30T08:06:44.000Z</time>
      </trkpt>
      <trkpt lat="47.81785" lon="7.02448">
        <ele>1045.5999755859</ele>
        <time>2021-05-30T08:06:45.000Z</time>
      </trkpt>
      <trkpt lat="47.8178" lon="7.02448">
        <ele>1045.5999755859</ele>
        <time>2021-05-30T08:06:47.000Z</time>
      </trkpt>
      <trkpt lat="47.81778" lon="7.02447">
        <ele>1045.1999511719</ele>
        <time>2021-05-30T08:06:48.000Z</time>
      </trkpt>
      <trkpt lat="47.81776" lon="7.02446">
        <ele>1044.8000488281</ele>
        <time>2021-05-30T08:06:49.000Z</time>
      </trkpt>
      <trkpt lat="47.81775" lon="7.02446">
        <ele>1044.1999511719</ele>
        <time>2021-05-30T08:06:50.000Z</time>
      </trkpt>
      <trkpt lat="47.81774" lon="7.02446">
        <ele>1043.8000488281</ele>
        <time>2021-05-30T08:06:51.000Z</time>
      </trkpt>
      <trkpt lat="47.81773" lon="7.02445">
        <ele>1043.4000244141</ele>
        <time>2021-05-30T08:06:52.000Z</time>
      </trkpt>
      <trkpt lat="47.8177" lon="7.02446">
        <ele>1043</ele>
        <time>2021-05-30T08:06:54.000Z</time>
      </trkpt>
      <trkpt lat="47.81769" lon="7.02446">
        <ele>1042.4000244141</ele>
        <time>2021-05-30T08:06:55.000Z</time>
      </trkpt>
      <trkpt lat="47.81768" lon="7.02446">
        <ele>1042</ele>
        <time>2021-05-30T08:06:56.000Z</time>
      </trkpt>
      <trkpt lat="47.81767" lon="7.02447">
        <ele>1041.5999755859</ele>
        <time>2021-05-30T08:06:57.000Z</time>
      </trkpt>
      <trkpt lat="47.81763" lon="7.02445">
        <ele>1041.1999511719</ele>
        <time>2021-05-30T08:07:04.000Z</time>
      </trkpt>
      <trkpt lat="47.81757" lon="7.02445">
        <ele>1041.1999511719</ele>
        <time>2021-05-30T08:07:06.000Z</time>
      </trkpt>
      <trkpt lat="47.81753" lon="7.02446">
        <ele>1040.4000244141</ele>
        <time>2021-05-30T08:07:07.000Z</time>
      </trkpt>
      <trkpt lat="47.81749" lon="7.02449">
        <ele>1040</ele>
        <time>2021-05-30T08:07:08.000Z</time>
      </trkpt>
      <trkpt lat="47.81744" lon="7.0245">
        <ele>1039.1999511719</ele>
        <time>2021-05-30T08:07:09.000Z</time>
      </trkpt>
      <trkpt lat="47.81739" lon="7.0245">
        <ele>1038.4000244141</ele>
        <time>2021-05-30T08:07:10.000Z</time>
      </trkpt>
      <trkpt lat="47.81734" lon="7.0245">
        <ele>1037.8000488281</ele>
        <time>2021-05-30T08:07:11.000Z</time>
      </trkpt>
      <trkpt lat="47.8173" lon="7.0245">
        <ele>1036.8000488281</ele>
        <time>2021-05-30T08:07:12.000Z</time>
      </trkpt>
      <trkpt lat="47.81726" lon="7.02452">
        <ele>1036</ele>
        <time>2021-05-30T08:07:13.000Z</time>
      </trkpt>
      <trkpt lat="47.81721" lon="7.02454">
        <ele>1035.1999511719</ele>
        <time>2021-05-30T08:07:14.000Z</time>
      </trkpt>
      <trkpt lat="47.81715" lon="7.02455">
        <ele>1034.4000244141</ele>
        <time>2021-05-30T08:07:15.000Z</time>
      </trkpt>
      <trkpt lat="47.8171" lon="7.02455">
        <ele>1033.4000244141</ele>
        <time>2021-05-30T08:07:16.000Z</time>
      </trkpt>
      <trkpt lat="47.81706" lon="7.02455">
        <ele>1032.5999755859</ele>
        <time>2021-05-30T08:07:17.000Z</time>
      </trkpt>
      <trkpt lat="47.81703" lon="7.02455">
        <ele>1031.8000488281</ele>
        <time>2021-05-30T08:07:18.000Z</time>
      </trkpt>
      <trkpt lat="47.817" lon="7.02456">
        <ele>1031.1999511719</ele>
        <time>2021-05-30T08:07:19.000Z</time>
      </trkpt>
      <trkpt lat="47.81697" lon="7.02456">
        <ele>1030.4000244141</ele>
        <time>2021-05-30T08:07:20.000Z</time>
      </trkpt>
      <trkpt lat="47.81693" lon="7.02456">
        <ele>1029.8000488281</ele>
        <time>2021-05-30T08:07:21.000Z</time>
      </trkpt>
      <trkpt lat="47.81688" lon="7.02457">
        <ele>1029</ele>
        <time>2021-05-30T08:07:22.000Z</time>
      </trkpt>
      <trkpt lat="47.81683" lon="7.02456">
        <ele>1028.4000244141</ele>
        <time>2021-05-30T08:07:23.000Z</time>
      </trkpt>
      <trkpt lat="47.81678" lon="7.02456">
        <ele>1027.8000488281</ele>
        <time>2021-05-30T08:07:24.000Z</time>
      </trkpt>
      <trkpt lat="47.81674" lon="7.02456">
        <ele>1027.4000244141</ele>
        <time>2021-05-30T08:07:25.000Z</time>
      </trkpt>
      <trkpt lat="47.81669" lon="7.02457">
        <ele>1026.5999755859</ele>
        <time>2021-05-30T08:07:26.000Z</time>
      </trkpt>
      <trkpt lat="47.81665" lon="7.02459">
        <ele>1025.8000488281</ele>
        <time>2021-05-30T08:07:27.000Z</time>
      </trkpt>
      <trkpt lat="47.8166" lon="7.02461">
        <ele>1025.1999511719</ele>
        <time>2021-05-30T08:07:28.000Z</time>
      </trkpt>
      <trkpt lat="47.81656" lon="7.02462">
        <ele>1024.4000244141</ele>
        <time>2021-05-30T08:07:29.000Z</time>
      </trkpt>
      <trkpt lat="47.81652" lon="7.02463">
        <ele>1023.5999755859</ele>
        <time>2021-05-30T08:07:30.000Z</time>
      </trkpt>
      <trkpt lat="47.81647" lon="7.02464">
        <ele>1022.799987793</ele>
        <time>2021-05-30T08:07:31.000Z</time>
      </trkpt>
      <trkpt lat="47.81642" lon="7.02464">
        <ele>1021.200012207</ele>
        <time>2021-05-30T08:07:32.000Z</time>
      </trkpt>
      <trkpt lat="47.81636" lon="7.02466">
        <ele>1020.4000244141</ele>
        <time>2021-05-30T08:07:33.000Z</time>
      </trkpt>
      <trkpt lat="47.8163" lon="7.02466">
        <ele>1019.5999755859</ele>
        <time>2021-05-30T08:07:34.000Z</time>
      </trkpt>
      <trkpt lat="47.81625" lon="7.02468">
        <ele>1018.799987793</ele>
        <time>2021-05-30T08:07:35.000Z</time>
      </trkpt>
      <trkpt lat="47.81619" lon="7.02471">
        <ele>1018</ele>
        <time>2021-05-30T08:07:36.000Z</time>
      </trkpt>
      <trkpt lat="47.81614" lon="7.02474">
        <ele>1017</ele>
        <time>2021-05-30T08:07:37.000Z</time>
      </trkpt>
      <trkpt lat="47.81608" lon="7.02477">
        <ele>1016</ele>
        <time>2021-05-30T08:07:38.000Z</time>
      </trkpt>
      <trkpt lat="47.81603" lon="7.02481">
        <ele>1015</ele>
        <time>2021-05-30T08:07:39.000Z</time>
      </trkpt>
      <trkpt lat="47.81599" lon="7.02486">
        <ele>1014</ele>
        <time>2021-05-30T08:07:40.000Z</time>
      </trkpt>
      <trkpt lat="47.81594" lon="7.02491">
        <ele>1013</ele>
        <time>2021-05-30T08:07:41.000Z</time>
      </trkpt>
      <trkpt lat="47.8159" lon="7.02495">
        <ele>1012.200012207</ele>
        <time>2021-05-30T08:07:42.000Z</time>
      </trkpt>
      <trkpt lat="47.81587" lon="7.025">
        <ele>1011.4000244141</ele>
        <time>2021-05-30T08:07:43.000Z</time>
      </trkpt>
      <trkpt lat="47.81582" lon="7.02505">
        <ele>1010.4000244141</ele>
        <time>2021-05-30T08:07:44.000Z</time>
      </trkpt>
      <trkpt lat="47.81578" lon="7.0251">
        <ele>1009.799987793</ele>
        <time>2021-05-30T08:07:45.000Z</time>
      </trkpt>
      <trkpt lat="47.81573" lon="7.02515">
        <ele>1009.200012207</ele>
        <time>2021-05-30T08:07:46.000Z</time>
      </trkpt>
      <trkpt lat="47.81568" lon="7.0252">
        <ele>1008.200012207</ele>
        <time>2021-05-30T08:07:47.000Z</time>
      </trkpt>
      <trkpt lat="47.81563" lon="7.02525">
        <ele>1007.4000244141</ele>
        <time>2021-05-30T08:07:48.000Z</time>
      </trkpt>
      <trkpt lat="47.81559" lon="7.0253">
        <ele>1006.5999755859</ele>
        <time>2021-05-30T08:07:49.000Z</time>
      </trkpt>
      <trkpt lat="47.81555" lon="7.02535">
        <ele>1005.799987793</ele>
        <time>2021-05-30T08:07:50.000Z</time>
      </trkpt>
      <trkpt lat="47.81552" lon="7.0254">
        <ele>1005.200012207</ele>
        <time>2021-05-30T08:07:51.000Z</time>
      </trkpt>
      <trkpt lat="47.81549" lon="7.02544">
        <ele>1004.5999755859</ele>
        <time>2021-05-30T08:07:52.000Z</time>
      </trkpt>
      <trkpt lat="47.81546" lon="7.02548">
        <ele>1003.799987793</ele>
        <time>2021-05-30T08:07:53.000Z</time>
      </trkpt>
      <trkpt lat="47.81543" lon="7.02551">
        <ele>1003</ele>
        <time>2021-05-30T08:07:54.000Z</time>
      </trkpt>
      <trkpt lat="47.81539" lon="7.02554">
        <ele>1002.200012207</ele>
        <time>2021-05-30T08:07:55.000Z</time>
      </trkpt>
      <trkpt lat="47.81535" lon="7.02557">
        <ele>1001.200012207</ele>
        <time>2021-05-30T08:07:56.000Z</time>
      </trkpt>
      <trkpt lat="47.81532" lon="7.02561">
        <ele>999.59997558594</ele>
        <time>2021-05-30T08:07:57.000Z</time>
      </trkpt>
      <trkpt lat="47.81528" lon="7.02567">
        <ele>998.59997558594</ele>
        <time>2021-05-30T08:07:58.000Z</time>
      </trkpt>
      <trkpt lat="47.81525" lon="7.02572">
        <ele>997.79998779297</ele>
        <time>2021-05-30T08:07:59.000Z</time>
      </trkpt>
      <trkpt lat="47.81521" lon="7.02578">
        <ele>996.79998779297</ele>
        <time>2021-05-30T08:08:00.000Z</time>
      </trkpt>
      <trkpt lat="47.81519" lon="7.02582">
        <ele>995.79998779297</ele>
        <time>2021-05-30T08:08:01.000Z</time>
      </trkpt>
      <trkpt lat="47.81517" lon="7.02586">
        <ele>995.20001220703</ele>
        <time>2021-05-30T08:08:02.000Z</time>
      </trkpt>
      <trkpt lat="47.81515" lon="7.02591">
        <ele>994.59997558594</ele>
        <time>2021-05-30T08:08:03.000Z</time>
      </trkpt>
      <trkpt lat="47.81513" lon="7.02595">
        <ele>994</ele>
        <time>2021-05-30T08:08:04.000Z</time>
      </trkpt>
      <trkpt lat="47.81511" lon="7.02597">
        <ele>993.40002441406</ele>
        <time>2021-05-30T08:08:05.000Z</time>
      </trkpt>
      <trkpt lat="47.8151" lon="7.02599">
        <ele>992.59997558594</ele>
        <time>2021-05-30T08:08:06.000Z</time>
      </trkpt>
      <trkpt lat="47.81508" lon="7.02601">
        <ele>992.20001220703</ele>
        <time>2021-05-30T08:08:07.000Z</time>
      </trkpt>
      <trkpt lat="47.81507" lon="7.02603">
        <ele>991.79998779297</ele>
        <time>2021-05-30T08:08:08.000Z</time>
      </trkpt>
      <trkpt lat="47.81506" lon="7.02606">
        <ele>991.40002441406</ele>
        <time>2021-05-30T08:08:09.000Z</time>
      </trkpt>
      <trkpt lat="47.81504" lon="7.02609">
        <ele>991</ele>
        <time>2021-05-30T08:08:10.000Z</time>
      </trkpt>
      <trkpt lat="47.81502" lon="7.02615">
        <ele>990.40002441406</ele>
        <time>2021-05-30T08:08:11.000Z</time>
      </trkpt>
      <trkpt lat="47.81501" lon="7.02622">
        <ele>989.79998779297</ele>
        <time>2021-05-30T08:08:12.000Z</time>
      </trkpt>
      <trkpt lat="47.81499" lon="7.02627">
        <ele>989.20001220703</ele>
        <time>2021-05-30T08:08:13.000Z</time>
      </trkpt>
      <trkpt lat="47.81498" lon="7.02632">
        <ele>988.59997558594</ele>
        <time>2021-05-30T08:08:14.000Z</time>
      </trkpt>
      <trkpt lat="47.81496" lon="7.02638">
        <ele>987.79998779297</ele>
        <time>2021-05-30T08:08:15.000Z</time>
      </trkpt>
      <trkpt lat="47.81494" lon="7.02641">
        <ele>987.20001220703</ele>
        <time>2021-05-30T08:08:16.000Z</time>
      </trkpt>
      <trkpt lat="47.81492" lon="7.02644">
        <ele>986.59997558594</ele>
        <time>2021-05-30T08:08:17.000Z</time>
      </trkpt>
      <trkpt lat="47.81491" lon="7.02648">
        <ele>986</ele>
        <time>2021-05-30T08:08:18.000Z</time>
      </trkpt>
      <trkpt lat="47.8149" lon="7.02651">
        <ele>985.20001220703</ele>
        <time>2021-05-30T08:08:19.000Z</time>
      </trkpt>
      <trkpt lat="47.81489" lon="7.02655">
        <ele>984.59997558594</ele>
        <time>2021-05-30T08:08:20.000Z</time>
      </trkpt>
      <trkpt lat="47.81489" lon="7.0266">
        <ele>984</ele>
        <time>2021-05-30T08:08:21.000Z</time>
      </trkpt>
      <trkpt lat="47.8149" lon="7.02673">
        <ele>983.40002441406</ele>
        <time>2021-05-30T08:08:23.000Z</time>
      </trkpt>
      <trkpt lat="47.8149" lon="7.02677">
        <ele>982.79998779297</ele>
        <time>2021-05-30T08:08:24.000Z</time>
      </trkpt>
      <trkpt lat="47.8149" lon="7.02681">
        <ele>982.40002441406</ele>
        <time>2021-05-30T08:08:25.000Z</time>
      </trkpt>
      <trkpt lat="47.81491" lon="7.02685">
        <ele>981.79998779297</ele>
        <time>2021-05-30T08:08:26.000Z</time>
      </trkpt>
      <trkpt lat="47.81491" lon="7.02689">
        <ele>981.40002441406</ele>
        <time>2021-05-30T08:08:27.000Z</time>
      </trkpt>
      <trkpt lat="47.81492" lon="7.02695">
        <ele>980.79998779297</ele>
        <time>2021-05-30T08:08:28.000Z</time>
      </trkpt>
      <trkpt lat="47.81494" lon="7.02701">
        <ele>980.20001220703</ele>
        <time>2021-05-30T08:08:29.000Z</time>
      </trkpt>
      <trkpt lat="47.81496" lon="7.02707">
        <ele>979.79998779297</ele>
        <time>2021-05-30T08:08:30.000Z</time>
      </trkpt>
      <trkpt lat="47.81498" lon="7.02713">
        <ele>979</ele>
        <time>2021-05-30T08:08:31.000Z</time>
      </trkpt>
      <trkpt lat="47.81501" lon="7.02721">
        <ele>978.20001220703</ele>
        <time>2021-05-30T08:08:32.000Z</time>
      </trkpt>
      <trkpt lat="47.81503" lon="7.02729">
        <ele>977.40002441406</ele>
        <time>2021-05-30T08:08:33.000Z</time>
      </trkpt>
      <trkpt lat="47.81506" lon="7.02735">
        <ele>976.59997558594</ele>
        <time>2021-05-30T08:08:34.000Z</time>
      </trkpt>
      <trkpt lat="47.81508" lon="7.02742">
        <ele>975.79998779297</ele>
        <time>2021-05-30T08:08:35.000Z</time>
      </trkpt>
      <trkpt lat="47.8151" lon="7.0275">
        <ele>975</ele>
        <time>2021-05-30T08:08:36.000Z</time>
      </trkpt>
      <trkpt lat="47.81512" lon="7.02756">
        <ele>974.20001220703</ele>
        <time>2021-05-30T08:08:37.000Z</time>
      </trkpt>
      <trkpt lat="47.81514" lon="7.02761">
        <ele>973.40002441406</ele>
        <time>2021-05-30T08:08:38.000Z</time>
      </trkpt>
      <trkpt lat="47.81515" lon="7.02765">
        <ele>972.79998779297</ele>
        <time>2021-05-30T08:08:39.000Z</time>
      </trkpt>
      <trkpt lat="47.81517" lon="7.02771">
        <ele>972.20001220703</ele>
        <time>2021-05-30T08:08:40.000Z</time>
      </trkpt>
      <trkpt lat="47.8152" lon="7.02776">
        <ele>971.40002441406</ele>
        <time>2021-05-30T08:08:41.000Z</time>
      </trkpt>
      <trkpt lat="47.81524" lon="7.02781">
        <ele>970.79998779297</ele>
        <time>2021-05-30T08:08:42.000Z</time>
      </trkpt>
      <trkpt lat="47.81527" lon="7.02786">
        <ele>970.20001220703</ele>
        <time>2021-05-30T08:08:43.000Z</time>
      </trkpt>
      <trkpt lat="47.81532" lon="7.02792">
        <ele>969.40002441406</ele>
        <time>2021-05-30T08:08:44.000Z</time>
      </trkpt>
      <trkpt lat="47.81536" lon="7.02795">
        <ele>968.79998779297</ele>
        <time>2021-05-30T08:08:45.000Z</time>
      </trkpt>
      <trkpt lat="47.8154" lon="7.02797">
        <ele>967.40002441406</ele>
        <time>2021-05-30T08:08:46.000Z</time>
      </trkpt>
      <trkpt lat="47.81543" lon="7.028">
        <ele>966.79998779297</ele>
        <time>2021-05-30T08:08:47.000Z</time>
      </trkpt>
      <trkpt lat="47.81548" lon="7.0281">
        <ele>966.79998779297</ele>
        <time>2021-05-30T08:08:49.000Z</time>
      </trkpt>
      <trkpt lat="47.81551" lon="7.02815">
        <ele>966.20001220703</ele>
        <time>2021-05-30T08:08:50.000Z</time>
      </trkpt>
      <trkpt lat="47.81553" lon="7.02818">
        <ele>965.79998779297</ele>
        <time>2021-05-30T08:08:51.000Z</time>
      </trkpt>
      <trkpt lat="47.81554" lon="7.0282">
        <ele>965.40002441406</ele>
        <time>2021-05-30T08:08:52.000Z</time>
      </trkpt>
      <trkpt lat="47.81555" lon="7.0282">
        <ele>965</ele>
        <time>2021-05-30T08:08:53.000Z</time>
      </trkpt>
      <trkpt lat="47.81556" lon="7.02821">
        <ele>964.40002441406</ele>
        <time>2021-05-30T08:08:54.000Z</time>
      </trkpt>
      <trkpt lat="47.81558" lon="7.02822">
        <ele>964</ele>
        <time>2021-05-30T08:08:56.000Z</time>
      </trkpt>
      <trkpt lat="47.8156" lon="7.02824">
        <ele>962.40002441406</ele>
        <time>2021-05-30T08:09:00.000Z</time>
      </trkpt>
      <trkpt lat="47.81562" lon="7.02826">
        <ele>962.40002441406</ele>
        <time>2021-05-30T08:09:01.000Z</time>
      </trkpt>
      <trkpt lat="47.81565" lon="7.02829">
        <ele>962</ele>
        <time>2021-05-30T08:09:04.000Z</time>
      </trkpt>
      <trkpt lat="47.81566" lon="7.02829">
        <ele>961.59997558594</ele>
        <time>2021-05-30T08:09:05.000Z</time>
      </trkpt>
      <trkpt lat="47.81567" lon="7.0283">
        <ele>961</ele>
        <time>2021-05-30T08:09:06.000Z</time>
      </trkpt>
      <trkpt lat="47.8157" lon="7.02832">
        <ele>960.59997558594</ele>
        <time>2021-05-30T08:09:07.000Z</time>
      </trkpt>
      <trkpt lat="47.81573" lon="7.02834">
        <ele>960.20001220703</ele>
        <time>2021-05-30T08:09:08.000Z</time>
      </trkpt>
      <trkpt lat="47.81577" lon="7.02838">
        <ele>960.20001220703</ele>
        <time>2021-05-30T08:09:09.000Z</time>
      </trkpt>
      <trkpt lat="47.81582" lon="7.02841">
        <ele>959.79998779297</ele>
        <time>2021-05-30T08:09:10.000Z</time>
      </trkpt>
      <trkpt lat="47.81586" lon="7.02844">
        <ele>959</ele>
        <time>2021-05-30T08:09:11.000Z</time>
      </trkpt>
      <trkpt lat="47.81588" lon="7.02848">
        <ele>958.59997558594</ele>
        <time>2021-05-30T08:09:12.000Z</time>
      </trkpt>
      <trkpt lat="47.8159" lon="7.02851">
        <ele>958</ele>
        <time>2021-05-30T08:09:13.000Z</time>
      </trkpt>
      <trkpt lat="47.81592" lon="7.02854">
        <ele>957.40002441406</ele>
        <time>2021-05-30T08:09:14.000Z</time>
      </trkpt>
      <trkpt lat="47.81594" lon="7.02856">
        <ele>956.79998779297</ele>
        <time>2021-05-30T08:09:15.000Z</time>
      </trkpt>
      <trkpt lat="47.81596" lon="7.02859">
        <ele>956.20001220703</ele>
        <time>2021-05-30T08:09:16.000Z</time>
      </trkpt>
      <trkpt lat="47.81598" lon="7.02862">
        <ele>955.59997558594</ele>
        <time>2021-05-30T08:09:17.000Z</time>
      </trkpt>
      <trkpt lat="47.81601" lon="7.02866">
        <ele>955</ele>
        <time>2021-05-30T08:09:18.000Z</time>
      </trkpt>
      <trkpt lat="47.81603" lon="7.0287">
        <ele>954.59997558594</ele>
        <time>2021-05-30T08:09:19.000Z</time>
      </trkpt>
      <trkpt lat="47.81605" lon="7.02874">
        <ele>954</ele>
        <time>2021-05-30T08:09:20.000Z</time>
      </trkpt>
      <trkpt lat="47.81608" lon="7.02878">
        <ele>953.40002441406</ele>
        <time>2021-05-30T08:09:21.000Z</time>
      </trkpt>
      <trkpt lat="47.8161" lon="7.02881">
        <ele>952.79998779297</ele>
        <time>2021-05-30T08:09:22.000Z</time>
      </trkpt>
      <trkpt lat="47.81612" lon="7.02884">
        <ele>952.20001220703</ele>
        <time>2021-05-30T08:09:23.000Z</time>
      </trkpt>
      <trkpt lat="47.81614" lon="7.02885">
        <ele>951.59997558594</ele>
        <time>2021-05-30T08:09:24.000Z</time>
      </trkpt>
      <trkpt lat="47.81616" lon="7.02887">
        <ele>951</ele>
        <time>2021-05-30T08:09:25.000Z</time>
      </trkpt>
      <trkpt lat="47.81618" lon="7.02889">
        <ele>950.59997558594</ele>
        <time>2021-05-30T08:09:26.000Z</time>
      </trkpt>
      <trkpt lat="47.8162" lon="7.02892">
        <ele>950.20001220703</ele>
        <time>2021-05-30T08:09:27.000Z</time>
      </trkpt>
      <trkpt lat="47.81622" lon="7.02895">
        <ele>949.59997558594</ele>
        <time>2021-05-30T08:09:28.000Z</time>
      </trkpt>
      <trkpt lat="47.81624" lon="7.02898">
        <ele>949</ele>
        <time>2021-05-30T08:09:29.000Z</time>
      </trkpt>
      <trkpt lat="47.81625" lon="7.02902">
        <ele>948.20001220703</ele>
        <time>2021-05-30T08:09:30.000Z</time>
      </trkpt>
      <trkpt lat="47.81625" lon="7.02905">
        <ele>947.59997558594</ele>
        <time>2021-05-30T08:09:31.000Z</time>
      </trkpt>
      <trkpt lat="47.81624" lon="7.02909">
        <ele>946.79998779297</ele>
        <time>2021-05-30T08:09:32.000Z</time>
      </trkpt>
      <trkpt lat="47.81622" lon="7.02912">
        <ele>946</ele>
        <time>2021-05-30T08:09:33.000Z</time>
      </trkpt>
      <trkpt lat="47.8162" lon="7.0292">
        <ele>945.59997558594</ele>
        <time>2021-05-30T08:09:35.000Z</time>
      </trkpt>
      <trkpt lat="47.8162" lon="7.02925">
        <ele>944.59997558594</ele>
        <time>2021-05-30T08:09:36.000Z</time>
      </trkpt>
      <trkpt lat="47.81619" lon="7.02929">
        <ele>944.20001220703</ele>
        <time>2021-05-30T08:09:37.000Z</time>
      </trkpt>
      <trkpt lat="47.81618" lon="7.02932">
        <ele>943.59997558594</ele>
        <time>2021-05-30T08:09:38.000Z</time>
      </trkpt>
      <trkpt lat="47.81617" lon="7.02938">
        <ele>943</ele>
        <time>2021-05-30T08:09:39.000Z</time>
      </trkpt>
      <trkpt lat="47.81618" lon="7.02947">
        <ele>942.40002441406</ele>
        <time>2021-05-30T08:09:40.000Z</time>
      </trkpt>
      <trkpt lat="47.81618" lon="7.02954">
        <ele>941.79998779297</ele>
        <time>2021-05-30T08:09:41.000Z</time>
      </trkpt>
      <trkpt lat="47.81617" lon="7.02967">
        <ele>941.20001220703</ele>
        <time>2021-05-30T08:09:42.000Z</time>
      </trkpt>
      <trkpt lat="47.81616" lon="7.02977">
        <ele>940.59997558594</ele>
        <time>2021-05-30T08:09:43.000Z</time>
      </trkpt>
      <trkpt lat="47.81614" lon="7.02982">
        <ele>940</ele>
        <time>2021-05-30T08:09:44.000Z</time>
      </trkpt>
      <trkpt lat="47.81613" lon="7.02985">
        <ele>939.59997558594</ele>
        <time>2021-05-30T08:09:45.000Z</time>
      </trkpt>
      <trkpt lat="47.81611" lon="7.02999">
        <ele>939</ele>
        <time>2021-05-30T08:09:47.000Z</time>
      </trkpt>
      <trkpt lat="47.81608" lon="7.03008">
        <ele>938.59997558594</ele>
        <time>2021-05-30T08:09:48.000Z</time>
      </trkpt>
      <trkpt lat="47.81606" lon="7.03016">
        <ele>938</ele>
        <time>2021-05-30T08:09:49.000Z</time>
      </trkpt>
      <trkpt lat="47.81603" lon="7.03023">
        <ele>937.40002441406</ele>
        <time>2021-05-30T08:09:50.000Z</time>
      </trkpt>
      <trkpt lat="47.81601" lon="7.0303">
        <ele>936.59997558594</ele>
        <time>2021-05-30T08:09:51.000Z</time>
      </trkpt>
      <trkpt lat="47.81599" lon="7.03035">
        <ele>936</ele>
        <time>2021-05-30T08:09:52.000Z</time>
      </trkpt>
      <trkpt lat="47.81598" lon="7.0304">
        <ele>935.20001220703</ele>
        <time>2021-05-30T08:09:53.000Z</time>
      </trkpt>
      <trkpt lat="47.81596" lon="7.03044">
        <ele>934.20001220703</ele>
        <time>2021-05-30T08:09:54.000Z</time>
      </trkpt>
      <trkpt lat="47.81594" lon="7.0305">
        <ele>933.40002441406</ele>
        <time>2021-05-30T08:09:55.000Z</time>
      </trkpt>
      <trkpt lat="47.81591" lon="7.03054">
        <ele>932.59997558594</ele>
        <time>2021-05-30T08:09:56.000Z</time>
      </trkpt>
      <trkpt lat="47.81588" lon="7.03059">
        <ele>932</ele>
        <time>2021-05-30T08:09:57.000Z</time>
      </trkpt>
      <trkpt lat="47.81586" lon="7.03064">
        <ele>931.40002441406</ele>
        <time>2021-05-30T08:09:58.000Z</time>
      </trkpt>
      <trkpt lat="47.81583" lon="7.03069">
        <ele>930.59997558594</ele>
        <time>2021-05-30T08:09:59.000Z</time>
      </trkpt>
      <trkpt lat="47.81582" lon="7.03075">
        <ele>929.79998779297</ele>
        <time>2021-05-30T08:10:00.000Z</time>
      </trkpt>
      <trkpt lat="47.8158" lon="7.03081">
        <ele>928.40002441406</ele>
        <time>2021-05-30T08:10:01.000Z</time>
      </trkpt>
      <trkpt lat="47.81578" lon="7.03085">
        <ele>927.59997558594</ele>
        <time>2021-05-30T08:10:02.000Z</time>
      </trkpt>
      <trkpt lat="47.81576" lon="7.03091">
        <ele>927</ele>
        <time>2021-05-30T08:10:03.000Z</time>
      </trkpt>
      <trkpt lat="47.81573" lon="7.03096">
        <ele>926.40002441406</ele>
        <time>2021-05-30T08:10:04.000Z</time>
      </trkpt>
      <trkpt lat="47.81571" lon="7.03101">
        <ele>925.79998779297</ele>
        <time>2021-05-30T08:10:05.000Z</time>
      </trkpt>
      <trkpt lat="47.81567" lon="7.03107">
        <ele>925</ele>
        <time>2021-05-30T08:10:06.000Z</time>
      </trkpt>
      <trkpt lat="47.81564" lon="7.03113">
        <ele>924.40002441406</ele>
        <time>2021-05-30T08:10:07.000Z</time>
      </trkpt>
      <trkpt lat="47.8156" lon="7.03119">
        <ele>923.59997558594</ele>
        <time>2021-05-30T08:10:08.000Z</time>
      </trkpt>
      <trkpt lat="47.81558" lon="7.03126">
        <ele>922.79998779297</ele>
        <time>2021-05-30T08:10:09.000Z</time>
      </trkpt>
      <trkpt lat="47.81554" lon="7.03133">
        <ele>921.79998779297</ele>
        <time>2021-05-30T08:10:10.000Z</time>
      </trkpt>
      <trkpt lat="47.81551" lon="7.03141">
        <ele>921</ele>
        <time>2021-05-30T08:10:11.000Z</time>
      </trkpt>
      <trkpt lat="47.81548" lon="7.03147">
        <ele>920.20001220703</ele>
        <time>2021-05-30T08:10:12.000Z</time>
      </trkpt>
      <trkpt lat="47.81544" lon="7.03153">
        <ele>919.40002441406</ele>
        <time>2021-05-30T08:10:13.000Z</time>
      </trkpt>
      <trkpt lat="47.81541" lon="7.03158">
        <ele>918.59997558594</ele>
        <time>2021-05-30T08:10:14.000Z</time>
      </trkpt>
      <trkpt lat="47.81536" lon="7.03163">
        <ele>917.79998779297</ele>
        <time>2021-05-30T08:10:15.000Z</time>
      </trkpt>
      <trkpt lat="47.81532" lon="7.03168">
        <ele>917.20001220703</ele>
        <time>2021-05-30T08:10:16.000Z</time>
      </trkpt>
      <trkpt lat="47.81529" lon="7.03173">
        <ele>916.59997558594</ele>
        <time>2021-05-30T08:10:17.000Z</time>
      </trkpt>
      <trkpt lat="47.81525" lon="7.03177">
        <ele>915.79998779297</ele>
        <time>2021-05-30T08:10:18.000Z</time>
      </trkpt>
      <trkpt lat="47.81522" lon="7.0318">
        <ele>915.20001220703</ele>
        <time>2021-05-30T08:10:19.000Z</time>
      </trkpt>
      <trkpt lat="47.81519" lon="7.03184">
        <ele>914.59997558594</ele>
        <time>2021-05-30T08:10:20.000Z</time>
      </trkpt>
      <trkpt lat="47.81516" lon="7.03187">
        <ele>914</ele>
        <time>2021-05-30T08:10:21.000Z</time>
      </trkpt>
      <trkpt lat="47.81514" lon="7.03191">
        <ele>913.40002441406</ele>
        <time>2021-05-30T08:10:22.000Z</time>
      </trkpt>
      <trkpt lat="47.81513" lon="7.03192">
        <ele>912.79998779297</ele>
        <time>2021-05-30T08:10:23.000Z</time>
      </trkpt>
      <trkpt lat="47.81512" lon="7.03194">
        <ele>912.20001220703</ele>
        <time>2021-05-30T08:10:24.000Z</time>
      </trkpt>
      <trkpt lat="47.81512" lon="7.03195">
        <ele>912.20001220703</ele>
        <time>2021-05-30T08:10:26.000Z</time>
      </trkpt>
      <trkpt lat="47.81506" lon="7.03205">
        <ele>912.20001220703</ele>
        <time>2021-05-30T08:12:03.000Z</time>
      </trkpt>
      <trkpt lat="47.81505" lon="7.03207">
        <ele>912.20001220703</ele>
        <time>2021-05-30T08:12:04.000Z</time>
      </trkpt>
      <trkpt lat="47.81502" lon="7.03208">
        <ele>912.20001220703</ele>
        <time>2021-05-30T08:12:06.000Z</time>
      </trkpt>
      <trkpt lat="47.815" lon="7.03207">
        <ele>911.79998779297</ele>
        <time>2021-05-30T08:12:07.000Z</time>
      </trkpt>
      <trkpt lat="47.81498" lon="7.03208">
        <ele>911.40002441406</ele>
        <time>2021-05-30T08:12:08.000Z</time>
      </trkpt>
      <trkpt lat="47.81493" lon="7.03208">
        <ele>911</ele>
        <time>2021-05-30T08:12:09.000Z</time>
      </trkpt>
      <trkpt lat="47.81489" lon="7.03209">
        <ele>910.40002441406</ele>
        <time>2021-05-30T08:12:10.000Z</time>
      </trkpt>
      <trkpt lat="47.81484" lon="7.0321">
        <ele>909.59997558594</ele>
        <time>2021-05-30T08:12:11.000Z</time>
      </trkpt>
      <trkpt lat="47.81479" lon="7.03211">
        <ele>909</ele>
        <time>2021-05-30T08:12:12.000Z</time>
      </trkpt>
      <trkpt lat="47.81475" lon="7.03213">
        <ele>908.20001220703</ele>
        <time>2021-05-30T08:12:13.000Z</time>
      </trkpt>
      <trkpt lat="47.81469" lon="7.03214">
        <ele>907.40002441406</ele>
        <time>2021-05-30T08:12:14.000Z</time>
      </trkpt>
      <trkpt lat="47.81463" lon="7.03215">
        <ele>906.59997558594</ele>
        <time>2021-05-30T08:12:15.000Z</time>
      </trkpt>
      <trkpt lat="47.81457" lon="7.03217">
        <ele>905.79998779297</ele>
        <time>2021-05-30T08:12:16.000Z</time>
      </trkpt>
      <trkpt lat="47.81451" lon="7.03218">
        <ele>905</ele>
        <time>2021-05-30T08:12:17.000Z</time>
      </trkpt>
      <trkpt lat="47.81445" lon="7.03219">
        <ele>904.40002441406</ele>
        <time>2021-05-30T08:12:18.000Z</time>
      </trkpt>
      <trkpt lat="47.81438" lon="7.0322">
        <ele>903.59997558594</ele>
        <time>2021-05-30T08:12:19.000Z</time>
      </trkpt>
      <trkpt lat="47.81431" lon="7.0322">
        <ele>902.79998779297</ele>
        <time>2021-05-30T08:12:20.000Z</time>
      </trkpt>
      <trkpt lat="47.81423" lon="7.0322">
        <ele>902.20001220703</ele>
        <time>2021-05-30T08:12:21.000Z</time>
      </trkpt>
      <trkpt lat="47.81415" lon="7.03221">
        <ele>901.59997558594</ele>
        <time>2021-05-30T08:12:22.000Z</time>
      </trkpt>
      <trkpt lat="47.81409" lon="7.03221">
        <ele>901</ele>
        <time>2021-05-30T08:12:23.000Z</time>
      </trkpt>
      <trkpt lat="47.81401" lon="7.0322">
        <ele>900.20001220703</ele>
        <time>2021-05-30T08:12:24.000Z</time>
      </trkpt>
      <trkpt lat="47.81394" lon="7.03219">
        <ele>899.59997558594</ele>
        <time>2021-05-30T08:12:25.000Z</time>
      </trkpt>
      <trkpt lat="47.81387" lon="7.03219">
        <ele>898.79998779297</ele>
        <time>2021-05-30T08:12:26.000Z</time>
      </trkpt>
      <trkpt lat="47.81381" lon="7.03219">
        <ele>898.20001220703</ele>
        <time>2021-05-30T08:12:27.000Z</time>
      </trkpt>
      <trkpt lat="47.81375" lon="7.03219">
        <ele>897.40002441406</ele>
        <time>2021-05-30T08:12:28.000Z</time>
      </trkpt>
      <trkpt lat="47.8137" lon="7.03218">
        <ele>895.79998779297</ele>
        <time>2021-05-30T08:12:29.000Z</time>
      </trkpt>
      <trkpt lat="47.81364" lon="7.03218">
        <ele>895</ele>
        <time>2021-05-30T08:12:30.000Z</time>
      </trkpt>
      <trkpt lat="47.81359" lon="7.03218">
        <ele>894.20001220703</ele>
        <time>2021-05-30T08:12:31.000Z</time>
      </trkpt>
      <trkpt lat="47.81355" lon="7.03218">
        <ele>893.20001220703</ele>
        <time>2021-05-30T08:12:32.000Z</time>
      </trkpt>
      <trkpt lat="47.81352" lon="7.03219">
        <ele>892.40002441406</ele>
        <time>2021-05-30T08:12:33.000Z</time>
      </trkpt>
      <trkpt lat="47.81346" lon="7.03221">
        <ele>892</ele>
        <time>2021-05-30T08:12:35.000Z</time>
      </trkpt>
      <trkpt lat="47.81343" lon="7.03222">
        <ele>891.59997558594</ele>
        <time>2021-05-30T08:12:36.000Z</time>
      </trkpt>
      <trkpt lat="47.81341" lon="7.03222">
        <ele>891</ele>
        <time>2021-05-30T08:12:37.000Z</time>
      </trkpt>
      <trkpt lat="47.81338" lon="7.03222">
        <ele>890.59997558594</ele>
        <time>2021-05-30T08:12:38.000Z</time>
      </trkpt>
      <trkpt lat="47.81335" lon="7.03221">
        <ele>890.20001220703</ele>
        <time>2021-05-30T08:12:39.000Z</time>
      </trkpt>
      <trkpt lat="47.81326" lon="7.03219">
        <ele>889.79998779297</ele>
        <time>2021-05-30T08:12:41.000Z</time>
      </trkpt>
      <trkpt lat="47.81321" lon="7.03219">
        <ele>889.40002441406</ele>
        <time>2021-05-30T08:12:42.000Z</time>
      </trkpt>
      <trkpt lat="47.81316" lon="7.0322">
        <ele>888.79998779297</ele>
        <time>2021-05-30T08:12:43.000Z</time>
      </trkpt>
      <trkpt lat="47.8131" lon="7.03219">
        <ele>888.40002441406</ele>
        <time>2021-05-30T08:12:44.000Z</time>
      </trkpt>
      <trkpt lat="47.81303" lon="7.03219">
        <ele>887.79998779297</ele>
        <time>2021-05-30T08:12:45.000Z</time>
      </trkpt>
      <trkpt lat="47.81297" lon="7.03219">
        <ele>887.40002441406</ele>
        <time>2021-05-30T08:12:46.000Z</time>
      </trkpt>
      <trkpt lat="47.81291" lon="7.03218">
        <ele>886.79998779297</ele>
        <time>2021-05-30T08:12:47.000Z</time>
      </trkpt>
      <trkpt lat="47.81286" lon="7.03217">
        <ele>886.20001220703</ele>
        <time>2021-05-30T08:12:48.000Z</time>
      </trkpt>
      <trkpt lat="47.81282" lon="7.03215">
        <ele>885.79998779297</ele>
        <time>2021-05-30T08:12:49.000Z</time>
      </trkpt>
      <trkpt lat="47.81273" lon="7.03212">
        <ele>885.20001220703</ele>
        <time>2021-05-30T08:12:51.000Z</time>
      </trkpt>
      <trkpt lat="47.81268" lon="7.03213">
        <ele>884.79998779297</ele>
        <time>2021-05-30T08:12:52.000Z</time>
      </trkpt>
      <trkpt lat="47.81263" lon="7.03212">
        <ele>884.40002441406</ele>
        <time>2021-05-30T08:12:53.000Z</time>
      </trkpt>
      <trkpt lat="47.81257" lon="7.03212">
        <ele>883.20001220703</ele>
        <time>2021-05-30T08:12:54.000Z</time>
      </trkpt>
      <trkpt lat="47.81251" lon="7.03215">
        <ele>882.40002441406</ele>
        <time>2021-05-30T08:12:55.000Z</time>
      </trkpt>
      <trkpt lat="47.81246" lon="7.03218">
        <ele>881.79998779297</ele>
        <time>2021-05-30T08:12:56.000Z</time>
      </trkpt>
      <trkpt lat="47.8124" lon="7.0322">
        <ele>881.20001220703</ele>
        <time>2021-05-30T08:12:57.000Z</time>
      </trkpt>
      <trkpt lat="47.81235" lon="7.03223">
        <ele>880.79998779297</ele>
        <time>2021-05-30T08:12:58.000Z</time>
      </trkpt>
      <trkpt lat="47.8123" lon="7.03224">
        <ele>880.20001220703</ele>
        <time>2021-05-30T08:12:59.000Z</time>
      </trkpt>
      <trkpt lat="47.81224" lon="7.03226">
        <ele>879.79998779297</ele>
        <time>2021-05-30T08:13:00.000Z</time>
      </trkpt>
      <trkpt lat="47.81218" lon="7.03228">
        <ele>879.40002441406</ele>
        <time>2021-05-30T08:13:01.000Z</time>
      </trkpt>
      <trkpt lat="47.81211" lon="7.0323">
        <ele>878.79998779297</ele>
        <time>2021-05-30T08:13:02.000Z</time>
      </trkpt>
      <trkpt lat="47.81205" lon="7.03231">
        <ele>878.40002441406</ele>
        <time>2021-05-30T08:13:03.000Z</time>
      </trkpt>
      <trkpt lat="47.81199" lon="7.03233">
        <ele>877.79998779297</ele>
        <time>2021-05-30T08:13:04.000Z</time>
      </trkpt>
      <trkpt lat="47.81193" lon="7.03238">
        <ele>877.40002441406</ele>
        <time>2021-05-30T08:13:05.000Z</time>
      </trkpt>
      <trkpt lat="47.8119" lon="7.03243">
        <ele>876.79998779297</ele>
        <time>2021-05-30T08:13:06.000Z</time>
      </trkpt>
      <trkpt lat="47.81187" lon="7.03245">
        <ele>876.20001220703</ele>
        <time>2021-05-30T08:13:07.000Z</time>
      </trkpt>
      <trkpt lat="47.81186" lon="7.03246">
        <ele>875.40002441406</ele>
        <time>2021-05-30T08:13:08.000Z</time>
      </trkpt>
      <trkpt lat="47.81186" lon="7.03247">
        <ele>874.79998779297</ele>
        <time>2021-05-30T08:13:09.000Z</time>
      </trkpt>
      <trkpt lat="47.81185" lon="7.03248">
        <ele>874.20001220703</ele>
        <time>2021-05-30T08:13:10.000Z</time>
      </trkpt>
      <trkpt lat="47.81183" lon="7.03256">
        <ele>874.20001220703</ele>
        <time>2021-05-30T08:13:30.000Z</time>
      </trkpt>
      <trkpt lat="47.81181" lon="7.03264">
        <ele>874.20001220703</ele>
        <time>2021-05-30T08:13:32.000Z</time>
      </trkpt>
      <trkpt lat="47.81175" lon="7.03289">
        <ele>874.20001220703</ele>
        <time>2021-05-30T08:13:35.000Z</time>
      </trkpt>
      <trkpt lat="47.81171" lon="7.033">
        <ele>873.79998779297</ele>
        <time>2021-05-30T08:13:36.000Z</time>
      </trkpt>
      <trkpt lat="47.81167" lon="7.0331">
        <ele>873.20001220703</ele>
        <time>2021-05-30T08:13:37.000Z</time>
      </trkpt>
      <trkpt lat="47.81164" lon="7.03317">
        <ele>872.79998779297</ele>
        <time>2021-05-30T08:13:38.000Z</time>
      </trkpt>
      <trkpt lat="47.81163" lon="7.03323">
        <ele>872.20001220703</ele>
        <time>2021-05-30T08:13:39.000Z</time>
      </trkpt>
      <trkpt lat="47.81161" lon="7.0333">
        <ele>871.59997558594</ele>
        <time>2021-05-30T08:13:40.000Z</time>
      </trkpt>
      <trkpt lat="47.81159" lon="7.03335">
        <ele>870.79998779297</ele>
        <time>2021-05-30T08:13:41.000Z</time>
      </trkpt>
      <trkpt lat="47.81159" lon="7.03337">
        <ele>870.20001220703</ele>
        <time>2021-05-30T08:13:42.000Z</time>
      </trkpt>
      <trkpt lat="47.81159" lon="7.03337">
        <ele>869.40002441406</ele>
        <time>2021-05-30T08:13:43.000Z</time>
      </trkpt>
      <trkpt lat="47.81159" lon="7.03338">
        <ele>867.79998779297</ele>
        <time>2021-05-30T08:13:44.000Z</time>
      </trkpt>
      <trkpt lat="47.8115" lon="7.03341">
        <ele>867.20001220703</ele>
        <time>2021-05-30T08:15:46.000Z</time>
      </trkpt>
      <trkpt lat="47.81148" lon="7.03344">
        <ele>867.20001220703</ele>
        <time>2021-05-30T08:15:47.000Z</time>
      </trkpt>
      <trkpt lat="47.81134" lon="7.03359">
        <ele>867.20001220703</ele>
        <time>2021-05-30T08:15:53.000Z</time>
      </trkpt>
      <trkpt lat="47.81127" lon="7.03373">
        <ele>867.20001220703</ele>
        <time>2021-05-30T08:16:00.000Z</time>
      </trkpt>
      <trkpt lat="47.81125" lon="7.03378">
        <ele>867.20001220703</ele>
        <time>2021-05-30T08:16:02.000Z</time>
      </trkpt>
      <trkpt lat="47.81122" lon="7.03391">
        <ele>867.20001220703</ele>
        <time>2021-05-30T08:16:06.000Z</time>
      </trkpt>
      <trkpt lat="47.81117" lon="7.03416">
        <ele>867.20001220703</ele>
        <time>2021-05-30T08:16:12.000Z</time>
      </trkpt>
      <trkpt lat="47.81116" lon="7.03433">
        <ele>867.59997558594</ele>
        <time>2021-05-30T08:16:17.000Z</time>
      </trkpt>
      <trkpt lat="47.81116" lon="7.03436">
        <ele>868</ele>
        <time>2021-05-30T08:16:18.000Z</time>
      </trkpt>
      <trkpt lat="47.81115" lon="7.03439">
        <ele>868.40002441406</ele>
        <time>2021-05-30T08:16:19.000Z</time>
      </trkpt>
      <trkpt lat="47.81115" lon="7.03442">
        <ele>868.79998779297</ele>
        <time>2021-05-30T08:16:20.000Z</time>
      </trkpt>
      <trkpt lat="47.81114" lon="7.03444">
        <ele>869.20001220703</ele>
        <time>2021-05-30T08:16:21.000Z</time>
      </trkpt>
      <trkpt lat="47.8111" lon="7.03451">
        <ele>869.20001220703</ele>
        <time>2021-05-30T08:16:25.000Z</time>
      </trkpt>
      <trkpt lat="47.81098" lon="7.03464">
        <ele>869.20001220703</ele>
        <time>2021-05-30T08:16:29.000Z</time>
      </trkpt>
      <trkpt lat="47.81084" lon="7.03484">
        <ele>868.79998779297</ele>
        <time>2021-05-30T08:16:32.000Z</time>
      </trkpt>
      <trkpt lat="47.81078" lon="7.03493">
        <ele>868.20001220703</ele>
        <time>2021-05-30T08:16:33.000Z</time>
      </trkpt>
      <trkpt lat="47.81072" lon="7.03502">
        <ele>867.79998779297</ele>
        <time>2021-05-30T08:16:34.000Z</time>
      </trkpt>
      <trkpt lat="47.81067" lon="7.03512">
        <ele>867</ele>
        <time>2021-05-30T08:16:35.000Z</time>
      </trkpt>
      <trkpt lat="47.8106" lon="7.03522">
        <ele>865.59997558594</ele>
        <time>2021-05-30T08:16:36.000Z</time>
      </trkpt>
      <trkpt lat="47.81055" lon="7.03532">
        <ele>864.79998779297</ele>
        <time>2021-05-30T08:16:37.000Z</time>
      </trkpt>
      <trkpt lat="47.8105" lon="7.03542">
        <ele>863.79998779297</ele>
        <time>2021-05-30T08:16:38.000Z</time>
      </trkpt>
      <trkpt lat="47.81045" lon="7.03549">
        <ele>863</ele>
        <time>2021-05-30T08:16:39.000Z</time>
      </trkpt>
      <trkpt lat="47.81042" lon="7.03553">
        <ele>862.20001220703</ele>
        <time>2021-05-30T08:16:40.000Z</time>
      </trkpt>
      <trkpt lat="47.8104" lon="7.03557">
        <ele>861.40002441406</ele>
        <time>2021-05-30T08:16:41.000Z</time>
      </trkpt>
      <trkpt lat="47.81039" lon="7.03559">
        <ele>861.79998779297</ele>
        <time>2021-05-30T08:16:42.000Z</time>
      </trkpt>
      <trkpt lat="47.81039" lon="7.03561">
        <ele>862.20001220703</ele>
        <time>2021-05-30T08:16:43.000Z</time>
      </trkpt>
      <trkpt lat="47.81038" lon="7.03563">
        <ele>862.59997558594</ele>
        <time>2021-05-30T08:16:44.000Z</time>
      </trkpt>
      <trkpt lat="47.81037" lon="7.03566">
        <ele>863</ele>
        <time>2021-05-30T08:16:45.000Z</time>
      </trkpt>
      <trkpt lat="47.81035" lon="7.03569">
        <ele>863.59997558594</ele>
        <time>2021-05-30T08:16:46.000Z</time>
      </trkpt>
      <trkpt lat="47.81029" lon="7.03582">
        <ele>863.59997558594</ele>
        <time>2021-05-30T08:16:49.000Z</time>
      </trkpt>
      <trkpt lat="47.81018" lon="7.03608">
        <ele>863.59997558594</ele>
        <time>2021-05-30T08:16:55.000Z</time>
      </trkpt>
      <trkpt lat="47.81015" lon="7.03616">
        <ele>864</ele>
        <time>2021-05-30T08:16:58.000Z</time>
      </trkpt>
      <trkpt lat="47.81014" lon="7.03618">
        <ele>864.40002441406</ele>
        <time>2021-05-30T08:16:59.000Z</time>
      </trkpt>
      <trkpt lat="47.81013" lon="7.03619">
        <ele>864.79998779297</ele>
        <time>2021-05-30T08:17:00.000Z</time>
      </trkpt>
      <trkpt lat="47.81011" lon="7.03621">
        <ele>865.79998779297</ele>
        <time>2021-05-30T08:17:01.000Z</time>
      </trkpt>
      <trkpt lat="47.81005" lon="7.03632">
        <ele>865.79998779297</ele>
        <time>2021-05-30T08:17:04.000Z</time>
      </trkpt>
      <trkpt lat="47.81002" lon="7.03636">
        <ele>865.79998779297</ele>
        <time>2021-05-30T08:17:07.000Z</time>
      </trkpt>
      <trkpt lat="47.81" lon="7.03637">
        <ele>865.79998779297</ele>
        <time>2021-05-30T08:17:15.000Z</time>
      </trkpt>
      <trkpt lat="47.80999" lon="7.03638">
        <ele>865.79998779297</ele>
        <time>2021-05-30T08:17:17.000Z</time>
      </trkpt>
      <trkpt lat="47.80994" lon="7.03644">
        <ele>863.40002441406</ele>
        <time>2021-05-30T08:17:29.000Z</time>
      </trkpt>
      <trkpt lat="47.80993" lon="7.03645">
        <ele>863.40002441406</ele>
        <time>2021-05-30T08:17:31.000Z</time>
      </trkpt>
      <trkpt lat="47.80988" lon="7.03649">
        <ele>863.40002441406</ele>
        <time>2021-05-30T08:20:15.000Z</time>
      </trkpt>
      <trkpt lat="47.80986" lon="7.0365">
        <ele>863.40002441406</ele>
        <time>2021-05-30T08:20:16.000Z</time>
      </trkpt>
      <trkpt lat="47.80975" lon="7.03655">
        <ele>862.79998779297</ele>
        <time>2021-05-30T08:20:19.000Z</time>
      </trkpt>
      <trkpt lat="47.8097" lon="7.03656">
        <ele>862.20001220703</ele>
        <time>2021-05-30T08:20:20.000Z</time>
      </trkpt>
      <trkpt lat="47.80967" lon="7.03657">
        <ele>861.59997558594</ele>
        <time>2021-05-30T08:20:21.000Z</time>
      </trkpt>
      <trkpt lat="47.80964" lon="7.0366">
        <ele>860.79998779297</ele>
        <time>2021-05-30T08:20:22.000Z</time>
      </trkpt>
      <trkpt lat="47.80962" lon="7.03662">
        <ele>860</ele>
        <time>2021-05-30T08:20:23.000Z</time>
      </trkpt>
      <trkpt lat="47.8096" lon="7.03665">
        <ele>859.20001220703</ele>
        <time>2021-05-30T08:20:24.000Z</time>
      </trkpt>
      <trkpt lat="47.80958" lon="7.03668">
        <ele>858.40002441406</ele>
        <time>2021-05-30T08:20:25.000Z</time>
      </trkpt>
      <trkpt lat="47.80955" lon="7.03673">
        <ele>857.59997558594</ele>
        <time>2021-05-30T08:20:26.000Z</time>
      </trkpt>
      <trkpt lat="47.80952" lon="7.03677">
        <ele>856.79998779297</ele>
        <time>2021-05-30T08:20:27.000Z</time>
      </trkpt>
      <trkpt lat="47.80949" lon="7.0368">
        <ele>855.79998779297</ele>
        <time>2021-05-30T08:20:28.000Z</time>
      </trkpt>
      <trkpt lat="47.80945" lon="7.03681">
        <ele>855</ele>
        <time>2021-05-30T08:20:29.000Z</time>
      </trkpt>
      <trkpt lat="47.80941" lon="7.03682">
        <ele>854</ele>
        <time>2021-05-30T08:20:30.000Z</time>
      </trkpt>
      <trkpt lat="47.80939" lon="7.03683">
        <ele>853.20001220703</ele>
        <time>2021-05-30T08:20:31.000Z</time>
      </trkpt>
      <trkpt lat="47.80937" lon="7.03684">
        <ele>852.20001220703</ele>
        <time>2021-05-30T08:20:32.000Z</time>
      </trkpt>
      <trkpt lat="47.80934" lon="7.03686">
        <ele>851</ele>
        <time>2021-05-30T08:20:33.000Z</time>
      </trkpt>
      <trkpt lat="47.80931" lon="7.03688">
        <ele>850</ele>
        <time>2021-05-30T08:20:34.000Z</time>
      </trkpt>
      <trkpt lat="47.80928" lon="7.03692">
        <ele>849</ele>
        <time>2021-05-30T08:20:35.000Z</time>
      </trkpt>
      <trkpt lat="47.80925" lon="7.03697">
        <ele>848.20001220703</ele>
        <time>2021-05-30T08:20:36.000Z</time>
      </trkpt>
      <trkpt lat="47.8092" lon="7.03703">
        <ele>846.79998779297</ele>
        <time>2021-05-30T08:20:37.000Z</time>
      </trkpt>
      <trkpt lat="47.80914" lon="7.03707">
        <ele>845.59997558594</ele>
        <time>2021-05-30T08:20:38.000Z</time>
      </trkpt>
      <trkpt lat="47.80908" lon="7.03712">
        <ele>844.20001220703</ele>
        <time>2021-05-30T08:20:39.000Z</time>
      </trkpt>
      <trkpt lat="47.80901" lon="7.03717">
        <ele>843</ele>
        <time>2021-05-30T08:20:40.000Z</time>
      </trkpt>
      <trkpt lat="47.80895" lon="7.03722">
        <ele>841.59997558594</ele>
        <time>2021-05-30T08:20:41.000Z</time>
      </trkpt>
      <trkpt lat="47.80887" lon="7.03727">
        <ele>840.40002441406</ele>
        <time>2021-05-30T08:20:42.000Z</time>
      </trkpt>
      <trkpt lat="47.80878" lon="7.0373">
        <ele>837.59997558594</ele>
        <time>2021-05-30T08:20:43.000Z</time>
      </trkpt>
      <trkpt lat="47.80872" lon="7.03733">
        <ele>836.40002441406</ele>
        <time>2021-05-30T08:20:44.000Z</time>
      </trkpt>
      <trkpt lat="47.80867" lon="7.03736">
        <ele>835</ele>
        <time>2021-05-30T08:20:45.000Z</time>
      </trkpt>
      <trkpt lat="47.80864" lon="7.0374">
        <ele>833.59997558594</ele>
        <time>2021-05-30T08:20:46.000Z</time>
      </trkpt>
      <trkpt lat="47.80861" lon="7.03744">
        <ele>832.40002441406</ele>
        <time>2021-05-30T08:20:47.000Z</time>
      </trkpt>
      <trkpt lat="47.80858" lon="7.03747">
        <ele>831</ele>
        <time>2021-05-30T08:20:48.000Z</time>
      </trkpt>
      <trkpt lat="47.80855" lon="7.0375">
        <ele>831</ele>
        <time>2021-05-30T08:20:49.000Z</time>
      </trkpt>
      <trkpt lat="47.80851" lon="7.03756">
        <ele>831</ele>
        <time>2021-05-30T08:20:51.000Z</time>
      </trkpt>
      <trkpt lat="47.80842" lon="7.03771">
        <ele>831</ele>
        <time>2021-05-30T08:20:54.000Z</time>
      </trkpt>
      <trkpt lat="47.80838" lon="7.03776">
        <ele>831</ele>
        <time>2021-05-30T08:20:55.000Z</time>
      </trkpt>
      <trkpt lat="47.80834" lon="7.03781">
        <ele>831</ele>
        <time>2021-05-30T08:20:58.000Z</time>
      </trkpt>
      <trkpt lat="47.80834" lon="7.03782">
        <ele>831</ele>
        <time>2021-05-30T08:20:59.000Z</time>
      </trkpt>
      <trkpt lat="47.8083" lon="7.03787">
        <ele>831</ele>
        <time>2021-05-30T08:21:44.000Z</time>
      </trkpt>
      <trkpt lat="47.80826" lon="7.03791">
        <ele>831</ele>
        <time>2021-05-30T08:21:46.000Z</time>
      </trkpt>
      <trkpt lat="47.80812" lon="7.038">
        <ele>831</ele>
        <time>2021-05-30T08:21:52.000Z</time>
      </trkpt>
      <trkpt lat="47.80807" lon="7.03805">
        <ele>831.59997558594</ele>
        <time>2021-05-30T08:21:54.000Z</time>
      </trkpt>
      <trkpt lat="47.80805" lon="7.03807">
        <ele>832</ele>
        <time>2021-05-30T08:21:55.000Z</time>
      </trkpt>
      <trkpt lat="47.80803" lon="7.0381">
        <ele>832.40002441406</ele>
        <time>2021-05-30T08:21:56.000Z</time>
      </trkpt>
      <trkpt lat="47.80801" lon="7.03812">
        <ele>833.40002441406</ele>
        <time>2021-05-30T08:21:57.000Z</time>
      </trkpt>
      <trkpt lat="47.80799" lon="7.03813">
        <ele>833.79998779297</ele>
        <time>2021-05-30T08:21:58.000Z</time>
      </trkpt>
      <trkpt lat="47.80796" lon="7.03814">
        <ele>834.40002441406</ele>
        <time>2021-05-30T08:21:59.000Z</time>
      </trkpt>
      <trkpt lat="47.80794" lon="7.03815">
        <ele>834.79998779297</ele>
        <time>2021-05-30T08:22:00.000Z</time>
      </trkpt>
      <trkpt lat="47.80792" lon="7.03816">
        <ele>835.20001220703</ele>
        <time>2021-05-30T08:22:01.000Z</time>
      </trkpt>
      <trkpt lat="47.80791" lon="7.03816">
        <ele>835.79998779297</ele>
        <time>2021-05-30T08:22:02.000Z</time>
      </trkpt>
      <trkpt lat="47.80789" lon="7.03817">
        <ele>836.40002441406</ele>
        <time>2021-05-30T08:22:03.000Z</time>
      </trkpt>
      <trkpt lat="47.80788" lon="7.03819">
        <ele>837</ele>
        <time>2021-05-30T08:22:04.000Z</time>
      </trkpt>
      <trkpt lat="47.80787" lon="7.03821">
        <ele>837.59997558594</ele>
        <time>2021-05-30T08:22:05.000Z</time>
      </trkpt>
      <trkpt lat="47.80785" lon="7.03822">
        <ele>838.20001220703</ele>
        <time>2021-05-30T08:22:06.000Z</time>
      </trkpt>
      <trkpt lat="47.80784" lon="7.03824">
        <ele>838.20001220703</ele>
        <time>2021-05-30T08:22:07.000Z</time>
      </trkpt>
      <trkpt lat="47.80782" lon="7.03829">
        <ele>838.20001220703</ele>
        <time>2021-05-30T08:22:09.000Z</time>
      </trkpt>
      <trkpt lat="47.80781" lon="7.03831">
        <ele>838.59997558594</ele>
        <time>2021-05-30T08:22:10.000Z</time>
      </trkpt>
      <trkpt lat="47.80779" lon="7.03833">
        <ele>839</ele>
        <time>2021-05-30T08:22:11.000Z</time>
      </trkpt>
      <trkpt lat="47.80777" lon="7.03835">
        <ele>839.40002441406</ele>
        <time>2021-05-30T08:22:12.000Z</time>
      </trkpt>
      <trkpt lat="47.80776" lon="7.03837">
        <ele>840</ele>
        <time>2021-05-30T08:22:13.000Z</time>
      </trkpt>
      <trkpt lat="47.80775" lon="7.0384">
        <ele>840.40002441406</ele>
        <time>2021-05-30T08:22:14.000Z</time>
      </trkpt>
      <trkpt lat="47.80774" lon="7.03841">
        <ele>840.40002441406</ele>
        <time>2021-05-30T08:22:15.000Z</time>
      </trkpt>
      <trkpt lat="47.80772" lon="7.03843">
        <ele>840.40002441406</ele>
        <time>2021-05-30T08:22:16.000Z</time>
      </trkpt>
      <trkpt lat="47.80766" lon="7.03855">
        <ele>840.40002441406</ele>
        <time>2021-05-30T08:22:21.000Z</time>
      </trkpt>
      <trkpt lat="47.80752" lon="7.03866">
        <ele>840.40002441406</ele>
        <time>2021-05-30T08:22:26.000Z</time>
      </trkpt>
      <trkpt lat="47.8075" lon="7.03869">
        <ele>840.79998779297</ele>
        <time>2021-05-30T08:22:27.000Z</time>
      </trkpt>
      <trkpt lat="47.80748" lon="7.03872">
        <ele>841.20001220703</ele>
        <time>2021-05-30T08:22:28.000Z</time>
      </trkpt>
      <trkpt lat="47.80746" lon="7.03875">
        <ele>841.59997558594</ele>
        <time>2021-05-30T08:22:29.000Z</time>
      </trkpt>
      <trkpt lat="47.80743" lon="7.03877">
        <ele>842</ele>
        <time>2021-05-30T08:22:30.000Z</time>
      </trkpt>
      <trkpt lat="47.80741" lon="7.0388">
        <ele>842.40002441406</ele>
        <time>2021-05-30T08:22:31.000Z</time>
      </trkpt>
      <trkpt lat="47.80736" lon="7.0389">
        <ele>842.40002441406</ele>
        <time>2021-05-30T08:22:35.000Z</time>
      </trkpt>
      <trkpt lat="47.80732" lon="7.03895">
        <ele>842.79998779297</ele>
        <time>2021-05-30T08:22:38.000Z</time>
      </trkpt>
      <trkpt lat="47.80732" lon="7.03897">
        <ele>843.20001220703</ele>
        <time>2021-05-30T08:22:39.000Z</time>
      </trkpt>
      <trkpt lat="47.80731" lon="7.039">
        <ele>843.59997558594</ele>
        <time>2021-05-30T08:22:40.000Z</time>
      </trkpt>
      <trkpt lat="47.8073" lon="7.03902">
        <ele>844</ele>
        <time>2021-05-30T08:22:41.000Z</time>
      </trkpt>
      <trkpt lat="47.8073" lon="7.03904">
        <ele>844.40002441406</ele>
        <time>2021-05-30T08:22:42.000Z</time>
      </trkpt>
      <trkpt lat="47.80728" lon="7.03913">
        <ele>844.40002441406</ele>
        <time>2021-05-30T08:22:45.000Z</time>
      </trkpt>
      <trkpt lat="47.80726" lon="7.03927">
        <ele>844</ele>
        <time>2021-05-30T08:22:48.000Z</time>
      </trkpt>
      <trkpt lat="47.80726" lon="7.0393">
        <ele>843.59997558594</ele>
        <time>2021-05-30T08:22:49.000Z</time>
      </trkpt>
      <trkpt lat="47.80726" lon="7.03933">
        <ele>843.20001220703</ele>
        <time>2021-05-30T08:22:50.000Z</time>
      </trkpt>
      <trkpt lat="47.80725" lon="7.03935">
        <ele>842.79998779297</ele>
        <time>2021-05-30T08:22:51.000Z</time>
      </trkpt>
      <trkpt lat="47.80726" lon="7.03936">
        <ele>842.40002441406</ele>
        <time>2021-05-30T08:22:52.000Z</time>
      </trkpt>
      <trkpt lat="47.80725" lon="7.03939">
        <ele>841.79998779297</ele>
        <time>2021-05-30T08:22:54.000Z</time>
      </trkpt>
      <trkpt lat="47.80724" lon="7.03941">
        <ele>841.40002441406</ele>
        <time>2021-05-30T08:22:55.000Z</time>
      </trkpt>
      <trkpt lat="47.80723" lon="7.03944">
        <ele>841</ele>
        <time>2021-05-30T08:22:56.000Z</time>
      </trkpt>
      <trkpt lat="47.80723" lon="7.03946">
        <ele>840.59997558594</ele>
        <time>2021-05-30T08:22:57.000Z</time>
      </trkpt>
      <trkpt lat="47.80722" lon="7.03947">
        <ele>840.20001220703</ele>
        <time>2021-05-30T08:22:58.000Z</time>
      </trkpt>
      <trkpt lat="47.80721" lon="7.03948">
        <ele>839.79998779297</ele>
        <time>2021-05-30T08:22:59.000Z</time>
      </trkpt>
      <trkpt lat="47.80719" lon="7.03949">
        <ele>839.40002441406</ele>
        <time>2021-05-30T08:23:00.000Z</time>
      </trkpt>
      <trkpt lat="47.80719" lon="7.03951">
        <ele>838.79998779297</ele>
        <time>2021-05-30T08:23:01.000Z</time>
      </trkpt>
      <trkpt lat="47.80718" lon="7.03953">
        <ele>838.40002441406</ele>
        <time>2021-05-30T08:23:02.000Z</time>
      </trkpt>
      <trkpt lat="47.80718" lon="7.03953">
        <ele>838</ele>
        <time>2021-05-30T08:23:03.000Z</time>
      </trkpt>
      <trkpt lat="47.80719" lon="7.03955">
        <ele>837.59997558594</ele>
        <time>2021-05-30T08:23:04.000Z</time>
      </trkpt>
      <trkpt lat="47.80719" lon="7.03956">
        <ele>837.20001220703</ele>
        <time>2021-05-30T08:23:05.000Z</time>
      </trkpt>
      <trkpt lat="47.80719" lon="7.03958">
        <ele>836.59997558594</ele>
        <time>2021-05-30T08:23:06.000Z</time>
      </trkpt>
      <trkpt lat="47.80717" lon="7.0396">
        <ele>836.20001220703</ele>
        <time>2021-05-30T08:23:07.000Z</time>
      </trkpt>
      <trkpt lat="47.80715" lon="7.03961">
        <ele>835.79998779297</ele>
        <time>2021-05-30T08:23:08.000Z</time>
      </trkpt>
      <trkpt lat="47.80711" lon="7.03964">
        <ele>835.20001220703</ele>
        <time>2021-05-30T08:23:09.000Z</time>
      </trkpt>
      <trkpt lat="47.80708" lon="7.03966">
        <ele>834.79998779297</ele>
        <time>2021-05-30T08:23:10.000Z</time>
      </trkpt>
      <trkpt lat="47.80707" lon="7.0397">
        <ele>833.20001220703</ele>
        <time>2021-05-30T08:23:11.000Z</time>
      </trkpt>
      <trkpt lat="47.80707" lon="7.03973">
        <ele>832.40002441406</ele>
        <time>2021-05-30T08:23:12.000Z</time>
      </trkpt>
      <trkpt lat="47.80708" lon="7.03977">
        <ele>831.79998779297</ele>
        <time>2021-05-30T08:23:13.000Z</time>
      </trkpt>
      <trkpt lat="47.80708" lon="7.03982">
        <ele>831</ele>
        <time>2021-05-30T08:23:14.000Z</time>
      </trkpt>
      <trkpt lat="47.80707" lon="7.03986">
        <ele>830.40002441406</ele>
        <time>2021-05-30T08:23:15.000Z</time>
      </trkpt>
      <trkpt lat="47.80707" lon="7.0399">
        <ele>829.59997558594</ele>
        <time>2021-05-30T08:23:16.000Z</time>
      </trkpt>
      <trkpt lat="47.80707" lon="7.03995">
        <ele>828.79998779297</ele>
        <time>2021-05-30T08:23:17.000Z</time>
      </trkpt>
      <trkpt lat="47.80706" lon="7.04">
        <ele>828.40002441406</ele>
        <time>2021-05-30T08:23:18.000Z</time>
      </trkpt>
      <trkpt lat="47.80706" lon="7.04005">
        <ele>827.79998779297</ele>
        <time>2021-05-30T08:23:19.000Z</time>
      </trkpt>
      <trkpt lat="47.80704" lon="7.04009">
        <ele>827.40002441406</ele>
        <time>2021-05-30T08:23:20.000Z</time>
      </trkpt>
      <trkpt lat="47.80702" lon="7.04012">
        <ele>826.79998779297</ele>
        <time>2021-05-30T08:23:21.000Z</time>
      </trkpt>
      <trkpt lat="47.80701" lon="7.04015">
        <ele>826</ele>
        <time>2021-05-30T08:23:22.000Z</time>
      </trkpt>
      <trkpt lat="47.80701" lon="7.04019">
        <ele>825.40002441406</ele>
        <time>2021-05-30T08:23:23.000Z</time>
      </trkpt>
      <trkpt lat="47.80703" lon="7.04024">
        <ele>824.59997558594</ele>
        <time>2021-05-30T08:23:24.000Z</time>
      </trkpt>
      <trkpt lat="47.80703" lon="7.04028">
        <ele>823.59997558594</ele>
        <time>2021-05-30T08:23:25.000Z</time>
      </trkpt>
      <trkpt lat="47.80703" lon="7.04032">
        <ele>822.79998779297</ele>
        <time>2021-05-30T08:23:26.000Z</time>
      </trkpt>
      <trkpt lat="47.80703" lon="7.04036">
        <ele>822</ele>
        <time>2021-05-30T08:23:27.000Z</time>
      </trkpt>
      <trkpt lat="47.80702" lon="7.04038">
        <ele>821.40002441406</ele>
        <time>2021-05-30T08:23:28.000Z</time>
      </trkpt>
      <trkpt lat="47.807" lon="7.0404">
        <ele>820.79998779297</ele>
        <time>2021-05-30T08:23:29.000Z</time>
      </trkpt>
      <trkpt lat="47.80698" lon="7.04041">
        <ele>820</ele>
        <time>2021-05-30T08:23:30.000Z</time>
      </trkpt>
      <trkpt lat="47.80696" lon="7.04043">
        <ele>819.40002441406</ele>
        <time>2021-05-30T08:23:31.000Z</time>
      </trkpt>
      <trkpt lat="47.80694" lon="7.04045">
        <ele>818.79998779297</ele>
        <time>2021-05-30T08:23:32.000Z</time>
      </trkpt>
      <trkpt lat="47.80693" lon="7.04047">
        <ele>818.20001220703</ele>
        <time>2021-05-30T08:23:33.000Z</time>
      </trkpt>
      <trkpt lat="47.80693" lon="7.0405">
        <ele>817.59997558594</ele>
        <time>2021-05-30T08:23:34.000Z</time>
      </trkpt>
      <trkpt lat="47.80692" lon="7.04052">
        <ele>816.79998779297</ele>
        <time>2021-05-30T08:23:35.000Z</time>
      </trkpt>
      <trkpt lat="47.80691" lon="7.04054">
        <ele>815.40002441406</ele>
        <time>2021-05-30T08:23:36.000Z</time>
      </trkpt>
      <trkpt lat="47.80691" lon="7.04056">
        <ele>814.59997558594</ele>
        <time>2021-05-30T08:23:37.000Z</time>
      </trkpt>
      <trkpt lat="47.8069" lon="7.04058">
        <ele>814</ele>
        <time>2021-05-30T08:23:38.000Z</time>
      </trkpt>
      <trkpt lat="47.8069" lon="7.0406">
        <ele>813.40002441406</ele>
        <time>2021-05-30T08:23:39.000Z</time>
      </trkpt>
      <trkpt lat="47.8069" lon="7.04063">
        <ele>812.79998779297</ele>
        <time>2021-05-30T08:23:40.000Z</time>
      </trkpt>
      <trkpt lat="47.8069" lon="7.04066">
        <ele>812.20001220703</ele>
        <time>2021-05-30T08:23:41.000Z</time>
      </trkpt>
      <trkpt lat="47.80688" lon="7.04068">
        <ele>811.59997558594</ele>
        <time>2021-05-30T08:23:42.000Z</time>
      </trkpt>
      <trkpt lat="47.80686" lon="7.04071">
        <ele>811</ele>
        <time>2021-05-30T08:23:43.000Z</time>
      </trkpt>
      <trkpt lat="47.80685" lon="7.04073">
        <ele>810.40002441406</ele>
        <time>2021-05-30T08:23:44.000Z</time>
      </trkpt>
      <trkpt lat="47.80684" lon="7.04076">
        <ele>809.59997558594</ele>
        <time>2021-05-30T08:23:45.000Z</time>
      </trkpt>
      <trkpt lat="47.80683" lon="7.0408">
        <ele>808.79998779297</ele>
        <time>2021-05-30T08:23:46.000Z</time>
      </trkpt>
      <trkpt lat="47.80682" lon="7.04084">
        <ele>808</ele>
        <time>2021-05-30T08:23:47.000Z</time>
      </trkpt>
      <trkpt lat="47.8068" lon="7.04087">
        <ele>807.20001220703</ele>
        <time>2021-05-30T08:23:48.000Z</time>
      </trkpt>
      <trkpt lat="47.80679" lon="7.0409">
        <ele>806.40002441406</ele>
        <time>2021-05-30T08:23:49.000Z</time>
      </trkpt>
      <trkpt lat="47.80677" lon="7.04094">
        <ele>805.40002441406</ele>
        <time>2021-05-30T08:23:50.000Z</time>
      </trkpt>
      <trkpt lat="47.80675" lon="7.04099">
        <ele>804.40002441406</ele>
        <time>2021-05-30T08:23:51.000Z</time>
      </trkpt>
      <trkpt lat="47.80674" lon="7.04102">
        <ele>803.40002441406</ele>
        <time>2021-05-30T08:23:52.000Z</time>
      </trkpt>
      <trkpt lat="47.80672" lon="7.04107">
        <ele>802.40002441406</ele>
        <time>2021-05-30T08:23:53.000Z</time>
      </trkpt>
      <trkpt lat="47.80671" lon="7.04113">
        <ele>801.20001220703</ele>
        <time>2021-05-30T08:23:54.000Z</time>
      </trkpt>
      <trkpt lat="47.8067" lon="7.04118">
        <ele>800</ele>
        <time>2021-05-30T08:23:55.000Z</time>
      </trkpt>
      <trkpt lat="47.80669" lon="7.04123">
        <ele>798.40002441406</ele>
        <time>2021-05-30T08:23:56.000Z</time>
      </trkpt>
      <trkpt lat="47.80668" lon="7.04126">
        <ele>797</ele>
        <time>2021-05-30T08:23:57.000Z</time>
      </trkpt>
      <trkpt lat="47.80668" lon="7.04128">
        <ele>795.40002441406</ele>
        <time>2021-05-30T08:23:58.000Z</time>
      </trkpt>
      <trkpt lat="47.80668" lon="7.0413">
        <ele>794</ele>
        <time>2021-05-30T08:23:59.000Z</time>
      </trkpt>
      <trkpt lat="47.80668" lon="7.04132">
        <ele>792.59997558594</ele>
        <time>2021-05-30T08:24:00.000Z</time>
      </trkpt>
      <trkpt lat="47.80668" lon="7.04134">
        <ele>790</ele>
        <time>2021-05-30T08:24:01.000Z</time>
      </trkpt>
      <trkpt lat="47.80668" lon="7.04139">
        <ele>789</ele>
        <time>2021-05-30T08:24:02.000Z</time>
      </trkpt>
      <trkpt lat="47.80667" lon="7.04144">
        <ele>788</ele>
        <time>2021-05-30T08:24:03.000Z</time>
      </trkpt>
      <trkpt lat="47.80667" lon="7.04148">
        <ele>787</ele>
        <time>2021-05-30T08:24:04.000Z</time>
      </trkpt>
      <trkpt lat="47.80667" lon="7.04153">
        <ele>786.20001220703</ele>
        <time>2021-05-30T08:24:05.000Z</time>
      </trkpt>
      <trkpt lat="47.80666" lon="7.0416">
        <ele>785.20001220703</ele>
        <time>2021-05-30T08:24:06.000Z</time>
      </trkpt>
      <trkpt lat="47.80665" lon="7.04167">
        <ele>784.20001220703</ele>
        <time>2021-05-30T08:24:07.000Z</time>
      </trkpt>
      <trkpt lat="47.80663" lon="7.04173">
        <ele>783.20001220703</ele>
        <time>2021-05-30T08:24:08.000Z</time>
      </trkpt>
      <trkpt lat="47.80662" lon="7.04179">
        <ele>782</ele>
        <time>2021-05-30T08:24:09.000Z</time>
      </trkpt>
      <trkpt lat="47.8066" lon="7.04184">
        <ele>780.79998779297</ele>
        <time>2021-05-30T08:24:10.000Z</time>
      </trkpt>
      <trkpt lat="47.80659" lon="7.04188">
        <ele>779.59997558594</ele>
        <time>2021-05-30T08:24:11.000Z</time>
      </trkpt>
      <trkpt lat="47.80656" lon="7.04192">
        <ele>778.20001220703</ele>
        <time>2021-05-30T08:24:12.000Z</time>
      </trkpt>
      <trkpt lat="47.80654" lon="7.04196">
        <ele>776.79998779297</ele>
        <time>2021-05-30T08:24:13.000Z</time>
      </trkpt>
      <trkpt lat="47.80651" lon="7.042">
        <ele>775.40002441406</ele>
        <time>2021-05-30T08:24:14.000Z</time>
      </trkpt>
      <trkpt lat="47.80649" lon="7.04203">
        <ele>774</ele>
        <time>2021-05-30T08:24:15.000Z</time>
      </trkpt>
      <trkpt lat="47.80647" lon="7.04208">
        <ele>772.59997558594</ele>
        <time>2021-05-30T08:24:16.000Z</time>
      </trkpt>
      <trkpt lat="47.80646" lon="7.04212">
        <ele>771.20001220703</ele>
        <time>2021-05-30T08:24:17.000Z</time>
      </trkpt>
      <trkpt lat="47.80645" lon="7.04216">
        <ele>769.79998779297</ele>
        <time>2021-05-30T08:24:18.000Z</time>
      </trkpt>
      <trkpt lat="47.80644" lon="7.04219">
        <ele>768.40002441406</ele>
        <time>2021-05-30T08:24:19.000Z</time>
      </trkpt>
      <trkpt lat="47.80643" lon="7.04221">
        <ele>767</ele>
        <time>2021-05-30T08:24:20.000Z</time>
      </trkpt>
      <trkpt lat="47.80642" lon="7.04221">
        <ele>765.59997558594</ele>
        <time>2021-05-30T08:24:21.000Z</time>
      </trkpt>
      <trkpt lat="47.80641" lon="7.04221">
        <ele>764.20001220703</ele>
        <time>2021-05-30T08:24:22.000Z</time>
      </trkpt>
      <trkpt lat="47.80641" lon="7.04221">
        <ele>762.79998779297</ele>
        <time>2021-05-30T08:24:23.000Z</time>
      </trkpt>
      <trkpt lat="47.8064" lon="7.04221">
        <ele>762</ele>
        <time>2021-05-30T08:24:24.000Z</time>
      </trkpt>
      <trkpt lat="47.8064" lon="7.0423">
        <ele>758</ele>
        <time>2021-05-30T08:24:58.000Z</time>
      </trkpt>
      <trkpt lat="47.80641" lon="7.04236">
        <ele>757.59997558594</ele>
        <time>2021-05-30T08:24:59.000Z</time>
      </trkpt>
      <trkpt lat="47.80642" lon="7.04239">
        <ele>757.20001220703</ele>
        <time>2021-05-30T08:25:00.000Z</time>
      </trkpt>
      <trkpt lat="47.80644" lon="7.04243">
        <ele>756.79998779297</ele>
        <time>2021-05-30T08:25:01.000Z</time>
      </trkpt>
      <trkpt lat="47.80648" lon="7.04245">
        <ele>756.20001220703</ele>
        <time>2021-05-30T08:25:02.000Z</time>
      </trkpt>
      <trkpt lat="47.80651" lon="7.04247">
        <ele>755.40002441406</ele>
        <time>2021-05-30T08:25:03.000Z</time>
      </trkpt>
      <trkpt lat="47.80652" lon="7.04251">
        <ele>754.79998779297</ele>
        <time>2021-05-30T08:25:04.000Z</time>
      </trkpt>
      <trkpt lat="47.80652" lon="7.04255">
        <ele>754.20001220703</ele>
        <time>2021-05-30T08:25:05.000Z</time>
      </trkpt>
      <trkpt lat="47.80651" lon="7.04257">
        <ele>753.59997558594</ele>
        <time>2021-05-30T08:25:06.000Z</time>
      </trkpt>
      <trkpt lat="47.8065" lon="7.04259">
        <ele>753.59997558594</ele>
        <time>2021-05-30T08:25:08.000Z</time>
      </trkpt>
      <trkpt lat="47.8065" lon="7.04259">
        <ele>753.59997558594</ele>
        <time>2021-05-30T08:25:09.000Z</time>
      </trkpt>
      <trkpt lat="47.8065" lon="7.04261">
        <ele>753.59997558594</ele>
        <time>2021-05-30T08:26:08.000Z</time>
      </trkpt>
      <trkpt lat="47.80652" lon="7.04267">
        <ele>753.59997558594</ele>
        <time>2021-05-30T08:26:10.000Z</time>
      </trkpt>
      <trkpt lat="47.80658" lon="7.04283">
        <ele>753.20001220703</ele>
        <time>2021-05-30T08:26:13.000Z</time>
      </trkpt>
      <trkpt lat="47.8066" lon="7.04289">
        <ele>752.59997558594</ele>
        <time>2021-05-30T08:26:14.000Z</time>
      </trkpt>
      <trkpt lat="47.80661" lon="7.04295">
        <ele>752.20001220703</ele>
        <time>2021-05-30T08:26:15.000Z</time>
      </trkpt>
      <trkpt lat="47.80662" lon="7.04298">
        <ele>751.79998779297</ele>
        <time>2021-05-30T08:26:16.000Z</time>
      </trkpt>
      <trkpt lat="47.80664" lon="7.04303">
        <ele>751.40002441406</ele>
        <time>2021-05-30T08:26:17.000Z</time>
      </trkpt>
      <trkpt lat="47.80672" lon="7.04325">
        <ele>752</ele>
        <time>2021-05-30T08:26:22.000Z</time>
      </trkpt>
      <trkpt lat="47.80673" lon="7.0433">
        <ele>752.40002441406</ele>
        <time>2021-05-30T08:26:23.000Z</time>
      </trkpt>
      <trkpt lat="47.80673" lon="7.04335">
        <ele>752.79998779297</ele>
        <time>2021-05-30T08:26:24.000Z</time>
      </trkpt>
      <trkpt lat="47.80674" lon="7.04339">
        <ele>753.20001220703</ele>
        <time>2021-05-30T08:26:25.000Z</time>
      </trkpt>
      <trkpt lat="47.80674" lon="7.04344">
        <ele>753.79998779297</ele>
        <time>2021-05-30T08:26:26.000Z</time>
      </trkpt>
      <trkpt lat="47.80675" lon="7.04348">
        <ele>754.40002441406</ele>
        <time>2021-05-30T08:26:27.000Z</time>
      </trkpt>
      <trkpt lat="47.80675" lon="7.04352">
        <ele>754.79998779297</ele>
        <time>2021-05-30T08:26:28.000Z</time>
      </trkpt>
      <trkpt lat="47.80676" lon="7.04356">
        <ele>756</ele>
        <time>2021-05-30T08:26:29.000Z</time>
      </trkpt>
      <trkpt lat="47.80677" lon="7.04359">
        <ele>756.40002441406</ele>
        <time>2021-05-30T08:26:30.000Z</time>
      </trkpt>
      <trkpt lat="47.80678" lon="7.04362">
        <ele>757</ele>
        <time>2021-05-30T08:26:31.000Z</time>
      </trkpt>
      <trkpt lat="47.80679" lon="7.04365">
        <ele>757.59997558594</ele>
        <time>2021-05-30T08:26:32.000Z</time>
      </trkpt>
      <trkpt lat="47.80681" lon="7.04369">
        <ele>758.20001220703</ele>
        <time>2021-05-30T08:26:33.000Z</time>
      </trkpt>
      <trkpt lat="47.80682" lon="7.04371">
        <ele>758.59997558594</ele>
        <time>2021-05-30T08:26:34.000Z</time>
      </trkpt>
      <trkpt lat="47.80683" lon="7.04373">
        <ele>759.20001220703</ele>
        <time>2021-05-30T08:26:35.000Z</time>
      </trkpt>
      <trkpt lat="47.80685" lon="7.04374">
        <ele>759.79998779297</ele>
        <time>2021-05-30T08:26:36.000Z</time>
      </trkpt>
      <trkpt lat="47.80686" lon="7.04377">
        <ele>760.20001220703</ele>
        <time>2021-05-30T08:26:37.000Z</time>
      </trkpt>
      <trkpt lat="47.80688" lon="7.04381">
        <ele>760.79998779297</ele>
        <time>2021-05-30T08:26:38.000Z</time>
      </trkpt>
      <trkpt lat="47.80691" lon="7.04388">
        <ele>760.79998779297</ele>
        <time>2021-05-30T08:26:40.000Z</time>
      </trkpt>
      <trkpt lat="47.80694" lon="7.04397">
        <ele>760.79998779297</ele>
        <time>2021-05-30T08:26:43.000Z</time>
      </trkpt>
      <trkpt lat="47.80698" lon="7.04406">
        <ele>760.79998779297</ele>
        <time>2021-05-30T08:26:45.000Z</time>
      </trkpt>
      <trkpt lat="47.80704" lon="7.04426">
        <ele>760.79998779297</ele>
        <time>2021-05-30T08:26:50.000Z</time>
      </trkpt>
      <trkpt lat="47.80705" lon="7.04435">
        <ele>760.79998779297</ele>
        <time>2021-05-30T08:26:52.000Z</time>
      </trkpt>
      <trkpt lat="47.80709" lon="7.04448">
        <ele>760.79998779297</ele>
        <time>2021-05-30T08:26:55.000Z</time>
      </trkpt>
      <trkpt lat="47.80713" lon="7.04459">
        <ele>760.79998779297</ele>
        <time>2021-05-30T08:26:57.000Z</time>
      </trkpt>
      <trkpt lat="47.80715" lon="7.04463">
        <ele>760.40002441406</ele>
        <time>2021-05-30T08:26:58.000Z</time>
      </trkpt>
      <trkpt lat="47.80716" lon="7.04468">
        <ele>759.79998779297</ele>
        <time>2021-05-30T08:26:59.000Z</time>
      </trkpt>
      <trkpt lat="47.80718" lon="7.04472">
        <ele>759.40002441406</ele>
        <time>2021-05-30T08:27:00.000Z</time>
      </trkpt>
      <trkpt lat="47.80719" lon="7.04476">
        <ele>758.79998779297</ele>
        <time>2021-05-30T08:27:01.000Z</time>
      </trkpt>
      <trkpt lat="47.8072" lon="7.0448">
        <ele>758.40002441406</ele>
        <time>2021-05-30T08:27:02.000Z</time>
      </trkpt>
      <trkpt lat="47.8072" lon="7.04489">
        <ele>758.40002441406</ele>
        <time>2021-05-30T08:27:04.000Z</time>
      </trkpt>
      <trkpt lat="47.8072" lon="7.04492">
        <ele>759</ele>
        <time>2021-05-30T08:27:06.000Z</time>
      </trkpt>
      <trkpt lat="47.8072" lon="7.04493">
        <ele>759.40002441406</ele>
        <time>2021-05-30T08:27:07.000Z</time>
      </trkpt>
      <trkpt lat="47.8072" lon="7.04494">
        <ele>760</ele>
        <time>2021-05-30T08:27:08.000Z</time>
      </trkpt>
      <trkpt lat="47.80721" lon="7.04496">
        <ele>760.40002441406</ele>
        <time>2021-05-30T08:27:09.000Z</time>
      </trkpt>
      <trkpt lat="47.80721" lon="7.04498">
        <ele>761</ele>
        <time>2021-05-30T08:27:10.000Z</time>
      </trkpt>
      <trkpt lat="47.80723" lon="7.04505">
        <ele>761</ele>
        <time>2021-05-30T08:27:13.000Z</time>
      </trkpt>
      <trkpt lat="47.80725" lon="7.04512">
        <ele>761.40002441406</ele>
        <time>2021-05-30T08:27:16.000Z</time>
      </trkpt>
      <trkpt lat="47.80726" lon="7.04514">
        <ele>761.79998779297</ele>
        <time>2021-05-30T08:27:17.000Z</time>
      </trkpt>
      <trkpt lat="47.80727" lon="7.04516">
        <ele>762.20001220703</ele>
        <time>2021-05-30T08:27:18.000Z</time>
      </trkpt>
      <trkpt lat="47.80728" lon="7.04518">
        <ele>763</ele>
        <time>2021-05-30T08:27:19.000Z</time>
      </trkpt>
      <trkpt lat="47.80729" lon="7.04518">
        <ele>763</ele>
        <time>2021-05-30T08:27:20.000Z</time>
      </trkpt>
      <trkpt lat="47.80732" lon="7.04528">
        <ele>765</ele>
        <time>2021-05-30T08:28:04.000Z</time>
      </trkpt>
      <trkpt lat="47.80734" lon="7.04531">
        <ele>765</ele>
        <time>2021-05-30T08:28:05.000Z</time>
      </trkpt>
      <trkpt lat="47.80736" lon="7.04536">
        <ele>765</ele>
        <time>2021-05-30T08:28:06.000Z</time>
      </trkpt>
      <trkpt lat="47.80739" lon="7.04549">
        <ele>765.59997558594</ele>
        <time>2021-05-30T08:28:10.000Z</time>
      </trkpt>
      <trkpt lat="47.8074" lon="7.04551">
        <ele>766</ele>
        <time>2021-05-30T08:28:11.000Z</time>
      </trkpt>
      <trkpt lat="47.80741" lon="7.04555">
        <ele>766.40002441406</ele>
        <time>2021-05-30T08:28:12.000Z</time>
      </trkpt>
      <trkpt lat="47.80742" lon="7.04558">
        <ele>767</ele>
        <time>2021-05-30T08:28:13.000Z</time>
      </trkpt>
      <trkpt lat="47.80742" lon="7.04562">
        <ele>767.40002441406</ele>
        <time>2021-05-30T08:28:14.000Z</time>
      </trkpt>
      <trkpt lat="47.80743" lon="7.04567">
        <ele>767.40002441406</ele>
        <time>2021-05-30T08:28:16.000Z</time>
      </trkpt>
      <trkpt lat="47.80743" lon="7.04569">
        <ele>767.79998779297</ele>
        <time>2021-05-30T08:28:17.000Z</time>
      </trkpt>
      <trkpt lat="47.80744" lon="7.04571">
        <ele>768.40002441406</ele>
        <time>2021-05-30T08:28:18.000Z</time>
      </trkpt>
      <trkpt lat="47.80744" lon="7.04576">
        <ele>768.79998779297</ele>
        <time>2021-05-30T08:28:19.000Z</time>
      </trkpt>
      <trkpt lat="47.80745" lon="7.0458">
        <ele>769.20001220703</ele>
        <time>2021-05-30T08:28:20.000Z</time>
      </trkpt>
      <trkpt lat="47.80744" lon="7.04583">
        <ele>769.59997558594</ele>
        <time>2021-05-30T08:28:21.000Z</time>
      </trkpt>
      <trkpt lat="47.80745" lon="7.04593">
        <ele>769.59997558594</ele>
        <time>2021-05-30T08:28:25.000Z</time>
      </trkpt>
      <trkpt lat="47.80744" lon="7.04593">
        <ele>769.59997558594</ele>
        <time>2021-05-30T08:28:26.000Z</time>
      </trkpt>
      <trkpt lat="47.80745" lon="7.04603">
        <ele>771.59997558594</ele>
        <time>2021-05-30T08:28:53.000Z</time>
      </trkpt>
      <trkpt lat="47.80742" lon="7.04609">
        <ele>771.59997558594</ele>
        <time>2021-05-30T08:28:55.000Z</time>
      </trkpt>
      <trkpt lat="47.80741" lon="7.04613">
        <ele>772.20001220703</ele>
        <time>2021-05-30T08:28:57.000Z</time>
      </trkpt>
      <trkpt lat="47.80741" lon="7.04615">
        <ele>773.20001220703</ele>
        <time>2021-05-30T08:28:58.000Z</time>
      </trkpt>
      <trkpt lat="47.80742" lon="7.04618">
        <ele>773.59997558594</ele>
        <time>2021-05-30T08:28:59.000Z</time>
      </trkpt>
      <trkpt lat="47.80743" lon="7.04619">
        <ele>774.20001220703</ele>
        <time>2021-05-30T08:29:00.000Z</time>
      </trkpt>
      <trkpt lat="47.80744" lon="7.0462">
        <ele>774.79998779297</ele>
        <time>2021-05-30T08:29:01.000Z</time>
      </trkpt>
      <trkpt lat="47.80745" lon="7.04621">
        <ele>775.40002441406</ele>
        <time>2021-05-30T08:29:02.000Z</time>
      </trkpt>
      <trkpt lat="47.80747" lon="7.04623">
        <ele>776</ele>
        <time>2021-05-30T08:29:03.000Z</time>
      </trkpt>
      <trkpt lat="47.80749" lon="7.04625">
        <ele>776.59997558594</ele>
        <time>2021-05-30T08:29:04.000Z</time>
      </trkpt>
      <trkpt lat="47.80751" lon="7.04627">
        <ele>777</ele>
        <time>2021-05-30T08:29:05.000Z</time>
      </trkpt>
      <trkpt lat="47.80755" lon="7.0463">
        <ele>777.59997558594</ele>
        <time>2021-05-30T08:29:06.000Z</time>
      </trkpt>
      <trkpt lat="47.80759" lon="7.04631">
        <ele>778.20001220703</ele>
        <time>2021-05-30T08:29:07.000Z</time>
      </trkpt>
      <trkpt lat="47.80761" lon="7.04632">
        <ele>778.79998779297</ele>
        <time>2021-05-30T08:29:08.000Z</time>
      </trkpt>
      <trkpt lat="47.80765" lon="7.04633">
        <ele>779.40002441406</ele>
        <time>2021-05-30T08:29:09.000Z</time>
      </trkpt>
      <trkpt lat="47.80767" lon="7.04635">
        <ele>780</ele>
        <time>2021-05-30T08:29:10.000Z</time>
      </trkpt>
      <trkpt lat="47.80769" lon="7.04636">
        <ele>780.59997558594</ele>
        <time>2021-05-30T08:29:11.000Z</time>
      </trkpt>
      <trkpt lat="47.80772" lon="7.04636">
        <ele>781.20001220703</ele>
        <time>2021-05-30T08:29:12.000Z</time>
      </trkpt>
      <trkpt lat="47.80774" lon="7.04635">
        <ele>781.59997558594</ele>
        <time>2021-05-30T08:29:13.000Z</time>
      </trkpt>
      <trkpt lat="47.80777" lon="7.04635">
        <ele>782.20001220703</ele>
        <time>2021-05-30T08:29:14.000Z</time>
      </trkpt>
      <trkpt lat="47.8078" lon="7.04635">
        <ele>782.79998779297</ele>
        <time>2021-05-30T08:29:15.000Z</time>
      </trkpt>
      <trkpt lat="47.80782" lon="7.04635">
        <ele>783.40002441406</ele>
        <time>2021-05-30T08:29:16.000Z</time>
      </trkpt>
      <trkpt lat="47.80785" lon="7.04634">
        <ele>783.79998779297</ele>
        <time>2021-05-30T08:29:17.000Z</time>
      </trkpt>
      <trkpt lat="47.80787" lon="7.04633">
        <ele>784.20001220703</ele>
        <time>2021-05-30T08:29:18.000Z</time>
      </trkpt>
      <trkpt lat="47.80787" lon="7.04634">
        <ele>784.79998779297</ele>
        <time>2021-05-30T08:29:19.000Z</time>
      </trkpt>
      <trkpt lat="47.80787" lon="7.04636">
        <ele>785.20001220703</ele>
        <time>2021-05-30T08:29:20.000Z</time>
      </trkpt>
      <trkpt lat="47.80788" lon="7.04638">
        <ele>785.79998779297</ele>
        <time>2021-05-30T08:29:21.000Z</time>
      </trkpt>
      <trkpt lat="47.80794" lon="7.04646">
        <ele>787.79998779297</ele>
        <time>2021-05-30T08:30:20.000Z</time>
      </trkpt>
      <trkpt lat="47.80796" lon="7.04654">
        <ele>787.79998779297</ele>
        <time>2021-05-30T08:30:22.000Z</time>
      </trkpt>
      <trkpt lat="47.80797" lon="7.04657">
        <ele>788.20001220703</ele>
        <time>2021-05-30T08:30:23.000Z</time>
      </trkpt>
      <trkpt lat="47.80798" lon="7.0466">
        <ele>788.59997558594</ele>
        <time>2021-05-30T08:30:24.000Z</time>
      </trkpt>
      <trkpt lat="47.80799" lon="7.04663">
        <ele>789</ele>
        <time>2021-05-30T08:30:25.000Z</time>
      </trkpt>
      <trkpt lat="47.808" lon="7.04665">
        <ele>789.40002441406</ele>
        <time>2021-05-30T08:30:26.000Z</time>
      </trkpt>
      <trkpt lat="47.80801" lon="7.04667">
        <ele>789.79998779297</ele>
        <time>2021-05-30T08:30:27.000Z</time>
      </trkpt>
      <trkpt lat="47.80802" lon="7.04669">
        <ele>789.79998779297</ele>
        <time>2021-05-30T08:30:28.000Z</time>
      </trkpt>
      <trkpt lat="47.80805" lon="7.04674">
        <ele>790.20001220703</ele>
        <time>2021-05-30T08:30:31.000Z</time>
      </trkpt>
      <trkpt lat="47.80806" lon="7.04675">
        <ele>790.59997558594</ele>
        <time>2021-05-30T08:30:32.000Z</time>
      </trkpt>
      <trkpt lat="47.80807" lon="7.04677">
        <ele>791</ele>
        <time>2021-05-30T08:30:33.000Z</time>
      </trkpt>
      <trkpt lat="47.80807" lon="7.04678">
        <ele>791.40002441406</ele>
        <time>2021-05-30T08:30:34.000Z</time>
      </trkpt>
      <trkpt lat="47.80799" lon="7.04684">
        <ele>794</ele>
        <time>2021-05-30T08:30:57.000Z</time>
      </trkpt>
      <trkpt lat="47.80797" lon="7.04683">
        <ele>794.40002441406</ele>
        <time>2021-05-30T08:30:58.000Z</time>
      </trkpt>
      <trkpt lat="47.80795" lon="7.04683">
        <ele>795</ele>
        <time>2021-05-30T08:30:59.000Z</time>
      </trkpt>
      <trkpt lat="47.80792" lon="7.04683">
        <ele>795.40002441406</ele>
        <time>2021-05-30T08:31:00.000Z</time>
      </trkpt>
      <trkpt lat="47.80791" lon="7.04683">
        <ele>796.20001220703</ele>
        <time>2021-05-30T08:31:01.000Z</time>
      </trkpt>
      <trkpt lat="47.80787" lon="7.04683">
        <ele>796.59997558594</ele>
        <time>2021-05-30T08:31:04.000Z</time>
      </trkpt>
      <trkpt lat="47.80786" lon="7.04684">
        <ele>797</ele>
        <time>2021-05-30T08:31:05.000Z</time>
      </trkpt>
      <trkpt lat="47.80786" lon="7.04685">
        <ele>797.40002441406</ele>
        <time>2021-05-30T08:31:06.000Z</time>
      </trkpt>
      <trkpt lat="47.80785" lon="7.04686">
        <ele>797.79998779297</ele>
        <time>2021-05-30T08:31:07.000Z</time>
      </trkpt>
      <trkpt lat="47.80786" lon="7.04685">
        <ele>798.40002441406</ele>
        <time>2021-05-30T08:31:08.000Z</time>
      </trkpt>
      <trkpt lat="47.80792" lon="7.04692">
        <ele>800.40002441406</ele>
        <time>2021-05-30T08:31:29.000Z</time>
      </trkpt>
      <trkpt lat="47.80803" lon="7.04702">
        <ele>800.40002441406</ele>
        <time>2021-05-30T08:31:34.000Z</time>
      </trkpt>
      <trkpt lat="47.8081" lon="7.04706">
        <ele>800.79998779297</ele>
        <time>2021-05-30T08:31:36.000Z</time>
      </trkpt>
      <trkpt lat="47.80812" lon="7.04709">
        <ele>801.20001220703</ele>
        <time>2021-05-30T08:31:37.000Z</time>
      </trkpt>
      <trkpt lat="47.80814" lon="7.04711">
        <ele>801.59997558594</ele>
        <time>2021-05-30T08:31:38.000Z</time>
      </trkpt>
      <trkpt lat="47.80816" lon="7.04714">
        <ele>802.20001220703</ele>
        <time>2021-05-30T08:31:39.000Z</time>
      </trkpt>
      <trkpt lat="47.80819" lon="7.04716">
        <ele>802.59997558594</ele>
        <time>2021-05-30T08:31:40.000Z</time>
      </trkpt>
      <trkpt lat="47.80825" lon="7.04719">
        <ele>803</ele>
        <time>2021-05-30T08:31:42.000Z</time>
      </trkpt>
      <trkpt lat="47.80828" lon="7.04719">
        <ele>803.40002441406</ele>
        <time>2021-05-30T08:31:43.000Z</time>
      </trkpt>
      <trkpt lat="47.80831" lon="7.0472">
        <ele>803.79998779297</ele>
        <time>2021-05-30T08:31:44.000Z</time>
      </trkpt>
      <trkpt lat="47.80833" lon="7.04721">
        <ele>804.40002441406</ele>
        <time>2021-05-30T08:31:45.000Z</time>
      </trkpt>
      <trkpt lat="47.80835" lon="7.04722">
        <ele>804.79998779297</ele>
        <time>2021-05-30T08:31:46.000Z</time>
      </trkpt>
      <trkpt lat="47.80837" lon="7.04729">
        <ele>805.20001220703</ele>
        <time>2021-05-30T08:31:49.000Z</time>
      </trkpt>
      <trkpt lat="47.80836" lon="7.04733">
        <ele>805.59997558594</ele>
        <time>2021-05-30T08:31:50.000Z</time>
      </trkpt>
      <trkpt lat="47.80836" lon="7.04737">
        <ele>806.40002441406</ele>
        <time>2021-05-30T08:31:51.000Z</time>
      </trkpt>
      <trkpt lat="47.80836" lon="7.04741">
        <ele>806.79998779297</ele>
        <time>2021-05-30T08:31:52.000Z</time>
      </trkpt>
      <trkpt lat="47.80836" lon="7.04747">
        <ele>807.40002441406</ele>
        <time>2021-05-30T08:31:54.000Z</time>
      </trkpt>
      <trkpt lat="47.80835" lon="7.0475">
        <ele>807.79998779297</ele>
        <time>2021-05-30T08:31:55.000Z</time>
      </trkpt>
      <trkpt lat="47.80835" lon="7.04753">
        <ele>808.20001220703</ele>
        <time>2021-05-30T08:31:56.000Z</time>
      </trkpt>
      <trkpt lat="47.80835" lon="7.04757">
        <ele>808.59997558594</ele>
        <time>2021-05-30T08:31:57.000Z</time>
      </trkpt>
      <trkpt lat="47.80835" lon="7.0476">
        <ele>809</ele>
        <time>2021-05-30T08:31:58.000Z</time>
      </trkpt>
      <trkpt lat="47.80835" lon="7.04771">
        <ele>809</ele>
        <time>2021-05-30T08:32:01.000Z</time>
      </trkpt>
      <trkpt lat="47.80834" lon="7.04779">
        <ele>809.40002441406</ele>
        <time>2021-05-30T08:32:03.000Z</time>
      </trkpt>
      <trkpt lat="47.80833" lon="7.04782">
        <ele>809.79998779297</ele>
        <time>2021-05-30T08:32:04.000Z</time>
      </trkpt>
      <trkpt lat="47.80832" lon="7.04786">
        <ele>810.20001220703</ele>
        <time>2021-05-30T08:32:05.000Z</time>
      </trkpt>
      <trkpt lat="47.80831" lon="7.04789">
        <ele>810.59997558594</ele>
        <time>2021-05-30T08:32:06.000Z</time>
      </trkpt>
      <trkpt lat="47.8083" lon="7.04791">
        <ele>811</ele>
        <time>2021-05-30T08:32:07.000Z</time>
      </trkpt>
      <trkpt lat="47.80829" lon="7.04794">
        <ele>811.59997558594</ele>
        <time>2021-05-30T08:32:08.000Z</time>
      </trkpt>
      <trkpt lat="47.80828" lon="7.04796">
        <ele>812</ele>
        <time>2021-05-30T08:32:09.000Z</time>
      </trkpt>
      <trkpt lat="47.80827" lon="7.04798">
        <ele>812.40002441406</ele>
        <time>2021-05-30T08:32:10.000Z</time>
      </trkpt>
      <trkpt lat="47.80826" lon="7.04801">
        <ele>812.79998779297</ele>
        <time>2021-05-30T08:32:11.000Z</time>
      </trkpt>
      <trkpt lat="47.80824" lon="7.04804">
        <ele>813.40002441406</ele>
        <time>2021-05-30T08:32:12.000Z</time>
      </trkpt>
      <trkpt lat="47.80823" lon="7.04808">
        <ele>813.40002441406</ele>
        <time>2021-05-30T08:32:13.000Z</time>
      </trkpt>
      <trkpt lat="47.80821" lon="7.04811">
        <ele>813.79998779297</ele>
        <time>2021-05-30T08:32:14.000Z</time>
      </trkpt>
      <trkpt lat="47.80819" lon="7.04815">
        <ele>814.59997558594</ele>
        <time>2021-05-30T08:32:15.000Z</time>
      </trkpt>
      <trkpt lat="47.80817" lon="7.04818">
        <ele>815.20001220703</ele>
        <time>2021-05-30T08:32:16.000Z</time>
      </trkpt>
      <trkpt lat="47.80816" lon="7.04822">
        <ele>815.59997558594</ele>
        <time>2021-05-30T08:32:17.000Z</time>
      </trkpt>
      <trkpt lat="47.80815" lon="7.04825">
        <ele>816.20001220703</ele>
        <time>2021-05-30T08:32:18.000Z</time>
      </trkpt>
      <trkpt lat="47.80814" lon="7.04827">
        <ele>816.79998779297</ele>
        <time>2021-05-30T08:32:19.000Z</time>
      </trkpt>
      <trkpt lat="47.80813" lon="7.0483">
        <ele>817.40002441406</ele>
        <time>2021-05-30T08:32:20.000Z</time>
      </trkpt>
      <trkpt lat="47.80813" lon="7.04831">
        <ele>817.79998779297</ele>
        <time>2021-05-30T08:32:21.000Z</time>
      </trkpt>
      <trkpt lat="47.80812" lon="7.04833">
        <ele>818.20001220703</ele>
        <time>2021-05-30T08:32:22.000Z</time>
      </trkpt>
      <trkpt lat="47.80811" lon="7.04835">
        <ele>818.59997558594</ele>
        <time>2021-05-30T08:32:23.000Z</time>
      </trkpt>
      <trkpt lat="47.8081" lon="7.04839">
        <ele>819</ele>
        <time>2021-05-30T08:32:24.000Z</time>
      </trkpt>
      <trkpt lat="47.80809" lon="7.04842">
        <ele>819.40002441406</ele>
        <time>2021-05-30T08:32:25.000Z</time>
      </trkpt>
      <trkpt lat="47.80806" lon="7.04848">
        <ele>819.40002441406</ele>
        <time>2021-05-30T08:32:27.000Z</time>
      </trkpt>
      <trkpt lat="47.80804" lon="7.04851">
        <ele>819.79998779297</ele>
        <time>2021-05-30T08:32:28.000Z</time>
      </trkpt>
      <trkpt lat="47.80803" lon="7.04854">
        <ele>820.20001220703</ele>
        <time>2021-05-30T08:32:29.000Z</time>
      </trkpt>
      <trkpt lat="47.80803" lon="7.04857">
        <ele>820.79998779297</ele>
        <time>2021-05-30T08:32:30.000Z</time>
      </trkpt>
      <trkpt lat="47.80801" lon="7.0486">
        <ele>821.20001220703</ele>
        <time>2021-05-30T08:32:31.000Z</time>
      </trkpt>
      <trkpt lat="47.808" lon="7.04863">
        <ele>821.59997558594</ele>
        <time>2021-05-30T08:32:32.000Z</time>
      </trkpt>
      <trkpt lat="47.80799" lon="7.04866">
        <ele>821.59997558594</ele>
        <time>2021-05-30T08:32:33.000Z</time>
      </trkpt>
      <trkpt lat="47.80798" lon="7.04871">
        <ele>822</ele>
        <time>2021-05-30T08:32:35.000Z</time>
      </trkpt>
      <trkpt lat="47.80796" lon="7.04876">
        <ele>822.40002441406</ele>
        <time>2021-05-30T08:32:36.000Z</time>
      </trkpt>
      <trkpt lat="47.80795" lon="7.04879">
        <ele>823</ele>
        <time>2021-05-30T08:32:37.000Z</time>
      </trkpt>
      <trkpt lat="47.80794" lon="7.04883">
        <ele>823.40002441406</ele>
        <time>2021-05-30T08:32:38.000Z</time>
      </trkpt>
      <trkpt lat="47.80793" lon="7.04885">
        <ele>823.79998779297</ele>
        <time>2021-05-30T08:32:39.000Z</time>
      </trkpt>
      <trkpt lat="47.80793" lon="7.04888">
        <ele>824.20001220703</ele>
        <time>2021-05-30T08:32:40.000Z</time>
      </trkpt>
      <trkpt lat="47.80793" lon="7.04891">
        <ele>824.59997558594</ele>
        <time>2021-05-30T08:32:41.000Z</time>
      </trkpt>
      <trkpt lat="47.80793" lon="7.04894">
        <ele>825.20001220703</ele>
        <time>2021-05-30T08:32:42.000Z</time>
      </trkpt>
      <trkpt lat="47.80793" lon="7.04898">
        <ele>825.59997558594</ele>
        <time>2021-05-30T08:32:43.000Z</time>
      </trkpt>
      <trkpt lat="47.80793" lon="7.04902">
        <ele>826</ele>
        <time>2021-05-30T08:32:44.000Z</time>
      </trkpt>
      <trkpt lat="47.80793" lon="7.04906">
        <ele>826</ele>
        <time>2021-05-30T08:32:45.000Z</time>
      </trkpt>
      <trkpt lat="47.80794" lon="7.04908">
        <ele>826</ele>
        <time>2021-05-30T08:32:46.000Z</time>
      </trkpt>
      <trkpt lat="47.80795" lon="7.04912">
        <ele>826.40002441406</ele>
        <time>2021-05-30T08:32:48.000Z</time>
      </trkpt>
      <trkpt lat="47.80795" lon="7.04915">
        <ele>827</ele>
        <time>2021-05-30T08:32:49.000Z</time>
      </trkpt>
      <trkpt lat="47.80797" lon="7.04917">
        <ele>827.40002441406</ele>
        <time>2021-05-30T08:32:50.000Z</time>
      </trkpt>
      <trkpt lat="47.80798" lon="7.0492">
        <ele>828</ele>
        <time>2021-05-30T08:32:51.000Z</time>
      </trkpt>
      <trkpt lat="47.80798" lon="7.04922">
        <ele>828.40002441406</ele>
        <time>2021-05-30T08:32:52.000Z</time>
      </trkpt>
      <trkpt lat="47.808" lon="7.04927">
        <ele>828.79998779297</ele>
        <time>2021-05-30T08:32:54.000Z</time>
      </trkpt>
      <trkpt lat="47.80801" lon="7.0493">
        <ele>829.20001220703</ele>
        <time>2021-05-30T08:32:55.000Z</time>
      </trkpt>
      <trkpt lat="47.80802" lon="7.04933">
        <ele>829.59997558594</ele>
        <time>2021-05-30T08:32:56.000Z</time>
      </trkpt>
      <trkpt lat="47.80802" lon="7.04935">
        <ele>830</ele>
        <time>2021-05-30T08:32:57.000Z</time>
      </trkpt>
      <trkpt lat="47.80804" lon="7.04938">
        <ele>830.40002441406</ele>
        <time>2021-05-30T08:32:58.000Z</time>
      </trkpt>
      <trkpt lat="47.80805" lon="7.04939">
        <ele>831</ele>
        <time>2021-05-30T08:32:59.000Z</time>
      </trkpt>
      <trkpt lat="47.80806" lon="7.04941">
        <ele>831.40002441406</ele>
        <time>2021-05-30T08:33:00.000Z</time>
      </trkpt>
      <trkpt lat="47.80808" lon="7.04943">
        <ele>832</ele>
        <time>2021-05-30T08:33:01.000Z</time>
      </trkpt>
      <trkpt lat="47.80809" lon="7.04946">
        <ele>832.40002441406</ele>
        <time>2021-05-30T08:33:02.000Z</time>
      </trkpt>
      <trkpt lat="47.8081" lon="7.04949">
        <ele>832.79998779297</ele>
        <time>2021-05-30T08:33:03.000Z</time>
      </trkpt>
      <trkpt lat="47.80812" lon="7.04954">
        <ele>833.40002441406</ele>
        <time>2021-05-30T08:33:05.000Z</time>
      </trkpt>
      <trkpt lat="47.80814" lon="7.04956">
        <ele>833.79998779297</ele>
        <time>2021-05-30T08:33:06.000Z</time>
      </trkpt>
      <trkpt lat="47.80815" lon="7.04959">
        <ele>834.40002441406</ele>
        <time>2021-05-30T08:33:07.000Z</time>
      </trkpt>
      <trkpt lat="47.80817" lon="7.04962">
        <ele>834.79998779297</ele>
        <time>2021-05-30T08:33:08.000Z</time>
      </trkpt>
      <trkpt lat="47.80819" lon="7.04965">
        <ele>835.20001220703</ele>
        <time>2021-05-30T08:33:09.000Z</time>
      </trkpt>
      <trkpt lat="47.8082" lon="7.04968">
        <ele>835.59997558594</ele>
        <time>2021-05-30T08:33:10.000Z</time>
      </trkpt>
      <trkpt lat="47.80822" lon="7.04971">
        <ele>836</ele>
        <time>2021-05-30T08:33:11.000Z</time>
      </trkpt>
      <trkpt lat="47.80823" lon="7.04973">
        <ele>836.40002441406</ele>
        <time>2021-05-30T08:33:12.000Z</time>
      </trkpt>
      <trkpt lat="47.80825" lon="7.04976">
        <ele>836.79998779297</ele>
        <time>2021-05-30T08:33:13.000Z</time>
      </trkpt>
      <trkpt lat="47.80827" lon="7.04979">
        <ele>837.20001220703</ele>
        <time>2021-05-30T08:33:14.000Z</time>
      </trkpt>
      <trkpt lat="47.8083" lon="7.04981">
        <ele>837.79998779297</ele>
        <time>2021-05-30T08:33:15.000Z</time>
      </trkpt>
      <trkpt lat="47.80831" lon="7.04983">
        <ele>838.20001220703</ele>
        <time>2021-05-30T08:33:16.000Z</time>
      </trkpt>
      <trkpt lat="47.80834" lon="7.04987">
        <ele>838.59997558594</ele>
        <time>2021-05-30T08:33:17.000Z</time>
      </trkpt>
      <trkpt lat="47.80835" lon="7.04988">
        <ele>839</ele>
        <time>2021-05-30T08:33:18.000Z</time>
      </trkpt>
      <trkpt lat="47.80837" lon="7.04991">
        <ele>839.59997558594</ele>
        <time>2021-05-30T08:33:19.000Z</time>
      </trkpt>
      <trkpt lat="47.80839" lon="7.04994">
        <ele>840</ele>
        <time>2021-05-30T08:33:20.000Z</time>
      </trkpt>
      <trkpt lat="47.80841" lon="7.04996">
        <ele>840.40002441406</ele>
        <time>2021-05-30T08:33:21.000Z</time>
      </trkpt>
      <trkpt lat="47.80843" lon="7.04999">
        <ele>840.79998779297</ele>
        <time>2021-05-30T08:33:22.000Z</time>
      </trkpt>
      <trkpt lat="47.80845" lon="7.05001">
        <ele>841.20001220703</ele>
        <time>2021-05-30T08:33:23.000Z</time>
      </trkpt>
      <trkpt lat="47.80847" lon="7.05002">
        <ele>841.59997558594</ele>
        <time>2021-05-30T08:33:24.000Z</time>
      </trkpt>
      <trkpt lat="47.80851" lon="7.05006">
        <ele>842</ele>
        <time>2021-05-30T08:33:26.000Z</time>
      </trkpt>
      <trkpt lat="47.80853" lon="7.05008">
        <ele>842.59997558594</ele>
        <time>2021-05-30T08:33:27.000Z</time>
      </trkpt>
      <trkpt lat="47.80856" lon="7.05012">
        <ele>843</ele>
        <time>2021-05-30T08:33:28.000Z</time>
      </trkpt>
      <trkpt lat="47.80858" lon="7.05014">
        <ele>843.40002441406</ele>
        <time>2021-05-30T08:33:29.000Z</time>
      </trkpt>
      <trkpt lat="47.8086" lon="7.05017">
        <ele>843.79998779297</ele>
        <time>2021-05-30T08:33:30.000Z</time>
      </trkpt>
      <trkpt lat="47.80862" lon="7.0502">
        <ele>844.40002441406</ele>
        <time>2021-05-30T08:33:31.000Z</time>
      </trkpt>
      <trkpt lat="47.80863" lon="7.05022">
        <ele>844.79998779297</ele>
        <time>2021-05-30T08:33:32.000Z</time>
      </trkpt>
      <trkpt lat="47.80864" lon="7.05024">
        <ele>845.20001220703</ele>
        <time>2021-05-30T08:33:33.000Z</time>
      </trkpt>
      <trkpt lat="47.80864" lon="7.05026">
        <ele>845.59997558594</ele>
        <time>2021-05-30T08:33:34.000Z</time>
      </trkpt>
      <trkpt lat="47.80865" lon="7.05028">
        <ele>846</ele>
        <time>2021-05-30T08:33:35.000Z</time>
      </trkpt>
      <trkpt lat="47.80869" lon="7.05032">
        <ele>846</ele>
        <time>2021-05-30T08:33:38.000Z</time>
      </trkpt>
      <trkpt lat="47.80872" lon="7.05035">
        <ele>846</ele>
        <time>2021-05-30T08:33:40.000Z</time>
      </trkpt>
      <trkpt lat="47.80885" lon="7.05046">
        <ele>846</ele>
        <time>2021-05-30T08:33:46.000Z</time>
      </trkpt>
      <trkpt lat="47.80893" lon="7.0505">
        <ele>846.40002441406</ele>
        <time>2021-05-30T08:33:49.000Z</time>
      </trkpt>
      <trkpt lat="47.80895" lon="7.05051">
        <ele>846.79998779297</ele>
        <time>2021-05-30T08:33:50.000Z</time>
      </trkpt>
      <trkpt lat="47.80897" lon="7.05053">
        <ele>847.20001220703</ele>
        <time>2021-05-30T08:33:51.000Z</time>
      </trkpt>
      <trkpt lat="47.80899" lon="7.05055">
        <ele>847.59997558594</ele>
        <time>2021-05-30T08:33:52.000Z</time>
      </trkpt>
      <trkpt lat="47.80901" lon="7.05056">
        <ele>848.20001220703</ele>
        <time>2021-05-30T08:33:53.000Z</time>
      </trkpt>
      <trkpt lat="47.80907" lon="7.05073">
        <ele>848.20001220703</ele>
        <time>2021-05-30T08:33:59.000Z</time>
      </trkpt>
      <trkpt lat="47.80907" lon="7.05076">
        <ele>848.59997558594</ele>
        <time>2021-05-30T08:34:00.000Z</time>
      </trkpt>
      <trkpt lat="47.80907" lon="7.05078">
        <ele>849</ele>
        <time>2021-05-30T08:34:01.000Z</time>
      </trkpt>
      <trkpt lat="47.80908" lon="7.05081">
        <ele>849.40002441406</ele>
        <time>2021-05-30T08:34:02.000Z</time>
      </trkpt>
      <trkpt lat="47.80908" lon="7.05084">
        <ele>849.79998779297</ele>
        <time>2021-05-30T08:34:03.000Z</time>
      </trkpt>
      <trkpt lat="47.80909" lon="7.05087">
        <ele>850.20001220703</ele>
        <time>2021-05-30T08:34:04.000Z</time>
      </trkpt>
      <trkpt lat="47.8091" lon="7.05089">
        <ele>850.20001220703</ele>
        <time>2021-05-30T08:34:05.000Z</time>
      </trkpt>
      <trkpt lat="47.80911" lon="7.05109">
        <ele>850.20001220703</ele>
        <time>2021-05-30T08:34:10.000Z</time>
      </trkpt>
      <trkpt lat="47.80911" lon="7.05123">
        <ele>850.20001220703</ele>
        <time>2021-05-30T08:34:15.000Z</time>
      </trkpt>
      <trkpt lat="47.8091" lon="7.05129">
        <ele>849.79998779297</ele>
        <time>2021-05-30T08:34:16.000Z</time>
      </trkpt>
      <trkpt lat="47.80909" lon="7.05136">
        <ele>849.40002441406</ele>
        <time>2021-05-30T08:34:17.000Z</time>
      </trkpt>
      <trkpt lat="47.80907" lon="7.05143">
        <ele>849</ele>
        <time>2021-05-30T08:34:18.000Z</time>
      </trkpt>
      <trkpt lat="47.80905" lon="7.05149">
        <ele>848</ele>
        <time>2021-05-30T08:34:19.000Z</time>
      </trkpt>
      <trkpt lat="47.80901" lon="7.05157">
        <ele>847.40002441406</ele>
        <time>2021-05-30T08:34:20.000Z</time>
      </trkpt>
      <trkpt lat="47.80898" lon="7.05164">
        <ele>847</ele>
        <time>2021-05-30T08:34:21.000Z</time>
      </trkpt>
      <trkpt lat="47.80894" lon="7.0517">
        <ele>846.20001220703</ele>
        <time>2021-05-30T08:34:22.000Z</time>
      </trkpt>
      <trkpt lat="47.8089" lon="7.05174">
        <ele>845.59997558594</ele>
        <time>2021-05-30T08:34:23.000Z</time>
      </trkpt>
      <trkpt lat="47.80886" lon="7.05177">
        <ele>844.79998779297</ele>
        <time>2021-05-30T08:34:24.000Z</time>
      </trkpt>
      <trkpt lat="47.80883" lon="7.0518">
        <ele>844.20001220703</ele>
        <time>2021-05-30T08:34:25.000Z</time>
      </trkpt>
      <trkpt lat="47.8088" lon="7.05184">
        <ele>843.59997558594</ele>
        <time>2021-05-30T08:34:26.000Z</time>
      </trkpt>
      <trkpt lat="47.80877" lon="7.05191">
        <ele>843</ele>
        <time>2021-05-30T08:34:27.000Z</time>
      </trkpt>
      <trkpt lat="47.80874" lon="7.05198">
        <ele>842.59997558594</ele>
        <time>2021-05-30T08:34:28.000Z</time>
      </trkpt>
      <trkpt lat="47.80871" lon="7.05205">
        <ele>842.20001220703</ele>
        <time>2021-05-30T08:34:29.000Z</time>
      </trkpt>
      <trkpt lat="47.80867" lon="7.0521">
        <ele>841.40002441406</ele>
        <time>2021-05-30T08:34:30.000Z</time>
      </trkpt>
      <trkpt lat="47.80862" lon="7.05216">
        <ele>840.79998779297</ele>
        <time>2021-05-30T08:34:31.000Z</time>
      </trkpt>
      <trkpt lat="47.80857" lon="7.05222">
        <ele>840</ele>
        <time>2021-05-30T08:34:32.000Z</time>
      </trkpt>
      <trkpt lat="47.80851" lon="7.05228">
        <ele>839.20001220703</ele>
        <time>2021-05-30T08:34:33.000Z</time>
      </trkpt>
      <trkpt lat="47.80846" lon="7.05234">
        <ele>838.40002441406</ele>
        <time>2021-05-30T08:34:34.000Z</time>
      </trkpt>
      <trkpt lat="47.8084" lon="7.0524">
        <ele>837.59997558594</ele>
        <time>2021-05-30T08:34:35.000Z</time>
      </trkpt>
      <trkpt lat="47.80834" lon="7.05246">
        <ele>836.79998779297</ele>
        <time>2021-05-30T08:34:36.000Z</time>
      </trkpt>
      <trkpt lat="47.80828" lon="7.05251">
        <ele>835.79998779297</ele>
        <time>2021-05-30T08:34:37.000Z</time>
      </trkpt>
      <trkpt lat="47.80822" lon="7.05259">
        <ele>834.79998779297</ele>
        <time>2021-05-30T08:34:38.000Z</time>
      </trkpt>
      <trkpt lat="47.80817" lon="7.05265">
        <ele>833.79998779297</ele>
        <time>2021-05-30T08:34:39.000Z</time>
      </trkpt>
      <trkpt lat="47.80811" lon="7.05272">
        <ele>832.79998779297</ele>
        <time>2021-05-30T08:34:40.000Z</time>
      </trkpt>
      <trkpt lat="47.80805" lon="7.0528">
        <ele>831.79998779297</ele>
        <time>2021-05-30T08:34:41.000Z</time>
      </trkpt>
      <trkpt lat="47.808" lon="7.05289">
        <ele>830.79998779297</ele>
        <time>2021-05-30T08:34:42.000Z</time>
      </trkpt>
      <trkpt lat="47.80795" lon="7.05296">
        <ele>829.79998779297</ele>
        <time>2021-05-30T08:34:43.000Z</time>
      </trkpt>
      <trkpt lat="47.8079" lon="7.05301">
        <ele>827.79998779297</ele>
        <time>2021-05-30T08:34:44.000Z</time>
      </trkpt>
      <trkpt lat="47.80784" lon="7.05307">
        <ele>827</ele>
        <time>2021-05-30T08:34:45.000Z</time>
      </trkpt>
      <trkpt lat="47.80781" lon="7.05312">
        <ele>826</ele>
        <time>2021-05-30T08:34:46.000Z</time>
      </trkpt>
      <trkpt lat="47.80777" lon="7.05319">
        <ele>825.20001220703</ele>
        <time>2021-05-30T08:34:47.000Z</time>
      </trkpt>
      <trkpt lat="47.80772" lon="7.05326">
        <ele>824.40002441406</ele>
        <time>2021-05-30T08:34:48.000Z</time>
      </trkpt>
      <trkpt lat="47.80767" lon="7.05331">
        <ele>823.59997558594</ele>
        <time>2021-05-30T08:34:49.000Z</time>
      </trkpt>
      <trkpt lat="47.80761" lon="7.05337">
        <ele>822.79998779297</ele>
        <time>2021-05-30T08:34:50.000Z</time>
      </trkpt>
      <trkpt lat="47.80755" lon="7.05343">
        <ele>821.79998779297</ele>
        <time>2021-05-30T08:34:51.000Z</time>
      </trkpt>
      <trkpt lat="47.80749" lon="7.05349">
        <ele>821</ele>
        <time>2021-05-30T08:34:52.000Z</time>
      </trkpt>
      <trkpt lat="47.80743" lon="7.05355">
        <ele>820.20001220703</ele>
        <time>2021-05-30T08:34:53.000Z</time>
      </trkpt>
      <trkpt lat="47.80737" lon="7.05361">
        <ele>819.40002441406</ele>
        <time>2021-05-30T08:34:54.000Z</time>
      </trkpt>
      <trkpt lat="47.80732" lon="7.05368">
        <ele>818.79998779297</ele>
        <time>2021-05-30T08:34:55.000Z</time>
      </trkpt>
      <trkpt lat="47.80727" lon="7.05376">
        <ele>818.20001220703</ele>
        <time>2021-05-30T08:34:56.000Z</time>
      </trkpt>
      <trkpt lat="47.80723" lon="7.05386">
        <ele>817.40002441406</ele>
        <time>2021-05-30T08:34:57.000Z</time>
      </trkpt>
      <trkpt lat="47.80718" lon="7.05396">
        <ele>816.59997558594</ele>
        <time>2021-05-30T08:34:58.000Z</time>
      </trkpt>
      <trkpt lat="47.80714" lon="7.05407">
        <ele>815.79998779297</ele>
        <time>2021-05-30T08:34:59.000Z</time>
      </trkpt>
      <trkpt lat="47.8071" lon="7.05419">
        <ele>815</ele>
        <time>2021-05-30T08:35:00.000Z</time>
      </trkpt>
      <trkpt lat="47.80707" lon="7.05431">
        <ele>814</ele>
        <time>2021-05-30T08:35:01.000Z</time>
      </trkpt>
      <trkpt lat="47.80703" lon="7.05443">
        <ele>813</ele>
        <time>2021-05-30T08:35:02.000Z</time>
      </trkpt>
      <trkpt lat="47.80699" lon="7.05454">
        <ele>811.79998779297</ele>
        <time>2021-05-30T08:35:03.000Z</time>
      </trkpt>
      <trkpt lat="47.80696" lon="7.05464">
        <ele>810.59997558594</ele>
        <time>2021-05-30T08:35:04.000Z</time>
      </trkpt>
      <trkpt lat="47.80692" lon="7.05475">
        <ele>809.59997558594</ele>
        <time>2021-05-30T08:35:05.000Z</time>
      </trkpt>
      <trkpt lat="47.8069" lon="7.05486">
        <ele>808.40002441406</ele>
        <time>2021-05-30T08:35:06.000Z</time>
      </trkpt>
      <trkpt lat="47.80688" lon="7.05495">
        <ele>807.40002441406</ele>
        <time>2021-05-30T08:35:07.000Z</time>
      </trkpt>
      <trkpt lat="47.80686" lon="7.05502">
        <ele>806.20001220703</ele>
        <time>2021-05-30T08:35:08.000Z</time>
      </trkpt>
      <trkpt lat="47.80684" lon="7.05509">
        <ele>804.20001220703</ele>
        <time>2021-05-30T08:35:09.000Z</time>
      </trkpt>
      <trkpt lat="47.80683" lon="7.05517">
        <ele>803.20001220703</ele>
        <time>2021-05-30T08:35:10.000Z</time>
      </trkpt>
      <trkpt lat="47.80681" lon="7.05526">
        <ele>802.20001220703</ele>
        <time>2021-05-30T08:35:11.000Z</time>
      </trkpt>
      <trkpt lat="47.80681" lon="7.05534">
        <ele>801.40002441406</ele>
        <time>2021-05-30T08:35:12.000Z</time>
      </trkpt>
      <trkpt lat="47.8068" lon="7.05544">
        <ele>800.59997558594</ele>
        <time>2021-05-30T08:35:13.000Z</time>
      </trkpt>
      <trkpt lat="47.8068" lon="7.05552">
        <ele>799.59997558594</ele>
        <time>2021-05-30T08:35:14.000Z</time>
      </trkpt>
      <trkpt lat="47.8068" lon="7.05561">
        <ele>798.59997558594</ele>
        <time>2021-05-30T08:35:15.000Z</time>
      </trkpt>
      <trkpt lat="47.80679" lon="7.0557">
        <ele>797.59997558594</ele>
        <time>2021-05-30T08:35:16.000Z</time>
      </trkpt>
      <trkpt lat="47.80678" lon="7.0558">
        <ele>796.79998779297</ele>
        <time>2021-05-30T08:35:17.000Z</time>
      </trkpt>
      <trkpt lat="47.80677" lon="7.0559">
        <ele>795.79998779297</ele>
        <time>2021-05-30T08:35:18.000Z</time>
      </trkpt>
      <trkpt lat="47.80675" lon="7.05601">
        <ele>795</ele>
        <time>2021-05-30T08:35:19.000Z</time>
      </trkpt>
      <trkpt lat="47.80674" lon="7.0561">
        <ele>794.20001220703</ele>
        <time>2021-05-30T08:35:20.000Z</time>
      </trkpt>
      <trkpt lat="47.80673" lon="7.05622">
        <ele>793.40002441406</ele>
        <time>2021-05-30T08:35:21.000Z</time>
      </trkpt>
      <trkpt lat="47.80672" lon="7.05632">
        <ele>792.59997558594</ele>
        <time>2021-05-30T08:35:22.000Z</time>
      </trkpt>
      <trkpt lat="47.80671" lon="7.05643">
        <ele>792</ele>
        <time>2021-05-30T08:35:23.000Z</time>
      </trkpt>
      <trkpt lat="47.8067" lon="7.05654">
        <ele>791.20001220703</ele>
        <time>2021-05-30T08:35:24.000Z</time>
      </trkpt>
      <trkpt lat="47.8067" lon="7.05666">
        <ele>790.40002441406</ele>
        <time>2021-05-30T08:35:25.000Z</time>
      </trkpt>
      <trkpt lat="47.80671" lon="7.05676">
        <ele>789.59997558594</ele>
        <time>2021-05-30T08:35:26.000Z</time>
      </trkpt>
      <trkpt lat="47.80671" lon="7.05685">
        <ele>789</ele>
        <time>2021-05-30T08:35:27.000Z</time>
      </trkpt>
      <trkpt lat="47.80671" lon="7.05695">
        <ele>788.20001220703</ele>
        <time>2021-05-30T08:35:28.000Z</time>
      </trkpt>
      <trkpt lat="47.80671" lon="7.05706">
        <ele>787.40002441406</ele>
        <time>2021-05-30T08:35:29.000Z</time>
      </trkpt>
      <trkpt lat="47.80672" lon="7.05717">
        <ele>786.59997558594</ele>
        <time>2021-05-30T08:35:30.000Z</time>
      </trkpt>
      <trkpt lat="47.80672" lon="7.05727">
        <ele>785.79998779297</ele>
        <time>2021-05-30T08:35:31.000Z</time>
      </trkpt>
      <trkpt lat="47.80674" lon="7.05736">
        <ele>784.59997558594</ele>
        <time>2021-05-30T08:35:32.000Z</time>
      </trkpt>
      <trkpt lat="47.80677" lon="7.05745">
        <ele>782.59997558594</ele>
        <time>2021-05-30T08:35:33.000Z</time>
      </trkpt>
      <trkpt lat="47.80681" lon="7.05754">
        <ele>781.59997558594</ele>
        <time>2021-05-30T08:35:34.000Z</time>
      </trkpt>
      <trkpt lat="47.80684" lon="7.05764">
        <ele>780.40002441406</ele>
        <time>2021-05-30T08:35:35.000Z</time>
      </trkpt>
      <trkpt lat="47.80686" lon="7.05777">
        <ele>779.40002441406</ele>
        <time>2021-05-30T08:35:36.000Z</time>
      </trkpt>
      <trkpt lat="47.8069" lon="7.05787">
        <ele>778.59997558594</ele>
        <time>2021-05-30T08:35:37.000Z</time>
      </trkpt>
      <trkpt lat="47.80692" lon="7.05796">
        <ele>777.59997558594</ele>
        <time>2021-05-30T08:35:38.000Z</time>
      </trkpt>
      <trkpt lat="47.80694" lon="7.05806">
        <ele>776.79998779297</ele>
        <time>2021-05-30T08:35:39.000Z</time>
      </trkpt>
      <trkpt lat="47.80697" lon="7.05815">
        <ele>776</ele>
        <time>2021-05-30T08:35:40.000Z</time>
      </trkpt>
      <trkpt lat="47.80699" lon="7.05825">
        <ele>775</ele>
        <time>2021-05-30T08:35:41.000Z</time>
      </trkpt>
      <trkpt lat="47.80702" lon="7.05834">
        <ele>774.40002441406</ele>
        <time>2021-05-30T08:35:42.000Z</time>
      </trkpt>
      <trkpt lat="47.80704" lon="7.05843">
        <ele>774</ele>
        <time>2021-05-30T08:35:43.000Z</time>
      </trkpt>
      <trkpt lat="47.80706" lon="7.05852">
        <ele>773.20001220703</ele>
        <time>2021-05-30T08:35:44.000Z</time>
      </trkpt>
      <trkpt lat="47.80707" lon="7.05863">
        <ele>772.40002441406</ele>
        <time>2021-05-30T08:35:45.000Z</time>
      </trkpt>
      <trkpt lat="47.8071" lon="7.05872">
        <ele>771.40002441406</ele>
        <time>2021-05-30T08:35:46.000Z</time>
      </trkpt>
      <trkpt lat="47.80713" lon="7.05883">
        <ele>770.59997558594</ele>
        <time>2021-05-30T08:35:47.000Z</time>
      </trkpt>
      <trkpt lat="47.80716" lon="7.0589">
        <ele>769.59997558594</ele>
        <time>2021-05-30T08:35:48.000Z</time>
      </trkpt>
      <trkpt lat="47.80718" lon="7.05898">
        <ele>768.79998779297</ele>
        <time>2021-05-30T08:35:49.000Z</time>
      </trkpt>
      <trkpt lat="47.8072" lon="7.05904">
        <ele>768</ele>
        <time>2021-05-30T08:35:50.000Z</time>
      </trkpt>
      <trkpt lat="47.80721" lon="7.05909">
        <ele>767.20001220703</ele>
        <time>2021-05-30T08:35:51.000Z</time>
      </trkpt>
      <trkpt lat="47.80722" lon="7.05912">
        <ele>766.40002441406</ele>
        <time>2021-05-30T08:35:52.000Z</time>
      </trkpt>
      <trkpt lat="47.80723" lon="7.05913">
        <ele>765.79998779297</ele>
        <time>2021-05-30T08:35:53.000Z</time>
      </trkpt>
      <trkpt lat="47.80724" lon="7.05914">
        <ele>765.20001220703</ele>
        <time>2021-05-30T08:35:54.000Z</time>
      </trkpt>
      <trkpt lat="47.80724" lon="7.05914">
        <ele>764.59997558594</ele>
        <time>2021-05-30T08:35:55.000Z</time>
      </trkpt>
      <trkpt lat="47.8072" lon="7.05918">
        <ele>763.20001220703</ele>
        <time>2021-05-30T08:36:49.000Z</time>
      </trkpt>
      <trkpt lat="47.80714" lon="7.05923">
        <ele>763.20001220703</ele>
        <time>2021-05-30T08:36:51.000Z</time>
      </trkpt>
      <trkpt lat="47.80707" lon="7.05927">
        <ele>762.79998779297</ele>
        <time>2021-05-30T08:36:53.000Z</time>
      </trkpt>
      <trkpt lat="47.80702" lon="7.0593">
        <ele>762.20001220703</ele>
        <time>2021-05-30T08:36:54.000Z</time>
      </trkpt>
      <trkpt lat="47.80697" lon="7.0593">
        <ele>761.79998779297</ele>
        <time>2021-05-30T08:36:55.000Z</time>
      </trkpt>
      <trkpt lat="47.80692" lon="7.0593">
        <ele>761</ele>
        <time>2021-05-30T08:36:56.000Z</time>
      </trkpt>
      <trkpt lat="47.80687" lon="7.05929">
        <ele>760.20001220703</ele>
        <time>2021-05-30T08:36:57.000Z</time>
      </trkpt>
      <trkpt lat="47.80683" lon="7.05928">
        <ele>759.59997558594</ele>
        <time>2021-05-30T08:36:58.000Z</time>
      </trkpt>
      <trkpt lat="47.80678" lon="7.05927">
        <ele>758.79998779297</ele>
        <time>2021-05-30T08:36:59.000Z</time>
      </trkpt>
      <trkpt lat="47.80674" lon="7.05925">
        <ele>758</ele>
        <time>2021-05-30T08:37:00.000Z</time>
      </trkpt>
      <trkpt lat="47.80669" lon="7.05924">
        <ele>757.40002441406</ele>
        <time>2021-05-30T08:37:01.000Z</time>
      </trkpt>
      <trkpt lat="47.80665" lon="7.05922">
        <ele>756.59997558594</ele>
        <time>2021-05-30T08:37:02.000Z</time>
      </trkpt>
      <trkpt lat="47.8066" lon="7.05923">
        <ele>756</ele>
        <time>2021-05-30T08:37:03.000Z</time>
      </trkpt>
      <trkpt lat="47.80655" lon="7.05923">
        <ele>755.40002441406</ele>
        <time>2021-05-30T08:37:04.000Z</time>
      </trkpt>
      <trkpt lat="47.80652" lon="7.05921">
        <ele>754.79998779297</ele>
        <time>2021-05-30T08:37:05.000Z</time>
      </trkpt>
      <trkpt lat="47.80648" lon="7.0592">
        <ele>754.20001220703</ele>
        <time>2021-05-30T08:37:06.000Z</time>
      </trkpt>
      <trkpt lat="47.80644" lon="7.0592">
        <ele>753.59997558594</ele>
        <time>2021-05-30T08:37:07.000Z</time>
      </trkpt>
      <trkpt lat="47.80639" lon="7.05917">
        <ele>753.59997558594</ele>
        <time>2021-05-30T08:37:08.000Z</time>
      </trkpt>
      <trkpt lat="47.80633" lon="7.05915">
        <ele>753.20001220703</ele>
        <time>2021-05-30T08:37:09.000Z</time>
      </trkpt>
      <trkpt lat="47.80626" lon="7.05912">
        <ele>752.59997558594</ele>
        <time>2021-05-30T08:37:10.000Z</time>
      </trkpt>
      <trkpt lat="47.8062" lon="7.05911">
        <ele>752.20001220703</ele>
        <time>2021-05-30T08:37:11.000Z</time>
      </trkpt>
      <trkpt lat="47.80618" lon="7.05913">
        <ele>751</ele>
        <time>2021-05-30T08:37:12.000Z</time>
      </trkpt>
      <trkpt lat="47.80616" lon="7.05919">
        <ele>750.40002441406</ele>
        <time>2021-05-30T08:37:13.000Z</time>
      </trkpt>
      <trkpt lat="47.80614" lon="7.05924">
        <ele>749.79998779297</ele>
        <time>2021-05-30T08:37:14.000Z</time>
      </trkpt>
      <trkpt lat="47.80613" lon="7.05928">
        <ele>749.20001220703</ele>
        <time>2021-05-30T08:37:15.000Z</time>
      </trkpt>
      <trkpt lat="47.80611" lon="7.05934">
        <ele>748.79998779297</ele>
        <time>2021-05-30T08:37:16.000Z</time>
      </trkpt>
      <trkpt lat="47.8061" lon="7.0594">
        <ele>748.40002441406</ele>
        <time>2021-05-30T08:37:17.000Z</time>
      </trkpt>
      <trkpt lat="47.80609" lon="7.05946">
        <ele>748</ele>
        <time>2021-05-30T08:37:18.000Z</time>
      </trkpt>
      <trkpt lat="47.80607" lon="7.05952">
        <ele>747.59997558594</ele>
        <time>2021-05-30T08:37:19.000Z</time>
      </trkpt>
      <trkpt lat="47.80605" lon="7.05958">
        <ele>747.20001220703</ele>
        <time>2021-05-30T08:37:20.000Z</time>
      </trkpt>
      <trkpt lat="47.80596" lon="7.05975">
        <ele>747.20001220703</ele>
        <time>2021-05-30T08:37:24.000Z</time>
      </trkpt>
      <trkpt lat="47.80576" lon="7.05992">
        <ele>747.20001220703</ele>
        <time>2021-05-30T08:37:29.000Z</time>
      </trkpt>
      <trkpt lat="47.80566" lon="7.06013">
        <ele>746.79998779297</ele>
        <time>2021-05-30T08:37:33.000Z</time>
      </trkpt>
      <trkpt lat="47.80564" lon="7.06022">
        <ele>746.40002441406</ele>
        <time>2021-05-30T08:37:34.000Z</time>
      </trkpt>
      <trkpt lat="47.80562" lon="7.06031">
        <ele>745.79998779297</ele>
        <time>2021-05-30T08:37:35.000Z</time>
      </trkpt>
      <trkpt lat="47.80561" lon="7.06039">
        <ele>744.59997558594</ele>
        <time>2021-05-30T08:37:36.000Z</time>
      </trkpt>
      <trkpt lat="47.80558" lon="7.06045">
        <ele>744</ele>
        <time>2021-05-30T08:37:37.000Z</time>
      </trkpt>
      <trkpt lat="47.80555" lon="7.06051">
        <ele>743.20001220703</ele>
        <time>2021-05-30T08:37:38.000Z</time>
      </trkpt>
      <trkpt lat="47.80553" lon="7.06057">
        <ele>742.59997558594</ele>
        <time>2021-05-30T08:37:39.000Z</time>
      </trkpt>
      <trkpt lat="47.80549" lon="7.06062">
        <ele>742</ele>
        <time>2021-05-30T08:37:40.000Z</time>
      </trkpt>
      <trkpt lat="47.80543" lon="7.06065">
        <ele>741.40002441406</ele>
        <time>2021-05-30T08:37:41.000Z</time>
      </trkpt>
      <trkpt lat="47.80538" lon="7.06071">
        <ele>740.79998779297</ele>
        <time>2021-05-30T08:37:42.000Z</time>
      </trkpt>
      <trkpt lat="47.80533" lon="7.06075">
        <ele>740.20001220703</ele>
        <time>2021-05-30T08:37:43.000Z</time>
      </trkpt>
      <trkpt lat="47.80527" lon="7.0608">
        <ele>739.59997558594</ele>
        <time>2021-05-30T08:37:44.000Z</time>
      </trkpt>
      <trkpt lat="47.80521" lon="7.06082">
        <ele>739</ele>
        <time>2021-05-30T08:37:45.000Z</time>
      </trkpt>
      <trkpt lat="47.80515" lon="7.06084">
        <ele>738.40002441406</ele>
        <time>2021-05-30T08:37:46.000Z</time>
      </trkpt>
      <trkpt lat="47.80509" lon="7.06085">
        <ele>737.59997558594</ele>
        <time>2021-05-30T08:37:47.000Z</time>
      </trkpt>
      <trkpt lat="47.80503" lon="7.06086">
        <ele>737</ele>
        <time>2021-05-30T08:37:48.000Z</time>
      </trkpt>
      <trkpt lat="47.80497" lon="7.06086">
        <ele>736.20001220703</ele>
        <time>2021-05-30T08:37:49.000Z</time>
      </trkpt>
      <trkpt lat="47.8049" lon="7.06086">
        <ele>735.40002441406</ele>
        <time>2021-05-30T08:37:50.000Z</time>
      </trkpt>
      <trkpt lat="47.80484" lon="7.06087">
        <ele>734.79998779297</ele>
        <time>2021-05-30T08:37:51.000Z</time>
      </trkpt>
      <trkpt lat="47.80477" lon="7.06086">
        <ele>734</ele>
        <time>2021-05-30T08:37:52.000Z</time>
      </trkpt>
      <trkpt lat="47.80472" lon="7.06085">
        <ele>733.20001220703</ele>
        <time>2021-05-30T08:37:53.000Z</time>
      </trkpt>
      <trkpt lat="47.80467" lon="7.06085">
        <ele>732.59997558594</ele>
        <time>2021-05-30T08:37:54.000Z</time>
      </trkpt>
      <trkpt lat="47.80462" lon="7.06084">
        <ele>731.79998779297</ele>
        <time>2021-05-30T08:37:55.000Z</time>
      </trkpt>
      <trkpt lat="47.80456" lon="7.06083">
        <ele>731</ele>
        <time>2021-05-30T08:37:56.000Z</time>
      </trkpt>
      <trkpt lat="47.8045" lon="7.0608">
        <ele>730.40002441406</ele>
        <time>2021-05-30T08:37:57.000Z</time>
      </trkpt>
      <trkpt lat="47.80445" lon="7.06077">
        <ele>729.59997558594</ele>
        <time>2021-05-30T08:37:58.000Z</time>
      </trkpt>
      <trkpt lat="47.80439" lon="7.06077">
        <ele>728.79998779297</ele>
        <time>2021-05-30T08:37:59.000Z</time>
      </trkpt>
      <trkpt lat="47.80433" lon="7.06077">
        <ele>728.20001220703</ele>
        <time>2021-05-30T08:38:00.000Z</time>
      </trkpt>
      <trkpt lat="47.80427" lon="7.06078">
        <ele>726.59997558594</ele>
        <time>2021-05-30T08:38:01.000Z</time>
      </trkpt>
      <trkpt lat="47.80421" lon="7.0608">
        <ele>725.79998779297</ele>
        <time>2021-05-30T08:38:02.000Z</time>
      </trkpt>
      <trkpt lat="47.80416" lon="7.06081">
        <ele>725</ele>
        <time>2021-05-30T08:38:03.000Z</time>
      </trkpt>
      <trkpt lat="47.8041" lon="7.06082">
        <ele>724.20001220703</ele>
        <time>2021-05-30T08:38:04.000Z</time>
      </trkpt>
      <trkpt lat="47.80406" lon="7.06082">
        <ele>723.59997558594</ele>
        <time>2021-05-30T08:38:05.000Z</time>
      </trkpt>
      <trkpt lat="47.804" lon="7.06081">
        <ele>722.79998779297</ele>
        <time>2021-05-30T08:38:06.000Z</time>
      </trkpt>
      <trkpt lat="47.80394" lon="7.06079">
        <ele>722.20001220703</ele>
        <time>2021-05-30T08:38:07.000Z</time>
      </trkpt>
      <trkpt lat="47.80388" lon="7.06079">
        <ele>721.59997558594</ele>
        <time>2021-05-30T08:38:08.000Z</time>
      </trkpt>
      <trkpt lat="47.80382" lon="7.0608">
        <ele>720.79998779297</ele>
        <time>2021-05-30T08:38:09.000Z</time>
      </trkpt>
      <trkpt lat="47.80376" lon="7.06082">
        <ele>720.20001220703</ele>
        <time>2021-05-30T08:38:10.000Z</time>
      </trkpt>
      <trkpt lat="47.80372" lon="7.06086">
        <ele>719.40002441406</ele>
        <time>2021-05-30T08:38:11.000Z</time>
      </trkpt>
      <trkpt lat="47.80369" lon="7.0609">
        <ele>718.59997558594</ele>
        <time>2021-05-30T08:38:12.000Z</time>
      </trkpt>
      <trkpt lat="47.80367" lon="7.06095">
        <ele>717.79998779297</ele>
        <time>2021-05-30T08:38:13.000Z</time>
      </trkpt>
      <trkpt lat="47.80366" lon="7.06099">
        <ele>717.40002441406</ele>
        <time>2021-05-30T08:38:14.000Z</time>
      </trkpt>
      <trkpt lat="47.80366" lon="7.061">
        <ele>717</ele>
        <time>2021-05-30T08:38:15.000Z</time>
      </trkpt>
      <trkpt lat="47.80366" lon="7.061">
        <ele>716.40002441406</ele>
        <time>2021-05-30T08:38:16.000Z</time>
      </trkpt>
      <trkpt lat="47.80368" lon="7.06105">
        <ele>715.59997558594</ele>
        <time>2021-05-30T08:39:40.000Z</time>
      </trkpt>
      <trkpt lat="47.80369" lon="7.06108">
        <ele>715.59997558594</ele>
        <time>2021-05-30T08:39:41.000Z</time>
      </trkpt>
      <trkpt lat="47.8037" lon="7.0611">
        <ele>715.59997558594</ele>
        <time>2021-05-30T08:39:43.000Z</time>
      </trkpt>
      <trkpt lat="47.80374" lon="7.06112">
        <ele>715.59997558594</ele>
        <time>2021-05-30T08:40:15.000Z</time>
      </trkpt>
      <trkpt lat="47.80375" lon="7.06114">
        <ele>715.20001220703</ele>
        <time>2021-05-30T08:40:16.000Z</time>
      </trkpt>
      <trkpt lat="47.80375" lon="7.06117">
        <ele>714.79998779297</ele>
        <time>2021-05-30T08:40:17.000Z</time>
      </trkpt>
      <trkpt lat="47.80375" lon="7.06121">
        <ele>714.40002441406</ele>
        <time>2021-05-30T08:40:18.000Z</time>
      </trkpt>
      <trkpt lat="47.80374" lon="7.06125">
        <ele>714</ele>
        <time>2021-05-30T08:40:19.000Z</time>
      </trkpt>
      <trkpt lat="47.80372" lon="7.06131">
        <ele>713.59997558594</ele>
        <time>2021-05-30T08:40:20.000Z</time>
      </trkpt>
      <trkpt lat="47.8037" lon="7.06142">
        <ele>713.59997558594</ele>
        <time>2021-05-30T08:40:22.000Z</time>
      </trkpt>
      <trkpt lat="47.8037" lon="7.06153">
        <ele>713.59997558594</ele>
        <time>2021-05-30T08:40:24.000Z</time>
      </trkpt>
      <trkpt lat="47.80369" lon="7.06166">
        <ele>713.59997558594</ele>
        <time>2021-05-30T08:40:26.000Z</time>
      </trkpt>
      <trkpt lat="47.80368" lon="7.06172">
        <ele>713</ele>
        <time>2021-05-30T08:40:27.000Z</time>
      </trkpt>
      <trkpt lat="47.80368" lon="7.0618">
        <ele>712.59997558594</ele>
        <time>2021-05-30T08:40:28.000Z</time>
      </trkpt>
      <trkpt lat="47.80368" lon="7.06189">
        <ele>712.20001220703</ele>
        <time>2021-05-30T08:40:29.000Z</time>
      </trkpt>
      <trkpt lat="47.80369" lon="7.06199">
        <ele>711.20001220703</ele>
        <time>2021-05-30T08:40:30.000Z</time>
      </trkpt>
      <trkpt lat="47.80369" lon="7.06208">
        <ele>710.79998779297</ele>
        <time>2021-05-30T08:40:31.000Z</time>
      </trkpt>
      <trkpt lat="47.8037" lon="7.06219">
        <ele>710.40002441406</ele>
        <time>2021-05-30T08:40:32.000Z</time>
      </trkpt>
      <trkpt lat="47.80371" lon="7.06229">
        <ele>710</ele>
        <time>2021-05-30T08:40:33.000Z</time>
      </trkpt>
      <trkpt lat="47.80371" lon="7.0624">
        <ele>709.59997558594</ele>
        <time>2021-05-30T08:40:34.000Z</time>
      </trkpt>
      <trkpt lat="47.80372" lon="7.06251">
        <ele>709</ele>
        <time>2021-05-30T08:40:35.000Z</time>
      </trkpt>
      <trkpt lat="47.80372" lon="7.06261">
        <ele>708.40002441406</ele>
        <time>2021-05-30T08:40:36.000Z</time>
      </trkpt>
      <trkpt lat="47.80373" lon="7.06271">
        <ele>707.79998779297</ele>
        <time>2021-05-30T08:40:37.000Z</time>
      </trkpt>
      <trkpt lat="47.80373" lon="7.06279">
        <ele>707.40002441406</ele>
        <time>2021-05-30T08:40:38.000Z</time>
      </trkpt>
      <trkpt lat="47.80374" lon="7.06287">
        <ele>706.79998779297</ele>
        <time>2021-05-30T08:40:39.000Z</time>
      </trkpt>
      <trkpt lat="47.80374" lon="7.06296">
        <ele>706.79998779297</ele>
        <time>2021-05-30T08:40:40.000Z</time>
      </trkpt>
      <trkpt lat="47.80374" lon="7.0633">
        <ele>706.79998779297</ele>
        <time>2021-05-30T08:40:45.000Z</time>
      </trkpt>
      <trkpt lat="47.80366" lon="7.06358">
        <ele>706.79998779297</ele>
        <time>2021-05-30T08:40:49.000Z</time>
      </trkpt>
      <trkpt lat="47.80364" lon="7.06364">
        <ele>706.79998779297</ele>
        <time>2021-05-30T08:40:50.000Z</time>
      </trkpt>
      <trkpt lat="47.80357" lon="7.06376">
        <ele>706.79998779297</ele>
        <time>2021-05-30T08:40:52.000Z</time>
      </trkpt>
      <trkpt lat="47.80354" lon="7.06382">
        <ele>706.40002441406</ele>
        <time>2021-05-30T08:40:53.000Z</time>
      </trkpt>
      <trkpt lat="47.8035" lon="7.06388">
        <ele>706</ele>
        <time>2021-05-30T08:40:54.000Z</time>
      </trkpt>
      <trkpt lat="47.80347" lon="7.06394">
        <ele>705.20001220703</ele>
        <time>2021-05-30T08:40:55.000Z</time>
      </trkpt>
      <trkpt lat="47.80344" lon="7.064">
        <ele>704.59997558594</ele>
        <time>2021-05-30T08:40:56.000Z</time>
      </trkpt>
      <trkpt lat="47.80336" lon="7.06414">
        <ele>704.59997558594</ele>
        <time>2021-05-30T08:40:59.000Z</time>
      </trkpt>
      <trkpt lat="47.80331" lon="7.06425">
        <ele>704.59997558594</ele>
        <time>2021-05-30T08:41:02.000Z</time>
      </trkpt>
      <trkpt lat="47.8033" lon="7.06429">
        <ele>704.59997558594</ele>
        <time>2021-05-30T08:41:03.000Z</time>
      </trkpt>
      <trkpt lat="47.80327" lon="7.06441">
        <ele>704.59997558594</ele>
        <time>2021-05-30T08:41:07.000Z</time>
      </trkpt>
      <trkpt lat="47.80326" lon="7.06446">
        <ele>704.59997558594</ele>
        <time>2021-05-30T08:41:09.000Z</time>
      </trkpt>
      <trkpt lat="47.80322" lon="7.0647">
        <ele>704.59997558594</ele>
        <time>2021-05-30T08:41:15.000Z</time>
      </trkpt>
      <trkpt lat="47.80315" lon="7.06499">
        <ele>704.59997558594</ele>
        <time>2021-05-30T08:41:20.000Z</time>
      </trkpt>
      <trkpt lat="47.80312" lon="7.06525">
        <ele>704.59997558594</ele>
        <time>2021-05-30T08:41:24.000Z</time>
      </trkpt>
      <trkpt lat="47.8031" lon="7.06549">
        <ele>704.59997558594</ele>
        <time>2021-05-30T08:41:27.000Z</time>
      </trkpt>
      <trkpt lat="47.80311" lon="7.06564">
        <ele>704.59997558594</ele>
        <time>2021-05-30T08:41:29.000Z</time>
      </trkpt>
      <trkpt lat="47.80314" lon="7.06583">
        <ele>704.59997558594</ele>
        <time>2021-05-30T08:41:34.000Z</time>
      </trkpt>
      <trkpt lat="47.80321" lon="7.06599">
        <ele>704.59997558594</ele>
        <time>2021-05-30T08:41:39.000Z</time>
      </trkpt>
      <trkpt lat="47.80333" lon="7.06623">
        <ele>704.59997558594</ele>
        <time>2021-05-30T08:41:45.000Z</time>
      </trkpt>
      <trkpt lat="47.80345" lon="7.06641">
        <ele>704.20001220703</ele>
        <time>2021-05-30T08:41:48.000Z</time>
      </trkpt>
      <trkpt lat="47.8035" lon="7.06648">
        <ele>703.59997558594</ele>
        <time>2021-05-30T08:41:49.000Z</time>
      </trkpt>
      <trkpt lat="47.80355" lon="7.06653">
        <ele>703.20001220703</ele>
        <time>2021-05-30T08:41:50.000Z</time>
      </trkpt>
      <trkpt lat="47.80359" lon="7.06659">
        <ele>702.59997558594</ele>
        <time>2021-05-30T08:41:51.000Z</time>
      </trkpt>
      <trkpt lat="47.80362" lon="7.06666">
        <ele>701.79998779297</ele>
        <time>2021-05-30T08:41:52.000Z</time>
      </trkpt>
      <trkpt lat="47.80366" lon="7.06673">
        <ele>701</ele>
        <time>2021-05-30T08:41:53.000Z</time>
      </trkpt>
      <trkpt lat="47.80368" lon="7.06679">
        <ele>700</ele>
        <time>2021-05-30T08:41:54.000Z</time>
      </trkpt>
      <trkpt lat="47.8037" lon="7.06687">
        <ele>699</ele>
        <time>2021-05-30T08:41:55.000Z</time>
      </trkpt>
      <trkpt lat="47.80371" lon="7.06695">
        <ele>698</ele>
        <time>2021-05-30T08:41:56.000Z</time>
      </trkpt>
      <trkpt lat="47.80371" lon="7.06704">
        <ele>697.20001220703</ele>
        <time>2021-05-30T08:41:57.000Z</time>
      </trkpt>
      <trkpt lat="47.80372" lon="7.06712">
        <ele>696.20001220703</ele>
        <time>2021-05-30T08:41:58.000Z</time>
      </trkpt>
      <trkpt lat="47.80373" lon="7.0672">
        <ele>695.40002441406</ele>
        <time>2021-05-30T08:41:59.000Z</time>
      </trkpt>
      <trkpt lat="47.80374" lon="7.06728">
        <ele>694.59997558594</ele>
        <time>2021-05-30T08:42:00.000Z</time>
      </trkpt>
      <trkpt lat="47.80375" lon="7.06736">
        <ele>693.79998779297</ele>
        <time>2021-05-30T08:42:01.000Z</time>
      </trkpt>
      <trkpt lat="47.80375" lon="7.06745">
        <ele>693.20001220703</ele>
        <time>2021-05-30T08:42:02.000Z</time>
      </trkpt>
      <trkpt lat="47.80375" lon="7.06755">
        <ele>692.59997558594</ele>
        <time>2021-05-30T08:42:03.000Z</time>
      </trkpt>
      <trkpt lat="47.80374" lon="7.06761">
        <ele>691.79998779297</ele>
        <time>2021-05-30T08:42:04.000Z</time>
      </trkpt>
      <trkpt lat="47.80372" lon="7.06765">
        <ele>691</ele>
        <time>2021-05-30T08:42:05.000Z</time>
      </trkpt>
      <trkpt lat="47.8037" lon="7.06767">
        <ele>690.20001220703</ele>
        <time>2021-05-30T08:42:06.000Z</time>
      </trkpt>
      <trkpt lat="47.80367" lon="7.0677">
        <ele>689.40002441406</ele>
        <time>2021-05-30T08:42:07.000Z</time>
      </trkpt>
      <trkpt lat="47.80364" lon="7.06773">
        <ele>688.59997558594</ele>
        <time>2021-05-30T08:42:08.000Z</time>
      </trkpt>
      <trkpt lat="47.8036" lon="7.06776">
        <ele>687</ele>
        <time>2021-05-30T08:42:09.000Z</time>
      </trkpt>
      <trkpt lat="47.80356" lon="7.0678">
        <ele>686.20001220703</ele>
        <time>2021-05-30T08:42:10.000Z</time>
      </trkpt>
      <trkpt lat="47.80351" lon="7.06784">
        <ele>685.40002441406</ele>
        <time>2021-05-30T08:42:11.000Z</time>
      </trkpt>
      <trkpt lat="47.80346" lon="7.06789">
        <ele>684.59997558594</ele>
        <time>2021-05-30T08:42:12.000Z</time>
      </trkpt>
      <trkpt lat="47.80341" lon="7.06793">
        <ele>683.79998779297</ele>
        <time>2021-05-30T08:42:13.000Z</time>
      </trkpt>
      <trkpt lat="47.80336" lon="7.06798">
        <ele>683</ele>
        <time>2021-05-30T08:42:14.000Z</time>
      </trkpt>
      <trkpt lat="47.80332" lon="7.06802">
        <ele>682.20001220703</ele>
        <time>2021-05-30T08:42:15.000Z</time>
      </trkpt>
      <trkpt lat="47.80328" lon="7.06807">
        <ele>681.40002441406</ele>
        <time>2021-05-30T08:42:16.000Z</time>
      </trkpt>
      <trkpt lat="47.80324" lon="7.06811">
        <ele>680.59997558594</ele>
        <time>2021-05-30T08:42:17.000Z</time>
      </trkpt>
      <trkpt lat="47.8032" lon="7.06817">
        <ele>679.79998779297</ele>
        <time>2021-05-30T08:42:18.000Z</time>
      </trkpt>
      <trkpt lat="47.80315" lon="7.06824">
        <ele>679</ele>
        <time>2021-05-30T08:42:19.000Z</time>
      </trkpt>
      <trkpt lat="47.80311" lon="7.06831">
        <ele>678</ele>
        <time>2021-05-30T08:42:20.000Z</time>
      </trkpt>
      <trkpt lat="47.80307" lon="7.06838">
        <ele>677</ele>
        <time>2021-05-30T08:42:21.000Z</time>
      </trkpt>
      <trkpt lat="47.80302" lon="7.06845">
        <ele>676</ele>
        <time>2021-05-30T08:42:22.000Z</time>
      </trkpt>
      <trkpt lat="47.80297" lon="7.06851">
        <ele>675.20001220703</ele>
        <time>2021-05-30T08:42:23.000Z</time>
      </trkpt>
      <trkpt lat="47.80291" lon="7.06858">
        <ele>674.20001220703</ele>
        <time>2021-05-30T08:42:24.000Z</time>
      </trkpt>
      <trkpt lat="47.80287" lon="7.06866">
        <ele>673.20001220703</ele>
        <time>2021-05-30T08:42:25.000Z</time>
      </trkpt>
      <trkpt lat="47.80283" lon="7.06875">
        <ele>672.40002441406</ele>
        <time>2021-05-30T08:42:26.000Z</time>
      </trkpt>
      <trkpt lat="47.80279" lon="7.06884">
        <ele>671.40002441406</ele>
        <time>2021-05-30T08:42:27.000Z</time>
      </trkpt>
      <trkpt lat="47.80276" lon="7.06894">
        <ele>670.59997558594</ele>
        <time>2021-05-30T08:42:28.000Z</time>
      </trkpt>
      <trkpt lat="47.80274" lon="7.06902">
        <ele>669.79998779297</ele>
        <time>2021-05-30T08:42:29.000Z</time>
      </trkpt>
      <trkpt lat="47.80272" lon="7.0691">
        <ele>669</ele>
        <time>2021-05-30T08:42:30.000Z</time>
      </trkpt>
      <trkpt lat="47.80272" lon="7.06918">
        <ele>668.20001220703</ele>
        <time>2021-05-30T08:42:31.000Z</time>
      </trkpt>
      <trkpt lat="47.80273" lon="7.06926">
        <ele>667.20001220703</ele>
        <time>2021-05-30T08:42:32.000Z</time>
      </trkpt>
      <trkpt lat="47.80275" lon="7.06934">
        <ele>665.20001220703</ele>
        <time>2021-05-30T08:42:33.000Z</time>
      </trkpt>
      <trkpt lat="47.80277" lon="7.06943">
        <ele>664</ele>
        <time>2021-05-30T08:42:34.000Z</time>
      </trkpt>
      <trkpt lat="47.8028" lon="7.06952">
        <ele>663</ele>
        <time>2021-05-30T08:42:35.000Z</time>
      </trkpt>
      <trkpt lat="47.80281" lon="7.06962">
        <ele>661.79998779297</ele>
        <time>2021-05-30T08:42:36.000Z</time>
      </trkpt>
      <trkpt lat="47.80282" lon="7.06973">
        <ele>660.59997558594</ele>
        <time>2021-05-30T08:42:37.000Z</time>
      </trkpt>
      <trkpt lat="47.80283" lon="7.06985">
        <ele>659.59997558594</ele>
        <time>2021-05-30T08:42:38.000Z</time>
      </trkpt>
      <trkpt lat="47.80283" lon="7.06995">
        <ele>658.59997558594</ele>
        <time>2021-05-30T08:42:39.000Z</time>
      </trkpt>
      <trkpt lat="47.80283" lon="7.07005">
        <ele>657.79998779297</ele>
        <time>2021-05-30T08:42:40.000Z</time>
      </trkpt>
      <trkpt lat="47.80283" lon="7.07015">
        <ele>656.79998779297</ele>
        <time>2021-05-30T08:42:41.000Z</time>
      </trkpt>
      <trkpt lat="47.80283" lon="7.07023">
        <ele>655.79998779297</ele>
        <time>2021-05-30T08:42:42.000Z</time>
      </trkpt>
      <trkpt lat="47.80282" lon="7.07031">
        <ele>654.79998779297</ele>
        <time>2021-05-30T08:42:43.000Z</time>
      </trkpt>
      <trkpt lat="47.8028" lon="7.07037">
        <ele>653.79998779297</ele>
        <time>2021-05-30T08:42:44.000Z</time>
      </trkpt>
      <trkpt lat="47.80278" lon="7.07044">
        <ele>652.79998779297</ele>
        <time>2021-05-30T08:42:45.000Z</time>
      </trkpt>
      <trkpt lat="47.80274" lon="7.07051">
        <ele>652</ele>
        <time>2021-05-30T08:42:46.000Z</time>
      </trkpt>
      <trkpt lat="47.80269" lon="7.07059">
        <ele>651.20001220703</ele>
        <time>2021-05-30T08:42:47.000Z</time>
      </trkpt>
      <trkpt lat="47.80265" lon="7.07067">
        <ele>650.20001220703</ele>
        <time>2021-05-30T08:42:48.000Z</time>
      </trkpt>
      <trkpt lat="47.8026" lon="7.07076">
        <ele>649.20001220703</ele>
        <time>2021-05-30T08:42:49.000Z</time>
      </trkpt>
      <trkpt lat="47.80256" lon="7.07083">
        <ele>648.40002441406</ele>
        <time>2021-05-30T08:42:50.000Z</time>
      </trkpt>
      <trkpt lat="47.80253" lon="7.07089">
        <ele>647.40002441406</ele>
        <time>2021-05-30T08:42:51.000Z</time>
      </trkpt>
      <trkpt lat="47.8025" lon="7.07094">
        <ele>646.20001220703</ele>
        <time>2021-05-30T08:42:52.000Z</time>
      </trkpt>
      <trkpt lat="47.80248" lon="7.07098">
        <ele>645.20001220703</ele>
        <time>2021-05-30T08:42:53.000Z</time>
      </trkpt>
      <trkpt lat="47.80245" lon="7.07101">
        <ele>644.40002441406</ele>
        <time>2021-05-30T08:42:54.000Z</time>
      </trkpt>
      <trkpt lat="47.80243" lon="7.07104">
        <ele>643.40002441406</ele>
        <time>2021-05-30T08:42:55.000Z</time>
      </trkpt>
      <trkpt lat="47.80241" lon="7.07107">
        <ele>642.40002441406</ele>
        <time>2021-05-30T08:42:56.000Z</time>
      </trkpt>
      <trkpt lat="47.80238" lon="7.07111">
        <ele>641.59997558594</ele>
        <time>2021-05-30T08:42:57.000Z</time>
      </trkpt>
      <trkpt lat="47.80236" lon="7.07115">
        <ele>639.59997558594</ele>
        <time>2021-05-30T08:42:58.000Z</time>
      </trkpt>
      <trkpt lat="47.80234" lon="7.07121">
        <ele>638.59997558594</ele>
        <time>2021-05-30T08:42:59.000Z</time>
      </trkpt>
      <trkpt lat="47.80232" lon="7.07127">
        <ele>637.40002441406</ele>
        <time>2021-05-30T08:43:00.000Z</time>
      </trkpt>
      <trkpt lat="47.8023" lon="7.07136">
        <ele>636.20001220703</ele>
        <time>2021-05-30T08:43:01.000Z</time>
      </trkpt>
      <trkpt lat="47.80226" lon="7.07145">
        <ele>635.20001220703</ele>
        <time>2021-05-30T08:43:02.000Z</time>
      </trkpt>
      <trkpt lat="47.80222" lon="7.07154">
        <ele>634</ele>
        <time>2021-05-30T08:43:03.000Z</time>
      </trkpt>
      <trkpt lat="47.80216" lon="7.07159">
        <ele>632.79998779297</ele>
        <time>2021-05-30T08:43:04.000Z</time>
      </trkpt>
      <trkpt lat="47.80212" lon="7.07161">
        <ele>631.79998779297</ele>
        <time>2021-05-30T08:43:05.000Z</time>
      </trkpt>
      <trkpt lat="47.80208" lon="7.0716">
        <ele>631</ele>
        <time>2021-05-30T08:43:06.000Z</time>
      </trkpt>
      <trkpt lat="47.80203" lon="7.07159">
        <ele>630</ele>
        <time>2021-05-30T08:43:07.000Z</time>
      </trkpt>
      <trkpt lat="47.80198" lon="7.07158">
        <ele>629.20001220703</ele>
        <time>2021-05-30T08:43:08.000Z</time>
      </trkpt>
      <trkpt lat="47.80193" lon="7.07157">
        <ele>628.20001220703</ele>
        <time>2021-05-30T08:43:09.000Z</time>
      </trkpt>
      <trkpt lat="47.80189" lon="7.07158">
        <ele>628.20001220703</ele>
        <time>2021-05-30T08:43:10.000Z</time>
      </trkpt>
      <trkpt lat="47.80186" lon="7.0716">
        <ele>627.79998779297</ele>
        <time>2021-05-30T08:43:11.000Z</time>
      </trkpt>
      <trkpt lat="47.80183" lon="7.07164">
        <ele>627.40002441406</ele>
        <time>2021-05-30T08:43:12.000Z</time>
      </trkpt>
      <trkpt lat="47.80181" lon="7.07168">
        <ele>626.79998779297</ele>
        <time>2021-05-30T08:43:13.000Z</time>
      </trkpt>
      <trkpt lat="47.80178" lon="7.07173">
        <ele>626.20001220703</ele>
        <time>2021-05-30T08:43:14.000Z</time>
      </trkpt>
      <trkpt lat="47.80175" lon="7.07177">
        <ele>625.40002441406</ele>
        <time>2021-05-30T08:43:15.000Z</time>
      </trkpt>
      <trkpt lat="47.80172" lon="7.07183">
        <ele>624.59997558594</ele>
        <time>2021-05-30T08:43:16.000Z</time>
      </trkpt>
      <trkpt lat="47.80169" lon="7.07189">
        <ele>623.79998779297</ele>
        <time>2021-05-30T08:43:17.000Z</time>
      </trkpt>
      <trkpt lat="47.80166" lon="7.07196">
        <ele>623</ele>
        <time>2021-05-30T08:43:18.000Z</time>
      </trkpt>
      <trkpt lat="47.80165" lon="7.07203">
        <ele>622.20001220703</ele>
        <time>2021-05-30T08:43:19.000Z</time>
      </trkpt>
      <trkpt lat="47.80163" lon="7.07211">
        <ele>621.40002441406</ele>
        <time>2021-05-30T08:43:20.000Z</time>
      </trkpt>
      <trkpt lat="47.80161" lon="7.07222">
        <ele>620.40002441406</ele>
        <time>2021-05-30T08:43:21.000Z</time>
      </trkpt>
      <trkpt lat="47.80159" lon="7.0723">
        <ele>619.59997558594</ele>
        <time>2021-05-30T08:43:22.000Z</time>
      </trkpt>
      <trkpt lat="47.80157" lon="7.07237">
        <ele>617.79998779297</ele>
        <time>2021-05-30T08:43:23.000Z</time>
      </trkpt>
      <trkpt lat="47.80154" lon="7.07255">
        <ele>617.79998779297</ele>
        <time>2021-05-30T08:43:27.000Z</time>
      </trkpt>
      <trkpt lat="47.80151" lon="7.07272">
        <ele>617.79998779297</ele>
        <time>2021-05-30T08:43:32.000Z</time>
      </trkpt>
      <trkpt lat="47.8015" lon="7.07294">
        <ele>617.79998779297</ele>
        <time>2021-05-30T08:43:37.000Z</time>
      </trkpt>
      <trkpt lat="47.8015" lon="7.0731">
        <ele>617.79998779297</ele>
        <time>2021-05-30T08:43:41.000Z</time>
      </trkpt>
      <trkpt lat="47.80151" lon="7.07314">
        <ele>617.79998779297</ele>
        <time>2021-05-30T08:43:42.000Z</time>
      </trkpt>
      <trkpt lat="47.80152" lon="7.07345">
        <ele>617.79998779297</ele>
        <time>2021-05-30T08:43:49.000Z</time>
      </trkpt>
      <trkpt lat="47.80155" lon="7.07371">
        <ele>617.79998779297</ele>
        <time>2021-05-30T08:43:55.000Z</time>
      </trkpt>
      <trkpt lat="47.80154" lon="7.07398">
        <ele>617.79998779297</ele>
        <time>2021-05-30T08:44:01.000Z</time>
      </trkpt>
      <trkpt lat="47.80155" lon="7.07416">
        <ele>618.20001220703</ele>
        <time>2021-05-30T08:44:05.000Z</time>
      </trkpt>
      <trkpt lat="47.80155" lon="7.0742">
        <ele>618.59997558594</ele>
        <time>2021-05-30T08:44:06.000Z</time>
      </trkpt>
      <trkpt lat="47.80155" lon="7.07425">
        <ele>619.20001220703</ele>
        <time>2021-05-30T08:44:07.000Z</time>
      </trkpt>
      <trkpt lat="47.80154" lon="7.07429">
        <ele>619.59997558594</ele>
        <time>2021-05-30T08:44:08.000Z</time>
      </trkpt>
      <trkpt lat="47.80153" lon="7.07434">
        <ele>620</ele>
        <time>2021-05-30T08:44:09.000Z</time>
      </trkpt>
      <trkpt lat="47.80151" lon="7.07448">
        <ele>620</ele>
        <time>2021-05-30T08:44:12.000Z</time>
      </trkpt>
      <trkpt lat="47.80149" lon="7.07472">
        <ele>620</ele>
        <time>2021-05-30T08:44:17.000Z</time>
      </trkpt>
      <trkpt lat="47.8015" lon="7.07495">
        <ele>620</ele>
        <time>2021-05-30T08:44:23.000Z</time>
      </trkpt>
      <trkpt lat="47.8016" lon="7.07521">
        <ele>620</ele>
        <time>2021-05-30T08:44:28.000Z</time>
      </trkpt>
      <trkpt lat="47.8017" lon="7.07539">
        <ele>620</ele>
        <time>2021-05-30T08:44:32.000Z</time>
      </trkpt>
      <trkpt lat="47.80173" lon="7.07542">
        <ele>620</ele>
        <time>2021-05-30T08:44:33.000Z</time>
      </trkpt>
      <trkpt lat="47.80188" lon="7.07551">
        <ele>620</ele>
        <time>2021-05-30T08:44:37.000Z</time>
      </trkpt>
      <trkpt lat="47.80206" lon="7.07567">
        <ele>620</ele>
        <time>2021-05-30T08:44:42.000Z</time>
      </trkpt>
      <trkpt lat="47.80223" lon="7.07588">
        <ele>619.59997558594</ele>
        <time>2021-05-30T08:44:47.000Z</time>
      </trkpt>
      <trkpt lat="47.80226" lon="7.07592">
        <ele>619.20001220703</ele>
        <time>2021-05-30T08:44:48.000Z</time>
      </trkpt>
      <trkpt lat="47.80228" lon="7.07596">
        <ele>618.79998779297</ele>
        <time>2021-05-30T08:44:49.000Z</time>
      </trkpt>
      <trkpt lat="47.80231" lon="7.076">
        <ele>618.40002441406</ele>
        <time>2021-05-30T08:44:50.000Z</time>
      </trkpt>
      <trkpt lat="47.80234" lon="7.07603">
        <ele>618</ele>
        <time>2021-05-30T08:44:51.000Z</time>
      </trkpt>
      <trkpt lat="47.80245" lon="7.07616">
        <ele>618</ele>
        <time>2021-05-30T08:44:54.000Z</time>
      </trkpt>
      <trkpt lat="47.80269" lon="7.07641">
        <ele>618</ele>
        <time>2021-05-30T08:45:00.000Z</time>
      </trkpt>
      <trkpt lat="47.80276" lon="7.07651">
        <ele>618</ele>
        <time>2021-05-30T08:45:02.000Z</time>
      </trkpt>
      <trkpt lat="47.80282" lon="7.07668">
        <ele>618</ele>
        <time>2021-05-30T08:45:05.000Z</time>
      </trkpt>
      <trkpt lat="47.80293" lon="7.07697">
        <ele>618</ele>
        <time>2021-05-30T08:45:09.000Z</time>
      </trkpt>
      <trkpt lat="47.80294" lon="7.07701">
        <ele>617.40002441406</ele>
        <time>2021-05-30T08:45:10.000Z</time>
      </trkpt>
      <trkpt lat="47.80295" lon="7.07703">
        <ele>617</ele>
        <time>2021-05-30T08:45:11.000Z</time>
      </trkpt>
      <trkpt lat="47.80295" lon="7.07705">
        <ele>616.59997558594</ele>
        <time>2021-05-30T08:45:12.000Z</time>
      </trkpt>
      <trkpt lat="47.80295" lon="7.07709">
        <ele>615.59997558594</ele>
        <time>2021-05-30T08:45:21.000Z</time>
      </trkpt>
      <trkpt lat="47.80295" lon="7.07714">
        <ele>615.59997558594</ele>
        <time>2021-05-30T08:45:23.000Z</time>
      </trkpt>
      <trkpt lat="47.80294" lon="7.07723">
        <ele>615.59997558594</ele>
        <time>2021-05-30T08:45:25.000Z</time>
      </trkpt>
      <trkpt lat="47.8029" lon="7.07752">
        <ele>615.59997558594</ele>
        <time>2021-05-30T08:45:31.000Z</time>
      </trkpt>
      <trkpt lat="47.80289" lon="7.07761">
        <ele>616</ele>
        <time>2021-05-30T08:45:33.000Z</time>
      </trkpt>
      <trkpt lat="47.80289" lon="7.07766">
        <ele>616.40002441406</ele>
        <time>2021-05-30T08:45:34.000Z</time>
      </trkpt>
      <trkpt lat="47.80288" lon="7.07772">
        <ele>617</ele>
        <time>2021-05-30T08:45:35.000Z</time>
      </trkpt>
      <trkpt lat="47.80288" lon="7.07776">
        <ele>617.40002441406</ele>
        <time>2021-05-30T08:45:36.000Z</time>
      </trkpt>
      <trkpt lat="47.80288" lon="7.0778">
        <ele>617.79998779297</ele>
        <time>2021-05-30T08:45:37.000Z</time>
      </trkpt>
      <trkpt lat="47.80288" lon="7.07783">
        <ele>618.20001220703</ele>
        <time>2021-05-30T08:45:38.000Z</time>
      </trkpt>
      <trkpt lat="47.80288" lon="7.07786">
        <ele>618.79998779297</ele>
        <time>2021-05-30T08:45:39.000Z</time>
      </trkpt>
      <trkpt lat="47.80288" lon="7.07789">
        <ele>619.20001220703</ele>
        <time>2021-05-30T08:45:40.000Z</time>
      </trkpt>
      <trkpt lat="47.80288" lon="7.07792">
        <ele>619.59997558594</ele>
        <time>2021-05-30T08:45:41.000Z</time>
      </trkpt>
      <trkpt lat="47.80288" lon="7.07795">
        <ele>620.20001220703</ele>
        <time>2021-05-30T08:45:42.000Z</time>
      </trkpt>
      <trkpt lat="47.80288" lon="7.07798">
        <ele>620.59997558594</ele>
        <time>2021-05-30T08:45:43.000Z</time>
      </trkpt>
      <trkpt lat="47.80287" lon="7.07801">
        <ele>621.20001220703</ele>
        <time>2021-05-30T08:45:44.000Z</time>
      </trkpt>
      <trkpt lat="47.80288" lon="7.07804">
        <ele>621.79998779297</ele>
        <time>2021-05-30T08:45:45.000Z</time>
      </trkpt>
      <trkpt lat="47.80288" lon="7.07807">
        <ele>622.20001220703</ele>
        <time>2021-05-30T08:45:46.000Z</time>
      </trkpt>
      <trkpt lat="47.80289" lon="7.07817">
        <ele>622.59997558594</ele>
        <time>2021-05-30T08:45:49.000Z</time>
      </trkpt>
      <trkpt lat="47.8029" lon="7.07819">
        <ele>623</ele>
        <time>2021-05-30T08:45:50.000Z</time>
      </trkpt>
      <trkpt lat="47.8029" lon="7.07822">
        <ele>623.79998779297</ele>
        <time>2021-05-30T08:45:51.000Z</time>
      </trkpt>
      <trkpt lat="47.80291" lon="7.07825">
        <ele>624.20001220703</ele>
        <time>2021-05-30T08:45:52.000Z</time>
      </trkpt>
      <trkpt lat="47.8029" lon="7.07836">
        <ele>624.59997558594</ele>
        <time>2021-05-30T08:45:56.000Z</time>
      </trkpt>
      <trkpt lat="47.80291" lon="7.07838">
        <ele>625.20001220703</ele>
        <time>2021-05-30T08:45:57.000Z</time>
      </trkpt>
      <trkpt lat="47.8029" lon="7.0784">
        <ele>625.59997558594</ele>
        <time>2021-05-30T08:45:58.000Z</time>
      </trkpt>
      <trkpt lat="47.8029" lon="7.07843">
        <ele>626</ele>
        <time>2021-05-30T08:45:59.000Z</time>
      </trkpt>
      <trkpt lat="47.8029" lon="7.07845">
        <ele>626.40002441406</ele>
        <time>2021-05-30T08:46:00.000Z</time>
      </trkpt>
      <trkpt lat="47.80288" lon="7.07857">
        <ele>626.79998779297</ele>
        <time>2021-05-30T08:46:05.000Z</time>
      </trkpt>
      <trkpt lat="47.80288" lon="7.0786">
        <ele>627.20001220703</ele>
        <time>2021-05-30T08:46:06.000Z</time>
      </trkpt>
      <trkpt lat="47.80288" lon="7.07863">
        <ele>627.59997558594</ele>
        <time>2021-05-30T08:46:07.000Z</time>
      </trkpt>
      <trkpt lat="47.80288" lon="7.07867">
        <ele>628.20001220703</ele>
        <time>2021-05-30T08:46:08.000Z</time>
      </trkpt>
      <trkpt lat="47.80288" lon="7.07869">
        <ele>628.59997558594</ele>
        <time>2021-05-30T08:46:09.000Z</time>
      </trkpt>
      <trkpt lat="47.80288" lon="7.07874">
        <ele>628.59997558594</ele>
        <time>2021-05-30T08:46:11.000Z</time>
      </trkpt>
      <trkpt lat="47.80289" lon="7.07876">
        <ele>629</ele>
        <time>2021-05-30T08:46:12.000Z</time>
      </trkpt>
      <trkpt lat="47.80289" lon="7.07878">
        <ele>629.40002441406</ele>
        <time>2021-05-30T08:46:13.000Z</time>
      </trkpt>
      <trkpt lat="47.80288" lon="7.07881">
        <ele>629.79998779297</ele>
        <time>2021-05-30T08:46:14.000Z</time>
      </trkpt>
      <trkpt lat="47.80287" lon="7.07884">
        <ele>630.20001220703</ele>
        <time>2021-05-30T08:46:15.000Z</time>
      </trkpt>
      <trkpt lat="47.80286" lon="7.07887">
        <ele>630.59997558594</ele>
        <time>2021-05-30T08:46:16.000Z</time>
      </trkpt>
      <trkpt lat="47.80285" lon="7.0789">
        <ele>631</ele>
        <time>2021-05-30T08:46:17.000Z</time>
      </trkpt>
      <trkpt lat="47.80285" lon="7.07893">
        <ele>631.40002441406</ele>
        <time>2021-05-30T08:46:18.000Z</time>
      </trkpt>
      <trkpt lat="47.80285" lon="7.07897">
        <ele>631.79998779297</ele>
        <time>2021-05-30T08:46:19.000Z</time>
      </trkpt>
      <trkpt lat="47.80285" lon="7.079">
        <ele>632.20001220703</ele>
        <time>2021-05-30T08:46:20.000Z</time>
      </trkpt>
      <trkpt lat="47.80284" lon="7.07902">
        <ele>632.59997558594</ele>
        <time>2021-05-30T08:46:21.000Z</time>
      </trkpt>
      <trkpt lat="47.80284" lon="7.07905">
        <ele>633</ele>
        <time>2021-05-30T08:46:22.000Z</time>
      </trkpt>
      <trkpt lat="47.80283" lon="7.07909">
        <ele>633.40002441406</ele>
        <time>2021-05-30T08:46:23.000Z</time>
      </trkpt>
      <trkpt lat="47.80283" lon="7.07913">
        <ele>633.79998779297</ele>
        <time>2021-05-30T08:46:24.000Z</time>
      </trkpt>
      <trkpt lat="47.80282" lon="7.07916">
        <ele>634.20001220703</ele>
        <time>2021-05-30T08:46:25.000Z</time>
      </trkpt>
      <trkpt lat="47.80282" lon="7.0792">
        <ele>634.59997558594</ele>
        <time>2021-05-30T08:46:26.000Z</time>
      </trkpt>
      <trkpt lat="47.80281" lon="7.07926">
        <ele>634.59997558594</ele>
        <time>2021-05-30T08:46:28.000Z</time>
      </trkpt>
      <trkpt lat="47.80281" lon="7.07928">
        <ele>635</ele>
        <time>2021-05-30T08:46:29.000Z</time>
      </trkpt>
      <trkpt lat="47.80282" lon="7.07932">
        <ele>635.40002441406</ele>
        <time>2021-05-30T08:46:30.000Z</time>
      </trkpt>
      <trkpt lat="47.80282" lon="7.07935">
        <ele>635.79998779297</ele>
        <time>2021-05-30T08:46:31.000Z</time>
      </trkpt>
      <trkpt lat="47.80281" lon="7.07938">
        <ele>636.20001220703</ele>
        <time>2021-05-30T08:46:32.000Z</time>
      </trkpt>
      <trkpt lat="47.80281" lon="7.0794">
        <ele>636.79998779297</ele>
        <time>2021-05-30T08:46:33.000Z</time>
      </trkpt>
      <trkpt lat="47.80281" lon="7.07945">
        <ele>636.79998779297</ele>
        <time>2021-05-30T08:46:35.000Z</time>
      </trkpt>
      <trkpt lat="47.8028" lon="7.0795">
        <ele>637.20001220703</ele>
        <time>2021-05-30T08:46:37.000Z</time>
      </trkpt>
      <trkpt lat="47.80279" lon="7.07953">
        <ele>637.59997558594</ele>
        <time>2021-05-30T08:46:38.000Z</time>
      </trkpt>
      <trkpt lat="47.80279" lon="7.07956">
        <ele>638</ele>
        <time>2021-05-30T08:46:39.000Z</time>
      </trkpt>
      <trkpt lat="47.80278" lon="7.0796">
        <ele>638.40002441406</ele>
        <time>2021-05-30T08:46:40.000Z</time>
      </trkpt>
      <trkpt lat="47.80277" lon="7.07964">
        <ele>639.20001220703</ele>
        <time>2021-05-30T08:46:41.000Z</time>
      </trkpt>
      <trkpt lat="47.80276" lon="7.07968">
        <ele>639.59997558594</ele>
        <time>2021-05-30T08:46:42.000Z</time>
      </trkpt>
      <trkpt lat="47.80275" lon="7.07972">
        <ele>640</ele>
        <time>2021-05-30T08:46:43.000Z</time>
      </trkpt>
      <trkpt lat="47.80274" lon="7.07976">
        <ele>640.40002441406</ele>
        <time>2021-05-30T08:46:44.000Z</time>
      </trkpt>
      <trkpt lat="47.80274" lon="7.07979">
        <ele>640.79998779297</ele>
        <time>2021-05-30T08:46:45.000Z</time>
      </trkpt>
      <trkpt lat="47.80275" lon="7.07986">
        <ele>640.79998779297</ele>
        <time>2021-05-30T08:46:47.000Z</time>
      </trkpt>
      <trkpt lat="47.80276" lon="7.07991">
        <ele>641.20001220703</ele>
        <time>2021-05-30T08:46:49.000Z</time>
      </trkpt>
      <trkpt lat="47.80276" lon="7.07994">
        <ele>641.59997558594</ele>
        <time>2021-05-30T08:46:50.000Z</time>
      </trkpt>
      <trkpt lat="47.80276" lon="7.07997">
        <ele>642</ele>
        <time>2021-05-30T08:46:51.000Z</time>
      </trkpt>
      <trkpt lat="47.80276" lon="7.07999">
        <ele>642.40002441406</ele>
        <time>2021-05-30T08:46:52.000Z</time>
      </trkpt>
      <trkpt lat="47.80276" lon="7.08002">
        <ele>643</ele>
        <time>2021-05-30T08:46:53.000Z</time>
      </trkpt>
      <trkpt lat="47.80273" lon="7.08015">
        <ele>643.40002441406</ele>
        <time>2021-05-30T08:46:57.000Z</time>
      </trkpt>
      <trkpt lat="47.80272" lon="7.08019">
        <ele>643.79998779297</ele>
        <time>2021-05-30T08:46:58.000Z</time>
      </trkpt>
      <trkpt lat="47.80271" lon="7.08022">
        <ele>644.20001220703</ele>
        <time>2021-05-30T08:46:59.000Z</time>
      </trkpt>
      <trkpt lat="47.80269" lon="7.08025">
        <ele>644.59997558594</ele>
        <time>2021-05-30T08:47:00.000Z</time>
      </trkpt>
      <trkpt lat="47.80268" lon="7.08028">
        <ele>645</ele>
        <time>2021-05-30T08:47:01.000Z</time>
      </trkpt>
      <trkpt lat="47.80267" lon="7.0803">
        <ele>645.40002441406</ele>
        <time>2021-05-30T08:47:02.000Z</time>
      </trkpt>
      <trkpt lat="47.80266" lon="7.08033">
        <ele>645.79998779297</ele>
        <time>2021-05-30T08:47:03.000Z</time>
      </trkpt>
      <trkpt lat="47.80266" lon="7.08036">
        <ele>646.40002441406</ele>
        <time>2021-05-30T08:47:04.000Z</time>
      </trkpt>
      <trkpt lat="47.80265" lon="7.08039">
        <ele>646.79998779297</ele>
        <time>2021-05-30T08:47:05.000Z</time>
      </trkpt>
      <trkpt lat="47.80265" lon="7.08042">
        <ele>647.40002441406</ele>
        <time>2021-05-30T08:47:06.000Z</time>
      </trkpt>
      <trkpt lat="47.80265" lon="7.08046">
        <ele>647.79998779297</ele>
        <time>2021-05-30T08:47:07.000Z</time>
      </trkpt>
      <trkpt lat="47.80265" lon="7.0805">
        <ele>648.20001220703</ele>
        <time>2021-05-30T08:47:08.000Z</time>
      </trkpt>
      <trkpt lat="47.80265" lon="7.08054">
        <ele>648.59997558594</ele>
        <time>2021-05-30T08:47:09.000Z</time>
      </trkpt>
      <trkpt lat="47.80264" lon="7.08057">
        <ele>649.20001220703</ele>
        <time>2021-05-30T08:47:10.000Z</time>
      </trkpt>
      <trkpt lat="47.80264" lon="7.08062">
        <ele>649.59997558594</ele>
        <time>2021-05-30T08:47:11.000Z</time>
      </trkpt>
      <trkpt lat="47.80264" lon="7.08076">
        <ele>649.59997558594</ele>
        <time>2021-05-30T08:47:14.000Z</time>
      </trkpt>
      <trkpt lat="47.80265" lon="7.08085">
        <ele>650</ele>
        <time>2021-05-30T08:47:16.000Z</time>
      </trkpt>
      <trkpt lat="47.80266" lon="7.08089">
        <ele>650.59997558594</ele>
        <time>2021-05-30T08:47:17.000Z</time>
      </trkpt>
      <trkpt lat="47.80267" lon="7.08092">
        <ele>651</ele>
        <time>2021-05-30T08:47:18.000Z</time>
      </trkpt>
      <trkpt lat="47.80267" lon="7.08096">
        <ele>651.40002441406</ele>
        <time>2021-05-30T08:47:19.000Z</time>
      </trkpt>
      <trkpt lat="47.80267" lon="7.08099">
        <ele>652</ele>
        <time>2021-05-30T08:47:20.000Z</time>
      </trkpt>
      <trkpt lat="47.80268" lon="7.08102">
        <ele>652.40002441406</ele>
        <time>2021-05-30T08:47:21.000Z</time>
      </trkpt>
      <trkpt lat="47.80269" lon="7.08105">
        <ele>652.79998779297</ele>
        <time>2021-05-30T08:47:22.000Z</time>
      </trkpt>
      <trkpt lat="47.80269" lon="7.08108">
        <ele>653.40002441406</ele>
        <time>2021-05-30T08:47:23.000Z</time>
      </trkpt>
      <trkpt lat="47.8027" lon="7.08111">
        <ele>653.79998779297</ele>
        <time>2021-05-30T08:47:24.000Z</time>
      </trkpt>
      <trkpt lat="47.8027" lon="7.08113">
        <ele>654.40002441406</ele>
        <time>2021-05-30T08:47:25.000Z</time>
      </trkpt>
      <trkpt lat="47.80269" lon="7.08121">
        <ele>654.40002441406</ele>
        <time>2021-05-30T08:47:28.000Z</time>
      </trkpt>
      <trkpt lat="47.80267" lon="7.08128">
        <ele>654.40002441406</ele>
        <time>2021-05-30T08:47:30.000Z</time>
      </trkpt>
      <trkpt lat="47.80264" lon="7.08146">
        <ele>654.40002441406</ele>
        <time>2021-05-30T08:47:35.000Z</time>
      </trkpt>
      <trkpt lat="47.80266" lon="7.08151">
        <ele>654.40002441406</ele>
        <time>2021-05-30T08:47:39.000Z</time>
      </trkpt>
      <trkpt lat="47.80264" lon="7.08166">
        <ele>654.40002441406</ele>
        <time>2021-05-30T08:51:12.000Z</time>
      </trkpt>
      <trkpt lat="47.80265" lon="7.08184">
        <ele>653.59997558594</ele>
        <time>2021-05-30T08:51:15.000Z</time>
      </trkpt>
      <trkpt lat="47.80266" lon="7.08191">
        <ele>653</ele>
        <time>2021-05-30T08:51:16.000Z</time>
      </trkpt>
      <trkpt lat="47.80265" lon="7.08198">
        <ele>652.40002441406</ele>
        <time>2021-05-30T08:51:17.000Z</time>
      </trkpt>
      <trkpt lat="47.80265" lon="7.08203">
        <ele>651.79998779297</ele>
        <time>2021-05-30T08:51:18.000Z</time>
      </trkpt>
      <trkpt lat="47.80264" lon="7.08208">
        <ele>651.20001220703</ele>
        <time>2021-05-30T08:51:19.000Z</time>
      </trkpt>
      <trkpt lat="47.80262" lon="7.08222">
        <ele>651.20001220703</ele>
        <time>2021-05-30T08:51:22.000Z</time>
      </trkpt>
      <trkpt lat="47.80262" lon="7.08228">
        <ele>651.20001220703</ele>
        <time>2021-05-30T08:51:23.000Z</time>
      </trkpt>
      <trkpt lat="47.8026" lon="7.08244">
        <ele>650.79998779297</ele>
        <time>2021-05-30T08:51:26.000Z</time>
      </trkpt>
      <trkpt lat="47.80259" lon="7.08247">
        <ele>650.40002441406</ele>
        <time>2021-05-30T08:51:27.000Z</time>
      </trkpt>
      <trkpt lat="47.80259" lon="7.08251">
        <ele>650</ele>
        <time>2021-05-30T08:51:28.000Z</time>
      </trkpt>
      <trkpt lat="47.80258" lon="7.08254">
        <ele>649.59997558594</ele>
        <time>2021-05-30T08:51:29.000Z</time>
      </trkpt>
      <trkpt lat="47.80258" lon="7.08257">
        <ele>649.20001220703</ele>
        <time>2021-05-30T08:51:30.000Z</time>
      </trkpt>
      <trkpt lat="47.80257" lon="7.08259">
        <ele>648.79998779297</ele>
        <time>2021-05-30T08:51:32.000Z</time>
      </trkpt>
      <trkpt lat="47.80256" lon="7.08263">
        <ele>647.20001220703</ele>
        <time>2021-05-30T08:51:39.000Z</time>
      </trkpt>
      <trkpt lat="47.80255" lon="7.08267">
        <ele>647.20001220703</ele>
        <time>2021-05-30T08:51:41.000Z</time>
      </trkpt>
      <trkpt lat="47.80255" lon="7.08268">
        <ele>646.79998779297</ele>
        <time>2021-05-30T08:51:42.000Z</time>
      </trkpt>
      <trkpt lat="47.80254" lon="7.08278">
        <ele>645</ele>
        <time>2021-05-30T08:52:06.000Z</time>
      </trkpt>
      <trkpt lat="47.80253" lon="7.08283">
        <ele>645</ele>
        <time>2021-05-30T08:52:08.000Z</time>
      </trkpt>
      <trkpt lat="47.80251" lon="7.08294">
        <ele>644.40002441406</ele>
        <time>2021-05-30T08:52:11.000Z</time>
      </trkpt>
      <trkpt lat="47.8025" lon="7.08299">
        <ele>643.79998779297</ele>
        <time>2021-05-30T08:52:12.000Z</time>
      </trkpt>
      <trkpt lat="47.80249" lon="7.08306">
        <ele>643</ele>
        <time>2021-05-30T08:52:13.000Z</time>
      </trkpt>
      <trkpt lat="47.80248" lon="7.08316">
        <ele>642.20001220703</ele>
        <time>2021-05-30T08:52:14.000Z</time>
      </trkpt>
      <trkpt lat="47.80247" lon="7.08325">
        <ele>641.40002441406</ele>
        <time>2021-05-30T08:52:15.000Z</time>
      </trkpt>
      <trkpt lat="47.80246" lon="7.08334">
        <ele>640.59997558594</ele>
        <time>2021-05-30T08:52:16.000Z</time>
      </trkpt>
      <trkpt lat="47.80245" lon="7.08339">
        <ele>639.59997558594</ele>
        <time>2021-05-30T08:52:17.000Z</time>
      </trkpt>
      <trkpt lat="47.80244" lon="7.08343">
        <ele>638.59997558594</ele>
        <time>2021-05-30T08:52:18.000Z</time>
      </trkpt>
      <trkpt lat="47.80242" lon="7.08346">
        <ele>637.79998779297</ele>
        <time>2021-05-30T08:52:19.000Z</time>
      </trkpt>
      <trkpt lat="47.8024" lon="7.08349">
        <ele>636.79998779297</ele>
        <time>2021-05-30T08:52:20.000Z</time>
      </trkpt>
      <trkpt lat="47.80235" lon="7.08351">
        <ele>636</ele>
        <time>2021-05-30T08:52:21.000Z</time>
      </trkpt>
      <trkpt lat="47.8023" lon="7.08352">
        <ele>635</ele>
        <time>2021-05-30T08:52:22.000Z</time>
      </trkpt>
      <trkpt lat="47.80226" lon="7.08351">
        <ele>634.20001220703</ele>
        <time>2021-05-30T08:52:23.000Z</time>
      </trkpt>
      <trkpt lat="47.80222" lon="7.0835">
        <ele>633.40002441406</ele>
        <time>2021-05-30T08:52:24.000Z</time>
      </trkpt>
      <trkpt lat="47.8022" lon="7.08348">
        <ele>632.40002441406</ele>
        <time>2021-05-30T08:52:25.000Z</time>
      </trkpt>
      <trkpt lat="47.80218" lon="7.08348">
        <ele>631.59997558594</ele>
        <time>2021-05-30T08:52:26.000Z</time>
      </trkpt>
      <trkpt lat="47.80217" lon="7.08349">
        <ele>630</ele>
        <time>2021-05-30T08:52:27.000Z</time>
      </trkpt>
      <trkpt lat="47.80217" lon="7.08349">
        <ele>630</ele>
        <time>2021-05-30T08:52:28.000Z</time>
      </trkpt>
      <trkpt lat="47.80216" lon="7.08347">
        <ele>630</ele>
        <time>2021-05-30T08:52:30.000Z</time>
      </trkpt>
      <trkpt lat="47.80214" lon="7.08346">
        <ele>629.40002441406</ele>
        <time>2021-05-30T08:52:31.000Z</time>
      </trkpt>
      <trkpt lat="47.80213" lon="7.08346">
        <ele>629</ele>
        <time>2021-05-30T08:52:32.000Z</time>
      </trkpt>
      <trkpt lat="47.80212" lon="7.08345">
        <ele>628.59997558594</ele>
        <time>2021-05-30T08:52:33.000Z</time>
      </trkpt>
      <trkpt lat="47.80211" lon="7.08346">
        <ele>628</ele>
        <time>2021-05-30T08:52:34.000Z</time>
      </trkpt>
      <trkpt lat="47.80211" lon="7.08347">
        <ele>627.40002441406</ele>
        <time>2021-05-30T08:52:35.000Z</time>
      </trkpt>
      <trkpt lat="47.8021" lon="7.08348">
        <ele>626.79998779297</ele>
        <time>2021-05-30T08:52:36.000Z</time>
      </trkpt>
      <trkpt lat="47.80208" lon="7.0835">
        <ele>626</ele>
        <time>2021-05-30T08:52:37.000Z</time>
      </trkpt>
      <trkpt lat="47.80208" lon="7.08351">
        <ele>625.40002441406</ele>
        <time>2021-05-30T08:52:38.000Z</time>
      </trkpt>
      <trkpt lat="47.80207" lon="7.08353">
        <ele>624.59997558594</ele>
        <time>2021-05-30T08:52:39.000Z</time>
      </trkpt>
      <trkpt lat="47.80207" lon="7.08353">
        <ele>624</ele>
        <time>2021-05-30T08:52:40.000Z</time>
      </trkpt>
      <trkpt lat="47.80202" lon="7.08373">
        <ele>619.20001220703</ele>
        <time>2021-05-30T08:52:57.000Z</time>
      </trkpt>
      <trkpt lat="47.80201" lon="7.08374">
        <ele>619.20001220703</ele>
        <time>2021-05-30T08:52:58.000Z</time>
      </trkpt>
      <trkpt lat="47.80199" lon="7.08376">
        <ele>618.59997558594</ele>
        <time>2021-05-30T08:52:59.000Z</time>
      </trkpt>
      <trkpt lat="47.80198" lon="7.08378">
        <ele>618.20001220703</ele>
        <time>2021-05-30T08:53:00.000Z</time>
      </trkpt>
      <trkpt lat="47.80196" lon="7.0838">
        <ele>617.79998779297</ele>
        <time>2021-05-30T08:53:01.000Z</time>
      </trkpt>
      <trkpt lat="47.80193" lon="7.0838">
        <ele>617</ele>
        <time>2021-05-30T08:53:02.000Z</time>
      </trkpt>
      <trkpt lat="47.80192" lon="7.08381">
        <ele>616.20001220703</ele>
        <time>2021-05-30T08:53:03.000Z</time>
      </trkpt>
      <trkpt lat="47.80191" lon="7.08381">
        <ele>615.59997558594</ele>
        <time>2021-05-30T08:53:04.000Z</time>
      </trkpt>
      <trkpt lat="47.8019" lon="7.08381">
        <ele>614.79998779297</ele>
        <time>2021-05-30T08:53:05.000Z</time>
      </trkpt>
      <trkpt lat="47.8019" lon="7.08382">
        <ele>614</ele>
        <time>2021-05-30T08:53:06.000Z</time>
      </trkpt>
      <trkpt lat="47.80185" lon="7.08381">
        <ele>611.40002441406</ele>
        <time>2021-05-30T08:53:20.000Z</time>
      </trkpt>
      <trkpt lat="47.80183" lon="7.08382">
        <ele>611</ele>
        <time>2021-05-30T08:53:21.000Z</time>
      </trkpt>
      <trkpt lat="47.8018" lon="7.08382">
        <ele>610.20001220703</ele>
        <time>2021-05-30T08:53:22.000Z</time>
      </trkpt>
      <trkpt lat="47.80177" lon="7.08382">
        <ele>609.40002441406</ele>
        <time>2021-05-30T08:53:23.000Z</time>
      </trkpt>
      <trkpt lat="47.80174" lon="7.08383">
        <ele>608.59997558594</ele>
        <time>2021-05-30T08:53:24.000Z</time>
      </trkpt>
      <trkpt lat="47.80171" lon="7.08387">
        <ele>607.79998779297</ele>
        <time>2021-05-30T08:53:25.000Z</time>
      </trkpt>
      <trkpt lat="47.80169" lon="7.08393">
        <ele>606.79998779297</ele>
        <time>2021-05-30T08:53:26.000Z</time>
      </trkpt>
      <trkpt lat="47.80168" lon="7.08398">
        <ele>605.59997558594</ele>
        <time>2021-05-30T08:53:27.000Z</time>
      </trkpt>
      <trkpt lat="47.80168" lon="7.08401">
        <ele>604.59997558594</ele>
        <time>2021-05-30T08:53:28.000Z</time>
      </trkpt>
      <trkpt lat="47.80167" lon="7.08404">
        <ele>603.79998779297</ele>
        <time>2021-05-30T08:53:29.000Z</time>
      </trkpt>
      <trkpt lat="47.80165" lon="7.08404">
        <ele>602.79998779297</ele>
        <time>2021-05-30T08:53:30.000Z</time>
      </trkpt>
      <trkpt lat="47.80161" lon="7.08408">
        <ele>602</ele>
        <time>2021-05-30T08:53:31.000Z</time>
      </trkpt>
      <trkpt lat="47.80158" lon="7.08413">
        <ele>601</ele>
        <time>2021-05-30T08:53:32.000Z</time>
      </trkpt>
      <trkpt lat="47.80157" lon="7.08419">
        <ele>600.20001220703</ele>
        <time>2021-05-30T08:53:33.000Z</time>
      </trkpt>
      <trkpt lat="47.80156" lon="7.08426">
        <ele>599.20001220703</ele>
        <time>2021-05-30T08:53:34.000Z</time>
      </trkpt>
      <trkpt lat="47.80156" lon="7.08431">
        <ele>598.20001220703</ele>
        <time>2021-05-30T08:53:35.000Z</time>
      </trkpt>
      <trkpt lat="47.80156" lon="7.08435">
        <ele>597.20001220703</ele>
        <time>2021-05-30T08:53:36.000Z</time>
      </trkpt>
      <trkpt lat="47.80156" lon="7.0844">
        <ele>596.40002441406</ele>
        <time>2021-05-30T08:53:37.000Z</time>
      </trkpt>
      <trkpt lat="47.80155" lon="7.08446">
        <ele>595.59997558594</ele>
        <time>2021-05-30T08:53:38.000Z</time>
      </trkpt>
      <trkpt lat="47.80154" lon="7.08454">
        <ele>594.40002441406</ele>
        <time>2021-05-30T08:53:39.000Z</time>
      </trkpt>
      <trkpt lat="47.80151" lon="7.0846">
        <ele>593.40002441406</ele>
        <time>2021-05-30T08:53:40.000Z</time>
      </trkpt>
      <trkpt lat="47.8015" lon="7.08465">
        <ele>592.20001220703</ele>
        <time>2021-05-30T08:53:41.000Z</time>
      </trkpt>
      <trkpt lat="47.80149" lon="7.08469">
        <ele>590</ele>
        <time>2021-05-30T08:53:42.000Z</time>
      </trkpt>
      <trkpt lat="47.80148" lon="7.08473">
        <ele>589</ele>
        <time>2021-05-30T08:53:43.000Z</time>
      </trkpt>
      <trkpt lat="47.80147" lon="7.08478">
        <ele>588</ele>
        <time>2021-05-30T08:53:44.000Z</time>
      </trkpt>
      <trkpt lat="47.80146" lon="7.08484">
        <ele>587.20001220703</ele>
        <time>2021-05-30T08:53:45.000Z</time>
      </trkpt>
      <trkpt lat="47.80145" lon="7.08487">
        <ele>586.20001220703</ele>
        <time>2021-05-30T08:53:46.000Z</time>
      </trkpt>
      <trkpt lat="47.80144" lon="7.08492">
        <ele>585.20001220703</ele>
        <time>2021-05-30T08:53:47.000Z</time>
      </trkpt>
      <trkpt lat="47.80143" lon="7.08495">
        <ele>584.20001220703</ele>
        <time>2021-05-30T08:53:48.000Z</time>
      </trkpt>
      <trkpt lat="47.80143" lon="7.08496">
        <ele>583.40002441406</ele>
        <time>2021-05-30T08:53:49.000Z</time>
      </trkpt>
      <trkpt lat="47.80142" lon="7.08501">
        <ele>580.20001220703</ele>
        <time>2021-05-30T08:54:13.000Z</time>
      </trkpt>
      <trkpt lat="47.80142" lon="7.08505">
        <ele>579.79998779297</ele>
        <time>2021-05-30T08:54:14.000Z</time>
      </trkpt>
      <trkpt lat="47.80142" lon="7.08509">
        <ele>579.40002441406</ele>
        <time>2021-05-30T08:54:15.000Z</time>
      </trkpt>
      <trkpt lat="47.80142" lon="7.08514">
        <ele>578.79998779297</ele>
        <time>2021-05-30T08:54:16.000Z</time>
      </trkpt>
      <trkpt lat="47.80143" lon="7.08519">
        <ele>578.20001220703</ele>
        <time>2021-05-30T08:54:17.000Z</time>
      </trkpt>
      <trkpt lat="47.80143" lon="7.08525">
        <ele>577.59997558594</ele>
        <time>2021-05-30T08:54:18.000Z</time>
      </trkpt>
      <trkpt lat="47.80144" lon="7.0853">
        <ele>577</ele>
        <time>2021-05-30T08:54:19.000Z</time>
      </trkpt>
      <trkpt lat="47.80145" lon="7.08536">
        <ele>576.20001220703</ele>
        <time>2021-05-30T08:54:20.000Z</time>
      </trkpt>
      <trkpt lat="47.80145" lon="7.08541">
        <ele>575.40002441406</ele>
        <time>2021-05-30T08:54:21.000Z</time>
      </trkpt>
      <trkpt lat="47.80145" lon="7.08547">
        <ele>574.40002441406</ele>
        <time>2021-05-30T08:54:22.000Z</time>
      </trkpt>
      <trkpt lat="47.80145" lon="7.08553">
        <ele>573.59997558594</ele>
        <time>2021-05-30T08:54:23.000Z</time>
      </trkpt>
      <trkpt lat="47.80147" lon="7.08559">
        <ele>572.40002441406</ele>
        <time>2021-05-30T08:54:24.000Z</time>
      </trkpt>
      <trkpt lat="47.80149" lon="7.08564">
        <ele>571.40002441406</ele>
        <time>2021-05-30T08:54:25.000Z</time>
      </trkpt>
      <trkpt lat="47.80151" lon="7.0857">
        <ele>570.40002441406</ele>
        <time>2021-05-30T08:54:26.000Z</time>
      </trkpt>
      <trkpt lat="47.80153" lon="7.08575">
        <ele>569.20001220703</ele>
        <time>2021-05-30T08:54:27.000Z</time>
      </trkpt>
      <trkpt lat="47.80155" lon="7.08581">
        <ele>568.59997558594</ele>
        <time>2021-05-30T08:54:28.000Z</time>
      </trkpt>
      <trkpt lat="47.80156" lon="7.08587">
        <ele>568</ele>
        <time>2021-05-30T08:54:29.000Z</time>
      </trkpt>
      <trkpt lat="47.80157" lon="7.08593">
        <ele>567.20001220703</ele>
        <time>2021-05-30T08:54:30.000Z</time>
      </trkpt>
      <trkpt lat="47.80158" lon="7.08598">
        <ele>565.79998779297</ele>
        <time>2021-05-30T08:54:31.000Z</time>
      </trkpt>
      <trkpt lat="47.80159" lon="7.08606">
        <ele>565.20001220703</ele>
        <time>2021-05-30T08:54:32.000Z</time>
      </trkpt>
      <trkpt lat="47.80161" lon="7.08614">
        <ele>564.40002441406</ele>
        <time>2021-05-30T08:54:33.000Z</time>
      </trkpt>
      <trkpt lat="47.80162" lon="7.08621">
        <ele>563.59997558594</ele>
        <time>2021-05-30T08:54:34.000Z</time>
      </trkpt>
      <trkpt lat="47.80163" lon="7.08627">
        <ele>562.79998779297</ele>
        <time>2021-05-30T08:54:35.000Z</time>
      </trkpt>
      <trkpt lat="47.80163" lon="7.08632">
        <ele>562</ele>
        <time>2021-05-30T08:54:36.000Z</time>
      </trkpt>
      <trkpt lat="47.80164" lon="7.08635">
        <ele>561.20001220703</ele>
        <time>2021-05-30T08:54:37.000Z</time>
      </trkpt>
      <trkpt lat="47.80164" lon="7.08636">
        <ele>560.20001220703</ele>
        <time>2021-05-30T08:54:38.000Z</time>
      </trkpt>
      <trkpt lat="47.80159" lon="7.0864">
        <ele>557.59997558594</ele>
        <time>2021-05-30T08:54:58.000Z</time>
      </trkpt>
      <trkpt lat="47.80157" lon="7.08642">
        <ele>557.20001220703</ele>
        <time>2021-05-30T08:54:59.000Z</time>
      </trkpt>
      <trkpt lat="47.80155" lon="7.08643">
        <ele>556.79998779297</ele>
        <time>2021-05-30T08:55:00.000Z</time>
      </trkpt>
      <trkpt lat="47.80154" lon="7.08645">
        <ele>556</ele>
        <time>2021-05-30T08:55:01.000Z</time>
      </trkpt>
      <trkpt lat="47.80153" lon="7.08647">
        <ele>555.40002441406</ele>
        <time>2021-05-30T08:55:02.000Z</time>
      </trkpt>
      <trkpt lat="47.80152" lon="7.08648">
        <ele>554.59997558594</ele>
        <time>2021-05-30T08:55:03.000Z</time>
      </trkpt>
      <trkpt lat="47.8015" lon="7.0865">
        <ele>553.59997558594</ele>
        <time>2021-05-30T08:55:04.000Z</time>
      </trkpt>
      <trkpt lat="47.80149" lon="7.08655">
        <ele>552.59997558594</ele>
        <time>2021-05-30T08:55:05.000Z</time>
      </trkpt>
      <trkpt lat="47.80148" lon="7.08659">
        <ele>551.59997558594</ele>
        <time>2021-05-30T08:55:06.000Z</time>
      </trkpt>
      <trkpt lat="47.80146" lon="7.08665">
        <ele>550.59997558594</ele>
        <time>2021-05-30T08:55:07.000Z</time>
      </trkpt>
      <trkpt lat="47.80148" lon="7.08672">
        <ele>549.40002441406</ele>
        <time>2021-05-30T08:55:08.000Z</time>
      </trkpt>
      <trkpt lat="47.80149" lon="7.0868">
        <ele>548.40002441406</ele>
        <time>2021-05-30T08:55:09.000Z</time>
      </trkpt>
      <trkpt lat="47.8015" lon="7.08687">
        <ele>547.20001220703</ele>
        <time>2021-05-30T08:55:10.000Z</time>
      </trkpt>
      <trkpt lat="47.8015" lon="7.08694">
        <ele>546.20001220703</ele>
        <time>2021-05-30T08:55:11.000Z</time>
      </trkpt>
      <trkpt lat="47.80151" lon="7.087">
        <ele>545.20001220703</ele>
        <time>2021-05-30T08:55:12.000Z</time>
      </trkpt>
      <trkpt lat="47.80151" lon="7.08708">
        <ele>544</ele>
        <time>2021-05-30T08:55:13.000Z</time>
      </trkpt>
      <trkpt lat="47.8015" lon="7.08716">
        <ele>542.79998779297</ele>
        <time>2021-05-30T08:55:14.000Z</time>
      </trkpt>
      <trkpt lat="47.80151" lon="7.08723">
        <ele>541.59997558594</ele>
        <time>2021-05-30T08:55:15.000Z</time>
      </trkpt>
      <trkpt lat="47.80152" lon="7.08731">
        <ele>540.40002441406</ele>
        <time>2021-05-30T08:55:16.000Z</time>
      </trkpt>
      <trkpt lat="47.80152" lon="7.0874">
        <ele>539.20001220703</ele>
        <time>2021-05-30T08:55:17.000Z</time>
      </trkpt>
      <trkpt lat="47.80153" lon="7.08748">
        <ele>538</ele>
        <time>2021-05-30T08:55:18.000Z</time>
      </trkpt>
      <trkpt lat="47.80152" lon="7.08755">
        <ele>536.79998779297</ele>
        <time>2021-05-30T08:55:19.000Z</time>
      </trkpt>
      <trkpt lat="47.80149" lon="7.08759">
        <ele>536</ele>
        <time>2021-05-30T08:55:20.000Z</time>
      </trkpt>
      <trkpt lat="47.80146" lon="7.08763">
        <ele>534</ele>
        <time>2021-05-30T08:55:21.000Z</time>
      </trkpt>
      <trkpt lat="47.80143" lon="7.08767">
        <ele>533</ele>
        <time>2021-05-30T08:55:22.000Z</time>
      </trkpt>
      <trkpt lat="47.80139" lon="7.08771">
        <ele>532</ele>
        <time>2021-05-30T08:55:23.000Z</time>
      </trkpt>
      <trkpt lat="47.80137" lon="7.08774">
        <ele>531</ele>
        <time>2021-05-30T08:55:24.000Z</time>
      </trkpt>
      <trkpt lat="47.80135" lon="7.08777">
        <ele>529.79998779297</ele>
        <time>2021-05-30T08:55:25.000Z</time>
      </trkpt>
      <trkpt lat="47.80133" lon="7.08779">
        <ele>529</ele>
        <time>2021-05-30T08:55:26.000Z</time>
      </trkpt>
      <trkpt lat="47.8013" lon="7.08783">
        <ele>528</ele>
        <time>2021-05-30T08:55:27.000Z</time>
      </trkpt>
      <trkpt lat="47.80128" lon="7.08787">
        <ele>527</ele>
        <time>2021-05-30T08:55:28.000Z</time>
      </trkpt>
      <trkpt lat="47.80124" lon="7.08792">
        <ele>526.20001220703</ele>
        <time>2021-05-30T08:55:29.000Z</time>
      </trkpt>
      <trkpt lat="47.80122" lon="7.088">
        <ele>525.20001220703</ele>
        <time>2021-05-30T08:55:30.000Z</time>
      </trkpt>
      <trkpt lat="47.8012" lon="7.08806">
        <ele>524.20001220703</ele>
        <time>2021-05-30T08:55:31.000Z</time>
      </trkpt>
      <trkpt lat="47.80117" lon="7.08809">
        <ele>523.20001220703</ele>
        <time>2021-05-30T08:55:32.000Z</time>
      </trkpt>
      <trkpt lat="47.80112" lon="7.08812">
        <ele>522.20001220703</ele>
        <time>2021-05-30T08:55:33.000Z</time>
      </trkpt>
      <trkpt lat="47.80108" lon="7.08815">
        <ele>521.20001220703</ele>
        <time>2021-05-30T08:55:34.000Z</time>
      </trkpt>
      <trkpt lat="47.80105" lon="7.08819">
        <ele>520.40002441406</ele>
        <time>2021-05-30T08:55:35.000Z</time>
      </trkpt>
      <trkpt lat="47.80102" lon="7.08825">
        <ele>519.79998779297</ele>
        <time>2021-05-30T08:55:36.000Z</time>
      </trkpt>
      <trkpt lat="47.80101" lon="7.0883">
        <ele>519</ele>
        <time>2021-05-30T08:55:37.000Z</time>
      </trkpt>
      <trkpt lat="47.80101" lon="7.08836">
        <ele>518.20001220703</ele>
        <time>2021-05-30T08:55:38.000Z</time>
      </trkpt>
      <trkpt lat="47.801" lon="7.08842">
        <ele>517.59997558594</ele>
        <time>2021-05-30T08:55:39.000Z</time>
      </trkpt>
      <trkpt lat="47.801" lon="7.08847">
        <ele>516.79998779297</ele>
        <time>2021-05-30T08:55:40.000Z</time>
      </trkpt>
      <trkpt lat="47.80104" lon="7.08853">
        <ele>516</ele>
        <time>2021-05-30T08:55:41.000Z</time>
      </trkpt>
      <trkpt lat="47.80108" lon="7.08857">
        <ele>515.20001220703</ele>
        <time>2021-05-30T08:55:42.000Z</time>
      </trkpt>
      <trkpt lat="47.80111" lon="7.08863">
        <ele>514.20001220703</ele>
        <time>2021-05-30T08:55:43.000Z</time>
      </trkpt>
      <trkpt lat="47.80112" lon="7.08867">
        <ele>513.40002441406</ele>
        <time>2021-05-30T08:55:44.000Z</time>
      </trkpt>
      <trkpt lat="47.80112" lon="7.08872">
        <ele>512.59997558594</ele>
        <time>2021-05-30T08:55:45.000Z</time>
      </trkpt>
      <trkpt lat="47.80112" lon="7.08879">
        <ele>510.79998779297</ele>
        <time>2021-05-30T08:55:46.000Z</time>
      </trkpt>
      <trkpt lat="47.8011" lon="7.08882">
        <ele>510</ele>
        <time>2021-05-30T08:55:48.000Z</time>
      </trkpt>
      <trkpt lat="47.80108" lon="7.08883">
        <ele>509.20001220703</ele>
        <time>2021-05-30T08:55:49.000Z</time>
      </trkpt>
      <trkpt lat="47.80106" lon="7.08884">
        <ele>508.20001220703</ele>
        <time>2021-05-30T08:55:50.000Z</time>
      </trkpt>
      <trkpt lat="47.80105" lon="7.08885">
        <ele>507.39999389648</ele>
        <time>2021-05-30T08:55:51.000Z</time>
      </trkpt>
      <trkpt lat="47.80104" lon="7.08885">
        <ele>506.39999389648</ele>
        <time>2021-05-30T08:55:52.000Z</time>
      </trkpt>
      <trkpt lat="47.80102" lon="7.08892">
        <ele>505.60000610352</ele>
        <time>2021-05-30T08:56:18.000Z</time>
      </trkpt>
      <trkpt lat="47.80101" lon="7.08897">
        <ele>505.20001220703</ele>
        <time>2021-05-30T08:56:19.000Z</time>
      </trkpt>
      <trkpt lat="47.80101" lon="7.08904">
        <ele>504.79998779297</ele>
        <time>2021-05-30T08:56:20.000Z</time>
      </trkpt>
      <trkpt lat="47.801" lon="7.08911">
        <ele>504.39999389648</ele>
        <time>2021-05-30T08:56:21.000Z</time>
      </trkpt>
      <trkpt lat="47.80099" lon="7.08919">
        <ele>503.60000610352</ele>
        <time>2021-05-30T08:56:22.000Z</time>
      </trkpt>
      <trkpt lat="47.80099" lon="7.08925">
        <ele>502.79998779297</ele>
        <time>2021-05-30T08:56:23.000Z</time>
      </trkpt>
      <trkpt lat="47.80097" lon="7.08933">
        <ele>502</ele>
        <time>2021-05-30T08:56:24.000Z</time>
      </trkpt>
      <trkpt lat="47.80096" lon="7.08942">
        <ele>501.20001220703</ele>
        <time>2021-05-30T08:56:25.000Z</time>
      </trkpt>
      <trkpt lat="47.80094" lon="7.0895">
        <ele>500</ele>
        <time>2021-05-30T08:56:26.000Z</time>
      </trkpt>
      <trkpt lat="47.80093" lon="7.08958">
        <ele>499</ele>
        <time>2021-05-30T08:56:27.000Z</time>
      </trkpt>
      <trkpt lat="47.80093" lon="7.08965">
        <ele>498</ele>
        <time>2021-05-30T08:56:28.000Z</time>
      </trkpt>
      <trkpt lat="47.80092" lon="7.08974">
        <ele>496.79998779297</ele>
        <time>2021-05-30T08:56:29.000Z</time>
      </trkpt>
      <trkpt lat="47.80091" lon="7.08983">
        <ele>495.39999389648</ele>
        <time>2021-05-30T08:56:30.000Z</time>
      </trkpt>
      <trkpt lat="47.8009" lon="7.08994">
        <ele>494.20001220703</ele>
        <time>2021-05-30T08:56:31.000Z</time>
      </trkpt>
      <trkpt lat="47.80088" lon="7.09004">
        <ele>493</ele>
        <time>2021-05-30T08:56:32.000Z</time>
      </trkpt>
      <trkpt lat="47.80087" lon="7.09012">
        <ele>491.79998779297</ele>
        <time>2021-05-30T08:56:33.000Z</time>
      </trkpt>
      <trkpt lat="47.80086" lon="7.0902">
        <ele>490.60000610352</ele>
        <time>2021-05-30T08:56:34.000Z</time>
      </trkpt>
      <trkpt lat="47.80084" lon="7.09027">
        <ele>489.79998779297</ele>
        <time>2021-05-30T08:56:35.000Z</time>
      </trkpt>
      <trkpt lat="47.80083" lon="7.09034">
        <ele>487.79998779297</ele>
        <time>2021-05-30T08:56:36.000Z</time>
      </trkpt>
      <trkpt lat="47.80081" lon="7.09041">
        <ele>486.79998779297</ele>
        <time>2021-05-30T08:56:37.000Z</time>
      </trkpt>
      <trkpt lat="47.80079" lon="7.0905">
        <ele>485.79998779297</ele>
        <time>2021-05-30T08:56:38.000Z</time>
      </trkpt>
      <trkpt lat="47.80077" lon="7.09057">
        <ele>484.79998779297</ele>
        <time>2021-05-30T08:56:39.000Z</time>
      </trkpt>
      <trkpt lat="47.80076" lon="7.09065">
        <ele>483.39999389648</ele>
        <time>2021-05-30T08:56:40.000Z</time>
      </trkpt>
      <trkpt lat="47.80074" lon="7.09076">
        <ele>481.79998779297</ele>
        <time>2021-05-30T08:56:41.000Z</time>
      </trkpt>
      <trkpt lat="47.80072" lon="7.09087">
        <ele>480.20001220703</ele>
        <time>2021-05-30T08:56:42.000Z</time>
      </trkpt>
      <trkpt lat="47.80071" lon="7.09098">
        <ele>478.60000610352</ele>
        <time>2021-05-30T08:56:43.000Z</time>
      </trkpt>
      <trkpt lat="47.8007" lon="7.0911">
        <ele>477</ele>
        <time>2021-05-30T08:56:44.000Z</time>
      </trkpt>
      <trkpt lat="47.80068" lon="7.09123">
        <ele>475.20001220703</ele>
        <time>2021-05-30T08:56:45.000Z</time>
      </trkpt>
      <trkpt lat="47.80066" lon="7.09133">
        <ele>473.60000610352</ele>
        <time>2021-05-30T08:56:46.000Z</time>
      </trkpt>
      <trkpt lat="47.80064" lon="7.09143">
        <ele>472.20001220703</ele>
        <time>2021-05-30T08:56:47.000Z</time>
      </trkpt>
      <trkpt lat="47.80062" lon="7.09153">
        <ele>470.60000610352</ele>
        <time>2021-05-30T08:56:48.000Z</time>
      </trkpt>
      <trkpt lat="47.8006" lon="7.09165">
        <ele>469.60000610352</ele>
        <time>2021-05-30T08:56:49.000Z</time>
      </trkpt>
      <trkpt lat="47.80059" lon="7.09173">
        <ele>468.60000610352</ele>
        <time>2021-05-30T08:56:50.000Z</time>
      </trkpt>
      <trkpt lat="47.80057" lon="7.09182">
        <ele>467.60000610352</ele>
        <time>2021-05-30T08:56:51.000Z</time>
      </trkpt>
      <trkpt lat="47.80055" lon="7.09188">
        <ele>466.60000610352</ele>
        <time>2021-05-30T08:56:52.000Z</time>
      </trkpt>
      <trkpt lat="47.80054" lon="7.09194">
        <ele>465.60000610352</ele>
        <time>2021-05-30T08:56:53.000Z</time>
      </trkpt>
      <trkpt lat="47.80049" lon="7.09218">
        <ele>465.20001220703</ele>
        <time>2021-05-30T08:56:57.000Z</time>
      </trkpt>
      <trkpt lat="47.80047" lon="7.09223">
        <ele>464.79998779297</ele>
        <time>2021-05-30T08:56:58.000Z</time>
      </trkpt>
      <trkpt lat="47.80046" lon="7.09228">
        <ele>464.39999389648</ele>
        <time>2021-05-30T08:56:59.000Z</time>
      </trkpt>
      <trkpt lat="47.80044" lon="7.09233">
        <ele>464</ele>
        <time>2021-05-30T08:57:00.000Z</time>
      </trkpt>
      <trkpt lat="47.80042" lon="7.09239">
        <ele>463.60000610352</ele>
        <time>2021-05-30T08:57:01.000Z</time>
      </trkpt>
      <trkpt lat="47.80041" lon="7.09244">
        <ele>463.60000610352</ele>
        <time>2021-05-30T08:57:02.000Z</time>
      </trkpt>
      <trkpt lat="47.80037" lon="7.0926">
        <ele>463.60000610352</ele>
        <time>2021-05-30T08:57:07.000Z</time>
      </trkpt>
      <trkpt lat="47.80034" lon="7.09276">
        <ele>463.60000610352</ele>
        <time>2021-05-30T08:57:13.000Z</time>
      </trkpt>
      <trkpt lat="47.80031" lon="7.09295">
        <ele>463.60000610352</ele>
        <time>2021-05-30T08:57:19.000Z</time>
      </trkpt>
      <trkpt lat="47.80031" lon="7.09296">
        <ele>463.60000610352</ele>
        <time>2021-05-30T08:57:20.000Z</time>
      </trkpt>
      <trkpt lat="47.80018" lon="7.09323">
        <ele>461.39999389648</ele>
        <time>2021-05-30T08:57:51.000Z</time>
      </trkpt>
      <trkpt lat="47.80015" lon="7.09321">
        <ele>461.39999389648</ele>
        <time>2021-05-30T08:57:53.000Z</time>
      </trkpt>
      <trkpt lat="47.80004" lon="7.09321">
        <ele>461.39999389648</ele>
        <time>2021-05-30T08:57:58.000Z</time>
      </trkpt>
      <trkpt lat="47.79989" lon="7.09318">
        <ele>461.39999389648</ele>
        <time>2021-05-30T08:58:02.000Z</time>
      </trkpt>
      <trkpt lat="47.79984" lon="7.09317">
        <ele>461.39999389648</ele>
        <time>2021-05-30T08:58:05.000Z</time>
      </trkpt>
      <trkpt lat="47.79981" lon="7.09312">
        <ele>461.39999389648</ele>
        <time>2021-05-30T08:58:07.000Z</time>
      </trkpt>
      <trkpt lat="47.79969" lon="7.0929">
        <ele>461.39999389648</ele>
        <time>2021-05-30T08:58:14.000Z</time>
      </trkpt>
      <trkpt lat="47.79963" lon="7.09265">
        <ele>461.39999389648</ele>
        <time>2021-05-30T08:58:20.000Z</time>
      </trkpt>
      <trkpt lat="47.79968" lon="7.09258">
        <ele>461.39999389648</ele>
        <time>2021-05-30T08:58:22.000Z</time>
      </trkpt>
      <trkpt lat="47.79972" lon="7.09249">
        <ele>461.39999389648</ele>
        <time>2021-05-30T08:58:25.000Z</time>
      </trkpt>
      <trkpt lat="47.79978" lon="7.09235">
        <ele>461.39999389648</ele>
        <time>2021-05-30T08:58:30.000Z</time>
      </trkpt>
      <trkpt lat="47.79978" lon="7.09233">
        <ele>461.39999389648</ele>
        <time>2021-05-30T08:58:31.000Z</time>
      </trkpt>
      <trkpt lat="47.7998" lon="7.09227">
        <ele>461.79998779297</ele>
        <time>2021-05-30T08:58:33.000Z</time>
      </trkpt>
      <trkpt lat="47.79983" lon="7.09225">
        <ele>462.20001220703</ele>
        <time>2021-05-30T08:58:34.000Z</time>
      </trkpt>
      <trkpt lat="47.79985" lon="7.09223">
        <ele>462.60000610352</ele>
        <time>2021-05-30T08:58:35.000Z</time>
      </trkpt>
      <trkpt lat="47.79985" lon="7.0922">
        <ele>463</ele>
        <time>2021-05-30T08:58:36.000Z</time>
      </trkpt>
      <trkpt lat="47.79987" lon="7.09216">
        <ele>463.39999389648</ele>
        <time>2021-05-30T08:58:37.000Z</time>
      </trkpt>
      <trkpt lat="47.79988" lon="7.0921">
        <ele>463.39999389648</ele>
        <time>2021-05-30T08:58:39.000Z</time>
      </trkpt>
      <trkpt lat="47.79991" lon="7.09204">
        <ele>463.79998779297</ele>
        <time>2021-05-30T08:58:41.000Z</time>
      </trkpt>
      <trkpt lat="47.79991" lon="7.09201">
        <ele>464.20001220703</ele>
        <time>2021-05-30T08:58:42.000Z</time>
      </trkpt>
      <trkpt lat="47.79992" lon="7.09199">
        <ele>464.60000610352</ele>
        <time>2021-05-30T08:58:43.000Z</time>
      </trkpt>
      <trkpt lat="47.79992" lon="7.09196">
        <ele>465</ele>
        <time>2021-05-30T08:58:44.000Z</time>
      </trkpt>
      <trkpt lat="47.79993" lon="7.09194">
        <ele>465.39999389648</ele>
        <time>2021-05-30T08:58:45.000Z</time>
      </trkpt>
      <trkpt lat="47.79994" lon="7.09191">
        <ele>465.39999389648</ele>
        <time>2021-05-30T08:58:46.000Z</time>
      </trkpt>
      <trkpt lat="47.79997" lon="7.09183">
        <ele>465.39999389648</ele>
        <time>2021-05-30T08:58:49.000Z</time>
      </trkpt>
      <trkpt lat="47.79998" lon="7.09177">
        <ele>465.39999389648</ele>
        <time>2021-05-30T08:58:51.000Z</time>
      </trkpt>
      <trkpt lat="47.79998" lon="7.09171">
        <ele>465.79998779297</ele>
        <time>2021-05-30T08:58:53.000Z</time>
      </trkpt>
      <trkpt lat="47.79999" lon="7.09169">
        <ele>466.20001220703</ele>
        <time>2021-05-30T08:58:54.000Z</time>
      </trkpt>
      <trkpt lat="47.8" lon="7.09165">
        <ele>466.60000610352</ele>
        <time>2021-05-30T08:58:55.000Z</time>
      </trkpt>
      <trkpt lat="47.80001" lon="7.09163">
        <ele>467</ele>
        <time>2021-05-30T08:58:56.000Z</time>
      </trkpt>
      <trkpt lat="47.80001" lon="7.0916">
        <ele>467.39999389648</ele>
        <time>2021-05-30T08:58:57.000Z</time>
      </trkpt>
      <trkpt lat="47.80001" lon="7.09155">
        <ele>467.79998779297</ele>
        <time>2021-05-30T08:58:59.000Z</time>
      </trkpt>
      <trkpt lat="47.80001" lon="7.09153">
        <ele>468.39999389648</ele>
        <time>2021-05-30T08:59:00.000Z</time>
      </trkpt>
      <trkpt lat="47.80002" lon="7.0915">
        <ele>468.79998779297</ele>
        <time>2021-05-30T08:59:01.000Z</time>
      </trkpt>
      <trkpt lat="47.80002" lon="7.09147">
        <ele>469.20001220703</ele>
        <time>2021-05-30T08:59:02.000Z</time>
      </trkpt>
      <trkpt lat="47.80002" lon="7.09144">
        <ele>469.60000610352</ele>
        <time>2021-05-30T08:59:03.000Z</time>
      </trkpt>
      <trkpt lat="47.80003" lon="7.09136">
        <ele>470</ele>
        <time>2021-05-30T08:59:05.000Z</time>
      </trkpt>
      <trkpt lat="47.80003" lon="7.09133">
        <ele>470.39999389648</ele>
        <time>2021-05-30T08:59:06.000Z</time>
      </trkpt>
      <trkpt lat="47.80003" lon="7.09129">
        <ele>471</ele>
        <time>2021-05-30T08:59:07.000Z</time>
      </trkpt>
      <trkpt lat="47.80003" lon="7.09125">
        <ele>471.39999389648</ele>
        <time>2021-05-30T08:59:08.000Z</time>
      </trkpt>
      <trkpt lat="47.80003" lon="7.09122">
        <ele>471.79998779297</ele>
        <time>2021-05-30T08:59:09.000Z</time>
      </trkpt>
      <trkpt lat="47.80004" lon="7.09118">
        <ele>471.79998779297</ele>
        <time>2021-05-30T08:59:10.000Z</time>
      </trkpt>
      <trkpt lat="47.80004" lon="7.09111">
        <ele>472.20001220703</ele>
        <time>2021-05-30T08:59:12.000Z</time>
      </trkpt>
      <trkpt lat="47.80004" lon="7.09108">
        <ele>472.60000610352</ele>
        <time>2021-05-30T08:59:13.000Z</time>
      </trkpt>
      <trkpt lat="47.80004" lon="7.09104">
        <ele>473</ele>
        <time>2021-05-30T08:59:14.000Z</time>
      </trkpt>
      <trkpt lat="47.80005" lon="7.091">
        <ele>473.39999389648</ele>
        <time>2021-05-30T08:59:15.000Z</time>
      </trkpt>
      <trkpt lat="47.80006" lon="7.09097">
        <ele>473.79998779297</ele>
        <time>2021-05-30T08:59:16.000Z</time>
      </trkpt>
      <trkpt lat="47.80008" lon="7.09088">
        <ele>474.20001220703</ele>
        <time>2021-05-30T08:59:19.000Z</time>
      </trkpt>
      <trkpt lat="47.80009" lon="7.09084">
        <ele>474.79998779297</ele>
        <time>2021-05-30T08:59:20.000Z</time>
      </trkpt>
      <trkpt lat="47.8001" lon="7.09082">
        <ele>475.20001220703</ele>
        <time>2021-05-30T08:59:21.000Z</time>
      </trkpt>
      <trkpt lat="47.8001" lon="7.09078">
        <ele>475.60000610352</ele>
        <time>2021-05-30T08:59:22.000Z</time>
      </trkpt>
      <trkpt lat="47.80011" lon="7.09075">
        <ele>476</ele>
        <time>2021-05-30T08:59:23.000Z</time>
      </trkpt>
      <trkpt lat="47.80012" lon="7.09066">
        <ele>476.39999389648</ele>
        <time>2021-05-30T08:59:25.000Z</time>
      </trkpt>
      <trkpt lat="47.80013" lon="7.09063">
        <ele>476.79998779297</ele>
        <time>2021-05-30T08:59:26.000Z</time>
      </trkpt>
      <trkpt lat="47.80014" lon="7.09059">
        <ele>477.20001220703</ele>
        <time>2021-05-30T08:59:27.000Z</time>
      </trkpt>
      <trkpt lat="47.80014" lon="7.09057">
        <ele>477.60000610352</ele>
        <time>2021-05-30T08:59:28.000Z</time>
      </trkpt>
      <trkpt lat="47.80014" lon="7.09054">
        <ele>478</ele>
        <time>2021-05-30T08:59:29.000Z</time>
      </trkpt>
      <trkpt lat="47.80015" lon="7.09052">
        <ele>478</ele>
        <time>2021-05-30T08:59:30.000Z</time>
      </trkpt>
      <trkpt lat="47.80015" lon="7.0905">
        <ele>478.60000610352</ele>
        <time>2021-05-30T08:59:31.000Z</time>
      </trkpt>
      <trkpt lat="47.80016" lon="7.09047">
        <ele>479</ele>
        <time>2021-05-30T08:59:32.000Z</time>
      </trkpt>
      <trkpt lat="47.80016" lon="7.09044">
        <ele>479.39999389648</ele>
        <time>2021-05-30T08:59:33.000Z</time>
      </trkpt>
      <trkpt lat="47.80016" lon="7.09041">
        <ele>479.79998779297</ele>
        <time>2021-05-30T08:59:34.000Z</time>
      </trkpt>
      <trkpt lat="47.80016" lon="7.09038">
        <ele>480.20001220703</ele>
        <time>2021-05-30T08:59:35.000Z</time>
      </trkpt>
      <trkpt lat="47.80017" lon="7.09033">
        <ele>480.60000610352</ele>
        <time>2021-05-30T08:59:37.000Z</time>
      </trkpt>
      <trkpt lat="47.80017" lon="7.09031">
        <ele>481</ele>
        <time>2021-05-30T08:59:38.000Z</time>
      </trkpt>
      <trkpt lat="47.80017" lon="7.09028">
        <ele>481.39999389648</ele>
        <time>2021-05-30T08:59:39.000Z</time>
      </trkpt>
      <trkpt lat="47.80018" lon="7.09026">
        <ele>481.79998779297</ele>
        <time>2021-05-30T08:59:40.000Z</time>
      </trkpt>
      <trkpt lat="47.80019" lon="7.09022">
        <ele>482.20001220703</ele>
        <time>2021-05-30T08:59:41.000Z</time>
      </trkpt>
      <trkpt lat="47.80021" lon="7.09016">
        <ele>482.20001220703</ele>
        <time>2021-05-30T08:59:43.000Z</time>
      </trkpt>
      <trkpt lat="47.80021" lon="7.09013">
        <ele>482.60000610352</ele>
        <time>2021-05-30T08:59:44.000Z</time>
      </trkpt>
      <trkpt lat="47.80022" lon="7.0901">
        <ele>483</ele>
        <time>2021-05-30T08:59:45.000Z</time>
      </trkpt>
      <trkpt lat="47.80024" lon="7.09007">
        <ele>483.39999389648</ele>
        <time>2021-05-30T08:59:46.000Z</time>
      </trkpt>
      <trkpt lat="47.80024" lon="7.09004">
        <ele>484</ele>
        <time>2021-05-30T08:59:47.000Z</time>
      </trkpt>
      <trkpt lat="47.80024" lon="7.09001">
        <ele>484.39999389648</ele>
        <time>2021-05-30T08:59:48.000Z</time>
      </trkpt>
      <trkpt lat="47.80024" lon="7.08998">
        <ele>484.79998779297</ele>
        <time>2021-05-30T08:59:49.000Z</time>
      </trkpt>
      <trkpt lat="47.80024" lon="7.08994">
        <ele>485.20001220703</ele>
        <time>2021-05-30T08:59:50.000Z</time>
      </trkpt>
      <trkpt lat="47.80023" lon="7.08991">
        <ele>485.60000610352</ele>
        <time>2021-05-30T08:59:51.000Z</time>
      </trkpt>
      <trkpt lat="47.80024" lon="7.08988">
        <ele>486</ele>
        <time>2021-05-30T08:59:52.000Z</time>
      </trkpt>
      <trkpt lat="47.80024" lon="7.08985">
        <ele>486.60000610352</ele>
        <time>2021-05-30T08:59:53.000Z</time>
      </trkpt>
      <trkpt lat="47.80024" lon="7.08982">
        <ele>487.39999389648</ele>
        <time>2021-05-30T08:59:54.000Z</time>
      </trkpt>
      <trkpt lat="47.80025" lon="7.0898">
        <ele>487.79998779297</ele>
        <time>2021-05-30T08:59:55.000Z</time>
      </trkpt>
      <trkpt lat="47.80026" lon="7.08977">
        <ele>488.20001220703</ele>
        <time>2021-05-30T08:59:56.000Z</time>
      </trkpt>
      <trkpt lat="47.80027" lon="7.08975">
        <ele>488.60000610352</ele>
        <time>2021-05-30T08:59:57.000Z</time>
      </trkpt>
      <trkpt lat="47.80029" lon="7.08968">
        <ele>489</ele>
        <time>2021-05-30T09:00:00.000Z</time>
      </trkpt>
      <trkpt lat="47.8003" lon="7.08967">
        <ele>489.60000610352</ele>
        <time>2021-05-30T09:00:01.000Z</time>
      </trkpt>
      <trkpt lat="47.80031" lon="7.08964">
        <ele>490</ele>
        <time>2021-05-30T09:00:02.000Z</time>
      </trkpt>
      <trkpt lat="47.80031" lon="7.08962">
        <ele>490.39999389648</ele>
        <time>2021-05-30T09:00:03.000Z</time>
      </trkpt>
      <trkpt lat="47.80032" lon="7.0896">
        <ele>491</ele>
        <time>2021-05-30T09:00:04.000Z</time>
      </trkpt>
      <trkpt lat="47.80032" lon="7.08953">
        <ele>491.39999389648</ele>
        <time>2021-05-30T09:00:07.000Z</time>
      </trkpt>
      <trkpt lat="47.80032" lon="7.08952">
        <ele>491.79998779297</ele>
        <time>2021-05-30T09:00:08.000Z</time>
      </trkpt>
      <trkpt lat="47.80033" lon="7.08949">
        <ele>492.20001220703</ele>
        <time>2021-05-30T09:00:09.000Z</time>
      </trkpt>
      <trkpt lat="47.80034" lon="7.08947">
        <ele>492.60000610352</ele>
        <time>2021-05-30T09:00:10.000Z</time>
      </trkpt>
      <trkpt lat="47.80035" lon="7.08944">
        <ele>493</ele>
        <time>2021-05-30T09:00:11.000Z</time>
      </trkpt>
      <trkpt lat="47.80037" lon="7.08938">
        <ele>493.39999389648</ele>
        <time>2021-05-30T09:00:14.000Z</time>
      </trkpt>
      <trkpt lat="47.80037" lon="7.08935">
        <ele>493.79998779297</ele>
        <time>2021-05-30T09:00:15.000Z</time>
      </trkpt>
      <trkpt lat="47.80038" lon="7.08934">
        <ele>494.39999389648</ele>
        <time>2021-05-30T09:00:16.000Z</time>
      </trkpt>
      <trkpt lat="47.8004" lon="7.08931">
        <ele>494.79998779297</ele>
        <time>2021-05-30T09:00:17.000Z</time>
      </trkpt>
      <trkpt lat="47.80041" lon="7.08929">
        <ele>495.20001220703</ele>
        <time>2021-05-30T09:00:18.000Z</time>
      </trkpt>
      <trkpt lat="47.80045" lon="7.0892">
        <ele>495.20001220703</ele>
        <time>2021-05-30T09:00:22.000Z</time>
      </trkpt>
      <trkpt lat="47.80049" lon="7.08912">
        <ele>495.79998779297</ele>
        <time>2021-05-30T09:00:25.000Z</time>
      </trkpt>
      <trkpt lat="47.80049" lon="7.08911">
        <ele>496.20001220703</ele>
        <time>2021-05-30T09:00:26.000Z</time>
      </trkpt>
      <trkpt lat="47.80049" lon="7.08908">
        <ele>496.60000610352</ele>
        <time>2021-05-30T09:00:27.000Z</time>
      </trkpt>
      <trkpt lat="47.8005" lon="7.08906">
        <ele>497</ele>
        <time>2021-05-30T09:00:28.000Z</time>
      </trkpt>
      <trkpt lat="47.80051" lon="7.08904">
        <ele>497.60000610352</ele>
        <time>2021-05-30T09:00:29.000Z</time>
      </trkpt>
      <trkpt lat="47.80053" lon="7.089">
        <ele>498</ele>
        <time>2021-05-30T09:00:32.000Z</time>
      </trkpt>
      <trkpt lat="47.80053" lon="7.08898">
        <ele>498.39999389648</ele>
        <time>2021-05-30T09:00:33.000Z</time>
      </trkpt>
      <trkpt lat="47.80053" lon="7.08896">
        <ele>498.79998779297</ele>
        <time>2021-05-30T09:00:34.000Z</time>
      </trkpt>
      <trkpt lat="47.80053" lon="7.08894">
        <ele>499.20001220703</ele>
        <time>2021-05-30T09:00:35.000Z</time>
      </trkpt>
      <trkpt lat="47.80053" lon="7.08892">
        <ele>499.60000610352</ele>
        <time>2021-05-30T09:00:36.000Z</time>
      </trkpt>
      <trkpt lat="47.80053" lon="7.08882">
        <ele>500</ele>
        <time>2021-05-30T09:00:40.000Z</time>
      </trkpt>
      <trkpt lat="47.80053" lon="7.0888">
        <ele>500.39999389648</ele>
        <time>2021-05-30T09:00:41.000Z</time>
      </trkpt>
      <trkpt lat="47.80052" lon="7.08877">
        <ele>500.79998779297</ele>
        <time>2021-05-30T09:00:42.000Z</time>
      </trkpt>
      <trkpt lat="47.80053" lon="7.08874">
        <ele>501.20001220703</ele>
        <time>2021-05-30T09:00:43.000Z</time>
      </trkpt>
      <trkpt lat="47.80054" lon="7.08871">
        <ele>501.60000610352</ele>
        <time>2021-05-30T09:00:44.000Z</time>
      </trkpt>
      <trkpt lat="47.80053" lon="7.08869">
        <ele>501.60000610352</ele>
        <time>2021-05-30T09:00:45.000Z</time>
      </trkpt>
      <trkpt lat="47.80053" lon="7.08867">
        <ele>501.60000610352</ele>
        <time>2021-05-30T09:00:46.000Z</time>
      </trkpt>
      <trkpt lat="47.80052" lon="7.08863">
        <ele>502</ele>
        <time>2021-05-30T09:00:48.000Z</time>
      </trkpt>
      <trkpt lat="47.8005" lon="7.0886">
        <ele>502.39999389648</ele>
        <time>2021-05-30T09:00:49.000Z</time>
      </trkpt>
      <trkpt lat="47.80049" lon="7.08858">
        <ele>503</ele>
        <time>2021-05-30T09:00:50.000Z</time>
      </trkpt>
      <trkpt lat="47.80048" lon="7.08855">
        <ele>503.39999389648</ele>
        <time>2021-05-30T09:00:51.000Z</time>
      </trkpt>
      <trkpt lat="47.80048" lon="7.08854">
        <ele>503.79998779297</ele>
        <time>2021-05-30T09:00:52.000Z</time>
      </trkpt>
      <trkpt lat="47.80047" lon="7.08845">
        <ele>503.79998779297</ele>
        <time>2021-05-30T09:00:56.000Z</time>
      </trkpt>
      <trkpt lat="47.80047" lon="7.08843">
        <ele>504.20001220703</ele>
        <time>2021-05-30T09:00:57.000Z</time>
      </trkpt>
      <trkpt lat="47.80046" lon="7.08841">
        <ele>504.60000610352</ele>
        <time>2021-05-30T09:00:58.000Z</time>
      </trkpt>
      <trkpt lat="47.80046" lon="7.08838">
        <ele>505</ele>
        <time>2021-05-30T09:00:59.000Z</time>
      </trkpt>
      <trkpt lat="47.80045" lon="7.08836">
        <ele>505.39999389648</ele>
        <time>2021-05-30T09:01:00.000Z</time>
      </trkpt>
      <trkpt lat="47.80046" lon="7.08833">
        <ele>506</ele>
        <time>2021-05-30T09:01:01.000Z</time>
      </trkpt>
      <trkpt lat="47.80047" lon="7.08827">
        <ele>506</ele>
        <time>2021-05-30T09:01:03.000Z</time>
      </trkpt>
      <trkpt lat="47.80047" lon="7.08824">
        <ele>506.39999389648</ele>
        <time>2021-05-30T09:01:04.000Z</time>
      </trkpt>
      <trkpt lat="47.80048" lon="7.08821">
        <ele>506.79998779297</ele>
        <time>2021-05-30T09:01:05.000Z</time>
      </trkpt>
      <trkpt lat="47.80048" lon="7.08819">
        <ele>507.20001220703</ele>
        <time>2021-05-30T09:01:06.000Z</time>
      </trkpt>
      <trkpt lat="47.80048" lon="7.08818">
        <ele>507.60000610352</ele>
        <time>2021-05-30T09:01:07.000Z</time>
      </trkpt>
      <trkpt lat="47.80049" lon="7.08817">
        <ele>508</ele>
        <time>2021-05-30T09:01:08.000Z</time>
      </trkpt>
      <trkpt lat="47.8005" lon="7.08814">
        <ele>508</ele>
        <time>2021-05-30T09:01:10.000Z</time>
      </trkpt>
      <trkpt lat="47.8005" lon="7.08814">
        <ele>508.60000610352</ele>
        <time>2021-05-30T09:01:11.000Z</time>
      </trkpt>
      <trkpt lat="47.80051" lon="7.08811">
        <ele>509</ele>
        <time>2021-05-30T09:01:12.000Z</time>
      </trkpt>
      <trkpt lat="47.80051" lon="7.0881">
        <ele>509.39999389648</ele>
        <time>2021-05-30T09:01:13.000Z</time>
      </trkpt>
      <trkpt lat="47.80053" lon="7.08808">
        <ele>509.79998779297</ele>
        <time>2021-05-30T09:01:14.000Z</time>
      </trkpt>
      <trkpt lat="47.80053" lon="7.08807">
        <ele>510.20001220703</ele>
        <time>2021-05-30T09:01:15.000Z</time>
      </trkpt>
      <trkpt lat="47.80054" lon="7.08805">
        <ele>510.20001220703</ele>
        <time>2021-05-30T09:01:16.000Z</time>
      </trkpt>
      <trkpt lat="47.80056" lon="7.08801">
        <ele>510.20001220703</ele>
        <time>2021-05-30T09:01:18.000Z</time>
      </trkpt>
      <trkpt lat="47.80057" lon="7.08799">
        <ele>510.60000610352</ele>
        <time>2021-05-30T09:01:19.000Z</time>
      </trkpt>
      <trkpt lat="47.80057" lon="7.08797">
        <ele>511</ele>
        <time>2021-05-30T09:01:20.000Z</time>
      </trkpt>
      <trkpt lat="47.80058" lon="7.08795">
        <ele>511.39999389648</ele>
        <time>2021-05-30T09:01:21.000Z</time>
      </trkpt>
      <trkpt lat="47.80058" lon="7.08793">
        <ele>512</ele>
        <time>2021-05-30T09:01:22.000Z</time>
      </trkpt>
      <trkpt lat="47.80059" lon="7.08792">
        <ele>512.40002441406</ele>
        <time>2021-05-30T09:01:23.000Z</time>
      </trkpt>
      <trkpt lat="47.80059" lon="7.08784">
        <ele>512.79998779297</ele>
        <time>2021-05-30T09:01:26.000Z</time>
      </trkpt>
      <trkpt lat="47.80059" lon="7.08781">
        <ele>513.20001220703</ele>
        <time>2021-05-30T09:01:27.000Z</time>
      </trkpt>
      <trkpt lat="47.80059" lon="7.08778">
        <ele>513.79998779297</ele>
        <time>2021-05-30T09:01:28.000Z</time>
      </trkpt>
      <trkpt lat="47.80061" lon="7.08774">
        <ele>514.20001220703</ele>
        <time>2021-05-30T09:01:29.000Z</time>
      </trkpt>
      <trkpt lat="47.80062" lon="7.08772">
        <ele>514.59997558594</ele>
        <time>2021-05-30T09:01:30.000Z</time>
      </trkpt>
      <trkpt lat="47.80064" lon="7.08769">
        <ele>515</ele>
        <time>2021-05-30T09:01:31.000Z</time>
      </trkpt>
      <trkpt lat="47.80065" lon="7.08766">
        <ele>515.40002441406</ele>
        <time>2021-05-30T09:01:32.000Z</time>
      </trkpt>
      <trkpt lat="47.80067" lon="7.08764">
        <ele>516.40002441406</ele>
        <time>2021-05-30T09:01:33.000Z</time>
      </trkpt>
      <trkpt lat="47.80068" lon="7.08761">
        <ele>516.79998779297</ele>
        <time>2021-05-30T09:01:34.000Z</time>
      </trkpt>
      <trkpt lat="47.80069" lon="7.08758">
        <ele>517.20001220703</ele>
        <time>2021-05-30T09:01:35.000Z</time>
      </trkpt>
      <trkpt lat="47.8007" lon="7.08755">
        <ele>517.59997558594</ele>
        <time>2021-05-30T09:01:36.000Z</time>
      </trkpt>
      <trkpt lat="47.80071" lon="7.08752">
        <ele>518</ele>
        <time>2021-05-30T09:01:37.000Z</time>
      </trkpt>
      <trkpt lat="47.80072" lon="7.08749">
        <ele>518.40002441406</ele>
        <time>2021-05-30T09:01:38.000Z</time>
      </trkpt>
      <trkpt lat="47.80073" lon="7.08746">
        <ele>518.79998779297</ele>
        <time>2021-05-30T09:01:39.000Z</time>
      </trkpt>
      <trkpt lat="47.80076" lon="7.08741">
        <ele>519.40002441406</ele>
        <time>2021-05-30T09:01:41.000Z</time>
      </trkpt>
      <trkpt lat="47.80077" lon="7.08739">
        <ele>519.79998779297</ele>
        <time>2021-05-30T09:01:42.000Z</time>
      </trkpt>
      <trkpt lat="47.80078" lon="7.08736">
        <ele>520.40002441406</ele>
        <time>2021-05-30T09:01:43.000Z</time>
      </trkpt>
      <trkpt lat="47.80079" lon="7.08734">
        <ele>520.79998779297</ele>
        <time>2021-05-30T09:01:44.000Z</time>
      </trkpt>
      <trkpt lat="47.80081" lon="7.08731">
        <ele>521.40002441406</ele>
        <time>2021-05-30T09:01:45.000Z</time>
      </trkpt>
      <trkpt lat="47.80082" lon="7.08729">
        <ele>521.79998779297</ele>
        <time>2021-05-30T09:01:46.000Z</time>
      </trkpt>
      <trkpt lat="47.80083" lon="7.08727">
        <ele>522.20001220703</ele>
        <time>2021-05-30T09:01:47.000Z</time>
      </trkpt>
      <trkpt lat="47.80084" lon="7.08724">
        <ele>522.59997558594</ele>
        <time>2021-05-30T09:01:48.000Z</time>
      </trkpt>
      <trkpt lat="47.80085" lon="7.08722">
        <ele>523.20001220703</ele>
        <time>2021-05-30T09:01:49.000Z</time>
      </trkpt>
      <trkpt lat="47.80085" lon="7.0872">
        <ele>523.59997558594</ele>
        <time>2021-05-30T09:01:50.000Z</time>
      </trkpt>
      <trkpt lat="47.80084" lon="7.08716">
        <ele>524</ele>
        <time>2021-05-30T09:01:52.000Z</time>
      </trkpt>
      <trkpt lat="47.80084" lon="7.08714">
        <ele>524.40002441406</ele>
        <time>2021-05-30T09:01:53.000Z</time>
      </trkpt>
      <trkpt lat="47.80083" lon="7.08713">
        <ele>524.79998779297</ele>
        <time>2021-05-30T09:01:54.000Z</time>
      </trkpt>
      <trkpt lat="47.80083" lon="7.08711">
        <ele>525.20001220703</ele>
        <time>2021-05-30T09:01:55.000Z</time>
      </trkpt>
      <trkpt lat="47.80082" lon="7.08709">
        <ele>525.59997558594</ele>
        <time>2021-05-30T09:01:56.000Z</time>
      </trkpt>
      <trkpt lat="47.80082" lon="7.08704">
        <ele>526.20001220703</ele>
        <time>2021-05-30T09:01:58.000Z</time>
      </trkpt>
      <trkpt lat="47.80081" lon="7.08701">
        <ele>526.59997558594</ele>
        <time>2021-05-30T09:01:59.000Z</time>
      </trkpt>
      <trkpt lat="47.80079" lon="7.08699">
        <ele>527</ele>
        <time>2021-05-30T09:02:00.000Z</time>
      </trkpt>
      <trkpt lat="47.80078" lon="7.08698">
        <ele>527.40002441406</ele>
        <time>2021-05-30T09:02:01.000Z</time>
      </trkpt>
      <trkpt lat="47.80077" lon="7.08697">
        <ele>527.79998779297</ele>
        <time>2021-05-30T09:02:02.000Z</time>
      </trkpt>
      <trkpt lat="47.80076" lon="7.08695">
        <ele>527.79998779297</ele>
        <time>2021-05-30T09:02:03.000Z</time>
      </trkpt>
      <trkpt lat="47.80074" lon="7.08691">
        <ele>528.20001220703</ele>
        <time>2021-05-30T09:02:05.000Z</time>
      </trkpt>
      <trkpt lat="47.80074" lon="7.08689">
        <ele>528.59997558594</ele>
        <time>2021-05-30T09:02:06.000Z</time>
      </trkpt>
      <trkpt lat="47.80075" lon="7.08686">
        <ele>529</ele>
        <time>2021-05-30T09:02:07.000Z</time>
      </trkpt>
      <trkpt lat="47.80075" lon="7.08684">
        <ele>529.40002441406</ele>
        <time>2021-05-30T09:02:08.000Z</time>
      </trkpt>
      <trkpt lat="47.80075" lon="7.08681">
        <ele>529.79998779297</ele>
        <time>2021-05-30T09:02:09.000Z</time>
      </trkpt>
      <trkpt lat="47.80073" lon="7.08673">
        <ele>530.20001220703</ele>
        <time>2021-05-30T09:02:12.000Z</time>
      </trkpt>
      <trkpt lat="47.80073" lon="7.08671">
        <ele>530.59997558594</ele>
        <time>2021-05-30T09:02:13.000Z</time>
      </trkpt>
      <trkpt lat="47.80073" lon="7.08669">
        <ele>531</ele>
        <time>2021-05-30T09:02:14.000Z</time>
      </trkpt>
      <trkpt lat="47.80072" lon="7.08667">
        <ele>531.40002441406</ele>
        <time>2021-05-30T09:02:15.000Z</time>
      </trkpt>
      <trkpt lat="47.80071" lon="7.08663">
        <ele>531.79998779297</ele>
        <time>2021-05-30T09:02:16.000Z</time>
      </trkpt>
      <trkpt lat="47.80067" lon="7.08647">
        <ele>532.20001220703</ele>
        <time>2021-05-30T09:02:21.000Z</time>
      </trkpt>
      <trkpt lat="47.80065" lon="7.08644">
        <ele>532.59997558594</ele>
        <time>2021-05-30T09:02:22.000Z</time>
      </trkpt>
      <trkpt lat="47.80066" lon="7.08641">
        <ele>533.40002441406</ele>
        <time>2021-05-30T09:02:23.000Z</time>
      </trkpt>
      <trkpt lat="47.80066" lon="7.08638">
        <ele>533.79998779297</ele>
        <time>2021-05-30T09:02:24.000Z</time>
      </trkpt>
      <trkpt lat="47.80065" lon="7.0863">
        <ele>533.79998779297</ele>
        <time>2021-05-30T09:02:27.000Z</time>
      </trkpt>
      <trkpt lat="47.80064" lon="7.08627">
        <ele>534.20001220703</ele>
        <time>2021-05-30T09:02:28.000Z</time>
      </trkpt>
      <trkpt lat="47.80064" lon="7.08624">
        <ele>534.79998779297</ele>
        <time>2021-05-30T09:02:29.000Z</time>
      </trkpt>
      <trkpt lat="47.80062" lon="7.08622">
        <ele>535.20001220703</ele>
        <time>2021-05-30T09:02:30.000Z</time>
      </trkpt>
      <trkpt lat="47.80061" lon="7.0862">
        <ele>535.59997558594</ele>
        <time>2021-05-30T09:02:31.000Z</time>
      </trkpt>
      <trkpt lat="47.80059" lon="7.08617">
        <ele>536</ele>
        <time>2021-05-30T09:02:32.000Z</time>
      </trkpt>
      <trkpt lat="47.80058" lon="7.08613">
        <ele>536</ele>
        <time>2021-05-30T09:02:34.000Z</time>
      </trkpt>
      <trkpt lat="47.80057" lon="7.08608">
        <ele>536.40002441406</ele>
        <time>2021-05-30T09:02:36.000Z</time>
      </trkpt>
      <trkpt lat="47.80056" lon="7.08606">
        <ele>536.79998779297</ele>
        <time>2021-05-30T09:02:37.000Z</time>
      </trkpt>
      <trkpt lat="47.80055" lon="7.08604">
        <ele>537.40002441406</ele>
        <time>2021-05-30T09:02:38.000Z</time>
      </trkpt>
      <trkpt lat="47.80054" lon="7.08601">
        <ele>537.79998779297</ele>
        <time>2021-05-30T09:02:39.000Z</time>
      </trkpt>
      <trkpt lat="47.80054" lon="7.08598">
        <ele>538.20001220703</ele>
        <time>2021-05-30T09:02:40.000Z</time>
      </trkpt>
      <trkpt lat="47.80055" lon="7.08585">
        <ele>538.59997558594</ele>
        <time>2021-05-30T09:02:43.000Z</time>
      </trkpt>
      <trkpt lat="47.80055" lon="7.08582">
        <ele>539</ele>
        <time>2021-05-30T09:02:44.000Z</time>
      </trkpt>
      <trkpt lat="47.80055" lon="7.08579">
        <ele>539.40002441406</ele>
        <time>2021-05-30T09:02:45.000Z</time>
      </trkpt>
      <trkpt lat="47.80055" lon="7.08576">
        <ele>539.79998779297</ele>
        <time>2021-05-30T09:02:46.000Z</time>
      </trkpt>
      <trkpt lat="47.80054" lon="7.08574">
        <ele>540.20001220703</ele>
        <time>2021-05-30T09:02:47.000Z</time>
      </trkpt>
      <trkpt lat="47.80051" lon="7.08562">
        <ele>540.79998779297</ele>
        <time>2021-05-30T09:02:51.000Z</time>
      </trkpt>
      <trkpt lat="47.80051" lon="7.08559">
        <ele>541.20001220703</ele>
        <time>2021-05-30T09:02:52.000Z</time>
      </trkpt>
      <trkpt lat="47.80051" lon="7.08555">
        <ele>541.59997558594</ele>
        <time>2021-05-30T09:02:53.000Z</time>
      </trkpt>
      <trkpt lat="47.80051" lon="7.08552">
        <ele>542.20001220703</ele>
        <time>2021-05-30T09:02:54.000Z</time>
      </trkpt>
      <trkpt lat="47.80051" lon="7.08549">
        <ele>542.59997558594</ele>
        <time>2021-05-30T09:02:55.000Z</time>
      </trkpt>
      <trkpt lat="47.8005" lon="7.08546">
        <ele>542.59997558594</ele>
        <time>2021-05-30T09:02:56.000Z</time>
      </trkpt>
      <trkpt lat="47.80049" lon="7.0854">
        <ele>543</ele>
        <time>2021-05-30T09:02:58.000Z</time>
      </trkpt>
      <trkpt lat="47.80049" lon="7.08536">
        <ele>543.40002441406</ele>
        <time>2021-05-30T09:02:59.000Z</time>
      </trkpt>
      <trkpt lat="47.80048" lon="7.08534">
        <ele>543.79998779297</ele>
        <time>2021-05-30T09:03:00.000Z</time>
      </trkpt>
      <trkpt lat="47.80047" lon="7.08531">
        <ele>544.40002441406</ele>
        <time>2021-05-30T09:03:01.000Z</time>
      </trkpt>
      <trkpt lat="47.80047" lon="7.08527">
        <ele>544.79998779297</ele>
        <time>2021-05-30T09:03:02.000Z</time>
      </trkpt>
      <trkpt lat="47.80044" lon="7.08523">
        <ele>545.20001220703</ele>
        <time>2021-05-30T09:03:04.000Z</time>
      </trkpt>
      <trkpt lat="47.80043" lon="7.08521">
        <ele>545.59997558594</ele>
        <time>2021-05-30T09:03:05.000Z</time>
      </trkpt>
      <trkpt lat="47.80043" lon="7.08518">
        <ele>546</ele>
        <time>2021-05-30T09:03:06.000Z</time>
      </trkpt>
      <trkpt lat="47.80042" lon="7.08516">
        <ele>546.40002441406</ele>
        <time>2021-05-30T09:03:07.000Z</time>
      </trkpt>
      <trkpt lat="47.80042" lon="7.08514">
        <ele>546.79998779297</ele>
        <time>2021-05-30T09:03:08.000Z</time>
      </trkpt>
      <trkpt lat="47.8004" lon="7.0851">
        <ele>547.20001220703</ele>
        <time>2021-05-30T09:03:10.000Z</time>
      </trkpt>
      <trkpt lat="47.80039" lon="7.08506">
        <ele>547.79998779297</ele>
        <time>2021-05-30T09:03:11.000Z</time>
      </trkpt>
      <trkpt lat="47.8004" lon="7.08503">
        <ele>548.59997558594</ele>
        <time>2021-05-30T09:03:12.000Z</time>
      </trkpt>
      <trkpt lat="47.80039" lon="7.08501">
        <ele>549</ele>
        <time>2021-05-30T09:03:13.000Z</time>
      </trkpt>
      <trkpt lat="47.80039" lon="7.08498">
        <ele>549</ele>
        <time>2021-05-30T09:03:14.000Z</time>
      </trkpt>
      <trkpt lat="47.80039" lon="7.08494">
        <ele>549.40002441406</ele>
        <time>2021-05-30T09:03:15.000Z</time>
      </trkpt>
      <trkpt lat="47.8004" lon="7.0849">
        <ele>550</ele>
        <time>2021-05-30T09:03:16.000Z</time>
      </trkpt>
      <trkpt lat="47.80041" lon="7.08486">
        <ele>550.40002441406</ele>
        <time>2021-05-30T09:03:17.000Z</time>
      </trkpt>
      <trkpt lat="47.80042" lon="7.08482">
        <ele>550.79998779297</ele>
        <time>2021-05-30T09:03:18.000Z</time>
      </trkpt>
      <trkpt lat="47.80044" lon="7.08478">
        <ele>551.20001220703</ele>
        <time>2021-05-30T09:03:19.000Z</time>
      </trkpt>
      <trkpt lat="47.80046" lon="7.08467">
        <ele>551.59997558594</ele>
        <time>2021-05-30T09:03:22.000Z</time>
      </trkpt>
      <trkpt lat="47.80047" lon="7.08463">
        <ele>552</ele>
        <time>2021-05-30T09:03:23.000Z</time>
      </trkpt>
      <trkpt lat="47.80048" lon="7.0846">
        <ele>552.40002441406</ele>
        <time>2021-05-30T09:03:24.000Z</time>
      </trkpt>
      <trkpt lat="47.80048" lon="7.08457">
        <ele>553</ele>
        <time>2021-05-30T09:03:25.000Z</time>
      </trkpt>
      <trkpt lat="47.80048" lon="7.08454">
        <ele>553.40002441406</ele>
        <time>2021-05-30T09:03:26.000Z</time>
      </trkpt>
      <trkpt lat="47.8005" lon="7.08448">
        <ele>553.79998779297</ele>
        <time>2021-05-30T09:03:28.000Z</time>
      </trkpt>
      <trkpt lat="47.8005" lon="7.08445">
        <ele>554.20001220703</ele>
        <time>2021-05-30T09:03:29.000Z</time>
      </trkpt>
      <trkpt lat="47.8005" lon="7.08442">
        <ele>554.59997558594</ele>
        <time>2021-05-30T09:03:30.000Z</time>
      </trkpt>
      <trkpt lat="47.8005" lon="7.08439">
        <ele>555</ele>
        <time>2021-05-30T09:03:31.000Z</time>
      </trkpt>
      <trkpt lat="47.8005" lon="7.08436">
        <ele>555.40002441406</ele>
        <time>2021-05-30T09:03:32.000Z</time>
      </trkpt>
      <trkpt lat="47.80051" lon="7.08427">
        <ele>555.79998779297</ele>
        <time>2021-05-30T09:03:35.000Z</time>
      </trkpt>
      <trkpt lat="47.80051" lon="7.08424">
        <ele>556.20001220703</ele>
        <time>2021-05-30T09:03:36.000Z</time>
      </trkpt>
      <trkpt lat="47.80052" lon="7.08422">
        <ele>557.20001220703</ele>
        <time>2021-05-30T09:03:37.000Z</time>
      </trkpt>
      <trkpt lat="47.80052" lon="7.08419">
        <ele>557.59997558594</ele>
        <time>2021-05-30T09:03:38.000Z</time>
      </trkpt>
      <trkpt lat="47.80054" lon="7.0841">
        <ele>558</ele>
        <time>2021-05-30T09:03:41.000Z</time>
      </trkpt>
      <trkpt lat="47.80055" lon="7.08406">
        <ele>558.40002441406</ele>
        <time>2021-05-30T09:03:42.000Z</time>
      </trkpt>
      <trkpt lat="47.80056" lon="7.08404">
        <ele>558.79998779297</ele>
        <time>2021-05-30T09:03:43.000Z</time>
      </trkpt>
      <trkpt lat="47.80057" lon="7.08401">
        <ele>559.20001220703</ele>
        <time>2021-05-30T09:03:44.000Z</time>
      </trkpt>
      <trkpt lat="47.80058" lon="7.08399">
        <ele>559.59997558594</ele>
        <time>2021-05-30T09:03:45.000Z</time>
      </trkpt>
      <trkpt lat="47.80057" lon="7.08395">
        <ele>559.59997558594</ele>
        <time>2021-05-30T09:03:47.000Z</time>
      </trkpt>
      <trkpt lat="47.80058" lon="7.0839">
        <ele>560</ele>
        <time>2021-05-30T09:03:49.000Z</time>
      </trkpt>
      <trkpt lat="47.80058" lon="7.08388">
        <ele>560.40002441406</ele>
        <time>2021-05-30T09:03:50.000Z</time>
      </trkpt>
      <trkpt lat="47.80058" lon="7.08386">
        <ele>561</ele>
        <time>2021-05-30T09:03:51.000Z</time>
      </trkpt>
      <trkpt lat="47.80058" lon="7.08384">
        <ele>561.40002441406</ele>
        <time>2021-05-30T09:03:52.000Z</time>
      </trkpt>
      <trkpt lat="47.80058" lon="7.08381">
        <ele>561.79998779297</ele>
        <time>2021-05-30T09:03:53.000Z</time>
      </trkpt>
      <trkpt lat="47.80059" lon="7.08372">
        <ele>561.79998779297</ele>
        <time>2021-05-30T09:03:57.000Z</time>
      </trkpt>
      <trkpt lat="47.80061" lon="7.08368">
        <ele>562.20001220703</ele>
        <time>2021-05-30T09:03:59.000Z</time>
      </trkpt>
      <trkpt lat="47.80062" lon="7.08365">
        <ele>562.59997558594</ele>
        <time>2021-05-30T09:04:00.000Z</time>
      </trkpt>
      <trkpt lat="47.80062" lon="7.08363">
        <ele>563</ele>
        <time>2021-05-30T09:04:01.000Z</time>
      </trkpt>
      <trkpt lat="47.80063" lon="7.0836">
        <ele>563.79998779297</ele>
        <time>2021-05-30T09:04:02.000Z</time>
      </trkpt>
      <trkpt lat="47.80066" lon="7.08354">
        <ele>563.79998779297</ele>
        <time>2021-05-30T09:04:04.000Z</time>
      </trkpt>
      <trkpt lat="47.80069" lon="7.08343">
        <ele>564.20001220703</ele>
        <time>2021-05-30T09:04:07.000Z</time>
      </trkpt>
      <trkpt lat="47.80069" lon="7.08341">
        <ele>564.79998779297</ele>
        <time>2021-05-30T09:04:08.000Z</time>
      </trkpt>
      <trkpt lat="47.8007" lon="7.08337">
        <ele>565.20001220703</ele>
        <time>2021-05-30T09:04:09.000Z</time>
      </trkpt>
      <trkpt lat="47.80071" lon="7.08335">
        <ele>565.59997558594</ele>
        <time>2021-05-30T09:04:10.000Z</time>
      </trkpt>
      <trkpt lat="47.80072" lon="7.08332">
        <ele>566</ele>
        <time>2021-05-30T09:04:11.000Z</time>
      </trkpt>
      <trkpt lat="47.80073" lon="7.08325">
        <ele>566.40002441406</ele>
        <time>2021-05-30T09:04:13.000Z</time>
      </trkpt>
      <trkpt lat="47.80074" lon="7.08322">
        <ele>567</ele>
        <time>2021-05-30T09:04:14.000Z</time>
      </trkpt>
      <trkpt lat="47.80076" lon="7.08319">
        <ele>567.40002441406</ele>
        <time>2021-05-30T09:04:15.000Z</time>
      </trkpt>
      <trkpt lat="47.80077" lon="7.08316">
        <ele>567.79998779297</ele>
        <time>2021-05-30T09:04:16.000Z</time>
      </trkpt>
      <trkpt lat="47.80079" lon="7.08315">
        <ele>568.20001220703</ele>
        <time>2021-05-30T09:04:17.000Z</time>
      </trkpt>
      <trkpt lat="47.8008" lon="7.08314">
        <ele>568.59997558594</ele>
        <time>2021-05-30T09:04:18.000Z</time>
      </trkpt>
      <trkpt lat="47.80082" lon="7.08312">
        <ele>569.20001220703</ele>
        <time>2021-05-30T09:04:19.000Z</time>
      </trkpt>
      <trkpt lat="47.80083" lon="7.08313">
        <ele>569.59997558594</ele>
        <time>2021-05-30T09:04:20.000Z</time>
      </trkpt>
      <trkpt lat="47.80083" lon="7.08314">
        <ele>570</ele>
        <time>2021-05-30T09:04:21.000Z</time>
      </trkpt>
      <trkpt lat="47.80083" lon="7.08315">
        <ele>570.40002441406</ele>
        <time>2021-05-30T09:04:22.000Z</time>
      </trkpt>
      <trkpt lat="47.80082" lon="7.08316">
        <ele>570.40002441406</ele>
        <time>2021-05-30T09:04:26.000Z</time>
      </trkpt>
      <trkpt lat="47.80082" lon="7.08317">
        <ele>570.40002441406</ele>
        <time>2021-05-30T09:04:27.000Z</time>
      </trkpt>
      <trkpt lat="47.80083" lon="7.08324">
        <ele>570.40002441406</ele>
        <time>2021-05-30T09:04:35.000Z</time>
      </trkpt>
      <trkpt lat="47.80086" lon="7.0833">
        <ele>570.79998779297</ele>
        <time>2021-05-30T09:04:37.000Z</time>
      </trkpt>
      <trkpt lat="47.80088" lon="7.08334">
        <ele>571.20001220703</ele>
        <time>2021-05-30T09:04:38.000Z</time>
      </trkpt>
      <trkpt lat="47.80089" lon="7.08338">
        <ele>571.59997558594</ele>
        <time>2021-05-30T09:04:39.000Z</time>
      </trkpt>
      <trkpt lat="47.8009" lon="7.08341">
        <ele>572.20001220703</ele>
        <time>2021-05-30T09:04:40.000Z</time>
      </trkpt>
      <trkpt lat="47.8009" lon="7.08344">
        <ele>572.59997558594</ele>
        <time>2021-05-30T09:04:41.000Z</time>
      </trkpt>
      <trkpt lat="47.80093" lon="7.0835">
        <ele>572.59997558594</ele>
        <time>2021-05-30T09:04:43.000Z</time>
      </trkpt>
      <trkpt lat="47.80095" lon="7.08351">
        <ele>573</ele>
        <time>2021-05-30T09:04:44.000Z</time>
      </trkpt>
      <trkpt lat="47.80095" lon="7.08349">
        <ele>573.40002441406</ele>
        <time>2021-05-30T09:04:45.000Z</time>
      </trkpt>
      <trkpt lat="47.80095" lon="7.08347">
        <ele>573.79998779297</ele>
        <time>2021-05-30T09:04:46.000Z</time>
      </trkpt>
      <trkpt lat="47.80095" lon="7.08346">
        <ele>574.20001220703</ele>
        <time>2021-05-30T09:04:47.000Z</time>
      </trkpt>
      <trkpt lat="47.80096" lon="7.08344">
        <ele>574.59997558594</ele>
        <time>2021-05-30T09:04:48.000Z</time>
      </trkpt>
      <trkpt lat="47.80097" lon="7.0834">
        <ele>575.20001220703</ele>
        <time>2021-05-30T09:04:50.000Z</time>
      </trkpt>
      <trkpt lat="47.80098" lon="7.08337">
        <ele>576</ele>
        <time>2021-05-30T09:04:51.000Z</time>
      </trkpt>
      <trkpt lat="47.80098" lon="7.08335">
        <ele>576.40002441406</ele>
        <time>2021-05-30T09:04:52.000Z</time>
      </trkpt>
      <trkpt lat="47.80099" lon="7.08333">
        <ele>576.79998779297</ele>
        <time>2021-05-30T09:04:53.000Z</time>
      </trkpt>
      <trkpt lat="47.80099" lon="7.08331">
        <ele>576.79998779297</ele>
        <time>2021-05-30T09:04:54.000Z</time>
      </trkpt>
      <trkpt lat="47.80098" lon="7.08329">
        <ele>577.20001220703</ele>
        <time>2021-05-30T09:04:55.000Z</time>
      </trkpt>
      <trkpt lat="47.80099" lon="7.08325">
        <ele>577.59997558594</ele>
        <time>2021-05-30T09:04:56.000Z</time>
      </trkpt>
      <trkpt lat="47.80098" lon="7.08322">
        <ele>578</ele>
        <time>2021-05-30T09:04:57.000Z</time>
      </trkpt>
      <trkpt lat="47.801" lon="7.08317">
        <ele>578.40002441406</ele>
        <time>2021-05-30T09:04:58.000Z</time>
      </trkpt>
      <trkpt lat="47.80101" lon="7.08313">
        <ele>578.79998779297</ele>
        <time>2021-05-30T09:04:59.000Z</time>
      </trkpt>
      <trkpt lat="47.801" lon="7.0831">
        <ele>578.79998779297</ele>
        <time>2021-05-30T09:05:00.000Z</time>
      </trkpt>
      <trkpt lat="47.80101" lon="7.08307">
        <ele>579.40002441406</ele>
        <time>2021-05-30T09:05:01.000Z</time>
      </trkpt>
      <trkpt lat="47.80101" lon="7.08304">
        <ele>579.79998779297</ele>
        <time>2021-05-30T09:05:02.000Z</time>
      </trkpt>
      <trkpt lat="47.80102" lon="7.08301">
        <ele>580.20001220703</ele>
        <time>2021-05-30T09:05:03.000Z</time>
      </trkpt>
      <trkpt lat="47.80102" lon="7.08297">
        <ele>580.79998779297</ele>
        <time>2021-05-30T09:05:04.000Z</time>
      </trkpt>
      <trkpt lat="47.80103" lon="7.08294">
        <ele>581.20001220703</ele>
        <time>2021-05-30T09:05:05.000Z</time>
      </trkpt>
      <trkpt lat="47.80102" lon="7.08288">
        <ele>581.59997558594</ele>
        <time>2021-05-30T09:05:07.000Z</time>
      </trkpt>
      <trkpt lat="47.80102" lon="7.08285">
        <ele>582.20001220703</ele>
        <time>2021-05-30T09:05:08.000Z</time>
      </trkpt>
      <trkpt lat="47.80101" lon="7.08281">
        <ele>582.59997558594</ele>
        <time>2021-05-30T09:05:09.000Z</time>
      </trkpt>
      <trkpt lat="47.80101" lon="7.08279">
        <ele>583</ele>
        <time>2021-05-30T09:05:10.000Z</time>
      </trkpt>
      <trkpt lat="47.80101" lon="7.08276">
        <ele>583.40002441406</ele>
        <time>2021-05-30T09:05:11.000Z</time>
      </trkpt>
      <trkpt lat="47.80103" lon="7.08267">
        <ele>583.79998779297</ele>
        <time>2021-05-30T09:05:14.000Z</time>
      </trkpt>
      <trkpt lat="47.80105" lon="7.08264">
        <ele>584.20001220703</ele>
        <time>2021-05-30T09:05:15.000Z</time>
      </trkpt>
      <trkpt lat="47.80108" lon="7.08262">
        <ele>585.20001220703</ele>
        <time>2021-05-30T09:05:16.000Z</time>
      </trkpt>
      <trkpt lat="47.8011" lon="7.0826">
        <ele>585.59997558594</ele>
        <time>2021-05-30T09:05:17.000Z</time>
      </trkpt>
      <trkpt lat="47.80112" lon="7.08254">
        <ele>585.59997558594</ele>
        <time>2021-05-30T09:05:19.000Z</time>
      </trkpt>
      <trkpt lat="47.80113" lon="7.0825">
        <ele>586</ele>
        <time>2021-05-30T09:05:20.000Z</time>
      </trkpt>
      <trkpt lat="47.80114" lon="7.08247">
        <ele>586.59997558594</ele>
        <time>2021-05-30T09:05:21.000Z</time>
      </trkpt>
      <trkpt lat="47.80115" lon="7.08244">
        <ele>587</ele>
        <time>2021-05-30T09:05:22.000Z</time>
      </trkpt>
      <trkpt lat="47.80116" lon="7.08241">
        <ele>587.40002441406</ele>
        <time>2021-05-30T09:05:23.000Z</time>
      </trkpt>
      <trkpt lat="47.80116" lon="7.08239">
        <ele>587.79998779297</ele>
        <time>2021-05-30T09:05:24.000Z</time>
      </trkpt>
      <trkpt lat="47.80117" lon="7.08234">
        <ele>588.20001220703</ele>
        <time>2021-05-30T09:05:26.000Z</time>
      </trkpt>
      <trkpt lat="47.80117" lon="7.08231">
        <ele>588.59997558594</ele>
        <time>2021-05-30T09:05:27.000Z</time>
      </trkpt>
      <trkpt lat="47.80118" lon="7.08228">
        <ele>589</ele>
        <time>2021-05-30T09:05:28.000Z</time>
      </trkpt>
      <trkpt lat="47.8012" lon="7.08224">
        <ele>589.40002441406</ele>
        <time>2021-05-30T09:05:29.000Z</time>
      </trkpt>
      <trkpt lat="47.80121" lon="7.08221">
        <ele>589.79998779297</ele>
        <time>2021-05-30T09:05:30.000Z</time>
      </trkpt>
      <trkpt lat="47.80127" lon="7.0821">
        <ele>589.79998779297</ele>
        <time>2021-05-30T09:05:34.000Z</time>
      </trkpt>
      <trkpt lat="47.80128" lon="7.08208">
        <ele>590.40002441406</ele>
        <time>2021-05-30T09:05:35.000Z</time>
      </trkpt>
      <trkpt lat="47.80128" lon="7.08205">
        <ele>590.79998779297</ele>
        <time>2021-05-30T09:05:36.000Z</time>
      </trkpt>
      <trkpt lat="47.80129" lon="7.08203">
        <ele>591.20001220703</ele>
        <time>2021-05-30T09:05:37.000Z</time>
      </trkpt>
      <trkpt lat="47.80129" lon="7.082">
        <ele>591.79998779297</ele>
        <time>2021-05-30T09:05:38.000Z</time>
      </trkpt>
      <trkpt lat="47.8013" lon="7.08198">
        <ele>592.20001220703</ele>
        <time>2021-05-30T09:05:39.000Z</time>
      </trkpt>
      <trkpt lat="47.80131" lon="7.08194">
        <ele>592.79998779297</ele>
        <time>2021-05-30T09:05:41.000Z</time>
      </trkpt>
      <trkpt lat="47.80132" lon="7.08191">
        <ele>593.20001220703</ele>
        <time>2021-05-30T09:05:42.000Z</time>
      </trkpt>
      <trkpt lat="47.80132" lon="7.08188">
        <ele>593.59997558594</ele>
        <time>2021-05-30T09:05:43.000Z</time>
      </trkpt>
      <trkpt lat="47.80133" lon="7.08185">
        <ele>594.20001220703</ele>
        <time>2021-05-30T09:05:44.000Z</time>
      </trkpt>
      <trkpt lat="47.80134" lon="7.08184">
        <ele>594.59997558594</ele>
        <time>2021-05-30T09:05:45.000Z</time>
      </trkpt>
      <trkpt lat="47.80137" lon="7.08172">
        <ele>595</ele>
        <time>2021-05-30T09:05:49.000Z</time>
      </trkpt>
      <trkpt lat="47.80138" lon="7.08169">
        <ele>595.40002441406</ele>
        <time>2021-05-30T09:05:50.000Z</time>
      </trkpt>
      <trkpt lat="47.80139" lon="7.08166">
        <ele>595.79998779297</ele>
        <time>2021-05-30T09:05:51.000Z</time>
      </trkpt>
      <trkpt lat="47.8014" lon="7.08163">
        <ele>596.40002441406</ele>
        <time>2021-05-30T09:05:52.000Z</time>
      </trkpt>
      <trkpt lat="47.80141" lon="7.08159">
        <ele>596.79998779297</ele>
        <time>2021-05-30T09:05:53.000Z</time>
      </trkpt>
      <trkpt lat="47.80143" lon="7.08154">
        <ele>596.79998779297</ele>
        <time>2021-05-30T09:05:55.000Z</time>
      </trkpt>
      <trkpt lat="47.80144" lon="7.0815">
        <ele>597.20001220703</ele>
        <time>2021-05-30T09:05:57.000Z</time>
      </trkpt>
      <trkpt lat="47.80144" lon="7.08147">
        <ele>597.59997558594</ele>
        <time>2021-05-30T09:05:58.000Z</time>
      </trkpt>
      <trkpt lat="47.80145" lon="7.08144">
        <ele>598</ele>
        <time>2021-05-30T09:05:59.000Z</time>
      </trkpt>
      <trkpt lat="47.80145" lon="7.08141">
        <ele>598.40002441406</ele>
        <time>2021-05-30T09:06:00.000Z</time>
      </trkpt>
      <trkpt lat="47.80145" lon="7.08139">
        <ele>599</ele>
        <time>2021-05-30T09:06:01.000Z</time>
      </trkpt>
      <trkpt lat="47.80145" lon="7.08129">
        <ele>599.79998779297</ele>
        <time>2021-05-30T09:06:05.000Z</time>
      </trkpt>
      <trkpt lat="47.80145" lon="7.08127">
        <ele>600.20001220703</ele>
        <time>2021-05-30T09:06:06.000Z</time>
      </trkpt>
      <trkpt lat="47.80145" lon="7.08124">
        <ele>600.79998779297</ele>
        <time>2021-05-30T09:06:07.000Z</time>
      </trkpt>
      <trkpt lat="47.80145" lon="7.08122">
        <ele>601.20001220703</ele>
        <time>2021-05-30T09:06:08.000Z</time>
      </trkpt>
      <trkpt lat="47.80145" lon="7.0811">
        <ele>601.59997558594</ele>
        <time>2021-05-30T09:06:12.000Z</time>
      </trkpt>
      <trkpt lat="47.80145" lon="7.08107">
        <ele>602</ele>
        <time>2021-05-30T09:06:13.000Z</time>
      </trkpt>
      <trkpt lat="47.80145" lon="7.08104">
        <ele>602.40002441406</ele>
        <time>2021-05-30T09:06:14.000Z</time>
      </trkpt>
      <trkpt lat="47.80145" lon="7.081">
        <ele>602.79998779297</ele>
        <time>2021-05-30T09:06:15.000Z</time>
      </trkpt>
      <trkpt lat="47.80146" lon="7.08097">
        <ele>603.40002441406</ele>
        <time>2021-05-30T09:06:16.000Z</time>
      </trkpt>
      <trkpt lat="47.80145" lon="7.0809">
        <ele>603.40002441406</ele>
        <time>2021-05-30T09:06:19.000Z</time>
      </trkpt>
      <trkpt lat="47.80145" lon="7.08087">
        <ele>603.79998779297</ele>
        <time>2021-05-30T09:06:20.000Z</time>
      </trkpt>
      <trkpt lat="47.80145" lon="7.08084">
        <ele>604.20001220703</ele>
        <time>2021-05-30T09:06:21.000Z</time>
      </trkpt>
      <trkpt lat="47.80145" lon="7.08082">
        <ele>604.59997558594</ele>
        <time>2021-05-30T09:06:22.000Z</time>
      </trkpt>
      <trkpt lat="47.80145" lon="7.08078">
        <ele>605</ele>
        <time>2021-05-30T09:06:23.000Z</time>
      </trkpt>
      <trkpt lat="47.80146" lon="7.08075">
        <ele>605.40002441406</ele>
        <time>2021-05-30T09:06:24.000Z</time>
      </trkpt>
      <trkpt lat="47.80149" lon="7.08068">
        <ele>605.79998779297</ele>
        <time>2021-05-30T09:06:27.000Z</time>
      </trkpt>
      <trkpt lat="47.8015" lon="7.08065">
        <ele>606.40002441406</ele>
        <time>2021-05-30T09:06:28.000Z</time>
      </trkpt>
      <trkpt lat="47.80151" lon="7.08061">
        <ele>606.79998779297</ele>
        <time>2021-05-30T09:06:29.000Z</time>
      </trkpt>
      <trkpt lat="47.80152" lon="7.08058">
        <ele>607.59997558594</ele>
        <time>2021-05-30T09:06:30.000Z</time>
      </trkpt>
      <trkpt lat="47.80152" lon="7.08056">
        <ele>607.59997558594</ele>
        <time>2021-05-30T09:06:31.000Z</time>
      </trkpt>
      <trkpt lat="47.80152" lon="7.08049">
        <ele>608</ele>
        <time>2021-05-30T09:06:33.000Z</time>
      </trkpt>
      <trkpt lat="47.80151" lon="7.08045">
        <ele>608.59997558594</ele>
        <time>2021-05-30T09:06:34.000Z</time>
      </trkpt>
      <trkpt lat="47.80151" lon="7.08043">
        <ele>609</ele>
        <time>2021-05-30T09:06:35.000Z</time>
      </trkpt>
      <trkpt lat="47.8015" lon="7.0804">
        <ele>609.40002441406</ele>
        <time>2021-05-30T09:06:36.000Z</time>
      </trkpt>
      <trkpt lat="47.8015" lon="7.08037">
        <ele>609.79998779297</ele>
        <time>2021-05-30T09:06:37.000Z</time>
      </trkpt>
      <trkpt lat="47.8015" lon="7.08033">
        <ele>609.79998779297</ele>
        <time>2021-05-30T09:06:38.000Z</time>
      </trkpt>
      <trkpt lat="47.80151" lon="7.08026">
        <ele>610.20001220703</ele>
        <time>2021-05-30T09:06:40.000Z</time>
      </trkpt>
      <trkpt lat="47.8015" lon="7.08024">
        <ele>610.59997558594</ele>
        <time>2021-05-30T09:06:41.000Z</time>
      </trkpt>
      <trkpt lat="47.8015" lon="7.08021">
        <ele>611</ele>
        <time>2021-05-30T09:06:42.000Z</time>
      </trkpt>
      <trkpt lat="47.80149" lon="7.08018">
        <ele>611.59997558594</ele>
        <time>2021-05-30T09:06:43.000Z</time>
      </trkpt>
      <trkpt lat="47.8015" lon="7.08016">
        <ele>612</ele>
        <time>2021-05-30T09:06:44.000Z</time>
      </trkpt>
      <trkpt lat="47.80152" lon="7.08013">
        <ele>612.40002441406</ele>
        <time>2021-05-30T09:06:46.000Z</time>
      </trkpt>
      <trkpt lat="47.80153" lon="7.08011">
        <ele>612.79998779297</ele>
        <time>2021-05-30T09:06:47.000Z</time>
      </trkpt>
      <trkpt lat="47.80153" lon="7.08008">
        <ele>613.20001220703</ele>
        <time>2021-05-30T09:06:48.000Z</time>
      </trkpt>
      <trkpt lat="47.80154" lon="7.08005">
        <ele>613.59997558594</ele>
        <time>2021-05-30T09:06:49.000Z</time>
      </trkpt>
      <trkpt lat="47.80155" lon="7.08001">
        <ele>614</ele>
        <time>2021-05-30T09:06:50.000Z</time>
      </trkpt>
      <trkpt lat="47.80157" lon="7.07996">
        <ele>614</ele>
        <time>2021-05-30T09:06:52.000Z</time>
      </trkpt>
      <trkpt lat="47.80158" lon="7.07992">
        <ele>614.40002441406</ele>
        <time>2021-05-30T09:06:53.000Z</time>
      </trkpt>
      <trkpt lat="47.80159" lon="7.07988">
        <ele>614.79998779297</ele>
        <time>2021-05-30T09:06:54.000Z</time>
      </trkpt>
      <trkpt lat="47.80159" lon="7.07985">
        <ele>615.59997558594</ele>
        <time>2021-05-30T09:06:55.000Z</time>
      </trkpt>
      <trkpt lat="47.80158" lon="7.07982">
        <ele>616.20001220703</ele>
        <time>2021-05-30T09:06:56.000Z</time>
      </trkpt>
      <trkpt lat="47.80156" lon="7.07979">
        <ele>616.20001220703</ele>
        <time>2021-05-30T09:06:57.000Z</time>
      </trkpt>
      <trkpt lat="47.80155" lon="7.07977">
        <ele>616.20001220703</ele>
        <time>2021-05-30T09:06:58.000Z</time>
      </trkpt>
      <trkpt lat="47.80153" lon="7.07972">
        <ele>616.59997558594</ele>
        <time>2021-05-30T09:07:00.000Z</time>
      </trkpt>
      <trkpt lat="47.80153" lon="7.07969">
        <ele>617</ele>
        <time>2021-05-30T09:07:01.000Z</time>
      </trkpt>
      <trkpt lat="47.80153" lon="7.07966">
        <ele>617.40002441406</ele>
        <time>2021-05-30T09:07:02.000Z</time>
      </trkpt>
      <trkpt lat="47.80154" lon="7.07962">
        <ele>617.79998779297</ele>
        <time>2021-05-30T09:07:03.000Z</time>
      </trkpt>
      <trkpt lat="47.80154" lon="7.07959">
        <ele>618.20001220703</ele>
        <time>2021-05-30T09:07:04.000Z</time>
      </trkpt>
      <trkpt lat="47.80153" lon="7.07956">
        <ele>618.20001220703</ele>
        <time>2021-05-30T09:07:05.000Z</time>
      </trkpt>
      <trkpt lat="47.80152" lon="7.07951">
        <ele>618.59997558594</ele>
        <time>2021-05-30T09:07:08.000Z</time>
      </trkpt>
      <trkpt lat="47.80151" lon="7.07949">
        <ele>619.20001220703</ele>
        <time>2021-05-30T09:07:09.000Z</time>
      </trkpt>
      <trkpt lat="47.8015" lon="7.07947">
        <ele>619.59997558594</ele>
        <time>2021-05-30T09:07:10.000Z</time>
      </trkpt>
      <trkpt lat="47.8015" lon="7.07944">
        <ele>620</ele>
        <time>2021-05-30T09:07:11.000Z</time>
      </trkpt>
      <trkpt lat="47.80154" lon="7.07942">
        <ele>620.59997558594</ele>
        <time>2021-05-30T09:07:12.000Z</time>
      </trkpt>
      <trkpt lat="47.80154" lon="7.07931">
        <ele>621</ele>
        <time>2021-05-30T09:07:16.000Z</time>
      </trkpt>
      <trkpt lat="47.80159" lon="7.07929">
        <ele>621.40002441406</ele>
        <time>2021-05-30T09:07:17.000Z</time>
      </trkpt>
      <trkpt lat="47.80159" lon="7.07927">
        <ele>621.79998779297</ele>
        <time>2021-05-30T09:07:18.000Z</time>
      </trkpt>
      <trkpt lat="47.80159" lon="7.07926">
        <ele>622.20001220703</ele>
        <time>2021-05-30T09:07:19.000Z</time>
      </trkpt>
      <trkpt lat="47.80159" lon="7.07924">
        <ele>622.59997558594</ele>
        <time>2021-05-30T09:07:20.000Z</time>
      </trkpt>
      <trkpt lat="47.80159" lon="7.07921">
        <ele>622.59997558594</ele>
        <time>2021-05-30T09:07:21.000Z</time>
      </trkpt>
      <trkpt lat="47.80159" lon="7.07915">
        <ele>624.79998779297</ele>
        <time>2021-05-30T09:07:31.000Z</time>
      </trkpt>
      <trkpt lat="47.80162" lon="7.07922">
        <ele>624.79998779297</ele>
        <time>2021-05-30T09:07:36.000Z</time>
      </trkpt>
      <trkpt lat="47.80162" lon="7.07924">
        <ele>625.20001220703</ele>
        <time>2021-05-30T09:07:37.000Z</time>
      </trkpt>
      <trkpt lat="47.80163" lon="7.07926">
        <ele>625.59997558594</ele>
        <time>2021-05-30T09:07:38.000Z</time>
      </trkpt>
      <trkpt lat="47.80164" lon="7.07928">
        <ele>626</ele>
        <time>2021-05-30T09:07:39.000Z</time>
      </trkpt>
      <trkpt lat="47.80165" lon="7.0793">
        <ele>626.40002441406</ele>
        <time>2021-05-30T09:07:40.000Z</time>
      </trkpt>
      <trkpt lat="47.80166" lon="7.07933">
        <ele>626.79998779297</ele>
        <time>2021-05-30T09:07:41.000Z</time>
      </trkpt>
      <trkpt lat="47.80167" lon="7.07935">
        <ele>626.79998779297</ele>
        <time>2021-05-30T09:07:42.000Z</time>
      </trkpt>
      <trkpt lat="47.80168" lon="7.0794">
        <ele>627.59997558594</ele>
        <time>2021-05-30T09:07:44.000Z</time>
      </trkpt>
      <trkpt lat="47.80168" lon="7.07943">
        <ele>628.20001220703</ele>
        <time>2021-05-30T09:07:45.000Z</time>
      </trkpt>
      <trkpt lat="47.80169" lon="7.07946">
        <ele>628.59997558594</ele>
        <time>2021-05-30T09:07:46.000Z</time>
      </trkpt>
      <trkpt lat="47.80171" lon="7.07948">
        <ele>629</ele>
        <time>2021-05-30T09:07:47.000Z</time>
      </trkpt>
      <trkpt lat="47.80174" lon="7.07955">
        <ele>629.40002441406</ele>
        <time>2021-05-30T09:07:49.000Z</time>
      </trkpt>
      <trkpt lat="47.80175" lon="7.07957">
        <ele>629.79998779297</ele>
        <time>2021-05-30T09:07:50.000Z</time>
      </trkpt>
      <trkpt lat="47.80176" lon="7.0796">
        <ele>630.20001220703</ele>
        <time>2021-05-30T09:07:51.000Z</time>
      </trkpt>
      <trkpt lat="47.80177" lon="7.07963">
        <ele>630.59997558594</ele>
        <time>2021-05-30T09:07:52.000Z</time>
      </trkpt>
      <trkpt lat="47.80179" lon="7.07967">
        <ele>631</ele>
        <time>2021-05-30T09:07:53.000Z</time>
      </trkpt>
      <trkpt lat="47.80182" lon="7.07973">
        <ele>631.40002441406</ele>
        <time>2021-05-30T09:07:55.000Z</time>
      </trkpt>
      <trkpt lat="47.80183" lon="7.07976">
        <ele>632</ele>
        <time>2021-05-30T09:07:56.000Z</time>
      </trkpt>
      <trkpt lat="47.80185" lon="7.07979">
        <ele>632.40002441406</ele>
        <time>2021-05-30T09:07:57.000Z</time>
      </trkpt>
      <trkpt lat="47.80185" lon="7.07981">
        <ele>632.79998779297</ele>
        <time>2021-05-30T09:07:58.000Z</time>
      </trkpt>
      <trkpt lat="47.80187" lon="7.07983">
        <ele>633.20001220703</ele>
        <time>2021-05-30T09:07:59.000Z</time>
      </trkpt>
      <trkpt lat="47.80192" lon="7.07991">
        <ele>633.59997558594</ele>
        <time>2021-05-30T09:08:02.000Z</time>
      </trkpt>
      <trkpt lat="47.80193" lon="7.07994">
        <ele>634</ele>
        <time>2021-05-30T09:08:03.000Z</time>
      </trkpt>
      <trkpt lat="47.80194" lon="7.07998">
        <ele>634.59997558594</ele>
        <time>2021-05-30T09:08:04.000Z</time>
      </trkpt>
      <trkpt lat="47.80196" lon="7.08">
        <ele>635</ele>
        <time>2021-05-30T09:08:05.000Z</time>
      </trkpt>
      <trkpt lat="47.80198" lon="7.08004">
        <ele>635.40002441406</ele>
        <time>2021-05-30T09:08:06.000Z</time>
      </trkpt>
      <trkpt lat="47.80201" lon="7.08011">
        <ele>636</ele>
        <time>2021-05-30T09:08:09.000Z</time>
      </trkpt>
      <trkpt lat="47.80202" lon="7.08013">
        <ele>636.40002441406</ele>
        <time>2021-05-30T09:08:10.000Z</time>
      </trkpt>
      <trkpt lat="47.80204" lon="7.08016">
        <ele>636.79998779297</ele>
        <time>2021-05-30T09:08:11.000Z</time>
      </trkpt>
      <trkpt lat="47.80206" lon="7.0802">
        <ele>637.20001220703</ele>
        <time>2021-05-30T09:08:12.000Z</time>
      </trkpt>
      <trkpt lat="47.80208" lon="7.08022">
        <ele>637.79998779297</ele>
        <time>2021-05-30T09:08:13.000Z</time>
      </trkpt>
      <trkpt lat="47.80211" lon="7.08028">
        <ele>637.79998779297</ele>
        <time>2021-05-30T09:08:15.000Z</time>
      </trkpt>
      <trkpt lat="47.80212" lon="7.08031">
        <ele>638.20001220703</ele>
        <time>2021-05-30T09:08:16.000Z</time>
      </trkpt>
      <trkpt lat="47.80213" lon="7.08034">
        <ele>638.59997558594</ele>
        <time>2021-05-30T09:08:17.000Z</time>
      </trkpt>
      <trkpt lat="47.80213" lon="7.08036">
        <ele>639</ele>
        <time>2021-05-30T09:08:18.000Z</time>
      </trkpt>
      <trkpt lat="47.80215" lon="7.08038">
        <ele>639.40002441406</ele>
        <time>2021-05-30T09:08:19.000Z</time>
      </trkpt>
      <trkpt lat="47.80214" lon="7.08041">
        <ele>639.79998779297</ele>
        <time>2021-05-30T09:08:20.000Z</time>
      </trkpt>
      <trkpt lat="47.80216" lon="7.08053">
        <ele>640.20001220703</ele>
        <time>2021-05-30T09:08:24.000Z</time>
      </trkpt>
      <trkpt lat="47.80217" lon="7.08055">
        <ele>640.59997558594</ele>
        <time>2021-05-30T09:08:25.000Z</time>
      </trkpt>
      <trkpt lat="47.80218" lon="7.08058">
        <ele>641.20001220703</ele>
        <time>2021-05-30T09:08:26.000Z</time>
      </trkpt>
      <trkpt lat="47.80219" lon="7.08061">
        <ele>641.59997558594</ele>
        <time>2021-05-30T09:08:27.000Z</time>
      </trkpt>
      <trkpt lat="47.80221" lon="7.08064">
        <ele>642</ele>
        <time>2021-05-30T09:08:28.000Z</time>
      </trkpt>
      <trkpt lat="47.80228" lon="7.08071">
        <ele>642.40002441406</ele>
        <time>2021-05-30T09:08:31.000Z</time>
      </trkpt>
      <trkpt lat="47.8023" lon="7.08074">
        <ele>642.79998779297</ele>
        <time>2021-05-30T09:08:32.000Z</time>
      </trkpt>
      <trkpt lat="47.80231" lon="7.08076">
        <ele>643.20001220703</ele>
        <time>2021-05-30T09:08:33.000Z</time>
      </trkpt>
      <trkpt lat="47.80232" lon="7.0808">
        <ele>644</ele>
        <time>2021-05-30T09:08:34.000Z</time>
      </trkpt>
      <trkpt lat="47.80233" lon="7.08085">
        <ele>644.40002441406</ele>
        <time>2021-05-30T09:08:35.000Z</time>
      </trkpt>
      <trkpt lat="47.80235" lon="7.08088">
        <ele>645</ele>
        <time>2021-05-30T09:08:36.000Z</time>
      </trkpt>
      <trkpt lat="47.80236" lon="7.08091">
        <ele>645.40002441406</ele>
        <time>2021-05-30T09:08:37.000Z</time>
      </trkpt>
      <trkpt lat="47.80238" lon="7.08095">
        <ele>646</ele>
        <time>2021-05-30T09:08:38.000Z</time>
      </trkpt>
      <trkpt lat="47.80239" lon="7.08098">
        <ele>646.40002441406</ele>
        <time>2021-05-30T09:08:39.000Z</time>
      </trkpt>
      <trkpt lat="47.80239" lon="7.08101">
        <ele>646.79998779297</ele>
        <time>2021-05-30T09:08:40.000Z</time>
      </trkpt>
      <trkpt lat="47.80241" lon="7.08103">
        <ele>647.40002441406</ele>
        <time>2021-05-30T09:08:41.000Z</time>
      </trkpt>
      <trkpt lat="47.80243" lon="7.08107">
        <ele>647.79998779297</ele>
        <time>2021-05-30T09:08:42.000Z</time>
      </trkpt>
      <trkpt lat="47.80245" lon="7.08109">
        <ele>648.20001220703</ele>
        <time>2021-05-30T09:08:43.000Z</time>
      </trkpt>
      <trkpt lat="47.80247" lon="7.08113">
        <ele>648.59997558594</ele>
        <time>2021-05-30T09:08:44.000Z</time>
      </trkpt>
      <trkpt lat="47.80254" lon="7.08125">
        <ele>649</ele>
        <time>2021-05-30T09:08:48.000Z</time>
      </trkpt>
      <trkpt lat="47.80256" lon="7.08125">
        <ele>649.59997558594</ele>
        <time>2021-05-30T09:08:49.000Z</time>
      </trkpt>
      <trkpt lat="47.80258" lon="7.08123">
        <ele>650</ele>
        <time>2021-05-30T09:08:50.000Z</time>
      </trkpt>
      <trkpt lat="47.80259" lon="7.08122">
        <ele>650.40002441406</ele>
        <time>2021-05-30T09:08:51.000Z</time>
      </trkpt>
      <trkpt lat="47.80261" lon="7.08119">
        <ele>650.79998779297</ele>
        <time>2021-05-30T09:08:52.000Z</time>
      </trkpt>
      <trkpt lat="47.80265" lon="7.08112">
        <ele>651.20001220703</ele>
        <time>2021-05-30T09:08:55.000Z</time>
      </trkpt>
      <trkpt lat="47.80266" lon="7.08111">
        <ele>651.59997558594</ele>
        <time>2021-05-30T09:08:56.000Z</time>
      </trkpt>
      <trkpt lat="47.80266" lon="7.08112">
        <ele>652.20001220703</ele>
        <time>2021-05-30T09:08:57.000Z</time>
      </trkpt>
      <trkpt lat="47.80268" lon="7.08113">
        <ele>653</ele>
        <time>2021-05-30T09:08:58.000Z</time>
      </trkpt>
      <trkpt lat="47.80269" lon="7.08117">
        <ele>653</ele>
        <time>2021-05-30T09:13:23.000Z</time>
      </trkpt>
      <trkpt lat="47.8027" lon="7.08116">
        <ele>653</ele>
        <time>2021-05-30T09:13:24.000Z</time>
      </trkpt>
      <trkpt lat="47.80272" lon="7.08131">
        <ele>653</ele>
        <time>2021-05-30T09:13:51.000Z</time>
      </trkpt>
      <trkpt lat="47.80271" lon="7.08137">
        <ele>653</ele>
        <time>2021-05-30T09:13:52.000Z</time>
      </trkpt>
      <trkpt lat="47.80268" lon="7.08145">
        <ele>653</ele>
        <time>2021-05-30T09:13:53.000Z</time>
      </trkpt>
      <trkpt lat="47.80266" lon="7.08151">
        <ele>652</ele>
        <time>2021-05-30T09:13:54.000Z</time>
      </trkpt>
      <trkpt lat="47.80265" lon="7.08157">
        <ele>651.59997558594</ele>
        <time>2021-05-30T09:13:55.000Z</time>
      </trkpt>
      <trkpt lat="47.80265" lon="7.08163">
        <ele>651</ele>
        <time>2021-05-30T09:13:56.000Z</time>
      </trkpt>
      <trkpt lat="47.80265" lon="7.0817">
        <ele>650.59997558594</ele>
        <time>2021-05-30T09:13:57.000Z</time>
      </trkpt>
      <trkpt lat="47.80265" lon="7.08178">
        <ele>650</ele>
        <time>2021-05-30T09:13:58.000Z</time>
      </trkpt>
      <trkpt lat="47.80264" lon="7.08186">
        <ele>649.40002441406</ele>
        <time>2021-05-30T09:13:59.000Z</time>
      </trkpt>
      <trkpt lat="47.80265" lon="7.08194">
        <ele>648.79998779297</ele>
        <time>2021-05-30T09:14:00.000Z</time>
      </trkpt>
      <trkpt lat="47.80265" lon="7.08202">
        <ele>648.20001220703</ele>
        <time>2021-05-30T09:14:01.000Z</time>
      </trkpt>
      <trkpt lat="47.80264" lon="7.08209">
        <ele>647.40002441406</ele>
        <time>2021-05-30T09:14:02.000Z</time>
      </trkpt>
      <trkpt lat="47.80263" lon="7.08214">
        <ele>646.59997558594</ele>
        <time>2021-05-30T09:14:03.000Z</time>
      </trkpt>
      <trkpt lat="47.80262" lon="7.08219">
        <ele>646</ele>
        <time>2021-05-30T09:14:04.000Z</time>
      </trkpt>
      <trkpt lat="47.80261" lon="7.08225">
        <ele>645.20001220703</ele>
        <time>2021-05-30T09:14:05.000Z</time>
      </trkpt>
      <trkpt lat="47.80257" lon="7.08245">
        <ele>645.20001220703</ele>
        <time>2021-05-30T09:14:08.000Z</time>
      </trkpt>
      <trkpt lat="47.80257" lon="7.08252">
        <ele>645.20001220703</ele>
        <time>2021-05-30T09:14:09.000Z</time>
      </trkpt>
      <trkpt lat="47.80253" lon="7.08276">
        <ele>644.79998779297</ele>
        <time>2021-05-30T09:14:12.000Z</time>
      </trkpt>
      <trkpt lat="47.80252" lon="7.08282">
        <ele>644.40002441406</ele>
        <time>2021-05-30T09:14:13.000Z</time>
      </trkpt>
      <trkpt lat="47.80252" lon="7.08287">
        <ele>643.59997558594</ele>
        <time>2021-05-30T09:14:14.000Z</time>
      </trkpt>
      <trkpt lat="47.8025" lon="7.08293">
        <ele>642.79998779297</ele>
        <time>2021-05-30T09:14:15.000Z</time>
      </trkpt>
      <trkpt lat="47.80249" lon="7.083">
        <ele>642</ele>
        <time>2021-05-30T09:14:16.000Z</time>
      </trkpt>
      <trkpt lat="47.80247" lon="7.08306">
        <ele>641</ele>
        <time>2021-05-30T09:14:17.000Z</time>
      </trkpt>
      <trkpt lat="47.80246" lon="7.08314">
        <ele>638.79998779297</ele>
        <time>2021-05-30T09:14:18.000Z</time>
      </trkpt>
      <trkpt lat="47.80245" lon="7.08322">
        <ele>637.79998779297</ele>
        <time>2021-05-30T09:14:19.000Z</time>
      </trkpt>
      <trkpt lat="47.80245" lon="7.08332">
        <ele>636.79998779297</ele>
        <time>2021-05-30T09:14:20.000Z</time>
      </trkpt>
      <trkpt lat="47.80244" lon="7.08339">
        <ele>635.59997558594</ele>
        <time>2021-05-30T09:14:21.000Z</time>
      </trkpt>
      <trkpt lat="47.80243" lon="7.08345">
        <ele>634.59997558594</ele>
        <time>2021-05-30T09:14:22.000Z</time>
      </trkpt>
      <trkpt lat="47.80241" lon="7.0835">
        <ele>633.59997558594</ele>
        <time>2021-05-30T09:14:23.000Z</time>
      </trkpt>
      <trkpt lat="47.8024" lon="7.08351">
        <ele>632.40002441406</ele>
        <time>2021-05-30T09:14:24.000Z</time>
      </trkpt>
      <trkpt lat="47.80238" lon="7.08354">
        <ele>631.79998779297</ele>
        <time>2021-05-30T09:14:25.000Z</time>
      </trkpt>
      <trkpt lat="47.80234" lon="7.08355">
        <ele>631</ele>
        <time>2021-05-30T09:14:26.000Z</time>
      </trkpt>
      <trkpt lat="47.8023" lon="7.08356">
        <ele>630.20001220703</ele>
        <time>2021-05-30T09:14:27.000Z</time>
      </trkpt>
      <trkpt lat="47.80227" lon="7.08356">
        <ele>629.20001220703</ele>
        <time>2021-05-30T09:14:28.000Z</time>
      </trkpt>
      <trkpt lat="47.80224" lon="7.08355">
        <ele>628.40002441406</ele>
        <time>2021-05-30T09:14:29.000Z</time>
      </trkpt>
      <trkpt lat="47.80222" lon="7.08353">
        <ele>627.40002441406</ele>
        <time>2021-05-30T09:14:30.000Z</time>
      </trkpt>
      <trkpt lat="47.8022" lon="7.08351">
        <ele>626.40002441406</ele>
        <time>2021-05-30T09:14:31.000Z</time>
      </trkpt>
      <trkpt lat="47.80218" lon="7.08352">
        <ele>625.40002441406</ele>
        <time>2021-05-30T09:14:32.000Z</time>
      </trkpt>
      <trkpt lat="47.80217" lon="7.08354">
        <ele>624.40002441406</ele>
        <time>2021-05-30T09:14:33.000Z</time>
      </trkpt>
      <trkpt lat="47.80216" lon="7.08355">
        <ele>624.40002441406</ele>
        <time>2021-05-30T09:14:34.000Z</time>
      </trkpt>
      <trkpt lat="47.80212" lon="7.08356">
        <ele>622.40002441406</ele>
        <time>2021-05-30T09:14:52.000Z</time>
      </trkpt>
      <trkpt lat="47.80208" lon="7.08362">
        <ele>621.79998779297</ele>
        <time>2021-05-30T09:14:54.000Z</time>
      </trkpt>
      <trkpt lat="47.80206" lon="7.08366">
        <ele>621.20001220703</ele>
        <time>2021-05-30T09:14:55.000Z</time>
      </trkpt>
      <trkpt lat="47.80205" lon="7.08372">
        <ele>620.40002441406</ele>
        <time>2021-05-30T09:14:56.000Z</time>
      </trkpt>
      <trkpt lat="47.80204" lon="7.08377">
        <ele>619.40002441406</ele>
        <time>2021-05-30T09:14:57.000Z</time>
      </trkpt>
      <trkpt lat="47.80202" lon="7.08382">
        <ele>618.40002441406</ele>
        <time>2021-05-30T09:14:58.000Z</time>
      </trkpt>
      <trkpt lat="47.802" lon="7.08385">
        <ele>617.40002441406</ele>
        <time>2021-05-30T09:14:59.000Z</time>
      </trkpt>
      <trkpt lat="47.80197" lon="7.08388">
        <ele>616.40002441406</ele>
        <time>2021-05-30T09:15:00.000Z</time>
      </trkpt>
      <trkpt lat="47.80194" lon="7.08392">
        <ele>615.40002441406</ele>
        <time>2021-05-30T09:15:01.000Z</time>
      </trkpt>
      <trkpt lat="47.8019" lon="7.08394">
        <ele>614.20001220703</ele>
        <time>2021-05-30T09:15:02.000Z</time>
      </trkpt>
      <trkpt lat="47.80187" lon="7.08394">
        <ele>613.20001220703</ele>
        <time>2021-05-30T09:15:03.000Z</time>
      </trkpt>
      <trkpt lat="47.80185" lon="7.08393">
        <ele>612.20001220703</ele>
        <time>2021-05-30T09:15:04.000Z</time>
      </trkpt>
      <trkpt lat="47.80184" lon="7.08391">
        <ele>611</ele>
        <time>2021-05-30T09:15:05.000Z</time>
      </trkpt>
      <trkpt lat="47.80182" lon="7.0839">
        <ele>610</ele>
        <time>2021-05-30T09:15:06.000Z</time>
      </trkpt>
      <trkpt lat="47.80181" lon="7.08389">
        <ele>608.79998779297</ele>
        <time>2021-05-30T09:15:07.000Z</time>
      </trkpt>
      <trkpt lat="47.8018" lon="7.08389">
        <ele>608</ele>
        <time>2021-05-30T09:15:08.000Z</time>
      </trkpt>
      <trkpt lat="47.80178" lon="7.08389">
        <ele>606.59997558594</ele>
        <time>2021-05-30T09:15:20.000Z</time>
      </trkpt>
      <trkpt lat="47.80175" lon="7.08392">
        <ele>606.20001220703</ele>
        <time>2021-05-30T09:15:22.000Z</time>
      </trkpt>
      <trkpt lat="47.80173" lon="7.08393">
        <ele>605.59997558594</ele>
        <time>2021-05-30T09:15:23.000Z</time>
      </trkpt>
      <trkpt lat="47.8017" lon="7.08394">
        <ele>604.79998779297</ele>
        <time>2021-05-30T09:15:24.000Z</time>
      </trkpt>
      <trkpt lat="47.80167" lon="7.08394">
        <ele>604</ele>
        <time>2021-05-30T09:15:25.000Z</time>
      </trkpt>
      <trkpt lat="47.80164" lon="7.08396">
        <ele>603.20001220703</ele>
        <time>2021-05-30T09:15:26.000Z</time>
      </trkpt>
      <trkpt lat="47.80163" lon="7.084">
        <ele>602.20001220703</ele>
        <time>2021-05-30T09:15:27.000Z</time>
      </trkpt>
      <trkpt lat="47.80162" lon="7.08404">
        <ele>601.20001220703</ele>
        <time>2021-05-30T09:15:28.000Z</time>
      </trkpt>
      <trkpt lat="47.80162" lon="7.08407">
        <ele>600.20001220703</ele>
        <time>2021-05-30T09:15:29.000Z</time>
      </trkpt>
      <trkpt lat="47.80162" lon="7.0841">
        <ele>599</ele>
        <time>2021-05-30T09:15:30.000Z</time>
      </trkpt>
      <trkpt lat="47.80161" lon="7.08413">
        <ele>598.20001220703</ele>
        <time>2021-05-30T09:15:31.000Z</time>
      </trkpt>
      <trkpt lat="47.8016" lon="7.08417">
        <ele>596.40002441406</ele>
        <time>2021-05-30T09:15:32.000Z</time>
      </trkpt>
      <trkpt lat="47.8016" lon="7.08423">
        <ele>595.40002441406</ele>
        <time>2021-05-30T09:15:33.000Z</time>
      </trkpt>
      <trkpt lat="47.8016" lon="7.08428">
        <ele>594.40002441406</ele>
        <time>2021-05-30T09:15:34.000Z</time>
      </trkpt>
      <trkpt lat="47.8016" lon="7.08433">
        <ele>593.20001220703</ele>
        <time>2021-05-30T09:15:35.000Z</time>
      </trkpt>
      <trkpt lat="47.8016" lon="7.08439">
        <ele>592.20001220703</ele>
        <time>2021-05-30T09:15:36.000Z</time>
      </trkpt>
      <trkpt lat="47.80161" lon="7.08447">
        <ele>591</ele>
        <time>2021-05-30T09:15:37.000Z</time>
      </trkpt>
      <trkpt lat="47.8016" lon="7.08455">
        <ele>589.79998779297</ele>
        <time>2021-05-30T09:15:38.000Z</time>
      </trkpt>
      <trkpt lat="47.80158" lon="7.08461">
        <ele>588.79998779297</ele>
        <time>2021-05-30T09:15:39.000Z</time>
      </trkpt>
      <trkpt lat="47.80157" lon="7.08466">
        <ele>587.59997558594</ele>
        <time>2021-05-30T09:15:40.000Z</time>
      </trkpt>
      <trkpt lat="47.80156" lon="7.08471">
        <ele>586.40002441406</ele>
        <time>2021-05-30T09:15:41.000Z</time>
      </trkpt>
      <trkpt lat="47.80155" lon="7.08477">
        <ele>585.20001220703</ele>
        <time>2021-05-30T09:15:42.000Z</time>
      </trkpt>
      <trkpt lat="47.80154" lon="7.08481">
        <ele>584</ele>
        <time>2021-05-30T09:15:43.000Z</time>
      </trkpt>
      <trkpt lat="47.80153" lon="7.08485">
        <ele>583</ele>
        <time>2021-05-30T09:15:44.000Z</time>
      </trkpt>
      <trkpt lat="47.80152" lon="7.08488">
        <ele>581.79998779297</ele>
        <time>2021-05-30T09:15:45.000Z</time>
      </trkpt>
      <trkpt lat="47.80152" lon="7.08491">
        <ele>580.59997558594</ele>
        <time>2021-05-30T09:15:46.000Z</time>
      </trkpt>
      <trkpt lat="47.80151" lon="7.08494">
        <ele>579.79998779297</ele>
        <time>2021-05-30T09:15:47.000Z</time>
      </trkpt>
      <trkpt lat="47.80151" lon="7.08496">
        <ele>578.79998779297</ele>
        <time>2021-05-30T09:15:48.000Z</time>
      </trkpt>
      <trkpt lat="47.8015" lon="7.08499">
        <ele>577.79998779297</ele>
        <time>2021-05-30T09:15:49.000Z</time>
      </trkpt>
      <trkpt lat="47.8015" lon="7.08501">
        <ele>576.79998779297</ele>
        <time>2021-05-30T09:15:50.000Z</time>
      </trkpt>
      <trkpt lat="47.8015" lon="7.08504">
        <ele>575.79998779297</ele>
        <time>2021-05-30T09:15:51.000Z</time>
      </trkpt>
      <trkpt lat="47.80149" lon="7.08507">
        <ele>575</ele>
        <time>2021-05-30T09:15:52.000Z</time>
      </trkpt>
      <trkpt lat="47.80149" lon="7.08511">
        <ele>574.20001220703</ele>
        <time>2021-05-30T09:15:53.000Z</time>
      </trkpt>
      <trkpt lat="47.80149" lon="7.08516">
        <ele>573.59997558594</ele>
        <time>2021-05-30T09:15:54.000Z</time>
      </trkpt>
      <trkpt lat="47.80149" lon="7.08521">
        <ele>572.79998779297</ele>
        <time>2021-05-30T09:15:55.000Z</time>
      </trkpt>
      <trkpt lat="47.80149" lon="7.08526">
        <ele>571.40002441406</ele>
        <time>2021-05-30T09:15:56.000Z</time>
      </trkpt>
      <trkpt lat="47.80149" lon="7.08531">
        <ele>570.40002441406</ele>
        <time>2021-05-30T09:15:57.000Z</time>
      </trkpt>
      <trkpt lat="47.80148" lon="7.08537">
        <ele>569.59997558594</ele>
        <time>2021-05-30T09:15:58.000Z</time>
      </trkpt>
      <trkpt lat="47.80149" lon="7.08542">
        <ele>568.59997558594</ele>
        <time>2021-05-30T09:15:59.000Z</time>
      </trkpt>
      <trkpt lat="47.80149" lon="7.08547">
        <ele>567.59997558594</ele>
        <time>2021-05-30T09:16:00.000Z</time>
      </trkpt>
      <trkpt lat="47.8015" lon="7.08552">
        <ele>566.59997558594</ele>
        <time>2021-05-30T09:16:01.000Z</time>
      </trkpt>
      <trkpt lat="47.80152" lon="7.08557">
        <ele>565.59997558594</ele>
        <time>2021-05-30T09:16:02.000Z</time>
      </trkpt>
      <trkpt lat="47.80153" lon="7.08563">
        <ele>564.59997558594</ele>
        <time>2021-05-30T09:16:03.000Z</time>
      </trkpt>
      <trkpt lat="47.80154" lon="7.0857">
        <ele>563.59997558594</ele>
        <time>2021-05-30T09:16:04.000Z</time>
      </trkpt>
      <trkpt lat="47.80155" lon="7.08578">
        <ele>563</ele>
        <time>2021-05-30T09:16:05.000Z</time>
      </trkpt>
      <trkpt lat="47.80157" lon="7.08587">
        <ele>562.20001220703</ele>
        <time>2021-05-30T09:16:06.000Z</time>
      </trkpt>
      <trkpt lat="47.80158" lon="7.08596">
        <ele>561.59997558594</ele>
        <time>2021-05-30T09:16:07.000Z</time>
      </trkpt>
      <trkpt lat="47.8016" lon="7.08607">
        <ele>560.79998779297</ele>
        <time>2021-05-30T09:16:08.000Z</time>
      </trkpt>
      <trkpt lat="47.8016" lon="7.08618">
        <ele>560</ele>
        <time>2021-05-30T09:16:09.000Z</time>
      </trkpt>
      <trkpt lat="47.8016" lon="7.08626">
        <ele>559</ele>
        <time>2021-05-30T09:16:10.000Z</time>
      </trkpt>
      <trkpt lat="47.8016" lon="7.08632">
        <ele>558</ele>
        <time>2021-05-30T09:16:11.000Z</time>
      </trkpt>
      <trkpt lat="47.80159" lon="7.08636">
        <ele>557</ele>
        <time>2021-05-30T09:16:12.000Z</time>
      </trkpt>
      <trkpt lat="47.80158" lon="7.08641">
        <ele>556</ele>
        <time>2021-05-30T09:16:13.000Z</time>
      </trkpt>
      <trkpt lat="47.80157" lon="7.08645">
        <ele>555</ele>
        <time>2021-05-30T09:16:14.000Z</time>
      </trkpt>
      <trkpt lat="47.80155" lon="7.08647">
        <ele>553.79998779297</ele>
        <time>2021-05-30T09:16:15.000Z</time>
      </trkpt>
      <trkpt lat="47.80152" lon="7.08651">
        <ele>552.59997558594</ele>
        <time>2021-05-30T09:16:16.000Z</time>
      </trkpt>
      <trkpt lat="47.80149" lon="7.08654">
        <ele>551.40002441406</ele>
        <time>2021-05-30T09:16:17.000Z</time>
      </trkpt>
      <trkpt lat="47.80147" lon="7.08659">
        <ele>550.20001220703</ele>
        <time>2021-05-30T09:16:18.000Z</time>
      </trkpt>
      <trkpt lat="47.80146" lon="7.08665">
        <ele>549</ele>
        <time>2021-05-30T09:16:19.000Z</time>
      </trkpt>
      <trkpt lat="47.80144" lon="7.08671">
        <ele>547.59997558594</ele>
        <time>2021-05-30T09:16:20.000Z</time>
      </trkpt>
      <trkpt lat="47.80145" lon="7.0868">
        <ele>545</ele>
        <time>2021-05-30T09:16:21.000Z</time>
      </trkpt>
      <trkpt lat="47.80145" lon="7.08688">
        <ele>543.59997558594</ele>
        <time>2021-05-30T09:16:22.000Z</time>
      </trkpt>
      <trkpt lat="47.80144" lon="7.08697">
        <ele>542.59997558594</ele>
        <time>2021-05-30T09:16:23.000Z</time>
      </trkpt>
      <trkpt lat="47.80144" lon="7.08704">
        <ele>541.40002441406</ele>
        <time>2021-05-30T09:16:24.000Z</time>
      </trkpt>
      <trkpt lat="47.80144" lon="7.08711">
        <ele>540</ele>
        <time>2021-05-30T09:16:25.000Z</time>
      </trkpt>
      <trkpt lat="47.80144" lon="7.08717">
        <ele>538.79998779297</ele>
        <time>2021-05-30T09:16:26.000Z</time>
      </trkpt>
      <trkpt lat="47.80145" lon="7.08724">
        <ele>537.40002441406</ele>
        <time>2021-05-30T09:16:27.000Z</time>
      </trkpt>
      <trkpt lat="47.80147" lon="7.08731">
        <ele>536</ele>
        <time>2021-05-30T09:16:28.000Z</time>
      </trkpt>
      <trkpt lat="47.80148" lon="7.08738">
        <ele>534.79998779297</ele>
        <time>2021-05-30T09:16:29.000Z</time>
      </trkpt>
      <trkpt lat="47.8015" lon="7.08745">
        <ele>533.59997558594</ele>
        <time>2021-05-30T09:16:30.000Z</time>
      </trkpt>
      <trkpt lat="47.80151" lon="7.0875">
        <ele>532.40002441406</ele>
        <time>2021-05-30T09:16:31.000Z</time>
      </trkpt>
      <trkpt lat="47.80152" lon="7.08755">
        <ele>531.20001220703</ele>
        <time>2021-05-30T09:16:32.000Z</time>
      </trkpt>
      <trkpt lat="47.80151" lon="7.08759">
        <ele>530.20001220703</ele>
        <time>2021-05-30T09:16:33.000Z</time>
      </trkpt>
      <trkpt lat="47.8015" lon="7.08764">
        <ele>529</ele>
        <time>2021-05-30T09:16:34.000Z</time>
      </trkpt>
      <trkpt lat="47.80147" lon="7.08768">
        <ele>528</ele>
        <time>2021-05-30T09:16:35.000Z</time>
      </trkpt>
      <trkpt lat="47.80145" lon="7.08773">
        <ele>527</ele>
        <time>2021-05-30T09:16:36.000Z</time>
      </trkpt>
      <trkpt lat="47.80142" lon="7.08777">
        <ele>526</ele>
        <time>2021-05-30T09:16:37.000Z</time>
      </trkpt>
      <trkpt lat="47.8014" lon="7.08783">
        <ele>524.79998779297</ele>
        <time>2021-05-30T09:16:38.000Z</time>
      </trkpt>
      <trkpt lat="47.80135" lon="7.08789">
        <ele>523.79998779297</ele>
        <time>2021-05-30T09:16:39.000Z</time>
      </trkpt>
      <trkpt lat="47.8013" lon="7.08795">
        <ele>522.59997558594</ele>
        <time>2021-05-30T09:16:40.000Z</time>
      </trkpt>
      <trkpt lat="47.80127" lon="7.08803">
        <ele>521.40002441406</ele>
        <time>2021-05-30T09:16:41.000Z</time>
      </trkpt>
      <trkpt lat="47.80124" lon="7.08807">
        <ele>520.20001220703</ele>
        <time>2021-05-30T09:16:42.000Z</time>
      </trkpt>
      <trkpt lat="47.8012" lon="7.08809">
        <ele>519</ele>
        <time>2021-05-30T09:16:43.000Z</time>
      </trkpt>
      <trkpt lat="47.80117" lon="7.08812">
        <ele>518</ele>
        <time>2021-05-30T09:16:44.000Z</time>
      </trkpt>
      <trkpt lat="47.80114" lon="7.08816">
        <ele>516</ele>
        <time>2021-05-30T09:16:45.000Z</time>
      </trkpt>
      <trkpt lat="47.80111" lon="7.08821">
        <ele>515.20001220703</ele>
        <time>2021-05-30T09:16:46.000Z</time>
      </trkpt>
      <trkpt lat="47.80108" lon="7.08829">
        <ele>514.40002441406</ele>
        <time>2021-05-30T09:16:47.000Z</time>
      </trkpt>
      <trkpt lat="47.80105" lon="7.08837">
        <ele>513.59997558594</ele>
        <time>2021-05-30T09:16:48.000Z</time>
      </trkpt>
      <trkpt lat="47.80104" lon="7.08844">
        <ele>512.59997558594</ele>
        <time>2021-05-30T09:16:49.000Z</time>
      </trkpt>
      <trkpt lat="47.80106" lon="7.0885">
        <ele>511.79998779297</ele>
        <time>2021-05-30T09:16:50.000Z</time>
      </trkpt>
      <trkpt lat="47.8011" lon="7.08856">
        <ele>510.79998779297</ele>
        <time>2021-05-30T09:16:51.000Z</time>
      </trkpt>
      <trkpt lat="47.80114" lon="7.08863">
        <ele>509.60000610352</ele>
        <time>2021-05-30T09:16:52.000Z</time>
      </trkpt>
      <trkpt lat="47.80116" lon="7.08871">
        <ele>508.60000610352</ele>
        <time>2021-05-30T09:16:53.000Z</time>
      </trkpt>
      <trkpt lat="47.80118" lon="7.08879">
        <ele>507.79998779297</ele>
        <time>2021-05-30T09:16:54.000Z</time>
      </trkpt>
      <trkpt lat="47.80118" lon="7.08886">
        <ele>506.79998779297</ele>
        <time>2021-05-30T09:16:55.000Z</time>
      </trkpt>
      <trkpt lat="47.80117" lon="7.0889">
        <ele>505.79998779297</ele>
        <time>2021-05-30T09:16:56.000Z</time>
      </trkpt>
      <trkpt lat="47.80114" lon="7.08892">
        <ele>505</ele>
        <time>2021-05-30T09:16:57.000Z</time>
      </trkpt>
      <trkpt lat="47.80111" lon="7.08892">
        <ele>504</ele>
        <time>2021-05-30T09:16:58.000Z</time>
      </trkpt>
      <trkpt lat="47.80109" lon="7.08895">
        <ele>503</ele>
        <time>2021-05-30T09:16:59.000Z</time>
      </trkpt>
      <trkpt lat="47.80107" lon="7.08899">
        <ele>502.39999389648</ele>
        <time>2021-05-30T09:17:00.000Z</time>
      </trkpt>
      <trkpt lat="47.80106" lon="7.08903">
        <ele>501.79998779297</ele>
        <time>2021-05-30T09:17:01.000Z</time>
      </trkpt>
      <trkpt lat="47.80105" lon="7.08908">
        <ele>501.20001220703</ele>
        <time>2021-05-30T09:17:02.000Z</time>
      </trkpt>
      <trkpt lat="47.80103" lon="7.08913">
        <ele>500.39999389648</ele>
        <time>2021-05-30T09:17:03.000Z</time>
      </trkpt>
      <trkpt lat="47.80102" lon="7.08919">
        <ele>499.60000610352</ele>
        <time>2021-05-30T09:17:04.000Z</time>
      </trkpt>
      <trkpt lat="47.801" lon="7.08925">
        <ele>498.79998779297</ele>
        <time>2021-05-30T09:17:05.000Z</time>
      </trkpt>
      <trkpt lat="47.80099" lon="7.08935">
        <ele>497.79998779297</ele>
        <time>2021-05-30T09:17:06.000Z</time>
      </trkpt>
      <trkpt lat="47.80097" lon="7.08948">
        <ele>496.79998779297</ele>
        <time>2021-05-30T09:17:07.000Z</time>
      </trkpt>
      <trkpt lat="47.80095" lon="7.08961">
        <ele>495.60000610352</ele>
        <time>2021-05-30T09:17:08.000Z</time>
      </trkpt>
      <trkpt lat="47.80093" lon="7.08974">
        <ele>494.39999389648</ele>
        <time>2021-05-30T09:17:09.000Z</time>
      </trkpt>
      <trkpt lat="47.80091" lon="7.08987">
        <ele>493.20001220703</ele>
        <time>2021-05-30T09:17:10.000Z</time>
      </trkpt>
      <trkpt lat="47.80089" lon="7.08999">
        <ele>490.39999389648</ele>
        <time>2021-05-30T09:17:11.000Z</time>
      </trkpt>
      <trkpt lat="47.80088" lon="7.09012">
        <ele>489.20001220703</ele>
        <time>2021-05-30T09:17:12.000Z</time>
      </trkpt>
      <trkpt lat="47.80086" lon="7.09023">
        <ele>487.79998779297</ele>
        <time>2021-05-30T09:17:13.000Z</time>
      </trkpt>
      <trkpt lat="47.80086" lon="7.09033">
        <ele>486.60000610352</ele>
        <time>2021-05-30T09:17:14.000Z</time>
      </trkpt>
      <trkpt lat="47.80085" lon="7.09044">
        <ele>485.60000610352</ele>
        <time>2021-05-30T09:17:15.000Z</time>
      </trkpt>
      <trkpt lat="47.80083" lon="7.09053">
        <ele>484.60000610352</ele>
        <time>2021-05-30T09:17:16.000Z</time>
      </trkpt>
      <trkpt lat="47.80081" lon="7.09063">
        <ele>483.60000610352</ele>
        <time>2021-05-30T09:17:17.000Z</time>
      </trkpt>
      <trkpt lat="47.80079" lon="7.09072">
        <ele>482.60000610352</ele>
        <time>2021-05-30T09:17:18.000Z</time>
      </trkpt>
      <trkpt lat="47.80077" lon="7.09081">
        <ele>481.60000610352</ele>
        <time>2021-05-30T09:17:19.000Z</time>
      </trkpt>
      <trkpt lat="47.80076" lon="7.09091">
        <ele>480.39999389648</ele>
        <time>2021-05-30T09:17:20.000Z</time>
      </trkpt>
      <trkpt lat="47.80074" lon="7.09103">
        <ele>478.79998779297</ele>
        <time>2021-05-30T09:17:21.000Z</time>
      </trkpt>
      <trkpt lat="47.80073" lon="7.09116">
        <ele>477.20001220703</ele>
        <time>2021-05-30T09:17:22.000Z</time>
      </trkpt>
      <trkpt lat="47.80072" lon="7.09129">
        <ele>475.39999389648</ele>
        <time>2021-05-30T09:17:23.000Z</time>
      </trkpt>
      <trkpt lat="47.8007" lon="7.09141">
        <ele>473.39999389648</ele>
        <time>2021-05-30T09:17:24.000Z</time>
      </trkpt>
      <trkpt lat="47.80069" lon="7.09154">
        <ele>472</ele>
        <time>2021-05-30T09:17:25.000Z</time>
      </trkpt>
      <trkpt lat="47.80069" lon="7.09165">
        <ele>470.39999389648</ele>
        <time>2021-05-30T09:17:26.000Z</time>
      </trkpt>
      <trkpt lat="47.80068" lon="7.09175">
        <ele>468.79998779297</ele>
        <time>2021-05-30T09:17:27.000Z</time>
      </trkpt>
      <trkpt lat="47.80067" lon="7.09184">
        <ele>467.60000610352</ele>
        <time>2021-05-30T09:17:28.000Z</time>
      </trkpt>
      <trkpt lat="47.80066" lon="7.09193">
        <ele>466.60000610352</ele>
        <time>2021-05-30T09:17:29.000Z</time>
      </trkpt>
      <trkpt lat="47.80064" lon="7.09201">
        <ele>465.60000610352</ele>
        <time>2021-05-30T09:17:30.000Z</time>
      </trkpt>
      <trkpt lat="47.80063" lon="7.09207">
        <ele>464.39999389648</ele>
        <time>2021-05-30T09:17:31.000Z</time>
      </trkpt>
      <trkpt lat="47.80062" lon="7.0921">
        <ele>463.20001220703</ele>
        <time>2021-05-30T09:17:32.000Z</time>
      </trkpt>
      <trkpt lat="47.80062" lon="7.09211">
        <ele>462.20001220703</ele>
        <time>2021-05-30T09:17:33.000Z</time>
      </trkpt>
      <trkpt lat="47.80061" lon="7.09211">
        <ele>461</ele>
        <time>2021-05-30T09:17:34.000Z</time>
      </trkpt>
      <trkpt lat="47.80052" lon="7.09217">
        <ele>463</ele>
        <time>2021-05-30T09:19:36.000Z</time>
      </trkpt>
      <trkpt lat="47.80051" lon="7.09219">
        <ele>463</ele>
        <time>2021-05-30T09:19:37.000Z</time>
      </trkpt>
      <trkpt lat="47.80044" lon="7.09237">
        <ele>463</ele>
        <time>2021-05-30T09:19:43.000Z</time>
      </trkpt>
      <trkpt lat="47.80037" lon="7.09256">
        <ele>463</ele>
        <time>2021-05-30T09:19:48.000Z</time>
      </trkpt>
      <trkpt lat="47.80034" lon="7.09269">
        <ele>463</ele>
        <time>2021-05-30T09:19:54.000Z</time>
      </trkpt>
      <trkpt lat="47.80031" lon="7.09286">
        <ele>463</ele>
        <time>2021-05-30T09:19:59.000Z</time>
      </trkpt>
      <trkpt lat="47.80029" lon="7.09295">
        <ele>462.60000610352</ele>
        <time>2021-05-30T09:20:02.000Z</time>
      </trkpt>
      <trkpt lat="47.80028" lon="7.09296">
        <ele>461.79998779297</ele>
        <time>2021-05-30T09:20:03.000Z</time>
      </trkpt>
      <trkpt lat="47.80022" lon="7.09307">
        <ele>461</ele>
        <time>2021-05-30T09:20:22.000Z</time>
      </trkpt>
      <trkpt lat="47.80021" lon="7.0932">
        <ele>461</ele>
        <time>2021-05-30T09:20:28.000Z</time>
      </trkpt>
      <trkpt lat="47.8002" lon="7.09331">
        <ele>461</ele>
        <time>2021-05-30T09:20:32.000Z</time>
      </trkpt>
      <trkpt lat="47.80016" lon="7.09346">
        <ele>461</ele>
        <time>2021-05-30T09:20:39.000Z</time>
      </trkpt>
      <trkpt lat="47.80013" lon="7.09363">
        <ele>461</ele>
        <time>2021-05-30T09:20:46.000Z</time>
      </trkpt>
      <trkpt lat="47.80011" lon="7.09382">
        <ele>461</ele>
        <time>2021-05-30T09:20:52.000Z</time>
      </trkpt>
      <trkpt lat="47.80008" lon="7.09394">
        <ele>461</ele>
        <time>2021-05-30T09:20:57.000Z</time>
      </trkpt>
      <trkpt lat="47.80008" lon="7.09407">
        <ele>461</ele>
        <time>2021-05-30T09:21:00.000Z</time>
      </trkpt>
      <trkpt lat="47.8001" lon="7.09411">
        <ele>461</ele>
        <time>2021-05-30T09:21:02.000Z</time>
      </trkpt>
      <trkpt lat="47.80015" lon="7.09415">
        <ele>461</ele>
        <time>2021-05-30T09:21:05.000Z</time>
      </trkpt>
      <trkpt lat="47.80017" lon="7.09417">
        <ele>460.60000610352</ele>
        <time>2021-05-30T09:21:06.000Z</time>
      </trkpt>
      <trkpt lat="47.80019" lon="7.09416">
        <ele>460.20001220703</ele>
        <time>2021-05-30T09:21:07.000Z</time>
      </trkpt>
      <trkpt lat="47.8002" lon="7.09415">
        <ele>459.60000610352</ele>
        <time>2021-05-30T09:21:08.000Z</time>
      </trkpt>
      <trkpt lat="47.80022" lon="7.09414">
        <ele>459.20001220703</ele>
        <time>2021-05-30T09:21:09.000Z</time>
      </trkpt>
      <trkpt lat="47.80023" lon="7.09413">
        <ele>458.79998779297</ele>
        <time>2021-05-30T09:21:10.000Z</time>
      </trkpt>
      <trkpt lat="47.80025" lon="7.0941">
        <ele>458.79998779297</ele>
        <time>2021-05-30T09:21:12.000Z</time>
      </trkpt>
      <trkpt lat="47.80026" lon="7.09408">
        <ele>458.79998779297</ele>
        <time>2021-05-30T09:21:13.000Z</time>
      </trkpt>
      <trkpt lat="47.80038" lon="7.09385">
        <ele>458.79998779297</ele>
        <time>2021-05-30T09:21:20.000Z</time>
      </trkpt>
      <trkpt lat="47.80049" lon="7.09358">
        <ele>458.79998779297</ele>
        <time>2021-05-30T09:21:26.000Z</time>
      </trkpt>
      <trkpt lat="47.8006" lon="7.09354">
        <ele>458.39999389648</ele>
        <time>2021-05-30T09:21:30.000Z</time>
      </trkpt>
      <trkpt lat="47.80064" lon="7.09352">
        <ele>458</ele>
        <time>2021-05-30T09:21:31.000Z</time>
      </trkpt>
      <trkpt lat="47.80068" lon="7.0935">
        <ele>457.39999389648</ele>
        <time>2021-05-30T09:21:32.000Z</time>
      </trkpt>
      <trkpt lat="47.80071" lon="7.09346">
        <ele>457</ele>
        <time>2021-05-30T09:21:33.000Z</time>
      </trkpt>
      <trkpt lat="47.80075" lon="7.09342">
        <ele>456.39999389648</ele>
        <time>2021-05-30T09:21:34.000Z</time>
      </trkpt>
      <trkpt lat="47.80079" lon="7.0934">
        <ele>455.79998779297</ele>
        <time>2021-05-30T09:21:35.000Z</time>
      </trkpt>
      <trkpt lat="47.80083" lon="7.09338">
        <ele>455</ele>
        <time>2021-05-30T09:21:36.000Z</time>
      </trkpt>
      <trkpt lat="47.80087" lon="7.09335">
        <ele>454.20001220703</ele>
        <time>2021-05-30T09:21:37.000Z</time>
      </trkpt>
      <trkpt lat="47.80093" lon="7.09331">
        <ele>453</ele>
        <time>2021-05-30T09:21:38.000Z</time>
      </trkpt>
      <trkpt lat="47.80098" lon="7.09323">
        <ele>452</ele>
        <time>2021-05-30T09:21:39.000Z</time>
      </trkpt>
      <trkpt lat="47.80103" lon="7.09319">
        <ele>450.60000610352</ele>
        <time>2021-05-30T09:21:40.000Z</time>
      </trkpt>
      <trkpt lat="47.80108" lon="7.09314">
        <ele>449.39999389648</ele>
        <time>2021-05-30T09:21:41.000Z</time>
      </trkpt>
      <trkpt lat="47.80113" lon="7.09309">
        <ele>446.60000610352</ele>
        <time>2021-05-30T09:21:42.000Z</time>
      </trkpt>
      <trkpt lat="47.80119" lon="7.09305">
        <ele>445.39999389648</ele>
        <time>2021-05-30T09:21:43.000Z</time>
      </trkpt>
      <trkpt lat="47.80124" lon="7.093">
        <ele>444.20001220703</ele>
        <time>2021-05-30T09:21:44.000Z</time>
      </trkpt>
      <trkpt lat="47.80129" lon="7.09295">
        <ele>443</ele>
        <time>2021-05-30T09:21:45.000Z</time>
      </trkpt>
      <trkpt lat="47.80134" lon="7.09291">
        <ele>442</ele>
        <time>2021-05-30T09:21:46.000Z</time>
      </trkpt>
      <trkpt lat="47.80138" lon="7.09287">
        <ele>441</ele>
        <time>2021-05-30T09:21:47.000Z</time>
      </trkpt>
      <trkpt lat="47.80143" lon="7.09283">
        <ele>440</ele>
        <time>2021-05-30T09:21:48.000Z</time>
      </trkpt>
      <trkpt lat="47.80148" lon="7.09278">
        <ele>439</ele>
        <time>2021-05-30T09:21:49.000Z</time>
      </trkpt>
      <trkpt lat="47.80153" lon="7.09273">
        <ele>438</ele>
        <time>2021-05-30T09:21:50.000Z</time>
      </trkpt>
      <trkpt lat="47.80159" lon="7.09267">
        <ele>437</ele>
        <time>2021-05-30T09:21:51.000Z</time>
      </trkpt>
      <trkpt lat="47.80164" lon="7.0926">
        <ele>435.79998779297</ele>
        <time>2021-05-30T09:21:52.000Z</time>
      </trkpt>
      <trkpt lat="47.80167" lon="7.09254">
        <ele>434.60000610352</ele>
        <time>2021-05-30T09:21:53.000Z</time>
      </trkpt>
      <trkpt lat="47.8017" lon="7.0925">
        <ele>433.20001220703</ele>
        <time>2021-05-30T09:21:54.000Z</time>
      </trkpt>
      <trkpt lat="47.80172" lon="7.09245">
        <ele>432</ele>
        <time>2021-05-30T09:21:55.000Z</time>
      </trkpt>
      <trkpt lat="47.80174" lon="7.09241">
        <ele>430.60000610352</ele>
        <time>2021-05-30T09:21:56.000Z</time>
      </trkpt>
      <trkpt lat="47.80176" lon="7.09237">
        <ele>429.39999389648</ele>
        <time>2021-05-30T09:21:57.000Z</time>
      </trkpt>
      <trkpt lat="47.80182" lon="7.09216">
        <ele>429.39999389648</ele>
        <time>2021-05-30T09:22:02.000Z</time>
      </trkpt>
      <trkpt lat="47.80189" lon="7.09197">
        <ele>429</ele>
        <time>2021-05-30T09:22:06.000Z</time>
      </trkpt>
      <trkpt lat="47.80192" lon="7.09192">
        <ele>428.39999389648</ele>
        <time>2021-05-30T09:22:07.000Z</time>
      </trkpt>
      <trkpt lat="47.80196" lon="7.09188">
        <ele>428</ele>
        <time>2021-05-30T09:22:08.000Z</time>
      </trkpt>
      <trkpt lat="47.802" lon="7.09186">
        <ele>427.60000610352</ele>
        <time>2021-05-30T09:22:09.000Z</time>
      </trkpt>
      <trkpt lat="47.80204" lon="7.09185">
        <ele>427.20001220703</ele>
        <time>2021-05-30T09:22:10.000Z</time>
      </trkpt>
      <trkpt lat="47.80207" lon="7.09189">
        <ele>427.20001220703</ele>
        <time>2021-05-30T09:22:13.000Z</time>
      </trkpt>
      <trkpt lat="47.80208" lon="7.09191">
        <ele>426.60000610352</ele>
        <time>2021-05-30T09:22:14.000Z</time>
      </trkpt>
      <trkpt lat="47.80207" lon="7.09195">
        <ele>426.20001220703</ele>
        <time>2021-05-30T09:22:15.000Z</time>
      </trkpt>
      <trkpt lat="47.80205" lon="7.09199">
        <ele>425.79998779297</ele>
        <time>2021-05-30T09:22:16.000Z</time>
      </trkpt>
      <trkpt lat="47.80203" lon="7.09203">
        <ele>425.39999389648</ele>
        <time>2021-05-30T09:22:17.000Z</time>
      </trkpt>
      <trkpt lat="47.80201" lon="7.09208">
        <ele>425</ele>
        <time>2021-05-30T09:22:18.000Z</time>
      </trkpt>
      <trkpt lat="47.80192" lon="7.09231">
        <ele>425</ele>
        <time>2021-05-30T09:22:22.000Z</time>
      </trkpt>
      <trkpt lat="47.80191" lon="7.09238">
        <ele>424.60000610352</ele>
        <time>2021-05-30T09:22:23.000Z</time>
      </trkpt>
      <trkpt lat="47.80191" lon="7.09245">
        <ele>424.20001220703</ele>
        <time>2021-05-30T09:22:24.000Z</time>
      </trkpt>
      <trkpt lat="47.80191" lon="7.09252">
        <ele>423.79998779297</ele>
        <time>2021-05-30T09:22:25.000Z</time>
      </trkpt>
      <trkpt lat="47.80191" lon="7.09258">
        <ele>423.20001220703</ele>
        <time>2021-05-30T09:22:26.000Z</time>
      </trkpt>
      <trkpt lat="47.8019" lon="7.09262">
        <ele>422.79998779297</ele>
        <time>2021-05-30T09:22:27.000Z</time>
      </trkpt>
      <trkpt lat="47.80192" lon="7.0927">
        <ele>422.79998779297</ele>
        <time>2021-05-30T09:22:30.000Z</time>
      </trkpt>
      <trkpt lat="47.80193" lon="7.0927">
        <ele>422.79998779297</ele>
        <time>2021-05-30T09:22:31.000Z</time>
      </trkpt>
      <trkpt lat="47.80195" lon="7.09271">
        <ele>422.79998779297</ele>
        <time>2021-05-30T09:22:34.000Z</time>
      </trkpt>
      <trkpt lat="47.80194" lon="7.09274">
        <ele>422.79998779297</ele>
        <time>2021-05-30T09:22:36.000Z</time>
      </trkpt>
      <trkpt lat="47.8019" lon="7.09286">
        <ele>422.79998779297</ele>
        <time>2021-05-30T09:22:40.000Z</time>
      </trkpt>
      <trkpt lat="47.80189" lon="7.0929">
        <ele>422.79998779297</ele>
        <time>2021-05-30T09:22:41.000Z</time>
      </trkpt>
      <trkpt lat="47.80188" lon="7.09297">
        <ele>422.39999389648</ele>
        <time>2021-05-30T09:22:43.000Z</time>
      </trkpt>
      <trkpt lat="47.80187" lon="7.09299">
        <ele>422</ele>
        <time>2021-05-30T09:22:44.000Z</time>
      </trkpt>
      <trkpt lat="47.80186" lon="7.09302">
        <ele>421.60000610352</ele>
        <time>2021-05-30T09:22:45.000Z</time>
      </trkpt>
      <trkpt lat="47.80186" lon="7.09304">
        <ele>421.20001220703</ele>
        <time>2021-05-30T09:22:46.000Z</time>
      </trkpt>
      <trkpt lat="47.80185" lon="7.09306">
        <ele>420.79998779297</ele>
        <time>2021-05-30T09:22:47.000Z</time>
      </trkpt>
      <trkpt lat="47.80185" lon="7.09306">
        <ele>420.79998779297</ele>
        <time>2021-05-30T09:22:48.000Z</time>
      </trkpt>
      <trkpt lat="47.80186" lon="7.09293">
        <ele>420.79998779297</ele>
        <time>2021-05-30T09:23:13.000Z</time>
      </trkpt>
      <trkpt lat="47.80186" lon="7.0929">
        <ele>420.79998779297</ele>
        <time>2021-05-30T09:23:14.000Z</time>
      </trkpt>
      <trkpt lat="47.80188" lon="7.09279">
        <ele>420.79998779297</ele>
        <time>2021-05-30T09:23:17.000Z</time>
      </trkpt>
      <trkpt lat="47.80189" lon="7.09268">
        <ele>420.79998779297</ele>
        <time>2021-05-30T09:23:20.000Z</time>
      </trkpt>
      <trkpt lat="47.80191" lon="7.09263">
        <ele>420.79998779297</ele>
        <time>2021-05-30T09:23:22.000Z</time>
      </trkpt>
      <trkpt lat="47.80198" lon="7.09255">
        <ele>420.79998779297</ele>
        <time>2021-05-30T09:23:25.000Z</time>
      </trkpt>
      <trkpt lat="47.80211" lon="7.09239">
        <ele>420.79998779297</ele>
        <time>2021-05-30T09:23:28.000Z</time>
      </trkpt>
      <trkpt lat="47.80216" lon="7.09233">
        <ele>420.79998779297</ele>
        <time>2021-05-30T09:23:29.000Z</time>
      </trkpt>
      <trkpt lat="47.80221" lon="7.09227">
        <ele>420.20001220703</ele>
        <time>2021-05-30T09:23:30.000Z</time>
      </trkpt>
      <trkpt lat="47.80226" lon="7.09221">
        <ele>419.79998779297</ele>
        <time>2021-05-30T09:23:31.000Z</time>
      </trkpt>
      <trkpt lat="47.80231" lon="7.09215">
        <ele>419.20001220703</ele>
        <time>2021-05-30T09:23:32.000Z</time>
      </trkpt>
      <trkpt lat="47.80237" lon="7.09212">
        <ele>418.79998779297</ele>
        <time>2021-05-30T09:23:33.000Z</time>
      </trkpt>
      <trkpt lat="47.80242" lon="7.09211">
        <ele>418.20001220703</ele>
        <time>2021-05-30T09:23:34.000Z</time>
      </trkpt>
      <trkpt lat="47.80247" lon="7.09212">
        <ele>417.60000610352</ele>
        <time>2021-05-30T09:23:35.000Z</time>
      </trkpt>
      <trkpt lat="47.80251" lon="7.09216">
        <ele>417</ele>
        <time>2021-05-30T09:23:36.000Z</time>
      </trkpt>
      <trkpt lat="47.80253" lon="7.09221">
        <ele>416.39999389648</ele>
        <time>2021-05-30T09:23:37.000Z</time>
      </trkpt>
      <trkpt lat="47.80254" lon="7.09228">
        <ele>415.79998779297</ele>
        <time>2021-05-30T09:23:38.000Z</time>
      </trkpt>
      <trkpt lat="47.80254" lon="7.09236">
        <ele>415.39999389648</ele>
        <time>2021-05-30T09:23:39.000Z</time>
      </trkpt>
      <trkpt lat="47.80252" lon="7.09246">
        <ele>414.79998779297</ele>
        <time>2021-05-30T09:23:40.000Z</time>
      </trkpt>
      <trkpt lat="47.80251" lon="7.09255">
        <ele>414.39999389648</ele>
        <time>2021-05-30T09:23:41.000Z</time>
      </trkpt>
      <trkpt lat="47.80249" lon="7.09265">
        <ele>414</ele>
        <time>2021-05-30T09:23:42.000Z</time>
      </trkpt>
      <trkpt lat="47.80246" lon="7.09274">
        <ele>413.39999389648</ele>
        <time>2021-05-30T09:23:43.000Z</time>
      </trkpt>
      <trkpt lat="47.80243" lon="7.09283">
        <ele>412.20001220703</ele>
        <time>2021-05-30T09:23:44.000Z</time>
      </trkpt>
      <trkpt lat="47.80239" lon="7.09292">
        <ele>411.60000610352</ele>
        <time>2021-05-30T09:23:45.000Z</time>
      </trkpt>
      <trkpt lat="47.80236" lon="7.09301">
        <ele>410.79998779297</ele>
        <time>2021-05-30T09:23:46.000Z</time>
      </trkpt>
      <trkpt lat="47.80233" lon="7.0931">
        <ele>410.20001220703</ele>
        <time>2021-05-30T09:23:47.000Z</time>
      </trkpt>
      <trkpt lat="47.8023" lon="7.0932">
        <ele>409.60000610352</ele>
        <time>2021-05-30T09:23:48.000Z</time>
      </trkpt>
      <trkpt lat="47.80226" lon="7.09331">
        <ele>409</ele>
        <time>2021-05-30T09:23:49.000Z</time>
      </trkpt>
      <trkpt lat="47.80224" lon="7.09342">
        <ele>408.39999389648</ele>
        <time>2021-05-30T09:23:50.000Z</time>
      </trkpt>
      <trkpt lat="47.80222" lon="7.09353">
        <ele>407.79998779297</ele>
        <time>2021-05-30T09:23:51.000Z</time>
      </trkpt>
      <trkpt lat="47.80223" lon="7.09364">
        <ele>407.20001220703</ele>
        <time>2021-05-30T09:23:52.000Z</time>
      </trkpt>
      <trkpt lat="47.80225" lon="7.09373">
        <ele>406.39999389648</ele>
        <time>2021-05-30T09:23:53.000Z</time>
      </trkpt>
      <trkpt lat="47.8023" lon="7.0938">
        <ele>405.79998779297</ele>
        <time>2021-05-30T09:23:54.000Z</time>
      </trkpt>
      <trkpt lat="47.80236" lon="7.09385">
        <ele>405.20001220703</ele>
        <time>2021-05-30T09:23:55.000Z</time>
      </trkpt>
      <trkpt lat="47.80243" lon="7.09385">
        <ele>404.60000610352</ele>
        <time>2021-05-30T09:23:56.000Z</time>
      </trkpt>
      <trkpt lat="47.8025" lon="7.09383">
        <ele>403.79998779297</ele>
        <time>2021-05-30T09:23:57.000Z</time>
      </trkpt>
      <trkpt lat="47.80256" lon="7.09378">
        <ele>403.20001220703</ele>
        <time>2021-05-30T09:23:58.000Z</time>
      </trkpt>
      <trkpt lat="47.80262" lon="7.0937">
        <ele>402.39999389648</ele>
        <time>2021-05-30T09:23:59.000Z</time>
      </trkpt>
      <trkpt lat="47.80268" lon="7.09362">
        <ele>401.79998779297</ele>
        <time>2021-05-30T09:24:00.000Z</time>
      </trkpt>
      <trkpt lat="47.80273" lon="7.09354">
        <ele>401</ele>
        <time>2021-05-30T09:24:01.000Z</time>
      </trkpt>
      <trkpt lat="47.80278" lon="7.09349">
        <ele>400.20001220703</ele>
        <time>2021-05-30T09:24:02.000Z</time>
      </trkpt>
      <trkpt lat="47.80282" lon="7.09347">
        <ele>399.39999389648</ele>
        <time>2021-05-30T09:24:03.000Z</time>
      </trkpt>
      <trkpt lat="47.80286" lon="7.0935">
        <ele>398.79998779297</ele>
        <time>2021-05-30T09:24:04.000Z</time>
      </trkpt>
      <trkpt lat="47.8029" lon="7.09355">
        <ele>398</ele>
        <time>2021-05-30T09:24:05.000Z</time>
      </trkpt>
      <trkpt lat="47.80293" lon="7.0936">
        <ele>397.20001220703</ele>
        <time>2021-05-30T09:24:06.000Z</time>
      </trkpt>
      <trkpt lat="47.80294" lon="7.09365">
        <ele>396.79998779297</ele>
        <time>2021-05-30T09:24:07.000Z</time>
      </trkpt>
      <trkpt lat="47.80296" lon="7.0937">
        <ele>396.20001220703</ele>
        <time>2021-05-30T09:24:08.000Z</time>
      </trkpt>
      <trkpt lat="47.80298" lon="7.09375">
        <ele>395.39999389648</ele>
        <time>2021-05-30T09:24:09.000Z</time>
      </trkpt>
      <trkpt lat="47.803" lon="7.09381">
        <ele>395</ele>
        <time>2021-05-30T09:24:10.000Z</time>
      </trkpt>
      <trkpt lat="47.80302" lon="7.09386">
        <ele>394.60000610352</ele>
        <time>2021-05-30T09:24:11.000Z</time>
      </trkpt>
      <trkpt lat="47.80304" lon="7.09392">
        <ele>394.20001220703</ele>
        <time>2021-05-30T09:24:12.000Z</time>
      </trkpt>
      <trkpt lat="47.80306" lon="7.09398">
        <ele>393.79998779297</ele>
        <time>2021-05-30T09:24:13.000Z</time>
      </trkpt>
      <trkpt lat="47.80307" lon="7.09405">
        <ele>393.39999389648</ele>
        <time>2021-05-30T09:24:14.000Z</time>
      </trkpt>
      <trkpt lat="47.8031" lon="7.09412">
        <ele>393</ele>
        <time>2021-05-30T09:24:15.000Z</time>
      </trkpt>
      <trkpt lat="47.80312" lon="7.09419">
        <ele>393</ele>
        <time>2021-05-30T09:24:16.000Z</time>
      </trkpt>
      <trkpt lat="47.80317" lon="7.09437">
        <ele>392.39999389648</ele>
        <time>2021-05-30T09:24:18.000Z</time>
      </trkpt>
      <trkpt lat="47.8032" lon="7.09446">
        <ele>392</ele>
        <time>2021-05-30T09:24:19.000Z</time>
      </trkpt>
      <trkpt lat="47.80323" lon="7.09456">
        <ele>391.60000610352</ele>
        <time>2021-05-30T09:24:20.000Z</time>
      </trkpt>
      <trkpt lat="47.80327" lon="7.09466">
        <ele>391</ele>
        <time>2021-05-30T09:24:21.000Z</time>
      </trkpt>
      <trkpt lat="47.8033" lon="7.09477">
        <ele>390.60000610352</ele>
        <time>2021-05-30T09:24:22.000Z</time>
      </trkpt>
      <trkpt lat="47.80334" lon="7.09489">
        <ele>390</ele>
        <time>2021-05-30T09:24:23.000Z</time>
      </trkpt>
      <trkpt lat="47.80338" lon="7.095">
        <ele>389.39999389648</ele>
        <time>2021-05-30T09:24:24.000Z</time>
      </trkpt>
      <trkpt lat="47.80343" lon="7.09511">
        <ele>388.79998779297</ele>
        <time>2021-05-30T09:24:25.000Z</time>
      </trkpt>
      <trkpt lat="47.80347" lon="7.09521">
        <ele>388.20001220703</ele>
        <time>2021-05-30T09:24:26.000Z</time>
      </trkpt>
      <trkpt lat="47.80352" lon="7.09532">
        <ele>387.39999389648</ele>
        <time>2021-05-30T09:24:27.000Z</time>
      </trkpt>
      <trkpt lat="47.80356" lon="7.09541">
        <ele>386.79998779297</ele>
        <time>2021-05-30T09:24:28.000Z</time>
      </trkpt>
      <trkpt lat="47.8036" lon="7.09547">
        <ele>386</ele>
        <time>2021-05-30T09:24:29.000Z</time>
      </trkpt>
      <trkpt lat="47.80364" lon="7.09552">
        <ele>385.20001220703</ele>
        <time>2021-05-30T09:24:30.000Z</time>
      </trkpt>
      <trkpt lat="47.80368" lon="7.09557">
        <ele>384.39999389648</ele>
        <time>2021-05-30T09:24:31.000Z</time>
      </trkpt>
      <trkpt lat="47.80371" lon="7.09562">
        <ele>383.60000610352</ele>
        <time>2021-05-30T09:24:32.000Z</time>
      </trkpt>
      <trkpt lat="47.80374" lon="7.09567">
        <ele>383.20001220703</ele>
        <time>2021-05-30T09:24:33.000Z</time>
      </trkpt>
      <trkpt lat="47.80378" lon="7.09573">
        <ele>382.39999389648</ele>
        <time>2021-05-30T09:24:34.000Z</time>
      </trkpt>
      <trkpt lat="47.80381" lon="7.09579">
        <ele>381.79998779297</ele>
        <time>2021-05-30T09:24:35.000Z</time>
      </trkpt>
      <trkpt lat="47.80387" lon="7.09585">
        <ele>381.39999389648</ele>
        <time>2021-05-30T09:24:36.000Z</time>
      </trkpt>
      <trkpt lat="47.80394" lon="7.09589">
        <ele>380.79998779297</ele>
        <time>2021-05-30T09:24:37.000Z</time>
      </trkpt>
      <trkpt lat="47.80402" lon="7.0959">
        <ele>380.39999389648</ele>
        <time>2021-05-30T09:24:38.000Z</time>
      </trkpt>
      <trkpt lat="47.8041" lon="7.0959">
        <ele>379.60000610352</ele>
        <time>2021-05-30T09:24:39.000Z</time>
      </trkpt>
      <trkpt lat="47.80417" lon="7.09589">
        <ele>379</ele>
        <time>2021-05-30T09:24:40.000Z</time>
      </trkpt>
      <trkpt lat="47.80425" lon="7.09587">
        <ele>378.39999389648</ele>
        <time>2021-05-30T09:24:41.000Z</time>
      </trkpt>
      <trkpt lat="47.80432" lon="7.09586">
        <ele>377.60000610352</ele>
        <time>2021-05-30T09:24:42.000Z</time>
      </trkpt>
      <trkpt lat="47.80437" lon="7.09585">
        <ele>377</ele>
        <time>2021-05-30T09:24:43.000Z</time>
      </trkpt>
      <trkpt lat="47.80441" lon="7.09584">
        <ele>376.60000610352</ele>
        <time>2021-05-30T09:24:44.000Z</time>
      </trkpt>
      <trkpt lat="47.80443" lon="7.09583">
        <ele>376</ele>
        <time>2021-05-30T09:24:45.000Z</time>
      </trkpt>
      <trkpt lat="47.80443" lon="7.09585">
        <ele>375.39999389648</ele>
        <time>2021-05-30T09:24:46.000Z</time>
      </trkpt>
      <trkpt lat="47.80443" lon="7.09588">
        <ele>374.79998779297</ele>
        <time>2021-05-30T09:24:47.000Z</time>
      </trkpt>
      <trkpt lat="47.80442" lon="7.09591">
        <ele>374.79998779297</ele>
        <time>2021-05-30T09:24:48.000Z</time>
      </trkpt>
      <trkpt lat="47.80437" lon="7.096">
        <ele>374.79998779297</ele>
        <time>2021-05-30T09:24:51.000Z</time>
      </trkpt>
      <trkpt lat="47.80436" lon="7.09606">
        <ele>374.79998779297</ele>
        <time>2021-05-30T09:24:53.000Z</time>
      </trkpt>
      <trkpt lat="47.80438" lon="7.0961">
        <ele>374.79998779297</ele>
        <time>2021-05-30T09:24:56.000Z</time>
      </trkpt>
      <trkpt lat="47.8044" lon="7.0961">
        <ele>374.79998779297</ele>
        <time>2021-05-30T09:24:57.000Z</time>
      </trkpt>
      <trkpt lat="47.80443" lon="7.0961">
        <ele>374.39999389648</ele>
        <time>2021-05-30T09:24:58.000Z</time>
      </trkpt>
      <trkpt lat="47.80446" lon="7.09611">
        <ele>374</ele>
        <time>2021-05-30T09:24:59.000Z</time>
      </trkpt>
      <trkpt lat="47.80449" lon="7.09613">
        <ele>373.60000610352</ele>
        <time>2021-05-30T09:25:00.000Z</time>
      </trkpt>
      <trkpt lat="47.80452" lon="7.09614">
        <ele>373.20001220703</ele>
        <time>2021-05-30T09:25:01.000Z</time>
      </trkpt>
      <trkpt lat="47.80456" lon="7.09616">
        <ele>372.79998779297</ele>
        <time>2021-05-30T09:25:02.000Z</time>
      </trkpt>
      <trkpt lat="47.8046" lon="7.09618">
        <ele>372.39999389648</ele>
        <time>2021-05-30T09:25:03.000Z</time>
      </trkpt>
      <trkpt lat="47.80464" lon="7.0962">
        <ele>372</ele>
        <time>2021-05-30T09:25:04.000Z</time>
      </trkpt>
      <trkpt lat="47.80467" lon="7.09623">
        <ele>371.60000610352</ele>
        <time>2021-05-30T09:25:05.000Z</time>
      </trkpt>
      <trkpt lat="47.80471" lon="7.09625">
        <ele>371.20001220703</ele>
        <time>2021-05-30T09:25:06.000Z</time>
      </trkpt>
      <trkpt lat="47.80477" lon="7.09627">
        <ele>370.79998779297</ele>
        <time>2021-05-30T09:25:07.000Z</time>
      </trkpt>
      <trkpt lat="47.80481" lon="7.09629">
        <ele>370.79998779297</ele>
        <time>2021-05-30T09:25:08.000Z</time>
      </trkpt>
      <trkpt lat="47.80486" lon="7.09631">
        <ele>370.20001220703</ele>
        <time>2021-05-30T09:25:09.000Z</time>
      </trkpt>
      <trkpt lat="47.8049" lon="7.09632">
        <ele>369.79998779297</ele>
        <time>2021-05-30T09:25:10.000Z</time>
      </trkpt>
      <trkpt lat="47.80493" lon="7.09635">
        <ele>369.39999389648</ele>
        <time>2021-05-30T09:25:11.000Z</time>
      </trkpt>
      <trkpt lat="47.80495" lon="7.09639">
        <ele>368.79998779297</ele>
        <time>2021-05-30T09:25:12.000Z</time>
      </trkpt>
      <trkpt lat="47.80496" lon="7.09643">
        <ele>368.20001220703</ele>
        <time>2021-05-30T09:25:13.000Z</time>
      </trkpt>
      <trkpt lat="47.80497" lon="7.09648">
        <ele>367.60000610352</ele>
        <time>2021-05-30T09:25:14.000Z</time>
      </trkpt>
      <trkpt lat="47.80499" lon="7.09655">
        <ele>367</ele>
        <time>2021-05-30T09:25:15.000Z</time>
      </trkpt>
      <trkpt lat="47.80501" lon="7.09661">
        <ele>366.39999389648</ele>
        <time>2021-05-30T09:25:16.000Z</time>
      </trkpt>
      <trkpt lat="47.80508" lon="7.09701">
        <ele>366.39999389648</ele>
        <time>2021-05-30T09:25:22.000Z</time>
      </trkpt>
      <trkpt lat="47.80511" lon="7.09742">
        <ele>366.39999389648</ele>
        <time>2021-05-30T09:25:28.000Z</time>
      </trkpt>
      <trkpt lat="47.80516" lon="7.09811">
        <ele>366.39999389648</ele>
        <time>2021-05-30T09:25:37.000Z</time>
      </trkpt>
      <trkpt lat="47.80519" lon="7.09836">
        <ele>366</ele>
        <time>2021-05-30T09:25:40.000Z</time>
      </trkpt>
      <trkpt lat="47.80519" lon="7.09844">
        <ele>365.60000610352</ele>
        <time>2021-05-30T09:25:41.000Z</time>
      </trkpt>
      <trkpt lat="47.8052" lon="7.09852">
        <ele>365.20001220703</ele>
        <time>2021-05-30T09:25:42.000Z</time>
      </trkpt>
      <trkpt lat="47.8052" lon="7.0986">
        <ele>364.79998779297</ele>
        <time>2021-05-30T09:25:43.000Z</time>
      </trkpt>
      <trkpt lat="47.80521" lon="7.09868">
        <ele>364.39999389648</ele>
        <time>2021-05-30T09:25:44.000Z</time>
      </trkpt>
      <trkpt lat="47.80522" lon="7.09876">
        <ele>364.39999389648</ele>
        <time>2021-05-30T09:25:45.000Z</time>
      </trkpt>
      <trkpt lat="47.80525" lon="7.09903">
        <ele>364.39999389648</ele>
        <time>2021-05-30T09:25:48.000Z</time>
      </trkpt>
      <trkpt lat="47.80525" lon="7.09911">
        <ele>364.39999389648</ele>
        <time>2021-05-30T09:25:49.000Z</time>
      </trkpt>
      <trkpt lat="47.80525" lon="7.09928">
        <ele>363.79998779297</ele>
        <time>2021-05-30T09:25:51.000Z</time>
      </trkpt>
      <trkpt lat="47.80525" lon="7.09936">
        <ele>363.39999389648</ele>
        <time>2021-05-30T09:25:52.000Z</time>
      </trkpt>
      <trkpt lat="47.80525" lon="7.09945">
        <ele>363</ele>
        <time>2021-05-30T09:25:53.000Z</time>
      </trkpt>
      <trkpt lat="47.80524" lon="7.09953">
        <ele>362.39999389648</ele>
        <time>2021-05-30T09:25:54.000Z</time>
      </trkpt>
      <trkpt lat="47.80524" lon="7.09961">
        <ele>362</ele>
        <time>2021-05-30T09:25:55.000Z</time>
      </trkpt>
      <trkpt lat="47.80522" lon="7.09985">
        <ele>362</ele>
        <time>2021-05-30T09:25:58.000Z</time>
      </trkpt>
      <trkpt lat="47.80519" lon="7.10008">
        <ele>361.60000610352</ele>
        <time>2021-05-30T09:26:01.000Z</time>
      </trkpt>
      <trkpt lat="47.80518" lon="7.10016">
        <ele>361.20001220703</ele>
        <time>2021-05-30T09:26:02.000Z</time>
      </trkpt>
      <trkpt lat="47.80517" lon="7.10024">
        <ele>360.60000610352</ele>
        <time>2021-05-30T09:26:03.000Z</time>
      </trkpt>
      <trkpt lat="47.80516" lon="7.10033">
        <ele>360.20001220703</ele>
        <time>2021-05-30T09:26:04.000Z</time>
      </trkpt>
      <trkpt lat="47.80515" lon="7.10041">
        <ele>359.79998779297</ele>
        <time>2021-05-30T09:26:05.000Z</time>
      </trkpt>
      <trkpt lat="47.80513" lon="7.10077">
        <ele>359.79998779297</ele>
        <time>2021-05-30T09:26:09.000Z</time>
      </trkpt>
      <trkpt lat="47.80515" lon="7.10096">
        <ele>359.79998779297</ele>
        <time>2021-05-30T09:26:11.000Z</time>
      </trkpt>
      <trkpt lat="47.80518" lon="7.10123">
        <ele>359.39999389648</ele>
        <time>2021-05-30T09:26:14.000Z</time>
      </trkpt>
      <trkpt lat="47.80519" lon="7.10131">
        <ele>359</ele>
        <time>2021-05-30T09:26:15.000Z</time>
      </trkpt>
      <trkpt lat="47.80521" lon="7.10139">
        <ele>358.60000610352</ele>
        <time>2021-05-30T09:26:16.000Z</time>
      </trkpt>
      <trkpt lat="47.80524" lon="7.10145">
        <ele>358.20001220703</ele>
        <time>2021-05-30T09:26:17.000Z</time>
      </trkpt>
      <trkpt lat="47.80528" lon="7.10148">
        <ele>357.60000610352</ele>
        <time>2021-05-30T09:26:18.000Z</time>
      </trkpt>
      <trkpt lat="47.80538" lon="7.10151">
        <ele>357.60000610352</ele>
        <time>2021-05-30T09:26:20.000Z</time>
      </trkpt>
      <trkpt lat="47.80547" lon="7.10151">
        <ele>357.60000610352</ele>
        <time>2021-05-30T09:26:22.000Z</time>
      </trkpt>
      <trkpt lat="47.80551" lon="7.1015">
        <ele>357.60000610352</ele>
        <time>2021-05-30T09:26:23.000Z</time>
      </trkpt>
      <trkpt lat="47.80561" lon="7.10148">
        <ele>357.60000610352</ele>
        <time>2021-05-30T09:26:25.000Z</time>
      </trkpt>
      <trkpt lat="47.80579" lon="7.10142">
        <ele>357.60000610352</ele>
        <time>2021-05-30T09:26:29.000Z</time>
      </trkpt>
      <trkpt lat="47.80584" lon="7.10142">
        <ele>357.60000610352</ele>
        <time>2021-05-30T09:26:30.000Z</time>
      </trkpt>
      <trkpt lat="47.80603" lon="7.10139">
        <ele>357.60000610352</ele>
        <time>2021-05-30T09:26:34.000Z</time>
      </trkpt>
      <trkpt lat="47.80612" lon="7.10136">
        <ele>357.60000610352</ele>
        <time>2021-05-30T09:26:36.000Z</time>
      </trkpt>
      <trkpt lat="47.80617" lon="7.10135">
        <ele>357.60000610352</ele>
        <time>2021-05-30T09:26:37.000Z</time>
      </trkpt>
      <trkpt lat="47.8063" lon="7.10138">
        <ele>357.60000610352</ele>
        <time>2021-05-30T09:26:40.000Z</time>
      </trkpt>
      <trkpt lat="47.80646" lon="7.10135">
        <ele>357.60000610352</ele>
        <time>2021-05-30T09:26:44.000Z</time>
      </trkpt>
      <trkpt lat="47.80662" lon="7.10136">
        <ele>357.60000610352</ele>
        <time>2021-05-30T09:26:48.000Z</time>
      </trkpt>
      <trkpt lat="47.80666" lon="7.10136">
        <ele>357.60000610352</ele>
        <time>2021-05-30T09:26:49.000Z</time>
      </trkpt>
      <trkpt lat="47.80675" lon="7.10136">
        <ele>357.20001220703</ele>
        <time>2021-05-30T09:26:51.000Z</time>
      </trkpt>
      <trkpt lat="47.8068" lon="7.10136">
        <ele>356.79998779297</ele>
        <time>2021-05-30T09:26:52.000Z</time>
      </trkpt>
      <trkpt lat="47.80684" lon="7.10137">
        <ele>356.39999389648</ele>
        <time>2021-05-30T09:26:53.000Z</time>
      </trkpt>
      <trkpt lat="47.80689" lon="7.10137">
        <ele>356</ele>
        <time>2021-05-30T09:26:54.000Z</time>
      </trkpt>
      <trkpt lat="47.80694" lon="7.10138">
        <ele>355.60000610352</ele>
        <time>2021-05-30T09:26:55.000Z</time>
      </trkpt>
      <trkpt lat="47.8072" lon="7.10149">
        <ele>355.60000610352</ele>
        <time>2021-05-30T09:27:00.000Z</time>
      </trkpt>
      <trkpt lat="47.80744" lon="7.10156">
        <ele>355.60000610352</ele>
        <time>2021-05-30T09:27:05.000Z</time>
      </trkpt>
      <trkpt lat="47.80749" lon="7.10157">
        <ele>355.20001220703</ele>
        <time>2021-05-30T09:27:06.000Z</time>
      </trkpt>
      <trkpt lat="47.80753" lon="7.10158">
        <ele>354.79998779297</ele>
        <time>2021-05-30T09:27:07.000Z</time>
      </trkpt>
      <trkpt lat="47.80758" lon="7.10158">
        <ele>354.39999389648</ele>
        <time>2021-05-30T09:27:08.000Z</time>
      </trkpt>
      <trkpt lat="47.80763" lon="7.10159">
        <ele>354</ele>
        <time>2021-05-30T09:27:09.000Z</time>
      </trkpt>
      <trkpt lat="47.80767" lon="7.10161">
        <ele>353.60000610352</ele>
        <time>2021-05-30T09:27:10.000Z</time>
      </trkpt>
      <trkpt lat="47.80785" lon="7.10165">
        <ele>353.60000610352</ele>
        <time>2021-05-30T09:27:14.000Z</time>
      </trkpt>
      <trkpt lat="47.80817" lon="7.10175">
        <ele>353.60000610352</ele>
        <time>2021-05-30T09:27:21.000Z</time>
      </trkpt>
      <trkpt lat="47.80833" lon="7.10184">
        <ele>353.60000610352</ele>
        <time>2021-05-30T09:27:24.000Z</time>
      </trkpt>
      <trkpt lat="47.80842" lon="7.10192">
        <ele>353.60000610352</ele>
        <time>2021-05-30T09:27:26.000Z</time>
      </trkpt>
      <trkpt lat="47.80866" lon="7.10218">
        <ele>353.60000610352</ele>
        <time>2021-05-30T09:27:32.000Z</time>
      </trkpt>
      <trkpt lat="47.8087" lon="7.10222">
        <ele>353.60000610352</ele>
        <time>2021-05-30T09:27:33.000Z</time>
      </trkpt>
      <trkpt lat="47.80892" lon="7.10244">
        <ele>353</ele>
        <time>2021-05-30T09:27:38.000Z</time>
      </trkpt>
      <trkpt lat="47.80896" lon="7.10249">
        <ele>352.60000610352</ele>
        <time>2021-05-30T09:27:39.000Z</time>
      </trkpt>
      <trkpt lat="47.809" lon="7.10253">
        <ele>352.20001220703</ele>
        <time>2021-05-30T09:27:40.000Z</time>
      </trkpt>
      <trkpt lat="47.80904" lon="7.10258">
        <ele>351.79998779297</ele>
        <time>2021-05-30T09:27:41.000Z</time>
      </trkpt>
      <trkpt lat="47.80908" lon="7.10263">
        <ele>351.39999389648</ele>
        <time>2021-05-30T09:27:42.000Z</time>
      </trkpt>
      <trkpt lat="47.80929" lon="7.10289">
        <ele>351.39999389648</ele>
        <time>2021-05-30T09:27:47.000Z</time>
      </trkpt>
      <trkpt lat="47.80936" lon="7.103">
        <ele>351.39999389648</ele>
        <time>2021-05-30T09:27:50.000Z</time>
      </trkpt>
      <trkpt lat="47.80938" lon="7.10308">
        <ele>351.39999389648</ele>
        <time>2021-05-30T09:27:53.000Z</time>
      </trkpt>
      <trkpt lat="47.8094" lon="7.10316">
        <ele>351.39999389648</ele>
        <time>2021-05-30T09:27:56.000Z</time>
      </trkpt>
      <trkpt lat="47.80941" lon="7.10323">
        <ele>351.39999389648</ele>
        <time>2021-05-30T09:27:59.000Z</time>
      </trkpt>
      <trkpt lat="47.80939" lon="7.10328">
        <ele>351.39999389648</ele>
        <time>2021-05-30T09:28:01.000Z</time>
      </trkpt>
      <trkpt lat="47.80939" lon="7.10336">
        <ele>351.39999389648</ele>
        <time>2021-05-30T09:28:05.000Z</time>
      </trkpt>
      <trkpt lat="47.80939" lon="7.10336">
        <ele>351.39999389648</ele>
        <time>2021-05-30T09:28:06.000Z</time>
      </trkpt>
      <trkpt lat="47.80942" lon="7.10338">
        <ele>349.39999389648</ele>
        <time>2021-05-30T09:28:27.000Z</time>
      </trkpt>
      <trkpt lat="47.80946" lon="7.10338">
        <ele>349.39999389648</ele>
        <time>2021-05-30T09:28:29.000Z</time>
      </trkpt>
      <trkpt lat="47.8095" lon="7.10341">
        <ele>349.39999389648</ele>
        <time>2021-05-30T09:28:31.000Z</time>
      </trkpt>
      <trkpt lat="47.80957" lon="7.10347">
        <ele>349.39999389648</ele>
        <time>2021-05-30T09:28:33.000Z</time>
      </trkpt>
      <trkpt lat="47.8097" lon="7.10368">
        <ele>349.39999389648</ele>
        <time>2021-05-30T09:28:38.000Z</time>
      </trkpt>
      <trkpt lat="47.80985" lon="7.10392">
        <ele>349.39999389648</ele>
        <time>2021-05-30T09:28:43.000Z</time>
      </trkpt>
      <trkpt lat="47.80988" lon="7.10398">
        <ele>349.39999389648</ele>
        <time>2021-05-30T09:28:44.000Z</time>
      </trkpt>
      <trkpt lat="47.81009" lon="7.10435">
        <ele>349.39999389648</ele>
        <time>2021-05-30T09:28:50.000Z</time>
      </trkpt>
      <trkpt lat="47.81024" lon="7.10459">
        <ele>349</ele>
        <time>2021-05-30T09:28:54.000Z</time>
      </trkpt>
      <trkpt lat="47.81027" lon="7.10465">
        <ele>348.60000610352</ele>
        <time>2021-05-30T09:28:55.000Z</time>
      </trkpt>
      <trkpt lat="47.81031" lon="7.10471">
        <ele>348.20001220703</ele>
        <time>2021-05-30T09:28:56.000Z</time>
      </trkpt>
      <trkpt lat="47.81035" lon="7.10477">
        <ele>347.79998779297</ele>
        <time>2021-05-30T09:28:57.000Z</time>
      </trkpt>
      <trkpt lat="47.81038" lon="7.10482">
        <ele>347.39999389648</ele>
        <time>2021-05-30T09:28:58.000Z</time>
      </trkpt>
      <trkpt lat="47.81041" lon="7.10488">
        <ele>347.39999389648</ele>
        <time>2021-05-30T09:28:59.000Z</time>
      </trkpt>
      <trkpt lat="47.81051" lon="7.10503">
        <ele>347.39999389648</ele>
        <time>2021-05-30T09:29:02.000Z</time>
      </trkpt>
      <trkpt lat="47.81054" lon="7.10504">
        <ele>347.39999389648</ele>
        <time>2021-05-30T09:29:03.000Z</time>
      </trkpt>
      <trkpt lat="47.81066" lon="7.10498">
        <ele>347.39999389648</ele>
        <time>2021-05-30T09:29:06.000Z</time>
      </trkpt>
      <trkpt lat="47.81084" lon="7.10499">
        <ele>347.39999389648</ele>
        <time>2021-05-30T09:29:10.000Z</time>
      </trkpt>
      <trkpt lat="47.81089" lon="7.10501">
        <ele>347.39999389648</ele>
        <time>2021-05-30T09:29:11.000Z</time>
      </trkpt>
      <trkpt lat="47.81097" lon="7.10505">
        <ele>347.39999389648</ele>
        <time>2021-05-30T09:29:13.000Z</time>
      </trkpt>
      <trkpt lat="47.81104" lon="7.105">
        <ele>347.39999389648</ele>
        <time>2021-05-30T09:29:15.000Z</time>
      </trkpt>
      <trkpt lat="47.81105" lon="7.10499">
        <ele>347.39999389648</ele>
        <time>2021-05-30T09:29:17.000Z</time>
      </trkpt>
    </trkseg>
  </trk>
</gpx>